<?xml version="1.0"?>
<gpx
 version="1.1"
 creator="Satmap Active 20"
 xmlns:xsi="http://www.w3.org/2001/XMLSchema-instance"
 xmlns="http://www.topografix.com/GPX/1/1"
 xmlns:satmap="http://www.satmap.com/updates/xmlschemas/GpxExtensions/v2/GpxExtensions_v2.xsd"
 xsi:schemaLocation="http://www.topografix.com/GPX/1/1 http://www.topografix.com/GPX/1/1/gpx.xsd">
<metadata>
<time>2019-10-02T09:47:27Z</time>
<extensions>
<satmap:platform>43</satmap:platform>
<satmap:software version="3.12.831">SM15.exe</satmap:software>
<satmap:username>Jim Grant</satmap:username>
<satmap:network_ids>
<satmap:network_id type="wifi">00-23-A7-EC-D5-78</satmap:network_id>
<satmap:network_id type="bluetooth">80-BB-EB-D7-5B-7C</satmap:network_id>
</satmap:network_ids>
<satmap:snap_type>simple</satmap:snap_type>
</extensions>
</metadata>
<trk>
<name>2019-10-02_0947</name>
<desc>Track 1</desc>
<number>1</number>
<trkseg>
<trkpt lat="54.609442" lon="-3.205135"><ele>213</ele><time>2019-10-02T09:47:27Z</time><name>PT1</name></trkpt>
<trkpt lat="54.609440" lon="-3.205124"><ele>213</ele><time>2019-10-02T09:47:54Z</time><name>PT2</name></trkpt>
<trkpt lat="54.609453" lon="-3.205111"><ele>213</ele><time>2019-10-02T09:47:55Z</time><name>PT3</name></trkpt>
<trkpt lat="54.609451" lon="-3.205107"><ele>213</ele><time>2019-10-02T09:47:56Z</time><name>PT4</name></trkpt>
<trkpt lat="54.609452" lon="-3.205106"><ele>213</ele><time>2019-10-02T09:48:14Z</time><name>PT5</name></trkpt>
<trkpt lat="54.609442" lon="-3.205078"><ele>213</ele><time>2019-10-02T09:48:15Z</time><name>PT6</name></trkpt>
<trkpt lat="54.609439" lon="-3.205068"><ele>213</ele><time>2019-10-02T09:48:16Z</time><name>PT7</name></trkpt>
<trkpt lat="54.609436" lon="-3.205067"><ele>213</ele><time>2019-10-02T09:48:17Z</time><name>PT8</name></trkpt>
<trkpt lat="54.609442" lon="-3.205069"><ele>213</ele><time>2019-10-02T09:48:22Z</time><name>PT9</name></trkpt>
<trkpt lat="54.609441" lon="-3.205067"><ele>213</ele><time>2019-10-02T09:48:23Z</time><name>PT10</name></trkpt>
<trkpt lat="54.609454" lon="-3.205082"><ele>213</ele><time>2019-10-02T09:48:24Z</time><name>PT11</name></trkpt>
<trkpt lat="54.609464" lon="-3.205102"><ele>214</ele><time>2019-10-02T09:48:25Z</time><name>PT12</name></trkpt>
<trkpt lat="54.609454" lon="-3.205100"><ele>214</ele><time>2019-10-02T09:48:26Z</time><name>PT13</name></trkpt>
<trkpt lat="54.609452" lon="-3.205100"><ele>214</ele><time>2019-10-02T09:48:27Z</time><name>PT14</name></trkpt>
<trkpt lat="54.609451" lon="-3.205097"><ele>214</ele><time>2019-10-02T09:48:28Z</time><name>PT15</name></trkpt>
<trkpt lat="54.609442" lon="-3.205072"><ele>214</ele><time>2019-10-02T09:48:35Z</time><name>PT16</name></trkpt>
<trkpt lat="54.609430" lon="-3.205069"><ele>215</ele><time>2019-10-02T09:48:36Z</time><name>PT17</name></trkpt>
<trkpt lat="54.609426" lon="-3.205071"><ele>215</ele><time>2019-10-02T09:48:37Z</time><name>PT18</name></trkpt>
<trkpt lat="54.609416" lon="-3.205071"><ele>215</ele><time>2019-10-02T09:48:46Z</time><name>PT19</name></trkpt>
<trkpt lat="54.609417" lon="-3.205077"><ele>215</ele><time>2019-10-02T09:48:47Z</time><name>PT20</name></trkpt>
<trkpt lat="54.609418" lon="-3.205077"><ele>216</ele><time>2019-10-02T09:48:48Z</time><name>PT21</name></trkpt>
<trkpt lat="54.609413" lon="-3.205075"><ele>216</ele><time>2019-10-02T09:48:49Z</time><name>PT22</name></trkpt>
<trkpt lat="54.609413" lon="-3.205070"><ele>215</ele><time>2019-10-02T09:48:50Z</time><name>PT23</name></trkpt>
<trkpt lat="54.609413" lon="-3.205071"><ele>215</ele><time>2019-10-02T09:48:51Z</time><name>PT24</name></trkpt>
<trkpt lat="54.609418" lon="-3.205072"><ele>215</ele><time>2019-10-02T09:48:52Z</time><name>PT25</name></trkpt>
<trkpt lat="54.609418" lon="-3.205072"><ele>215</ele><time>2019-10-02T09:48:53Z</time><name>PT26</name></trkpt>
<trkpt lat="54.609416" lon="-3.205078"><ele>215</ele><time>2019-10-02T09:48:54Z</time><name>PT27</name></trkpt>
<trkpt lat="54.609401" lon="-3.205072"><ele>215</ele><time>2019-10-02T09:48:55Z</time><name>PT28</name></trkpt>
<trkpt lat="54.609389" lon="-3.205068"><ele>215</ele><time>2019-10-02T09:48:56Z</time><name>PT29</name></trkpt>
<trkpt lat="54.609385" lon="-3.205066"><ele>215</ele><time>2019-10-02T09:48:57Z</time><name>PT30</name></trkpt>
<trkpt lat="54.609394" lon="-3.205069"><ele>215</ele><time>2019-10-02T09:48:58Z</time><name>PT31</name></trkpt>
<trkpt lat="54.609393" lon="-3.205069"><ele>215</ele><time>2019-10-02T09:48:59Z</time><name>PT32</name></trkpt>
<trkpt lat="54.609386" lon="-3.205067"><ele>215</ele><time>2019-10-02T09:49:00Z</time><name>PT33</name></trkpt>
<trkpt lat="54.609392" lon="-3.205068"><ele>215</ele><time>2019-10-02T09:49:01Z</time><name>PT34</name></trkpt>
<trkpt lat="54.609404" lon="-3.205079"><ele>215</ele><time>2019-10-02T09:49:02Z</time><name>PT35</name></trkpt>
<trkpt lat="54.609406" lon="-3.205079"><ele>215</ele><time>2019-10-02T09:49:03Z</time><name>PT36</name></trkpt>
<trkpt lat="54.609406" lon="-3.205078"><ele>215</ele><time>2019-10-02T09:49:04Z</time><name>PT37</name></trkpt>
<trkpt lat="54.609405" lon="-3.205079"><ele>215</ele><time>2019-10-02T09:49:05Z</time><name>PT38</name></trkpt>
<trkpt lat="54.609400" lon="-3.205094"><ele>214</ele><time>2019-10-02T09:49:07Z</time><name>PT39</name></trkpt>
<trkpt lat="54.609399" lon="-3.205099"><ele>214</ele><time>2019-10-02T09:49:08Z</time><name>PT40</name></trkpt>
<trkpt lat="54.609417" lon="-3.205113"><ele>214</ele><time>2019-10-02T09:49:09Z</time><name>PT41</name></trkpt>
<trkpt lat="54.609412" lon="-3.205113"><ele>213</ele><time>2019-10-02T09:49:10Z</time><name>PT42</name></trkpt>
<trkpt lat="54.609413" lon="-3.205114"><ele>214</ele><time>2019-10-02T09:49:11Z</time><name>PT43</name></trkpt>
<trkpt lat="54.609412" lon="-3.205114"><ele>214</ele><time>2019-10-02T09:49:12Z</time><name>PT44</name></trkpt>
<trkpt lat="54.609411" lon="-3.205116"><ele>213</ele><time>2019-10-02T09:49:13Z</time><name>PT45</name></trkpt>
<trkpt lat="54.609417" lon="-3.205112"><ele>214</ele><time>2019-10-02T09:49:16Z</time><name>PT46</name></trkpt>
<trkpt lat="54.609424" lon="-3.205118"><ele>212</ele><time>2019-10-02T09:49:17Z</time><name>PT47</name></trkpt>
<trkpt lat="54.609432" lon="-3.205115"><ele>213</ele><time>2019-10-02T09:49:18Z</time><name>PT48</name></trkpt>
<trkpt lat="54.609449" lon="-3.205125"><ele>213</ele><time>2019-10-02T09:49:19Z</time><name>PT49</name></trkpt>
<trkpt lat="54.609446" lon="-3.205122"><ele>212</ele><time>2019-10-02T09:49:20Z</time><name>PT50</name></trkpt>
<trkpt lat="54.609444" lon="-3.205113"><ele>213</ele><time>2019-10-02T09:49:21Z</time><name>PT51</name></trkpt>
<trkpt lat="54.609445" lon="-3.205125"><ele>213</ele><time>2019-10-02T09:49:22Z</time><name>PT52</name></trkpt>
<trkpt lat="54.609446" lon="-3.205129"><ele>213</ele><time>2019-10-02T09:49:23Z</time><name>PT53</name></trkpt>
<trkpt lat="54.609446" lon="-3.205137"><ele>213</ele><time>2019-10-02T09:49:24Z</time><name>PT54</name></trkpt>
<trkpt lat="54.609445" lon="-3.205142"><ele>213</ele><time>2019-10-02T09:49:25Z</time><name>PT55</name></trkpt>
<trkpt lat="54.609445" lon="-3.205142"><ele>212</ele><time>2019-10-02T09:49:26Z</time><name>PT56</name></trkpt>
<trkpt lat="54.609443" lon="-3.205139"><ele>212</ele><time>2019-10-02T09:49:27Z</time><name>PT57</name></trkpt>
<trkpt lat="54.609442" lon="-3.205143"><ele>212</ele><time>2019-10-02T09:49:28Z</time><name>PT58</name></trkpt>
<trkpt lat="54.609435" lon="-3.205151"><ele>213</ele><time>2019-10-02T09:49:34Z</time><name>PT59</name></trkpt>
<trkpt lat="54.609431" lon="-3.205156"><ele>213</ele><time>2019-10-02T09:49:35Z</time><name>PT60</name></trkpt>
<trkpt lat="54.609431" lon="-3.205156"><ele>213</ele><time>2019-10-02T09:49:36Z</time><name>PT61</name></trkpt>
<trkpt lat="54.609431" lon="-3.205156"><ele>213</ele><time>2019-10-02T09:49:37Z</time><name>PT62</name></trkpt>
<trkpt lat="54.609428" lon="-3.205156"><ele>213</ele><time>2019-10-02T09:49:38Z</time><name>PT63</name></trkpt>
<trkpt lat="54.609428" lon="-3.205148"><ele>212</ele><time>2019-10-02T09:49:39Z</time><name>PT64</name></trkpt>
<trkpt lat="54.609433" lon="-3.205160"><ele>213</ele><time>2019-10-02T09:49:40Z</time><name>PT65</name></trkpt>
<trkpt lat="54.609432" lon="-3.205159"><ele>213</ele><time>2019-10-02T09:49:47Z</time><name>PT66</name></trkpt>
<trkpt lat="54.609432" lon="-3.205161"><ele>213</ele><time>2019-10-02T09:49:48Z</time><name>PT67</name></trkpt>
<trkpt lat="54.609429" lon="-3.205157"><ele>213</ele><time>2019-10-02T09:49:49Z</time><name>PT68</name></trkpt>
<trkpt lat="54.609427" lon="-3.205152"><ele>212</ele><time>2019-10-02T09:49:50Z</time><name>PT69</name></trkpt>
<trkpt lat="54.609430" lon="-3.205151"><ele>212</ele><time>2019-10-02T09:49:53Z</time><name>PT70</name></trkpt>
<trkpt lat="54.609440" lon="-3.205157"><ele>213</ele><time>2019-10-02T09:49:54Z</time><name>PT71</name></trkpt>
<trkpt lat="54.609438" lon="-3.205159"><ele>213</ele><time>2019-10-02T09:49:55Z</time><name>PT72</name></trkpt>
<trkpt lat="54.609442" lon="-3.205165"><ele>213</ele><time>2019-10-02T09:49:56Z</time><name>PT73</name></trkpt>
<trkpt lat="54.609454" lon="-3.205177"><ele>213</ele><time>2019-10-02T09:49:57Z</time><name>PT74</name></trkpt>
<trkpt lat="54.609459" lon="-3.205181"><ele>213</ele><time>2019-10-02T09:49:58Z</time><name>PT75</name></trkpt>
<trkpt lat="54.609445" lon="-3.205174"><ele>213</ele><time>2019-10-02T09:49:59Z</time><name>PT76</name></trkpt>
<trkpt lat="54.609444" lon="-3.205170"><ele>213</ele><time>2019-10-02T09:50:00Z</time><name>PT77</name></trkpt>
<trkpt lat="54.609435" lon="-3.205158"><ele>212</ele><time>2019-10-02T09:50:01Z</time><name>PT78</name></trkpt>
<trkpt lat="54.609441" lon="-3.205165"><ele>212</ele><time>2019-10-02T09:50:02Z</time><name>PT79</name></trkpt>
<trkpt lat="54.609434" lon="-3.205166"><ele>212</ele><time>2019-10-02T09:50:03Z</time><name>PT80</name></trkpt>
<trkpt lat="54.609435" lon="-3.205167"><ele>212</ele><time>2019-10-02T09:50:04Z</time><name>PT81</name></trkpt>
<trkpt lat="54.609429" lon="-3.205157"><ele>211</ele><time>2019-10-02T09:50:05Z</time><name>PT82</name></trkpt>
<trkpt lat="54.609423" lon="-3.205149"><ele>211</ele><time>2019-10-02T09:50:06Z</time><name>PT83</name></trkpt>
<trkpt lat="54.609419" lon="-3.205149"><ele>210</ele><time>2019-10-02T09:50:07Z</time><name>PT84</name></trkpt>
<trkpt lat="54.609415" lon="-3.205142"><ele>210</ele><time>2019-10-02T09:50:08Z</time><name>PT85</name></trkpt>
<trkpt lat="54.609404" lon="-3.205126"><ele>210</ele><time>2019-10-02T09:50:09Z</time><name>PT86</name></trkpt>
<trkpt lat="54.609399" lon="-3.205128"><ele>211</ele><time>2019-10-02T09:50:10Z</time><name>PT87</name></trkpt>
<trkpt lat="54.609400" lon="-3.205126"><ele>212</ele><time>2019-10-02T09:50:11Z</time><name>PT88</name></trkpt>
<trkpt lat="54.609400" lon="-3.205124"><ele>213</ele><time>2019-10-02T09:50:12Z</time><name>PT89</name></trkpt>
<trkpt lat="54.609396" lon="-3.205117"><ele>213</ele><time>2019-10-02T09:50:13Z</time><name>PT90</name></trkpt>
<trkpt lat="54.609395" lon="-3.205114"><ele>213</ele><time>2019-10-02T09:50:14Z</time><name>PT91</name></trkpt>
<trkpt lat="54.609389" lon="-3.205109"><ele>211</ele><time>2019-10-02T09:50:15Z</time><name>PT92</name></trkpt>
<trkpt lat="54.609388" lon="-3.205095"><ele>210</ele><time>2019-10-02T09:50:16Z</time><name>PT93</name></trkpt>
<trkpt lat="54.609384" lon="-3.205084"><ele>211</ele><time>2019-10-02T09:50:17Z</time><name>PT94</name></trkpt>
<trkpt lat="54.609384" lon="-3.205090"><ele>210</ele><time>2019-10-02T09:50:18Z</time><name>PT95</name></trkpt>
<trkpt lat="54.609379" lon="-3.205085"><ele>209</ele><time>2019-10-02T09:50:19Z</time><name>PT96</name></trkpt>
<trkpt lat="54.609378" lon="-3.205079"><ele>210</ele><time>2019-10-02T09:50:20Z</time><name>PT97</name></trkpt>
<trkpt lat="54.609376" lon="-3.205073"><ele>210</ele><time>2019-10-02T09:50:21Z</time><name>PT98</name></trkpt>
<trkpt lat="54.609379" lon="-3.205066"><ele>209</ele><time>2019-10-02T09:50:30Z</time><name>PT99</name></trkpt>
<trkpt lat="54.609380" lon="-3.205064"><ele>208</ele><time>2019-10-02T09:50:31Z</time><name>PT100</name></trkpt>
<trkpt lat="54.609377" lon="-3.205056"><ele>208</ele><time>2019-10-02T09:50:32Z</time><name>PT101</name></trkpt>
<trkpt lat="54.609371" lon="-3.205048"><ele>208</ele><time>2019-10-02T09:50:33Z</time><name>PT102</name></trkpt>
<trkpt lat="54.609368" lon="-3.205045"><ele>207</ele><time>2019-10-02T09:50:34Z</time><name>PT103</name></trkpt>
<trkpt lat="54.609374" lon="-3.205061"><ele>208</ele><time>2019-10-02T09:50:48Z</time><name>PT104</name></trkpt>
<trkpt lat="54.609380" lon="-3.205065"><ele>208</ele><time>2019-10-02T09:50:49Z</time><name>PT105</name></trkpt>
<trkpt lat="54.609379" lon="-3.205068"><ele>208</ele><time>2019-10-02T09:50:50Z</time><name>PT106</name></trkpt>
<trkpt lat="54.609379" lon="-3.205073"><ele>208</ele><time>2019-10-02T09:50:51Z</time><name>PT107</name></trkpt>
<trkpt lat="54.609378" lon="-3.205080"><ele>208</ele><time>2019-10-02T09:50:52Z</time><name>PT108</name></trkpt>
<trkpt lat="54.609375" lon="-3.205082"><ele>208</ele><time>2019-10-02T09:50:55Z</time><name>PT109</name></trkpt>
<trkpt lat="54.609370" lon="-3.205084"><ele>207</ele><time>2019-10-02T09:50:56Z</time><name>PT110</name></trkpt>
<trkpt lat="54.609366" lon="-3.205079"><ele>207</ele><time>2019-10-02T09:50:57Z</time><name>PT111</name></trkpt>
<trkpt lat="54.609361" lon="-3.205077"><ele>207</ele><time>2019-10-02T09:50:58Z</time><name>PT112</name></trkpt>
<trkpt lat="54.609359" lon="-3.205100"><ele>205</ele><time>2019-10-02T09:51:03Z</time><name>PT113</name></trkpt>
<trkpt lat="54.609359" lon="-3.205104"><ele>205</ele><time>2019-10-02T09:51:04Z</time><name>PT114</name></trkpt>
<trkpt lat="54.609363" lon="-3.205096"><ele>205</ele><time>2019-10-02T09:51:14Z</time><name>PT115</name></trkpt>
<trkpt lat="54.609365" lon="-3.205095"><ele>205</ele><time>2019-10-02T09:51:15Z</time><name>PT116</name></trkpt>
<trkpt lat="54.609368" lon="-3.205096"><ele>205</ele><time>2019-10-02T09:51:16Z</time><name>PT117</name></trkpt>
<trkpt lat="54.609370" lon="-3.205099"><ele>205</ele><time>2019-10-02T09:51:30Z</time><name>PT118</name></trkpt>
<trkpt lat="54.609373" lon="-3.205104"><ele>205</ele><time>2019-10-02T09:51:31Z</time><name>PT119</name></trkpt>
<trkpt lat="54.609375" lon="-3.205112"><ele>205</ele><time>2019-10-02T09:51:32Z</time><name>PT120</name></trkpt>
<trkpt lat="54.609375" lon="-3.205117"><ele>206</ele><time>2019-10-02T09:51:33Z</time><name>PT121</name></trkpt>
<trkpt lat="54.609383" lon="-3.205118"><ele>206</ele><time>2019-10-02T09:52:25Z</time><name>PT122</name></trkpt>
<trkpt lat="54.609387" lon="-3.205121"><ele>206</ele><time>2019-10-02T09:52:26Z</time><name>PT123</name></trkpt>
<trkpt lat="54.609395" lon="-3.205129"><ele>206</ele><time>2019-10-02T09:53:16Z</time><name>PT124</name></trkpt>
<trkpt lat="54.609410" lon="-3.205146"><ele>206</ele><time>2019-10-02T09:53:17Z</time><name>PT125</name></trkpt>
<trkpt lat="54.609416" lon="-3.205150"><ele>206</ele><time>2019-10-02T09:53:18Z</time><name>PT126</name></trkpt>
<trkpt lat="54.609414" lon="-3.205140"><ele>207</ele><time>2019-10-02T09:53:20Z</time><name>PT127</name></trkpt>
<trkpt lat="54.609419" lon="-3.205125"><ele>207</ele><time>2019-10-02T09:53:21Z</time><name>PT128</name></trkpt>
<trkpt lat="54.609423" lon="-3.205114"><ele>208</ele><time>2019-10-02T09:53:22Z</time><name>PT129</name></trkpt>
<trkpt lat="54.609426" lon="-3.205098"><ele>208</ele><time>2019-10-02T09:53:31Z</time><name>PT130</name></trkpt>
<trkpt lat="54.609424" lon="-3.205082"><ele>208</ele><time>2019-10-02T09:53:32Z</time><name>PT131</name></trkpt>
<trkpt lat="54.609427" lon="-3.205068"><ele>208</ele><time>2019-10-02T09:53:33Z</time><name>PT132</name></trkpt>
<trkpt lat="54.609425" lon="-3.205047"><ele>208</ele><time>2019-10-02T09:53:34Z</time><name>PT133</name></trkpt>
<trkpt lat="54.609437" lon="-3.205033"><ele>207</ele><time>2019-10-02T09:53:35Z</time><name>PT134</name></trkpt>
<trkpt lat="54.609437" lon="-3.205018"><ele>207</ele><time>2019-10-02T09:53:36Z</time><name>PT135</name></trkpt>
<trkpt lat="54.609437" lon="-3.205002"><ele>207</ele><time>2019-10-02T09:53:37Z</time><name>PT136</name></trkpt>
<trkpt lat="54.609437" lon="-3.204985"><ele>207</ele><time>2019-10-02T09:53:38Z</time><name>PT137</name></trkpt>
<trkpt lat="54.609436" lon="-3.204967"><ele>207</ele><time>2019-10-02T09:53:39Z</time><name>PT138</name></trkpt>
<trkpt lat="54.609435" lon="-3.204947"><ele>207</ele><time>2019-10-02T09:53:40Z</time><name>PT139</name></trkpt>
<trkpt lat="54.609434" lon="-3.204927"><ele>207</ele><time>2019-10-02T09:53:41Z</time><name>PT140</name></trkpt>
<trkpt lat="54.609434" lon="-3.204911"><ele>207</ele><time>2019-10-02T09:53:42Z</time><name>PT141</name></trkpt>
<trkpt lat="54.609434" lon="-3.204894"><ele>207</ele><time>2019-10-02T09:53:43Z</time><name>PT142</name></trkpt>
<trkpt lat="54.609435" lon="-3.204882"><ele>206</ele><time>2019-10-02T09:53:44Z</time><name>PT143</name></trkpt>
<trkpt lat="54.609434" lon="-3.204868"><ele>206</ele><time>2019-10-02T09:53:45Z</time><name>PT144</name></trkpt>
<trkpt lat="54.609432" lon="-3.204849"><ele>206</ele><time>2019-10-02T09:53:46Z</time><name>PT145</name></trkpt>
<trkpt lat="54.609429" lon="-3.204837"><ele>206</ele><time>2019-10-02T09:53:47Z</time><name>PT146</name></trkpt>
<trkpt lat="54.609430" lon="-3.204821"><ele>206</ele><time>2019-10-02T09:53:48Z</time><name>PT147</name></trkpt>
<trkpt lat="54.609428" lon="-3.204811"><ele>205</ele><time>2019-10-02T09:53:49Z</time><name>PT148</name></trkpt>
<trkpt lat="54.609426" lon="-3.204806"><ele>205</ele><time>2019-10-02T09:53:50Z</time><name>PT149</name></trkpt>
<trkpt lat="54.609426" lon="-3.204790"><ele>205</ele><time>2019-10-02T09:53:51Z</time><name>PT150</name></trkpt>
<trkpt lat="54.609426" lon="-3.204776"><ele>205</ele><time>2019-10-02T09:53:52Z</time><name>PT151</name></trkpt>
<trkpt lat="54.609425" lon="-3.204766"><ele>204</ele><time>2019-10-02T09:53:53Z</time><name>PT152</name></trkpt>
<trkpt lat="54.609424" lon="-3.204753"><ele>205</ele><time>2019-10-02T09:53:54Z</time><name>PT153</name></trkpt>
<trkpt lat="54.609422" lon="-3.204744"><ele>204</ele><time>2019-10-02T09:53:55Z</time><name>PT154</name></trkpt>
<trkpt lat="54.609425" lon="-3.204731"><ele>204</ele><time>2019-10-02T09:53:56Z</time><name>PT155</name></trkpt>
<trkpt lat="54.609427" lon="-3.204717"><ele>205</ele><time>2019-10-02T09:53:57Z</time><name>PT156</name></trkpt>
<trkpt lat="54.609426" lon="-3.204699"><ele>204</ele><time>2019-10-02T09:53:58Z</time><name>PT157</name></trkpt>
<trkpt lat="54.609431" lon="-3.204687"><ele>204</ele><time>2019-10-02T09:53:59Z</time><name>PT158</name></trkpt>
<trkpt lat="54.609437" lon="-3.204661"><ele>204</ele><time>2019-10-02T09:54:00Z</time><name>PT159</name></trkpt>
<trkpt lat="54.609441" lon="-3.204637"><ele>205</ele><time>2019-10-02T09:54:01Z</time><name>PT160</name></trkpt>
<trkpt lat="54.609443" lon="-3.204616"><ele>205</ele><time>2019-10-02T09:54:02Z</time><name>PT161</name></trkpt>
<trkpt lat="54.609445" lon="-3.204597"><ele>205</ele><time>2019-10-02T09:54:03Z</time><name>PT162</name></trkpt>
<trkpt lat="54.609446" lon="-3.204581"><ele>205</ele><time>2019-10-02T09:54:04Z</time><name>PT163</name></trkpt>
<trkpt lat="54.609448" lon="-3.204563"><ele>205</ele><time>2019-10-02T09:54:05Z</time><name>PT164</name></trkpt>
<trkpt lat="54.609450" lon="-3.204545"><ele>205</ele><time>2019-10-02T09:54:06Z</time><name>PT165</name></trkpt>
<trkpt lat="54.609451" lon="-3.204527"><ele>205</ele><time>2019-10-02T09:54:07Z</time><name>PT166</name></trkpt>
<trkpt lat="54.609455" lon="-3.204508"><ele>205</ele><time>2019-10-02T09:54:08Z</time><name>PT167</name></trkpt>
<trkpt lat="54.609455" lon="-3.204483"><ele>205</ele><time>2019-10-02T09:54:09Z</time><name>PT168</name></trkpt>
<trkpt lat="54.609457" lon="-3.204462"><ele>205</ele><time>2019-10-02T09:54:10Z</time><name>PT169</name></trkpt>
<trkpt lat="54.609457" lon="-3.204441"><ele>205</ele><time>2019-10-02T09:54:11Z</time><name>PT170</name></trkpt>
<trkpt lat="54.609457" lon="-3.204421"><ele>205</ele><time>2019-10-02T09:54:12Z</time><name>PT171</name></trkpt>
<trkpt lat="54.609460" lon="-3.204401"><ele>205</ele><time>2019-10-02T09:54:13Z</time><name>PT172</name></trkpt>
<trkpt lat="54.609460" lon="-3.204383"><ele>205</ele><time>2019-10-02T09:54:14Z</time><name>PT173</name></trkpt>
<trkpt lat="54.609460" lon="-3.204366"><ele>205</ele><time>2019-10-02T09:54:15Z</time><name>PT174</name></trkpt>
<trkpt lat="54.609458" lon="-3.204353"><ele>205</ele><time>2019-10-02T09:54:16Z</time><name>PT175</name></trkpt>
<trkpt lat="54.609457" lon="-3.204340"><ele>204</ele><time>2019-10-02T09:54:17Z</time><name>PT176</name></trkpt>
<trkpt lat="54.609454" lon="-3.204326"><ele>204</ele><time>2019-10-02T09:54:18Z</time><name>PT177</name></trkpt>
<trkpt lat="54.609458" lon="-3.204308"><ele>204</ele><time>2019-10-02T09:54:19Z</time><name>PT178</name></trkpt>
<trkpt lat="54.609463" lon="-3.204296"><ele>203</ele><time>2019-10-02T09:54:20Z</time><name>PT179</name></trkpt>
<trkpt lat="54.609467" lon="-3.204282"><ele>203</ele><time>2019-10-02T09:54:21Z</time><name>PT180</name></trkpt>
<trkpt lat="54.609469" lon="-3.204264"><ele>203</ele><time>2019-10-02T09:54:22Z</time><name>PT181</name></trkpt>
<trkpt lat="54.609469" lon="-3.204250"><ele>203</ele><time>2019-10-02T09:54:23Z</time><name>PT182</name></trkpt>
<trkpt lat="54.609471" lon="-3.204234"><ele>203</ele><time>2019-10-02T09:54:24Z</time><name>PT183</name></trkpt>
<trkpt lat="54.609473" lon="-3.204220"><ele>203</ele><time>2019-10-02T09:54:25Z</time><name>PT184</name></trkpt>
<trkpt lat="54.609475" lon="-3.204207"><ele>203</ele><time>2019-10-02T09:54:26Z</time><name>PT185</name></trkpt>
<trkpt lat="54.609474" lon="-3.204190"><ele>203</ele><time>2019-10-02T09:54:27Z</time><name>PT186</name></trkpt>
<trkpt lat="54.609475" lon="-3.204170"><ele>204</ele><time>2019-10-02T09:54:28Z</time><name>PT187</name></trkpt>
<trkpt lat="54.609474" lon="-3.204155"><ele>203</ele><time>2019-10-02T09:54:29Z</time><name>PT188</name></trkpt>
<trkpt lat="54.609477" lon="-3.204136"><ele>203</ele><time>2019-10-02T09:54:30Z</time><name>PT189</name></trkpt>
<trkpt lat="54.609470" lon="-3.204113"><ele>204</ele><time>2019-10-02T09:54:31Z</time><name>PT190</name></trkpt>
<trkpt lat="54.609467" lon="-3.204095"><ele>203</ele><time>2019-10-02T09:54:32Z</time><name>PT191</name></trkpt>
<trkpt lat="54.609465" lon="-3.204077"><ele>203</ele><time>2019-10-02T09:54:33Z</time><name>PT192</name></trkpt>
<trkpt lat="54.609464" lon="-3.204054"><ele>203</ele><time>2019-10-02T09:54:34Z</time><name>PT193</name></trkpt>
<trkpt lat="54.609465" lon="-3.204034"><ele>203</ele><time>2019-10-02T09:54:35Z</time><name>PT194</name></trkpt>
<trkpt lat="54.609456" lon="-3.204024"><ele>201</ele><time>2019-10-02T09:54:36Z</time><name>PT195</name></trkpt>
<trkpt lat="54.609449" lon="-3.204009"><ele>200</ele><time>2019-10-02T09:54:37Z</time><name>PT196</name></trkpt>
<trkpt lat="54.609448" lon="-3.203994"><ele>200</ele><time>2019-10-02T09:54:38Z</time><name>PT197</name></trkpt>
<trkpt lat="54.609447" lon="-3.203976"><ele>201</ele><time>2019-10-02T09:54:39Z</time><name>PT198</name></trkpt>
<trkpt lat="54.609446" lon="-3.203959"><ele>201</ele><time>2019-10-02T09:54:40Z</time><name>PT199</name></trkpt>
<trkpt lat="54.609445" lon="-3.203938"><ele>200</ele><time>2019-10-02T09:54:41Z</time><name>PT200</name></trkpt>
<trkpt lat="54.609444" lon="-3.203922"><ele>200</ele><time>2019-10-02T09:54:42Z</time><name>PT201</name></trkpt>
<trkpt lat="54.609440" lon="-3.203903"><ele>200</ele><time>2019-10-02T09:54:43Z</time><name>PT202</name></trkpt>
<trkpt lat="54.609436" lon="-3.203882"><ele>200</ele><time>2019-10-02T09:54:44Z</time><name>PT203</name></trkpt>
<trkpt lat="54.609427" lon="-3.203864"><ele>199</ele><time>2019-10-02T09:54:45Z</time><name>PT204</name></trkpt>
<trkpt lat="54.609421" lon="-3.203844"><ele>200</ele><time>2019-10-02T09:54:46Z</time><name>PT205</name></trkpt>
<trkpt lat="54.609417" lon="-3.203826"><ele>200</ele><time>2019-10-02T09:54:47Z</time><name>PT206</name></trkpt>
<trkpt lat="54.609419" lon="-3.203806"><ele>200</ele><time>2019-10-02T09:54:48Z</time><name>PT207</name></trkpt>
<trkpt lat="54.609412" lon="-3.203787"><ele>199</ele><time>2019-10-02T09:54:49Z</time><name>PT208</name></trkpt>
<trkpt lat="54.609405" lon="-3.203770"><ele>200</ele><time>2019-10-02T09:54:50Z</time><name>PT209</name></trkpt>
<trkpt lat="54.609399" lon="-3.203756"><ele>200</ele><time>2019-10-02T09:54:51Z</time><name>PT210</name></trkpt>
<trkpt lat="54.609396" lon="-3.203743"><ele>200</ele><time>2019-10-02T09:54:52Z</time><name>PT211</name></trkpt>
<trkpt lat="54.609377" lon="-3.203730"><ele>199</ele><time>2019-10-02T09:54:53Z</time><name>PT212</name></trkpt>
<trkpt lat="54.609367" lon="-3.203715"><ele>199</ele><time>2019-10-02T09:54:54Z</time><name>PT213</name></trkpt>
<trkpt lat="54.609362" lon="-3.203703"><ele>199</ele><time>2019-10-02T09:54:55Z</time><name>PT214</name></trkpt>
<trkpt lat="54.609367" lon="-3.203697"><ele>199</ele><time>2019-10-02T09:54:56Z</time><name>PT215</name></trkpt>
<trkpt lat="54.609365" lon="-3.203690"><ele>199</ele><time>2019-10-02T09:54:57Z</time><name>PT216</name></trkpt>
<trkpt lat="54.609359" lon="-3.203681"><ele>199</ele><time>2019-10-02T09:54:58Z</time><name>PT217</name></trkpt>
<trkpt lat="54.609355" lon="-3.203666"><ele>198</ele><time>2019-10-02T09:54:59Z</time><name>PT218</name></trkpt>
<trkpt lat="54.609355" lon="-3.203649"><ele>199</ele><time>2019-10-02T09:55:00Z</time><name>PT219</name></trkpt>
<trkpt lat="54.609351" lon="-3.203637"><ele>199</ele><time>2019-10-02T09:55:01Z</time><name>PT220</name></trkpt>
<trkpt lat="54.609341" lon="-3.203627"><ele>198</ele><time>2019-10-02T09:55:02Z</time><name>PT221</name></trkpt>
<trkpt lat="54.609352" lon="-3.203611"><ele>199</ele><time>2019-10-02T09:55:03Z</time><name>PT222</name></trkpt>
<trkpt lat="54.609348" lon="-3.203590"><ele>200</ele><time>2019-10-02T09:55:04Z</time><name>PT223</name></trkpt>
<trkpt lat="54.609343" lon="-3.203582"><ele>200</ele><time>2019-10-02T09:55:05Z</time><name>PT224</name></trkpt>
<trkpt lat="54.609333" lon="-3.203575"><ele>199</ele><time>2019-10-02T09:55:06Z</time><name>PT225</name></trkpt>
<trkpt lat="54.609323" lon="-3.203568"><ele>199</ele><time>2019-10-02T09:55:07Z</time><name>PT226</name></trkpt>
<trkpt lat="54.609313" lon="-3.203556"><ele>199</ele><time>2019-10-02T09:55:08Z</time><name>PT227</name></trkpt>
<trkpt lat="54.609304" lon="-3.203547"><ele>199</ele><time>2019-10-02T09:55:09Z</time><name>PT228</name></trkpt>
<trkpt lat="54.609292" lon="-3.203541"><ele>199</ele><time>2019-10-02T09:55:10Z</time><name>PT229</name></trkpt>
<trkpt lat="54.609285" lon="-3.203531"><ele>199</ele><time>2019-10-02T09:55:11Z</time><name>PT230</name></trkpt>
<trkpt lat="54.609278" lon="-3.203519"><ele>199</ele><time>2019-10-02T09:55:12Z</time><name>PT231</name></trkpt>
<trkpt lat="54.609269" lon="-3.203511"><ele>199</ele><time>2019-10-02T09:55:13Z</time><name>PT232</name></trkpt>
<trkpt lat="54.609262" lon="-3.203499"><ele>199</ele><time>2019-10-02T09:55:14Z</time><name>PT233</name></trkpt>
<trkpt lat="54.609255" lon="-3.203488"><ele>199</ele><time>2019-10-02T09:55:15Z</time><name>PT234</name></trkpt>
<trkpt lat="54.609246" lon="-3.203482"><ele>199</ele><time>2019-10-02T09:55:16Z</time><name>PT235</name></trkpt>
<trkpt lat="54.609234" lon="-3.203475"><ele>199</ele><time>2019-10-02T09:55:17Z</time><name>PT236</name></trkpt>
<trkpt lat="54.609223" lon="-3.203471"><ele>198</ele><time>2019-10-02T09:55:18Z</time><name>PT237</name></trkpt>
<trkpt lat="54.609211" lon="-3.203464"><ele>198</ele><time>2019-10-02T09:55:19Z</time><name>PT238</name></trkpt>
<trkpt lat="54.609197" lon="-3.203457"><ele>199</ele><time>2019-10-02T09:55:20Z</time><name>PT239</name></trkpt>
<trkpt lat="54.609188" lon="-3.203454"><ele>199</ele><time>2019-10-02T09:55:21Z</time><name>PT240</name></trkpt>
<trkpt lat="54.609173" lon="-3.203453"><ele>199</ele><time>2019-10-02T09:55:22Z</time><name>PT241</name></trkpt>
<trkpt lat="54.609160" lon="-3.203452"><ele>199</ele><time>2019-10-02T09:55:23Z</time><name>PT242</name></trkpt>
<trkpt lat="54.609145" lon="-3.203445"><ele>199</ele><time>2019-10-02T09:55:24Z</time><name>PT243</name></trkpt>
<trkpt lat="54.609139" lon="-3.203435"><ele>200</ele><time>2019-10-02T09:55:25Z</time><name>PT244</name></trkpt>
<trkpt lat="54.609137" lon="-3.203422"><ele>201</ele><time>2019-10-02T09:55:26Z</time><name>PT245</name></trkpt>
<trkpt lat="54.609143" lon="-3.203397"><ele>201</ele><time>2019-10-02T09:55:27Z</time><name>PT246</name></trkpt>
<trkpt lat="54.609140" lon="-3.203390"><ele>201</ele><time>2019-10-02T09:55:28Z</time><name>PT247</name></trkpt>
<trkpt lat="54.609130" lon="-3.203386"><ele>201</ele><time>2019-10-02T09:55:29Z</time><name>PT248</name></trkpt>
<trkpt lat="54.609120" lon="-3.203391"><ele>201</ele><time>2019-10-02T09:55:30Z</time><name>PT249</name></trkpt>
<trkpt lat="54.609127" lon="-3.203383"><ele>202</ele><time>2019-10-02T09:55:31Z</time><name>PT250</name></trkpt>
<trkpt lat="54.609122" lon="-3.203381"><ele>201</ele><time>2019-10-02T09:55:32Z</time><name>PT251</name></trkpt>
<trkpt lat="54.609114" lon="-3.203379"><ele>201</ele><time>2019-10-02T09:55:33Z</time><name>PT252</name></trkpt>
<trkpt lat="54.609093" lon="-3.203390"><ele>200</ele><time>2019-10-02T09:55:34Z</time><name>PT253</name></trkpt>
<trkpt lat="54.609078" lon="-3.203392"><ele>201</ele><time>2019-10-02T09:55:35Z</time><name>PT254</name></trkpt>
<trkpt lat="54.609070" lon="-3.203393"><ele>200</ele><time>2019-10-02T09:55:36Z</time><name>PT255</name></trkpt>
<trkpt lat="54.609059" lon="-3.203399"><ele>200</ele><time>2019-10-02T09:55:37Z</time><name>PT256</name></trkpt>
<trkpt lat="54.609036" lon="-3.203423"><ele>200</ele><time>2019-10-02T09:55:38Z</time><name>PT257</name></trkpt>
<trkpt lat="54.609018" lon="-3.203420"><ele>201</ele><time>2019-10-02T09:55:39Z</time><name>PT258</name></trkpt>
<trkpt lat="54.609001" lon="-3.203426"><ele>199</ele><time>2019-10-02T09:55:40Z</time><name>PT259</name></trkpt>
<trkpt lat="54.608990" lon="-3.203423"><ele>199</ele><time>2019-10-02T09:55:41Z</time><name>PT260</name></trkpt>
<trkpt lat="54.608978" lon="-3.203427"><ele>199</ele><time>2019-10-02T09:55:42Z</time><name>PT261</name></trkpt>
<trkpt lat="54.608967" lon="-3.203431"><ele>199</ele><time>2019-10-02T09:55:43Z</time><name>PT262</name></trkpt>
<trkpt lat="54.608955" lon="-3.203435"><ele>199</ele><time>2019-10-02T09:55:44Z</time><name>PT263</name></trkpt>
<trkpt lat="54.608941" lon="-3.203440"><ele>198</ele><time>2019-10-02T09:55:45Z</time><name>PT264</name></trkpt>
<trkpt lat="54.608935" lon="-3.203440"><ele>198</ele><time>2019-10-02T09:55:46Z</time><name>PT265</name></trkpt>
<trkpt lat="54.608928" lon="-3.203438"><ele>197</ele><time>2019-10-02T09:55:47Z</time><name>PT266</name></trkpt>
<trkpt lat="54.608916" lon="-3.203444"><ele>196</ele><time>2019-10-02T09:55:48Z</time><name>PT267</name></trkpt>
<trkpt lat="54.608907" lon="-3.203438"><ele>195</ele><time>2019-10-02T09:55:49Z</time><name>PT268</name></trkpt>
<trkpt lat="54.608898" lon="-3.203425"><ele>196</ele><time>2019-10-02T09:55:50Z</time><name>PT269</name></trkpt>
<trkpt lat="54.608884" lon="-3.203426"><ele>195</ele><time>2019-10-02T09:55:51Z</time><name>PT270</name></trkpt>
<trkpt lat="54.608872" lon="-3.203426"><ele>194</ele><time>2019-10-02T09:55:52Z</time><name>PT271</name></trkpt>
<trkpt lat="54.608864" lon="-3.203425"><ele>194</ele><time>2019-10-02T09:55:53Z</time><name>PT272</name></trkpt>
<trkpt lat="54.608851" lon="-3.203423"><ele>193</ele><time>2019-10-02T09:55:54Z</time><name>PT273</name></trkpt>
<trkpt lat="54.608840" lon="-3.203419"><ele>193</ele><time>2019-10-02T09:55:55Z</time><name>PT274</name></trkpt>
<trkpt lat="54.608827" lon="-3.203414"><ele>193</ele><time>2019-10-02T09:55:56Z</time><name>PT275</name></trkpt>
<trkpt lat="54.608815" lon="-3.203414"><ele>192</ele><time>2019-10-02T09:55:57Z</time><name>PT276</name></trkpt>
<trkpt lat="54.608807" lon="-3.203405"><ele>192</ele><time>2019-10-02T09:55:58Z</time><name>PT277</name></trkpt>
<trkpt lat="54.608794" lon="-3.203396"><ele>192</ele><time>2019-10-02T09:55:59Z</time><name>PT278</name></trkpt>
<trkpt lat="54.608781" lon="-3.203390"><ele>191</ele><time>2019-10-02T09:56:00Z</time><name>PT279</name></trkpt>
<trkpt lat="54.608776" lon="-3.203376"><ele>191</ele><time>2019-10-02T09:56:01Z</time><name>PT280</name></trkpt>
<trkpt lat="54.608771" lon="-3.203362"><ele>192</ele><time>2019-10-02T09:56:02Z</time><name>PT281</name></trkpt>
<trkpt lat="54.608761" lon="-3.203357"><ele>192</ele><time>2019-10-02T09:56:03Z</time><name>PT282</name></trkpt>
<trkpt lat="54.608750" lon="-3.203347"><ele>192</ele><time>2019-10-02T09:56:04Z</time><name>PT283</name></trkpt>
<trkpt lat="54.608736" lon="-3.203332"><ele>193</ele><time>2019-10-02T09:56:05Z</time><name>PT284</name></trkpt>
<trkpt lat="54.608726" lon="-3.203320"><ele>193</ele><time>2019-10-02T09:56:06Z</time><name>PT285</name></trkpt>
<trkpt lat="54.608720" lon="-3.203301"><ele>193</ele><time>2019-10-02T09:56:07Z</time><name>PT286</name></trkpt>
<trkpt lat="54.608711" lon="-3.203288"><ele>193</ele><time>2019-10-02T09:56:08Z</time><name>PT287</name></trkpt>
<trkpt lat="54.608691" lon="-3.203275"><ele>192</ele><time>2019-10-02T09:56:09Z</time><name>PT288</name></trkpt>
<trkpt lat="54.608678" lon="-3.203273"><ele>189</ele><time>2019-10-02T09:56:10Z</time><name>PT289</name></trkpt>
<trkpt lat="54.608664" lon="-3.203271"><ele>186</ele><time>2019-10-02T09:56:11Z</time><name>PT290</name></trkpt>
<trkpt lat="54.608658" lon="-3.203257"><ele>186</ele><time>2019-10-02T09:56:12Z</time><name>PT291</name></trkpt>
<trkpt lat="54.608643" lon="-3.203241"><ele>185</ele><time>2019-10-02T09:56:13Z</time><name>PT292</name></trkpt>
<trkpt lat="54.608635" lon="-3.203220"><ele>186</ele><time>2019-10-02T09:56:14Z</time><name>PT293</name></trkpt>
<trkpt lat="54.608626" lon="-3.203206"><ele>186</ele><time>2019-10-02T09:56:15Z</time><name>PT294</name></trkpt>
<trkpt lat="54.608627" lon="-3.203195"><ele>185</ele><time>2019-10-02T09:56:16Z</time><name>PT295</name></trkpt>
<trkpt lat="54.608619" lon="-3.203183"><ele>185</ele><time>2019-10-02T09:56:17Z</time><name>PT296</name></trkpt>
<trkpt lat="54.608613" lon="-3.203160"><ele>186</ele><time>2019-10-02T09:56:18Z</time><name>PT297</name></trkpt>
<trkpt lat="54.608604" lon="-3.203135"><ele>187</ele><time>2019-10-02T09:56:19Z</time><name>PT298</name></trkpt>
<trkpt lat="54.608602" lon="-3.203109"><ele>187</ele><time>2019-10-02T09:56:20Z</time><name>PT299</name></trkpt>
<trkpt lat="54.608598" lon="-3.203087"><ele>187</ele><time>2019-10-02T09:56:21Z</time><name>PT300</name></trkpt>
<trkpt lat="54.608591" lon="-3.203066"><ele>187</ele><time>2019-10-02T09:56:22Z</time><name>PT301</name></trkpt>
<trkpt lat="54.608585" lon="-3.203043"><ele>187</ele><time>2019-10-02T09:56:23Z</time><name>PT302</name></trkpt>
<trkpt lat="54.608582" lon="-3.203009"><ele>189</ele><time>2019-10-02T09:56:24Z</time><name>PT303</name></trkpt>
<trkpt lat="54.608570" lon="-3.202992"><ele>189</ele><time>2019-10-02T09:56:25Z</time><name>PT304</name></trkpt>
<trkpt lat="54.608559" lon="-3.202974"><ele>188</ele><time>2019-10-02T09:56:26Z</time><name>PT305</name></trkpt>
<trkpt lat="54.608552" lon="-3.202960"><ele>188</ele><time>2019-10-02T09:56:27Z</time><name>PT306</name></trkpt>
<trkpt lat="54.608545" lon="-3.202945"><ele>187</ele><time>2019-10-02T09:56:28Z</time><name>PT307</name></trkpt>
<trkpt lat="54.608543" lon="-3.202920"><ele>188</ele><time>2019-10-02T09:56:29Z</time><name>PT308</name></trkpt>
<trkpt lat="54.608539" lon="-3.202896"><ele>188</ele><time>2019-10-02T09:56:30Z</time><name>PT309</name></trkpt>
<trkpt lat="54.608532" lon="-3.202879"><ele>188</ele><time>2019-10-02T09:56:31Z</time><name>PT310</name></trkpt>
<trkpt lat="54.608524" lon="-3.202861"><ele>187</ele><time>2019-10-02T09:56:32Z</time><name>PT311</name></trkpt>
<trkpt lat="54.608515" lon="-3.202844"><ele>187</ele><time>2019-10-02T09:56:33Z</time><name>PT312</name></trkpt>
<trkpt lat="54.608506" lon="-3.202829"><ele>186</ele><time>2019-10-02T09:56:34Z</time><name>PT313</name></trkpt>
<trkpt lat="54.608495" lon="-3.202828"><ele>185</ele><time>2019-10-02T09:56:35Z</time><name>PT314</name></trkpt>
<trkpt lat="54.608485" lon="-3.202810"><ele>186</ele><time>2019-10-02T09:56:36Z</time><name>PT315</name></trkpt>
<trkpt lat="54.608507" lon="-3.202792"><ele>185</ele><time>2019-10-02T09:56:37Z</time><name>PT316</name></trkpt>
<trkpt lat="54.608500" lon="-3.202771"><ele>187</ele><time>2019-10-02T09:56:38Z</time><name>PT317</name></trkpt>
<trkpt lat="54.608488" lon="-3.202751"><ele>187</ele><time>2019-10-02T09:56:39Z</time><name>PT318</name></trkpt>
<trkpt lat="54.608482" lon="-3.202728"><ele>187</ele><time>2019-10-02T09:56:40Z</time><name>PT319</name></trkpt>
<trkpt lat="54.608473" lon="-3.202708"><ele>187</ele><time>2019-10-02T09:56:41Z</time><name>PT320</name></trkpt>
<trkpt lat="54.608472" lon="-3.202689"><ele>187</ele><time>2019-10-02T09:56:42Z</time><name>PT321</name></trkpt>
<trkpt lat="54.608467" lon="-3.202664"><ele>187</ele><time>2019-10-02T09:56:43Z</time><name>PT322</name></trkpt>
<trkpt lat="54.608456" lon="-3.202641"><ele>186</ele><time>2019-10-02T09:56:44Z</time><name>PT323</name></trkpt>
<trkpt lat="54.608448" lon="-3.202627"><ele>185</ele><time>2019-10-02T09:56:45Z</time><name>PT324</name></trkpt>
<trkpt lat="54.608441" lon="-3.202615"><ele>184</ele><time>2019-10-02T09:56:46Z</time><name>PT325</name></trkpt>
<trkpt lat="54.608435" lon="-3.202599"><ele>184</ele><time>2019-10-02T09:56:47Z</time><name>PT326</name></trkpt>
<trkpt lat="54.608432" lon="-3.202582"><ele>183</ele><time>2019-10-02T09:56:48Z</time><name>PT327</name></trkpt>
<trkpt lat="54.608428" lon="-3.202563"><ele>182</ele><time>2019-10-02T09:56:49Z</time><name>PT328</name></trkpt>
<trkpt lat="54.608427" lon="-3.202541"><ele>182</ele><time>2019-10-02T09:56:50Z</time><name>PT329</name></trkpt>
<trkpt lat="54.608421" lon="-3.202521"><ele>182</ele><time>2019-10-02T09:56:51Z</time><name>PT330</name></trkpt>
<trkpt lat="54.608416" lon="-3.202500"><ele>182</ele><time>2019-10-02T09:56:52Z</time><name>PT331</name></trkpt>
<trkpt lat="54.608408" lon="-3.202480"><ele>182</ele><time>2019-10-02T09:56:53Z</time><name>PT332</name></trkpt>
<trkpt lat="54.608399" lon="-3.202465"><ele>182</ele><time>2019-10-02T09:56:54Z</time><name>PT333</name></trkpt>
<trkpt lat="54.608390" lon="-3.202451"><ele>181</ele><time>2019-10-02T09:56:55Z</time><name>PT334</name></trkpt>
<trkpt lat="54.608379" lon="-3.202438"><ele>181</ele><time>2019-10-02T09:56:56Z</time><name>PT335</name></trkpt>
<trkpt lat="54.608376" lon="-3.202417"><ele>181</ele><time>2019-10-02T09:56:57Z</time><name>PT336</name></trkpt>
<trkpt lat="54.608375" lon="-3.202397"><ele>181</ele><time>2019-10-02T09:56:58Z</time><name>PT337</name></trkpt>
<trkpt lat="54.608366" lon="-3.202382"><ele>181</ele><time>2019-10-02T09:56:59Z</time><name>PT338</name></trkpt>
<trkpt lat="54.608356" lon="-3.202365"><ele>180</ele><time>2019-10-02T09:57:00Z</time><name>PT339</name></trkpt>
<trkpt lat="54.608350" lon="-3.202356"><ele>180</ele><time>2019-10-02T09:57:01Z</time><name>PT340</name></trkpt>
<trkpt lat="54.608344" lon="-3.202348"><ele>179</ele><time>2019-10-02T09:57:02Z</time><name>PT341</name></trkpt>
<trkpt lat="54.608334" lon="-3.202336"><ele>179</ele><time>2019-10-02T09:57:03Z</time><name>PT342</name></trkpt>
<trkpt lat="54.608328" lon="-3.202318"><ele>179</ele><time>2019-10-02T09:57:04Z</time><name>PT343</name></trkpt>
<trkpt lat="54.608320" lon="-3.202299"><ele>179</ele><time>2019-10-02T09:57:05Z</time><name>PT344</name></trkpt>
<trkpt lat="54.608310" lon="-3.202276"><ele>179</ele><time>2019-10-02T09:57:06Z</time><name>PT345</name></trkpt>
<trkpt lat="54.608307" lon="-3.202254"><ele>180</ele><time>2019-10-02T09:57:07Z</time><name>PT346</name></trkpt>
<trkpt lat="54.608300" lon="-3.202237"><ele>180</ele><time>2019-10-02T09:57:08Z</time><name>PT347</name></trkpt>
<trkpt lat="54.608292" lon="-3.202220"><ele>181</ele><time>2019-10-02T09:57:09Z</time><name>PT348</name></trkpt>
<trkpt lat="54.608288" lon="-3.202201"><ele>180</ele><time>2019-10-02T09:57:10Z</time><name>PT349</name></trkpt>
<trkpt lat="54.608276" lon="-3.202174"><ele>180</ele><time>2019-10-02T09:57:11Z</time><name>PT350</name></trkpt>
<trkpt lat="54.608272" lon="-3.202148"><ele>180</ele><time>2019-10-02T09:57:12Z</time><name>PT351</name></trkpt>
<trkpt lat="54.608270" lon="-3.202128"><ele>180</ele><time>2019-10-02T09:57:13Z</time><name>PT352</name></trkpt>
<trkpt lat="54.608262" lon="-3.202110"><ele>180</ele><time>2019-10-02T09:57:14Z</time><name>PT353</name></trkpt>
<trkpt lat="54.608253" lon="-3.202088"><ele>180</ele><time>2019-10-02T09:57:15Z</time><name>PT354</name></trkpt>
<trkpt lat="54.608241" lon="-3.202076"><ele>179</ele><time>2019-10-02T09:57:16Z</time><name>PT355</name></trkpt>
<trkpt lat="54.608225" lon="-3.202058"><ele>178</ele><time>2019-10-02T09:57:17Z</time><name>PT356</name></trkpt>
<trkpt lat="54.608209" lon="-3.202037"><ele>177</ele><time>2019-10-02T09:57:18Z</time><name>PT357</name></trkpt>
<trkpt lat="54.608196" lon="-3.202018"><ele>177</ele><time>2019-10-02T09:57:19Z</time><name>PT358</name></trkpt>
<trkpt lat="54.608186" lon="-3.202003"><ele>178</ele><time>2019-10-02T09:57:20Z</time><name>PT359</name></trkpt>
<trkpt lat="54.608179" lon="-3.201981"><ele>178</ele><time>2019-10-02T09:57:21Z</time><name>PT360</name></trkpt>
<trkpt lat="54.608170" lon="-3.201966"><ele>179</ele><time>2019-10-02T09:57:22Z</time><name>PT361</name></trkpt>
<trkpt lat="54.608161" lon="-3.201948"><ele>179</ele><time>2019-10-02T09:57:23Z</time><name>PT362</name></trkpt>
<trkpt lat="54.608152" lon="-3.201932"><ele>179</ele><time>2019-10-02T09:57:24Z</time><name>PT363</name></trkpt>
<trkpt lat="54.608147" lon="-3.201918"><ele>179</ele><time>2019-10-02T09:57:25Z</time><name>PT364</name></trkpt>
<trkpt lat="54.608146" lon="-3.201906"><ele>179</ele><time>2019-10-02T09:57:26Z</time><name>PT365</name></trkpt>
<trkpt lat="54.608139" lon="-3.201888"><ele>180</ele><time>2019-10-02T09:57:27Z</time><name>PT366</name></trkpt>
<trkpt lat="54.608132" lon="-3.201877"><ele>180</ele><time>2019-10-02T09:57:28Z</time><name>PT367</name></trkpt>
<trkpt lat="54.608130" lon="-3.201860"><ele>181</ele><time>2019-10-02T09:57:29Z</time><name>PT368</name></trkpt>
<trkpt lat="54.608126" lon="-3.201853"><ele>181</ele><time>2019-10-02T09:57:30Z</time><name>PT369</name></trkpt>
<trkpt lat="54.608117" lon="-3.201844"><ele>180</ele><time>2019-10-02T09:57:31Z</time><name>PT370</name></trkpt>
<trkpt lat="54.608109" lon="-3.201834"><ele>181</ele><time>2019-10-02T09:57:32Z</time><name>PT371</name></trkpt>
<trkpt lat="54.608102" lon="-3.201821"><ele>182</ele><time>2019-10-02T09:57:33Z</time><name>PT372</name></trkpt>
<trkpt lat="54.608100" lon="-3.201806"><ele>182</ele><time>2019-10-02T09:57:34Z</time><name>PT373</name></trkpt>
<trkpt lat="54.608090" lon="-3.201788"><ele>182</ele><time>2019-10-02T09:57:35Z</time><name>PT374</name></trkpt>
<trkpt lat="54.608080" lon="-3.201772"><ele>182</ele><time>2019-10-02T09:57:36Z</time><name>PT375</name></trkpt>
<trkpt lat="54.608077" lon="-3.201757"><ele>182</ele><time>2019-10-02T09:57:37Z</time><name>PT376</name></trkpt>
<trkpt lat="54.608073" lon="-3.201742"><ele>182</ele><time>2019-10-02T09:57:38Z</time><name>PT377</name></trkpt>
<trkpt lat="54.608068" lon="-3.201723"><ele>182</ele><time>2019-10-02T09:57:39Z</time><name>PT378</name></trkpt>
<trkpt lat="54.608063" lon="-3.201701"><ele>181</ele><time>2019-10-02T09:57:40Z</time><name>PT379</name></trkpt>
<trkpt lat="54.608058" lon="-3.201687"><ele>181</ele><time>2019-10-02T09:57:41Z</time><name>PT380</name></trkpt>
<trkpt lat="54.608062" lon="-3.201672"><ele>179</ele><time>2019-10-02T09:57:42Z</time><name>PT381</name></trkpt>
<trkpt lat="54.608050" lon="-3.201658"><ele>178</ele><time>2019-10-02T09:57:43Z</time><name>PT382</name></trkpt>
<trkpt lat="54.608036" lon="-3.201640"><ele>178</ele><time>2019-10-02T09:57:44Z</time><name>PT383</name></trkpt>
<trkpt lat="54.608025" lon="-3.201623"><ele>178</ele><time>2019-10-02T09:57:45Z</time><name>PT384</name></trkpt>
<trkpt lat="54.608025" lon="-3.201601"><ele>180</ele><time>2019-10-02T09:57:46Z</time><name>PT385</name></trkpt>
<trkpt lat="54.608023" lon="-3.201588"><ele>180</ele><time>2019-10-02T09:57:47Z</time><name>PT386</name></trkpt>
<trkpt lat="54.608010" lon="-3.201581"><ele>179</ele><time>2019-10-02T09:57:48Z</time><name>PT387</name></trkpt>
<trkpt lat="54.608003" lon="-3.201572"><ele>178</ele><time>2019-10-02T09:57:49Z</time><name>PT388</name></trkpt>
<trkpt lat="54.607994" lon="-3.201560"><ele>177</ele><time>2019-10-02T09:57:50Z</time><name>PT389</name></trkpt>
<trkpt lat="54.607989" lon="-3.201549"><ele>177</ele><time>2019-10-02T09:57:51Z</time><name>PT390</name></trkpt>
<trkpt lat="54.607982" lon="-3.201539"><ele>176</ele><time>2019-10-02T09:57:52Z</time><name>PT391</name></trkpt>
<trkpt lat="54.607973" lon="-3.201522"><ele>176</ele><time>2019-10-02T09:57:53Z</time><name>PT392</name></trkpt>
<trkpt lat="54.607960" lon="-3.201503"><ele>176</ele><time>2019-10-02T09:57:54Z</time><name>PT393</name></trkpt>
<trkpt lat="54.607941" lon="-3.201482"><ele>177</ele><time>2019-10-02T09:57:55Z</time><name>PT394</name></trkpt>
<trkpt lat="54.607929" lon="-3.201475"><ele>176</ele><time>2019-10-02T09:57:56Z</time><name>PT395</name></trkpt>
<trkpt lat="54.607919" lon="-3.201471"><ele>175</ele><time>2019-10-02T09:57:57Z</time><name>PT396</name></trkpt>
<trkpt lat="54.607904" lon="-3.201462"><ele>175</ele><time>2019-10-02T09:57:58Z</time><name>PT397</name></trkpt>
<trkpt lat="54.607895" lon="-3.201455"><ele>174</ele><time>2019-10-02T09:57:59Z</time><name>PT398</name></trkpt>
<trkpt lat="54.607888" lon="-3.201443"><ele>174</ele><time>2019-10-02T09:58:00Z</time><name>PT399</name></trkpt>
<trkpt lat="54.607876" lon="-3.201429"><ele>173</ele><time>2019-10-02T09:58:01Z</time><name>PT400</name></trkpt>
<trkpt lat="54.607867" lon="-3.201420"><ele>172</ele><time>2019-10-02T09:58:02Z</time><name>PT401</name></trkpt>
<trkpt lat="54.607857" lon="-3.201408"><ele>172</ele><time>2019-10-02T09:58:03Z</time><name>PT402</name></trkpt>
<trkpt lat="54.607849" lon="-3.201394"><ele>172</ele><time>2019-10-02T09:58:04Z</time><name>PT403</name></trkpt>
<trkpt lat="54.607838" lon="-3.201375"><ele>172</ele><time>2019-10-02T09:58:05Z</time><name>PT404</name></trkpt>
<trkpt lat="54.607827" lon="-3.201367"><ele>171</ele><time>2019-10-02T09:58:06Z</time><name>PT405</name></trkpt>
<trkpt lat="54.607808" lon="-3.201367"><ele>170</ele><time>2019-10-02T09:58:07Z</time><name>PT406</name></trkpt>
<trkpt lat="54.607792" lon="-3.201364"><ele>169</ele><time>2019-10-02T09:58:08Z</time><name>PT407</name></trkpt>
<trkpt lat="54.607786" lon="-3.201341"><ele>169</ele><time>2019-10-02T09:58:09Z</time><name>PT408</name></trkpt>
<trkpt lat="54.607776" lon="-3.201324"><ele>170</ele><time>2019-10-02T09:58:10Z</time><name>PT409</name></trkpt>
<trkpt lat="54.607765" lon="-3.201312"><ele>170</ele><time>2019-10-02T09:58:11Z</time><name>PT410</name></trkpt>
<trkpt lat="54.607759" lon="-3.201298"><ele>170</ele><time>2019-10-02T09:58:12Z</time><name>PT411</name></trkpt>
<trkpt lat="54.607743" lon="-3.201291"><ele>169</ele><time>2019-10-02T09:58:13Z</time><name>PT412</name></trkpt>
<trkpt lat="54.607736" lon="-3.201279"><ele>169</ele><time>2019-10-02T09:58:14Z</time><name>PT413</name></trkpt>
<trkpt lat="54.607735" lon="-3.201263"><ele>169</ele><time>2019-10-02T09:58:15Z</time><name>PT414</name></trkpt>
<trkpt lat="54.607723" lon="-3.201254"><ele>169</ele><time>2019-10-02T09:58:16Z</time><name>PT415</name></trkpt>
<trkpt lat="54.607711" lon="-3.201251"><ele>168</ele><time>2019-10-02T09:58:17Z</time><name>PT416</name></trkpt>
<trkpt lat="54.607700" lon="-3.201240"><ele>168</ele><time>2019-10-02T09:58:18Z</time><name>PT417</name></trkpt>
<trkpt lat="54.607691" lon="-3.201227"><ele>168</ele><time>2019-10-02T09:58:19Z</time><name>PT418</name></trkpt>
<trkpt lat="54.607682" lon="-3.201220"><ele>167</ele><time>2019-10-02T09:58:20Z</time><name>PT419</name></trkpt>
<trkpt lat="54.607674" lon="-3.201209"><ele>167</ele><time>2019-10-02T09:58:21Z</time><name>PT420</name></trkpt>
<trkpt lat="54.607666" lon="-3.201196"><ele>168</ele><time>2019-10-02T09:58:22Z</time><name>PT421</name></trkpt>
<trkpt lat="54.607662" lon="-3.201178"><ele>168</ele><time>2019-10-02T09:58:23Z</time><name>PT422</name></trkpt>
<trkpt lat="54.607657" lon="-3.201166"><ele>168</ele><time>2019-10-02T09:58:24Z</time><name>PT423</name></trkpt>
<trkpt lat="54.607654" lon="-3.201156"><ele>167</ele><time>2019-10-02T09:58:25Z</time><name>PT424</name></trkpt>
<trkpt lat="54.607638" lon="-3.201157"><ele>166</ele><time>2019-10-02T09:58:26Z</time><name>PT425</name></trkpt>
<trkpt lat="54.607624" lon="-3.201150"><ele>166</ele><time>2019-10-02T09:58:27Z</time><name>PT426</name></trkpt>
<trkpt lat="54.607612" lon="-3.201146"><ele>165</ele><time>2019-10-02T09:58:28Z</time><name>PT427</name></trkpt>
<trkpt lat="54.607596" lon="-3.201150"><ele>164</ele><time>2019-10-02T09:58:29Z</time><name>PT428</name></trkpt>
<trkpt lat="54.607582" lon="-3.201152"><ele>164</ele><time>2019-10-02T09:58:30Z</time><name>PT429</name></trkpt>
<trkpt lat="54.607572" lon="-3.201145"><ele>164</ele><time>2019-10-02T09:58:31Z</time><name>PT430</name></trkpt>
<trkpt lat="54.607567" lon="-3.201138"><ele>165</ele><time>2019-10-02T09:58:32Z</time><name>PT431</name></trkpt>
<trkpt lat="54.607566" lon="-3.201132"><ele>166</ele><time>2019-10-02T09:58:33Z</time><name>PT432</name></trkpt>
<trkpt lat="54.607567" lon="-3.201129"><ele>167</ele><time>2019-10-02T09:58:34Z</time><name>PT433</name></trkpt>
<trkpt lat="54.607569" lon="-3.201125"><ele>167</ele><time>2019-10-02T09:58:35Z</time><name>PT434</name></trkpt>
<trkpt lat="54.607572" lon="-3.201112"><ele>167</ele><time>2019-10-02T09:58:36Z</time><name>PT435</name></trkpt>
<trkpt lat="54.607564" lon="-3.201099"><ele>167</ele><time>2019-10-02T09:58:37Z</time><name>PT436</name></trkpt>
<trkpt lat="54.607549" lon="-3.201093"><ele>166</ele><time>2019-10-02T09:58:38Z</time><name>PT437</name></trkpt>
<trkpt lat="54.607543" lon="-3.201080"><ele>167</ele><time>2019-10-02T09:58:39Z</time><name>PT438</name></trkpt>
<trkpt lat="54.607534" lon="-3.201068"><ele>167</ele><time>2019-10-02T09:58:40Z</time><name>PT439</name></trkpt>
<trkpt lat="54.607525" lon="-3.201058"><ele>167</ele><time>2019-10-02T09:58:41Z</time><name>PT440</name></trkpt>
<trkpt lat="54.607516" lon="-3.201051"><ele>167</ele><time>2019-10-02T09:58:42Z</time><name>PT441</name></trkpt>
<trkpt lat="54.607505" lon="-3.201046"><ele>167</ele><time>2019-10-02T09:58:43Z</time><name>PT442</name></trkpt>
<trkpt lat="54.607494" lon="-3.201041"><ele>167</ele><time>2019-10-02T09:58:44Z</time><name>PT443</name></trkpt>
<trkpt lat="54.607489" lon="-3.201016"><ele>169</ele><time>2019-10-02T09:58:45Z</time><name>PT444</name></trkpt>
<trkpt lat="54.607480" lon="-3.201003"><ele>169</ele><time>2019-10-02T09:58:46Z</time><name>PT445</name></trkpt>
<trkpt lat="54.607465" lon="-3.200996"><ele>169</ele><time>2019-10-02T09:58:47Z</time><name>PT446</name></trkpt>
<trkpt lat="54.607449" lon="-3.200992"><ele>170</ele><time>2019-10-02T09:58:48Z</time><name>PT447</name></trkpt>
<trkpt lat="54.607438" lon="-3.200986"><ele>170</ele><time>2019-10-02T09:58:49Z</time><name>PT448</name></trkpt>
<trkpt lat="54.607423" lon="-3.200982"><ele>171</ele><time>2019-10-02T09:58:50Z</time><name>PT449</name></trkpt>
<trkpt lat="54.607408" lon="-3.200978"><ele>171</ele><time>2019-10-02T09:58:51Z</time><name>PT450</name></trkpt>
<trkpt lat="54.607392" lon="-3.200970"><ele>171</ele><time>2019-10-02T09:58:52Z</time><name>PT451</name></trkpt>
<trkpt lat="54.607376" lon="-3.200969"><ele>171</ele><time>2019-10-02T09:58:53Z</time><name>PT452</name></trkpt>
<trkpt lat="54.607380" lon="-3.200961"><ele>172</ele><time>2019-10-02T09:58:54Z</time><name>PT453</name></trkpt>
<trkpt lat="54.607374" lon="-3.200943"><ele>173</ele><time>2019-10-02T09:58:55Z</time><name>PT454</name></trkpt>
<trkpt lat="54.607365" lon="-3.200944"><ele>174</ele><time>2019-10-02T09:58:56Z</time><name>PT455</name></trkpt>
<trkpt lat="54.607350" lon="-3.200947"><ele>173</ele><time>2019-10-02T09:58:57Z</time><name>PT456</name></trkpt>
<trkpt lat="54.607333" lon="-3.200937"><ele>174</ele><time>2019-10-02T09:58:58Z</time><name>PT457</name></trkpt>
<trkpt lat="54.607311" lon="-3.200936"><ele>175</ele><time>2019-10-02T09:58:59Z</time><name>PT458</name></trkpt>
<trkpt lat="54.607298" lon="-3.200931"><ele>175</ele><time>2019-10-02T09:59:00Z</time><name>PT459</name></trkpt>
<trkpt lat="54.607283" lon="-3.200936"><ele>174</ele><time>2019-10-02T09:59:01Z</time><name>PT460</name></trkpt>
<trkpt lat="54.607275" lon="-3.200928"><ele>174</ele><time>2019-10-02T09:59:02Z</time><name>PT461</name></trkpt>
<trkpt lat="54.607261" lon="-3.200924"><ele>175</ele><time>2019-10-02T09:59:03Z</time><name>PT462</name></trkpt>
<trkpt lat="54.607253" lon="-3.200914"><ele>175</ele><time>2019-10-02T09:59:04Z</time><name>PT463</name></trkpt>
<trkpt lat="54.607260" lon="-3.200900"><ele>176</ele><time>2019-10-02T09:59:05Z</time><name>PT464</name></trkpt>
<trkpt lat="54.607234" lon="-3.200909"><ele>175</ele><time>2019-10-02T09:59:06Z</time><name>PT465</name></trkpt>
<trkpt lat="54.607226" lon="-3.200901"><ele>176</ele><time>2019-10-02T09:59:07Z</time><name>PT466</name></trkpt>
<trkpt lat="54.607211" lon="-3.200892"><ele>177</ele><time>2019-10-02T09:59:08Z</time><name>PT467</name></trkpt>
<trkpt lat="54.607197" lon="-3.200889"><ele>177</ele><time>2019-10-02T09:59:09Z</time><name>PT468</name></trkpt>
<trkpt lat="54.607177" lon="-3.200877"><ele>179</ele><time>2019-10-02T09:59:10Z</time><name>PT469</name></trkpt>
<trkpt lat="54.607160" lon="-3.200881"><ele>177</ele><time>2019-10-02T09:59:11Z</time><name>PT470</name></trkpt>
<trkpt lat="54.607149" lon="-3.200867"><ele>177</ele><time>2019-10-02T09:59:12Z</time><name>PT471</name></trkpt>
<trkpt lat="54.607136" lon="-3.200877"><ele>175</ele><time>2019-10-02T09:59:13Z</time><name>PT472</name></trkpt>
<trkpt lat="54.607128" lon="-3.200866"><ele>176</ele><time>2019-10-02T09:59:14Z</time><name>PT473</name></trkpt>
<trkpt lat="54.607124" lon="-3.200855"><ele>177</ele><time>2019-10-02T09:59:15Z</time><name>PT474</name></trkpt>
<trkpt lat="54.607129" lon="-3.200865"><ele>172</ele><time>2019-10-02T09:59:16Z</time><name>PT475</name></trkpt>
<trkpt lat="54.607127" lon="-3.200850"><ele>174</ele><time>2019-10-02T09:59:17Z</time><name>PT476</name></trkpt>
<trkpt lat="54.607124" lon="-3.200836"><ele>175</ele><time>2019-10-02T09:59:18Z</time><name>PT477</name></trkpt>
<trkpt lat="54.607122" lon="-3.200832"><ele>175</ele><time>2019-10-02T09:59:19Z</time><name>PT478</name></trkpt>
<trkpt lat="54.607124" lon="-3.200826"><ele>176</ele><time>2019-10-02T09:59:20Z</time><name>PT479</name></trkpt>
<trkpt lat="54.607131" lon="-3.200809"><ele>177</ele><time>2019-10-02T09:59:21Z</time><name>PT480</name></trkpt>
<trkpt lat="54.607118" lon="-3.200808"><ele>178</ele><time>2019-10-02T09:59:22Z</time><name>PT481</name></trkpt>
<trkpt lat="54.607111" lon="-3.200802"><ele>178</ele><time>2019-10-02T09:59:23Z</time><name>PT482</name></trkpt>
<trkpt lat="54.607102" lon="-3.200797"><ele>178</ele><time>2019-10-02T09:59:24Z</time><name>PT483</name></trkpt>
<trkpt lat="54.607077" lon="-3.200805"><ele>177</ele><time>2019-10-02T09:59:25Z</time><name>PT484</name></trkpt>
<trkpt lat="54.607049" lon="-3.200823"><ele>175</ele><time>2019-10-02T09:59:26Z</time><name>PT485</name></trkpt>
<trkpt lat="54.607025" lon="-3.200832"><ele>174</ele><time>2019-10-02T09:59:27Z</time><name>PT486</name></trkpt>
<trkpt lat="54.607002" lon="-3.200837"><ele>174</ele><time>2019-10-02T09:59:28Z</time><name>PT487</name></trkpt>
<trkpt lat="54.606985" lon="-3.200839"><ele>173</ele><time>2019-10-02T09:59:29Z</time><name>PT488</name></trkpt>
<trkpt lat="54.606970" lon="-3.200838"><ele>173</ele><time>2019-10-02T09:59:30Z</time><name>PT489</name></trkpt>
<trkpt lat="54.606954" lon="-3.200834"><ele>173</ele><time>2019-10-02T09:59:31Z</time><name>PT490</name></trkpt>
<trkpt lat="54.606933" lon="-3.200828"><ele>172</ele><time>2019-10-02T09:59:32Z</time><name>PT491</name></trkpt>
<trkpt lat="54.606915" lon="-3.200812"><ele>176</ele><time>2019-10-02T09:59:33Z</time><name>PT492</name></trkpt>
<trkpt lat="54.606890" lon="-3.200813"><ele>176</ele><time>2019-10-02T09:59:34Z</time><name>PT493</name></trkpt>
<trkpt lat="54.606878" lon="-3.200804"><ele>177</ele><time>2019-10-02T09:59:35Z</time><name>PT494</name></trkpt>
<trkpt lat="54.606860" lon="-3.200812"><ele>176</ele><time>2019-10-02T09:59:36Z</time><name>PT495</name></trkpt>
<trkpt lat="54.606851" lon="-3.200825"><ele>172</ele><time>2019-10-02T09:59:37Z</time><name>PT496</name></trkpt>
<trkpt lat="54.606844" lon="-3.200821"><ele>172</ele><time>2019-10-02T09:59:38Z</time><name>PT497</name></trkpt>
<trkpt lat="54.606830" lon="-3.200810"><ele>173</ele><time>2019-10-02T09:59:39Z</time><name>PT498</name></trkpt>
<trkpt lat="54.606811" lon="-3.200803"><ele>173</ele><time>2019-10-02T09:59:40Z</time><name>PT499</name></trkpt>
<trkpt lat="54.606794" lon="-3.200792"><ele>173</ele><time>2019-10-02T09:59:41Z</time><name>PT500</name></trkpt>
<trkpt lat="54.606782" lon="-3.200783"><ele>174</ele><time>2019-10-02T09:59:42Z</time><name>PT501</name></trkpt>
<trkpt lat="54.606766" lon="-3.200791"><ele>173</ele><time>2019-10-02T09:59:43Z</time><name>PT502</name></trkpt>
<trkpt lat="54.606744" lon="-3.200787"><ele>172</ele><time>2019-10-02T09:59:44Z</time><name>PT503</name></trkpt>
<trkpt lat="54.606723" lon="-3.200775"><ele>174</ele><time>2019-10-02T09:59:45Z</time><name>PT504</name></trkpt>
<trkpt lat="54.606707" lon="-3.200764"><ele>172</ele><time>2019-10-02T09:59:46Z</time><name>PT505</name></trkpt>
<trkpt lat="54.606697" lon="-3.200755"><ele>171</ele><time>2019-10-02T09:59:47Z</time><name>PT506</name></trkpt>
<trkpt lat="54.606681" lon="-3.200744"><ele>172</ele><time>2019-10-02T09:59:48Z</time><name>PT507</name></trkpt>
<trkpt lat="54.606663" lon="-3.200736"><ele>173</ele><time>2019-10-02T09:59:49Z</time><name>PT508</name></trkpt>
<trkpt lat="54.606645" lon="-3.200730"><ele>173</ele><time>2019-10-02T09:59:50Z</time><name>PT509</name></trkpt>
<trkpt lat="54.606632" lon="-3.200723"><ele>173</ele><time>2019-10-02T09:59:51Z</time><name>PT510</name></trkpt>
<trkpt lat="54.606621" lon="-3.200713"><ele>175</ele><time>2019-10-02T09:59:52Z</time><name>PT511</name></trkpt>
<trkpt lat="54.606603" lon="-3.200704"><ele>175</ele><time>2019-10-02T09:59:53Z</time><name>PT512</name></trkpt>
<trkpt lat="54.606582" lon="-3.200686"><ele>174</ele><time>2019-10-02T09:59:54Z</time><name>PT513</name></trkpt>
<trkpt lat="54.606565" lon="-3.200679"><ele>174</ele><time>2019-10-02T09:59:55Z</time><name>PT514</name></trkpt>
<trkpt lat="54.606550" lon="-3.200662"><ele>174</ele><time>2019-10-02T09:59:56Z</time><name>PT515</name></trkpt>
<trkpt lat="54.606538" lon="-3.200652"><ele>174</ele><time>2019-10-02T09:59:57Z</time><name>PT516</name></trkpt>
<trkpt lat="54.606528" lon="-3.200642"><ele>173</ele><time>2019-10-02T09:59:58Z</time><name>PT517</name></trkpt>
<trkpt lat="54.606519" lon="-3.200626"><ele>173</ele><time>2019-10-02T09:59:59Z</time><name>PT518</name></trkpt>
<trkpt lat="54.606508" lon="-3.200608"><ele>174</ele><time>2019-10-02T10:00:00Z</time><name>PT519</name></trkpt>
<trkpt lat="54.606500" lon="-3.200590"><ele>174</ele><time>2019-10-02T10:00:01Z</time><name>PT520</name></trkpt>
<trkpt lat="54.606495" lon="-3.200570"><ele>174</ele><time>2019-10-02T10:00:02Z</time><name>PT521</name></trkpt>
<trkpt lat="54.606489" lon="-3.200554"><ele>174</ele><time>2019-10-02T10:00:03Z</time><name>PT522</name></trkpt>
<trkpt lat="54.606478" lon="-3.200541"><ele>172</ele><time>2019-10-02T10:00:04Z</time><name>PT523</name></trkpt>
<trkpt lat="54.606469" lon="-3.200523"><ele>173</ele><time>2019-10-02T10:00:05Z</time><name>PT524</name></trkpt>
<trkpt lat="54.606459" lon="-3.200514"><ele>172</ele><time>2019-10-02T10:00:06Z</time><name>PT525</name></trkpt>
<trkpt lat="54.606453" lon="-3.200498"><ele>172</ele><time>2019-10-02T10:00:07Z</time><name>PT526</name></trkpt>
<trkpt lat="54.606440" lon="-3.200490"><ele>169</ele><time>2019-10-02T10:00:08Z</time><name>PT527</name></trkpt>
<trkpt lat="54.606432" lon="-3.200473"><ele>169</ele><time>2019-10-02T10:00:09Z</time><name>PT528</name></trkpt>
<trkpt lat="54.606425" lon="-3.200455"><ele>169</ele><time>2019-10-02T10:00:10Z</time><name>PT529</name></trkpt>
<trkpt lat="54.606417" lon="-3.200445"><ele>167</ele><time>2019-10-02T10:00:11Z</time><name>PT530</name></trkpt>
<trkpt lat="54.606406" lon="-3.200431"><ele>167</ele><time>2019-10-02T10:00:12Z</time><name>PT531</name></trkpt>
<trkpt lat="54.606400" lon="-3.200409"><ele>167</ele><time>2019-10-02T10:00:13Z</time><name>PT532</name></trkpt>
<trkpt lat="54.606393" lon="-3.200390"><ele>167</ele><time>2019-10-02T10:00:14Z</time><name>PT533</name></trkpt>
<trkpt lat="54.606385" lon="-3.200381"><ele>166</ele><time>2019-10-02T10:00:15Z</time><name>PT534</name></trkpt>
<trkpt lat="54.606376" lon="-3.200366"><ele>167</ele><time>2019-10-02T10:00:16Z</time><name>PT535</name></trkpt>
<trkpt lat="54.606370" lon="-3.200349"><ele>168</ele><time>2019-10-02T10:00:17Z</time><name>PT536</name></trkpt>
<trkpt lat="54.606362" lon="-3.200341"><ele>167</ele><time>2019-10-02T10:00:18Z</time><name>PT537</name></trkpt>
<trkpt lat="54.606354" lon="-3.200333"><ele>166</ele><time>2019-10-02T10:00:19Z</time><name>PT538</name></trkpt>
<trkpt lat="54.606344" lon="-3.200324"><ele>166</ele><time>2019-10-02T10:00:20Z</time><name>PT539</name></trkpt>
<trkpt lat="54.606336" lon="-3.200314"><ele>166</ele><time>2019-10-02T10:00:21Z</time><name>PT540</name></trkpt>
<trkpt lat="54.606325" lon="-3.200295"><ele>167</ele><time>2019-10-02T10:00:22Z</time><name>PT541</name></trkpt>
<trkpt lat="54.606315" lon="-3.200280"><ele>167</ele><time>2019-10-02T10:00:23Z</time><name>PT542</name></trkpt>
<trkpt lat="54.606310" lon="-3.200262"><ele>168</ele><time>2019-10-02T10:00:24Z</time><name>PT543</name></trkpt>
<trkpt lat="54.606308" lon="-3.200250"><ele>168</ele><time>2019-10-02T10:00:25Z</time><name>PT544</name></trkpt>
<trkpt lat="54.606297" lon="-3.200240"><ele>167</ele><time>2019-10-02T10:00:26Z</time><name>PT545</name></trkpt>
<trkpt lat="54.606289" lon="-3.200226"><ele>167</ele><time>2019-10-02T10:00:27Z</time><name>PT546</name></trkpt>
<trkpt lat="54.606283" lon="-3.200218"><ele>167</ele><time>2019-10-02T10:00:28Z</time><name>PT547</name></trkpt>
<trkpt lat="54.606276" lon="-3.200207"><ele>167</ele><time>2019-10-02T10:00:29Z</time><name>PT548</name></trkpt>
<trkpt lat="54.606267" lon="-3.200188"><ele>166</ele><time>2019-10-02T10:00:30Z</time><name>PT549</name></trkpt>
<trkpt lat="54.606263" lon="-3.200174"><ele>166</ele><time>2019-10-02T10:00:31Z</time><name>PT550</name></trkpt>
<trkpt lat="54.606255" lon="-3.200152"><ele>166</ele><time>2019-10-02T10:00:32Z</time><name>PT551</name></trkpt>
<trkpt lat="54.606252" lon="-3.200141"><ele>166</ele><time>2019-10-02T10:00:33Z</time><name>PT552</name></trkpt>
<trkpt lat="54.606250" lon="-3.200122"><ele>166</ele><time>2019-10-02T10:00:34Z</time><name>PT553</name></trkpt>
<trkpt lat="54.606231" lon="-3.200100"><ele>166</ele><time>2019-10-02T10:00:35Z</time><name>PT554</name></trkpt>
<trkpt lat="54.606217" lon="-3.200079"><ele>166</ele><time>2019-10-02T10:00:36Z</time><name>PT555</name></trkpt>
<trkpt lat="54.606200" lon="-3.200067"><ele>165</ele><time>2019-10-02T10:00:37Z</time><name>PT556</name></trkpt>
<trkpt lat="54.606190" lon="-3.200054"><ele>165</ele><time>2019-10-02T10:00:38Z</time><name>PT557</name></trkpt>
<trkpt lat="54.606179" lon="-3.200041"><ele>166</ele><time>2019-10-02T10:00:39Z</time><name>PT558</name></trkpt>
<trkpt lat="54.606169" lon="-3.200035"><ele>166</ele><time>2019-10-02T10:00:40Z</time><name>PT559</name></trkpt>
<trkpt lat="54.606158" lon="-3.200019"><ele>166</ele><time>2019-10-02T10:00:41Z</time><name>PT560</name></trkpt>
<trkpt lat="54.606152" lon="-3.200001"><ele>166</ele><time>2019-10-02T10:00:42Z</time><name>PT561</name></trkpt>
<trkpt lat="54.606144" lon="-3.199983"><ele>166</ele><time>2019-10-02T10:00:43Z</time><name>PT562</name></trkpt>
<trkpt lat="54.606133" lon="-3.199966"><ele>166</ele><time>2019-10-02T10:00:44Z</time><name>PT563</name></trkpt>
<trkpt lat="54.606121" lon="-3.199939"><ele>165</ele><time>2019-10-02T10:00:45Z</time><name>PT564</name></trkpt>
<trkpt lat="54.606115" lon="-3.199913"><ele>166</ele><time>2019-10-02T10:00:46Z</time><name>PT565</name></trkpt>
<trkpt lat="54.606109" lon="-3.199896"><ele>166</ele><time>2019-10-02T10:00:47Z</time><name>PT566</name></trkpt>
<trkpt lat="54.606106" lon="-3.199873"><ele>166</ele><time>2019-10-02T10:00:48Z</time><name>PT567</name></trkpt>
<trkpt lat="54.606095" lon="-3.199861"><ele>166</ele><time>2019-10-02T10:00:49Z</time><name>PT568</name></trkpt>
<trkpt lat="54.606084" lon="-3.199841"><ele>166</ele><time>2019-10-02T10:00:50Z</time><name>PT569</name></trkpt>
<trkpt lat="54.606078" lon="-3.199817"><ele>166</ele><time>2019-10-02T10:00:51Z</time><name>PT570</name></trkpt>
<trkpt lat="54.606066" lon="-3.199802"><ele>165</ele><time>2019-10-02T10:00:52Z</time><name>PT571</name></trkpt>
<trkpt lat="54.606052" lon="-3.199790"><ele>165</ele><time>2019-10-02T10:00:53Z</time><name>PT572</name></trkpt>
<trkpt lat="54.606045" lon="-3.199763"><ele>166</ele><time>2019-10-02T10:00:54Z</time><name>PT573</name></trkpt>
<trkpt lat="54.606034" lon="-3.199743"><ele>166</ele><time>2019-10-02T10:00:55Z</time><name>PT574</name></trkpt>
<trkpt lat="54.606025" lon="-3.199723"><ele>166</ele><time>2019-10-02T10:00:56Z</time><name>PT575</name></trkpt>
<trkpt lat="54.606014" lon="-3.199711"><ele>165</ele><time>2019-10-02T10:00:57Z</time><name>PT576</name></trkpt>
<trkpt lat="54.606003" lon="-3.199697"><ele>165</ele><time>2019-10-02T10:00:58Z</time><name>PT577</name></trkpt>
<trkpt lat="54.605994" lon="-3.199687"><ele>165</ele><time>2019-10-02T10:00:59Z</time><name>PT578</name></trkpt>
<trkpt lat="54.605986" lon="-3.199671"><ele>165</ele><time>2019-10-02T10:01:00Z</time><name>PT579</name></trkpt>
<trkpt lat="54.605975" lon="-3.199649"><ele>165</ele><time>2019-10-02T10:01:01Z</time><name>PT580</name></trkpt>
<trkpt lat="54.605964" lon="-3.199630"><ele>166</ele><time>2019-10-02T10:01:02Z</time><name>PT581</name></trkpt>
<trkpt lat="54.605958" lon="-3.199607"><ele>166</ele><time>2019-10-02T10:01:03Z</time><name>PT582</name></trkpt>
<trkpt lat="54.605955" lon="-3.199590"><ele>166</ele><time>2019-10-02T10:01:04Z</time><name>PT583</name></trkpt>
<trkpt lat="54.605950" lon="-3.199578"><ele>165</ele><time>2019-10-02T10:01:05Z</time><name>PT584</name></trkpt>
<trkpt lat="54.605957" lon="-3.199557"><ele>166</ele><time>2019-10-02T10:01:06Z</time><name>PT585</name></trkpt>
<trkpt lat="54.605957" lon="-3.199536"><ele>165</ele><time>2019-10-02T10:01:07Z</time><name>PT586</name></trkpt>
<trkpt lat="54.605955" lon="-3.199517"><ele>165</ele><time>2019-10-02T10:01:08Z</time><name>PT587</name></trkpt>
<trkpt lat="54.605942" lon="-3.199499"><ele>165</ele><time>2019-10-02T10:01:09Z</time><name>PT588</name></trkpt>
<trkpt lat="54.605933" lon="-3.199481"><ele>165</ele><time>2019-10-02T10:01:10Z</time><name>PT589</name></trkpt>
<trkpt lat="54.605934" lon="-3.199471"><ele>164</ele><time>2019-10-02T10:01:11Z</time><name>PT590</name></trkpt>
<trkpt lat="54.605930" lon="-3.199460"><ele>164</ele><time>2019-10-02T10:01:12Z</time><name>PT591</name></trkpt>
<trkpt lat="54.605923" lon="-3.199442"><ele>164</ele><time>2019-10-02T10:01:13Z</time><name>PT592</name></trkpt>
<trkpt lat="54.605911" lon="-3.199426"><ele>164</ele><time>2019-10-02T10:01:14Z</time><name>PT593</name></trkpt>
<trkpt lat="54.605901" lon="-3.199419"><ele>164</ele><time>2019-10-02T10:01:15Z</time><name>PT594</name></trkpt>
<trkpt lat="54.605882" lon="-3.199412"><ele>164</ele><time>2019-10-02T10:01:16Z</time><name>PT595</name></trkpt>
<trkpt lat="54.605869" lon="-3.199406"><ele>163</ele><time>2019-10-02T10:01:17Z</time><name>PT596</name></trkpt>
<trkpt lat="54.605858" lon="-3.199399"><ele>163</ele><time>2019-10-02T10:01:18Z</time><name>PT597</name></trkpt>
<trkpt lat="54.605849" lon="-3.199388"><ele>163</ele><time>2019-10-02T10:01:19Z</time><name>PT598</name></trkpt>
<trkpt lat="54.605847" lon="-3.199378"><ele>163</ele><time>2019-10-02T10:01:20Z</time><name>PT599</name></trkpt>
<trkpt lat="54.605850" lon="-3.199368"><ele>163</ele><time>2019-10-02T10:01:21Z</time><name>PT600</name></trkpt>
<trkpt lat="54.605832" lon="-3.199353"><ele>163</ele><time>2019-10-02T10:01:22Z</time><name>PT601</name></trkpt>
<trkpt lat="54.605823" lon="-3.199342"><ele>163</ele><time>2019-10-02T10:01:23Z</time><name>PT602</name></trkpt>
<trkpt lat="54.605819" lon="-3.199325"><ele>163</ele><time>2019-10-02T10:01:24Z</time><name>PT603</name></trkpt>
<trkpt lat="54.605805" lon="-3.199305"><ele>163</ele><time>2019-10-02T10:01:25Z</time><name>PT604</name></trkpt>
<trkpt lat="54.605797" lon="-3.199284"><ele>163</ele><time>2019-10-02T10:01:26Z</time><name>PT605</name></trkpt>
<trkpt lat="54.605781" lon="-3.199271"><ele>162</ele><time>2019-10-02T10:01:27Z</time><name>PT606</name></trkpt>
<trkpt lat="54.605771" lon="-3.199256"><ele>162</ele><time>2019-10-02T10:01:28Z</time><name>PT607</name></trkpt>
<trkpt lat="54.605758" lon="-3.199243"><ele>162</ele><time>2019-10-02T10:01:29Z</time><name>PT608</name></trkpt>
<trkpt lat="54.605753" lon="-3.199223"><ele>162</ele><time>2019-10-02T10:01:30Z</time><name>PT609</name></trkpt>
<trkpt lat="54.605744" lon="-3.199211"><ele>161</ele><time>2019-10-02T10:01:31Z</time><name>PT610</name></trkpt>
<trkpt lat="54.605730" lon="-3.199201"><ele>161</ele><time>2019-10-02T10:01:32Z</time><name>PT611</name></trkpt>
<trkpt lat="54.605715" lon="-3.199189"><ele>161</ele><time>2019-10-02T10:01:33Z</time><name>PT612</name></trkpt>
<trkpt lat="54.605701" lon="-3.199176"><ele>160</ele><time>2019-10-02T10:01:34Z</time><name>PT613</name></trkpt>
<trkpt lat="54.605688" lon="-3.199159"><ele>160</ele><time>2019-10-02T10:01:35Z</time><name>PT614</name></trkpt>
<trkpt lat="54.605665" lon="-3.199150"><ele>160</ele><time>2019-10-02T10:01:36Z</time><name>PT615</name></trkpt>
<trkpt lat="54.605649" lon="-3.199147"><ele>160</ele><time>2019-10-02T10:01:37Z</time><name>PT616</name></trkpt>
<trkpt lat="54.605641" lon="-3.199131"><ele>159</ele><time>2019-10-02T10:01:38Z</time><name>PT617</name></trkpt>
<trkpt lat="54.605623" lon="-3.199115"><ele>159</ele><time>2019-10-02T10:01:39Z</time><name>PT618</name></trkpt>
<trkpt lat="54.605616" lon="-3.199102"><ele>159</ele><time>2019-10-02T10:01:40Z</time><name>PT619</name></trkpt>
<trkpt lat="54.605604" lon="-3.199094"><ele>159</ele><time>2019-10-02T10:01:41Z</time><name>PT620</name></trkpt>
<trkpt lat="54.605596" lon="-3.199077"><ele>159</ele><time>2019-10-02T10:01:42Z</time><name>PT621</name></trkpt>
<trkpt lat="54.605585" lon="-3.199065"><ele>159</ele><time>2019-10-02T10:01:43Z</time><name>PT622</name></trkpt>
<trkpt lat="54.605570" lon="-3.199047"><ele>159</ele><time>2019-10-02T10:01:44Z</time><name>PT623</name></trkpt>
<trkpt lat="54.605559" lon="-3.199034"><ele>159</ele><time>2019-10-02T10:01:45Z</time><name>PT624</name></trkpt>
<trkpt lat="54.605552" lon="-3.199025"><ele>158</ele><time>2019-10-02T10:01:46Z</time><name>PT625</name></trkpt>
<trkpt lat="54.605542" lon="-3.199014"><ele>159</ele><time>2019-10-02T10:01:47Z</time><name>PT626</name></trkpt>
<trkpt lat="54.605536" lon="-3.199000"><ele>159</ele><time>2019-10-02T10:01:48Z</time><name>PT627</name></trkpt>
<trkpt lat="54.605529" lon="-3.198987"><ele>160</ele><time>2019-10-02T10:01:49Z</time><name>PT628</name></trkpt>
<trkpt lat="54.605516" lon="-3.198983"><ele>160</ele><time>2019-10-02T10:01:50Z</time><name>PT629</name></trkpt>
<trkpt lat="54.605506" lon="-3.198974"><ele>160</ele><time>2019-10-02T10:01:51Z</time><name>PT630</name></trkpt>
<trkpt lat="54.605493" lon="-3.198969"><ele>160</ele><time>2019-10-02T10:01:52Z</time><name>PT631</name></trkpt>
<trkpt lat="54.605490" lon="-3.198971"><ele>157</ele><time>2019-10-02T10:01:53Z</time><name>PT632</name></trkpt>
<trkpt lat="54.605486" lon="-3.198969"><ele>157</ele><time>2019-10-02T10:01:54Z</time><name>PT633</name></trkpt>
<trkpt lat="54.605472" lon="-3.198962"><ele>157</ele><time>2019-10-02T10:01:55Z</time><name>PT634</name></trkpt>
<trkpt lat="54.605461" lon="-3.198952"><ele>156</ele><time>2019-10-02T10:01:56Z</time><name>PT635</name></trkpt>
<trkpt lat="54.605451" lon="-3.198940"><ele>156</ele><time>2019-10-02T10:01:57Z</time><name>PT636</name></trkpt>
<trkpt lat="54.605438" lon="-3.198934"><ele>155</ele><time>2019-10-02T10:01:58Z</time><name>PT637</name></trkpt>
<trkpt lat="54.605435" lon="-3.198924"><ele>155</ele><time>2019-10-02T10:01:59Z</time><name>PT638</name></trkpt>
<trkpt lat="54.605427" lon="-3.198915"><ele>155</ele><time>2019-10-02T10:02:00Z</time><name>PT639</name></trkpt>
<trkpt lat="54.605416" lon="-3.198907"><ele>154</ele><time>2019-10-02T10:02:01Z</time><name>PT640</name></trkpt>
<trkpt lat="54.605409" lon="-3.198897"><ele>154</ele><time>2019-10-02T10:02:02Z</time><name>PT641</name></trkpt>
<trkpt lat="54.605397" lon="-3.198887"><ele>153</ele><time>2019-10-02T10:02:03Z</time><name>PT642</name></trkpt>
<trkpt lat="54.605386" lon="-3.198873"><ele>153</ele><time>2019-10-02T10:02:04Z</time><name>PT643</name></trkpt>
<trkpt lat="54.605372" lon="-3.198862"><ele>153</ele><time>2019-10-02T10:02:05Z</time><name>PT644</name></trkpt>
<trkpt lat="54.605351" lon="-3.198848"><ele>155</ele><time>2019-10-02T10:02:06Z</time><name>PT645</name></trkpt>
<trkpt lat="54.605340" lon="-3.198836"><ele>154</ele><time>2019-10-02T10:02:07Z</time><name>PT646</name></trkpt>
<trkpt lat="54.605333" lon="-3.198825"><ele>154</ele><time>2019-10-02T10:02:08Z</time><name>PT647</name></trkpt>
<trkpt lat="54.605326" lon="-3.198814"><ele>153</ele><time>2019-10-02T10:02:09Z</time><name>PT648</name></trkpt>
<trkpt lat="54.605312" lon="-3.198806"><ele>152</ele><time>2019-10-02T10:02:10Z</time><name>PT649</name></trkpt>
<trkpt lat="54.605281" lon="-3.198799"><ele>151</ele><time>2019-10-02T10:02:11Z</time><name>PT650</name></trkpt>
<trkpt lat="54.605263" lon="-3.198788"><ele>151</ele><time>2019-10-02T10:02:12Z</time><name>PT651</name></trkpt>
<trkpt lat="54.605240" lon="-3.198786"><ele>150</ele><time>2019-10-02T10:02:13Z</time><name>PT652</name></trkpt>
<trkpt lat="54.605225" lon="-3.198777"><ele>151</ele><time>2019-10-02T10:02:14Z</time><name>PT653</name></trkpt>
<trkpt lat="54.605215" lon="-3.198772"><ele>150</ele><time>2019-10-02T10:02:15Z</time><name>PT654</name></trkpt>
<trkpt lat="54.605204" lon="-3.198768"><ele>150</ele><time>2019-10-02T10:02:16Z</time><name>PT655</name></trkpt>
<trkpt lat="54.605190" lon="-3.198759"><ele>150</ele><time>2019-10-02T10:02:17Z</time><name>PT656</name></trkpt>
<trkpt lat="54.605178" lon="-3.198755"><ele>148</ele><time>2019-10-02T10:02:18Z</time><name>PT657</name></trkpt>
<trkpt lat="54.605161" lon="-3.198750"><ele>149</ele><time>2019-10-02T10:02:19Z</time><name>PT658</name></trkpt>
<trkpt lat="54.605141" lon="-3.198740"><ele>149</ele><time>2019-10-02T10:02:20Z</time><name>PT659</name></trkpt>
<trkpt lat="54.605129" lon="-3.198716"><ele>149</ele><time>2019-10-02T10:02:21Z</time><name>PT660</name></trkpt>
<trkpt lat="54.605114" lon="-3.198709"><ele>148</ele><time>2019-10-02T10:02:22Z</time><name>PT661</name></trkpt>
<trkpt lat="54.605102" lon="-3.198698"><ele>147</ele><time>2019-10-02T10:02:23Z</time><name>PT662</name></trkpt>
<trkpt lat="54.605092" lon="-3.198679"><ele>146</ele><time>2019-10-02T10:02:24Z</time><name>PT663</name></trkpt>
<trkpt lat="54.605085" lon="-3.198660"><ele>146</ele><time>2019-10-02T10:02:25Z</time><name>PT664</name></trkpt>
<trkpt lat="54.605072" lon="-3.198643"><ele>146</ele><time>2019-10-02T10:02:26Z</time><name>PT665</name></trkpt>
<trkpt lat="54.605058" lon="-3.198633"><ele>145</ele><time>2019-10-02T10:02:27Z</time><name>PT666</name></trkpt>
<trkpt lat="54.605041" lon="-3.198630"><ele>144</ele><time>2019-10-02T10:02:28Z</time><name>PT667</name></trkpt>
<trkpt lat="54.605031" lon="-3.198622"><ele>144</ele><time>2019-10-02T10:02:29Z</time><name>PT668</name></trkpt>
<trkpt lat="54.605014" lon="-3.198612"><ele>142</ele><time>2019-10-02T10:02:30Z</time><name>PT669</name></trkpt>
<trkpt lat="54.604997" lon="-3.198605"><ele>141</ele><time>2019-10-02T10:02:31Z</time><name>PT670</name></trkpt>
<trkpt lat="54.604988" lon="-3.198598"><ele>140</ele><time>2019-10-02T10:02:32Z</time><name>PT671</name></trkpt>
<trkpt lat="54.604977" lon="-3.198593"><ele>141</ele><time>2019-10-02T10:02:33Z</time><name>PT672</name></trkpt>
<trkpt lat="54.604967" lon="-3.198593"><ele>140</ele><time>2019-10-02T10:02:34Z</time><name>PT673</name></trkpt>
<trkpt lat="54.604958" lon="-3.198593"><ele>137</ele><time>2019-10-02T10:02:35Z</time><name>PT674</name></trkpt>
<trkpt lat="54.604933" lon="-3.198586"><ele>135</ele><time>2019-10-02T10:02:36Z</time><name>PT675</name></trkpt>
<trkpt lat="54.604919" lon="-3.198580"><ele>136</ele><time>2019-10-02T10:02:37Z</time><name>PT676</name></trkpt>
<trkpt lat="54.604903" lon="-3.198570"><ele>136</ele><time>2019-10-02T10:02:38Z</time><name>PT677</name></trkpt>
<trkpt lat="54.604889" lon="-3.198562"><ele>134</ele><time>2019-10-02T10:02:39Z</time><name>PT678</name></trkpt>
<trkpt lat="54.604869" lon="-3.198562"><ele>133</ele><time>2019-10-02T10:02:40Z</time><name>PT679</name></trkpt>
<trkpt lat="54.604858" lon="-3.198558"><ele>132</ele><time>2019-10-02T10:02:41Z</time><name>PT680</name></trkpt>
<trkpt lat="54.604848" lon="-3.198547"><ele>133</ele><time>2019-10-02T10:02:42Z</time><name>PT681</name></trkpt>
<trkpt lat="54.604840" lon="-3.198540"><ele>132</ele><time>2019-10-02T10:02:43Z</time><name>PT682</name></trkpt>
<trkpt lat="54.604828" lon="-3.198531"><ele>132</ele><time>2019-10-02T10:02:44Z</time><name>PT683</name></trkpt>
<trkpt lat="54.604817" lon="-3.198520"><ele>132</ele><time>2019-10-02T10:02:45Z</time><name>PT684</name></trkpt>
<trkpt lat="54.604803" lon="-3.198508"><ele>133</ele><time>2019-10-02T10:02:46Z</time><name>PT685</name></trkpt>
<trkpt lat="54.604796" lon="-3.198485"><ele>133</ele><time>2019-10-02T10:02:47Z</time><name>PT686</name></trkpt>
<trkpt lat="54.604786" lon="-3.198477"><ele>132</ele><time>2019-10-02T10:02:48Z</time><name>PT687</name></trkpt>
<trkpt lat="54.604774" lon="-3.198474"><ele>132</ele><time>2019-10-02T10:02:49Z</time><name>PT688</name></trkpt>
<trkpt lat="54.604767" lon="-3.198474"><ele>132</ele><time>2019-10-02T10:02:50Z</time><name>PT689</name></trkpt>
<trkpt lat="54.604760" lon="-3.198471"><ele>133</ele><time>2019-10-02T10:02:51Z</time><name>PT690</name></trkpt>
<trkpt lat="54.604747" lon="-3.198462"><ele>132</ele><time>2019-10-02T10:02:52Z</time><name>PT691</name></trkpt>
<trkpt lat="54.604735" lon="-3.198450"><ele>132</ele><time>2019-10-02T10:02:53Z</time><name>PT692</name></trkpt>
<trkpt lat="54.604721" lon="-3.198441"><ele>133</ele><time>2019-10-02T10:02:54Z</time><name>PT693</name></trkpt>
<trkpt lat="54.604704" lon="-3.198437"><ele>133</ele><time>2019-10-02T10:02:55Z</time><name>PT694</name></trkpt>
<trkpt lat="54.604688" lon="-3.198434"><ele>134</ele><time>2019-10-02T10:02:56Z</time><name>PT695</name></trkpt>
<trkpt lat="54.604669" lon="-3.198426"><ele>135</ele><time>2019-10-02T10:02:57Z</time><name>PT696</name></trkpt>
<trkpt lat="54.604653" lon="-3.198420"><ele>136</ele><time>2019-10-02T10:02:58Z</time><name>PT697</name></trkpt>
<trkpt lat="54.604640" lon="-3.198412"><ele>136</ele><time>2019-10-02T10:02:59Z</time><name>PT698</name></trkpt>
<trkpt lat="54.604603" lon="-3.198395"><ele>139</ele><time>2019-10-02T10:03:00Z</time><name>PT699</name></trkpt>
<trkpt lat="54.604593" lon="-3.198379"><ele>139</ele><time>2019-10-02T10:03:01Z</time><name>PT700</name></trkpt>
<trkpt lat="54.604570" lon="-3.198378"><ele>140</ele><time>2019-10-02T10:03:02Z</time><name>PT701</name></trkpt>
<trkpt lat="54.604556" lon="-3.198368"><ele>141</ele><time>2019-10-02T10:03:03Z</time><name>PT702</name></trkpt>
<trkpt lat="54.604541" lon="-3.198358"><ele>141</ele><time>2019-10-02T10:03:04Z</time><name>PT703</name></trkpt>
<trkpt lat="54.604524" lon="-3.198349"><ele>142</ele><time>2019-10-02T10:03:05Z</time><name>PT704</name></trkpt>
<trkpt lat="54.604500" lon="-3.198349"><ele>144</ele><time>2019-10-02T10:03:06Z</time><name>PT705</name></trkpt>
<trkpt lat="54.604485" lon="-3.198341"><ele>144</ele><time>2019-10-02T10:03:07Z</time><name>PT706</name></trkpt>
<trkpt lat="54.604476" lon="-3.198337"><ele>144</ele><time>2019-10-02T10:03:08Z</time><name>PT707</name></trkpt>
<trkpt lat="54.604463" lon="-3.198333"><ele>144</ele><time>2019-10-02T10:03:09Z</time><name>PT708</name></trkpt>
<trkpt lat="54.604451" lon="-3.198325"><ele>144</ele><time>2019-10-02T10:03:10Z</time><name>PT709</name></trkpt>
<trkpt lat="54.604437" lon="-3.198320"><ele>144</ele><time>2019-10-02T10:03:11Z</time><name>PT710</name></trkpt>
<trkpt lat="54.604423" lon="-3.198316"><ele>144</ele><time>2019-10-02T10:03:12Z</time><name>PT711</name></trkpt>
<trkpt lat="54.604405" lon="-3.198311"><ele>144</ele><time>2019-10-02T10:03:13Z</time><name>PT712</name></trkpt>
<trkpt lat="54.604391" lon="-3.198307"><ele>144</ele><time>2019-10-02T10:03:14Z</time><name>PT713</name></trkpt>
<trkpt lat="54.604376" lon="-3.198301"><ele>145</ele><time>2019-10-02T10:03:15Z</time><name>PT714</name></trkpt>
<trkpt lat="54.604361" lon="-3.198299"><ele>144</ele><time>2019-10-02T10:03:16Z</time><name>PT715</name></trkpt>
<trkpt lat="54.604348" lon="-3.198290"><ele>144</ele><time>2019-10-02T10:03:17Z</time><name>PT716</name></trkpt>
<trkpt lat="54.604336" lon="-3.198284"><ele>143</ele><time>2019-10-02T10:03:18Z</time><name>PT717</name></trkpt>
<trkpt lat="54.604323" lon="-3.198278"><ele>143</ele><time>2019-10-02T10:03:19Z</time><name>PT718</name></trkpt>
<trkpt lat="54.604313" lon="-3.198275"><ele>143</ele><time>2019-10-02T10:03:20Z</time><name>PT719</name></trkpt>
<trkpt lat="54.604305" lon="-3.198270"><ele>143</ele><time>2019-10-02T10:03:21Z</time><name>PT720</name></trkpt>
<trkpt lat="54.604296" lon="-3.198269"><ele>142</ele><time>2019-10-02T10:03:22Z</time><name>PT721</name></trkpt>
<trkpt lat="54.604287" lon="-3.198265"><ele>141</ele><time>2019-10-02T10:03:23Z</time><name>PT722</name></trkpt>
<trkpt lat="54.604278" lon="-3.198259"><ele>141</ele><time>2019-10-02T10:03:24Z</time><name>PT723</name></trkpt>
<trkpt lat="54.604266" lon="-3.198251"><ele>141</ele><time>2019-10-02T10:03:25Z</time><name>PT724</name></trkpt>
<trkpt lat="54.604257" lon="-3.198238"><ele>142</ele><time>2019-10-02T10:03:26Z</time><name>PT725</name></trkpt>
<trkpt lat="54.604234" lon="-3.198230"><ele>142</ele><time>2019-10-02T10:03:27Z</time><name>PT726</name></trkpt>
<trkpt lat="54.604226" lon="-3.198230"><ele>141</ele><time>2019-10-02T10:03:28Z</time><name>PT727</name></trkpt>
<trkpt lat="54.604217" lon="-3.198229"><ele>140</ele><time>2019-10-02T10:03:29Z</time><name>PT728</name></trkpt>
<trkpt lat="54.604220" lon="-3.198226"><ele>140</ele><time>2019-10-02T10:03:30Z</time><name>PT729</name></trkpt>
<trkpt lat="54.604211" lon="-3.198221"><ele>140</ele><time>2019-10-02T10:03:31Z</time><name>PT730</name></trkpt>
<trkpt lat="54.604203" lon="-3.198211"><ele>139</ele><time>2019-10-02T10:03:32Z</time><name>PT731</name></trkpt>
<trkpt lat="54.604195" lon="-3.198200"><ele>139</ele><time>2019-10-02T10:03:33Z</time><name>PT732</name></trkpt>
<trkpt lat="54.604189" lon="-3.198194"><ele>138</ele><time>2019-10-02T10:03:34Z</time><name>PT733</name></trkpt>
<trkpt lat="54.604184" lon="-3.198191"><ele>137</ele><time>2019-10-02T10:03:35Z</time><name>PT734</name></trkpt>
<trkpt lat="54.604168" lon="-3.198185"><ele>137</ele><time>2019-10-02T10:03:36Z</time><name>PT735</name></trkpt>
<trkpt lat="54.604159" lon="-3.198176"><ele>136</ele><time>2019-10-02T10:03:37Z</time><name>PT736</name></trkpt>
<trkpt lat="54.604151" lon="-3.198172"><ele>136</ele><time>2019-10-02T10:03:38Z</time><name>PT737</name></trkpt>
<trkpt lat="54.604141" lon="-3.198164"><ele>135</ele><time>2019-10-02T10:03:39Z</time><name>PT738</name></trkpt>
<trkpt lat="54.604121" lon="-3.198161"><ele>134</ele><time>2019-10-02T10:03:40Z</time><name>PT739</name></trkpt>
<trkpt lat="54.604103" lon="-3.198160"><ele>133</ele><time>2019-10-02T10:03:41Z</time><name>PT740</name></trkpt>
<trkpt lat="54.604093" lon="-3.198150"><ele>134</ele><time>2019-10-02T10:03:42Z</time><name>PT741</name></trkpt>
<trkpt lat="54.604083" lon="-3.198137"><ele>133</ele><time>2019-10-02T10:03:43Z</time><name>PT742</name></trkpt>
<trkpt lat="54.604074" lon="-3.198121"><ele>132</ele><time>2019-10-02T10:03:44Z</time><name>PT743</name></trkpt>
<trkpt lat="54.604064" lon="-3.198114"><ele>132</ele><time>2019-10-02T10:03:45Z</time><name>PT744</name></trkpt>
<trkpt lat="54.604055" lon="-3.198107"><ele>132</ele><time>2019-10-02T10:03:46Z</time><name>PT745</name></trkpt>
<trkpt lat="54.604049" lon="-3.198094"><ele>132</ele><time>2019-10-02T10:03:47Z</time><name>PT746</name></trkpt>
<trkpt lat="54.604035" lon="-3.198087"><ele>131</ele><time>2019-10-02T10:03:48Z</time><name>PT747</name></trkpt>
<trkpt lat="54.604020" lon="-3.198080"><ele>132</ele><time>2019-10-02T10:03:49Z</time><name>PT748</name></trkpt>
<trkpt lat="54.604008" lon="-3.198073"><ele>132</ele><time>2019-10-02T10:03:50Z</time><name>PT749</name></trkpt>
<trkpt lat="54.603999" lon="-3.198067"><ele>132</ele><time>2019-10-02T10:03:51Z</time><name>PT750</name></trkpt>
<trkpt lat="54.603988" lon="-3.198061"><ele>133</ele><time>2019-10-02T10:03:52Z</time><name>PT751</name></trkpt>
<trkpt lat="54.603974" lon="-3.198052"><ele>132</ele><time>2019-10-02T10:03:53Z</time><name>PT752</name></trkpt>
<trkpt lat="54.603959" lon="-3.198043"><ele>132</ele><time>2019-10-02T10:03:54Z</time><name>PT753</name></trkpt>
<trkpt lat="54.603941" lon="-3.198046"><ele>131</ele><time>2019-10-02T10:03:55Z</time><name>PT754</name></trkpt>
<trkpt lat="54.603927" lon="-3.198046"><ele>131</ele><time>2019-10-02T10:03:56Z</time><name>PT755</name></trkpt>
<trkpt lat="54.603913" lon="-3.198043"><ele>132</ele><time>2019-10-02T10:03:57Z</time><name>PT756</name></trkpt>
<trkpt lat="54.603905" lon="-3.198028"><ele>132</ele><time>2019-10-02T10:03:58Z</time><name>PT757</name></trkpt>
<trkpt lat="54.603893" lon="-3.198020"><ele>132</ele><time>2019-10-02T10:03:59Z</time><name>PT758</name></trkpt>
<trkpt lat="54.603874" lon="-3.198016"><ele>132</ele><time>2019-10-02T10:04:00Z</time><name>PT759</name></trkpt>
<trkpt lat="54.603860" lon="-3.198007"><ele>132</ele><time>2019-10-02T10:04:01Z</time><name>PT760</name></trkpt>
<trkpt lat="54.603848" lon="-3.197993"><ele>132</ele><time>2019-10-02T10:04:02Z</time><name>PT761</name></trkpt>
<trkpt lat="54.603834" lon="-3.197985"><ele>133</ele><time>2019-10-02T10:04:03Z</time><name>PT762</name></trkpt>
<trkpt lat="54.603825" lon="-3.197975"><ele>133</ele><time>2019-10-02T10:04:04Z</time><name>PT763</name></trkpt>
<trkpt lat="54.603817" lon="-3.197956"><ele>135</ele><time>2019-10-02T10:04:05Z</time><name>PT764</name></trkpt>
<trkpt lat="54.603814" lon="-3.197949"><ele>135</ele><time>2019-10-02T10:04:06Z</time><name>PT765</name></trkpt>
<trkpt lat="54.603804" lon="-3.197937"><ele>134</ele><time>2019-10-02T10:04:07Z</time><name>PT766</name></trkpt>
<trkpt lat="54.603795" lon="-3.197925"><ele>133</ele><time>2019-10-02T10:04:08Z</time><name>PT767</name></trkpt>
<trkpt lat="54.603785" lon="-3.197914"><ele>133</ele><time>2019-10-02T10:04:09Z</time><name>PT768</name></trkpt>
<trkpt lat="54.603776" lon="-3.197904"><ele>133</ele><time>2019-10-02T10:04:10Z</time><name>PT769</name></trkpt>
<trkpt lat="54.603763" lon="-3.197895"><ele>134</ele><time>2019-10-02T10:04:11Z</time><name>PT770</name></trkpt>
<trkpt lat="54.603748" lon="-3.197895"><ele>133</ele><time>2019-10-02T10:04:12Z</time><name>PT771</name></trkpt>
<trkpt lat="54.603734" lon="-3.197886"><ele>132</ele><time>2019-10-02T10:04:13Z</time><name>PT772</name></trkpt>
<trkpt lat="54.603718" lon="-3.197875"><ele>131</ele><time>2019-10-02T10:04:14Z</time><name>PT773</name></trkpt>
<trkpt lat="54.603709" lon="-3.197864"><ele>130</ele><time>2019-10-02T10:04:15Z</time><name>PT774</name></trkpt>
<trkpt lat="54.603692" lon="-3.197859"><ele>130</ele><time>2019-10-02T10:04:16Z</time><name>PT775</name></trkpt>
<trkpt lat="54.603682" lon="-3.197850"><ele>130</ele><time>2019-10-02T10:04:17Z</time><name>PT776</name></trkpt>
<trkpt lat="54.603668" lon="-3.197844"><ele>129</ele><time>2019-10-02T10:04:18Z</time><name>PT777</name></trkpt>
<trkpt lat="54.603658" lon="-3.197836"><ele>130</ele><time>2019-10-02T10:04:19Z</time><name>PT778</name></trkpt>
<trkpt lat="54.603641" lon="-3.197836"><ele>130</ele><time>2019-10-02T10:04:20Z</time><name>PT779</name></trkpt>
<trkpt lat="54.603623" lon="-3.197834"><ele>130</ele><time>2019-10-02T10:04:21Z</time><name>PT780</name></trkpt>
<trkpt lat="54.603608" lon="-3.197828"><ele>131</ele><time>2019-10-02T10:04:22Z</time><name>PT781</name></trkpt>
<trkpt lat="54.603593" lon="-3.197825"><ele>131</ele><time>2019-10-02T10:04:23Z</time><name>PT782</name></trkpt>
<trkpt lat="54.603583" lon="-3.197816"><ele>131</ele><time>2019-10-02T10:04:24Z</time><name>PT783</name></trkpt>
<trkpt lat="54.603574" lon="-3.197797"><ele>132</ele><time>2019-10-02T10:04:25Z</time><name>PT784</name></trkpt>
<trkpt lat="54.603568" lon="-3.197776"><ele>131</ele><time>2019-10-02T10:04:26Z</time><name>PT785</name></trkpt>
<trkpt lat="54.603556" lon="-3.197762"><ele>131</ele><time>2019-10-02T10:04:27Z</time><name>PT786</name></trkpt>
<trkpt lat="54.603545" lon="-3.197755"><ele>131</ele><time>2019-10-02T10:04:28Z</time><name>PT787</name></trkpt>
<trkpt lat="54.603537" lon="-3.197749"><ele>130</ele><time>2019-10-02T10:04:29Z</time><name>PT788</name></trkpt>
<trkpt lat="54.603530" lon="-3.197740"><ele>129</ele><time>2019-10-02T10:04:30Z</time><name>PT789</name></trkpt>
<trkpt lat="54.603522" lon="-3.197728"><ele>130</ele><time>2019-10-02T10:04:31Z</time><name>PT790</name></trkpt>
<trkpt lat="54.603514" lon="-3.197726"><ele>127</ele><time>2019-10-02T10:04:32Z</time><name>PT791</name></trkpt>
<trkpt lat="54.603501" lon="-3.197720"><ele>127</ele><time>2019-10-02T10:04:33Z</time><name>PT792</name></trkpt>
<trkpt lat="54.603483" lon="-3.197712"><ele>129</ele><time>2019-10-02T10:04:34Z</time><name>PT793</name></trkpt>
<trkpt lat="54.603466" lon="-3.197711"><ele>130</ele><time>2019-10-02T10:04:35Z</time><name>PT794</name></trkpt>
<trkpt lat="54.603455" lon="-3.197717"><ele>130</ele><time>2019-10-02T10:04:36Z</time><name>PT795</name></trkpt>
<trkpt lat="54.603447" lon="-3.197717"><ele>130</ele><time>2019-10-02T10:04:37Z</time><name>PT796</name></trkpt>
<trkpt lat="54.603436" lon="-3.197718"><ele>130</ele><time>2019-10-02T10:04:38Z</time><name>PT797</name></trkpt>
<trkpt lat="54.603425" lon="-3.197712"><ele>130</ele><time>2019-10-02T10:04:39Z</time><name>PT798</name></trkpt>
<trkpt lat="54.603416" lon="-3.197708"><ele>131</ele><time>2019-10-02T10:04:40Z</time><name>PT799</name></trkpt>
<trkpt lat="54.603412" lon="-3.197703"><ele>132</ele><time>2019-10-02T10:04:41Z</time><name>PT800</name></trkpt>
<trkpt lat="54.603409" lon="-3.197703"><ele>132</ele><time>2019-10-02T10:04:42Z</time><name>PT801</name></trkpt>
<trkpt lat="54.603412" lon="-3.197704"><ele>133</ele><time>2019-10-02T10:04:43Z</time><name>PT802</name></trkpt>
<trkpt lat="54.603412" lon="-3.197715"><ele>134</ele><time>2019-10-02T10:04:44Z</time><name>PT803</name></trkpt>
<trkpt lat="54.603407" lon="-3.197729"><ele>134</ele><time>2019-10-02T10:04:45Z</time><name>PT804</name></trkpt>
<trkpt lat="54.603401" lon="-3.197738"><ele>135</ele><time>2019-10-02T10:04:46Z</time><name>PT805</name></trkpt>
<trkpt lat="54.603394" lon="-3.197753"><ele>134</ele><time>2019-10-02T10:04:47Z</time><name>PT806</name></trkpt>
<trkpt lat="54.603389" lon="-3.197751"><ele>134</ele><time>2019-10-02T10:04:48Z</time><name>PT807</name></trkpt>
<trkpt lat="54.603386" lon="-3.197757"><ele>133</ele><time>2019-10-02T10:04:49Z</time><name>PT808</name></trkpt>
<trkpt lat="54.603384" lon="-3.197765"><ele>132</ele><time>2019-10-02T10:04:50Z</time><name>PT809</name></trkpt>
<trkpt lat="54.603381" lon="-3.197766"><ele>133</ele><time>2019-10-02T10:04:51Z</time><name>PT810</name></trkpt>
<trkpt lat="54.603377" lon="-3.197770"><ele>133</ele><time>2019-10-02T10:04:52Z</time><name>PT811</name></trkpt>
<trkpt lat="54.603377" lon="-3.197775"><ele>133</ele><time>2019-10-02T10:04:53Z</time><name>PT812</name></trkpt>
<trkpt lat="54.603376" lon="-3.197775"><ele>133</ele><time>2019-10-02T10:04:54Z</time><name>PT813</name></trkpt>
<trkpt lat="54.603378" lon="-3.197776"><ele>133</ele><time>2019-10-02T10:04:55Z</time><name>PT814</name></trkpt>
<trkpt lat="54.603378" lon="-3.197777"><ele>133</ele><time>2019-10-02T10:04:56Z</time><name>PT815</name></trkpt>
<trkpt lat="54.603379" lon="-3.197784"><ele>133</ele><time>2019-10-02T10:04:57Z</time><name>PT816</name></trkpt>
<trkpt lat="54.603380" lon="-3.197789"><ele>134</ele><time>2019-10-02T10:04:58Z</time><name>PT817</name></trkpt>
<trkpt lat="54.603380" lon="-3.197795"><ele>134</ele><time>2019-10-02T10:04:59Z</time><name>PT818</name></trkpt>
<trkpt lat="54.603386" lon="-3.197802"><ele>135</ele><time>2019-10-02T10:05:00Z</time><name>PT819</name></trkpt>
<trkpt lat="54.603386" lon="-3.197807"><ele>135</ele><time>2019-10-02T10:05:01Z</time><name>PT820</name></trkpt>
<trkpt lat="54.603386" lon="-3.197814"><ele>135</ele><time>2019-10-02T10:05:02Z</time><name>PT821</name></trkpt>
<trkpt lat="54.603388" lon="-3.197813"><ele>137</ele><time>2019-10-02T10:05:03Z</time><name>PT822</name></trkpt>
<trkpt lat="54.603398" lon="-3.197839"><ele>137</ele><time>2019-10-02T10:05:07Z</time><name>PT823</name></trkpt>
<trkpt lat="54.603397" lon="-3.197842"><ele>137</ele><time>2019-10-02T10:05:08Z</time><name>PT824</name></trkpt>
<trkpt lat="54.603399" lon="-3.197856"><ele>137</ele><time>2019-10-02T10:05:09Z</time><name>PT825</name></trkpt>
<trkpt lat="54.603399" lon="-3.197869"><ele>137</ele><time>2019-10-02T10:05:10Z</time><name>PT826</name></trkpt>
<trkpt lat="54.603409" lon="-3.197888"><ele>137</ele><time>2019-10-02T10:05:11Z</time><name>PT827</name></trkpt>
<trkpt lat="54.603410" lon="-3.197905"><ele>138</ele><time>2019-10-02T10:05:12Z</time><name>PT828</name></trkpt>
<trkpt lat="54.603405" lon="-3.197922"><ele>138</ele><time>2019-10-02T10:05:13Z</time><name>PT829</name></trkpt>
<trkpt lat="54.603401" lon="-3.197936"><ele>138</ele><time>2019-10-02T10:05:14Z</time><name>PT830</name></trkpt>
<trkpt lat="54.603405" lon="-3.197946"><ele>138</ele><time>2019-10-02T10:05:15Z</time><name>PT831</name></trkpt>
<trkpt lat="54.603405" lon="-3.197958"><ele>139</ele><time>2019-10-02T10:05:16Z</time><name>PT832</name></trkpt>
<trkpt lat="54.603399" lon="-3.197965"><ele>139</ele><time>2019-10-02T10:05:17Z</time><name>PT833</name></trkpt>
<trkpt lat="54.603399" lon="-3.197973"><ele>139</ele><time>2019-10-02T10:05:18Z</time><name>PT834</name></trkpt>
<trkpt lat="54.603399" lon="-3.197978"><ele>139</ele><time>2019-10-02T10:05:19Z</time><name>PT835</name></trkpt>
<trkpt lat="54.603399" lon="-3.197983"><ele>137</ele><time>2019-10-02T10:05:20Z</time><name>PT836</name></trkpt>
<trkpt lat="54.603405" lon="-3.197986"><ele>137</ele><time>2019-10-02T10:05:21Z</time><name>PT837</name></trkpt>
<trkpt lat="54.603409" lon="-3.198000"><ele>136</ele><time>2019-10-02T10:05:22Z</time><name>PT838</name></trkpt>
<trkpt lat="54.603411" lon="-3.198015"><ele>135</ele><time>2019-10-02T10:05:23Z</time><name>PT839</name></trkpt>
<trkpt lat="54.603414" lon="-3.198014"><ele>136</ele><time>2019-10-02T10:05:24Z</time><name>PT840</name></trkpt>
<trkpt lat="54.603419" lon="-3.198016"><ele>136</ele><time>2019-10-02T10:05:25Z</time><name>PT841</name></trkpt>
<trkpt lat="54.603428" lon="-3.198016"><ele>136</ele><time>2019-10-02T10:05:26Z</time><name>PT842</name></trkpt>
<trkpt lat="54.603436" lon="-3.198012"><ele>136</ele><time>2019-10-02T10:05:27Z</time><name>PT843</name></trkpt>
<trkpt lat="54.603442" lon="-3.198010"><ele>136</ele><time>2019-10-02T10:05:28Z</time><name>PT844</name></trkpt>
<trkpt lat="54.603443" lon="-3.198010"><ele>137</ele><time>2019-10-02T10:05:29Z</time><name>PT845</name></trkpt>
<trkpt lat="54.603443" lon="-3.198010"><ele>137</ele><time>2019-10-02T10:05:31Z</time><name>PT846</name></trkpt>
<trkpt lat="54.603441" lon="-3.198023"><ele>138</ele><time>2019-10-02T10:05:32Z</time><name>PT847</name></trkpt>
<trkpt lat="54.603434" lon="-3.198026"><ele>139</ele><time>2019-10-02T10:05:33Z</time><name>PT848</name></trkpt>
<trkpt lat="54.603438" lon="-3.198030"><ele>139</ele><time>2019-10-02T10:05:34Z</time><name>PT849</name></trkpt>
<trkpt lat="54.603439" lon="-3.198039"><ele>140</ele><time>2019-10-02T10:05:35Z</time><name>PT850</name></trkpt>
<trkpt lat="54.603440" lon="-3.198043"><ele>139</ele><time>2019-10-02T10:05:36Z</time><name>PT851</name></trkpt>
<trkpt lat="54.603444" lon="-3.198043"><ele>139</ele><time>2019-10-02T10:05:37Z</time><name>PT852</name></trkpt>
<trkpt lat="54.603448" lon="-3.198044"><ele>139</ele><time>2019-10-02T10:05:38Z</time><name>PT853</name></trkpt>
<trkpt lat="54.603453" lon="-3.198048"><ele>140</ele><time>2019-10-02T10:05:39Z</time><name>PT854</name></trkpt>
<trkpt lat="54.603462" lon="-3.198054"><ele>140</ele><time>2019-10-02T10:05:40Z</time><name>PT855</name></trkpt>
<trkpt lat="54.603466" lon="-3.198063"><ele>139</ele><time>2019-10-02T10:05:41Z</time><name>PT856</name></trkpt>
<trkpt lat="54.603468" lon="-3.198072"><ele>140</ele><time>2019-10-02T10:05:42Z</time><name>PT857</name></trkpt>
<trkpt lat="54.603472" lon="-3.198079"><ele>139</ele><time>2019-10-02T10:05:43Z</time><name>PT858</name></trkpt>
<trkpt lat="54.603475" lon="-3.198086"><ele>140</ele><time>2019-10-02T10:05:44Z</time><name>PT859</name></trkpt>
<trkpt lat="54.603479" lon="-3.198087"><ele>140</ele><time>2019-10-02T10:05:45Z</time><name>PT860</name></trkpt>
<trkpt lat="54.603486" lon="-3.198093"><ele>140</ele><time>2019-10-02T10:05:46Z</time><name>PT861</name></trkpt>
<trkpt lat="54.603490" lon="-3.198097"><ele>141</ele><time>2019-10-02T10:05:47Z</time><name>PT862</name></trkpt>
<trkpt lat="54.603496" lon="-3.198104"><ele>140</ele><time>2019-10-02T10:05:48Z</time><name>PT863</name></trkpt>
<trkpt lat="54.603503" lon="-3.198115"><ele>141</ele><time>2019-10-02T10:05:49Z</time><name>PT864</name></trkpt>
<trkpt lat="54.603502" lon="-3.198134"><ele>140</ele><time>2019-10-02T10:05:50Z</time><name>PT865</name></trkpt>
<trkpt lat="54.603503" lon="-3.198148"><ele>140</ele><time>2019-10-02T10:05:51Z</time><name>PT866</name></trkpt>
<trkpt lat="54.603502" lon="-3.198154"><ele>140</ele><time>2019-10-02T10:05:52Z</time><name>PT867</name></trkpt>
<trkpt lat="54.603507" lon="-3.198162"><ele>141</ele><time>2019-10-02T10:05:53Z</time><name>PT868</name></trkpt>
<trkpt lat="54.603517" lon="-3.198170"><ele>141</ele><time>2019-10-02T10:05:54Z</time><name>PT869</name></trkpt>
<trkpt lat="54.603521" lon="-3.198174"><ele>142</ele><time>2019-10-02T10:05:55Z</time><name>PT870</name></trkpt>
<trkpt lat="54.603525" lon="-3.198185"><ele>142</ele><time>2019-10-02T10:05:56Z</time><name>PT871</name></trkpt>
<trkpt lat="54.603532" lon="-3.198195"><ele>142</ele><time>2019-10-02T10:05:57Z</time><name>PT872</name></trkpt>
<trkpt lat="54.603536" lon="-3.198201"><ele>143</ele><time>2019-10-02T10:05:58Z</time><name>PT873</name></trkpt>
<trkpt lat="54.603539" lon="-3.198210"><ele>143</ele><time>2019-10-02T10:05:59Z</time><name>PT874</name></trkpt>
<trkpt lat="54.603542" lon="-3.198216"><ele>143</ele><time>2019-10-02T10:06:00Z</time><name>PT875</name></trkpt>
<trkpt lat="54.603541" lon="-3.198226"><ele>142</ele><time>2019-10-02T10:06:01Z</time><name>PT876</name></trkpt>
<trkpt lat="54.603545" lon="-3.198230"><ele>143</ele><time>2019-10-02T10:06:02Z</time><name>PT877</name></trkpt>
<trkpt lat="54.603551" lon="-3.198234"><ele>144</ele><time>2019-10-02T10:06:03Z</time><name>PT878</name></trkpt>
<trkpt lat="54.603553" lon="-3.198242"><ele>144</ele><time>2019-10-02T10:06:04Z</time><name>PT879</name></trkpt>
<trkpt lat="54.603554" lon="-3.198252"><ele>145</ele><time>2019-10-02T10:06:05Z</time><name>PT880</name></trkpt>
<trkpt lat="54.603553" lon="-3.198257"><ele>144</ele><time>2019-10-02T10:06:06Z</time><name>PT881</name></trkpt>
<trkpt lat="54.603558" lon="-3.198259"><ele>145</ele><time>2019-10-02T10:06:07Z</time><name>PT882</name></trkpt>
<trkpt lat="54.603558" lon="-3.198262"><ele>146</ele><time>2019-10-02T10:06:08Z</time><name>PT883</name></trkpt>
<trkpt lat="54.603561" lon="-3.198264"><ele>146</ele><time>2019-10-02T10:06:09Z</time><name>PT884</name></trkpt>
<trkpt lat="54.603569" lon="-3.198268"><ele>147</ele><time>2019-10-02T10:06:10Z</time><name>PT885</name></trkpt>
<trkpt lat="54.603575" lon="-3.198275"><ele>146</ele><time>2019-10-02T10:06:11Z</time><name>PT886</name></trkpt>
<trkpt lat="54.603584" lon="-3.198284"><ele>146</ele><time>2019-10-02T10:06:12Z</time><name>PT887</name></trkpt>
<trkpt lat="54.603590" lon="-3.198289"><ele>146</ele><time>2019-10-02T10:06:13Z</time><name>PT888</name></trkpt>
<trkpt lat="54.603595" lon="-3.198292"><ele>146</ele><time>2019-10-02T10:06:14Z</time><name>PT889</name></trkpt>
<trkpt lat="54.603599" lon="-3.198299"><ele>146</ele><time>2019-10-02T10:06:15Z</time><name>PT890</name></trkpt>
<trkpt lat="54.603602" lon="-3.198307"><ele>146</ele><time>2019-10-02T10:06:16Z</time><name>PT891</name></trkpt>
<trkpt lat="54.603607" lon="-3.198314"><ele>147</ele><time>2019-10-02T10:06:17Z</time><name>PT892</name></trkpt>
<trkpt lat="54.603612" lon="-3.198319"><ele>147</ele><time>2019-10-02T10:06:18Z</time><name>PT893</name></trkpt>
<trkpt lat="54.603615" lon="-3.198324"><ele>147</ele><time>2019-10-02T10:06:19Z</time><name>PT894</name></trkpt>
<trkpt lat="54.603619" lon="-3.198327"><ele>147</ele><time>2019-10-02T10:06:20Z</time><name>PT895</name></trkpt>
<trkpt lat="54.603626" lon="-3.198330"><ele>148</ele><time>2019-10-02T10:06:21Z</time><name>PT896</name></trkpt>
<trkpt lat="54.603633" lon="-3.198342"><ele>148</ele><time>2019-10-02T10:06:26Z</time><name>PT897</name></trkpt>
<trkpt lat="54.603645" lon="-3.198351"><ele>148</ele><time>2019-10-02T10:06:27Z</time><name>PT898</name></trkpt>
<trkpt lat="54.603648" lon="-3.198359"><ele>149</ele><time>2019-10-02T10:06:28Z</time><name>PT899</name></trkpt>
<trkpt lat="54.603652" lon="-3.198369"><ele>149</ele><time>2019-10-02T10:06:29Z</time><name>PT900</name></trkpt>
<trkpt lat="54.603656" lon="-3.198372"><ele>149</ele><time>2019-10-02T10:06:30Z</time><name>PT901</name></trkpt>
<trkpt lat="54.603663" lon="-3.198379"><ele>149</ele><time>2019-10-02T10:06:31Z</time><name>PT902</name></trkpt>
<trkpt lat="54.603671" lon="-3.198379"><ele>149</ele><time>2019-10-02T10:06:32Z</time><name>PT903</name></trkpt>
<trkpt lat="54.603680" lon="-3.198383"><ele>149</ele><time>2019-10-02T10:06:33Z</time><name>PT904</name></trkpt>
<trkpt lat="54.603687" lon="-3.198373"><ele>151</ele><time>2019-10-02T10:06:34Z</time><name>PT905</name></trkpt>
<trkpt lat="54.603692" lon="-3.198376"><ele>152</ele><time>2019-10-02T10:06:35Z</time><name>PT906</name></trkpt>
<trkpt lat="54.603696" lon="-3.198383"><ele>152</ele><time>2019-10-02T10:06:36Z</time><name>PT907</name></trkpt>
<trkpt lat="54.603703" lon="-3.198396"><ele>152</ele><time>2019-10-02T10:06:37Z</time><name>PT908</name></trkpt>
<trkpt lat="54.603704" lon="-3.198414"><ele>152</ele><time>2019-10-02T10:06:38Z</time><name>PT909</name></trkpt>
<trkpt lat="54.603707" lon="-3.198419"><ele>153</ele><time>2019-10-02T10:06:39Z</time><name>PT910</name></trkpt>
<trkpt lat="54.603710" lon="-3.198426"><ele>153</ele><time>2019-10-02T10:06:40Z</time><name>PT911</name></trkpt>
<trkpt lat="54.603715" lon="-3.198433"><ele>153</ele><time>2019-10-02T10:06:41Z</time><name>PT912</name></trkpt>
<trkpt lat="54.603718" lon="-3.198438"><ele>153</ele><time>2019-10-02T10:06:42Z</time><name>PT913</name></trkpt>
<trkpt lat="54.603723" lon="-3.198448"><ele>153</ele><time>2019-10-02T10:06:43Z</time><name>PT914</name></trkpt>
<trkpt lat="54.603728" lon="-3.198455"><ele>153</ele><time>2019-10-02T10:06:44Z</time><name>PT915</name></trkpt>
<trkpt lat="54.603729" lon="-3.198459"><ele>153</ele><time>2019-10-02T10:06:45Z</time><name>PT916</name></trkpt>
<trkpt lat="54.603739" lon="-3.198462"><ele>153</ele><time>2019-10-02T10:06:46Z</time><name>PT917</name></trkpt>
<trkpt lat="54.603746" lon="-3.198470"><ele>153</ele><time>2019-10-02T10:06:47Z</time><name>PT918</name></trkpt>
<trkpt lat="54.603756" lon="-3.198476"><ele>154</ele><time>2019-10-02T10:06:48Z</time><name>PT919</name></trkpt>
<trkpt lat="54.603763" lon="-3.198483"><ele>155</ele><time>2019-10-02T10:06:49Z</time><name>PT920</name></trkpt>
<trkpt lat="54.603771" lon="-3.198491"><ele>155</ele><time>2019-10-02T10:06:50Z</time><name>PT921</name></trkpt>
<trkpt lat="54.603774" lon="-3.198495"><ele>155</ele><time>2019-10-02T10:06:51Z</time><name>PT922</name></trkpt>
<trkpt lat="54.603774" lon="-3.198502"><ele>155</ele><time>2019-10-02T10:06:52Z</time><name>PT923</name></trkpt>
<trkpt lat="54.603776" lon="-3.198507"><ele>155</ele><time>2019-10-02T10:06:53Z</time><name>PT924</name></trkpt>
<trkpt lat="54.603775" lon="-3.198519"><ele>154</ele><time>2019-10-02T10:06:54Z</time><name>PT925</name></trkpt>
<trkpt lat="54.603778" lon="-3.198531"><ele>154</ele><time>2019-10-02T10:06:55Z</time><name>PT926</name></trkpt>
<trkpt lat="54.603781" lon="-3.198538"><ele>154</ele><time>2019-10-02T10:06:56Z</time><name>PT927</name></trkpt>
<trkpt lat="54.603784" lon="-3.198547"><ele>154</ele><time>2019-10-02T10:06:57Z</time><name>PT928</name></trkpt>
<trkpt lat="54.603785" lon="-3.198550"><ele>155</ele><time>2019-10-02T10:06:58Z</time><name>PT929</name></trkpt>
<trkpt lat="54.603790" lon="-3.198557"><ele>155</ele><time>2019-10-02T10:06:59Z</time><name>PT930</name></trkpt>
<trkpt lat="54.603794" lon="-3.198569"><ele>155</ele><time>2019-10-02T10:07:00Z</time><name>PT931</name></trkpt>
<trkpt lat="54.603793" lon="-3.198576"><ele>155</ele><time>2019-10-02T10:07:01Z</time><name>PT932</name></trkpt>
<trkpt lat="54.603790" lon="-3.198586"><ele>155</ele><time>2019-10-02T10:07:02Z</time><name>PT933</name></trkpt>
<trkpt lat="54.603788" lon="-3.198598"><ele>154</ele><time>2019-10-02T10:07:03Z</time><name>PT934</name></trkpt>
<trkpt lat="54.603792" lon="-3.198605"><ele>154</ele><time>2019-10-02T10:07:04Z</time><name>PT935</name></trkpt>
<trkpt lat="54.603797" lon="-3.198606"><ele>155</ele><time>2019-10-02T10:07:05Z</time><name>PT936</name></trkpt>
<trkpt lat="54.603801" lon="-3.198610"><ele>154</ele><time>2019-10-02T10:07:06Z</time><name>PT937</name></trkpt>
<trkpt lat="54.603805" lon="-3.198609"><ele>155</ele><time>2019-10-02T10:07:07Z</time><name>PT938</name></trkpt>
<trkpt lat="54.603818" lon="-3.198607"><ele>158</ele><time>2019-10-02T10:07:08Z</time><name>PT939</name></trkpt>
<trkpt lat="54.603827" lon="-3.198607"><ele>159</ele><time>2019-10-02T10:07:09Z</time><name>PT940</name></trkpt>
<trkpt lat="54.603836" lon="-3.198621"><ele>159</ele><time>2019-10-02T10:07:10Z</time><name>PT941</name></trkpt>
<trkpt lat="54.603845" lon="-3.198626"><ele>160</ele><time>2019-10-02T10:07:11Z</time><name>PT942</name></trkpt>
<trkpt lat="54.603849" lon="-3.198630"><ele>160</ele><time>2019-10-02T10:07:12Z</time><name>PT943</name></trkpt>
<trkpt lat="54.603853" lon="-3.198633"><ele>161</ele><time>2019-10-02T10:07:13Z</time><name>PT944</name></trkpt>
<trkpt lat="54.603861" lon="-3.198638"><ele>162</ele><time>2019-10-02T10:07:14Z</time><name>PT945</name></trkpt>
<trkpt lat="54.603868" lon="-3.198638"><ele>163</ele><time>2019-10-02T10:07:15Z</time><name>PT946</name></trkpt>
<trkpt lat="54.603875" lon="-3.198645"><ele>163</ele><time>2019-10-02T10:07:16Z</time><name>PT947</name></trkpt>
<trkpt lat="54.603880" lon="-3.198652"><ele>163</ele><time>2019-10-02T10:07:17Z</time><name>PT948</name></trkpt>
<trkpt lat="54.603885" lon="-3.198663"><ele>163</ele><time>2019-10-02T10:07:18Z</time><name>PT949</name></trkpt>
<trkpt lat="54.603892" lon="-3.198673"><ele>163</ele><time>2019-10-02T10:07:19Z</time><name>PT950</name></trkpt>
<trkpt lat="54.603894" lon="-3.198682"><ele>162</ele><time>2019-10-02T10:07:20Z</time><name>PT951</name></trkpt>
<trkpt lat="54.603896" lon="-3.198687"><ele>162</ele><time>2019-10-02T10:07:21Z</time><name>PT952</name></trkpt>
<trkpt lat="54.603902" lon="-3.198699"><ele>162</ele><time>2019-10-02T10:07:22Z</time><name>PT953</name></trkpt>
<trkpt lat="54.603908" lon="-3.198706"><ele>161</ele><time>2019-10-02T10:07:23Z</time><name>PT954</name></trkpt>
<trkpt lat="54.603913" lon="-3.198709"><ele>160</ele><time>2019-10-02T10:07:24Z</time><name>PT955</name></trkpt>
<trkpt lat="54.603917" lon="-3.198712"><ele>160</ele><time>2019-10-02T10:07:25Z</time><name>PT956</name></trkpt>
<trkpt lat="54.603919" lon="-3.198717"><ele>159</ele><time>2019-10-02T10:07:26Z</time><name>PT957</name></trkpt>
<trkpt lat="54.603925" lon="-3.198717"><ele>159</ele><time>2019-10-02T10:07:27Z</time><name>PT958</name></trkpt>
<trkpt lat="54.603931" lon="-3.198715"><ele>159</ele><time>2019-10-02T10:07:28Z</time><name>PT959</name></trkpt>
<trkpt lat="54.603938" lon="-3.198709"><ele>161</ele><time>2019-10-02T10:07:29Z</time><name>PT960</name></trkpt>
<trkpt lat="54.603941" lon="-3.198711"><ele>161</ele><time>2019-10-02T10:07:30Z</time><name>PT961</name></trkpt>
<trkpt lat="54.603941" lon="-3.198711"><ele>160</ele><time>2019-10-02T10:07:31Z</time><name>PT962</name></trkpt>
<trkpt lat="54.603945" lon="-3.198722"><ele>161</ele><time>2019-10-02T10:07:32Z</time><name>PT963</name></trkpt>
<trkpt lat="54.603947" lon="-3.198741"><ele>160</ele><time>2019-10-02T10:07:33Z</time><name>PT964</name></trkpt>
<trkpt lat="54.603954" lon="-3.198751"><ele>161</ele><time>2019-10-02T10:07:34Z</time><name>PT965</name></trkpt>
<trkpt lat="54.603958" lon="-3.198758"><ele>161</ele><time>2019-10-02T10:07:35Z</time><name>PT966</name></trkpt>
<trkpt lat="54.603964" lon="-3.198763"><ele>161</ele><time>2019-10-02T10:07:36Z</time><name>PT967</name></trkpt>
<trkpt lat="54.603971" lon="-3.198767"><ele>162</ele><time>2019-10-02T10:07:37Z</time><name>PT968</name></trkpt>
<trkpt lat="54.603981" lon="-3.198767"><ele>161</ele><time>2019-10-02T10:07:38Z</time><name>PT969</name></trkpt>
<trkpt lat="54.603990" lon="-3.198767"><ele>162</ele><time>2019-10-02T10:07:39Z</time><name>PT970</name></trkpt>
<trkpt lat="54.603997" lon="-3.198771"><ele>162</ele><time>2019-10-02T10:07:40Z</time><name>PT971</name></trkpt>
<trkpt lat="54.604003" lon="-3.198775"><ele>162</ele><time>2019-10-02T10:07:41Z</time><name>PT972</name></trkpt>
<trkpt lat="54.604011" lon="-3.198787"><ele>162</ele><time>2019-10-02T10:07:42Z</time><name>PT973</name></trkpt>
<trkpt lat="54.604016" lon="-3.198796"><ele>162</ele><time>2019-10-02T10:07:43Z</time><name>PT974</name></trkpt>
<trkpt lat="54.604021" lon="-3.198805"><ele>162</ele><time>2019-10-02T10:07:44Z</time><name>PT975</name></trkpt>
<trkpt lat="54.604035" lon="-3.198815"><ele>162</ele><time>2019-10-02T10:07:45Z</time><name>PT976</name></trkpt>
<trkpt lat="54.604040" lon="-3.198823"><ele>162</ele><time>2019-10-02T10:07:46Z</time><name>PT977</name></trkpt>
<trkpt lat="54.604047" lon="-3.198832"><ele>162</ele><time>2019-10-02T10:07:47Z</time><name>PT978</name></trkpt>
<trkpt lat="54.604052" lon="-3.198839"><ele>162</ele><time>2019-10-02T10:07:48Z</time><name>PT979</name></trkpt>
<trkpt lat="54.604060" lon="-3.198848"><ele>163</ele><time>2019-10-02T10:07:49Z</time><name>PT980</name></trkpt>
<trkpt lat="54.604068" lon="-3.198857"><ele>163</ele><time>2019-10-02T10:07:50Z</time><name>PT981</name></trkpt>
<trkpt lat="54.604070" lon="-3.198877"><ele>162</ele><time>2019-10-02T10:07:51Z</time><name>PT982</name></trkpt>
<trkpt lat="54.604077" lon="-3.198890"><ele>163</ele><time>2019-10-02T10:07:52Z</time><name>PT983</name></trkpt>
<trkpt lat="54.604088" lon="-3.198901"><ele>162</ele><time>2019-10-02T10:07:53Z</time><name>PT984</name></trkpt>
<trkpt lat="54.604094" lon="-3.198905"><ele>163</ele><time>2019-10-02T10:07:54Z</time><name>PT985</name></trkpt>
<trkpt lat="54.604099" lon="-3.198911"><ele>164</ele><time>2019-10-02T10:07:55Z</time><name>PT986</name></trkpt>
<trkpt lat="54.604096" lon="-3.198920"><ele>164</ele><time>2019-10-02T10:07:58Z</time><name>PT987</name></trkpt>
<trkpt lat="54.604088" lon="-3.198936"><ele>164</ele><time>2019-10-02T10:07:59Z</time><name>PT988</name></trkpt>
<trkpt lat="54.604096" lon="-3.198940"><ele>164</ele><time>2019-10-02T10:08:00Z</time><name>PT989</name></trkpt>
<trkpt lat="54.604096" lon="-3.198945"><ele>165</ele><time>2019-10-02T10:08:01Z</time><name>PT990</name></trkpt>
<trkpt lat="54.604100" lon="-3.198948"><ele>165</ele><time>2019-10-02T10:08:02Z</time><name>PT991</name></trkpt>
<trkpt lat="54.604110" lon="-3.198957"><ele>166</ele><time>2019-10-02T10:08:03Z</time><name>PT992</name></trkpt>
<trkpt lat="54.604119" lon="-3.198962"><ele>166</ele><time>2019-10-02T10:08:04Z</time><name>PT993</name></trkpt>
<trkpt lat="54.604123" lon="-3.198967"><ele>166</ele><time>2019-10-02T10:08:05Z</time><name>PT994</name></trkpt>
<trkpt lat="54.604131" lon="-3.198970"><ele>166</ele><time>2019-10-02T10:08:06Z</time><name>PT995</name></trkpt>
<trkpt lat="54.604140" lon="-3.198973"><ele>166</ele><time>2019-10-02T10:08:07Z</time><name>PT996</name></trkpt>
<trkpt lat="54.604145" lon="-3.198978"><ele>166</ele><time>2019-10-02T10:08:08Z</time><name>PT997</name></trkpt>
<trkpt lat="54.604153" lon="-3.198987"><ele>166</ele><time>2019-10-02T10:08:09Z</time><name>PT998</name></trkpt>
<trkpt lat="54.604159" lon="-3.198990"><ele>167</ele><time>2019-10-02T10:08:10Z</time><name>PT999</name></trkpt>
<trkpt lat="54.604164" lon="-3.198991"><ele>167</ele><time>2019-10-02T10:08:11Z</time><name>PT1000</name></trkpt>
<trkpt lat="54.604169" lon="-3.198994"><ele>167</ele><time>2019-10-02T10:08:12Z</time><name>PT1001</name></trkpt>
<trkpt lat="54.604176" lon="-3.199003"><ele>168</ele><time>2019-10-02T10:08:13Z</time><name>PT1002</name></trkpt>
<trkpt lat="54.604184" lon="-3.199010"><ele>168</ele><time>2019-10-02T10:08:14Z</time><name>PT1003</name></trkpt>
<trkpt lat="54.604188" lon="-3.199020"><ele>168</ele><time>2019-10-02T10:08:15Z</time><name>PT1004</name></trkpt>
<trkpt lat="54.604194" lon="-3.199022"><ele>168</ele><time>2019-10-02T10:08:20Z</time><name>PT1005</name></trkpt>
<trkpt lat="54.604207" lon="-3.199022"><ele>169</ele><time>2019-10-02T10:08:21Z</time><name>PT1006</name></trkpt>
<trkpt lat="54.604215" lon="-3.199025"><ele>169</ele><time>2019-10-02T10:08:22Z</time><name>PT1007</name></trkpt>
<trkpt lat="54.604222" lon="-3.199031"><ele>169</ele><time>2019-10-02T10:08:23Z</time><name>PT1008</name></trkpt>
<trkpt lat="54.604227" lon="-3.199035"><ele>169</ele><time>2019-10-02T10:08:24Z</time><name>PT1009</name></trkpt>
<trkpt lat="54.604235" lon="-3.199040"><ele>170</ele><time>2019-10-02T10:08:25Z</time><name>PT1010</name></trkpt>
<trkpt lat="54.604239" lon="-3.199046"><ele>170</ele><time>2019-10-02T10:08:26Z</time><name>PT1011</name></trkpt>
<trkpt lat="54.604250" lon="-3.199054"><ele>170</ele><time>2019-10-02T10:08:27Z</time><name>PT1012</name></trkpt>
<trkpt lat="54.604260" lon="-3.199058"><ele>171</ele><time>2019-10-02T10:08:28Z</time><name>PT1013</name></trkpt>
<trkpt lat="54.604269" lon="-3.199065"><ele>171</ele><time>2019-10-02T10:08:29Z</time><name>PT1014</name></trkpt>
<trkpt lat="54.604279" lon="-3.199069"><ele>171</ele><time>2019-10-02T10:08:30Z</time><name>PT1015</name></trkpt>
<trkpt lat="54.604290" lon="-3.199071"><ele>171</ele><time>2019-10-02T10:08:31Z</time><name>PT1016</name></trkpt>
<trkpt lat="54.604298" lon="-3.199083"><ele>171</ele><time>2019-10-02T10:08:32Z</time><name>PT1017</name></trkpt>
<trkpt lat="54.604303" lon="-3.199086"><ele>171</ele><time>2019-10-02T10:08:33Z</time><name>PT1018</name></trkpt>
<trkpt lat="54.604309" lon="-3.199095"><ele>171</ele><time>2019-10-02T10:08:34Z</time><name>PT1019</name></trkpt>
<trkpt lat="54.604314" lon="-3.199099"><ele>171</ele><time>2019-10-02T10:08:35Z</time><name>PT1020</name></trkpt>
<trkpt lat="54.604316" lon="-3.199104"><ele>171</ele><time>2019-10-02T10:08:36Z</time><name>PT1021</name></trkpt>
<trkpt lat="54.604321" lon="-3.199110"><ele>171</ele><time>2019-10-02T10:08:37Z</time><name>PT1022</name></trkpt>
<trkpt lat="54.604324" lon="-3.199115"><ele>172</ele><time>2019-10-02T10:08:38Z</time><name>PT1023</name></trkpt>
<trkpt lat="54.604336" lon="-3.199104"><ele>173</ele><time>2019-10-02T10:08:39Z</time><name>PT1024</name></trkpt>
<trkpt lat="54.604339" lon="-3.199105"><ele>173</ele><time>2019-10-02T10:08:40Z</time><name>PT1025</name></trkpt>
<trkpt lat="54.604344" lon="-3.199111"><ele>172</ele><time>2019-10-02T10:08:41Z</time><name>PT1026</name></trkpt>
<trkpt lat="54.604346" lon="-3.199121"><ele>172</ele><time>2019-10-02T10:08:43Z</time><name>PT1027</name></trkpt>
<trkpt lat="54.604350" lon="-3.199128"><ele>172</ele><time>2019-10-02T10:08:44Z</time><name>PT1028</name></trkpt>
<trkpt lat="54.604357" lon="-3.199136"><ele>171</ele><time>2019-10-02T10:08:45Z</time><name>PT1029</name></trkpt>
<trkpt lat="54.604364" lon="-3.199138"><ele>171</ele><time>2019-10-02T10:08:46Z</time><name>PT1030</name></trkpt>
<trkpt lat="54.604372" lon="-3.199143"><ele>171</ele><time>2019-10-02T10:08:47Z</time><name>PT1031</name></trkpt>
<trkpt lat="54.604382" lon="-3.199148"><ele>171</ele><time>2019-10-02T10:08:48Z</time><name>PT1032</name></trkpt>
<trkpt lat="54.604391" lon="-3.199159"><ele>171</ele><time>2019-10-02T10:08:49Z</time><name>PT1033</name></trkpt>
<trkpt lat="54.604399" lon="-3.199166"><ele>170</ele><time>2019-10-02T10:08:50Z</time><name>PT1034</name></trkpt>
<trkpt lat="54.604411" lon="-3.199169"><ele>170</ele><time>2019-10-02T10:08:51Z</time><name>PT1035</name></trkpt>
<trkpt lat="54.604415" lon="-3.199182"><ele>170</ele><time>2019-10-02T10:08:52Z</time><name>PT1036</name></trkpt>
<trkpt lat="54.604424" lon="-3.199192"><ele>170</ele><time>2019-10-02T10:08:53Z</time><name>PT1037</name></trkpt>
<trkpt lat="54.604431" lon="-3.199206"><ele>170</ele><time>2019-10-02T10:08:54Z</time><name>PT1038</name></trkpt>
<trkpt lat="54.604439" lon="-3.199217"><ele>170</ele><time>2019-10-02T10:08:55Z</time><name>PT1039</name></trkpt>
<trkpt lat="54.604449" lon="-3.199228"><ele>170</ele><time>2019-10-02T10:08:56Z</time><name>PT1040</name></trkpt>
<trkpt lat="54.604453" lon="-3.199241"><ele>170</ele><time>2019-10-02T10:08:57Z</time><name>PT1041</name></trkpt>
<trkpt lat="54.604451" lon="-3.199255"><ele>169</ele><time>2019-10-02T10:08:58Z</time><name>PT1042</name></trkpt>
<trkpt lat="54.604455" lon="-3.199270"><ele>169</ele><time>2019-10-02T10:08:59Z</time><name>PT1043</name></trkpt>
<trkpt lat="54.604458" lon="-3.199283"><ele>169</ele><time>2019-10-02T10:09:00Z</time><name>PT1044</name></trkpt>
<trkpt lat="54.604461" lon="-3.199293"><ele>169</ele><time>2019-10-02T10:09:01Z</time><name>PT1045</name></trkpt>
<trkpt lat="54.604467" lon="-3.199305"><ele>169</ele><time>2019-10-02T10:09:04Z</time><name>PT1046</name></trkpt>
<trkpt lat="54.604471" lon="-3.199320"><ele>169</ele><time>2019-10-02T10:09:05Z</time><name>PT1047</name></trkpt>
<trkpt lat="54.604473" lon="-3.199337"><ele>169</ele><time>2019-10-02T10:09:06Z</time><name>PT1048</name></trkpt>
<trkpt lat="54.604477" lon="-3.199358"><ele>171</ele><time>2019-10-02T10:09:07Z</time><name>PT1049</name></trkpt>
<trkpt lat="54.604487" lon="-3.199380"><ele>170</ele><time>2019-10-02T10:09:08Z</time><name>PT1050</name></trkpt>
<trkpt lat="54.604487" lon="-3.199392"><ele>170</ele><time>2019-10-02T10:09:09Z</time><name>PT1051</name></trkpt>
<trkpt lat="54.604494" lon="-3.199406"><ele>170</ele><time>2019-10-02T10:09:10Z</time><name>PT1052</name></trkpt>
<trkpt lat="54.604499" lon="-3.199417"><ele>170</ele><time>2019-10-02T10:09:11Z</time><name>PT1053</name></trkpt>
<trkpt lat="54.604501" lon="-3.199431"><ele>170</ele><time>2019-10-02T10:09:12Z</time><name>PT1054</name></trkpt>
<trkpt lat="54.604505" lon="-3.199437"><ele>170</ele><time>2019-10-02T10:09:13Z</time><name>PT1055</name></trkpt>
<trkpt lat="54.604512" lon="-3.199451"><ele>170</ele><time>2019-10-02T10:09:14Z</time><name>PT1056</name></trkpt>
<trkpt lat="54.604510" lon="-3.199460"><ele>170</ele><time>2019-10-02T10:09:15Z</time><name>PT1057</name></trkpt>
<trkpt lat="54.604513" lon="-3.199463"><ele>171</ele><time>2019-10-02T10:09:16Z</time><name>PT1058</name></trkpt>
<trkpt lat="54.604516" lon="-3.199466"><ele>171</ele><time>2019-10-02T10:09:17Z</time><name>PT1059</name></trkpt>
<trkpt lat="54.604517" lon="-3.199478"><ele>172</ele><time>2019-10-02T10:09:22Z</time><name>PT1060</name></trkpt>
<trkpt lat="54.604516" lon="-3.199509"><ele>173</ele><time>2019-10-02T10:09:23Z</time><name>PT1061</name></trkpt>
<trkpt lat="54.604518" lon="-3.199518"><ele>173</ele><time>2019-10-02T10:09:24Z</time><name>PT1062</name></trkpt>
<trkpt lat="54.604516" lon="-3.199525"><ele>173</ele><time>2019-10-02T10:09:25Z</time><name>PT1063</name></trkpt>
<trkpt lat="54.604519" lon="-3.199539"><ele>174</ele><time>2019-10-02T10:09:26Z</time><name>PT1064</name></trkpt>
<trkpt lat="54.604524" lon="-3.199553"><ele>174</ele><time>2019-10-02T10:09:27Z</time><name>PT1065</name></trkpt>
<trkpt lat="54.604525" lon="-3.199569"><ele>174</ele><time>2019-10-02T10:09:28Z</time><name>PT1066</name></trkpt>
<trkpt lat="54.604526" lon="-3.199579"><ele>174</ele><time>2019-10-02T10:09:29Z</time><name>PT1067</name></trkpt>
<trkpt lat="54.604530" lon="-3.199587"><ele>174</ele><time>2019-10-02T10:09:30Z</time><name>PT1068</name></trkpt>
<trkpt lat="54.604534" lon="-3.199600"><ele>175</ele><time>2019-10-02T10:09:31Z</time><name>PT1069</name></trkpt>
<trkpt lat="54.604542" lon="-3.199605"><ele>175</ele><time>2019-10-02T10:09:32Z</time><name>PT1070</name></trkpt>
<trkpt lat="54.604550" lon="-3.199616"><ele>175</ele><time>2019-10-02T10:09:33Z</time><name>PT1071</name></trkpt>
<trkpt lat="54.604555" lon="-3.199629"><ele>176</ele><time>2019-10-02T10:09:34Z</time><name>PT1072</name></trkpt>
<trkpt lat="54.604564" lon="-3.199642"><ele>176</ele><time>2019-10-02T10:09:35Z</time><name>PT1073</name></trkpt>
<trkpt lat="54.604572" lon="-3.199654"><ele>177</ele><time>2019-10-02T10:09:36Z</time><name>PT1074</name></trkpt>
<trkpt lat="54.604577" lon="-3.199662"><ele>177</ele><time>2019-10-02T10:09:37Z</time><name>PT1075</name></trkpt>
<trkpt lat="54.604579" lon="-3.199674"><ele>178</ele><time>2019-10-02T10:09:38Z</time><name>PT1076</name></trkpt>
<trkpt lat="54.604578" lon="-3.199692"><ele>177</ele><time>2019-10-02T10:09:39Z</time><name>PT1077</name></trkpt>
<trkpt lat="54.604577" lon="-3.199707"><ele>177</ele><time>2019-10-02T10:09:40Z</time><name>PT1078</name></trkpt>
<trkpt lat="54.604575" lon="-3.199719"><ele>177</ele><time>2019-10-02T10:09:41Z</time><name>PT1079</name></trkpt>
<trkpt lat="54.604585" lon="-3.199728"><ele>179</ele><time>2019-10-02T10:09:42Z</time><name>PT1080</name></trkpt>
<trkpt lat="54.604582" lon="-3.199728"><ele>180</ele><time>2019-10-02T10:09:43Z</time><name>PT1081</name></trkpt>
<trkpt lat="54.604583" lon="-3.199732"><ele>181</ele><time>2019-10-02T10:09:44Z</time><name>PT1082</name></trkpt>
<trkpt lat="54.604579" lon="-3.199741"><ele>181</ele><time>2019-10-02T10:09:45Z</time><name>PT1083</name></trkpt>
<trkpt lat="54.604576" lon="-3.199747"><ele>180</ele><time>2019-10-02T10:09:46Z</time><name>PT1084</name></trkpt>
<trkpt lat="54.604573" lon="-3.199753"><ele>181</ele><time>2019-10-02T10:09:47Z</time><name>PT1085</name></trkpt>
<trkpt lat="54.604571" lon="-3.199758"><ele>181</ele><time>2019-10-02T10:09:48Z</time><name>PT1086</name></trkpt>
<trkpt lat="54.604571" lon="-3.199762"><ele>181</ele><time>2019-10-02T10:09:49Z</time><name>PT1087</name></trkpt>
<trkpt lat="54.604572" lon="-3.199770"><ele>182</ele><time>2019-10-02T10:09:50Z</time><name>PT1088</name></trkpt>
<trkpt lat="54.604567" lon="-3.199778"><ele>183</ele><time>2019-10-02T10:09:51Z</time><name>PT1089</name></trkpt>
<trkpt lat="54.604564" lon="-3.199781"><ele>183</ele><time>2019-10-02T10:09:52Z</time><name>PT1090</name></trkpt>
<trkpt lat="54.604560" lon="-3.199786"><ele>184</ele><time>2019-10-02T10:09:53Z</time><name>PT1091</name></trkpt>
<trkpt lat="54.604555" lon="-3.199794"><ele>184</ele><time>2019-10-02T10:09:54Z</time><name>PT1092</name></trkpt>
<trkpt lat="54.604551" lon="-3.199801"><ele>185</ele><time>2019-10-02T10:09:55Z</time><name>PT1093</name></trkpt>
<trkpt lat="54.604549" lon="-3.199811"><ele>185</ele><time>2019-10-02T10:09:56Z</time><name>PT1094</name></trkpt>
<trkpt lat="54.604549" lon="-3.199819"><ele>185</ele><time>2019-10-02T10:09:57Z</time><name>PT1095</name></trkpt>
<trkpt lat="54.604547" lon="-3.199832"><ele>185</ele><time>2019-10-02T10:09:58Z</time><name>PT1096</name></trkpt>
<trkpt lat="54.604546" lon="-3.199845"><ele>186</ele><time>2019-10-02T10:09:59Z</time><name>PT1097</name></trkpt>
<trkpt lat="54.604541" lon="-3.199853"><ele>186</ele><time>2019-10-02T10:10:00Z</time><name>PT1098</name></trkpt>
<trkpt lat="54.604537" lon="-3.199867"><ele>186</ele><time>2019-10-02T10:10:01Z</time><name>PT1099</name></trkpt>
<trkpt lat="54.604536" lon="-3.199880"><ele>187</ele><time>2019-10-02T10:10:02Z</time><name>PT1100</name></trkpt>
<trkpt lat="54.604537" lon="-3.199890"><ele>187</ele><time>2019-10-02T10:10:03Z</time><name>PT1101</name></trkpt>
<trkpt lat="54.604537" lon="-3.199896"><ele>188</ele><time>2019-10-02T10:10:04Z</time><name>PT1102</name></trkpt>
<trkpt lat="54.604534" lon="-3.199903"><ele>188</ele><time>2019-10-02T10:10:05Z</time><name>PT1103</name></trkpt>
<trkpt lat="54.604532" lon="-3.199912"><ele>189</ele><time>2019-10-02T10:10:06Z</time><name>PT1104</name></trkpt>
<trkpt lat="54.604528" lon="-3.199921"><ele>189</ele><time>2019-10-02T10:10:07Z</time><name>PT1105</name></trkpt>
<trkpt lat="54.604525" lon="-3.199930"><ele>189</ele><time>2019-10-02T10:10:08Z</time><name>PT1106</name></trkpt>
<trkpt lat="54.604525" lon="-3.199937"><ele>189</ele><time>2019-10-02T10:10:09Z</time><name>PT1107</name></trkpt>
<trkpt lat="54.604524" lon="-3.199944"><ele>189</ele><time>2019-10-02T10:10:10Z</time><name>PT1108</name></trkpt>
<trkpt lat="54.604520" lon="-3.199954"><ele>190</ele><time>2019-10-02T10:10:11Z</time><name>PT1109</name></trkpt>
<trkpt lat="54.604517" lon="-3.199965"><ele>190</ele><time>2019-10-02T10:10:12Z</time><name>PT1110</name></trkpt>
<trkpt lat="54.604514" lon="-3.199980"><ele>190</ele><time>2019-10-02T10:10:13Z</time><name>PT1111</name></trkpt>
<trkpt lat="54.604509" lon="-3.199999"><ele>189</ele><time>2019-10-02T10:10:14Z</time><name>PT1112</name></trkpt>
<trkpt lat="54.604504" lon="-3.200013"><ele>189</ele><time>2019-10-02T10:10:15Z</time><name>PT1113</name></trkpt>
<trkpt lat="54.604500" lon="-3.200025"><ele>189</ele><time>2019-10-02T10:10:16Z</time><name>PT1114</name></trkpt>
<trkpt lat="54.604494" lon="-3.200034"><ele>188</ele><time>2019-10-02T10:10:17Z</time><name>PT1115</name></trkpt>
<trkpt lat="54.604488" lon="-3.200045"><ele>188</ele><time>2019-10-02T10:10:18Z</time><name>PT1116</name></trkpt>
<trkpt lat="54.604483" lon="-3.200057"><ele>188</ele><time>2019-10-02T10:10:19Z</time><name>PT1117</name></trkpt>
<trkpt lat="54.604483" lon="-3.200067"><ele>190</ele><time>2019-10-02T10:10:20Z</time><name>PT1118</name></trkpt>
<trkpt lat="54.604479" lon="-3.200077"><ele>190</ele><time>2019-10-02T10:10:21Z</time><name>PT1119</name></trkpt>
<trkpt lat="54.604479" lon="-3.200079"><ele>191</ele><time>2019-10-02T10:10:22Z</time><name>PT1120</name></trkpt>
<trkpt lat="54.604480" lon="-3.200087"><ele>192</ele><time>2019-10-02T10:10:23Z</time><name>PT1121</name></trkpt>
<trkpt lat="54.604473" lon="-3.200095"><ele>192</ele><time>2019-10-02T10:10:24Z</time><name>PT1122</name></trkpt>
<trkpt lat="54.604468" lon="-3.200099"><ele>192</ele><time>2019-10-02T10:10:25Z</time><name>PT1123</name></trkpt>
<trkpt lat="54.604459" lon="-3.200101"><ele>193</ele><time>2019-10-02T10:10:26Z</time><name>PT1124</name></trkpt>
<trkpt lat="54.604450" lon="-3.200103"><ele>193</ele><time>2019-10-02T10:10:27Z</time><name>PT1125</name></trkpt>
<trkpt lat="54.604445" lon="-3.200108"><ele>194</ele><time>2019-10-02T10:10:28Z</time><name>PT1126</name></trkpt>
<trkpt lat="54.604436" lon="-3.200113"><ele>194</ele><time>2019-10-02T10:10:29Z</time><name>PT1127</name></trkpt>
<trkpt lat="54.604428" lon="-3.200117"><ele>195</ele><time>2019-10-02T10:10:30Z</time><name>PT1128</name></trkpt>
<trkpt lat="54.604419" lon="-3.200122"><ele>195</ele><time>2019-10-02T10:10:31Z</time><name>PT1129</name></trkpt>
<trkpt lat="54.604410" lon="-3.200128"><ele>195</ele><time>2019-10-02T10:10:32Z</time><name>PT1130</name></trkpt>
<trkpt lat="54.604404" lon="-3.200136"><ele>195</ele><time>2019-10-02T10:10:33Z</time><name>PT1131</name></trkpt>
<trkpt lat="54.604399" lon="-3.200139"><ele>196</ele><time>2019-10-02T10:10:34Z</time><name>PT1132</name></trkpt>
<trkpt lat="54.604394" lon="-3.200142"><ele>196</ele><time>2019-10-02T10:10:35Z</time><name>PT1133</name></trkpt>
<trkpt lat="54.604391" lon="-3.200145"><ele>196</ele><time>2019-10-02T10:10:36Z</time><name>PT1134</name></trkpt>
<trkpt lat="54.604382" lon="-3.200152"><ele>196</ele><time>2019-10-02T10:10:37Z</time><name>PT1135</name></trkpt>
<trkpt lat="54.604377" lon="-3.200159"><ele>196</ele><time>2019-10-02T10:10:38Z</time><name>PT1136</name></trkpt>
<trkpt lat="54.604371" lon="-3.200163"><ele>197</ele><time>2019-10-02T10:10:39Z</time><name>PT1137</name></trkpt>
<trkpt lat="54.604361" lon="-3.200163"><ele>197</ele><time>2019-10-02T10:10:40Z</time><name>PT1138</name></trkpt>
<trkpt lat="54.604355" lon="-3.200161"><ele>197</ele><time>2019-10-02T10:10:41Z</time><name>PT1139</name></trkpt>
<trkpt lat="54.604349" lon="-3.200158"><ele>198</ele><time>2019-10-02T10:10:42Z</time><name>PT1140</name></trkpt>
<trkpt lat="54.604342" lon="-3.200155"><ele>198</ele><time>2019-10-02T10:10:43Z</time><name>PT1141</name></trkpt>
<trkpt lat="54.604337" lon="-3.200151"><ele>198</ele><time>2019-10-02T10:10:44Z</time><name>PT1142</name></trkpt>
<trkpt lat="54.604336" lon="-3.200154"><ele>198</ele><time>2019-10-02T10:10:47Z</time><name>PT1143</name></trkpt>
<trkpt lat="54.604327" lon="-3.200166"><ele>199</ele><time>2019-10-02T10:10:48Z</time><name>PT1144</name></trkpt>
<trkpt lat="54.604319" lon="-3.200173"><ele>199</ele><time>2019-10-02T10:10:49Z</time><name>PT1145</name></trkpt>
<trkpt lat="54.604309" lon="-3.200176"><ele>199</ele><time>2019-10-02T10:10:50Z</time><name>PT1146</name></trkpt>
<trkpt lat="54.604301" lon="-3.200174"><ele>199</ele><time>2019-10-02T10:10:51Z</time><name>PT1147</name></trkpt>
<trkpt lat="54.604294" lon="-3.200175"><ele>199</ele><time>2019-10-02T10:10:52Z</time><name>PT1148</name></trkpt>
<trkpt lat="54.604288" lon="-3.200174"><ele>200</ele><time>2019-10-02T10:10:53Z</time><name>PT1149</name></trkpt>
<trkpt lat="54.604279" lon="-3.200174"><ele>200</ele><time>2019-10-02T10:10:54Z</time><name>PT1150</name></trkpt>
<trkpt lat="54.604272" lon="-3.200174"><ele>200</ele><time>2019-10-02T10:10:55Z</time><name>PT1151</name></trkpt>
<trkpt lat="54.604265" lon="-3.200176"><ele>200</ele><time>2019-10-02T10:10:56Z</time><name>PT1152</name></trkpt>
<trkpt lat="54.604263" lon="-3.200178"><ele>200</ele><time>2019-10-02T10:10:57Z</time><name>PT1153</name></trkpt>
<trkpt lat="54.604255" lon="-3.200182"><ele>200</ele><time>2019-10-02T10:10:58Z</time><name>PT1154</name></trkpt>
<trkpt lat="54.604247" lon="-3.200185"><ele>200</ele><time>2019-10-02T10:10:59Z</time><name>PT1155</name></trkpt>
<trkpt lat="54.604241" lon="-3.200187"><ele>200</ele><time>2019-10-02T10:11:00Z</time><name>PT1156</name></trkpt>
<trkpt lat="54.604232" lon="-3.200190"><ele>201</ele><time>2019-10-02T10:11:01Z</time><name>PT1157</name></trkpt>
<trkpt lat="54.604226" lon="-3.200198"><ele>201</ele><time>2019-10-02T10:11:02Z</time><name>PT1158</name></trkpt>
<trkpt lat="54.604217" lon="-3.200204"><ele>202</ele><time>2019-10-02T10:11:03Z</time><name>PT1159</name></trkpt>
<trkpt lat="54.604205" lon="-3.200208"><ele>202</ele><time>2019-10-02T10:11:04Z</time><name>PT1160</name></trkpt>
<trkpt lat="54.604199" lon="-3.200213"><ele>203</ele><time>2019-10-02T10:11:05Z</time><name>PT1161</name></trkpt>
<trkpt lat="54.604191" lon="-3.200216"><ele>203</ele><time>2019-10-02T10:11:06Z</time><name>PT1162</name></trkpt>
<trkpt lat="54.604185" lon="-3.200219"><ele>203</ele><time>2019-10-02T10:11:07Z</time><name>PT1163</name></trkpt>
<trkpt lat="54.604177" lon="-3.200222"><ele>204</ele><time>2019-10-02T10:11:08Z</time><name>PT1164</name></trkpt>
<trkpt lat="54.604170" lon="-3.200226"><ele>204</ele><time>2019-10-02T10:11:09Z</time><name>PT1165</name></trkpt>
<trkpt lat="54.604167" lon="-3.200235"><ele>205</ele><time>2019-10-02T10:11:10Z</time><name>PT1166</name></trkpt>
<trkpt lat="54.604162" lon="-3.200242"><ele>205</ele><time>2019-10-02T10:11:11Z</time><name>PT1167</name></trkpt>
<trkpt lat="54.604155" lon="-3.200246"><ele>205</ele><time>2019-10-02T10:11:12Z</time><name>PT1168</name></trkpt>
<trkpt lat="54.604150" lon="-3.200250"><ele>206</ele><time>2019-10-02T10:11:13Z</time><name>PT1169</name></trkpt>
<trkpt lat="54.604144" lon="-3.200259"><ele>206</ele><time>2019-10-02T10:11:14Z</time><name>PT1170</name></trkpt>
<trkpt lat="54.604138" lon="-3.200263"><ele>206</ele><time>2019-10-02T10:11:15Z</time><name>PT1171</name></trkpt>
<trkpt lat="54.604132" lon="-3.200263"><ele>207</ele><time>2019-10-02T10:11:16Z</time><name>PT1172</name></trkpt>
<trkpt lat="54.604127" lon="-3.200263"><ele>207</ele><time>2019-10-02T10:11:17Z</time><name>PT1173</name></trkpt>
<trkpt lat="54.604122" lon="-3.200261"><ele>207</ele><time>2019-10-02T10:11:18Z</time><name>PT1174</name></trkpt>
<trkpt lat="54.604117" lon="-3.200259"><ele>208</ele><time>2019-10-02T10:11:19Z</time><name>PT1175</name></trkpt>
<trkpt lat="54.604114" lon="-3.200262"><ele>207</ele><time>2019-10-02T10:11:20Z</time><name>PT1176</name></trkpt>
<trkpt lat="54.604110" lon="-3.200264"><ele>208</ele><time>2019-10-02T10:11:21Z</time><name>PT1177</name></trkpt>
<trkpt lat="54.604106" lon="-3.200267"><ele>208</ele><time>2019-10-02T10:11:22Z</time><name>PT1178</name></trkpt>
<trkpt lat="54.604102" lon="-3.200272"><ele>208</ele><time>2019-10-02T10:11:23Z</time><name>PT1179</name></trkpt>
<trkpt lat="54.604096" lon="-3.200278"><ele>208</ele><time>2019-10-02T10:11:24Z</time><name>PT1180</name></trkpt>
<trkpt lat="54.604090" lon="-3.200284"><ele>209</ele><time>2019-10-02T10:11:25Z</time><name>PT1181</name></trkpt>
<trkpt lat="54.604086" lon="-3.200289"><ele>209</ele><time>2019-10-02T10:11:26Z</time><name>PT1182</name></trkpt>
<trkpt lat="54.604080" lon="-3.200293"><ele>209</ele><time>2019-10-02T10:11:27Z</time><name>PT1183</name></trkpt>
<trkpt lat="54.604073" lon="-3.200295"><ele>209</ele><time>2019-10-02T10:11:28Z</time><name>PT1184</name></trkpt>
<trkpt lat="54.604065" lon="-3.200298"><ele>210</ele><time>2019-10-02T10:11:29Z</time><name>PT1185</name></trkpt>
<trkpt lat="54.604059" lon="-3.200303"><ele>210</ele><time>2019-10-02T10:11:30Z</time><name>PT1186</name></trkpt>
<trkpt lat="54.604058" lon="-3.200305"><ele>209</ele><time>2019-10-02T10:11:31Z</time><name>PT1187</name></trkpt>
<trkpt lat="54.604054" lon="-3.200307"><ele>209</ele><time>2019-10-02T10:11:32Z</time><name>PT1188</name></trkpt>
<trkpt lat="54.604049" lon="-3.200308"><ele>210</ele><time>2019-10-02T10:11:33Z</time><name>PT1189</name></trkpt>
<trkpt lat="54.604043" lon="-3.200307"><ele>211</ele><time>2019-10-02T10:11:34Z</time><name>PT1190</name></trkpt>
<trkpt lat="54.604036" lon="-3.200308"><ele>211</ele><time>2019-10-02T10:11:35Z</time><name>PT1191</name></trkpt>
<trkpt lat="54.604029" lon="-3.200313"><ele>211</ele><time>2019-10-02T10:11:36Z</time><name>PT1192</name></trkpt>
<trkpt lat="54.604026" lon="-3.200317"><ele>211</ele><time>2019-10-02T10:11:37Z</time><name>PT1193</name></trkpt>
<trkpt lat="54.604019" lon="-3.200323"><ele>212</ele><time>2019-10-02T10:11:38Z</time><name>PT1194</name></trkpt>
<trkpt lat="54.604013" lon="-3.200330"><ele>212</ele><time>2019-10-02T10:11:39Z</time><name>PT1195</name></trkpt>
<trkpt lat="54.604005" lon="-3.200334"><ele>212</ele><time>2019-10-02T10:11:40Z</time><name>PT1196</name></trkpt>
<trkpt lat="54.603997" lon="-3.200338"><ele>212</ele><time>2019-10-02T10:11:41Z</time><name>PT1197</name></trkpt>
<trkpt lat="54.603991" lon="-3.200337"><ele>212</ele><time>2019-10-02T10:11:42Z</time><name>PT1198</name></trkpt>
<trkpt lat="54.603984" lon="-3.200335"><ele>213</ele><time>2019-10-02T10:11:43Z</time><name>PT1199</name></trkpt>
<trkpt lat="54.603978" lon="-3.200332"><ele>213</ele><time>2019-10-02T10:11:44Z</time><name>PT1200</name></trkpt>
<trkpt lat="54.603973" lon="-3.200329"><ele>213</ele><time>2019-10-02T10:11:45Z</time><name>PT1201</name></trkpt>
<trkpt lat="54.603968" lon="-3.200327"><ele>213</ele><time>2019-10-02T10:11:46Z</time><name>PT1202</name></trkpt>
<trkpt lat="54.603962" lon="-3.200328"><ele>214</ele><time>2019-10-02T10:11:47Z</time><name>PT1203</name></trkpt>
<trkpt lat="54.603957" lon="-3.200331"><ele>213</ele><time>2019-10-02T10:11:50Z</time><name>PT1204</name></trkpt>
<trkpt lat="54.603951" lon="-3.200337"><ele>213</ele><time>2019-10-02T10:11:51Z</time><name>PT1205</name></trkpt>
<trkpt lat="54.603943" lon="-3.200340"><ele>213</ele><time>2019-10-02T10:11:52Z</time><name>PT1206</name></trkpt>
<trkpt lat="54.603933" lon="-3.200346"><ele>214</ele><time>2019-10-02T10:11:53Z</time><name>PT1207</name></trkpt>
<trkpt lat="54.603926" lon="-3.200349"><ele>214</ele><time>2019-10-02T10:11:54Z</time><name>PT1208</name></trkpt>
<trkpt lat="54.603920" lon="-3.200344"><ele>214</ele><time>2019-10-02T10:11:55Z</time><name>PT1209</name></trkpt>
<trkpt lat="54.603913" lon="-3.200337"><ele>214</ele><time>2019-10-02T10:11:56Z</time><name>PT1210</name></trkpt>
<trkpt lat="54.603907" lon="-3.200330"><ele>214</ele><time>2019-10-02T10:11:57Z</time><name>PT1211</name></trkpt>
<trkpt lat="54.603901" lon="-3.200320"><ele>214</ele><time>2019-10-02T10:11:58Z</time><name>PT1212</name></trkpt>
<trkpt lat="54.603894" lon="-3.200313"><ele>214</ele><time>2019-10-02T10:11:59Z</time><name>PT1213</name></trkpt>
<trkpt lat="54.603889" lon="-3.200309"><ele>214</ele><time>2019-10-02T10:12:00Z</time><name>PT1214</name></trkpt>
<trkpt lat="54.603886" lon="-3.200309"><ele>214</ele><time>2019-10-02T10:12:01Z</time><name>PT1215</name></trkpt>
<trkpt lat="54.603881" lon="-3.200310"><ele>214</ele><time>2019-10-02T10:12:02Z</time><name>PT1216</name></trkpt>
<trkpt lat="54.603873" lon="-3.200313"><ele>214</ele><time>2019-10-02T10:12:03Z</time><name>PT1217</name></trkpt>
<trkpt lat="54.603865" lon="-3.200321"><ele>214</ele><time>2019-10-02T10:12:04Z</time><name>PT1218</name></trkpt>
<trkpt lat="54.603859" lon="-3.200326"><ele>214</ele><time>2019-10-02T10:12:05Z</time><name>PT1219</name></trkpt>
<trkpt lat="54.603851" lon="-3.200328"><ele>214</ele><time>2019-10-02T10:12:06Z</time><name>PT1220</name></trkpt>
<trkpt lat="54.603842" lon="-3.200325"><ele>215</ele><time>2019-10-02T10:12:07Z</time><name>PT1221</name></trkpt>
<trkpt lat="54.603837" lon="-3.200323"><ele>215</ele><time>2019-10-02T10:12:08Z</time><name>PT1222</name></trkpt>
<trkpt lat="54.603831" lon="-3.200320"><ele>215</ele><time>2019-10-02T10:12:09Z</time><name>PT1223</name></trkpt>
<trkpt lat="54.603828" lon="-3.200318"><ele>215</ele><time>2019-10-02T10:12:10Z</time><name>PT1224</name></trkpt>
<trkpt lat="54.603823" lon="-3.200316"><ele>215</ele><time>2019-10-02T10:12:11Z</time><name>PT1225</name></trkpt>
<trkpt lat="54.603815" lon="-3.200315"><ele>215</ele><time>2019-10-02T10:12:12Z</time><name>PT1226</name></trkpt>
<trkpt lat="54.603811" lon="-3.200308"><ele>216</ele><time>2019-10-02T10:12:13Z</time><name>PT1227</name></trkpt>
<trkpt lat="54.603804" lon="-3.200307"><ele>217</ele><time>2019-10-02T10:12:14Z</time><name>PT1228</name></trkpt>
<trkpt lat="54.603803" lon="-3.200308"><ele>216</ele><time>2019-10-02T10:12:15Z</time><name>PT1229</name></trkpt>
<trkpt lat="54.603797" lon="-3.200307"><ele>216</ele><time>2019-10-02T10:12:16Z</time><name>PT1230</name></trkpt>
<trkpt lat="54.603792" lon="-3.200305"><ele>217</ele><time>2019-10-02T10:12:17Z</time><name>PT1231</name></trkpt>
<trkpt lat="54.603786" lon="-3.200304"><ele>217</ele><time>2019-10-02T10:12:18Z</time><name>PT1232</name></trkpt>
<trkpt lat="54.603781" lon="-3.200304"><ele>217</ele><time>2019-10-02T10:12:19Z</time><name>PT1233</name></trkpt>
<trkpt lat="54.603775" lon="-3.200307"><ele>218</ele><time>2019-10-02T10:12:20Z</time><name>PT1234</name></trkpt>
<trkpt lat="54.603768" lon="-3.200306"><ele>218</ele><time>2019-10-02T10:12:21Z</time><name>PT1235</name></trkpt>
<trkpt lat="54.603763" lon="-3.200305"><ele>218</ele><time>2019-10-02T10:12:22Z</time><name>PT1236</name></trkpt>
<trkpt lat="54.603756" lon="-3.200304"><ele>218</ele><time>2019-10-02T10:12:23Z</time><name>PT1237</name></trkpt>
<trkpt lat="54.603750" lon="-3.200303"><ele>219</ele><time>2019-10-02T10:12:24Z</time><name>PT1238</name></trkpt>
<trkpt lat="54.603745" lon="-3.200302"><ele>219</ele><time>2019-10-02T10:12:25Z</time><name>PT1239</name></trkpt>
<trkpt lat="54.603739" lon="-3.200302"><ele>219</ele><time>2019-10-02T10:12:26Z</time><name>PT1240</name></trkpt>
<trkpt lat="54.603735" lon="-3.200302"><ele>219</ele><time>2019-10-02T10:12:27Z</time><name>PT1241</name></trkpt>
<trkpt lat="54.603727" lon="-3.200297"><ele>220</ele><time>2019-10-02T10:12:28Z</time><name>PT1242</name></trkpt>
<trkpt lat="54.603721" lon="-3.200295"><ele>220</ele><time>2019-10-02T10:12:29Z</time><name>PT1243</name></trkpt>
<trkpt lat="54.603713" lon="-3.200293"><ele>220</ele><time>2019-10-02T10:12:30Z</time><name>PT1244</name></trkpt>
<trkpt lat="54.603707" lon="-3.200294"><ele>220</ele><time>2019-10-02T10:12:31Z</time><name>PT1245</name></trkpt>
<trkpt lat="54.603699" lon="-3.200295"><ele>221</ele><time>2019-10-02T10:12:32Z</time><name>PT1246</name></trkpt>
<trkpt lat="54.603692" lon="-3.200298"><ele>222</ele><time>2019-10-02T10:12:33Z</time><name>PT1247</name></trkpt>
<trkpt lat="54.603685" lon="-3.200302"><ele>222</ele><time>2019-10-02T10:12:34Z</time><name>PT1248</name></trkpt>
<trkpt lat="54.603680" lon="-3.200303"><ele>222</ele><time>2019-10-02T10:12:35Z</time><name>PT1249</name></trkpt>
<trkpt lat="54.603675" lon="-3.200303"><ele>222</ele><time>2019-10-02T10:12:36Z</time><name>PT1250</name></trkpt>
<trkpt lat="54.603671" lon="-3.200307"><ele>222</ele><time>2019-10-02T10:12:37Z</time><name>PT1251</name></trkpt>
<trkpt lat="54.603669" lon="-3.200307"><ele>222</ele><time>2019-10-02T10:12:38Z</time><name>PT1252</name></trkpt>
<trkpt lat="54.603662" lon="-3.200311"><ele>222</ele><time>2019-10-02T10:12:39Z</time><name>PT1253</name></trkpt>
<trkpt lat="54.603657" lon="-3.200313"><ele>223</ele><time>2019-10-02T10:12:40Z</time><name>PT1254</name></trkpt>
<trkpt lat="54.603645" lon="-3.200315"><ele>223</ele><time>2019-10-02T10:12:41Z</time><name>PT1255</name></trkpt>
<trkpt lat="54.603641" lon="-3.200318"><ele>223</ele><time>2019-10-02T10:12:42Z</time><name>PT1256</name></trkpt>
<trkpt lat="54.603636" lon="-3.200321"><ele>223</ele><time>2019-10-02T10:12:43Z</time><name>PT1257</name></trkpt>
<trkpt lat="54.603628" lon="-3.200323"><ele>223</ele><time>2019-10-02T10:12:44Z</time><name>PT1258</name></trkpt>
<trkpt lat="54.603623" lon="-3.200326"><ele>223</ele><time>2019-10-02T10:12:45Z</time><name>PT1259</name></trkpt>
<trkpt lat="54.603616" lon="-3.200324"><ele>223</ele><time>2019-10-02T10:12:46Z</time><name>PT1260</name></trkpt>
<trkpt lat="54.603605" lon="-3.200324"><ele>223</ele><time>2019-10-02T10:12:47Z</time><name>PT1261</name></trkpt>
<trkpt lat="54.603597" lon="-3.200324"><ele>223</ele><time>2019-10-02T10:12:48Z</time><name>PT1262</name></trkpt>
<trkpt lat="54.603591" lon="-3.200323"><ele>224</ele><time>2019-10-02T10:12:49Z</time><name>PT1263</name></trkpt>
<trkpt lat="54.603582" lon="-3.200321"><ele>224</ele><time>2019-10-02T10:12:50Z</time><name>PT1264</name></trkpt>
<trkpt lat="54.603576" lon="-3.200321"><ele>224</ele><time>2019-10-02T10:12:51Z</time><name>PT1265</name></trkpt>
<trkpt lat="54.603570" lon="-3.200318"><ele>224</ele><time>2019-10-02T10:12:52Z</time><name>PT1266</name></trkpt>
<trkpt lat="54.603565" lon="-3.200316"><ele>224</ele><time>2019-10-02T10:12:53Z</time><name>PT1267</name></trkpt>
<trkpt lat="54.603559" lon="-3.200311"><ele>224</ele><time>2019-10-02T10:12:54Z</time><name>PT1268</name></trkpt>
<trkpt lat="54.603555" lon="-3.200310"><ele>224</ele><time>2019-10-02T10:12:55Z</time><name>PT1269</name></trkpt>
<trkpt lat="54.603549" lon="-3.200306"><ele>224</ele><time>2019-10-02T10:12:56Z</time><name>PT1270</name></trkpt>
<trkpt lat="54.603543" lon="-3.200307"><ele>225</ele><time>2019-10-02T10:12:57Z</time><name>PT1271</name></trkpt>
<trkpt lat="54.603536" lon="-3.200305"><ele>225</ele><time>2019-10-02T10:12:58Z</time><name>PT1272</name></trkpt>
<trkpt lat="54.603529" lon="-3.200302"><ele>225</ele><time>2019-10-02T10:12:59Z</time><name>PT1273</name></trkpt>
<trkpt lat="54.603522" lon="-3.200296"><ele>225</ele><time>2019-10-02T10:13:00Z</time><name>PT1274</name></trkpt>
<trkpt lat="54.603514" lon="-3.200292"><ele>225</ele><time>2019-10-02T10:13:01Z</time><name>PT1275</name></trkpt>
<trkpt lat="54.603504" lon="-3.200288"><ele>226</ele><time>2019-10-02T10:13:02Z</time><name>PT1276</name></trkpt>
<trkpt lat="54.603496" lon="-3.200287"><ele>226</ele><time>2019-10-02T10:13:03Z</time><name>PT1277</name></trkpt>
<trkpt lat="54.603488" lon="-3.200284"><ele>227</ele><time>2019-10-02T10:13:04Z</time><name>PT1278</name></trkpt>
<trkpt lat="54.603482" lon="-3.200281"><ele>227</ele><time>2019-10-02T10:13:05Z</time><name>PT1279</name></trkpt>
<trkpt lat="54.603478" lon="-3.200285"><ele>227</ele><time>2019-10-02T10:13:06Z</time><name>PT1280</name></trkpt>
<trkpt lat="54.603473" lon="-3.200284"><ele>227</ele><time>2019-10-02T10:13:07Z</time><name>PT1281</name></trkpt>
<trkpt lat="54.603467" lon="-3.200281"><ele>228</ele><time>2019-10-02T10:13:08Z</time><name>PT1282</name></trkpt>
<trkpt lat="54.603460" lon="-3.200279"><ele>228</ele><time>2019-10-02T10:13:09Z</time><name>PT1283</name></trkpt>
<trkpt lat="54.603452" lon="-3.200281"><ele>228</ele><time>2019-10-02T10:13:10Z</time><name>PT1284</name></trkpt>
<trkpt lat="54.603443" lon="-3.200283"><ele>228</ele><time>2019-10-02T10:13:11Z</time><name>PT1285</name></trkpt>
<trkpt lat="54.603436" lon="-3.200281"><ele>228</ele><time>2019-10-02T10:13:12Z</time><name>PT1286</name></trkpt>
<trkpt lat="54.603429" lon="-3.200276"><ele>229</ele><time>2019-10-02T10:13:13Z</time><name>PT1287</name></trkpt>
<trkpt lat="54.603422" lon="-3.200274"><ele>229</ele><time>2019-10-02T10:13:14Z</time><name>PT1288</name></trkpt>
<trkpt lat="54.603413" lon="-3.200271"><ele>229</ele><time>2019-10-02T10:13:15Z</time><name>PT1289</name></trkpt>
<trkpt lat="54.603406" lon="-3.200269"><ele>229</ele><time>2019-10-02T10:13:16Z</time><name>PT1290</name></trkpt>
<trkpt lat="54.603399" lon="-3.200266"><ele>229</ele><time>2019-10-02T10:13:17Z</time><name>PT1291</name></trkpt>
<trkpt lat="54.603392" lon="-3.200264"><ele>229</ele><time>2019-10-02T10:13:18Z</time><name>PT1292</name></trkpt>
<trkpt lat="54.603383" lon="-3.200263"><ele>229</ele><time>2019-10-02T10:13:19Z</time><name>PT1293</name></trkpt>
<trkpt lat="54.603376" lon="-3.200260"><ele>229</ele><time>2019-10-02T10:13:20Z</time><name>PT1294</name></trkpt>
<trkpt lat="54.603366" lon="-3.200258"><ele>229</ele><time>2019-10-02T10:13:21Z</time><name>PT1295</name></trkpt>
<trkpt lat="54.603359" lon="-3.200255"><ele>229</ele><time>2019-10-02T10:13:22Z</time><name>PT1296</name></trkpt>
<trkpt lat="54.603350" lon="-3.200255"><ele>229</ele><time>2019-10-02T10:13:23Z</time><name>PT1297</name></trkpt>
<trkpt lat="54.603342" lon="-3.200254"><ele>229</ele><time>2019-10-02T10:13:24Z</time><name>PT1298</name></trkpt>
<trkpt lat="54.603334" lon="-3.200253"><ele>229</ele><time>2019-10-02T10:13:25Z</time><name>PT1299</name></trkpt>
<trkpt lat="54.603327" lon="-3.200250"><ele>229</ele><time>2019-10-02T10:13:26Z</time><name>PT1300</name></trkpt>
<trkpt lat="54.603317" lon="-3.200249"><ele>229</ele><time>2019-10-02T10:13:27Z</time><name>PT1301</name></trkpt>
<trkpt lat="54.603307" lon="-3.200246"><ele>230</ele><time>2019-10-02T10:13:28Z</time><name>PT1302</name></trkpt>
<trkpt lat="54.603299" lon="-3.200242"><ele>230</ele><time>2019-10-02T10:13:29Z</time><name>PT1303</name></trkpt>
<trkpt lat="54.603290" lon="-3.200237"><ele>230</ele><time>2019-10-02T10:13:30Z</time><name>PT1304</name></trkpt>
<trkpt lat="54.603279" lon="-3.200234"><ele>230</ele><time>2019-10-02T10:13:31Z</time><name>PT1305</name></trkpt>
<trkpt lat="54.603270" lon="-3.200229"><ele>230</ele><time>2019-10-02T10:13:32Z</time><name>PT1306</name></trkpt>
<trkpt lat="54.603260" lon="-3.200226"><ele>231</ele><time>2019-10-02T10:13:33Z</time><name>PT1307</name></trkpt>
<trkpt lat="54.603250" lon="-3.200224"><ele>231</ele><time>2019-10-02T10:13:34Z</time><name>PT1308</name></trkpt>
<trkpt lat="54.603240" lon="-3.200221"><ele>231</ele><time>2019-10-02T10:13:35Z</time><name>PT1309</name></trkpt>
<trkpt lat="54.603230" lon="-3.200218"><ele>231</ele><time>2019-10-02T10:13:36Z</time><name>PT1310</name></trkpt>
<trkpt lat="54.603221" lon="-3.200216"><ele>231</ele><time>2019-10-02T10:13:37Z</time><name>PT1311</name></trkpt>
<trkpt lat="54.603213" lon="-3.200215"><ele>231</ele><time>2019-10-02T10:13:38Z</time><name>PT1312</name></trkpt>
<trkpt lat="54.603206" lon="-3.200213"><ele>232</ele><time>2019-10-02T10:13:39Z</time><name>PT1313</name></trkpt>
<trkpt lat="54.603198" lon="-3.200210"><ele>232</ele><time>2019-10-02T10:13:40Z</time><name>PT1314</name></trkpt>
<trkpt lat="54.603185" lon="-3.200207"><ele>232</ele><time>2019-10-02T10:13:41Z</time><name>PT1315</name></trkpt>
<trkpt lat="54.603171" lon="-3.200211"><ele>232</ele><time>2019-10-02T10:13:42Z</time><name>PT1316</name></trkpt>
<trkpt lat="54.603161" lon="-3.200214"><ele>231</ele><time>2019-10-02T10:13:43Z</time><name>PT1317</name></trkpt>
<trkpt lat="54.603150" lon="-3.200213"><ele>232</ele><time>2019-10-02T10:13:44Z</time><name>PT1318</name></trkpt>
<trkpt lat="54.603138" lon="-3.200211"><ele>232</ele><time>2019-10-02T10:13:45Z</time><name>PT1319</name></trkpt>
<trkpt lat="54.603127" lon="-3.200211"><ele>232</ele><time>2019-10-02T10:13:46Z</time><name>PT1320</name></trkpt>
<trkpt lat="54.603117" lon="-3.200212"><ele>233</ele><time>2019-10-02T10:13:47Z</time><name>PT1321</name></trkpt>
<trkpt lat="54.603107" lon="-3.200214"><ele>232</ele><time>2019-10-02T10:13:48Z</time><name>PT1322</name></trkpt>
<trkpt lat="54.603098" lon="-3.200215"><ele>233</ele><time>2019-10-02T10:13:49Z</time><name>PT1323</name></trkpt>
<trkpt lat="54.603090" lon="-3.200214"><ele>232</ele><time>2019-10-02T10:13:50Z</time><name>PT1324</name></trkpt>
<trkpt lat="54.603081" lon="-3.200213"><ele>232</ele><time>2019-10-02T10:13:51Z</time><name>PT1325</name></trkpt>
<trkpt lat="54.603072" lon="-3.200214"><ele>232</ele><time>2019-10-02T10:13:52Z</time><name>PT1326</name></trkpt>
<trkpt lat="54.603064" lon="-3.200215"><ele>233</ele><time>2019-10-02T10:13:53Z</time><name>PT1327</name></trkpt>
<trkpt lat="54.603058" lon="-3.200215"><ele>233</ele><time>2019-10-02T10:13:54Z</time><name>PT1328</name></trkpt>
<trkpt lat="54.603051" lon="-3.200212"><ele>233</ele><time>2019-10-02T10:13:55Z</time><name>PT1329</name></trkpt>
<trkpt lat="54.603042" lon="-3.200211"><ele>233</ele><time>2019-10-02T10:13:56Z</time><name>PT1330</name></trkpt>
<trkpt lat="54.603031" lon="-3.200211"><ele>233</ele><time>2019-10-02T10:13:57Z</time><name>PT1331</name></trkpt>
<trkpt lat="54.603021" lon="-3.200210"><ele>234</ele><time>2019-10-02T10:13:58Z</time><name>PT1332</name></trkpt>
<trkpt lat="54.603012" lon="-3.200209"><ele>234</ele><time>2019-10-02T10:13:59Z</time><name>PT1333</name></trkpt>
<trkpt lat="54.603002" lon="-3.200207"><ele>234</ele><time>2019-10-02T10:14:00Z</time><name>PT1334</name></trkpt>
<trkpt lat="54.602995" lon="-3.200206"><ele>233</ele><time>2019-10-02T10:14:01Z</time><name>PT1335</name></trkpt>
<trkpt lat="54.602984" lon="-3.200207"><ele>233</ele><time>2019-10-02T10:14:02Z</time><name>PT1336</name></trkpt>
<trkpt lat="54.602975" lon="-3.200213"><ele>233</ele><time>2019-10-02T10:14:03Z</time><name>PT1337</name></trkpt>
<trkpt lat="54.602966" lon="-3.200214"><ele>233</ele><time>2019-10-02T10:14:04Z</time><name>PT1338</name></trkpt>
<trkpt lat="54.602957" lon="-3.200207"><ele>234</ele><time>2019-10-02T10:14:05Z</time><name>PT1339</name></trkpt>
<trkpt lat="54.602946" lon="-3.200207"><ele>234</ele><time>2019-10-02T10:14:06Z</time><name>PT1340</name></trkpt>
<trkpt lat="54.602933" lon="-3.200205"><ele>234</ele><time>2019-10-02T10:14:07Z</time><name>PT1341</name></trkpt>
<trkpt lat="54.602922" lon="-3.200202"><ele>235</ele><time>2019-10-02T10:14:08Z</time><name>PT1342</name></trkpt>
<trkpt lat="54.602912" lon="-3.200200"><ele>235</ele><time>2019-10-02T10:14:09Z</time><name>PT1343</name></trkpt>
<trkpt lat="54.602901" lon="-3.200194"><ele>236</ele><time>2019-10-02T10:14:10Z</time><name>PT1344</name></trkpt>
<trkpt lat="54.602888" lon="-3.200193"><ele>236</ele><time>2019-10-02T10:14:11Z</time><name>PT1345</name></trkpt>
<trkpt lat="54.602876" lon="-3.200194"><ele>237</ele><time>2019-10-02T10:14:12Z</time><name>PT1346</name></trkpt>
<trkpt lat="54.602868" lon="-3.200190"><ele>237</ele><time>2019-10-02T10:14:13Z</time><name>PT1347</name></trkpt>
<trkpt lat="54.602858" lon="-3.200189"><ele>237</ele><time>2019-10-02T10:14:14Z</time><name>PT1348</name></trkpt>
<trkpt lat="54.602846" lon="-3.200189"><ele>237</ele><time>2019-10-02T10:14:15Z</time><name>PT1349</name></trkpt>
<trkpt lat="54.602833" lon="-3.200189"><ele>237</ele><time>2019-10-02T10:14:16Z</time><name>PT1350</name></trkpt>
<trkpt lat="54.602823" lon="-3.200188"><ele>237</ele><time>2019-10-02T10:14:17Z</time><name>PT1351</name></trkpt>
<trkpt lat="54.602817" lon="-3.200184"><ele>237</ele><time>2019-10-02T10:14:18Z</time><name>PT1352</name></trkpt>
<trkpt lat="54.602812" lon="-3.200184"><ele>237</ele><time>2019-10-02T10:14:19Z</time><name>PT1353</name></trkpt>
<trkpt lat="54.602805" lon="-3.200188"><ele>237</ele><time>2019-10-02T10:14:20Z</time><name>PT1354</name></trkpt>
<trkpt lat="54.602797" lon="-3.200188"><ele>237</ele><time>2019-10-02T10:14:21Z</time><name>PT1355</name></trkpt>
<trkpt lat="54.602792" lon="-3.200188"><ele>236</ele><time>2019-10-02T10:14:22Z</time><name>PT1356</name></trkpt>
<trkpt lat="54.602788" lon="-3.200188"><ele>236</ele><time>2019-10-02T10:14:23Z</time><name>PT1357</name></trkpt>
<trkpt lat="54.602781" lon="-3.200186"><ele>237</ele><time>2019-10-02T10:14:24Z</time><name>PT1358</name></trkpt>
<trkpt lat="54.602773" lon="-3.200187"><ele>236</ele><time>2019-10-02T10:14:25Z</time><name>PT1359</name></trkpt>
<trkpt lat="54.602763" lon="-3.200186"><ele>236</ele><time>2019-10-02T10:14:26Z</time><name>PT1360</name></trkpt>
<trkpt lat="54.602751" lon="-3.200183"><ele>237</ele><time>2019-10-02T10:14:27Z</time><name>PT1361</name></trkpt>
<trkpt lat="54.602740" lon="-3.200182"><ele>236</ele><time>2019-10-02T10:14:28Z</time><name>PT1362</name></trkpt>
<trkpt lat="54.602730" lon="-3.200180"><ele>237</ele><time>2019-10-02T10:14:29Z</time><name>PT1363</name></trkpt>
<trkpt lat="54.602717" lon="-3.200179"><ele>237</ele><time>2019-10-02T10:14:30Z</time><name>PT1364</name></trkpt>
<trkpt lat="54.602704" lon="-3.200179"><ele>237</ele><time>2019-10-02T10:14:31Z</time><name>PT1365</name></trkpt>
<trkpt lat="54.602693" lon="-3.200184"><ele>237</ele><time>2019-10-02T10:14:32Z</time><name>PT1366</name></trkpt>
<trkpt lat="54.602680" lon="-3.200189"><ele>237</ele><time>2019-10-02T10:14:33Z</time><name>PT1367</name></trkpt>
<trkpt lat="54.602671" lon="-3.200193"><ele>237</ele><time>2019-10-02T10:14:34Z</time><name>PT1368</name></trkpt>
<trkpt lat="54.602658" lon="-3.200198"><ele>237</ele><time>2019-10-02T10:14:35Z</time><name>PT1369</name></trkpt>
<trkpt lat="54.602642" lon="-3.200202"><ele>237</ele><time>2019-10-02T10:14:36Z</time><name>PT1370</name></trkpt>
<trkpt lat="54.602629" lon="-3.200206"><ele>236</ele><time>2019-10-02T10:14:37Z</time><name>PT1371</name></trkpt>
<trkpt lat="54.602617" lon="-3.200206"><ele>236</ele><time>2019-10-02T10:14:38Z</time><name>PT1372</name></trkpt>
<trkpt lat="54.602604" lon="-3.200210"><ele>236</ele><time>2019-10-02T10:14:39Z</time><name>PT1373</name></trkpt>
<trkpt lat="54.602593" lon="-3.200216"><ele>236</ele><time>2019-10-02T10:14:40Z</time><name>PT1374</name></trkpt>
<trkpt lat="54.602582" lon="-3.200221"><ele>236</ele><time>2019-10-02T10:14:41Z</time><name>PT1375</name></trkpt>
<trkpt lat="54.602569" lon="-3.200221"><ele>236</ele><time>2019-10-02T10:14:42Z</time><name>PT1376</name></trkpt>
<trkpt lat="54.602555" lon="-3.200219"><ele>236</ele><time>2019-10-02T10:14:43Z</time><name>PT1377</name></trkpt>
<trkpt lat="54.602543" lon="-3.200218"><ele>236</ele><time>2019-10-02T10:14:44Z</time><name>PT1378</name></trkpt>
<trkpt lat="54.602533" lon="-3.200220"><ele>236</ele><time>2019-10-02T10:14:45Z</time><name>PT1379</name></trkpt>
<trkpt lat="54.602519" lon="-3.200222"><ele>236</ele><time>2019-10-02T10:14:46Z</time><name>PT1380</name></trkpt>
<trkpt lat="54.602506" lon="-3.200225"><ele>236</ele><time>2019-10-02T10:14:47Z</time><name>PT1381</name></trkpt>
<trkpt lat="54.602496" lon="-3.200230"><ele>236</ele><time>2019-10-02T10:14:48Z</time><name>PT1382</name></trkpt>
<trkpt lat="54.602488" lon="-3.200233"><ele>236</ele><time>2019-10-02T10:14:49Z</time><name>PT1383</name></trkpt>
<trkpt lat="54.602479" lon="-3.200235"><ele>236</ele><time>2019-10-02T10:14:50Z</time><name>PT1384</name></trkpt>
<trkpt lat="54.602468" lon="-3.200239"><ele>236</ele><time>2019-10-02T10:14:51Z</time><name>PT1385</name></trkpt>
<trkpt lat="54.602460" lon="-3.200242"><ele>236</ele><time>2019-10-02T10:14:52Z</time><name>PT1386</name></trkpt>
<trkpt lat="54.602451" lon="-3.200247"><ele>236</ele><time>2019-10-02T10:14:53Z</time><name>PT1387</name></trkpt>
<trkpt lat="54.602444" lon="-3.200250"><ele>237</ele><time>2019-10-02T10:14:54Z</time><name>PT1388</name></trkpt>
<trkpt lat="54.602435" lon="-3.200255"><ele>237</ele><time>2019-10-02T10:14:55Z</time><name>PT1389</name></trkpt>
<trkpt lat="54.602426" lon="-3.200258"><ele>238</ele><time>2019-10-02T10:14:56Z</time><name>PT1390</name></trkpt>
<trkpt lat="54.602416" lon="-3.200261"><ele>238</ele><time>2019-10-02T10:14:57Z</time><name>PT1391</name></trkpt>
<trkpt lat="54.602407" lon="-3.200266"><ele>239</ele><time>2019-10-02T10:14:58Z</time><name>PT1392</name></trkpt>
<trkpt lat="54.602398" lon="-3.200270"><ele>239</ele><time>2019-10-02T10:14:59Z</time><name>PT1393</name></trkpt>
<trkpt lat="54.602390" lon="-3.200274"><ele>239</ele><time>2019-10-02T10:15:00Z</time><name>PT1394</name></trkpt>
<trkpt lat="54.602378" lon="-3.200278"><ele>239</ele><time>2019-10-02T10:15:01Z</time><name>PT1395</name></trkpt>
<trkpt lat="54.602367" lon="-3.200282"><ele>240</ele><time>2019-10-02T10:15:02Z</time><name>PT1396</name></trkpt>
<trkpt lat="54.602355" lon="-3.200287"><ele>240</ele><time>2019-10-02T10:15:03Z</time><name>PT1397</name></trkpt>
<trkpt lat="54.602343" lon="-3.200297"><ele>241</ele><time>2019-10-02T10:15:04Z</time><name>PT1398</name></trkpt>
<trkpt lat="54.602329" lon="-3.200306"><ele>241</ele><time>2019-10-02T10:15:05Z</time><name>PT1399</name></trkpt>
<trkpt lat="54.602319" lon="-3.200313"><ele>241</ele><time>2019-10-02T10:15:06Z</time><name>PT1400</name></trkpt>
<trkpt lat="54.602311" lon="-3.200314"><ele>241</ele><time>2019-10-02T10:15:07Z</time><name>PT1401</name></trkpt>
<trkpt lat="54.602302" lon="-3.200315"><ele>241</ele><time>2019-10-02T10:15:08Z</time><name>PT1402</name></trkpt>
<trkpt lat="54.602291" lon="-3.200314"><ele>242</ele><time>2019-10-02T10:15:09Z</time><name>PT1403</name></trkpt>
<trkpt lat="54.602281" lon="-3.200318"><ele>242</ele><time>2019-10-02T10:15:10Z</time><name>PT1404</name></trkpt>
<trkpt lat="54.602274" lon="-3.200325"><ele>240</ele><time>2019-10-02T10:15:11Z</time><name>PT1405</name></trkpt>
<trkpt lat="54.602265" lon="-3.200328"><ele>241</ele><time>2019-10-02T10:15:12Z</time><name>PT1406</name></trkpt>
<trkpt lat="54.602258" lon="-3.200331"><ele>241</ele><time>2019-10-02T10:15:13Z</time><name>PT1407</name></trkpt>
<trkpt lat="54.602251" lon="-3.200334"><ele>241</ele><time>2019-10-02T10:15:14Z</time><name>PT1408</name></trkpt>
<trkpt lat="54.602240" lon="-3.200339"><ele>241</ele><time>2019-10-02T10:15:15Z</time><name>PT1409</name></trkpt>
<trkpt lat="54.602232" lon="-3.200346"><ele>241</ele><time>2019-10-02T10:15:16Z</time><name>PT1410</name></trkpt>
<trkpt lat="54.602224" lon="-3.200352"><ele>241</ele><time>2019-10-02T10:15:17Z</time><name>PT1411</name></trkpt>
<trkpt lat="54.602216" lon="-3.200357"><ele>241</ele><time>2019-10-02T10:15:18Z</time><name>PT1412</name></trkpt>
<trkpt lat="54.602206" lon="-3.200361"><ele>241</ele><time>2019-10-02T10:15:19Z</time><name>PT1413</name></trkpt>
<trkpt lat="54.602198" lon="-3.200367"><ele>241</ele><time>2019-10-02T10:15:20Z</time><name>PT1414</name></trkpt>
<trkpt lat="54.602188" lon="-3.200375"><ele>240</ele><time>2019-10-02T10:15:21Z</time><name>PT1415</name></trkpt>
<trkpt lat="54.602179" lon="-3.200384"><ele>240</ele><time>2019-10-02T10:15:22Z</time><name>PT1416</name></trkpt>
<trkpt lat="54.602171" lon="-3.200399"><ele>240</ele><time>2019-10-02T10:15:23Z</time><name>PT1417</name></trkpt>
<trkpt lat="54.602159" lon="-3.200410"><ele>240</ele><time>2019-10-02T10:15:24Z</time><name>PT1418</name></trkpt>
<trkpt lat="54.602146" lon="-3.200416"><ele>240</ele><time>2019-10-02T10:15:25Z</time><name>PT1419</name></trkpt>
<trkpt lat="54.602135" lon="-3.200423"><ele>241</ele><time>2019-10-02T10:15:26Z</time><name>PT1420</name></trkpt>
<trkpt lat="54.602124" lon="-3.200431"><ele>240</ele><time>2019-10-02T10:15:27Z</time><name>PT1421</name></trkpt>
<trkpt lat="54.602113" lon="-3.200437"><ele>241</ele><time>2019-10-02T10:15:28Z</time><name>PT1422</name></trkpt>
<trkpt lat="54.602103" lon="-3.200440"><ele>241</ele><time>2019-10-02T10:15:29Z</time><name>PT1423</name></trkpt>
<trkpt lat="54.602091" lon="-3.200442"><ele>242</ele><time>2019-10-02T10:15:30Z</time><name>PT1424</name></trkpt>
<trkpt lat="54.602081" lon="-3.200449"><ele>243</ele><time>2019-10-02T10:15:31Z</time><name>PT1425</name></trkpt>
<trkpt lat="54.602071" lon="-3.200456"><ele>243</ele><time>2019-10-02T10:15:32Z</time><name>PT1426</name></trkpt>
<trkpt lat="54.602062" lon="-3.200463"><ele>243</ele><time>2019-10-02T10:15:33Z</time><name>PT1427</name></trkpt>
<trkpt lat="54.602053" lon="-3.200467"><ele>243</ele><time>2019-10-02T10:15:34Z</time><name>PT1428</name></trkpt>
<trkpt lat="54.602043" lon="-3.200472"><ele>244</ele><time>2019-10-02T10:15:35Z</time><name>PT1429</name></trkpt>
<trkpt lat="54.602032" lon="-3.200478"><ele>244</ele><time>2019-10-02T10:15:36Z</time><name>PT1430</name></trkpt>
<trkpt lat="54.602025" lon="-3.200484"><ele>244</ele><time>2019-10-02T10:15:37Z</time><name>PT1431</name></trkpt>
<trkpt lat="54.602018" lon="-3.200493"><ele>244</ele><time>2019-10-02T10:15:38Z</time><name>PT1432</name></trkpt>
<trkpt lat="54.602012" lon="-3.200499"><ele>244</ele><time>2019-10-02T10:15:39Z</time><name>PT1433</name></trkpt>
<trkpt lat="54.602005" lon="-3.200505"><ele>244</ele><time>2019-10-02T10:15:40Z</time><name>PT1434</name></trkpt>
<trkpt lat="54.601995" lon="-3.200514"><ele>245</ele><time>2019-10-02T10:15:41Z</time><name>PT1435</name></trkpt>
<trkpt lat="54.601984" lon="-3.200524"><ele>246</ele><time>2019-10-02T10:15:42Z</time><name>PT1436</name></trkpt>
<trkpt lat="54.601978" lon="-3.200535"><ele>245</ele><time>2019-10-02T10:15:43Z</time><name>PT1437</name></trkpt>
<trkpt lat="54.601973" lon="-3.200544"><ele>245</ele><time>2019-10-02T10:15:44Z</time><name>PT1438</name></trkpt>
<trkpt lat="54.601965" lon="-3.200554"><ele>246</ele><time>2019-10-02T10:15:45Z</time><name>PT1439</name></trkpt>
<trkpt lat="54.601961" lon="-3.200564"><ele>246</ele><time>2019-10-02T10:15:46Z</time><name>PT1440</name></trkpt>
<trkpt lat="54.601956" lon="-3.200580"><ele>246</ele><time>2019-10-02T10:15:47Z</time><name>PT1441</name></trkpt>
<trkpt lat="54.601953" lon="-3.200594"><ele>247</ele><time>2019-10-02T10:15:48Z</time><name>PT1442</name></trkpt>
<trkpt lat="54.601948" lon="-3.200607"><ele>247</ele><time>2019-10-02T10:15:49Z</time><name>PT1443</name></trkpt>
<trkpt lat="54.601944" lon="-3.200622"><ele>247</ele><time>2019-10-02T10:15:50Z</time><name>PT1444</name></trkpt>
<trkpt lat="54.601937" lon="-3.200636"><ele>247</ele><time>2019-10-02T10:15:51Z</time><name>PT1445</name></trkpt>
<trkpt lat="54.601930" lon="-3.200652"><ele>248</ele><time>2019-10-02T10:15:52Z</time><name>PT1446</name></trkpt>
<trkpt lat="54.601928" lon="-3.200666"><ele>248</ele><time>2019-10-02T10:15:53Z</time><name>PT1447</name></trkpt>
<trkpt lat="54.601924" lon="-3.200683"><ele>248</ele><time>2019-10-02T10:15:54Z</time><name>PT1448</name></trkpt>
<trkpt lat="54.601917" lon="-3.200697"><ele>249</ele><time>2019-10-02T10:15:55Z</time><name>PT1449</name></trkpt>
<trkpt lat="54.601911" lon="-3.200710"><ele>249</ele><time>2019-10-02T10:15:56Z</time><name>PT1450</name></trkpt>
<trkpt lat="54.601902" lon="-3.200718"><ele>250</ele><time>2019-10-02T10:15:57Z</time><name>PT1451</name></trkpt>
<trkpt lat="54.601897" lon="-3.200720"><ele>250</ele><time>2019-10-02T10:15:58Z</time><name>PT1452</name></trkpt>
<trkpt lat="54.601891" lon="-3.200727"><ele>250</ele><time>2019-10-02T10:15:59Z</time><name>PT1453</name></trkpt>
<trkpt lat="54.601887" lon="-3.200729"><ele>250</ele><time>2019-10-02T10:16:00Z</time><name>PT1454</name></trkpt>
<trkpt lat="54.601885" lon="-3.200731"><ele>250</ele><time>2019-10-02T10:16:01Z</time><name>PT1455</name></trkpt>
<trkpt lat="54.601876" lon="-3.200733"><ele>250</ele><time>2019-10-02T10:16:02Z</time><name>PT1456</name></trkpt>
<trkpt lat="54.601870" lon="-3.200735"><ele>250</ele><time>2019-10-02T10:16:03Z</time><name>PT1457</name></trkpt>
<trkpt lat="54.601862" lon="-3.200738"><ele>250</ele><time>2019-10-02T10:16:04Z</time><name>PT1458</name></trkpt>
<trkpt lat="54.601857" lon="-3.200738"><ele>249</ele><time>2019-10-02T10:16:05Z</time><name>PT1459</name></trkpt>
<trkpt lat="54.601848" lon="-3.200739"><ele>249</ele><time>2019-10-02T10:16:06Z</time><name>PT1460</name></trkpt>
<trkpt lat="54.601838" lon="-3.200738"><ele>249</ele><time>2019-10-02T10:16:07Z</time><name>PT1461</name></trkpt>
<trkpt lat="54.601828" lon="-3.200738"><ele>249</ele><time>2019-10-02T10:16:08Z</time><name>PT1462</name></trkpt>
<trkpt lat="54.601819" lon="-3.200738"><ele>250</ele><time>2019-10-02T10:16:09Z</time><name>PT1463</name></trkpt>
<trkpt lat="54.601807" lon="-3.200740"><ele>250</ele><time>2019-10-02T10:16:10Z</time><name>PT1464</name></trkpt>
<trkpt lat="54.601798" lon="-3.200744"><ele>250</ele><time>2019-10-02T10:16:11Z</time><name>PT1465</name></trkpt>
<trkpt lat="54.601787" lon="-3.200750"><ele>251</ele><time>2019-10-02T10:16:12Z</time><name>PT1466</name></trkpt>
<trkpt lat="54.601780" lon="-3.200760"><ele>250</ele><time>2019-10-02T10:16:13Z</time><name>PT1467</name></trkpt>
<trkpt lat="54.601771" lon="-3.200767"><ele>250</ele><time>2019-10-02T10:16:14Z</time><name>PT1468</name></trkpt>
<trkpt lat="54.601762" lon="-3.200777"><ele>251</ele><time>2019-10-02T10:16:15Z</time><name>PT1469</name></trkpt>
<trkpt lat="54.601753" lon="-3.200788"><ele>251</ele><time>2019-10-02T10:16:16Z</time><name>PT1470</name></trkpt>
<trkpt lat="54.601743" lon="-3.200806"><ele>250</ele><time>2019-10-02T10:16:17Z</time><name>PT1471</name></trkpt>
<trkpt lat="54.601731" lon="-3.200822"><ele>250</ele><time>2019-10-02T10:16:18Z</time><name>PT1472</name></trkpt>
<trkpt lat="54.601723" lon="-3.200834"><ele>250</ele><time>2019-10-02T10:16:19Z</time><name>PT1473</name></trkpt>
<trkpt lat="54.601715" lon="-3.200846"><ele>250</ele><time>2019-10-02T10:16:20Z</time><name>PT1474</name></trkpt>
<trkpt lat="54.601705" lon="-3.200860"><ele>251</ele><time>2019-10-02T10:16:21Z</time><name>PT1475</name></trkpt>
<trkpt lat="54.601698" lon="-3.200870"><ele>251</ele><time>2019-10-02T10:16:22Z</time><name>PT1476</name></trkpt>
<trkpt lat="54.601690" lon="-3.200881"><ele>251</ele><time>2019-10-02T10:16:23Z</time><name>PT1477</name></trkpt>
<trkpt lat="54.601679" lon="-3.200894"><ele>251</ele><time>2019-10-02T10:16:24Z</time><name>PT1478</name></trkpt>
<trkpt lat="54.601668" lon="-3.200909"><ele>251</ele><time>2019-10-02T10:16:25Z</time><name>PT1479</name></trkpt>
<trkpt lat="54.601659" lon="-3.200923"><ele>251</ele><time>2019-10-02T10:16:26Z</time><name>PT1480</name></trkpt>
<trkpt lat="54.601654" lon="-3.200936"><ele>252</ele><time>2019-10-02T10:16:27Z</time><name>PT1481</name></trkpt>
<trkpt lat="54.601647" lon="-3.200945"><ele>251</ele><time>2019-10-02T10:16:28Z</time><name>PT1482</name></trkpt>
<trkpt lat="54.601639" lon="-3.200955"><ele>252</ele><time>2019-10-02T10:16:29Z</time><name>PT1483</name></trkpt>
<trkpt lat="54.601631" lon="-3.200964"><ele>252</ele><time>2019-10-02T10:16:30Z</time><name>PT1484</name></trkpt>
<trkpt lat="54.601624" lon="-3.200978"><ele>252</ele><time>2019-10-02T10:16:31Z</time><name>PT1485</name></trkpt>
<trkpt lat="54.601616" lon="-3.200989"><ele>251</ele><time>2019-10-02T10:16:32Z</time><name>PT1486</name></trkpt>
<trkpt lat="54.601609" lon="-3.200998"><ele>251</ele><time>2019-10-02T10:16:33Z</time><name>PT1487</name></trkpt>
<trkpt lat="54.601602" lon="-3.201008"><ele>251</ele><time>2019-10-02T10:16:34Z</time><name>PT1488</name></trkpt>
<trkpt lat="54.601593" lon="-3.201018"><ele>251</ele><time>2019-10-02T10:16:35Z</time><name>PT1489</name></trkpt>
<trkpt lat="54.601585" lon="-3.201032"><ele>251</ele><time>2019-10-02T10:16:36Z</time><name>PT1490</name></trkpt>
<trkpt lat="54.601581" lon="-3.201046"><ele>250</ele><time>2019-10-02T10:16:37Z</time><name>PT1491</name></trkpt>
<trkpt lat="54.601577" lon="-3.201057"><ele>250</ele><time>2019-10-02T10:16:38Z</time><name>PT1492</name></trkpt>
<trkpt lat="54.601573" lon="-3.201069"><ele>250</ele><time>2019-10-02T10:16:39Z</time><name>PT1493</name></trkpt>
<trkpt lat="54.601567" lon="-3.201085"><ele>250</ele><time>2019-10-02T10:16:40Z</time><name>PT1494</name></trkpt>
<trkpt lat="54.601564" lon="-3.201103"><ele>250</ele><time>2019-10-02T10:16:41Z</time><name>PT1495</name></trkpt>
<trkpt lat="54.601560" lon="-3.201113"><ele>250</ele><time>2019-10-02T10:16:42Z</time><name>PT1496</name></trkpt>
<trkpt lat="54.601554" lon="-3.201122"><ele>250</ele><time>2019-10-02T10:16:43Z</time><name>PT1497</name></trkpt>
<trkpt lat="54.601551" lon="-3.201133"><ele>250</ele><time>2019-10-02T10:16:44Z</time><name>PT1498</name></trkpt>
<trkpt lat="54.601543" lon="-3.201144"><ele>250</ele><time>2019-10-02T10:16:45Z</time><name>PT1499</name></trkpt>
<trkpt lat="54.601535" lon="-3.201157"><ele>250</ele><time>2019-10-02T10:16:46Z</time><name>PT1500</name></trkpt>
<trkpt lat="54.601528" lon="-3.201173"><ele>251</ele><time>2019-10-02T10:16:47Z</time><name>PT1501</name></trkpt>
<trkpt lat="54.601520" lon="-3.201189"><ele>252</ele><time>2019-10-02T10:16:48Z</time><name>PT1502</name></trkpt>
<trkpt lat="54.601514" lon="-3.201200"><ele>252</ele><time>2019-10-02T10:16:49Z</time><name>PT1503</name></trkpt>
<trkpt lat="54.601507" lon="-3.201216"><ele>252</ele><time>2019-10-02T10:16:50Z</time><name>PT1504</name></trkpt>
<trkpt lat="54.601502" lon="-3.201227"><ele>252</ele><time>2019-10-02T10:16:51Z</time><name>PT1505</name></trkpt>
<trkpt lat="54.601497" lon="-3.201242"><ele>252</ele><time>2019-10-02T10:16:52Z</time><name>PT1506</name></trkpt>
<trkpt lat="54.601494" lon="-3.201255"><ele>251</ele><time>2019-10-02T10:16:53Z</time><name>PT1507</name></trkpt>
<trkpt lat="54.601487" lon="-3.201268"><ele>251</ele><time>2019-10-02T10:16:54Z</time><name>PT1508</name></trkpt>
<trkpt lat="54.601477" lon="-3.201281"><ele>252</ele><time>2019-10-02T10:16:55Z</time><name>PT1509</name></trkpt>
<trkpt lat="54.601472" lon="-3.201294"><ele>252</ele><time>2019-10-02T10:16:56Z</time><name>PT1510</name></trkpt>
<trkpt lat="54.601466" lon="-3.201310"><ele>252</ele><time>2019-10-02T10:16:57Z</time><name>PT1511</name></trkpt>
<trkpt lat="54.601460" lon="-3.201323"><ele>252</ele><time>2019-10-02T10:16:58Z</time><name>PT1512</name></trkpt>
<trkpt lat="54.601454" lon="-3.201336"><ele>252</ele><time>2019-10-02T10:16:59Z</time><name>PT1513</name></trkpt>
<trkpt lat="54.601446" lon="-3.201348"><ele>253</ele><time>2019-10-02T10:17:00Z</time><name>PT1514</name></trkpt>
<trkpt lat="54.601440" lon="-3.201357"><ele>253</ele><time>2019-10-02T10:17:01Z</time><name>PT1515</name></trkpt>
<trkpt lat="54.601435" lon="-3.201373"><ele>252</ele><time>2019-10-02T10:17:02Z</time><name>PT1516</name></trkpt>
<trkpt lat="54.601426" lon="-3.201390"><ele>253</ele><time>2019-10-02T10:17:03Z</time><name>PT1517</name></trkpt>
<trkpt lat="54.601421" lon="-3.201399"><ele>253</ele><time>2019-10-02T10:17:04Z</time><name>PT1518</name></trkpt>
<trkpt lat="54.601415" lon="-3.201408"><ele>253</ele><time>2019-10-02T10:17:05Z</time><name>PT1519</name></trkpt>
<trkpt lat="54.601407" lon="-3.201419"><ele>253</ele><time>2019-10-02T10:17:06Z</time><name>PT1520</name></trkpt>
<trkpt lat="54.601402" lon="-3.201433"><ele>252</ele><time>2019-10-02T10:17:07Z</time><name>PT1521</name></trkpt>
<trkpt lat="54.601400" lon="-3.201448"><ele>252</ele><time>2019-10-02T10:17:08Z</time><name>PT1522</name></trkpt>
<trkpt lat="54.601397" lon="-3.201464"><ele>253</ele><time>2019-10-02T10:17:09Z</time><name>PT1523</name></trkpt>
<trkpt lat="54.601393" lon="-3.201479"><ele>253</ele><time>2019-10-02T10:17:10Z</time><name>PT1524</name></trkpt>
<trkpt lat="54.601387" lon="-3.201494"><ele>253</ele><time>2019-10-02T10:17:11Z</time><name>PT1525</name></trkpt>
<trkpt lat="54.601384" lon="-3.201507"><ele>253</ele><time>2019-10-02T10:17:12Z</time><name>PT1526</name></trkpt>
<trkpt lat="54.601379" lon="-3.201521"><ele>253</ele><time>2019-10-02T10:17:13Z</time><name>PT1527</name></trkpt>
<trkpt lat="54.601376" lon="-3.201532"><ele>253</ele><time>2019-10-02T10:17:14Z</time><name>PT1528</name></trkpt>
<trkpt lat="54.601371" lon="-3.201549"><ele>253</ele><time>2019-10-02T10:17:15Z</time><name>PT1529</name></trkpt>
<trkpt lat="54.601366" lon="-3.201564"><ele>254</ele><time>2019-10-02T10:17:16Z</time><name>PT1530</name></trkpt>
<trkpt lat="54.601360" lon="-3.201578"><ele>254</ele><time>2019-10-02T10:17:17Z</time><name>PT1531</name></trkpt>
<trkpt lat="54.601356" lon="-3.201591"><ele>254</ele><time>2019-10-02T10:17:18Z</time><name>PT1532</name></trkpt>
<trkpt lat="54.601351" lon="-3.201605"><ele>255</ele><time>2019-10-02T10:17:19Z</time><name>PT1533</name></trkpt>
<trkpt lat="54.601346" lon="-3.201621"><ele>255</ele><time>2019-10-02T10:17:20Z</time><name>PT1534</name></trkpt>
<trkpt lat="54.601343" lon="-3.201635"><ele>255</ele><time>2019-10-02T10:17:21Z</time><name>PT1535</name></trkpt>
<trkpt lat="54.601338" lon="-3.201652"><ele>256</ele><time>2019-10-02T10:17:22Z</time><name>PT1536</name></trkpt>
<trkpt lat="54.601333" lon="-3.201666"><ele>256</ele><time>2019-10-02T10:17:23Z</time><name>PT1537</name></trkpt>
<trkpt lat="54.601330" lon="-3.201684"><ele>256</ele><time>2019-10-02T10:17:24Z</time><name>PT1538</name></trkpt>
<trkpt lat="54.601326" lon="-3.201701"><ele>256</ele><time>2019-10-02T10:17:25Z</time><name>PT1539</name></trkpt>
<trkpt lat="54.601323" lon="-3.201719"><ele>256</ele><time>2019-10-02T10:17:26Z</time><name>PT1540</name></trkpt>
<trkpt lat="54.601316" lon="-3.201733"><ele>256</ele><time>2019-10-02T10:17:27Z</time><name>PT1541</name></trkpt>
<trkpt lat="54.601310" lon="-3.201743"><ele>257</ele><time>2019-10-02T10:17:28Z</time><name>PT1542</name></trkpt>
<trkpt lat="54.601305" lon="-3.201754"><ele>256</ele><time>2019-10-02T10:17:29Z</time><name>PT1543</name></trkpt>
<trkpt lat="54.601298" lon="-3.201764"><ele>257</ele><time>2019-10-02T10:17:30Z</time><name>PT1544</name></trkpt>
<trkpt lat="54.601292" lon="-3.201774"><ele>257</ele><time>2019-10-02T10:17:31Z</time><name>PT1545</name></trkpt>
<trkpt lat="54.601287" lon="-3.201789"><ele>257</ele><time>2019-10-02T10:17:32Z</time><name>PT1546</name></trkpt>
<trkpt lat="54.601284" lon="-3.201798"><ele>257</ele><time>2019-10-02T10:17:33Z</time><name>PT1547</name></trkpt>
<trkpt lat="54.601279" lon="-3.201807"><ele>257</ele><time>2019-10-02T10:17:34Z</time><name>PT1548</name></trkpt>
<trkpt lat="54.601275" lon="-3.201819"><ele>257</ele><time>2019-10-02T10:17:35Z</time><name>PT1549</name></trkpt>
<trkpt lat="54.601270" lon="-3.201834"><ele>258</ele><time>2019-10-02T10:17:36Z</time><name>PT1550</name></trkpt>
<trkpt lat="54.601264" lon="-3.201847"><ele>258</ele><time>2019-10-02T10:17:37Z</time><name>PT1551</name></trkpt>
<trkpt lat="54.601258" lon="-3.201859"><ele>258</ele><time>2019-10-02T10:17:38Z</time><name>PT1552</name></trkpt>
<trkpt lat="54.601251" lon="-3.201872"><ele>259</ele><time>2019-10-02T10:17:39Z</time><name>PT1553</name></trkpt>
<trkpt lat="54.601245" lon="-3.201886"><ele>259</ele><time>2019-10-02T10:17:40Z</time><name>PT1554</name></trkpt>
<trkpt lat="54.601241" lon="-3.201903"><ele>259</ele><time>2019-10-02T10:17:41Z</time><name>PT1555</name></trkpt>
<trkpt lat="54.601237" lon="-3.201921"><ele>259</ele><time>2019-10-02T10:17:42Z</time><name>PT1556</name></trkpt>
<trkpt lat="54.601234" lon="-3.201936"><ele>260</ele><time>2019-10-02T10:17:43Z</time><name>PT1557</name></trkpt>
<trkpt lat="54.601231" lon="-3.201946"><ele>260</ele><time>2019-10-02T10:17:44Z</time><name>PT1558</name></trkpt>
<trkpt lat="54.601227" lon="-3.201957"><ele>260</ele><time>2019-10-02T10:17:45Z</time><name>PT1559</name></trkpt>
<trkpt lat="54.601223" lon="-3.201970"><ele>261</ele><time>2019-10-02T10:17:46Z</time><name>PT1560</name></trkpt>
<trkpt lat="54.601219" lon="-3.201985"><ele>261</ele><time>2019-10-02T10:17:47Z</time><name>PT1561</name></trkpt>
<trkpt lat="54.601216" lon="-3.201998"><ele>261</ele><time>2019-10-02T10:17:48Z</time><name>PT1562</name></trkpt>
<trkpt lat="54.601215" lon="-3.202007"><ele>261</ele><time>2019-10-02T10:17:49Z</time><name>PT1563</name></trkpt>
<trkpt lat="54.601214" lon="-3.202023"><ele>262</ele><time>2019-10-02T10:17:50Z</time><name>PT1564</name></trkpt>
<trkpt lat="54.601212" lon="-3.202040"><ele>262</ele><time>2019-10-02T10:17:51Z</time><name>PT1565</name></trkpt>
<trkpt lat="54.601211" lon="-3.202056"><ele>262</ele><time>2019-10-02T10:17:52Z</time><name>PT1566</name></trkpt>
<trkpt lat="54.601210" lon="-3.202070"><ele>263</ele><time>2019-10-02T10:17:53Z</time><name>PT1567</name></trkpt>
<trkpt lat="54.601206" lon="-3.202080"><ele>263</ele><time>2019-10-02T10:17:54Z</time><name>PT1568</name></trkpt>
<trkpt lat="54.601203" lon="-3.202091"><ele>263</ele><time>2019-10-02T10:17:55Z</time><name>PT1569</name></trkpt>
<trkpt lat="54.601202" lon="-3.202102"><ele>263</ele><time>2019-10-02T10:17:56Z</time><name>PT1570</name></trkpt>
<trkpt lat="54.601202" lon="-3.202119"><ele>264</ele><time>2019-10-02T10:17:57Z</time><name>PT1571</name></trkpt>
<trkpt lat="54.601201" lon="-3.202133"><ele>264</ele><time>2019-10-02T10:17:58Z</time><name>PT1572</name></trkpt>
<trkpt lat="54.601197" lon="-3.202147"><ele>264</ele><time>2019-10-02T10:17:59Z</time><name>PT1573</name></trkpt>
<trkpt lat="54.601193" lon="-3.202161"><ele>264</ele><time>2019-10-02T10:18:00Z</time><name>PT1574</name></trkpt>
<trkpt lat="54.601192" lon="-3.202175"><ele>264</ele><time>2019-10-02T10:18:01Z</time><name>PT1575</name></trkpt>
<trkpt lat="54.601190" lon="-3.202186"><ele>265</ele><time>2019-10-02T10:18:02Z</time><name>PT1576</name></trkpt>
<trkpt lat="54.601188" lon="-3.202199"><ele>265</ele><time>2019-10-02T10:18:03Z</time><name>PT1577</name></trkpt>
<trkpt lat="54.601188" lon="-3.202212"><ele>265</ele><time>2019-10-02T10:18:04Z</time><name>PT1578</name></trkpt>
<trkpt lat="54.601190" lon="-3.202225"><ele>265</ele><time>2019-10-02T10:18:05Z</time><name>PT1579</name></trkpt>
<trkpt lat="54.601192" lon="-3.202237"><ele>265</ele><time>2019-10-02T10:18:06Z</time><name>PT1580</name></trkpt>
<trkpt lat="54.601194" lon="-3.202252"><ele>265</ele><time>2019-10-02T10:18:07Z</time><name>PT1581</name></trkpt>
<trkpt lat="54.601192" lon="-3.202267"><ele>266</ele><time>2019-10-02T10:18:08Z</time><name>PT1582</name></trkpt>
<trkpt lat="54.601188" lon="-3.202280"><ele>266</ele><time>2019-10-02T10:18:09Z</time><name>PT1583</name></trkpt>
<trkpt lat="54.601185" lon="-3.202291"><ele>267</ele><time>2019-10-02T10:18:10Z</time><name>PT1584</name></trkpt>
<trkpt lat="54.601181" lon="-3.202302"><ele>267</ele><time>2019-10-02T10:18:11Z</time><name>PT1585</name></trkpt>
<trkpt lat="54.601177" lon="-3.202313"><ele>267</ele><time>2019-10-02T10:18:12Z</time><name>PT1586</name></trkpt>
<trkpt lat="54.601174" lon="-3.202326"><ele>267</ele><time>2019-10-02T10:18:13Z</time><name>PT1587</name></trkpt>
<trkpt lat="54.601173" lon="-3.202340"><ele>267</ele><time>2019-10-02T10:18:14Z</time><name>PT1588</name></trkpt>
<trkpt lat="54.601172" lon="-3.202351"><ele>267</ele><time>2019-10-02T10:18:15Z</time><name>PT1589</name></trkpt>
<trkpt lat="54.601169" lon="-3.202363"><ele>267</ele><time>2019-10-02T10:18:16Z</time><name>PT1590</name></trkpt>
<trkpt lat="54.601164" lon="-3.202378"><ele>267</ele><time>2019-10-02T10:18:17Z</time><name>PT1591</name></trkpt>
<trkpt lat="54.601158" lon="-3.202391"><ele>267</ele><time>2019-10-02T10:18:18Z</time><name>PT1592</name></trkpt>
<trkpt lat="54.601154" lon="-3.202406"><ele>267</ele><time>2019-10-02T10:18:19Z</time><name>PT1593</name></trkpt>
<trkpt lat="54.601148" lon="-3.202417"><ele>268</ele><time>2019-10-02T10:18:20Z</time><name>PT1594</name></trkpt>
<trkpt lat="54.601143" lon="-3.202425"><ele>268</ele><time>2019-10-02T10:18:21Z</time><name>PT1595</name></trkpt>
<trkpt lat="54.601139" lon="-3.202440"><ele>269</ele><time>2019-10-02T10:18:22Z</time><name>PT1596</name></trkpt>
<trkpt lat="54.601135" lon="-3.202457"><ele>269</ele><time>2019-10-02T10:18:23Z</time><name>PT1597</name></trkpt>
<trkpt lat="54.601130" lon="-3.202476"><ele>269</ele><time>2019-10-02T10:18:24Z</time><name>PT1598</name></trkpt>
<trkpt lat="54.601128" lon="-3.202490"><ele>270</ele><time>2019-10-02T10:18:25Z</time><name>PT1599</name></trkpt>
<trkpt lat="54.601124" lon="-3.202504"><ele>269</ele><time>2019-10-02T10:18:26Z</time><name>PT1600</name></trkpt>
<trkpt lat="54.601121" lon="-3.202519"><ele>269</ele><time>2019-10-02T10:18:27Z</time><name>PT1601</name></trkpt>
<trkpt lat="54.601119" lon="-3.202532"><ele>269</ele><time>2019-10-02T10:18:28Z</time><name>PT1602</name></trkpt>
<trkpt lat="54.601119" lon="-3.202538"><ele>268</ele><time>2019-10-02T10:18:29Z</time><name>PT1603</name></trkpt>
<trkpt lat="54.601118" lon="-3.202546"><ele>268</ele><time>2019-10-02T10:18:30Z</time><name>PT1604</name></trkpt>
<trkpt lat="54.601116" lon="-3.202562"><ele>268</ele><time>2019-10-02T10:18:31Z</time><name>PT1605</name></trkpt>
<trkpt lat="54.601113" lon="-3.202576"><ele>269</ele><time>2019-10-02T10:18:32Z</time><name>PT1606</name></trkpt>
<trkpt lat="54.601112" lon="-3.202589"><ele>268</ele><time>2019-10-02T10:18:33Z</time><name>PT1607</name></trkpt>
<trkpt lat="54.601111" lon="-3.202597"><ele>268</ele><time>2019-10-02T10:18:34Z</time><name>PT1608</name></trkpt>
<trkpt lat="54.601110" lon="-3.202608"><ele>269</ele><time>2019-10-02T10:18:35Z</time><name>PT1609</name></trkpt>
<trkpt lat="54.601108" lon="-3.202620"><ele>269</ele><time>2019-10-02T10:18:36Z</time><name>PT1610</name></trkpt>
<trkpt lat="54.601107" lon="-3.202634"><ele>269</ele><time>2019-10-02T10:18:37Z</time><name>PT1611</name></trkpt>
<trkpt lat="54.601106" lon="-3.202642"><ele>269</ele><time>2019-10-02T10:18:38Z</time><name>PT1612</name></trkpt>
<trkpt lat="54.601105" lon="-3.202653"><ele>270</ele><time>2019-10-02T10:18:39Z</time><name>PT1613</name></trkpt>
<trkpt lat="54.601102" lon="-3.202665"><ele>270</ele><time>2019-10-02T10:18:40Z</time><name>PT1614</name></trkpt>
<trkpt lat="54.601098" lon="-3.202678"><ele>270</ele><time>2019-10-02T10:18:41Z</time><name>PT1615</name></trkpt>
<trkpt lat="54.601094" lon="-3.202692"><ele>270</ele><time>2019-10-02T10:18:42Z</time><name>PT1616</name></trkpt>
<trkpt lat="54.601092" lon="-3.202701"><ele>270</ele><time>2019-10-02T10:18:43Z</time><name>PT1617</name></trkpt>
<trkpt lat="54.601089" lon="-3.202713"><ele>270</ele><time>2019-10-02T10:18:44Z</time><name>PT1618</name></trkpt>
<trkpt lat="54.601088" lon="-3.202727"><ele>271</ele><time>2019-10-02T10:18:45Z</time><name>PT1619</name></trkpt>
<trkpt lat="54.601085" lon="-3.202740"><ele>272</ele><time>2019-10-02T10:18:46Z</time><name>PT1620</name></trkpt>
<trkpt lat="54.601082" lon="-3.202750"><ele>272</ele><time>2019-10-02T10:18:47Z</time><name>PT1621</name></trkpt>
<trkpt lat="54.601080" lon="-3.202764"><ele>272</ele><time>2019-10-02T10:18:48Z</time><name>PT1622</name></trkpt>
<trkpt lat="54.601079" lon="-3.202778"><ele>272</ele><time>2019-10-02T10:18:49Z</time><name>PT1623</name></trkpt>
<trkpt lat="54.601080" lon="-3.202791"><ele>272</ele><time>2019-10-02T10:18:50Z</time><name>PT1624</name></trkpt>
<trkpt lat="54.601079" lon="-3.202805"><ele>272</ele><time>2019-10-02T10:18:51Z</time><name>PT1625</name></trkpt>
<trkpt lat="54.601078" lon="-3.202819"><ele>272</ele><time>2019-10-02T10:18:52Z</time><name>PT1626</name></trkpt>
<trkpt lat="54.601076" lon="-3.202834"><ele>272</ele><time>2019-10-02T10:18:53Z</time><name>PT1627</name></trkpt>
<trkpt lat="54.601074" lon="-3.202843"><ele>272</ele><time>2019-10-02T10:18:54Z</time><name>PT1628</name></trkpt>
<trkpt lat="54.601074" lon="-3.202854"><ele>272</ele><time>2019-10-02T10:18:55Z</time><name>PT1629</name></trkpt>
<trkpt lat="54.601073" lon="-3.202866"><ele>272</ele><time>2019-10-02T10:18:56Z</time><name>PT1630</name></trkpt>
<trkpt lat="54.601073" lon="-3.202875"><ele>272</ele><time>2019-10-02T10:18:57Z</time><name>PT1631</name></trkpt>
<trkpt lat="54.601072" lon="-3.202884"><ele>272</ele><time>2019-10-02T10:18:58Z</time><name>PT1632</name></trkpt>
<trkpt lat="54.601066" lon="-3.202889"><ele>272</ele><time>2019-10-02T10:18:59Z</time><name>PT1633</name></trkpt>
<trkpt lat="54.601064" lon="-3.202898"><ele>272</ele><time>2019-10-02T10:19:00Z</time><name>PT1634</name></trkpt>
<trkpt lat="54.601065" lon="-3.202912"><ele>272</ele><time>2019-10-02T10:19:01Z</time><name>PT1635</name></trkpt>
<trkpt lat="54.601064" lon="-3.202923"><ele>272</ele><time>2019-10-02T10:19:02Z</time><name>PT1636</name></trkpt>
<trkpt lat="54.601065" lon="-3.202928"><ele>272</ele><time>2019-10-02T10:19:03Z</time><name>PT1637</name></trkpt>
<trkpt lat="54.601069" lon="-3.202939"><ele>273</ele><time>2019-10-02T10:19:04Z</time><name>PT1638</name></trkpt>
<trkpt lat="54.601071" lon="-3.202948"><ele>273</ele><time>2019-10-02T10:19:05Z</time><name>PT1639</name></trkpt>
<trkpt lat="54.601070" lon="-3.202954"><ele>273</ele><time>2019-10-02T10:19:06Z</time><name>PT1640</name></trkpt>
<trkpt lat="54.601071" lon="-3.202966"><ele>273</ele><time>2019-10-02T10:19:07Z</time><name>PT1641</name></trkpt>
<trkpt lat="54.601073" lon="-3.202977"><ele>274</ele><time>2019-10-02T10:19:08Z</time><name>PT1642</name></trkpt>
<trkpt lat="54.601071" lon="-3.202988"><ele>274</ele><time>2019-10-02T10:19:09Z</time><name>PT1643</name></trkpt>
<trkpt lat="54.601071" lon="-3.202993"><ele>275</ele><time>2019-10-02T10:19:10Z</time><name>PT1644</name></trkpt>
<trkpt lat="54.601073" lon="-3.203001"><ele>274</ele><time>2019-10-02T10:19:11Z</time><name>PT1645</name></trkpt>
<trkpt lat="54.601074" lon="-3.203012"><ele>274</ele><time>2019-10-02T10:19:12Z</time><name>PT1646</name></trkpt>
<trkpt lat="54.601073" lon="-3.203023"><ele>274</ele><time>2019-10-02T10:19:13Z</time><name>PT1647</name></trkpt>
<trkpt lat="54.601072" lon="-3.203034"><ele>275</ele><time>2019-10-02T10:19:14Z</time><name>PT1648</name></trkpt>
<trkpt lat="54.601074" lon="-3.203046"><ele>275</ele><time>2019-10-02T10:19:15Z</time><name>PT1649</name></trkpt>
<trkpt lat="54.601073" lon="-3.203055"><ele>275</ele><time>2019-10-02T10:19:16Z</time><name>PT1650</name></trkpt>
<trkpt lat="54.601073" lon="-3.203063"><ele>275</ele><time>2019-10-02T10:19:17Z</time><name>PT1651</name></trkpt>
<trkpt lat="54.601074" lon="-3.203072"><ele>275</ele><time>2019-10-02T10:19:18Z</time><name>PT1652</name></trkpt>
<trkpt lat="54.601076" lon="-3.203084"><ele>275</ele><time>2019-10-02T10:19:19Z</time><name>PT1653</name></trkpt>
<trkpt lat="54.601076" lon="-3.203100"><ele>276</ele><time>2019-10-02T10:19:20Z</time><name>PT1654</name></trkpt>
<trkpt lat="54.601075" lon="-3.203111"><ele>276</ele><time>2019-10-02T10:19:21Z</time><name>PT1655</name></trkpt>
<trkpt lat="54.601075" lon="-3.203122"><ele>276</ele><time>2019-10-02T10:19:22Z</time><name>PT1656</name></trkpt>
<trkpt lat="54.601072" lon="-3.203128"><ele>277</ele><time>2019-10-02T10:19:23Z</time><name>PT1657</name></trkpt>
<trkpt lat="54.601075" lon="-3.203138"><ele>277</ele><time>2019-10-02T10:19:24Z</time><name>PT1658</name></trkpt>
<trkpt lat="54.601074" lon="-3.203146"><ele>277</ele><time>2019-10-02T10:19:25Z</time><name>PT1659</name></trkpt>
<trkpt lat="54.601072" lon="-3.203156"><ele>278</ele><time>2019-10-02T10:19:26Z</time><name>PT1660</name></trkpt>
<trkpt lat="54.601070" lon="-3.203163"><ele>278</ele><time>2019-10-02T10:19:27Z</time><name>PT1661</name></trkpt>
<trkpt lat="54.601069" lon="-3.203172"><ele>278</ele><time>2019-10-02T10:19:28Z</time><name>PT1662</name></trkpt>
<trkpt lat="54.601068" lon="-3.203180"><ele>278</ele><time>2019-10-02T10:19:29Z</time><name>PT1663</name></trkpt>
<trkpt lat="54.601067" lon="-3.203187"><ele>278</ele><time>2019-10-02T10:19:30Z</time><name>PT1664</name></trkpt>
<trkpt lat="54.601066" lon="-3.203196"><ele>279</ele><time>2019-10-02T10:19:31Z</time><name>PT1665</name></trkpt>
<trkpt lat="54.601067" lon="-3.203207"><ele>279</ele><time>2019-10-02T10:19:32Z</time><name>PT1666</name></trkpt>
<trkpt lat="54.601067" lon="-3.203215"><ele>279</ele><time>2019-10-02T10:19:33Z</time><name>PT1667</name></trkpt>
<trkpt lat="54.601067" lon="-3.203234"><ele>280</ele><time>2019-10-02T10:19:39Z</time><name>PT1668</name></trkpt>
<trkpt lat="54.601067" lon="-3.203251"><ele>280</ele><time>2019-10-02T10:19:40Z</time><name>PT1669</name></trkpt>
<trkpt lat="54.601073" lon="-3.203264"><ele>280</ele><time>2019-10-02T10:19:41Z</time><name>PT1670</name></trkpt>
<trkpt lat="54.601073" lon="-3.203277"><ele>281</ele><time>2019-10-02T10:19:42Z</time><name>PT1671</name></trkpt>
<trkpt lat="54.601077" lon="-3.203290"><ele>281</ele><time>2019-10-02T10:19:43Z</time><name>PT1672</name></trkpt>
<trkpt lat="54.601078" lon="-3.203302"><ele>281</ele><time>2019-10-02T10:19:44Z</time><name>PT1673</name></trkpt>
<trkpt lat="54.601078" lon="-3.203313"><ele>281</ele><time>2019-10-02T10:19:45Z</time><name>PT1674</name></trkpt>
<trkpt lat="54.601076" lon="-3.203326"><ele>281</ele><time>2019-10-02T10:19:46Z</time><name>PT1675</name></trkpt>
<trkpt lat="54.601074" lon="-3.203339"><ele>281</ele><time>2019-10-02T10:19:47Z</time><name>PT1676</name></trkpt>
<trkpt lat="54.601072" lon="-3.203352"><ele>282</ele><time>2019-10-02T10:19:48Z</time><name>PT1677</name></trkpt>
<trkpt lat="54.601072" lon="-3.203364"><ele>282</ele><time>2019-10-02T10:19:49Z</time><name>PT1678</name></trkpt>
<trkpt lat="54.601071" lon="-3.203380"><ele>283</ele><time>2019-10-02T10:19:50Z</time><name>PT1679</name></trkpt>
<trkpt lat="54.601070" lon="-3.203394"><ele>282</ele><time>2019-10-02T10:19:51Z</time><name>PT1680</name></trkpt>
<trkpt lat="54.601071" lon="-3.203410"><ele>283</ele><time>2019-10-02T10:19:52Z</time><name>PT1681</name></trkpt>
<trkpt lat="54.601070" lon="-3.203427"><ele>283</ele><time>2019-10-02T10:19:53Z</time><name>PT1682</name></trkpt>
<trkpt lat="54.601067" lon="-3.203440"><ele>283</ele><time>2019-10-02T10:19:54Z</time><name>PT1683</name></trkpt>
<trkpt lat="54.601068" lon="-3.203452"><ele>283</ele><time>2019-10-02T10:19:55Z</time><name>PT1684</name></trkpt>
<trkpt lat="54.601068" lon="-3.203465"><ele>283</ele><time>2019-10-02T10:19:56Z</time><name>PT1685</name></trkpt>
<trkpt lat="54.601066" lon="-3.203476"><ele>283</ele><time>2019-10-02T10:19:57Z</time><name>PT1686</name></trkpt>
<trkpt lat="54.601063" lon="-3.203490"><ele>284</ele><time>2019-10-02T10:19:58Z</time><name>PT1687</name></trkpt>
<trkpt lat="54.601062" lon="-3.203508"><ele>284</ele><time>2019-10-02T10:19:59Z</time><name>PT1688</name></trkpt>
<trkpt lat="54.601057" lon="-3.203521"><ele>284</ele><time>2019-10-02T10:20:00Z</time><name>PT1689</name></trkpt>
<trkpt lat="54.601051" lon="-3.203534"><ele>284</ele><time>2019-10-02T10:20:01Z</time><name>PT1690</name></trkpt>
<trkpt lat="54.601049" lon="-3.203542"><ele>284</ele><time>2019-10-02T10:20:02Z</time><name>PT1691</name></trkpt>
<trkpt lat="54.601047" lon="-3.203551"><ele>284</ele><time>2019-10-02T10:20:03Z</time><name>PT1692</name></trkpt>
<trkpt lat="54.601047" lon="-3.203564"><ele>284</ele><time>2019-10-02T10:20:04Z</time><name>PT1693</name></trkpt>
<trkpt lat="54.601047" lon="-3.203575"><ele>284</ele><time>2019-10-02T10:20:05Z</time><name>PT1694</name></trkpt>
<trkpt lat="54.601045" lon="-3.203591"><ele>284</ele><time>2019-10-02T10:20:06Z</time><name>PT1695</name></trkpt>
<trkpt lat="54.601042" lon="-3.203606"><ele>284</ele><time>2019-10-02T10:20:07Z</time><name>PT1696</name></trkpt>
<trkpt lat="54.601042" lon="-3.203619"><ele>284</ele><time>2019-10-02T10:20:08Z</time><name>PT1697</name></trkpt>
<trkpt lat="54.601042" lon="-3.203632"><ele>284</ele><time>2019-10-02T10:20:09Z</time><name>PT1698</name></trkpt>
<trkpt lat="54.601039" lon="-3.203642"><ele>284</ele><time>2019-10-02T10:20:10Z</time><name>PT1699</name></trkpt>
<trkpt lat="54.601039" lon="-3.203654"><ele>284</ele><time>2019-10-02T10:20:11Z</time><name>PT1700</name></trkpt>
<trkpt lat="54.601035" lon="-3.203674"><ele>285</ele><time>2019-10-02T10:20:18Z</time><name>PT1701</name></trkpt>
<trkpt lat="54.601033" lon="-3.203693"><ele>285</ele><time>2019-10-02T10:20:19Z</time><name>PT1702</name></trkpt>
<trkpt lat="54.601032" lon="-3.203716"><ele>285</ele><time>2019-10-02T10:20:20Z</time><name>PT1703</name></trkpt>
<trkpt lat="54.601032" lon="-3.203740"><ele>285</ele><time>2019-10-02T10:20:21Z</time><name>PT1704</name></trkpt>
<trkpt lat="54.601034" lon="-3.203754"><ele>285</ele><time>2019-10-02T10:20:22Z</time><name>PT1705</name></trkpt>
<trkpt lat="54.601030" lon="-3.203767"><ele>286</ele><time>2019-10-02T10:20:23Z</time><name>PT1706</name></trkpt>
<trkpt lat="54.601026" lon="-3.203778"><ele>286</ele><time>2019-10-02T10:20:24Z</time><name>PT1707</name></trkpt>
<trkpt lat="54.601023" lon="-3.203793"><ele>286</ele><time>2019-10-02T10:20:25Z</time><name>PT1708</name></trkpt>
<trkpt lat="54.601020" lon="-3.203816"><ele>287</ele><time>2019-10-02T10:20:26Z</time><name>PT1709</name></trkpt>
<trkpt lat="54.601019" lon="-3.203827"><ele>287</ele><time>2019-10-02T10:20:27Z</time><name>PT1710</name></trkpt>
<trkpt lat="54.601016" lon="-3.203838"><ele>287</ele><time>2019-10-02T10:20:28Z</time><name>PT1711</name></trkpt>
<trkpt lat="54.601016" lon="-3.203851"><ele>287</ele><time>2019-10-02T10:20:29Z</time><name>PT1712</name></trkpt>
<trkpt lat="54.601014" lon="-3.203865"><ele>286</ele><time>2019-10-02T10:20:30Z</time><name>PT1713</name></trkpt>
<trkpt lat="54.601013" lon="-3.203874"><ele>286</ele><time>2019-10-02T10:20:31Z</time><name>PT1714</name></trkpt>
<trkpt lat="54.601015" lon="-3.203883"><ele>287</ele><time>2019-10-02T10:20:32Z</time><name>PT1715</name></trkpt>
<trkpt lat="54.601014" lon="-3.203891"><ele>288</ele><time>2019-10-02T10:20:33Z</time><name>PT1716</name></trkpt>
<trkpt lat="54.601019" lon="-3.203900"><ele>288</ele><time>2019-10-02T10:20:34Z</time><name>PT1717</name></trkpt>
<trkpt lat="54.601018" lon="-3.203908"><ele>288</ele><time>2019-10-02T10:20:35Z</time><name>PT1718</name></trkpt>
<trkpt lat="54.601016" lon="-3.203913"><ele>289</ele><time>2019-10-02T10:20:36Z</time><name>PT1719</name></trkpt>
<trkpt lat="54.601013" lon="-3.203920"><ele>289</ele><time>2019-10-02T10:20:37Z</time><name>PT1720</name></trkpt>
<trkpt lat="54.601012" lon="-3.203930"><ele>289</ele><time>2019-10-02T10:20:38Z</time><name>PT1721</name></trkpt>
<trkpt lat="54.601012" lon="-3.203940"><ele>290</ele><time>2019-10-02T10:20:39Z</time><name>PT1722</name></trkpt>
<trkpt lat="54.601008" lon="-3.203954"><ele>289</ele><time>2019-10-02T10:20:40Z</time><name>PT1723</name></trkpt>
<trkpt lat="54.601006" lon="-3.203963"><ele>289</ele><time>2019-10-02T10:20:41Z</time><name>PT1724</name></trkpt>
<trkpt lat="54.601005" lon="-3.203972"><ele>290</ele><time>2019-10-02T10:20:42Z</time><name>PT1725</name></trkpt>
<trkpt lat="54.601003" lon="-3.203981"><ele>290</ele><time>2019-10-02T10:20:43Z</time><name>PT1726</name></trkpt>
<trkpt lat="54.601003" lon="-3.203987"><ele>290</ele><time>2019-10-02T10:20:44Z</time><name>PT1727</name></trkpt>
<trkpt lat="54.601003" lon="-3.203997"><ele>291</ele><time>2019-10-02T10:20:45Z</time><name>PT1728</name></trkpt>
<trkpt lat="54.601003" lon="-3.204006"><ele>291</ele><time>2019-10-02T10:20:46Z</time><name>PT1729</name></trkpt>
<trkpt lat="54.601003" lon="-3.204017"><ele>292</ele><time>2019-10-02T10:20:47Z</time><name>PT1730</name></trkpt>
<trkpt lat="54.601004" lon="-3.204031"><ele>292</ele><time>2019-10-02T10:20:48Z</time><name>PT1731</name></trkpt>
<trkpt lat="54.601005" lon="-3.204045"><ele>292</ele><time>2019-10-02T10:20:49Z</time><name>PT1732</name></trkpt>
<trkpt lat="54.601006" lon="-3.204056"><ele>292</ele><time>2019-10-02T10:20:50Z</time><name>PT1733</name></trkpt>
<trkpt lat="54.601005" lon="-3.204068"><ele>292</ele><time>2019-10-02T10:20:51Z</time><name>PT1734</name></trkpt>
<trkpt lat="54.601005" lon="-3.204077"><ele>292</ele><time>2019-10-02T10:20:52Z</time><name>PT1735</name></trkpt>
<trkpt lat="54.601005" lon="-3.204087"><ele>292</ele><time>2019-10-02T10:20:53Z</time><name>PT1736</name></trkpt>
<trkpt lat="54.601004" lon="-3.204098"><ele>293</ele><time>2019-10-02T10:20:54Z</time><name>PT1737</name></trkpt>
<trkpt lat="54.601002" lon="-3.204109"><ele>293</ele><time>2019-10-02T10:20:55Z</time><name>PT1738</name></trkpt>
<trkpt lat="54.601002" lon="-3.204121"><ele>293</ele><time>2019-10-02T10:20:56Z</time><name>PT1739</name></trkpt>
<trkpt lat="54.601003" lon="-3.204130"><ele>293</ele><time>2019-10-02T10:20:57Z</time><name>PT1740</name></trkpt>
<trkpt lat="54.601001" lon="-3.204141"><ele>293</ele><time>2019-10-02T10:20:58Z</time><name>PT1741</name></trkpt>
<trkpt lat="54.601000" lon="-3.204152"><ele>293</ele><time>2019-10-02T10:20:59Z</time><name>PT1742</name></trkpt>
<trkpt lat="54.601000" lon="-3.204163"><ele>293</ele><time>2019-10-02T10:21:00Z</time><name>PT1743</name></trkpt>
<trkpt lat="54.600999" lon="-3.204176"><ele>293</ele><time>2019-10-02T10:21:01Z</time><name>PT1744</name></trkpt>
<trkpt lat="54.600999" lon="-3.204183"><ele>293</ele><time>2019-10-02T10:21:02Z</time><name>PT1745</name></trkpt>
<trkpt lat="54.600997" lon="-3.204198"><ele>294</ele><time>2019-10-02T10:21:03Z</time><name>PT1746</name></trkpt>
<trkpt lat="54.600995" lon="-3.204208"><ele>294</ele><time>2019-10-02T10:21:04Z</time><name>PT1747</name></trkpt>
<trkpt lat="54.600995" lon="-3.204220"><ele>294</ele><time>2019-10-02T10:21:05Z</time><name>PT1748</name></trkpt>
<trkpt lat="54.600994" lon="-3.204229"><ele>294</ele><time>2019-10-02T10:21:06Z</time><name>PT1749</name></trkpt>
<trkpt lat="54.600992" lon="-3.204242"><ele>295</ele><time>2019-10-02T10:21:07Z</time><name>PT1750</name></trkpt>
<trkpt lat="54.600992" lon="-3.204255"><ele>295</ele><time>2019-10-02T10:21:08Z</time><name>PT1751</name></trkpt>
<trkpt lat="54.600991" lon="-3.204268"><ele>295</ele><time>2019-10-02T10:21:09Z</time><name>PT1752</name></trkpt>
<trkpt lat="54.600992" lon="-3.204282"><ele>295</ele><time>2019-10-02T10:21:10Z</time><name>PT1753</name></trkpt>
<trkpt lat="54.600992" lon="-3.204293"><ele>295</ele><time>2019-10-02T10:21:11Z</time><name>PT1754</name></trkpt>
<trkpt lat="54.600992" lon="-3.204306"><ele>296</ele><time>2019-10-02T10:21:12Z</time><name>PT1755</name></trkpt>
<trkpt lat="54.600990" lon="-3.204322"><ele>296</ele><time>2019-10-02T10:21:13Z</time><name>PT1756</name></trkpt>
<trkpt lat="54.600988" lon="-3.204333"><ele>296</ele><time>2019-10-02T10:21:14Z</time><name>PT1757</name></trkpt>
<trkpt lat="54.600987" lon="-3.204342"><ele>296</ele><time>2019-10-02T10:21:15Z</time><name>PT1758</name></trkpt>
<trkpt lat="54.600984" lon="-3.204353"><ele>297</ele><time>2019-10-02T10:21:16Z</time><name>PT1759</name></trkpt>
<trkpt lat="54.600985" lon="-3.204366"><ele>297</ele><time>2019-10-02T10:21:17Z</time><name>PT1760</name></trkpt>
<trkpt lat="54.600984" lon="-3.204377"><ele>298</ele><time>2019-10-02T10:21:18Z</time><name>PT1761</name></trkpt>
<trkpt lat="54.600984" lon="-3.204388"><ele>297</ele><time>2019-10-02T10:21:19Z</time><name>PT1762</name></trkpt>
<trkpt lat="54.600984" lon="-3.204396"><ele>298</ele><time>2019-10-02T10:21:20Z</time><name>PT1763</name></trkpt>
<trkpt lat="54.600984" lon="-3.204410"><ele>298</ele><time>2019-10-02T10:21:21Z</time><name>PT1764</name></trkpt>
<trkpt lat="54.600984" lon="-3.204423"><ele>298</ele><time>2019-10-02T10:21:22Z</time><name>PT1765</name></trkpt>
<trkpt lat="54.600983" lon="-3.204437"><ele>299</ele><time>2019-10-02T10:21:23Z</time><name>PT1766</name></trkpt>
<trkpt lat="54.600982" lon="-3.204461"><ele>298</ele><time>2019-10-02T10:21:24Z</time><name>PT1767</name></trkpt>
<trkpt lat="54.600982" lon="-3.204475"><ele>298</ele><time>2019-10-02T10:21:25Z</time><name>PT1768</name></trkpt>
<trkpt lat="54.600980" lon="-3.204490"><ele>299</ele><time>2019-10-02T10:21:26Z</time><name>PT1769</name></trkpt>
<trkpt lat="54.600980" lon="-3.204508"><ele>299</ele><time>2019-10-02T10:21:27Z</time><name>PT1770</name></trkpt>
<trkpt lat="54.600981" lon="-3.204523"><ele>299</ele><time>2019-10-02T10:21:28Z</time><name>PT1771</name></trkpt>
<trkpt lat="54.600980" lon="-3.204534"><ele>299</ele><time>2019-10-02T10:21:29Z</time><name>PT1772</name></trkpt>
<trkpt lat="54.600982" lon="-3.204543"><ele>300</ele><time>2019-10-02T10:21:30Z</time><name>PT1773</name></trkpt>
<trkpt lat="54.600982" lon="-3.204551"><ele>300</ele><time>2019-10-02T10:21:31Z</time><name>PT1774</name></trkpt>
<trkpt lat="54.600982" lon="-3.204563"><ele>300</ele><time>2019-10-02T10:21:32Z</time><name>PT1775</name></trkpt>
<trkpt lat="54.600981" lon="-3.204575"><ele>301</ele><time>2019-10-02T10:21:33Z</time><name>PT1776</name></trkpt>
<trkpt lat="54.600980" lon="-3.204583"><ele>301</ele><time>2019-10-02T10:21:34Z</time><name>PT1777</name></trkpt>
<trkpt lat="54.600978" lon="-3.204595"><ele>301</ele><time>2019-10-02T10:21:35Z</time><name>PT1778</name></trkpt>
<trkpt lat="54.600978" lon="-3.204606"><ele>301</ele><time>2019-10-02T10:21:36Z</time><name>PT1779</name></trkpt>
<trkpt lat="54.600978" lon="-3.204616"><ele>301</ele><time>2019-10-02T10:21:37Z</time><name>PT1780</name></trkpt>
<trkpt lat="54.600978" lon="-3.204628"><ele>302</ele><time>2019-10-02T10:21:38Z</time><name>PT1781</name></trkpt>
<trkpt lat="54.600976" lon="-3.204641"><ele>303</ele><time>2019-10-02T10:21:39Z</time><name>PT1782</name></trkpt>
<trkpt lat="54.600975" lon="-3.204652"><ele>303</ele><time>2019-10-02T10:21:40Z</time><name>PT1783</name></trkpt>
<trkpt lat="54.600974" lon="-3.204665"><ele>303</ele><time>2019-10-02T10:21:41Z</time><name>PT1784</name></trkpt>
<trkpt lat="54.600973" lon="-3.204678"><ele>304</ele><time>2019-10-02T10:21:42Z</time><name>PT1785</name></trkpt>
<trkpt lat="54.600971" lon="-3.204689"><ele>303</ele><time>2019-10-02T10:21:43Z</time><name>PT1786</name></trkpt>
<trkpt lat="54.600972" lon="-3.204702"><ele>303</ele><time>2019-10-02T10:21:44Z</time><name>PT1787</name></trkpt>
<trkpt lat="54.600969" lon="-3.204713"><ele>304</ele><time>2019-10-02T10:21:45Z</time><name>PT1788</name></trkpt>
<trkpt lat="54.600967" lon="-3.204726"><ele>304</ele><time>2019-10-02T10:21:46Z</time><name>PT1789</name></trkpt>
<trkpt lat="54.600965" lon="-3.204737"><ele>303</ele><time>2019-10-02T10:21:47Z</time><name>PT1790</name></trkpt>
<trkpt lat="54.600964" lon="-3.204745"><ele>303</ele><time>2019-10-02T10:21:48Z</time><name>PT1791</name></trkpt>
<trkpt lat="54.600962" lon="-3.204753"><ele>304</ele><time>2019-10-02T10:21:49Z</time><name>PT1792</name></trkpt>
<trkpt lat="54.600962" lon="-3.204767"><ele>304</ele><time>2019-10-02T10:21:50Z</time><name>PT1793</name></trkpt>
<trkpt lat="54.600961" lon="-3.204779"><ele>304</ele><time>2019-10-02T10:21:51Z</time><name>PT1794</name></trkpt>
<trkpt lat="54.600960" lon="-3.204787"><ele>304</ele><time>2019-10-02T10:21:52Z</time><name>PT1795</name></trkpt>
<trkpt lat="54.600957" lon="-3.204795"><ele>304</ele><time>2019-10-02T10:21:53Z</time><name>PT1796</name></trkpt>
<trkpt lat="54.600955" lon="-3.204805"><ele>304</ele><time>2019-10-02T10:21:54Z</time><name>PT1797</name></trkpt>
<trkpt lat="54.600953" lon="-3.204813"><ele>304</ele><time>2019-10-02T10:21:55Z</time><name>PT1798</name></trkpt>
<trkpt lat="54.600952" lon="-3.204819"><ele>304</ele><time>2019-10-02T10:21:56Z</time><name>PT1799</name></trkpt>
<trkpt lat="54.600952" lon="-3.204827"><ele>304</ele><time>2019-10-02T10:21:57Z</time><name>PT1800</name></trkpt>
<trkpt lat="54.600951" lon="-3.204836"><ele>305</ele><time>2019-10-02T10:21:58Z</time><name>PT1801</name></trkpt>
<trkpt lat="54.600948" lon="-3.204847"><ele>305</ele><time>2019-10-02T10:21:59Z</time><name>PT1802</name></trkpt>
<trkpt lat="54.600945" lon="-3.204856"><ele>305</ele><time>2019-10-02T10:22:00Z</time><name>PT1803</name></trkpt>
<trkpt lat="54.600943" lon="-3.204864"><ele>306</ele><time>2019-10-02T10:22:01Z</time><name>PT1804</name></trkpt>
<trkpt lat="54.600939" lon="-3.204868"><ele>306</ele><time>2019-10-02T10:22:02Z</time><name>PT1805</name></trkpt>
<trkpt lat="54.600940" lon="-3.204870"><ele>306</ele><time>2019-10-02T10:22:06Z</time><name>PT1806</name></trkpt>
<trkpt lat="54.600937" lon="-3.204887"><ele>307</ele><time>2019-10-02T10:22:07Z</time><name>PT1807</name></trkpt>
<trkpt lat="54.600936" lon="-3.204905"><ele>307</ele><time>2019-10-02T10:22:08Z</time><name>PT1808</name></trkpt>
<trkpt lat="54.600935" lon="-3.204918"><ele>307</ele><time>2019-10-02T10:22:09Z</time><name>PT1809</name></trkpt>
<trkpt lat="54.600934" lon="-3.204933"><ele>307</ele><time>2019-10-02T10:22:10Z</time><name>PT1810</name></trkpt>
<trkpt lat="54.600931" lon="-3.204942"><ele>307</ele><time>2019-10-02T10:22:11Z</time><name>PT1811</name></trkpt>
<trkpt lat="54.600928" lon="-3.204960"><ele>307</ele><time>2019-10-02T10:22:12Z</time><name>PT1812</name></trkpt>
<trkpt lat="54.600927" lon="-3.204973"><ele>308</ele><time>2019-10-02T10:22:13Z</time><name>PT1813</name></trkpt>
<trkpt lat="54.600923" lon="-3.204984"><ele>308</ele><time>2019-10-02T10:22:14Z</time><name>PT1814</name></trkpt>
<trkpt lat="54.600920" lon="-3.204994"><ele>308</ele><time>2019-10-02T10:22:15Z</time><name>PT1815</name></trkpt>
<trkpt lat="54.600917" lon="-3.205002"><ele>309</ele><time>2019-10-02T10:22:16Z</time><name>PT1816</name></trkpt>
<trkpt lat="54.600915" lon="-3.205017"><ele>308</ele><time>2019-10-02T10:22:17Z</time><name>PT1817</name></trkpt>
<trkpt lat="54.600912" lon="-3.205027"><ele>309</ele><time>2019-10-02T10:22:18Z</time><name>PT1818</name></trkpt>
<trkpt lat="54.600913" lon="-3.205038"><ele>309</ele><time>2019-10-02T10:22:19Z</time><name>PT1819</name></trkpt>
<trkpt lat="54.600912" lon="-3.205049"><ele>309</ele><time>2019-10-02T10:22:20Z</time><name>PT1820</name></trkpt>
<trkpt lat="54.600908" lon="-3.205060"><ele>309</ele><time>2019-10-02T10:22:21Z</time><name>PT1821</name></trkpt>
<trkpt lat="54.600905" lon="-3.205075"><ele>309</ele><time>2019-10-02T10:22:22Z</time><name>PT1822</name></trkpt>
<trkpt lat="54.600903" lon="-3.205083"><ele>309</ele><time>2019-10-02T10:22:23Z</time><name>PT1823</name></trkpt>
<trkpt lat="54.600903" lon="-3.205090"><ele>309</ele><time>2019-10-02T10:22:24Z</time><name>PT1824</name></trkpt>
<trkpt lat="54.600900" lon="-3.205099"><ele>310</ele><time>2019-10-02T10:22:25Z</time><name>PT1825</name></trkpt>
<trkpt lat="54.600898" lon="-3.205108"><ele>310</ele><time>2019-10-02T10:22:26Z</time><name>PT1826</name></trkpt>
<trkpt lat="54.600895" lon="-3.205120"><ele>310</ele><time>2019-10-02T10:22:27Z</time><name>PT1827</name></trkpt>
<trkpt lat="54.600892" lon="-3.205130"><ele>310</ele><time>2019-10-02T10:22:28Z</time><name>PT1828</name></trkpt>
<trkpt lat="54.600889" lon="-3.205139"><ele>310</ele><time>2019-10-02T10:22:29Z</time><name>PT1829</name></trkpt>
<trkpt lat="54.600887" lon="-3.205146"><ele>310</ele><time>2019-10-02T10:22:30Z</time><name>PT1830</name></trkpt>
<trkpt lat="54.600885" lon="-3.205153"><ele>311</ele><time>2019-10-02T10:22:31Z</time><name>PT1831</name></trkpt>
<trkpt lat="54.600886" lon="-3.205163"><ele>311</ele><time>2019-10-02T10:22:32Z</time><name>PT1832</name></trkpt>
<trkpt lat="54.600884" lon="-3.205173"><ele>311</ele><time>2019-10-02T10:22:33Z</time><name>PT1833</name></trkpt>
<trkpt lat="54.600883" lon="-3.205180"><ele>311</ele><time>2019-10-02T10:22:34Z</time><name>PT1834</name></trkpt>
<trkpt lat="54.600882" lon="-3.205190"><ele>311</ele><time>2019-10-02T10:22:35Z</time><name>PT1835</name></trkpt>
<trkpt lat="54.600881" lon="-3.205197"><ele>311</ele><time>2019-10-02T10:22:36Z</time><name>PT1836</name></trkpt>
<trkpt lat="54.600878" lon="-3.205203"><ele>312</ele><time>2019-10-02T10:22:37Z</time><name>PT1837</name></trkpt>
<trkpt lat="54.600876" lon="-3.205208"><ele>312</ele><time>2019-10-02T10:22:38Z</time><name>PT1838</name></trkpt>
<trkpt lat="54.600874" lon="-3.205213"><ele>312</ele><time>2019-10-02T10:22:39Z</time><name>PT1839</name></trkpt>
<trkpt lat="54.600872" lon="-3.205217"><ele>312</ele><time>2019-10-02T10:22:40Z</time><name>PT1840</name></trkpt>
<trkpt lat="54.600871" lon="-3.205225"><ele>312</ele><time>2019-10-02T10:22:41Z</time><name>PT1841</name></trkpt>
<trkpt lat="54.600868" lon="-3.205236"><ele>312</ele><time>2019-10-02T10:22:42Z</time><name>PT1842</name></trkpt>
<trkpt lat="54.600866" lon="-3.205249"><ele>312</ele><time>2019-10-02T10:22:43Z</time><name>PT1843</name></trkpt>
<trkpt lat="54.600863" lon="-3.205256"><ele>313</ele><time>2019-10-02T10:22:44Z</time><name>PT1844</name></trkpt>
<trkpt lat="54.600861" lon="-3.205262"><ele>313</ele><time>2019-10-02T10:22:45Z</time><name>PT1845</name></trkpt>
<trkpt lat="54.600858" lon="-3.205273"><ele>313</ele><time>2019-10-02T10:22:46Z</time><name>PT1846</name></trkpt>
<trkpt lat="54.600854" lon="-3.205282"><ele>313</ele><time>2019-10-02T10:22:47Z</time><name>PT1847</name></trkpt>
<trkpt lat="54.600850" lon="-3.205292"><ele>313</ele><time>2019-10-02T10:22:48Z</time><name>PT1848</name></trkpt>
<trkpt lat="54.600848" lon="-3.205298"><ele>313</ele><time>2019-10-02T10:22:49Z</time><name>PT1849</name></trkpt>
<trkpt lat="54.600847" lon="-3.205304"><ele>313</ele><time>2019-10-02T10:22:50Z</time><name>PT1850</name></trkpt>
<trkpt lat="54.600844" lon="-3.205315"><ele>313</ele><time>2019-10-02T10:22:51Z</time><name>PT1851</name></trkpt>
<trkpt lat="54.600842" lon="-3.205320"><ele>314</ele><time>2019-10-02T10:22:52Z</time><name>PT1852</name></trkpt>
<trkpt lat="54.600841" lon="-3.205330"><ele>314</ele><time>2019-10-02T10:22:53Z</time><name>PT1853</name></trkpt>
<trkpt lat="54.600839" lon="-3.205339"><ele>315</ele><time>2019-10-02T10:22:54Z</time><name>PT1854</name></trkpt>
<trkpt lat="54.600837" lon="-3.205351"><ele>315</ele><time>2019-10-02T10:22:55Z</time><name>PT1855</name></trkpt>
<trkpt lat="54.600833" lon="-3.205359"><ele>315</ele><time>2019-10-02T10:22:56Z</time><name>PT1856</name></trkpt>
<trkpt lat="54.600831" lon="-3.205367"><ele>315</ele><time>2019-10-02T10:22:57Z</time><name>PT1857</name></trkpt>
<trkpt lat="54.600828" lon="-3.205373"><ele>315</ele><time>2019-10-02T10:22:58Z</time><name>PT1858</name></trkpt>
<trkpt lat="54.600829" lon="-3.205376"><ele>316</ele><time>2019-10-02T10:22:59Z</time><name>PT1859</name></trkpt>
<trkpt lat="54.600830" lon="-3.205379"><ele>316</ele><time>2019-10-02T10:23:02Z</time><name>PT1860</name></trkpt>
<trkpt lat="54.600825" lon="-3.205397"><ele>317</ele><time>2019-10-02T10:23:03Z</time><name>PT1861</name></trkpt>
<trkpt lat="54.600821" lon="-3.205407"><ele>317</ele><time>2019-10-02T10:23:04Z</time><name>PT1862</name></trkpt>
<trkpt lat="54.600817" lon="-3.205415"><ele>317</ele><time>2019-10-02T10:23:05Z</time><name>PT1863</name></trkpt>
<trkpt lat="54.600813" lon="-3.205423"><ele>317</ele><time>2019-10-02T10:23:06Z</time><name>PT1864</name></trkpt>
<trkpt lat="54.600810" lon="-3.205431"><ele>317</ele><time>2019-10-02T10:23:07Z</time><name>PT1865</name></trkpt>
<trkpt lat="54.600809" lon="-3.205438"><ele>318</ele><time>2019-10-02T10:23:11Z</time><name>PT1866</name></trkpt>
<trkpt lat="54.600808" lon="-3.205447"><ele>318</ele><time>2019-10-02T10:23:12Z</time><name>PT1867</name></trkpt>
<trkpt lat="54.600806" lon="-3.205458"><ele>318</ele><time>2019-10-02T10:23:13Z</time><name>PT1868</name></trkpt>
<trkpt lat="54.600803" lon="-3.205471"><ele>318</ele><time>2019-10-02T10:23:14Z</time><name>PT1869</name></trkpt>
<trkpt lat="54.600803" lon="-3.205476"><ele>318</ele><time>2019-10-02T10:23:15Z</time><name>PT1870</name></trkpt>
<trkpt lat="54.600802" lon="-3.205483"><ele>318</ele><time>2019-10-02T10:23:16Z</time><name>PT1871</name></trkpt>
<trkpt lat="54.600802" lon="-3.205493"><ele>317</ele><time>2019-10-02T10:23:17Z</time><name>PT1872</name></trkpt>
<trkpt lat="54.600798" lon="-3.205508"><ele>318</ele><time>2019-10-02T10:23:18Z</time><name>PT1873</name></trkpt>
<trkpt lat="54.600800" lon="-3.205515"><ele>318</ele><time>2019-10-02T10:23:19Z</time><name>PT1874</name></trkpt>
<trkpt lat="54.600798" lon="-3.205522"><ele>318</ele><time>2019-10-02T10:23:20Z</time><name>PT1875</name></trkpt>
<trkpt lat="54.600796" lon="-3.205529"><ele>318</ele><time>2019-10-02T10:23:21Z</time><name>PT1876</name></trkpt>
<trkpt lat="54.600793" lon="-3.205537"><ele>318</ele><time>2019-10-02T10:23:22Z</time><name>PT1877</name></trkpt>
<trkpt lat="54.600792" lon="-3.205547"><ele>318</ele><time>2019-10-02T10:23:23Z</time><name>PT1878</name></trkpt>
<trkpt lat="54.600790" lon="-3.205558"><ele>318</ele><time>2019-10-02T10:23:24Z</time><name>PT1879</name></trkpt>
<trkpt lat="54.600790" lon="-3.205565"><ele>319</ele><time>2019-10-02T10:23:25Z</time><name>PT1880</name></trkpt>
<trkpt lat="54.600789" lon="-3.205573"><ele>319</ele><time>2019-10-02T10:23:26Z</time><name>PT1881</name></trkpt>
<trkpt lat="54.600790" lon="-3.205600"><ele>321</ele><time>2019-10-02T10:23:40Z</time><name>PT1882</name></trkpt>
<trkpt lat="54.600786" lon="-3.205621"><ele>321</ele><time>2019-10-02T10:23:41Z</time><name>PT1883</name></trkpt>
<trkpt lat="54.600783" lon="-3.205640"><ele>321</ele><time>2019-10-02T10:23:42Z</time><name>PT1884</name></trkpt>
<trkpt lat="54.600781" lon="-3.205650"><ele>321</ele><time>2019-10-02T10:23:43Z</time><name>PT1885</name></trkpt>
<trkpt lat="54.600777" lon="-3.205662"><ele>321</ele><time>2019-10-02T10:23:44Z</time><name>PT1886</name></trkpt>
<trkpt lat="54.600775" lon="-3.205674"><ele>321</ele><time>2019-10-02T10:23:45Z</time><name>PT1887</name></trkpt>
<trkpt lat="54.600774" lon="-3.205688"><ele>321</ele><time>2019-10-02T10:23:46Z</time><name>PT1888</name></trkpt>
<trkpt lat="54.600770" lon="-3.205703"><ele>322</ele><time>2019-10-02T10:23:47Z</time><name>PT1889</name></trkpt>
<trkpt lat="54.600767" lon="-3.205715"><ele>322</ele><time>2019-10-02T10:23:48Z</time><name>PT1890</name></trkpt>
<trkpt lat="54.600765" lon="-3.205725"><ele>322</ele><time>2019-10-02T10:23:49Z</time><name>PT1891</name></trkpt>
<trkpt lat="54.600763" lon="-3.205737"><ele>322</ele><time>2019-10-02T10:23:50Z</time><name>PT1892</name></trkpt>
<trkpt lat="54.600760" lon="-3.205750"><ele>322</ele><time>2019-10-02T10:23:51Z</time><name>PT1893</name></trkpt>
<trkpt lat="54.600760" lon="-3.205767"><ele>323</ele><time>2019-10-02T10:23:52Z</time><name>PT1894</name></trkpt>
<trkpt lat="54.600760" lon="-3.205776"><ele>324</ele><time>2019-10-02T10:23:53Z</time><name>PT1895</name></trkpt>
<trkpt lat="54.600759" lon="-3.205785"><ele>324</ele><time>2019-10-02T10:23:54Z</time><name>PT1896</name></trkpt>
<trkpt lat="54.600760" lon="-3.205792"><ele>324</ele><time>2019-10-02T10:23:55Z</time><name>PT1897</name></trkpt>
<trkpt lat="54.600759" lon="-3.205801"><ele>325</ele><time>2019-10-02T10:23:56Z</time><name>PT1898</name></trkpt>
<trkpt lat="54.600759" lon="-3.205808"><ele>325</ele><time>2019-10-02T10:23:57Z</time><name>PT1899</name></trkpt>
<trkpt lat="54.600757" lon="-3.205821"><ele>325</ele><time>2019-10-02T10:23:58Z</time><name>PT1900</name></trkpt>
<trkpt lat="54.600753" lon="-3.205833"><ele>326</ele><time>2019-10-02T10:23:59Z</time><name>PT1901</name></trkpt>
<trkpt lat="54.600749" lon="-3.205839"><ele>326</ele><time>2019-10-02T10:24:00Z</time><name>PT1902</name></trkpt>
<trkpt lat="54.600747" lon="-3.205846"><ele>326</ele><time>2019-10-02T10:24:01Z</time><name>PT1903</name></trkpt>
<trkpt lat="54.600742" lon="-3.205852"><ele>326</ele><time>2019-10-02T10:24:02Z</time><name>PT1904</name></trkpt>
<trkpt lat="54.600740" lon="-3.205860"><ele>327</ele><time>2019-10-02T10:24:03Z</time><name>PT1905</name></trkpt>
<trkpt lat="54.600740" lon="-3.205870"><ele>327</ele><time>2019-10-02T10:24:04Z</time><name>PT1906</name></trkpt>
<trkpt lat="54.600740" lon="-3.205879"><ele>327</ele><time>2019-10-02T10:24:05Z</time><name>PT1907</name></trkpt>
<trkpt lat="54.600738" lon="-3.205888"><ele>327</ele><time>2019-10-02T10:24:06Z</time><name>PT1908</name></trkpt>
<trkpt lat="54.600735" lon="-3.205894"><ele>327</ele><time>2019-10-02T10:24:07Z</time><name>PT1909</name></trkpt>
<trkpt lat="54.600732" lon="-3.205901"><ele>328</ele><time>2019-10-02T10:24:13Z</time><name>PT1910</name></trkpt>
<trkpt lat="54.600728" lon="-3.205924"><ele>328</ele><time>2019-10-02T10:24:14Z</time><name>PT1911</name></trkpt>
<trkpt lat="54.600727" lon="-3.205935"><ele>328</ele><time>2019-10-02T10:24:15Z</time><name>PT1912</name></trkpt>
<trkpt lat="54.600727" lon="-3.205944"><ele>328</ele><time>2019-10-02T10:24:16Z</time><name>PT1913</name></trkpt>
<trkpt lat="54.600730" lon="-3.205956"><ele>329</ele><time>2019-10-02T10:24:17Z</time><name>PT1914</name></trkpt>
<trkpt lat="54.600730" lon="-3.205966"><ele>329</ele><time>2019-10-02T10:24:18Z</time><name>PT1915</name></trkpt>
<trkpt lat="54.600730" lon="-3.205978"><ele>329</ele><time>2019-10-02T10:24:19Z</time><name>PT1916</name></trkpt>
<trkpt lat="54.600727" lon="-3.205988"><ele>330</ele><time>2019-10-02T10:24:22Z</time><name>PT1917</name></trkpt>
<trkpt lat="54.600723" lon="-3.206001"><ele>330</ele><time>2019-10-02T10:24:23Z</time><name>PT1918</name></trkpt>
<trkpt lat="54.600720" lon="-3.206013"><ele>330</ele><time>2019-10-02T10:24:24Z</time><name>PT1919</name></trkpt>
<trkpt lat="54.600718" lon="-3.206018"><ele>331</ele><time>2019-10-02T10:24:25Z</time><name>PT1920</name></trkpt>
<trkpt lat="54.600715" lon="-3.206030"><ele>331</ele><time>2019-10-02T10:24:26Z</time><name>PT1921</name></trkpt>
<trkpt lat="54.600712" lon="-3.206040"><ele>330</ele><time>2019-10-02T10:24:27Z</time><name>PT1922</name></trkpt>
<trkpt lat="54.600707" lon="-3.206047"><ele>331</ele><time>2019-10-02T10:24:28Z</time><name>PT1923</name></trkpt>
<trkpt lat="54.600703" lon="-3.206051"><ele>331</ele><time>2019-10-02T10:24:29Z</time><name>PT1924</name></trkpt>
<trkpt lat="54.600701" lon="-3.206055"><ele>331</ele><time>2019-10-02T10:24:30Z</time><name>PT1925</name></trkpt>
<trkpt lat="54.600698" lon="-3.206058"><ele>331</ele><time>2019-10-02T10:24:31Z</time><name>PT1926</name></trkpt>
<trkpt lat="54.600696" lon="-3.206069"><ele>331</ele><time>2019-10-02T10:24:33Z</time><name>PT1927</name></trkpt>
<trkpt lat="54.600695" lon="-3.206082"><ele>332</ele><time>2019-10-02T10:24:34Z</time><name>PT1928</name></trkpt>
<trkpt lat="54.600694" lon="-3.206091"><ele>332</ele><time>2019-10-02T10:24:35Z</time><name>PT1929</name></trkpt>
<trkpt lat="54.600691" lon="-3.206103"><ele>331</ele><time>2019-10-02T10:24:36Z</time><name>PT1930</name></trkpt>
<trkpt lat="54.600689" lon="-3.206111"><ele>331</ele><time>2019-10-02T10:24:37Z</time><name>PT1931</name></trkpt>
<trkpt lat="54.600687" lon="-3.206119"><ele>332</ele><time>2019-10-02T10:24:38Z</time><name>PT1932</name></trkpt>
<trkpt lat="54.600685" lon="-3.206133"><ele>332</ele><time>2019-10-02T10:24:39Z</time><name>PT1933</name></trkpt>
<trkpt lat="54.600682" lon="-3.206139"><ele>333</ele><time>2019-10-02T10:24:40Z</time><name>PT1934</name></trkpt>
<trkpt lat="54.600679" lon="-3.206141"><ele>333</ele><time>2019-10-02T10:24:41Z</time><name>PT1935</name></trkpt>
<trkpt lat="54.600673" lon="-3.206141"><ele>334</ele><time>2019-10-02T10:24:42Z</time><name>PT1936</name></trkpt>
<trkpt lat="54.600669" lon="-3.206144"><ele>334</ele><time>2019-10-02T10:24:43Z</time><name>PT1937</name></trkpt>
<trkpt lat="54.600665" lon="-3.206147"><ele>334</ele><time>2019-10-02T10:24:44Z</time><name>PT1938</name></trkpt>
<trkpt lat="54.600660" lon="-3.206153"><ele>334</ele><time>2019-10-02T10:24:45Z</time><name>PT1939</name></trkpt>
<trkpt lat="54.600662" lon="-3.206154"><ele>334</ele><time>2019-10-02T10:24:48Z</time><name>PT1940</name></trkpt>
<trkpt lat="54.600657" lon="-3.206159"><ele>335</ele><time>2019-10-02T10:24:49Z</time><name>PT1941</name></trkpt>
<trkpt lat="54.600655" lon="-3.206162"><ele>335</ele><time>2019-10-02T10:24:50Z</time><name>PT1942</name></trkpt>
<trkpt lat="54.600658" lon="-3.206161"><ele>335</ele><time>2019-10-02T10:24:51Z</time><name>PT1943</name></trkpt>
<trkpt lat="54.600653" lon="-3.206161"><ele>335</ele><time>2019-10-02T10:24:52Z</time><name>PT1944</name></trkpt>
<trkpt lat="54.600650" lon="-3.206172"><ele>336</ele><time>2019-10-02T10:24:53Z</time><name>PT1945</name></trkpt>
<trkpt lat="54.600646" lon="-3.206183"><ele>336</ele><time>2019-10-02T10:24:54Z</time><name>PT1946</name></trkpt>
<trkpt lat="54.600638" lon="-3.206194"><ele>336</ele><time>2019-10-02T10:24:55Z</time><name>PT1947</name></trkpt>
<trkpt lat="54.600631" lon="-3.206209"><ele>336</ele><time>2019-10-02T10:24:56Z</time><name>PT1948</name></trkpt>
<trkpt lat="54.600626" lon="-3.206216"><ele>336</ele><time>2019-10-02T10:24:57Z</time><name>PT1949</name></trkpt>
<trkpt lat="54.600620" lon="-3.206220"><ele>336</ele><time>2019-10-02T10:24:58Z</time><name>PT1950</name></trkpt>
<trkpt lat="54.600619" lon="-3.206220"><ele>336</ele><time>2019-10-02T10:24:59Z</time><name>PT1951</name></trkpt>
<trkpt lat="54.600617" lon="-3.206223"><ele>337</ele><time>2019-10-02T10:25:00Z</time><name>PT1952</name></trkpt>
<trkpt lat="54.600616" lon="-3.206222"><ele>337</ele><time>2019-10-02T10:25:01Z</time><name>PT1953</name></trkpt>
<trkpt lat="54.600616" lon="-3.206222"><ele>337</ele><time>2019-10-02T10:25:02Z</time><name>PT1954</name></trkpt>
<trkpt lat="54.600613" lon="-3.206221"><ele>337</ele><time>2019-10-02T10:25:03Z</time><name>PT1955</name></trkpt>
<trkpt lat="54.600610" lon="-3.206224"><ele>337</ele><time>2019-10-02T10:25:04Z</time><name>PT1956</name></trkpt>
<trkpt lat="54.600609" lon="-3.206224"><ele>337</ele><time>2019-10-02T10:25:05Z</time><name>PT1957</name></trkpt>
<trkpt lat="54.600609" lon="-3.206227"><ele>336</ele><time>2019-10-02T10:25:06Z</time><name>PT1958</name></trkpt>
<trkpt lat="54.600608" lon="-3.206228"><ele>337</ele><time>2019-10-02T10:25:07Z</time><name>PT1959</name></trkpt>
<trkpt lat="54.600606" lon="-3.206229"><ele>336</ele><time>2019-10-02T10:25:08Z</time><name>PT1960</name></trkpt>
<trkpt lat="54.600601" lon="-3.206223"><ele>336</ele><time>2019-10-02T10:25:11Z</time><name>PT1961</name></trkpt>
<trkpt lat="54.600599" lon="-3.206223"><ele>336</ele><time>2019-10-02T10:25:12Z</time><name>PT1962</name></trkpt>
<trkpt lat="54.600595" lon="-3.206224"><ele>336</ele><time>2019-10-02T10:25:13Z</time><name>PT1963</name></trkpt>
<trkpt lat="54.600596" lon="-3.206221"><ele>336</ele><time>2019-10-02T10:25:14Z</time><name>PT1964</name></trkpt>
<trkpt lat="54.600601" lon="-3.206220"><ele>337</ele><time>2019-10-02T10:25:15Z</time><name>PT1965</name></trkpt>
<trkpt lat="54.600597" lon="-3.206229"><ele>337</ele><time>2019-10-02T10:25:16Z</time><name>PT1966</name></trkpt>
<trkpt lat="54.600596" lon="-3.206234"><ele>337</ele><time>2019-10-02T10:25:17Z</time><name>PT1967</name></trkpt>
<trkpt lat="54.600596" lon="-3.206237"><ele>337</ele><time>2019-10-02T10:25:18Z</time><name>PT1968</name></trkpt>
<trkpt lat="54.600596" lon="-3.206237"><ele>337</ele><time>2019-10-02T10:25:19Z</time><name>PT1969</name></trkpt>
<trkpt lat="54.600595" lon="-3.206236"><ele>337</ele><time>2019-10-02T10:25:20Z</time><name>PT1970</name></trkpt>
<trkpt lat="54.600592" lon="-3.206244"><ele>336</ele><time>2019-10-02T10:25:21Z</time><name>PT1971</name></trkpt>
<trkpt lat="54.600596" lon="-3.206245"><ele>337</ele><time>2019-10-02T10:25:22Z</time><name>PT1972</name></trkpt>
<trkpt lat="54.600597" lon="-3.206246"><ele>337</ele><time>2019-10-02T10:25:23Z</time><name>PT1973</name></trkpt>
<trkpt lat="54.600599" lon="-3.206247"><ele>337</ele><time>2019-10-02T10:25:24Z</time><name>PT1974</name></trkpt>
<trkpt lat="54.600601" lon="-3.206247"><ele>337</ele><time>2019-10-02T10:25:25Z</time><name>PT1975</name></trkpt>
<trkpt lat="54.600602" lon="-3.206245"><ele>338</ele><time>2019-10-02T10:25:26Z</time><name>PT1976</name></trkpt>
<trkpt lat="54.600603" lon="-3.206246"><ele>338</ele><time>2019-10-02T10:25:27Z</time><name>PT1977</name></trkpt>
<trkpt lat="54.600606" lon="-3.206243"><ele>338</ele><time>2019-10-02T10:25:28Z</time><name>PT1978</name></trkpt>
<trkpt lat="54.600608" lon="-3.206236"><ele>337</ele><time>2019-10-02T10:25:29Z</time><name>PT1979</name></trkpt>
<trkpt lat="54.600607" lon="-3.206233"><ele>338</ele><time>2019-10-02T10:25:30Z</time><name>PT1980</name></trkpt>
<trkpt lat="54.600606" lon="-3.206233"><ele>338</ele><time>2019-10-02T10:25:31Z</time><name>PT1981</name></trkpt>
<trkpt lat="54.600607" lon="-3.206235"><ele>339</ele><time>2019-10-02T10:25:32Z</time><name>PT1982</name></trkpt>
<trkpt lat="54.600607" lon="-3.206235"><ele>339</ele><time>2019-10-02T10:25:33Z</time><name>PT1983</name></trkpt>
<trkpt lat="54.600605" lon="-3.206233"><ele>339</ele><time>2019-10-02T10:25:34Z</time><name>PT1984</name></trkpt>
<trkpt lat="54.600606" lon="-3.206234"><ele>339</ele><time>2019-10-02T10:25:35Z</time><name>PT1985</name></trkpt>
<trkpt lat="54.600608" lon="-3.206241"><ele>339</ele><time>2019-10-02T10:25:46Z</time><name>PT1986</name></trkpt>
<trkpt lat="54.600608" lon="-3.206241"><ele>339</ele><time>2019-10-02T10:25:47Z</time><name>PT1987</name></trkpt>
<trkpt lat="54.600607" lon="-3.206240"><ele>339</ele><time>2019-10-02T10:25:48Z</time><name>PT1988</name></trkpt>
<trkpt lat="54.600603" lon="-3.206236"><ele>339</ele><time>2019-10-02T10:25:49Z</time><name>PT1989</name></trkpt>
<trkpt lat="54.600603" lon="-3.206234"><ele>339</ele><time>2019-10-02T10:25:50Z</time><name>PT1990</name></trkpt>
<trkpt lat="54.600603" lon="-3.206235"><ele>339</ele><time>2019-10-02T10:25:51Z</time><name>PT1991</name></trkpt>
<trkpt lat="54.600602" lon="-3.206237"><ele>339</ele><time>2019-10-02T10:25:54Z</time><name>PT1992</name></trkpt>
<trkpt lat="54.600599" lon="-3.206235"><ele>339</ele><time>2019-10-02T10:25:55Z</time><name>PT1993</name></trkpt>
<trkpt lat="54.600598" lon="-3.206233"><ele>339</ele><time>2019-10-02T10:25:56Z</time><name>PT1994</name></trkpt>
<trkpt lat="54.600596" lon="-3.206234"><ele>338</ele><time>2019-10-02T10:25:58Z</time><name>PT1995</name></trkpt>
<trkpt lat="54.600599" lon="-3.206237"><ele>338</ele><time>2019-10-02T10:25:59Z</time><name>PT1996</name></trkpt>
<trkpt lat="54.600598" lon="-3.206238"><ele>338</ele><time>2019-10-02T10:26:00Z</time><name>PT1997</name></trkpt>
<trkpt lat="54.600599" lon="-3.206236"><ele>338</ele><time>2019-10-02T10:26:01Z</time><name>PT1998</name></trkpt>
<trkpt lat="54.600597" lon="-3.206236"><ele>338</ele><time>2019-10-02T10:26:02Z</time><name>PT1999</name></trkpt>
<trkpt lat="54.600593" lon="-3.206239"><ele>337</ele><time>2019-10-02T10:26:03Z</time><name>PT2000</name></trkpt>
<trkpt lat="54.600594" lon="-3.206240"><ele>337</ele><time>2019-10-02T10:26:04Z</time><name>PT2001</name></trkpt>
<trkpt lat="54.600589" lon="-3.206241"><ele>337</ele><time>2019-10-02T10:26:05Z</time><name>PT2002</name></trkpt>
<trkpt lat="54.600586" lon="-3.206239"><ele>338</ele><time>2019-10-02T10:26:06Z</time><name>PT2003</name></trkpt>
<trkpt lat="54.600588" lon="-3.206240"><ele>338</ele><time>2019-10-02T10:26:47Z</time><name>PT2004</name></trkpt>
<trkpt lat="54.600587" lon="-3.206245"><ele>338</ele><time>2019-10-02T10:26:48Z</time><name>PT2005</name></trkpt>
<trkpt lat="54.600589" lon="-3.206248"><ele>338</ele><time>2019-10-02T10:26:49Z</time><name>PT2006</name></trkpt>
<trkpt lat="54.600589" lon="-3.206249"><ele>338</ele><time>2019-10-02T10:26:50Z</time><name>PT2007</name></trkpt>
<trkpt lat="54.600589" lon="-3.206252"><ele>338</ele><time>2019-10-02T10:26:51Z</time><name>PT2008</name></trkpt>
<trkpt lat="54.600582" lon="-3.206253"><ele>338</ele><time>2019-10-02T10:26:56Z</time><name>PT2009</name></trkpt>
<trkpt lat="54.600580" lon="-3.206263"><ele>339</ele><time>2019-10-02T10:26:57Z</time><name>PT2010</name></trkpt>
<trkpt lat="54.600579" lon="-3.206251"><ele>340</ele><time>2019-10-02T10:26:58Z</time><name>PT2011</name></trkpt>
<trkpt lat="54.600578" lon="-3.206244"><ele>340</ele><time>2019-10-02T10:26:59Z</time><name>PT2012</name></trkpt>
<trkpt lat="54.600580" lon="-3.206240"><ele>340</ele><time>2019-10-02T10:27:00Z</time><name>PT2013</name></trkpt>
<trkpt lat="54.600584" lon="-3.206241"><ele>340</ele><time>2019-10-02T10:27:01Z</time><name>PT2014</name></trkpt>
<trkpt lat="54.600585" lon="-3.206247"><ele>340</ele><time>2019-10-02T10:27:02Z</time><name>PT2015</name></trkpt>
<trkpt lat="54.600589" lon="-3.206247"><ele>341</ele><time>2019-10-02T10:27:03Z</time><name>PT2016</name></trkpt>
<trkpt lat="54.600591" lon="-3.206247"><ele>341</ele><time>2019-10-02T10:27:04Z</time><name>PT2017</name></trkpt>
<trkpt lat="54.600593" lon="-3.206245"><ele>341</ele><time>2019-10-02T10:27:05Z</time><name>PT2018</name></trkpt>
<trkpt lat="54.600593" lon="-3.206245"><ele>341</ele><time>2019-10-02T10:27:06Z</time><name>PT2019</name></trkpt>
<trkpt lat="54.600592" lon="-3.206242"><ele>341</ele><time>2019-10-02T10:27:20Z</time><name>PT2020</name></trkpt>
<trkpt lat="54.600590" lon="-3.206241"><ele>341</ele><time>2019-10-02T10:27:21Z</time><name>PT2021</name></trkpt>
<trkpt lat="54.600590" lon="-3.206240"><ele>341</ele><time>2019-10-02T10:27:22Z</time><name>PT2022</name></trkpt>
<trkpt lat="54.600588" lon="-3.206238"><ele>341</ele><time>2019-10-02T10:27:39Z</time><name>PT2023</name></trkpt>
<trkpt lat="54.600588" lon="-3.206240"><ele>341</ele><time>2019-10-02T10:27:40Z</time><name>PT2024</name></trkpt>
<trkpt lat="54.600588" lon="-3.206240"><ele>341</ele><time>2019-10-02T10:27:41Z</time><name>PT2025</name></trkpt>
<trkpt lat="54.600589" lon="-3.206243"><ele>341</ele><time>2019-10-02T10:27:42Z</time><name>PT2026</name></trkpt>
<trkpt lat="54.600591" lon="-3.206247"><ele>341</ele><time>2019-10-02T10:27:43Z</time><name>PT2027</name></trkpt>
<trkpt lat="54.600591" lon="-3.206247"><ele>341</ele><time>2019-10-02T10:27:52Z</time><name>PT2028</name></trkpt>
<trkpt lat="54.600590" lon="-3.206246"><ele>341</ele><time>2019-10-02T10:27:53Z</time><name>PT2029</name></trkpt>
<trkpt lat="54.600592" lon="-3.206246"><ele>341</ele><time>2019-10-02T10:27:58Z</time><name>PT2030</name></trkpt>
<trkpt lat="54.600594" lon="-3.206245"><ele>341</ele><time>2019-10-02T10:27:59Z</time><name>PT2031</name></trkpt>
<trkpt lat="54.600594" lon="-3.206244"><ele>342</ele><time>2019-10-02T10:28:00Z</time><name>PT2032</name></trkpt>
<trkpt lat="54.600596" lon="-3.206243"><ele>342</ele><time>2019-10-02T10:28:01Z</time><name>PT2033</name></trkpt>
<trkpt lat="54.600589" lon="-3.206251"><ele>342</ele><time>2019-10-02T10:28:23Z</time><name>PT2034</name></trkpt>
<trkpt lat="54.600586" lon="-3.206275"><ele>343</ele><time>2019-10-02T10:28:24Z</time><name>PT2035</name></trkpt>
<trkpt lat="54.600583" lon="-3.206297"><ele>343</ele><time>2019-10-02T10:28:25Z</time><name>PT2036</name></trkpt>
<trkpt lat="54.600581" lon="-3.206312"><ele>343</ele><time>2019-10-02T10:28:26Z</time><name>PT2037</name></trkpt>
<trkpt lat="54.600577" lon="-3.206328"><ele>343</ele><time>2019-10-02T10:28:27Z</time><name>PT2038</name></trkpt>
<trkpt lat="54.600576" lon="-3.206345"><ele>343</ele><time>2019-10-02T10:28:28Z</time><name>PT2039</name></trkpt>
<trkpt lat="54.600573" lon="-3.206361"><ele>343</ele><time>2019-10-02T10:28:29Z</time><name>PT2040</name></trkpt>
<trkpt lat="54.600568" lon="-3.206377"><ele>344</ele><time>2019-10-02T10:28:30Z</time><name>PT2041</name></trkpt>
<trkpt lat="54.600565" lon="-3.206393"><ele>344</ele><time>2019-10-02T10:28:31Z</time><name>PT2042</name></trkpt>
<trkpt lat="54.600561" lon="-3.206410"><ele>344</ele><time>2019-10-02T10:28:32Z</time><name>PT2043</name></trkpt>
<trkpt lat="54.600557" lon="-3.206423"><ele>344</ele><time>2019-10-02T10:28:33Z</time><name>PT2044</name></trkpt>
<trkpt lat="54.600552" lon="-3.206437"><ele>344</ele><time>2019-10-02T10:28:34Z</time><name>PT2045</name></trkpt>
<trkpt lat="54.600549" lon="-3.206449"><ele>345</ele><time>2019-10-02T10:28:35Z</time><name>PT2046</name></trkpt>
<trkpt lat="54.600545" lon="-3.206467"><ele>345</ele><time>2019-10-02T10:28:36Z</time><name>PT2047</name></trkpt>
<trkpt lat="54.600539" lon="-3.206482"><ele>345</ele><time>2019-10-02T10:28:37Z</time><name>PT2048</name></trkpt>
<trkpt lat="54.600532" lon="-3.206497"><ele>345</ele><time>2019-10-02T10:28:38Z</time><name>PT2049</name></trkpt>
<trkpt lat="54.600529" lon="-3.206510"><ele>345</ele><time>2019-10-02T10:28:39Z</time><name>PT2050</name></trkpt>
<trkpt lat="54.600525" lon="-3.206525"><ele>345</ele><time>2019-10-02T10:28:40Z</time><name>PT2051</name></trkpt>
<trkpt lat="54.600522" lon="-3.206539"><ele>345</ele><time>2019-10-02T10:28:41Z</time><name>PT2052</name></trkpt>
<trkpt lat="54.600517" lon="-3.206553"><ele>346</ele><time>2019-10-02T10:28:42Z</time><name>PT2053</name></trkpt>
<trkpt lat="54.600512" lon="-3.206565"><ele>346</ele><time>2019-10-02T10:28:43Z</time><name>PT2054</name></trkpt>
<trkpt lat="54.600507" lon="-3.206577"><ele>346</ele><time>2019-10-02T10:28:44Z</time><name>PT2055</name></trkpt>
<trkpt lat="54.600503" lon="-3.206583"><ele>346</ele><time>2019-10-02T10:28:45Z</time><name>PT2056</name></trkpt>
<trkpt lat="54.600502" lon="-3.206585"><ele>346</ele><time>2019-10-02T10:28:46Z</time><name>PT2057</name></trkpt>
<trkpt lat="54.600501" lon="-3.206589"><ele>346</ele><time>2019-10-02T10:28:47Z</time><name>PT2058</name></trkpt>
<trkpt lat="54.600500" lon="-3.206592"><ele>345</ele><time>2019-10-02T10:28:48Z</time><name>PT2059</name></trkpt>
<trkpt lat="54.600496" lon="-3.206599"><ele>346</ele><time>2019-10-02T10:28:53Z</time><name>PT2060</name></trkpt>
<trkpt lat="54.600488" lon="-3.206614"><ele>346</ele><time>2019-10-02T10:28:54Z</time><name>PT2061</name></trkpt>
<trkpt lat="54.600479" lon="-3.206629"><ele>346</ele><time>2019-10-02T10:28:55Z</time><name>PT2062</name></trkpt>
<trkpt lat="54.600474" lon="-3.206639"><ele>346</ele><time>2019-10-02T10:28:56Z</time><name>PT2063</name></trkpt>
<trkpt lat="54.600467" lon="-3.206650"><ele>347</ele><time>2019-10-02T10:28:57Z</time><name>PT2064</name></trkpt>
<trkpt lat="54.600459" lon="-3.206664"><ele>347</ele><time>2019-10-02T10:28:58Z</time><name>PT2065</name></trkpt>
<trkpt lat="54.600453" lon="-3.206674"><ele>347</ele><time>2019-10-02T10:28:59Z</time><name>PT2066</name></trkpt>
<trkpt lat="54.600445" lon="-3.206684"><ele>347</ele><time>2019-10-02T10:29:00Z</time><name>PT2067</name></trkpt>
<trkpt lat="54.600438" lon="-3.206696"><ele>347</ele><time>2019-10-02T10:29:01Z</time><name>PT2068</name></trkpt>
<trkpt lat="54.600433" lon="-3.206706"><ele>348</ele><time>2019-10-02T10:29:02Z</time><name>PT2069</name></trkpt>
<trkpt lat="54.600427" lon="-3.206717"><ele>348</ele><time>2019-10-02T10:29:03Z</time><name>PT2070</name></trkpt>
<trkpt lat="54.600423" lon="-3.206725"><ele>348</ele><time>2019-10-02T10:29:04Z</time><name>PT2071</name></trkpt>
<trkpt lat="54.600421" lon="-3.206737"><ele>348</ele><time>2019-10-02T10:29:05Z</time><name>PT2072</name></trkpt>
<trkpt lat="54.600419" lon="-3.206749"><ele>348</ele><time>2019-10-02T10:29:06Z</time><name>PT2073</name></trkpt>
<trkpt lat="54.600415" lon="-3.206761"><ele>348</ele><time>2019-10-02T10:29:07Z</time><name>PT2074</name></trkpt>
<trkpt lat="54.600409" lon="-3.206774"><ele>349</ele><time>2019-10-02T10:29:08Z</time><name>PT2075</name></trkpt>
<trkpt lat="54.600402" lon="-3.206784"><ele>349</ele><time>2019-10-02T10:29:09Z</time><name>PT2076</name></trkpt>
<trkpt lat="54.600395" lon="-3.206796"><ele>349</ele><time>2019-10-02T10:29:10Z</time><name>PT2077</name></trkpt>
<trkpt lat="54.600389" lon="-3.206806"><ele>349</ele><time>2019-10-02T10:29:11Z</time><name>PT2078</name></trkpt>
<trkpt lat="54.600383" lon="-3.206816"><ele>349</ele><time>2019-10-02T10:29:12Z</time><name>PT2079</name></trkpt>
<trkpt lat="54.600378" lon="-3.206826"><ele>349</ele><time>2019-10-02T10:29:13Z</time><name>PT2080</name></trkpt>
<trkpt lat="54.600374" lon="-3.206833"><ele>350</ele><time>2019-10-02T10:29:14Z</time><name>PT2081</name></trkpt>
<trkpt lat="54.600369" lon="-3.206841"><ele>350</ele><time>2019-10-02T10:29:15Z</time><name>PT2082</name></trkpt>
<trkpt lat="54.600365" lon="-3.206850"><ele>350</ele><time>2019-10-02T10:29:16Z</time><name>PT2083</name></trkpt>
<trkpt lat="54.600360" lon="-3.206863"><ele>350</ele><time>2019-10-02T10:29:17Z</time><name>PT2084</name></trkpt>
<trkpt lat="54.600355" lon="-3.206874"><ele>351</ele><time>2019-10-02T10:29:18Z</time><name>PT2085</name></trkpt>
<trkpt lat="54.600349" lon="-3.206882"><ele>351</ele><time>2019-10-02T10:29:19Z</time><name>PT2086</name></trkpt>
<trkpt lat="54.600344" lon="-3.206888"><ele>351</ele><time>2019-10-02T10:29:20Z</time><name>PT2087</name></trkpt>
<trkpt lat="54.600336" lon="-3.206896"><ele>351</ele><time>2019-10-02T10:29:21Z</time><name>PT2088</name></trkpt>
<trkpt lat="54.600331" lon="-3.206908"><ele>351</ele><time>2019-10-02T10:29:22Z</time><name>PT2089</name></trkpt>
<trkpt lat="54.600324" lon="-3.206921"><ele>351</ele><time>2019-10-02T10:29:23Z</time><name>PT2090</name></trkpt>
<trkpt lat="54.600318" lon="-3.206933"><ele>352</ele><time>2019-10-02T10:29:24Z</time><name>PT2091</name></trkpt>
<trkpt lat="54.600311" lon="-3.206944"><ele>352</ele><time>2019-10-02T10:29:25Z</time><name>PT2092</name></trkpt>
<trkpt lat="54.600304" lon="-3.206953"><ele>352</ele><time>2019-10-02T10:29:26Z</time><name>PT2093</name></trkpt>
<trkpt lat="54.600299" lon="-3.206965"><ele>352</ele><time>2019-10-02T10:29:27Z</time><name>PT2094</name></trkpt>
<trkpt lat="54.600295" lon="-3.206978"><ele>352</ele><time>2019-10-02T10:29:28Z</time><name>PT2095</name></trkpt>
<trkpt lat="54.600289" lon="-3.206987"><ele>353</ele><time>2019-10-02T10:29:29Z</time><name>PT2096</name></trkpt>
<trkpt lat="54.600282" lon="-3.206997"><ele>353</ele><time>2019-10-02T10:29:30Z</time><name>PT2097</name></trkpt>
<trkpt lat="54.600277" lon="-3.207008"><ele>353</ele><time>2019-10-02T10:29:31Z</time><name>PT2098</name></trkpt>
<trkpt lat="54.600271" lon="-3.207021"><ele>353</ele><time>2019-10-02T10:29:32Z</time><name>PT2099</name></trkpt>
<trkpt lat="54.600265" lon="-3.207030"><ele>353</ele><time>2019-10-02T10:29:33Z</time><name>PT2100</name></trkpt>
<trkpt lat="54.600258" lon="-3.207041"><ele>353</ele><time>2019-10-02T10:29:34Z</time><name>PT2101</name></trkpt>
<trkpt lat="54.600254" lon="-3.207054"><ele>353</ele><time>2019-10-02T10:29:35Z</time><name>PT2102</name></trkpt>
<trkpt lat="54.600249" lon="-3.207067"><ele>353</ele><time>2019-10-02T10:29:36Z</time><name>PT2103</name></trkpt>
<trkpt lat="54.600245" lon="-3.207079"><ele>354</ele><time>2019-10-02T10:29:37Z</time><name>PT2104</name></trkpt>
<trkpt lat="54.600240" lon="-3.207086"><ele>354</ele><time>2019-10-02T10:29:38Z</time><name>PT2105</name></trkpt>
<trkpt lat="54.600234" lon="-3.207095"><ele>354</ele><time>2019-10-02T10:29:39Z</time><name>PT2106</name></trkpt>
<trkpt lat="54.600230" lon="-3.207107"><ele>354</ele><time>2019-10-02T10:29:40Z</time><name>PT2107</name></trkpt>
<trkpt lat="54.600225" lon="-3.207120"><ele>354</ele><time>2019-10-02T10:29:41Z</time><name>PT2108</name></trkpt>
<trkpt lat="54.600217" lon="-3.207131"><ele>354</ele><time>2019-10-02T10:29:42Z</time><name>PT2109</name></trkpt>
<trkpt lat="54.600212" lon="-3.207142"><ele>354</ele><time>2019-10-02T10:29:43Z</time><name>PT2110</name></trkpt>
<trkpt lat="54.600208" lon="-3.207153"><ele>354</ele><time>2019-10-02T10:29:44Z</time><name>PT2111</name></trkpt>
<trkpt lat="54.600202" lon="-3.207164"><ele>354</ele><time>2019-10-02T10:29:45Z</time><name>PT2112</name></trkpt>
<trkpt lat="54.600195" lon="-3.207174"><ele>355</ele><time>2019-10-02T10:29:46Z</time><name>PT2113</name></trkpt>
<trkpt lat="54.600189" lon="-3.207185"><ele>355</ele><time>2019-10-02T10:29:47Z</time><name>PT2114</name></trkpt>
<trkpt lat="54.600185" lon="-3.207196"><ele>355</ele><time>2019-10-02T10:29:48Z</time><name>PT2115</name></trkpt>
<trkpt lat="54.600180" lon="-3.207209"><ele>355</ele><time>2019-10-02T10:29:49Z</time><name>PT2116</name></trkpt>
<trkpt lat="54.600175" lon="-3.207217"><ele>355</ele><time>2019-10-02T10:29:50Z</time><name>PT2117</name></trkpt>
<trkpt lat="54.600171" lon="-3.207223"><ele>355</ele><time>2019-10-02T10:29:51Z</time><name>PT2118</name></trkpt>
<trkpt lat="54.600167" lon="-3.207234"><ele>355</ele><time>2019-10-02T10:29:52Z</time><name>PT2119</name></trkpt>
<trkpt lat="54.600160" lon="-3.207246"><ele>355</ele><time>2019-10-02T10:29:53Z</time><name>PT2120</name></trkpt>
<trkpt lat="54.600154" lon="-3.207257"><ele>355</ele><time>2019-10-02T10:29:54Z</time><name>PT2121</name></trkpt>
<trkpt lat="54.600146" lon="-3.207271"><ele>355</ele><time>2019-10-02T10:29:55Z</time><name>PT2122</name></trkpt>
<trkpt lat="54.600140" lon="-3.207283"><ele>355</ele><time>2019-10-02T10:29:56Z</time><name>PT2123</name></trkpt>
<trkpt lat="54.600134" lon="-3.207294"><ele>355</ele><time>2019-10-02T10:29:57Z</time><name>PT2124</name></trkpt>
<trkpt lat="54.600127" lon="-3.207304"><ele>355</ele><time>2019-10-02T10:29:58Z</time><name>PT2125</name></trkpt>
<trkpt lat="54.600122" lon="-3.207315"><ele>356</ele><time>2019-10-02T10:29:59Z</time><name>PT2126</name></trkpt>
<trkpt lat="54.600118" lon="-3.207325"><ele>356</ele><time>2019-10-02T10:30:00Z</time><name>PT2127</name></trkpt>
<trkpt lat="54.600114" lon="-3.207337"><ele>356</ele><time>2019-10-02T10:30:01Z</time><name>PT2128</name></trkpt>
<trkpt lat="54.600109" lon="-3.207346"><ele>356</ele><time>2019-10-02T10:30:02Z</time><name>PT2129</name></trkpt>
<trkpt lat="54.600104" lon="-3.207357"><ele>357</ele><time>2019-10-02T10:30:03Z</time><name>PT2130</name></trkpt>
<trkpt lat="54.600100" lon="-3.207368"><ele>357</ele><time>2019-10-02T10:30:04Z</time><name>PT2131</name></trkpt>
<trkpt lat="54.600094" lon="-3.207377"><ele>357</ele><time>2019-10-02T10:30:05Z</time><name>PT2132</name></trkpt>
<trkpt lat="54.600088" lon="-3.207386"><ele>358</ele><time>2019-10-02T10:30:06Z</time><name>PT2133</name></trkpt>
<trkpt lat="54.600084" lon="-3.207395"><ele>358</ele><time>2019-10-02T10:30:07Z</time><name>PT2134</name></trkpt>
<trkpt lat="54.600082" lon="-3.207407"><ele>358</ele><time>2019-10-02T10:30:08Z</time><name>PT2135</name></trkpt>
<trkpt lat="54.600079" lon="-3.207417"><ele>359</ele><time>2019-10-02T10:30:09Z</time><name>PT2136</name></trkpt>
<trkpt lat="54.600073" lon="-3.207427"><ele>359</ele><time>2019-10-02T10:30:10Z</time><name>PT2137</name></trkpt>
<trkpt lat="54.600067" lon="-3.207439"><ele>359</ele><time>2019-10-02T10:30:11Z</time><name>PT2138</name></trkpt>
<trkpt lat="54.600061" lon="-3.207451"><ele>359</ele><time>2019-10-02T10:30:12Z</time><name>PT2139</name></trkpt>
<trkpt lat="54.600054" lon="-3.207461"><ele>359</ele><time>2019-10-02T10:30:13Z</time><name>PT2140</name></trkpt>
<trkpt lat="54.600047" lon="-3.207471"><ele>359</ele><time>2019-10-02T10:30:14Z</time><name>PT2141</name></trkpt>
<trkpt lat="54.600040" lon="-3.207483"><ele>359</ele><time>2019-10-02T10:30:15Z</time><name>PT2142</name></trkpt>
<trkpt lat="54.600034" lon="-3.207495"><ele>359</ele><time>2019-10-02T10:30:16Z</time><name>PT2143</name></trkpt>
<trkpt lat="54.600028" lon="-3.207505"><ele>359</ele><time>2019-10-02T10:30:17Z</time><name>PT2144</name></trkpt>
<trkpt lat="54.600024" lon="-3.207518"><ele>360</ele><time>2019-10-02T10:30:18Z</time><name>PT2145</name></trkpt>
<trkpt lat="54.600019" lon="-3.207531"><ele>360</ele><time>2019-10-02T10:30:19Z</time><name>PT2146</name></trkpt>
<trkpt lat="54.600012" lon="-3.207541"><ele>359</ele><time>2019-10-02T10:30:20Z</time><name>PT2147</name></trkpt>
<trkpt lat="54.600006" lon="-3.207554"><ele>360</ele><time>2019-10-02T10:30:21Z</time><name>PT2148</name></trkpt>
<trkpt lat="54.600000" lon="-3.207565"><ele>360</ele><time>2019-10-02T10:30:22Z</time><name>PT2149</name></trkpt>
<trkpt lat="54.599993" lon="-3.207579"><ele>360</ele><time>2019-10-02T10:30:23Z</time><name>PT2150</name></trkpt>
<trkpt lat="54.599989" lon="-3.207595"><ele>360</ele><time>2019-10-02T10:30:24Z</time><name>PT2151</name></trkpt>
<trkpt lat="54.599983" lon="-3.207610"><ele>360</ele><time>2019-10-02T10:30:25Z</time><name>PT2152</name></trkpt>
<trkpt lat="54.599977" lon="-3.207625"><ele>360</ele><time>2019-10-02T10:30:26Z</time><name>PT2153</name></trkpt>
<trkpt lat="54.599973" lon="-3.207631"><ele>360</ele><time>2019-10-02T10:30:27Z</time><name>PT2154</name></trkpt>
<trkpt lat="54.599967" lon="-3.207640"><ele>360</ele><time>2019-10-02T10:30:28Z</time><name>PT2155</name></trkpt>
<trkpt lat="54.599959" lon="-3.207654"><ele>360</ele><time>2019-10-02T10:30:29Z</time><name>PT2156</name></trkpt>
<trkpt lat="54.599954" lon="-3.207667"><ele>360</ele><time>2019-10-02T10:30:30Z</time><name>PT2157</name></trkpt>
<trkpt lat="54.599946" lon="-3.207680"><ele>360</ele><time>2019-10-02T10:30:31Z</time><name>PT2158</name></trkpt>
<trkpt lat="54.599942" lon="-3.207695"><ele>361</ele><time>2019-10-02T10:30:32Z</time><name>PT2159</name></trkpt>
<trkpt lat="54.599936" lon="-3.207711"><ele>361</ele><time>2019-10-02T10:30:33Z</time><name>PT2160</name></trkpt>
<trkpt lat="54.599932" lon="-3.207723"><ele>362</ele><time>2019-10-02T10:30:34Z</time><name>PT2161</name></trkpt>
<trkpt lat="54.599925" lon="-3.207734"><ele>362</ele><time>2019-10-02T10:30:35Z</time><name>PT2162</name></trkpt>
<trkpt lat="54.599919" lon="-3.207749"><ele>362</ele><time>2019-10-02T10:30:36Z</time><name>PT2163</name></trkpt>
<trkpt lat="54.599914" lon="-3.207760"><ele>362</ele><time>2019-10-02T10:30:37Z</time><name>PT2164</name></trkpt>
<trkpt lat="54.599908" lon="-3.207769"><ele>362</ele><time>2019-10-02T10:30:38Z</time><name>PT2165</name></trkpt>
<trkpt lat="54.599901" lon="-3.207776"><ele>363</ele><time>2019-10-02T10:30:39Z</time><name>PT2166</name></trkpt>
<trkpt lat="54.599895" lon="-3.207787"><ele>363</ele><time>2019-10-02T10:30:40Z</time><name>PT2167</name></trkpt>
<trkpt lat="54.599890" lon="-3.207799"><ele>363</ele><time>2019-10-02T10:30:41Z</time><name>PT2168</name></trkpt>
<trkpt lat="54.599883" lon="-3.207809"><ele>363</ele><time>2019-10-02T10:30:42Z</time><name>PT2169</name></trkpt>
<trkpt lat="54.599876" lon="-3.207818"><ele>363</ele><time>2019-10-02T10:30:43Z</time><name>PT2170</name></trkpt>
<trkpt lat="54.599867" lon="-3.207827"><ele>364</ele><time>2019-10-02T10:30:44Z</time><name>PT2171</name></trkpt>
<trkpt lat="54.599860" lon="-3.207838"><ele>364</ele><time>2019-10-02T10:30:45Z</time><name>PT2172</name></trkpt>
<trkpt lat="54.599853" lon="-3.207852"><ele>364</ele><time>2019-10-02T10:30:46Z</time><name>PT2173</name></trkpt>
<trkpt lat="54.599846" lon="-3.207863"><ele>364</ele><time>2019-10-02T10:30:47Z</time><name>PT2174</name></trkpt>
<trkpt lat="54.599838" lon="-3.207874"><ele>364</ele><time>2019-10-02T10:30:48Z</time><name>PT2175</name></trkpt>
<trkpt lat="54.599832" lon="-3.207885"><ele>364</ele><time>2019-10-02T10:30:49Z</time><name>PT2176</name></trkpt>
<trkpt lat="54.599825" lon="-3.207896"><ele>365</ele><time>2019-10-02T10:30:50Z</time><name>PT2177</name></trkpt>
<trkpt lat="54.599817" lon="-3.207906"><ele>365</ele><time>2019-10-02T10:30:51Z</time><name>PT2178</name></trkpt>
<trkpt lat="54.599810" lon="-3.207918"><ele>365</ele><time>2019-10-02T10:30:52Z</time><name>PT2179</name></trkpt>
<trkpt lat="54.599804" lon="-3.207928"><ele>365</ele><time>2019-10-02T10:30:53Z</time><name>PT2180</name></trkpt>
<trkpt lat="54.599797" lon="-3.207940"><ele>365</ele><time>2019-10-02T10:30:54Z</time><name>PT2181</name></trkpt>
<trkpt lat="54.599790" lon="-3.207952"><ele>365</ele><time>2019-10-02T10:30:55Z</time><name>PT2182</name></trkpt>
<trkpt lat="54.599783" lon="-3.207962"><ele>366</ele><time>2019-10-02T10:30:56Z</time><name>PT2183</name></trkpt>
<trkpt lat="54.599777" lon="-3.207973"><ele>366</ele><time>2019-10-02T10:30:57Z</time><name>PT2184</name></trkpt>
<trkpt lat="54.599770" lon="-3.207989"><ele>366</ele><time>2019-10-02T10:30:58Z</time><name>PT2185</name></trkpt>
<trkpt lat="54.599763" lon="-3.208002"><ele>366</ele><time>2019-10-02T10:30:59Z</time><name>PT2186</name></trkpt>
<trkpt lat="54.599755" lon="-3.208013"><ele>366</ele><time>2019-10-02T10:31:00Z</time><name>PT2187</name></trkpt>
<trkpt lat="54.599747" lon="-3.208025"><ele>366</ele><time>2019-10-02T10:31:01Z</time><name>PT2188</name></trkpt>
<trkpt lat="54.599739" lon="-3.208039"><ele>366</ele><time>2019-10-02T10:31:02Z</time><name>PT2189</name></trkpt>
<trkpt lat="54.599733" lon="-3.208050"><ele>366</ele><time>2019-10-02T10:31:03Z</time><name>PT2190</name></trkpt>
<trkpt lat="54.599726" lon="-3.208061"><ele>366</ele><time>2019-10-02T10:31:04Z</time><name>PT2191</name></trkpt>
<trkpt lat="54.599719" lon="-3.208070"><ele>366</ele><time>2019-10-02T10:31:05Z</time><name>PT2192</name></trkpt>
<trkpt lat="54.599713" lon="-3.208080"><ele>366</ele><time>2019-10-02T10:31:06Z</time><name>PT2193</name></trkpt>
<trkpt lat="54.599706" lon="-3.208087"><ele>366</ele><time>2019-10-02T10:31:07Z</time><name>PT2194</name></trkpt>
<trkpt lat="54.599702" lon="-3.208094"><ele>366</ele><time>2019-10-02T10:31:08Z</time><name>PT2195</name></trkpt>
<trkpt lat="54.599696" lon="-3.208104"><ele>366</ele><time>2019-10-02T10:31:09Z</time><name>PT2196</name></trkpt>
<trkpt lat="54.599690" lon="-3.208114"><ele>366</ele><time>2019-10-02T10:31:10Z</time><name>PT2197</name></trkpt>
<trkpt lat="54.599684" lon="-3.208118"><ele>367</ele><time>2019-10-02T10:31:11Z</time><name>PT2198</name></trkpt>
<trkpt lat="54.599677" lon="-3.208125"><ele>367</ele><time>2019-10-02T10:31:12Z</time><name>PT2199</name></trkpt>
<trkpt lat="54.599669" lon="-3.208134"><ele>367</ele><time>2019-10-02T10:31:13Z</time><name>PT2200</name></trkpt>
<trkpt lat="54.599662" lon="-3.208146"><ele>367</ele><time>2019-10-02T10:31:14Z</time><name>PT2201</name></trkpt>
<trkpt lat="54.599656" lon="-3.208160"><ele>367</ele><time>2019-10-02T10:31:15Z</time><name>PT2202</name></trkpt>
<trkpt lat="54.599649" lon="-3.208170"><ele>367</ele><time>2019-10-02T10:31:16Z</time><name>PT2203</name></trkpt>
<trkpt lat="54.599642" lon="-3.208179"><ele>368</ele><time>2019-10-02T10:31:17Z</time><name>PT2204</name></trkpt>
<trkpt lat="54.599634" lon="-3.208189"><ele>368</ele><time>2019-10-02T10:31:18Z</time><name>PT2205</name></trkpt>
<trkpt lat="54.599625" lon="-3.208201"><ele>368</ele><time>2019-10-02T10:31:19Z</time><name>PT2206</name></trkpt>
<trkpt lat="54.599619" lon="-3.208213"><ele>368</ele><time>2019-10-02T10:31:20Z</time><name>PT2207</name></trkpt>
<trkpt lat="54.599612" lon="-3.208223"><ele>368</ele><time>2019-10-02T10:31:21Z</time><name>PT2208</name></trkpt>
<trkpt lat="54.599604" lon="-3.208233"><ele>369</ele><time>2019-10-02T10:31:22Z</time><name>PT2209</name></trkpt>
<trkpt lat="54.599598" lon="-3.208243"><ele>369</ele><time>2019-10-02T10:31:23Z</time><name>PT2210</name></trkpt>
<trkpt lat="54.599593" lon="-3.208251"><ele>369</ele><time>2019-10-02T10:31:24Z</time><name>PT2211</name></trkpt>
<trkpt lat="54.599587" lon="-3.208261"><ele>369</ele><time>2019-10-02T10:31:25Z</time><name>PT2212</name></trkpt>
<trkpt lat="54.599581" lon="-3.208268"><ele>369</ele><time>2019-10-02T10:31:26Z</time><name>PT2213</name></trkpt>
<trkpt lat="54.599577" lon="-3.208270"><ele>370</ele><time>2019-10-02T10:31:27Z</time><name>PT2214</name></trkpt>
<trkpt lat="54.599568" lon="-3.208275"><ele>370</ele><time>2019-10-02T10:31:28Z</time><name>PT2215</name></trkpt>
<trkpt lat="54.599563" lon="-3.208283"><ele>370</ele><time>2019-10-02T10:31:29Z</time><name>PT2216</name></trkpt>
<trkpt lat="54.599559" lon="-3.208287"><ele>370</ele><time>2019-10-02T10:31:30Z</time><name>PT2217</name></trkpt>
<trkpt lat="54.599553" lon="-3.208291"><ele>370</ele><time>2019-10-02T10:31:31Z</time><name>PT2218</name></trkpt>
<trkpt lat="54.599547" lon="-3.208300"><ele>370</ele><time>2019-10-02T10:31:32Z</time><name>PT2219</name></trkpt>
<trkpt lat="54.599539" lon="-3.208311"><ele>370</ele><time>2019-10-02T10:31:33Z</time><name>PT2220</name></trkpt>
<trkpt lat="54.599532" lon="-3.208321"><ele>371</ele><time>2019-10-02T10:31:34Z</time><name>PT2221</name></trkpt>
<trkpt lat="54.599526" lon="-3.208329"><ele>371</ele><time>2019-10-02T10:31:35Z</time><name>PT2222</name></trkpt>
<trkpt lat="54.599520" lon="-3.208337"><ele>371</ele><time>2019-10-02T10:31:36Z</time><name>PT2223</name></trkpt>
<trkpt lat="54.599514" lon="-3.208346"><ele>371</ele><time>2019-10-02T10:31:37Z</time><name>PT2224</name></trkpt>
<trkpt lat="54.599508" lon="-3.208359"><ele>372</ele><time>2019-10-02T10:31:38Z</time><name>PT2225</name></trkpt>
<trkpt lat="54.599500" lon="-3.208370"><ele>372</ele><time>2019-10-02T10:31:39Z</time><name>PT2226</name></trkpt>
<trkpt lat="54.599493" lon="-3.208379"><ele>372</ele><time>2019-10-02T10:31:40Z</time><name>PT2227</name></trkpt>
<trkpt lat="54.599487" lon="-3.208388"><ele>372</ele><time>2019-10-02T10:31:41Z</time><name>PT2228</name></trkpt>
<trkpt lat="54.599482" lon="-3.208402"><ele>372</ele><time>2019-10-02T10:31:42Z</time><name>PT2229</name></trkpt>
<trkpt lat="54.599475" lon="-3.208413"><ele>372</ele><time>2019-10-02T10:31:43Z</time><name>PT2230</name></trkpt>
<trkpt lat="54.599469" lon="-3.208420"><ele>373</ele><time>2019-10-02T10:31:44Z</time><name>PT2231</name></trkpt>
<trkpt lat="54.599462" lon="-3.208425"><ele>373</ele><time>2019-10-02T10:31:45Z</time><name>PT2232</name></trkpt>
<trkpt lat="54.599455" lon="-3.208436"><ele>373</ele><time>2019-10-02T10:31:46Z</time><name>PT2233</name></trkpt>
<trkpt lat="54.599447" lon="-3.208448"><ele>373</ele><time>2019-10-02T10:31:47Z</time><name>PT2234</name></trkpt>
<trkpt lat="54.599439" lon="-3.208458"><ele>373</ele><time>2019-10-02T10:31:48Z</time><name>PT2235</name></trkpt>
<trkpt lat="54.599432" lon="-3.208469"><ele>373</ele><time>2019-10-02T10:31:49Z</time><name>PT2236</name></trkpt>
<trkpt lat="54.599425" lon="-3.208478"><ele>374</ele><time>2019-10-02T10:31:50Z</time><name>PT2237</name></trkpt>
<trkpt lat="54.599418" lon="-3.208491"><ele>374</ele><time>2019-10-02T10:31:51Z</time><name>PT2238</name></trkpt>
<trkpt lat="54.599410" lon="-3.208502"><ele>374</ele><time>2019-10-02T10:31:52Z</time><name>PT2239</name></trkpt>
<trkpt lat="54.599402" lon="-3.208512"><ele>374</ele><time>2019-10-02T10:31:53Z</time><name>PT2240</name></trkpt>
<trkpt lat="54.599394" lon="-3.208523"><ele>374</ele><time>2019-10-02T10:31:54Z</time><name>PT2241</name></trkpt>
<trkpt lat="54.599387" lon="-3.208534"><ele>374</ele><time>2019-10-02T10:31:55Z</time><name>PT2242</name></trkpt>
<trkpt lat="54.599379" lon="-3.208545"><ele>374</ele><time>2019-10-02T10:31:56Z</time><name>PT2243</name></trkpt>
<trkpt lat="54.599372" lon="-3.208555"><ele>374</ele><time>2019-10-02T10:31:57Z</time><name>PT2244</name></trkpt>
<trkpt lat="54.599364" lon="-3.208566"><ele>375</ele><time>2019-10-02T10:31:58Z</time><name>PT2245</name></trkpt>
<trkpt lat="54.599356" lon="-3.208576"><ele>375</ele><time>2019-10-02T10:31:59Z</time><name>PT2246</name></trkpt>
<trkpt lat="54.599349" lon="-3.208586"><ele>375</ele><time>2019-10-02T10:32:00Z</time><name>PT2247</name></trkpt>
<trkpt lat="54.599343" lon="-3.208599"><ele>375</ele><time>2019-10-02T10:32:01Z</time><name>PT2248</name></trkpt>
<trkpt lat="54.599338" lon="-3.208611"><ele>376</ele><time>2019-10-02T10:32:02Z</time><name>PT2249</name></trkpt>
<trkpt lat="54.599330" lon="-3.208623"><ele>376</ele><time>2019-10-02T10:32:03Z</time><name>PT2250</name></trkpt>
<trkpt lat="54.599323" lon="-3.208636"><ele>376</ele><time>2019-10-02T10:32:04Z</time><name>PT2251</name></trkpt>
<trkpt lat="54.599317" lon="-3.208650"><ele>376</ele><time>2019-10-02T10:32:05Z</time><name>PT2252</name></trkpt>
<trkpt lat="54.599312" lon="-3.208666"><ele>376</ele><time>2019-10-02T10:32:06Z</time><name>PT2253</name></trkpt>
<trkpt lat="54.599306" lon="-3.208680"><ele>376</ele><time>2019-10-02T10:32:07Z</time><name>PT2254</name></trkpt>
<trkpt lat="54.599300" lon="-3.208693"><ele>376</ele><time>2019-10-02T10:32:08Z</time><name>PT2255</name></trkpt>
<trkpt lat="54.599294" lon="-3.208706"><ele>376</ele><time>2019-10-02T10:32:09Z</time><name>PT2256</name></trkpt>
<trkpt lat="54.599287" lon="-3.208719"><ele>376</ele><time>2019-10-02T10:32:10Z</time><name>PT2257</name></trkpt>
<trkpt lat="54.599281" lon="-3.208733"><ele>377</ele><time>2019-10-02T10:32:11Z</time><name>PT2258</name></trkpt>
<trkpt lat="54.599276" lon="-3.208748"><ele>377</ele><time>2019-10-02T10:32:12Z</time><name>PT2259</name></trkpt>
<trkpt lat="54.599270" lon="-3.208761"><ele>377</ele><time>2019-10-02T10:32:13Z</time><name>PT2260</name></trkpt>
<trkpt lat="54.599265" lon="-3.208774"><ele>377</ele><time>2019-10-02T10:32:14Z</time><name>PT2261</name></trkpt>
<trkpt lat="54.599256" lon="-3.208789"><ele>377</ele><time>2019-10-02T10:32:15Z</time><name>PT2262</name></trkpt>
<trkpt lat="54.599250" lon="-3.208804"><ele>377</ele><time>2019-10-02T10:32:16Z</time><name>PT2263</name></trkpt>
<trkpt lat="54.599243" lon="-3.208821"><ele>377</ele><time>2019-10-02T10:32:17Z</time><name>PT2264</name></trkpt>
<trkpt lat="54.599236" lon="-3.208835"><ele>377</ele><time>2019-10-02T10:32:18Z</time><name>PT2265</name></trkpt>
<trkpt lat="54.599230" lon="-3.208846"><ele>378</ele><time>2019-10-02T10:32:19Z</time><name>PT2266</name></trkpt>
<trkpt lat="54.599223" lon="-3.208859"><ele>378</ele><time>2019-10-02T10:32:20Z</time><name>PT2267</name></trkpt>
<trkpt lat="54.599215" lon="-3.208873"><ele>378</ele><time>2019-10-02T10:32:21Z</time><name>PT2268</name></trkpt>
<trkpt lat="54.599208" lon="-3.208885"><ele>378</ele><time>2019-10-02T10:32:22Z</time><name>PT2269</name></trkpt>
<trkpt lat="54.599200" lon="-3.208898"><ele>378</ele><time>2019-10-02T10:32:23Z</time><name>PT2270</name></trkpt>
<trkpt lat="54.599192" lon="-3.208907"><ele>378</ele><time>2019-10-02T10:32:24Z</time><name>PT2271</name></trkpt>
<trkpt lat="54.599183" lon="-3.208920"><ele>378</ele><time>2019-10-02T10:32:25Z</time><name>PT2272</name></trkpt>
<trkpt lat="54.599174" lon="-3.208931"><ele>378</ele><time>2019-10-02T10:32:26Z</time><name>PT2273</name></trkpt>
<trkpt lat="54.599166" lon="-3.208940"><ele>378</ele><time>2019-10-02T10:32:27Z</time><name>PT2274</name></trkpt>
<trkpt lat="54.599158" lon="-3.208954"><ele>378</ele><time>2019-10-02T10:32:28Z</time><name>PT2275</name></trkpt>
<trkpt lat="54.599149" lon="-3.208965"><ele>378</ele><time>2019-10-02T10:32:29Z</time><name>PT2276</name></trkpt>
<trkpt lat="54.599141" lon="-3.208977"><ele>378</ele><time>2019-10-02T10:32:30Z</time><name>PT2277</name></trkpt>
<trkpt lat="54.599130" lon="-3.208990"><ele>378</ele><time>2019-10-02T10:32:31Z</time><name>PT2278</name></trkpt>
<trkpt lat="54.599122" lon="-3.209003"><ele>378</ele><time>2019-10-02T10:32:32Z</time><name>PT2279</name></trkpt>
<trkpt lat="54.599112" lon="-3.209016"><ele>377</ele><time>2019-10-02T10:32:33Z</time><name>PT2280</name></trkpt>
<trkpt lat="54.599105" lon="-3.209029"><ele>378</ele><time>2019-10-02T10:32:34Z</time><name>PT2281</name></trkpt>
<trkpt lat="54.599095" lon="-3.209040"><ele>378</ele><time>2019-10-02T10:32:35Z</time><name>PT2282</name></trkpt>
<trkpt lat="54.599085" lon="-3.209052"><ele>378</ele><time>2019-10-02T10:32:36Z</time><name>PT2283</name></trkpt>
<trkpt lat="54.599077" lon="-3.209062"><ele>378</ele><time>2019-10-02T10:32:37Z</time><name>PT2284</name></trkpt>
<trkpt lat="54.599067" lon="-3.209075"><ele>378</ele><time>2019-10-02T10:32:38Z</time><name>PT2285</name></trkpt>
<trkpt lat="54.599056" lon="-3.209088"><ele>378</ele><time>2019-10-02T10:32:39Z</time><name>PT2286</name></trkpt>
<trkpt lat="54.599046" lon="-3.209096"><ele>378</ele><time>2019-10-02T10:32:40Z</time><name>PT2287</name></trkpt>
<trkpt lat="54.599035" lon="-3.209106"><ele>378</ele><time>2019-10-02T10:32:41Z</time><name>PT2288</name></trkpt>
<trkpt lat="54.599025" lon="-3.209116"><ele>378</ele><time>2019-10-02T10:32:42Z</time><name>PT2289</name></trkpt>
<trkpt lat="54.599015" lon="-3.209128"><ele>378</ele><time>2019-10-02T10:32:43Z</time><name>PT2290</name></trkpt>
<trkpt lat="54.599005" lon="-3.209140"><ele>378</ele><time>2019-10-02T10:32:44Z</time><name>PT2291</name></trkpt>
<trkpt lat="54.598994" lon="-3.209152"><ele>378</ele><time>2019-10-02T10:32:45Z</time><name>PT2292</name></trkpt>
<trkpt lat="54.598987" lon="-3.209166"><ele>379</ele><time>2019-10-02T10:32:46Z</time><name>PT2293</name></trkpt>
<trkpt lat="54.598980" lon="-3.209179"><ele>379</ele><time>2019-10-02T10:32:47Z</time><name>PT2294</name></trkpt>
<trkpt lat="54.598974" lon="-3.209197"><ele>379</ele><time>2019-10-02T10:32:48Z</time><name>PT2295</name></trkpt>
<trkpt lat="54.598966" lon="-3.209217"><ele>379</ele><time>2019-10-02T10:32:49Z</time><name>PT2296</name></trkpt>
<trkpt lat="54.598958" lon="-3.209231"><ele>379</ele><time>2019-10-02T10:32:50Z</time><name>PT2297</name></trkpt>
<trkpt lat="54.598949" lon="-3.209242"><ele>379</ele><time>2019-10-02T10:32:51Z</time><name>PT2298</name></trkpt>
<trkpt lat="54.598939" lon="-3.209252"><ele>379</ele><time>2019-10-02T10:32:52Z</time><name>PT2299</name></trkpt>
<trkpt lat="54.598933" lon="-3.209261"><ele>379</ele><time>2019-10-02T10:32:53Z</time><name>PT2300</name></trkpt>
<trkpt lat="54.598924" lon="-3.209272"><ele>379</ele><time>2019-10-02T10:32:54Z</time><name>PT2301</name></trkpt>
<trkpt lat="54.598917" lon="-3.209280"><ele>379</ele><time>2019-10-02T10:32:55Z</time><name>PT2302</name></trkpt>
<trkpt lat="54.598908" lon="-3.209295"><ele>378</ele><time>2019-10-02T10:32:56Z</time><name>PT2303</name></trkpt>
<trkpt lat="54.598900" lon="-3.209312"><ele>379</ele><time>2019-10-02T10:32:57Z</time><name>PT2304</name></trkpt>
<trkpt lat="54.598894" lon="-3.209329"><ele>379</ele><time>2019-10-02T10:32:58Z</time><name>PT2305</name></trkpt>
<trkpt lat="54.598884" lon="-3.209342"><ele>379</ele><time>2019-10-02T10:32:59Z</time><name>PT2306</name></trkpt>
<trkpt lat="54.598873" lon="-3.209352"><ele>379</ele><time>2019-10-02T10:33:00Z</time><name>PT2307</name></trkpt>
<trkpt lat="54.598864" lon="-3.209363"><ele>379</ele><time>2019-10-02T10:33:01Z</time><name>PT2308</name></trkpt>
<trkpt lat="54.598856" lon="-3.209379"><ele>379</ele><time>2019-10-02T10:33:02Z</time><name>PT2309</name></trkpt>
<trkpt lat="54.598848" lon="-3.209392"><ele>379</ele><time>2019-10-02T10:33:03Z</time><name>PT2310</name></trkpt>
<trkpt lat="54.598839" lon="-3.209403"><ele>379</ele><time>2019-10-02T10:33:04Z</time><name>PT2311</name></trkpt>
<trkpt lat="54.598828" lon="-3.209412"><ele>379</ele><time>2019-10-02T10:33:05Z</time><name>PT2312</name></trkpt>
<trkpt lat="54.598822" lon="-3.209422"><ele>379</ele><time>2019-10-02T10:33:06Z</time><name>PT2313</name></trkpt>
<trkpt lat="54.598815" lon="-3.209436"><ele>379</ele><time>2019-10-02T10:33:07Z</time><name>PT2314</name></trkpt>
<trkpt lat="54.598808" lon="-3.209448"><ele>379</ele><time>2019-10-02T10:33:08Z</time><name>PT2315</name></trkpt>
<trkpt lat="54.598800" lon="-3.209457"><ele>379</ele><time>2019-10-02T10:33:09Z</time><name>PT2316</name></trkpt>
<trkpt lat="54.598793" lon="-3.209466"><ele>379</ele><time>2019-10-02T10:33:10Z</time><name>PT2317</name></trkpt>
<trkpt lat="54.598786" lon="-3.209478"><ele>379</ele><time>2019-10-02T10:33:11Z</time><name>PT2318</name></trkpt>
<trkpt lat="54.598779" lon="-3.209484"><ele>379</ele><time>2019-10-02T10:33:12Z</time><name>PT2319</name></trkpt>
<trkpt lat="54.598773" lon="-3.209493"><ele>379</ele><time>2019-10-02T10:33:13Z</time><name>PT2320</name></trkpt>
<trkpt lat="54.598767" lon="-3.209507"><ele>379</ele><time>2019-10-02T10:33:14Z</time><name>PT2321</name></trkpt>
<trkpt lat="54.598760" lon="-3.209517"><ele>379</ele><time>2019-10-02T10:33:15Z</time><name>PT2322</name></trkpt>
<trkpt lat="54.598753" lon="-3.209525"><ele>379</ele><time>2019-10-02T10:33:16Z</time><name>PT2323</name></trkpt>
<trkpt lat="54.598748" lon="-3.209536"><ele>379</ele><time>2019-10-02T10:33:17Z</time><name>PT2324</name></trkpt>
<trkpt lat="54.598740" lon="-3.209547"><ele>379</ele><time>2019-10-02T10:33:18Z</time><name>PT2325</name></trkpt>
<trkpt lat="54.598733" lon="-3.209558"><ele>379</ele><time>2019-10-02T10:33:19Z</time><name>PT2326</name></trkpt>
<trkpt lat="54.598726" lon="-3.209571"><ele>379</ele><time>2019-10-02T10:33:20Z</time><name>PT2327</name></trkpt>
<trkpt lat="54.598719" lon="-3.209583"><ele>379</ele><time>2019-10-02T10:33:21Z</time><name>PT2328</name></trkpt>
<trkpt lat="54.598713" lon="-3.209594"><ele>379</ele><time>2019-10-02T10:33:22Z</time><name>PT2329</name></trkpt>
<trkpt lat="54.598705" lon="-3.209605"><ele>379</ele><time>2019-10-02T10:33:23Z</time><name>PT2330</name></trkpt>
<trkpt lat="54.598697" lon="-3.209614"><ele>379</ele><time>2019-10-02T10:33:24Z</time><name>PT2331</name></trkpt>
<trkpt lat="54.598690" lon="-3.209627"><ele>379</ele><time>2019-10-02T10:33:25Z</time><name>PT2332</name></trkpt>
<trkpt lat="54.598685" lon="-3.209642"><ele>379</ele><time>2019-10-02T10:33:26Z</time><name>PT2333</name></trkpt>
<trkpt lat="54.598680" lon="-3.209654"><ele>379</ele><time>2019-10-02T10:33:27Z</time><name>PT2334</name></trkpt>
<trkpt lat="54.598674" lon="-3.209667"><ele>379</ele><time>2019-10-02T10:33:28Z</time><name>PT2335</name></trkpt>
<trkpt lat="54.598665" lon="-3.209678"><ele>379</ele><time>2019-10-02T10:33:29Z</time><name>PT2336</name></trkpt>
<trkpt lat="54.598658" lon="-3.209693"><ele>379</ele><time>2019-10-02T10:33:30Z</time><name>PT2337</name></trkpt>
<trkpt lat="54.598652" lon="-3.209711"><ele>379</ele><time>2019-10-02T10:33:31Z</time><name>PT2338</name></trkpt>
<trkpt lat="54.598644" lon="-3.209729"><ele>378</ele><time>2019-10-02T10:33:32Z</time><name>PT2339</name></trkpt>
<trkpt lat="54.598635" lon="-3.209745"><ele>379</ele><time>2019-10-02T10:33:33Z</time><name>PT2340</name></trkpt>
<trkpt lat="54.598624" lon="-3.209762"><ele>378</ele><time>2019-10-02T10:33:34Z</time><name>PT2341</name></trkpt>
<trkpt lat="54.598614" lon="-3.209775"><ele>378</ele><time>2019-10-02T10:33:35Z</time><name>PT2342</name></trkpt>
<trkpt lat="54.598605" lon="-3.209792"><ele>378</ele><time>2019-10-02T10:33:36Z</time><name>PT2343</name></trkpt>
<trkpt lat="54.598597" lon="-3.209808"><ele>378</ele><time>2019-10-02T10:33:37Z</time><name>PT2344</name></trkpt>
<trkpt lat="54.598588" lon="-3.209825"><ele>378</ele><time>2019-10-02T10:33:38Z</time><name>PT2345</name></trkpt>
<trkpt lat="54.598579" lon="-3.209841"><ele>378</ele><time>2019-10-02T10:33:39Z</time><name>PT2346</name></trkpt>
<trkpt lat="54.598570" lon="-3.209853"><ele>378</ele><time>2019-10-02T10:33:40Z</time><name>PT2347</name></trkpt>
<trkpt lat="54.598561" lon="-3.209861"><ele>378</ele><time>2019-10-02T10:33:41Z</time><name>PT2348</name></trkpt>
<trkpt lat="54.598550" lon="-3.209870"><ele>378</ele><time>2019-10-02T10:33:42Z</time><name>PT2349</name></trkpt>
<trkpt lat="54.598541" lon="-3.209879"><ele>378</ele><time>2019-10-02T10:33:43Z</time><name>PT2350</name></trkpt>
<trkpt lat="54.598532" lon="-3.209888"><ele>378</ele><time>2019-10-02T10:33:44Z</time><name>PT2351</name></trkpt>
<trkpt lat="54.598529" lon="-3.209902"><ele>379</ele><time>2019-10-02T10:33:45Z</time><name>PT2352</name></trkpt>
<trkpt lat="54.598527" lon="-3.209906"><ele>379</ele><time>2019-10-02T10:33:46Z</time><name>PT2353</name></trkpt>
<trkpt lat="54.598527" lon="-3.209906"><ele>379</ele><time>2019-10-02T10:33:47Z</time><name>PT2354</name></trkpt>
<trkpt lat="54.598530" lon="-3.209907"><ele>379</ele><time>2019-10-02T10:33:48Z</time><name>PT2355</name></trkpt>
<trkpt lat="54.598525" lon="-3.209907"><ele>379</ele><time>2019-10-02T10:33:49Z</time><name>PT2356</name></trkpt>
<trkpt lat="54.598516" lon="-3.209912"><ele>379</ele><time>2019-10-02T10:33:50Z</time><name>PT2357</name></trkpt>
<trkpt lat="54.598505" lon="-3.209920"><ele>379</ele><time>2019-10-02T10:33:51Z</time><name>PT2358</name></trkpt>
<trkpt lat="54.598497" lon="-3.209929"><ele>379</ele><time>2019-10-02T10:33:52Z</time><name>PT2359</name></trkpt>
<trkpt lat="54.598487" lon="-3.209938"><ele>379</ele><time>2019-10-02T10:33:53Z</time><name>PT2360</name></trkpt>
<trkpt lat="54.598477" lon="-3.209946"><ele>379</ele><time>2019-10-02T10:33:54Z</time><name>PT2361</name></trkpt>
<trkpt lat="54.598468" lon="-3.209955"><ele>379</ele><time>2019-10-02T10:33:55Z</time><name>PT2362</name></trkpt>
<trkpt lat="54.598457" lon="-3.209964"><ele>379</ele><time>2019-10-02T10:33:56Z</time><name>PT2363</name></trkpt>
<trkpt lat="54.598446" lon="-3.209972"><ele>379</ele><time>2019-10-02T10:33:57Z</time><name>PT2364</name></trkpt>
<trkpt lat="54.598436" lon="-3.209982"><ele>379</ele><time>2019-10-02T10:33:58Z</time><name>PT2365</name></trkpt>
<trkpt lat="54.598427" lon="-3.209989"><ele>379</ele><time>2019-10-02T10:33:59Z</time><name>PT2366</name></trkpt>
<trkpt lat="54.598417" lon="-3.209998"><ele>380</ele><time>2019-10-02T10:34:00Z</time><name>PT2367</name></trkpt>
<trkpt lat="54.598407" lon="-3.210009"><ele>380</ele><time>2019-10-02T10:34:01Z</time><name>PT2368</name></trkpt>
<trkpt lat="54.598398" lon="-3.210022"><ele>380</ele><time>2019-10-02T10:34:02Z</time><name>PT2369</name></trkpt>
<trkpt lat="54.598389" lon="-3.210035"><ele>380</ele><time>2019-10-02T10:34:03Z</time><name>PT2370</name></trkpt>
<trkpt lat="54.598382" lon="-3.210049"><ele>380</ele><time>2019-10-02T10:34:04Z</time><name>PT2371</name></trkpt>
<trkpt lat="54.598380" lon="-3.210058"><ele>380</ele><time>2019-10-02T10:34:05Z</time><name>PT2372</name></trkpt>
<trkpt lat="54.598376" lon="-3.210060"><ele>380</ele><time>2019-10-02T10:34:06Z</time><name>PT2373</name></trkpt>
<trkpt lat="54.598367" lon="-3.210066"><ele>380</ele><time>2019-10-02T10:34:07Z</time><name>PT2374</name></trkpt>
<trkpt lat="54.598357" lon="-3.210079"><ele>380</ele><time>2019-10-02T10:34:08Z</time><name>PT2375</name></trkpt>
<trkpt lat="54.598348" lon="-3.210093"><ele>380</ele><time>2019-10-02T10:34:09Z</time><name>PT2376</name></trkpt>
<trkpt lat="54.598339" lon="-3.210108"><ele>380</ele><time>2019-10-02T10:34:10Z</time><name>PT2377</name></trkpt>
<trkpt lat="54.598331" lon="-3.210119"><ele>380</ele><time>2019-10-02T10:34:11Z</time><name>PT2378</name></trkpt>
<trkpt lat="54.598322" lon="-3.210130"><ele>380</ele><time>2019-10-02T10:34:12Z</time><name>PT2379</name></trkpt>
<trkpt lat="54.598313" lon="-3.210140"><ele>380</ele><time>2019-10-02T10:34:13Z</time><name>PT2380</name></trkpt>
<trkpt lat="54.598305" lon="-3.210152"><ele>380</ele><time>2019-10-02T10:34:14Z</time><name>PT2381</name></trkpt>
<trkpt lat="54.598299" lon="-3.210171"><ele>380</ele><time>2019-10-02T10:34:15Z</time><name>PT2382</name></trkpt>
<trkpt lat="54.598290" lon="-3.210185"><ele>380</ele><time>2019-10-02T10:34:16Z</time><name>PT2383</name></trkpt>
<trkpt lat="54.598283" lon="-3.210197"><ele>380</ele><time>2019-10-02T10:34:17Z</time><name>PT2384</name></trkpt>
<trkpt lat="54.598274" lon="-3.210208"><ele>380</ele><time>2019-10-02T10:34:18Z</time><name>PT2385</name></trkpt>
<trkpt lat="54.598266" lon="-3.210220"><ele>380</ele><time>2019-10-02T10:34:19Z</time><name>PT2386</name></trkpt>
<trkpt lat="54.598255" lon="-3.210234"><ele>380</ele><time>2019-10-02T10:34:20Z</time><name>PT2387</name></trkpt>
<trkpt lat="54.598246" lon="-3.210249"><ele>380</ele><time>2019-10-02T10:34:21Z</time><name>PT2388</name></trkpt>
<trkpt lat="54.598238" lon="-3.210260"><ele>380</ele><time>2019-10-02T10:34:22Z</time><name>PT2389</name></trkpt>
<trkpt lat="54.598229" lon="-3.210271"><ele>380</ele><time>2019-10-02T10:34:23Z</time><name>PT2390</name></trkpt>
<trkpt lat="54.598221" lon="-3.210281"><ele>380</ele><time>2019-10-02T10:34:24Z</time><name>PT2391</name></trkpt>
<trkpt lat="54.598215" lon="-3.210295"><ele>379</ele><time>2019-10-02T10:34:25Z</time><name>PT2392</name></trkpt>
<trkpt lat="54.598209" lon="-3.210307"><ele>379</ele><time>2019-10-02T10:34:26Z</time><name>PT2393</name></trkpt>
<trkpt lat="54.598203" lon="-3.210314"><ele>378</ele><time>2019-10-02T10:34:27Z</time><name>PT2394</name></trkpt>
<trkpt lat="54.598194" lon="-3.210322"><ele>378</ele><time>2019-10-02T10:34:28Z</time><name>PT2395</name></trkpt>
<trkpt lat="54.598186" lon="-3.210336"><ele>378</ele><time>2019-10-02T10:34:29Z</time><name>PT2396</name></trkpt>
<trkpt lat="54.598181" lon="-3.210355"><ele>378</ele><time>2019-10-02T10:34:30Z</time><name>PT2397</name></trkpt>
<trkpt lat="54.598174" lon="-3.210374"><ele>378</ele><time>2019-10-02T10:34:31Z</time><name>PT2398</name></trkpt>
<trkpt lat="54.598166" lon="-3.210395"><ele>378</ele><time>2019-10-02T10:34:32Z</time><name>PT2399</name></trkpt>
<trkpt lat="54.598157" lon="-3.210412"><ele>377</ele><time>2019-10-02T10:34:33Z</time><name>PT2400</name></trkpt>
<trkpt lat="54.598147" lon="-3.210425"><ele>377</ele><time>2019-10-02T10:34:34Z</time><name>PT2401</name></trkpt>
<trkpt lat="54.598136" lon="-3.210436"><ele>377</ele><time>2019-10-02T10:34:35Z</time><name>PT2402</name></trkpt>
<trkpt lat="54.598125" lon="-3.210446"><ele>377</ele><time>2019-10-02T10:34:36Z</time><name>PT2403</name></trkpt>
<trkpt lat="54.598115" lon="-3.210456"><ele>377</ele><time>2019-10-02T10:34:37Z</time><name>PT2404</name></trkpt>
<trkpt lat="54.598104" lon="-3.210468"><ele>377</ele><time>2019-10-02T10:34:38Z</time><name>PT2405</name></trkpt>
<trkpt lat="54.598093" lon="-3.210483"><ele>376</ele><time>2019-10-02T10:34:39Z</time><name>PT2406</name></trkpt>
<trkpt lat="54.598082" lon="-3.210497"><ele>376</ele><time>2019-10-02T10:34:40Z</time><name>PT2407</name></trkpt>
<trkpt lat="54.598071" lon="-3.210508"><ele>376</ele><time>2019-10-02T10:34:41Z</time><name>PT2408</name></trkpt>
<trkpt lat="54.598060" lon="-3.210519"><ele>376</ele><time>2019-10-02T10:34:42Z</time><name>PT2409</name></trkpt>
<trkpt lat="54.598048" lon="-3.210530"><ele>376</ele><time>2019-10-02T10:34:43Z</time><name>PT2410</name></trkpt>
<trkpt lat="54.598039" lon="-3.210544"><ele>377</ele><time>2019-10-02T10:34:44Z</time><name>PT2411</name></trkpt>
<trkpt lat="54.598029" lon="-3.210557"><ele>376</ele><time>2019-10-02T10:34:45Z</time><name>PT2412</name></trkpt>
<trkpt lat="54.598021" lon="-3.210571"><ele>376</ele><time>2019-10-02T10:34:46Z</time><name>PT2413</name></trkpt>
<trkpt lat="54.598010" lon="-3.210583"><ele>375</ele><time>2019-10-02T10:34:47Z</time><name>PT2414</name></trkpt>
<trkpt lat="54.598000" lon="-3.210598"><ele>375</ele><time>2019-10-02T10:34:48Z</time><name>PT2415</name></trkpt>
<trkpt lat="54.597988" lon="-3.210608"><ele>375</ele><time>2019-10-02T10:34:49Z</time><name>PT2416</name></trkpt>
<trkpt lat="54.597975" lon="-3.210617"><ele>375</ele><time>2019-10-02T10:34:50Z</time><name>PT2417</name></trkpt>
<trkpt lat="54.597962" lon="-3.210627"><ele>374</ele><time>2019-10-02T10:34:51Z</time><name>PT2418</name></trkpt>
<trkpt lat="54.597951" lon="-3.210642"><ele>374</ele><time>2019-10-02T10:34:52Z</time><name>PT2419</name></trkpt>
<trkpt lat="54.597940" lon="-3.210656"><ele>375</ele><time>2019-10-02T10:34:53Z</time><name>PT2420</name></trkpt>
<trkpt lat="54.597928" lon="-3.210662"><ele>375</ele><time>2019-10-02T10:34:54Z</time><name>PT2421</name></trkpt>
<trkpt lat="54.597918" lon="-3.210664"><ele>375</ele><time>2019-10-02T10:34:55Z</time><name>PT2422</name></trkpt>
<trkpt lat="54.597907" lon="-3.210670"><ele>375</ele><time>2019-10-02T10:34:56Z</time><name>PT2423</name></trkpt>
<trkpt lat="54.597895" lon="-3.210680"><ele>375</ele><time>2019-10-02T10:34:57Z</time><name>PT2424</name></trkpt>
<trkpt lat="54.597886" lon="-3.210691"><ele>375</ele><time>2019-10-02T10:34:58Z</time><name>PT2425</name></trkpt>
<trkpt lat="54.597876" lon="-3.210703"><ele>375</ele><time>2019-10-02T10:34:59Z</time><name>PT2426</name></trkpt>
<trkpt lat="54.597864" lon="-3.210714"><ele>375</ele><time>2019-10-02T10:35:00Z</time><name>PT2427</name></trkpt>
<trkpt lat="54.597853" lon="-3.210722"><ele>375</ele><time>2019-10-02T10:35:01Z</time><name>PT2428</name></trkpt>
<trkpt lat="54.597842" lon="-3.210730"><ele>375</ele><time>2019-10-02T10:35:02Z</time><name>PT2429</name></trkpt>
<trkpt lat="54.597830" lon="-3.210739"><ele>375</ele><time>2019-10-02T10:35:03Z</time><name>PT2430</name></trkpt>
<trkpt lat="54.597819" lon="-3.210749"><ele>375</ele><time>2019-10-02T10:35:04Z</time><name>PT2431</name></trkpt>
<trkpt lat="54.597808" lon="-3.210762"><ele>375</ele><time>2019-10-02T10:35:05Z</time><name>PT2432</name></trkpt>
<trkpt lat="54.597796" lon="-3.210774"><ele>375</ele><time>2019-10-02T10:35:06Z</time><name>PT2433</name></trkpt>
<trkpt lat="54.597786" lon="-3.210787"><ele>375</ele><time>2019-10-02T10:35:07Z</time><name>PT2434</name></trkpt>
<trkpt lat="54.597777" lon="-3.210799"><ele>375</ele><time>2019-10-02T10:35:08Z</time><name>PT2435</name></trkpt>
<trkpt lat="54.597768" lon="-3.210810"><ele>375</ele><time>2019-10-02T10:35:09Z</time><name>PT2436</name></trkpt>
<trkpt lat="54.597760" lon="-3.210824"><ele>375</ele><time>2019-10-02T10:35:10Z</time><name>PT2437</name></trkpt>
<trkpt lat="54.597753" lon="-3.210841"><ele>375</ele><time>2019-10-02T10:35:11Z</time><name>PT2438</name></trkpt>
<trkpt lat="54.597744" lon="-3.210857"><ele>375</ele><time>2019-10-02T10:35:12Z</time><name>PT2439</name></trkpt>
<trkpt lat="54.597735" lon="-3.210871"><ele>375</ele><time>2019-10-02T10:35:13Z</time><name>PT2440</name></trkpt>
<trkpt lat="54.597725" lon="-3.210884"><ele>376</ele><time>2019-10-02T10:35:14Z</time><name>PT2441</name></trkpt>
<trkpt lat="54.597713" lon="-3.210895"><ele>376</ele><time>2019-10-02T10:35:15Z</time><name>PT2442</name></trkpt>
<trkpt lat="54.597705" lon="-3.210905"><ele>376</ele><time>2019-10-02T10:35:16Z</time><name>PT2443</name></trkpt>
<trkpt lat="54.597696" lon="-3.210914"><ele>376</ele><time>2019-10-02T10:35:17Z</time><name>PT2444</name></trkpt>
<trkpt lat="54.597688" lon="-3.210922"><ele>376</ele><time>2019-10-02T10:35:18Z</time><name>PT2445</name></trkpt>
<trkpt lat="54.597681" lon="-3.210928"><ele>376</ele><time>2019-10-02T10:35:19Z</time><name>PT2446</name></trkpt>
<trkpt lat="54.597675" lon="-3.210936"><ele>375</ele><time>2019-10-02T10:35:20Z</time><name>PT2447</name></trkpt>
<trkpt lat="54.597667" lon="-3.210944"><ele>375</ele><time>2019-10-02T10:35:21Z</time><name>PT2448</name></trkpt>
<trkpt lat="54.597660" lon="-3.210952"><ele>375</ele><time>2019-10-02T10:35:22Z</time><name>PT2449</name></trkpt>
<trkpt lat="54.597656" lon="-3.210964"><ele>375</ele><time>2019-10-02T10:35:23Z</time><name>PT2450</name></trkpt>
<trkpt lat="54.597650" lon="-3.210977"><ele>375</ele><time>2019-10-02T10:35:24Z</time><name>PT2451</name></trkpt>
<trkpt lat="54.597642" lon="-3.210988"><ele>376</ele><time>2019-10-02T10:35:25Z</time><name>PT2452</name></trkpt>
<trkpt lat="54.597635" lon="-3.211001"><ele>376</ele><time>2019-10-02T10:35:26Z</time><name>PT2453</name></trkpt>
<trkpt lat="54.597628" lon="-3.211018"><ele>375</ele><time>2019-10-02T10:35:27Z</time><name>PT2454</name></trkpt>
<trkpt lat="54.597621" lon="-3.211033"><ele>376</ele><time>2019-10-02T10:35:28Z</time><name>PT2455</name></trkpt>
<trkpt lat="54.597614" lon="-3.211048"><ele>376</ele><time>2019-10-02T10:35:29Z</time><name>PT2456</name></trkpt>
<trkpt lat="54.597605" lon="-3.211061"><ele>376</ele><time>2019-10-02T10:35:30Z</time><name>PT2457</name></trkpt>
<trkpt lat="54.597598" lon="-3.211077"><ele>376</ele><time>2019-10-02T10:35:31Z</time><name>PT2458</name></trkpt>
<trkpt lat="54.597590" lon="-3.211094"><ele>376</ele><time>2019-10-02T10:35:32Z</time><name>PT2459</name></trkpt>
<trkpt lat="54.597582" lon="-3.211109"><ele>376</ele><time>2019-10-02T10:35:33Z</time><name>PT2460</name></trkpt>
<trkpt lat="54.597574" lon="-3.211123"><ele>376</ele><time>2019-10-02T10:35:34Z</time><name>PT2461</name></trkpt>
<trkpt lat="54.597564" lon="-3.211136"><ele>376</ele><time>2019-10-02T10:35:35Z</time><name>PT2462</name></trkpt>
<trkpt lat="54.597556" lon="-3.211150"><ele>376</ele><time>2019-10-02T10:35:36Z</time><name>PT2463</name></trkpt>
<trkpt lat="54.597547" lon="-3.211166"><ele>376</ele><time>2019-10-02T10:35:37Z</time><name>PT2464</name></trkpt>
<trkpt lat="54.597538" lon="-3.211180"><ele>376</ele><time>2019-10-02T10:35:38Z</time><name>PT2465</name></trkpt>
<trkpt lat="54.597527" lon="-3.211191"><ele>376</ele><time>2019-10-02T10:35:39Z</time><name>PT2466</name></trkpt>
<trkpt lat="54.597516" lon="-3.211201"><ele>376</ele><time>2019-10-02T10:35:40Z</time><name>PT2467</name></trkpt>
<trkpt lat="54.597510" lon="-3.211213"><ele>376</ele><time>2019-10-02T10:35:41Z</time><name>PT2468</name></trkpt>
<trkpt lat="54.597502" lon="-3.211226"><ele>376</ele><time>2019-10-02T10:35:42Z</time><name>PT2469</name></trkpt>
<trkpt lat="54.597496" lon="-3.211247"><ele>376</ele><time>2019-10-02T10:35:43Z</time><name>PT2470</name></trkpt>
<trkpt lat="54.597488" lon="-3.211266"><ele>376</ele><time>2019-10-02T10:35:44Z</time><name>PT2471</name></trkpt>
<trkpt lat="54.597481" lon="-3.211283"><ele>376</ele><time>2019-10-02T10:35:45Z</time><name>PT2472</name></trkpt>
<trkpt lat="54.597472" lon="-3.211299"><ele>376</ele><time>2019-10-02T10:35:46Z</time><name>PT2473</name></trkpt>
<trkpt lat="54.597462" lon="-3.211313"><ele>376</ele><time>2019-10-02T10:35:47Z</time><name>PT2474</name></trkpt>
<trkpt lat="54.597451" lon="-3.211329"><ele>375</ele><time>2019-10-02T10:35:48Z</time><name>PT2475</name></trkpt>
<trkpt lat="54.597440" lon="-3.211343"><ele>375</ele><time>2019-10-02T10:35:49Z</time><name>PT2476</name></trkpt>
<trkpt lat="54.597429" lon="-3.211358"><ele>375</ele><time>2019-10-02T10:35:50Z</time><name>PT2477</name></trkpt>
<trkpt lat="54.597421" lon="-3.211378"><ele>375</ele><time>2019-10-02T10:35:51Z</time><name>PT2478</name></trkpt>
<trkpt lat="54.597412" lon="-3.211394"><ele>375</ele><time>2019-10-02T10:35:52Z</time><name>PT2479</name></trkpt>
<trkpt lat="54.597402" lon="-3.211408"><ele>375</ele><time>2019-10-02T10:35:53Z</time><name>PT2480</name></trkpt>
<trkpt lat="54.597392" lon="-3.211423"><ele>376</ele><time>2019-10-02T10:35:54Z</time><name>PT2481</name></trkpt>
<trkpt lat="54.597384" lon="-3.211430"><ele>376</ele><time>2019-10-02T10:35:55Z</time><name>PT2482</name></trkpt>
<trkpt lat="54.597375" lon="-3.211439"><ele>375</ele><time>2019-10-02T10:35:56Z</time><name>PT2483</name></trkpt>
<trkpt lat="54.597365" lon="-3.211452"><ele>375</ele><time>2019-10-02T10:35:57Z</time><name>PT2484</name></trkpt>
<trkpt lat="54.597356" lon="-3.211470"><ele>376</ele><time>2019-10-02T10:35:58Z</time><name>PT2485</name></trkpt>
<trkpt lat="54.597346" lon="-3.211485"><ele>376</ele><time>2019-10-02T10:35:59Z</time><name>PT2486</name></trkpt>
<trkpt lat="54.597338" lon="-3.211498"><ele>376</ele><time>2019-10-02T10:36:00Z</time><name>PT2487</name></trkpt>
<trkpt lat="54.597330" lon="-3.211509"><ele>376</ele><time>2019-10-02T10:36:01Z</time><name>PT2488</name></trkpt>
<trkpt lat="54.597320" lon="-3.211523"><ele>376</ele><time>2019-10-02T10:36:02Z</time><name>PT2489</name></trkpt>
<trkpt lat="54.597312" lon="-3.211536"><ele>376</ele><time>2019-10-02T10:36:03Z</time><name>PT2490</name></trkpt>
<trkpt lat="54.597304" lon="-3.211549"><ele>376</ele><time>2019-10-02T10:36:04Z</time><name>PT2491</name></trkpt>
<trkpt lat="54.597296" lon="-3.211568"><ele>376</ele><time>2019-10-02T10:36:05Z</time><name>PT2492</name></trkpt>
<trkpt lat="54.597290" lon="-3.211585"><ele>375</ele><time>2019-10-02T10:36:06Z</time><name>PT2493</name></trkpt>
<trkpt lat="54.597284" lon="-3.211602"><ele>375</ele><time>2019-10-02T10:36:07Z</time><name>PT2494</name></trkpt>
<trkpt lat="54.597278" lon="-3.211618"><ele>376</ele><time>2019-10-02T10:36:08Z</time><name>PT2495</name></trkpt>
<trkpt lat="54.597269" lon="-3.211635"><ele>375</ele><time>2019-10-02T10:36:09Z</time><name>PT2496</name></trkpt>
<trkpt lat="54.597261" lon="-3.211652"><ele>375</ele><time>2019-10-02T10:36:10Z</time><name>PT2497</name></trkpt>
<trkpt lat="54.597255" lon="-3.211669"><ele>376</ele><time>2019-10-02T10:36:11Z</time><name>PT2498</name></trkpt>
<trkpt lat="54.597249" lon="-3.211687"><ele>375</ele><time>2019-10-02T10:36:12Z</time><name>PT2499</name></trkpt>
<trkpt lat="54.597244" lon="-3.211702"><ele>376</ele><time>2019-10-02T10:36:13Z</time><name>PT2500</name></trkpt>
<trkpt lat="54.597236" lon="-3.211717"><ele>376</ele><time>2019-10-02T10:36:14Z</time><name>PT2501</name></trkpt>
<trkpt lat="54.597230" lon="-3.211731"><ele>376</ele><time>2019-10-02T10:36:15Z</time><name>PT2502</name></trkpt>
<trkpt lat="54.597224" lon="-3.211749"><ele>375</ele><time>2019-10-02T10:36:16Z</time><name>PT2503</name></trkpt>
<trkpt lat="54.597218" lon="-3.211764"><ele>375</ele><time>2019-10-02T10:36:17Z</time><name>PT2504</name></trkpt>
<trkpt lat="54.597213" lon="-3.211783"><ele>375</ele><time>2019-10-02T10:36:18Z</time><name>PT2505</name></trkpt>
<trkpt lat="54.597207" lon="-3.211801"><ele>375</ele><time>2019-10-02T10:36:19Z</time><name>PT2506</name></trkpt>
<trkpt lat="54.597197" lon="-3.211815"><ele>375</ele><time>2019-10-02T10:36:20Z</time><name>PT2507</name></trkpt>
<trkpt lat="54.597190" lon="-3.211831"><ele>375</ele><time>2019-10-02T10:36:21Z</time><name>PT2508</name></trkpt>
<trkpt lat="54.597184" lon="-3.211849"><ele>375</ele><time>2019-10-02T10:36:22Z</time><name>PT2509</name></trkpt>
<trkpt lat="54.597177" lon="-3.211866"><ele>375</ele><time>2019-10-02T10:36:23Z</time><name>PT2510</name></trkpt>
<trkpt lat="54.597169" lon="-3.211885"><ele>374</ele><time>2019-10-02T10:36:24Z</time><name>PT2511</name></trkpt>
<trkpt lat="54.597161" lon="-3.211902"><ele>374</ele><time>2019-10-02T10:36:25Z</time><name>PT2512</name></trkpt>
<trkpt lat="54.597156" lon="-3.211921"><ele>374</ele><time>2019-10-02T10:36:26Z</time><name>PT2513</name></trkpt>
<trkpt lat="54.597147" lon="-3.211938"><ele>374</ele><time>2019-10-02T10:36:27Z</time><name>PT2514</name></trkpt>
<trkpt lat="54.597142" lon="-3.211956"><ele>374</ele><time>2019-10-02T10:36:28Z</time><name>PT2515</name></trkpt>
<trkpt lat="54.597137" lon="-3.211978"><ele>375</ele><time>2019-10-02T10:36:29Z</time><name>PT2516</name></trkpt>
<trkpt lat="54.597132" lon="-3.212001"><ele>375</ele><time>2019-10-02T10:36:30Z</time><name>PT2517</name></trkpt>
<trkpt lat="54.597125" lon="-3.212022"><ele>375</ele><time>2019-10-02T10:36:31Z</time><name>PT2518</name></trkpt>
<trkpt lat="54.597120" lon="-3.212037"><ele>374</ele><time>2019-10-02T10:36:32Z</time><name>PT2519</name></trkpt>
<trkpt lat="54.597121" lon="-3.212041"><ele>375</ele><time>2019-10-02T10:36:33Z</time><name>PT2520</name></trkpt>
<trkpt lat="54.597123" lon="-3.212040"><ele>375</ele><time>2019-10-02T10:36:34Z</time><name>PT2521</name></trkpt>
<trkpt lat="54.597123" lon="-3.212039"><ele>375</ele><time>2019-10-02T10:36:35Z</time><name>PT2522</name></trkpt>
<trkpt lat="54.597120" lon="-3.212046"><ele>375</ele><time>2019-10-02T10:36:37Z</time><name>PT2523</name></trkpt>
<trkpt lat="54.597116" lon="-3.212059"><ele>375</ele><time>2019-10-02T10:36:38Z</time><name>PT2524</name></trkpt>
<trkpt lat="54.597109" lon="-3.212077"><ele>375</ele><time>2019-10-02T10:36:39Z</time><name>PT2525</name></trkpt>
<trkpt lat="54.597101" lon="-3.212091"><ele>375</ele><time>2019-10-02T10:36:40Z</time><name>PT2526</name></trkpt>
<trkpt lat="54.597092" lon="-3.212105"><ele>375</ele><time>2019-10-02T10:36:41Z</time><name>PT2527</name></trkpt>
<trkpt lat="54.597085" lon="-3.212118"><ele>375</ele><time>2019-10-02T10:36:42Z</time><name>PT2528</name></trkpt>
<trkpt lat="54.597080" lon="-3.212133"><ele>375</ele><time>2019-10-02T10:36:43Z</time><name>PT2529</name></trkpt>
<trkpt lat="54.597074" lon="-3.212145"><ele>375</ele><time>2019-10-02T10:36:44Z</time><name>PT2530</name></trkpt>
<trkpt lat="54.597068" lon="-3.212158"><ele>376</ele><time>2019-10-02T10:36:45Z</time><name>PT2531</name></trkpt>
<trkpt lat="54.597062" lon="-3.212171"><ele>376</ele><time>2019-10-02T10:36:46Z</time><name>PT2532</name></trkpt>
<trkpt lat="54.597058" lon="-3.212185"><ele>376</ele><time>2019-10-02T10:36:47Z</time><name>PT2533</name></trkpt>
<trkpt lat="54.597055" lon="-3.212196"><ele>376</ele><time>2019-10-02T10:36:48Z</time><name>PT2534</name></trkpt>
<trkpt lat="54.597049" lon="-3.212207"><ele>376</ele><time>2019-10-02T10:36:49Z</time><name>PT2535</name></trkpt>
<trkpt lat="54.597041" lon="-3.212218"><ele>376</ele><time>2019-10-02T10:36:50Z</time><name>PT2536</name></trkpt>
<trkpt lat="54.597035" lon="-3.212235"><ele>376</ele><time>2019-10-02T10:36:51Z</time><name>PT2537</name></trkpt>
<trkpt lat="54.597028" lon="-3.212250"><ele>376</ele><time>2019-10-02T10:36:52Z</time><name>PT2538</name></trkpt>
<trkpt lat="54.597019" lon="-3.212262"><ele>376</ele><time>2019-10-02T10:36:53Z</time><name>PT2539</name></trkpt>
<trkpt lat="54.597009" lon="-3.212275"><ele>376</ele><time>2019-10-02T10:36:54Z</time><name>PT2540</name></trkpt>
<trkpt lat="54.597001" lon="-3.212290"><ele>376</ele><time>2019-10-02T10:36:55Z</time><name>PT2541</name></trkpt>
<trkpt lat="54.596994" lon="-3.212307"><ele>376</ele><time>2019-10-02T10:36:56Z</time><name>PT2542</name></trkpt>
<trkpt lat="54.596986" lon="-3.212322"><ele>376</ele><time>2019-10-02T10:36:57Z</time><name>PT2543</name></trkpt>
<trkpt lat="54.596978" lon="-3.212334"><ele>376</ele><time>2019-10-02T10:36:58Z</time><name>PT2544</name></trkpt>
<trkpt lat="54.596967" lon="-3.212343"><ele>376</ele><time>2019-10-02T10:36:59Z</time><name>PT2545</name></trkpt>
<trkpt lat="54.596958" lon="-3.212358"><ele>376</ele><time>2019-10-02T10:37:00Z</time><name>PT2546</name></trkpt>
<trkpt lat="54.596951" lon="-3.212375"><ele>376</ele><time>2019-10-02T10:37:01Z</time><name>PT2547</name></trkpt>
<trkpt lat="54.596943" lon="-3.212390"><ele>376</ele><time>2019-10-02T10:37:02Z</time><name>PT2548</name></trkpt>
<trkpt lat="54.596935" lon="-3.212398"><ele>376</ele><time>2019-10-02T10:37:03Z</time><name>PT2549</name></trkpt>
<trkpt lat="54.596926" lon="-3.212407"><ele>376</ele><time>2019-10-02T10:37:04Z</time><name>PT2550</name></trkpt>
<trkpt lat="54.596918" lon="-3.212421"><ele>376</ele><time>2019-10-02T10:37:05Z</time><name>PT2551</name></trkpt>
<trkpt lat="54.596910" lon="-3.212438"><ele>376</ele><time>2019-10-02T10:37:06Z</time><name>PT2552</name></trkpt>
<trkpt lat="54.596902" lon="-3.212452"><ele>376</ele><time>2019-10-02T10:37:07Z</time><name>PT2553</name></trkpt>
<trkpt lat="54.596895" lon="-3.212466"><ele>376</ele><time>2019-10-02T10:37:08Z</time><name>PT2554</name></trkpt>
<trkpt lat="54.596887" lon="-3.212478"><ele>376</ele><time>2019-10-02T10:37:09Z</time><name>PT2555</name></trkpt>
<trkpt lat="54.596879" lon="-3.212495"><ele>376</ele><time>2019-10-02T10:37:10Z</time><name>PT2556</name></trkpt>
<trkpt lat="54.596872" lon="-3.212514"><ele>376</ele><time>2019-10-02T10:37:11Z</time><name>PT2557</name></trkpt>
<trkpt lat="54.596865" lon="-3.212533"><ele>376</ele><time>2019-10-02T10:37:12Z</time><name>PT2558</name></trkpt>
<trkpt lat="54.596858" lon="-3.212551"><ele>376</ele><time>2019-10-02T10:37:13Z</time><name>PT2559</name></trkpt>
<trkpt lat="54.596852" lon="-3.212568"><ele>377</ele><time>2019-10-02T10:37:14Z</time><name>PT2560</name></trkpt>
<trkpt lat="54.596843" lon="-3.212581"><ele>377</ele><time>2019-10-02T10:37:15Z</time><name>PT2561</name></trkpt>
<trkpt lat="54.596836" lon="-3.212594"><ele>377</ele><time>2019-10-02T10:37:16Z</time><name>PT2562</name></trkpt>
<trkpt lat="54.596829" lon="-3.212610"><ele>377</ele><time>2019-10-02T10:37:17Z</time><name>PT2563</name></trkpt>
<trkpt lat="54.596824" lon="-3.212626"><ele>377</ele><time>2019-10-02T10:37:18Z</time><name>PT2564</name></trkpt>
<trkpt lat="54.596817" lon="-3.212641"><ele>377</ele><time>2019-10-02T10:37:19Z</time><name>PT2565</name></trkpt>
<trkpt lat="54.596811" lon="-3.212656"><ele>377</ele><time>2019-10-02T10:37:20Z</time><name>PT2566</name></trkpt>
<trkpt lat="54.596807" lon="-3.212671"><ele>377</ele><time>2019-10-02T10:37:21Z</time><name>PT2567</name></trkpt>
<trkpt lat="54.596800" lon="-3.212690"><ele>376</ele><time>2019-10-02T10:37:22Z</time><name>PT2568</name></trkpt>
<trkpt lat="54.596795" lon="-3.212709"><ele>376</ele><time>2019-10-02T10:37:23Z</time><name>PT2569</name></trkpt>
<trkpt lat="54.596790" lon="-3.212721"><ele>376</ele><time>2019-10-02T10:37:24Z</time><name>PT2570</name></trkpt>
<trkpt lat="54.596786" lon="-3.212736"><ele>376</ele><time>2019-10-02T10:37:25Z</time><name>PT2571</name></trkpt>
<trkpt lat="54.596780" lon="-3.212752"><ele>376</ele><time>2019-10-02T10:37:26Z</time><name>PT2572</name></trkpt>
<trkpt lat="54.596778" lon="-3.212771"><ele>376</ele><time>2019-10-02T10:37:27Z</time><name>PT2573</name></trkpt>
<trkpt lat="54.596775" lon="-3.212792"><ele>376</ele><time>2019-10-02T10:37:28Z</time><name>PT2574</name></trkpt>
<trkpt lat="54.596768" lon="-3.212813"><ele>375</ele><time>2019-10-02T10:37:29Z</time><name>PT2575</name></trkpt>
<trkpt lat="54.596766" lon="-3.212830"><ele>376</ele><time>2019-10-02T10:37:30Z</time><name>PT2576</name></trkpt>
<trkpt lat="54.596761" lon="-3.212847"><ele>376</ele><time>2019-10-02T10:37:31Z</time><name>PT2577</name></trkpt>
<trkpt lat="54.596753" lon="-3.212864"><ele>375</ele><time>2019-10-02T10:37:32Z</time><name>PT2578</name></trkpt>
<trkpt lat="54.596747" lon="-3.212879"><ele>375</ele><time>2019-10-02T10:37:33Z</time><name>PT2579</name></trkpt>
<trkpt lat="54.596742" lon="-3.212895"><ele>375</ele><time>2019-10-02T10:37:34Z</time><name>PT2580</name></trkpt>
<trkpt lat="54.596738" lon="-3.212914"><ele>375</ele><time>2019-10-02T10:37:35Z</time><name>PT2581</name></trkpt>
<trkpt lat="54.596739" lon="-3.212930"><ele>375</ele><time>2019-10-02T10:37:36Z</time><name>PT2582</name></trkpt>
<trkpt lat="54.596738" lon="-3.212944"><ele>375</ele><time>2019-10-02T10:37:37Z</time><name>PT2583</name></trkpt>
<trkpt lat="54.596734" lon="-3.212956"><ele>375</ele><time>2019-10-02T10:37:38Z</time><name>PT2584</name></trkpt>
<trkpt lat="54.596729" lon="-3.212967"><ele>375</ele><time>2019-10-02T10:37:39Z</time><name>PT2585</name></trkpt>
<trkpt lat="54.596725" lon="-3.212977"><ele>374</ele><time>2019-10-02T10:37:40Z</time><name>PT2586</name></trkpt>
<trkpt lat="54.596720" lon="-3.212988"><ele>374</ele><time>2019-10-02T10:37:41Z</time><name>PT2587</name></trkpt>
<trkpt lat="54.596714" lon="-3.213000"><ele>374</ele><time>2019-10-02T10:37:42Z</time><name>PT2588</name></trkpt>
<trkpt lat="54.596709" lon="-3.213009"><ele>374</ele><time>2019-10-02T10:37:43Z</time><name>PT2589</name></trkpt>
<trkpt lat="54.596700" lon="-3.213021"><ele>374</ele><time>2019-10-02T10:37:44Z</time><name>PT2590</name></trkpt>
<trkpt lat="54.596693" lon="-3.213032"><ele>373</ele><time>2019-10-02T10:37:45Z</time><name>PT2591</name></trkpt>
<trkpt lat="54.596692" lon="-3.213042"><ele>374</ele><time>2019-10-02T10:37:46Z</time><name>PT2592</name></trkpt>
<trkpt lat="54.596686" lon="-3.213057"><ele>374</ele><time>2019-10-02T10:37:47Z</time><name>PT2593</name></trkpt>
<trkpt lat="54.596679" lon="-3.213073"><ele>374</ele><time>2019-10-02T10:37:48Z</time><name>PT2594</name></trkpt>
<trkpt lat="54.596672" lon="-3.213088"><ele>373</ele><time>2019-10-02T10:37:49Z</time><name>PT2595</name></trkpt>
<trkpt lat="54.596668" lon="-3.213102"><ele>373</ele><time>2019-10-02T10:37:50Z</time><name>PT2596</name></trkpt>
<trkpt lat="54.596663" lon="-3.213118"><ele>373</ele><time>2019-10-02T10:37:51Z</time><name>PT2597</name></trkpt>
<trkpt lat="54.596654" lon="-3.213134"><ele>373</ele><time>2019-10-02T10:37:52Z</time><name>PT2598</name></trkpt>
<trkpt lat="54.596644" lon="-3.213149"><ele>372</ele><time>2019-10-02T10:37:53Z</time><name>PT2599</name></trkpt>
<trkpt lat="54.596639" lon="-3.213167"><ele>373</ele><time>2019-10-02T10:37:54Z</time><name>PT2600</name></trkpt>
<trkpt lat="54.596635" lon="-3.213188"><ele>373</ele><time>2019-10-02T10:37:55Z</time><name>PT2601</name></trkpt>
<trkpt lat="54.596628" lon="-3.213208"><ele>372</ele><time>2019-10-02T10:37:56Z</time><name>PT2602</name></trkpt>
<trkpt lat="54.596621" lon="-3.213225"><ele>372</ele><time>2019-10-02T10:37:57Z</time><name>PT2603</name></trkpt>
<trkpt lat="54.596617" lon="-3.213243"><ele>372</ele><time>2019-10-02T10:37:58Z</time><name>PT2604</name></trkpt>
<trkpt lat="54.596611" lon="-3.213262"><ele>372</ele><time>2019-10-02T10:37:59Z</time><name>PT2605</name></trkpt>
<trkpt lat="54.596609" lon="-3.213282"><ele>372</ele><time>2019-10-02T10:38:00Z</time><name>PT2606</name></trkpt>
<trkpt lat="54.596609" lon="-3.213301"><ele>372</ele><time>2019-10-02T10:38:01Z</time><name>PT2607</name></trkpt>
<trkpt lat="54.596607" lon="-3.213324"><ele>372</ele><time>2019-10-02T10:38:02Z</time><name>PT2608</name></trkpt>
<trkpt lat="54.596601" lon="-3.213341"><ele>372</ele><time>2019-10-02T10:38:03Z</time><name>PT2609</name></trkpt>
<trkpt lat="54.596593" lon="-3.213358"><ele>372</ele><time>2019-10-02T10:38:04Z</time><name>PT2610</name></trkpt>
<trkpt lat="54.596586" lon="-3.213376"><ele>372</ele><time>2019-10-02T10:38:05Z</time><name>PT2611</name></trkpt>
<trkpt lat="54.596580" lon="-3.213392"><ele>372</ele><time>2019-10-02T10:38:06Z</time><name>PT2612</name></trkpt>
<trkpt lat="54.596576" lon="-3.213410"><ele>371</ele><time>2019-10-02T10:38:07Z</time><name>PT2613</name></trkpt>
<trkpt lat="54.596571" lon="-3.213418"><ele>371</ele><time>2019-10-02T10:38:08Z</time><name>PT2614</name></trkpt>
<trkpt lat="54.596565" lon="-3.213429"><ele>371</ele><time>2019-10-02T10:38:09Z</time><name>PT2615</name></trkpt>
<trkpt lat="54.596560" lon="-3.213447"><ele>371</ele><time>2019-10-02T10:38:10Z</time><name>PT2616</name></trkpt>
<trkpt lat="54.596555" lon="-3.213461"><ele>372</ele><time>2019-10-02T10:38:11Z</time><name>PT2617</name></trkpt>
<trkpt lat="54.596548" lon="-3.213474"><ele>372</ele><time>2019-10-02T10:38:12Z</time><name>PT2618</name></trkpt>
<trkpt lat="54.596541" lon="-3.213489"><ele>371</ele><time>2019-10-02T10:38:13Z</time><name>PT2619</name></trkpt>
<trkpt lat="54.596536" lon="-3.213507"><ele>371</ele><time>2019-10-02T10:38:14Z</time><name>PT2620</name></trkpt>
<trkpt lat="54.596531" lon="-3.213525"><ele>371</ele><time>2019-10-02T10:38:15Z</time><name>PT2621</name></trkpt>
<trkpt lat="54.596527" lon="-3.213541"><ele>372</ele><time>2019-10-02T10:38:16Z</time><name>PT2622</name></trkpt>
<trkpt lat="54.596521" lon="-3.213560"><ele>372</ele><time>2019-10-02T10:38:17Z</time><name>PT2623</name></trkpt>
<trkpt lat="54.596516" lon="-3.213576"><ele>371</ele><time>2019-10-02T10:38:18Z</time><name>PT2624</name></trkpt>
<trkpt lat="54.596510" lon="-3.213594"><ele>372</ele><time>2019-10-02T10:38:19Z</time><name>PT2625</name></trkpt>
<trkpt lat="54.596506" lon="-3.213614"><ele>372</ele><time>2019-10-02T10:38:20Z</time><name>PT2626</name></trkpt>
<trkpt lat="54.596501" lon="-3.213626"><ele>372</ele><time>2019-10-02T10:38:21Z</time><name>PT2627</name></trkpt>
<trkpt lat="54.596493" lon="-3.213638"><ele>372</ele><time>2019-10-02T10:38:22Z</time><name>PT2628</name></trkpt>
<trkpt lat="54.596485" lon="-3.213654"><ele>372</ele><time>2019-10-02T10:38:23Z</time><name>PT2629</name></trkpt>
<trkpt lat="54.596477" lon="-3.213672"><ele>372</ele><time>2019-10-02T10:38:24Z</time><name>PT2630</name></trkpt>
<trkpt lat="54.596472" lon="-3.213691"><ele>372</ele><time>2019-10-02T10:38:25Z</time><name>PT2631</name></trkpt>
<trkpt lat="54.596467" lon="-3.213708"><ele>372</ele><time>2019-10-02T10:38:26Z</time><name>PT2632</name></trkpt>
<trkpt lat="54.596460" lon="-3.213724"><ele>371</ele><time>2019-10-02T10:38:27Z</time><name>PT2633</name></trkpt>
<trkpt lat="54.596454" lon="-3.213738"><ele>372</ele><time>2019-10-02T10:38:28Z</time><name>PT2634</name></trkpt>
<trkpt lat="54.596446" lon="-3.213750"><ele>372</ele><time>2019-10-02T10:38:29Z</time><name>PT2635</name></trkpt>
<trkpt lat="54.596437" lon="-3.213761"><ele>371</ele><time>2019-10-02T10:38:30Z</time><name>PT2636</name></trkpt>
<trkpt lat="54.596427" lon="-3.213772"><ele>371</ele><time>2019-10-02T10:38:31Z</time><name>PT2637</name></trkpt>
<trkpt lat="54.596419" lon="-3.213788"><ele>371</ele><time>2019-10-02T10:38:32Z</time><name>PT2638</name></trkpt>
<trkpt lat="54.596412" lon="-3.213803"><ele>371</ele><time>2019-10-02T10:38:33Z</time><name>PT2639</name></trkpt>
<trkpt lat="54.596404" lon="-3.213816"><ele>371</ele><time>2019-10-02T10:38:34Z</time><name>PT2640</name></trkpt>
<trkpt lat="54.596398" lon="-3.213825"><ele>371</ele><time>2019-10-02T10:38:35Z</time><name>PT2641</name></trkpt>
<trkpt lat="54.596390" lon="-3.213831"><ele>371</ele><time>2019-10-02T10:38:36Z</time><name>PT2642</name></trkpt>
<trkpt lat="54.596380" lon="-3.213839"><ele>370</ele><time>2019-10-02T10:38:37Z</time><name>PT2643</name></trkpt>
<trkpt lat="54.596372" lon="-3.213850"><ele>370</ele><time>2019-10-02T10:38:38Z</time><name>PT2644</name></trkpt>
<trkpt lat="54.596365" lon="-3.213867"><ele>370</ele><time>2019-10-02T10:38:39Z</time><name>PT2645</name></trkpt>
<trkpt lat="54.596358" lon="-3.213880"><ele>371</ele><time>2019-10-02T10:38:40Z</time><name>PT2646</name></trkpt>
<trkpt lat="54.596351" lon="-3.213887"><ele>371</ele><time>2019-10-02T10:38:41Z</time><name>PT2647</name></trkpt>
<trkpt lat="54.596345" lon="-3.213890"><ele>371</ele><time>2019-10-02T10:38:42Z</time><name>PT2648</name></trkpt>
<trkpt lat="54.596338" lon="-3.213893"><ele>370</ele><time>2019-10-02T10:38:43Z</time><name>PT2649</name></trkpt>
<trkpt lat="54.596331" lon="-3.213897"><ele>370</ele><time>2019-10-02T10:38:44Z</time><name>PT2650</name></trkpt>
<trkpt lat="54.596322" lon="-3.213909"><ele>370</ele><time>2019-10-02T10:38:45Z</time><name>PT2651</name></trkpt>
<trkpt lat="54.596312" lon="-3.213924"><ele>370</ele><time>2019-10-02T10:38:46Z</time><name>PT2652</name></trkpt>
<trkpt lat="54.596303" lon="-3.213938"><ele>370</ele><time>2019-10-02T10:38:47Z</time><name>PT2653</name></trkpt>
<trkpt lat="54.596296" lon="-3.213948"><ele>369</ele><time>2019-10-02T10:38:48Z</time><name>PT2654</name></trkpt>
<trkpt lat="54.596287" lon="-3.213958"><ele>369</ele><time>2019-10-02T10:38:49Z</time><name>PT2655</name></trkpt>
<trkpt lat="54.596280" lon="-3.213968"><ele>369</ele><time>2019-10-02T10:38:50Z</time><name>PT2656</name></trkpt>
<trkpt lat="54.596274" lon="-3.213974"><ele>369</ele><time>2019-10-02T10:38:51Z</time><name>PT2657</name></trkpt>
<trkpt lat="54.596265" lon="-3.213979"><ele>368</ele><time>2019-10-02T10:38:52Z</time><name>PT2658</name></trkpt>
<trkpt lat="54.596253" lon="-3.213986"><ele>368</ele><time>2019-10-02T10:38:53Z</time><name>PT2659</name></trkpt>
<trkpt lat="54.596243" lon="-3.213994"><ele>367</ele><time>2019-10-02T10:38:54Z</time><name>PT2660</name></trkpt>
<trkpt lat="54.596237" lon="-3.214000"><ele>367</ele><time>2019-10-02T10:38:55Z</time><name>PT2661</name></trkpt>
<trkpt lat="54.596232" lon="-3.214002"><ele>367</ele><time>2019-10-02T10:38:56Z</time><name>PT2662</name></trkpt>
<trkpt lat="54.596224" lon="-3.214004"><ele>367</ele><time>2019-10-02T10:38:57Z</time><name>PT2663</name></trkpt>
<trkpt lat="54.596213" lon="-3.214010"><ele>366</ele><time>2019-10-02T10:38:58Z</time><name>PT2664</name></trkpt>
<trkpt lat="54.596205" lon="-3.214021"><ele>366</ele><time>2019-10-02T10:38:59Z</time><name>PT2665</name></trkpt>
<trkpt lat="54.596197" lon="-3.214039"><ele>366</ele><time>2019-10-02T10:39:00Z</time><name>PT2666</name></trkpt>
<trkpt lat="54.596189" lon="-3.214055"><ele>365</ele><time>2019-10-02T10:39:01Z</time><name>PT2667</name></trkpt>
<trkpt lat="54.596182" lon="-3.214065"><ele>365</ele><time>2019-10-02T10:39:02Z</time><name>PT2668</name></trkpt>
<trkpt lat="54.596173" lon="-3.214078"><ele>365</ele><time>2019-10-02T10:39:03Z</time><name>PT2669</name></trkpt>
<trkpt lat="54.596165" lon="-3.214092"><ele>366</ele><time>2019-10-02T10:39:04Z</time><name>PT2670</name></trkpt>
<trkpt lat="54.596156" lon="-3.214101"><ele>365</ele><time>2019-10-02T10:39:05Z</time><name>PT2671</name></trkpt>
<trkpt lat="54.596150" lon="-3.214114"><ele>365</ele><time>2019-10-02T10:39:06Z</time><name>PT2672</name></trkpt>
<trkpt lat="54.596144" lon="-3.214129"><ele>365</ele><time>2019-10-02T10:39:07Z</time><name>PT2673</name></trkpt>
<trkpt lat="54.596137" lon="-3.214144"><ele>365</ele><time>2019-10-02T10:39:08Z</time><name>PT2674</name></trkpt>
<trkpt lat="54.596129" lon="-3.214158"><ele>365</ele><time>2019-10-02T10:39:09Z</time><name>PT2675</name></trkpt>
<trkpt lat="54.596124" lon="-3.214164"><ele>365</ele><time>2019-10-02T10:39:10Z</time><name>PT2676</name></trkpt>
<trkpt lat="54.596117" lon="-3.214169"><ele>364</ele><time>2019-10-02T10:39:11Z</time><name>PT2677</name></trkpt>
<trkpt lat="54.596112" lon="-3.214180"><ele>364</ele><time>2019-10-02T10:39:12Z</time><name>PT2678</name></trkpt>
<trkpt lat="54.596105" lon="-3.214193"><ele>364</ele><time>2019-10-02T10:39:13Z</time><name>PT2679</name></trkpt>
<trkpt lat="54.596098" lon="-3.214200"><ele>364</ele><time>2019-10-02T10:39:14Z</time><name>PT2680</name></trkpt>
<trkpt lat="54.596091" lon="-3.214207"><ele>363</ele><time>2019-10-02T10:39:15Z</time><name>PT2681</name></trkpt>
<trkpt lat="54.596084" lon="-3.214217"><ele>363</ele><time>2019-10-02T10:39:16Z</time><name>PT2682</name></trkpt>
<trkpt lat="54.596080" lon="-3.214229"><ele>364</ele><time>2019-10-02T10:39:17Z</time><name>PT2683</name></trkpt>
<trkpt lat="54.596074" lon="-3.214242"><ele>364</ele><time>2019-10-02T10:39:18Z</time><name>PT2684</name></trkpt>
<trkpt lat="54.596066" lon="-3.214253"><ele>364</ele><time>2019-10-02T10:39:19Z</time><name>PT2685</name></trkpt>
<trkpt lat="54.596061" lon="-3.214265"><ele>365</ele><time>2019-10-02T10:39:20Z</time><name>PT2686</name></trkpt>
<trkpt lat="54.596053" lon="-3.214285"><ele>364</ele><time>2019-10-02T10:39:21Z</time><name>PT2687</name></trkpt>
<trkpt lat="54.596049" lon="-3.214304"><ele>364</ele><time>2019-10-02T10:39:22Z</time><name>PT2688</name></trkpt>
<trkpt lat="54.596042" lon="-3.214320"><ele>364</ele><time>2019-10-02T10:39:23Z</time><name>PT2689</name></trkpt>
<trkpt lat="54.596038" lon="-3.214330"><ele>365</ele><time>2019-10-02T10:39:24Z</time><name>PT2690</name></trkpt>
<trkpt lat="54.596033" lon="-3.214339"><ele>365</ele><time>2019-10-02T10:39:25Z</time><name>PT2691</name></trkpt>
<trkpt lat="54.596026" lon="-3.214354"><ele>365</ele><time>2019-10-02T10:39:26Z</time><name>PT2692</name></trkpt>
<trkpt lat="54.596021" lon="-3.214369"><ele>365</ele><time>2019-10-02T10:39:27Z</time><name>PT2693</name></trkpt>
<trkpt lat="54.596014" lon="-3.214380"><ele>365</ele><time>2019-10-02T10:39:28Z</time><name>PT2694</name></trkpt>
<trkpt lat="54.596006" lon="-3.214394"><ele>365</ele><time>2019-10-02T10:39:29Z</time><name>PT2695</name></trkpt>
<trkpt lat="54.595999" lon="-3.214411"><ele>365</ele><time>2019-10-02T10:39:30Z</time><name>PT2696</name></trkpt>
<trkpt lat="54.595993" lon="-3.214428"><ele>366</ele><time>2019-10-02T10:39:31Z</time><name>PT2697</name></trkpt>
<trkpt lat="54.595986" lon="-3.214445"><ele>365</ele><time>2019-10-02T10:39:32Z</time><name>PT2698</name></trkpt>
<trkpt lat="54.595980" lon="-3.214459"><ele>366</ele><time>2019-10-02T10:39:33Z</time><name>PT2699</name></trkpt>
<trkpt lat="54.595975" lon="-3.214472"><ele>366</ele><time>2019-10-02T10:39:34Z</time><name>PT2700</name></trkpt>
<trkpt lat="54.595969" lon="-3.214486"><ele>366</ele><time>2019-10-02T10:39:35Z</time><name>PT2701</name></trkpt>
<trkpt lat="54.595965" lon="-3.214504"><ele>366</ele><time>2019-10-02T10:39:36Z</time><name>PT2702</name></trkpt>
<trkpt lat="54.595958" lon="-3.214519"><ele>366</ele><time>2019-10-02T10:39:37Z</time><name>PT2703</name></trkpt>
<trkpt lat="54.595952" lon="-3.214535"><ele>366</ele><time>2019-10-02T10:39:38Z</time><name>PT2704</name></trkpt>
<trkpt lat="54.595944" lon="-3.214552"><ele>366</ele><time>2019-10-02T10:39:39Z</time><name>PT2705</name></trkpt>
<trkpt lat="54.595938" lon="-3.214570"><ele>366</ele><time>2019-10-02T10:39:40Z</time><name>PT2706</name></trkpt>
<trkpt lat="54.595934" lon="-3.214591"><ele>366</ele><time>2019-10-02T10:39:41Z</time><name>PT2707</name></trkpt>
<trkpt lat="54.595928" lon="-3.214612"><ele>366</ele><time>2019-10-02T10:39:42Z</time><name>PT2708</name></trkpt>
<trkpt lat="54.595923" lon="-3.214627"><ele>366</ele><time>2019-10-02T10:39:43Z</time><name>PT2709</name></trkpt>
<trkpt lat="54.595916" lon="-3.214641"><ele>366</ele><time>2019-10-02T10:39:44Z</time><name>PT2710</name></trkpt>
<trkpt lat="54.595912" lon="-3.214661"><ele>366</ele><time>2019-10-02T10:39:45Z</time><name>PT2711</name></trkpt>
<trkpt lat="54.595907" lon="-3.214675"><ele>366</ele><time>2019-10-02T10:39:46Z</time><name>PT2712</name></trkpt>
<trkpt lat="54.595900" lon="-3.214692"><ele>366</ele><time>2019-10-02T10:39:47Z</time><name>PT2713</name></trkpt>
<trkpt lat="54.595893" lon="-3.214707"><ele>366</ele><time>2019-10-02T10:39:48Z</time><name>PT2714</name></trkpt>
<trkpt lat="54.595889" lon="-3.214723"><ele>366</ele><time>2019-10-02T10:39:49Z</time><name>PT2715</name></trkpt>
<trkpt lat="54.595883" lon="-3.214742"><ele>366</ele><time>2019-10-02T10:39:50Z</time><name>PT2716</name></trkpt>
<trkpt lat="54.595879" lon="-3.214759"><ele>366</ele><time>2019-10-02T10:39:51Z</time><name>PT2717</name></trkpt>
<trkpt lat="54.595877" lon="-3.214773"><ele>366</ele><time>2019-10-02T10:39:52Z</time><name>PT2718</name></trkpt>
<trkpt lat="54.595875" lon="-3.214795"><ele>367</ele><time>2019-10-02T10:39:53Z</time><name>PT2719</name></trkpt>
<trkpt lat="54.595870" lon="-3.214813"><ele>367</ele><time>2019-10-02T10:39:54Z</time><name>PT2720</name></trkpt>
<trkpt lat="54.595864" lon="-3.214828"><ele>367</ele><time>2019-10-02T10:39:55Z</time><name>PT2721</name></trkpt>
<trkpt lat="54.595855" lon="-3.214843"><ele>367</ele><time>2019-10-02T10:39:56Z</time><name>PT2722</name></trkpt>
<trkpt lat="54.595847" lon="-3.214858"><ele>367</ele><time>2019-10-02T10:39:57Z</time><name>PT2723</name></trkpt>
<trkpt lat="54.595840" lon="-3.214874"><ele>367</ele><time>2019-10-02T10:39:58Z</time><name>PT2724</name></trkpt>
<trkpt lat="54.595831" lon="-3.214887"><ele>367</ele><time>2019-10-02T10:39:59Z</time><name>PT2725</name></trkpt>
<trkpt lat="54.595822" lon="-3.214898"><ele>367</ele><time>2019-10-02T10:40:00Z</time><name>PT2726</name></trkpt>
<trkpt lat="54.595816" lon="-3.214913"><ele>367</ele><time>2019-10-02T10:40:01Z</time><name>PT2727</name></trkpt>
<trkpt lat="54.595817" lon="-3.214927"><ele>367</ele><time>2019-10-02T10:40:02Z</time><name>PT2728</name></trkpt>
<trkpt lat="54.595818" lon="-3.214941"><ele>367</ele><time>2019-10-02T10:40:03Z</time><name>PT2729</name></trkpt>
<trkpt lat="54.595816" lon="-3.214957"><ele>367</ele><time>2019-10-02T10:40:04Z</time><name>PT2730</name></trkpt>
<trkpt lat="54.595812" lon="-3.214972"><ele>367</ele><time>2019-10-02T10:40:05Z</time><name>PT2731</name></trkpt>
<trkpt lat="54.595804" lon="-3.214986"><ele>367</ele><time>2019-10-02T10:40:06Z</time><name>PT2732</name></trkpt>
<trkpt lat="54.595797" lon="-3.215001"><ele>367</ele><time>2019-10-02T10:40:07Z</time><name>PT2733</name></trkpt>
<trkpt lat="54.595791" lon="-3.215015"><ele>367</ele><time>2019-10-02T10:40:08Z</time><name>PT2734</name></trkpt>
<trkpt lat="54.595785" lon="-3.215031"><ele>367</ele><time>2019-10-02T10:40:09Z</time><name>PT2735</name></trkpt>
<trkpt lat="54.595786" lon="-3.215051"><ele>367</ele><time>2019-10-02T10:40:10Z</time><name>PT2736</name></trkpt>
<trkpt lat="54.595791" lon="-3.215070"><ele>367</ele><time>2019-10-02T10:40:11Z</time><name>PT2737</name></trkpt>
<trkpt lat="54.595795" lon="-3.215089"><ele>367</ele><time>2019-10-02T10:40:12Z</time><name>PT2738</name></trkpt>
<trkpt lat="54.595793" lon="-3.215109"><ele>367</ele><time>2019-10-02T10:40:13Z</time><name>PT2739</name></trkpt>
<trkpt lat="54.595789" lon="-3.215127"><ele>367</ele><time>2019-10-02T10:40:14Z</time><name>PT2740</name></trkpt>
<trkpt lat="54.595791" lon="-3.215142"><ele>368</ele><time>2019-10-02T10:40:15Z</time><name>PT2741</name></trkpt>
<trkpt lat="54.595792" lon="-3.215160"><ele>368</ele><time>2019-10-02T10:40:16Z</time><name>PT2742</name></trkpt>
<trkpt lat="54.595792" lon="-3.215170"><ele>368</ele><time>2019-10-02T10:40:17Z</time><name>PT2743</name></trkpt>
<trkpt lat="54.595790" lon="-3.215185"><ele>368</ele><time>2019-10-02T10:40:18Z</time><name>PT2744</name></trkpt>
<trkpt lat="54.595789" lon="-3.215201"><ele>368</ele><time>2019-10-02T10:40:19Z</time><name>PT2745</name></trkpt>
<trkpt lat="54.595796" lon="-3.215213"><ele>369</ele><time>2019-10-02T10:40:20Z</time><name>PT2746</name></trkpt>
<trkpt lat="54.595798" lon="-3.215233"><ele>369</ele><time>2019-10-02T10:40:21Z</time><name>PT2747</name></trkpt>
<trkpt lat="54.595795" lon="-3.215252"><ele>368</ele><time>2019-10-02T10:40:22Z</time><name>PT2748</name></trkpt>
<trkpt lat="54.595792" lon="-3.215272"><ele>369</ele><time>2019-10-02T10:40:23Z</time><name>PT2749</name></trkpt>
<trkpt lat="54.595789" lon="-3.215293"><ele>368</ele><time>2019-10-02T10:40:24Z</time><name>PT2750</name></trkpt>
<trkpt lat="54.595787" lon="-3.215314"><ele>369</ele><time>2019-10-02T10:40:25Z</time><name>PT2751</name></trkpt>
<trkpt lat="54.595787" lon="-3.215335"><ele>369</ele><time>2019-10-02T10:40:26Z</time><name>PT2752</name></trkpt>
<trkpt lat="54.595784" lon="-3.215356"><ele>368</ele><time>2019-10-02T10:40:27Z</time><name>PT2753</name></trkpt>
<trkpt lat="54.595781" lon="-3.215375"><ele>369</ele><time>2019-10-02T10:40:28Z</time><name>PT2754</name></trkpt>
<trkpt lat="54.595778" lon="-3.215395"><ele>369</ele><time>2019-10-02T10:40:29Z</time><name>PT2755</name></trkpt>
<trkpt lat="54.595777" lon="-3.215415"><ele>369</ele><time>2019-10-02T10:40:30Z</time><name>PT2756</name></trkpt>
<trkpt lat="54.595774" lon="-3.215434"><ele>369</ele><time>2019-10-02T10:40:31Z</time><name>PT2757</name></trkpt>
<trkpt lat="54.595772" lon="-3.215454"><ele>369</ele><time>2019-10-02T10:40:32Z</time><name>PT2758</name></trkpt>
<trkpt lat="54.595769" lon="-3.215472"><ele>368</ele><time>2019-10-02T10:40:33Z</time><name>PT2759</name></trkpt>
<trkpt lat="54.595766" lon="-3.215490"><ele>369</ele><time>2019-10-02T10:40:34Z</time><name>PT2760</name></trkpt>
<trkpt lat="54.595764" lon="-3.215512"><ele>369</ele><time>2019-10-02T10:40:35Z</time><name>PT2761</name></trkpt>
<trkpt lat="54.595759" lon="-3.215526"><ele>368</ele><time>2019-10-02T10:40:36Z</time><name>PT2762</name></trkpt>
<trkpt lat="54.595755" lon="-3.215539"><ele>368</ele><time>2019-10-02T10:40:37Z</time><name>PT2763</name></trkpt>
<trkpt lat="54.595755" lon="-3.215559"><ele>368</ele><time>2019-10-02T10:40:38Z</time><name>PT2764</name></trkpt>
<trkpt lat="54.595754" lon="-3.215579"><ele>369</ele><time>2019-10-02T10:40:39Z</time><name>PT2765</name></trkpt>
<trkpt lat="54.595750" lon="-3.215598"><ele>369</ele><time>2019-10-02T10:40:40Z</time><name>PT2766</name></trkpt>
<trkpt lat="54.595745" lon="-3.215619"><ele>369</ele><time>2019-10-02T10:40:41Z</time><name>PT2767</name></trkpt>
<trkpt lat="54.595741" lon="-3.215639"><ele>369</ele><time>2019-10-02T10:40:42Z</time><name>PT2768</name></trkpt>
<trkpt lat="54.595740" lon="-3.215660"><ele>369</ele><time>2019-10-02T10:40:43Z</time><name>PT2769</name></trkpt>
<trkpt lat="54.595738" lon="-3.215679"><ele>369</ele><time>2019-10-02T10:40:44Z</time><name>PT2770</name></trkpt>
<trkpt lat="54.595734" lon="-3.215693"><ele>369</ele><time>2019-10-02T10:40:45Z</time><name>PT2771</name></trkpt>
<trkpt lat="54.595727" lon="-3.215710"><ele>369</ele><time>2019-10-02T10:40:46Z</time><name>PT2772</name></trkpt>
<trkpt lat="54.595720" lon="-3.215729"><ele>369</ele><time>2019-10-02T10:40:47Z</time><name>PT2773</name></trkpt>
<trkpt lat="54.595715" lon="-3.215747"><ele>369</ele><time>2019-10-02T10:40:48Z</time><name>PT2774</name></trkpt>
<trkpt lat="54.595711" lon="-3.215766"><ele>369</ele><time>2019-10-02T10:40:49Z</time><name>PT2775</name></trkpt>
<trkpt lat="54.595706" lon="-3.215787"><ele>369</ele><time>2019-10-02T10:40:50Z</time><name>PT2776</name></trkpt>
<trkpt lat="54.595703" lon="-3.215804"><ele>369</ele><time>2019-10-02T10:40:51Z</time><name>PT2777</name></trkpt>
<trkpt lat="54.595699" lon="-3.215822"><ele>369</ele><time>2019-10-02T10:40:52Z</time><name>PT2778</name></trkpt>
<trkpt lat="54.595693" lon="-3.215840"><ele>369</ele><time>2019-10-02T10:40:53Z</time><name>PT2779</name></trkpt>
<trkpt lat="54.595688" lon="-3.215859"><ele>369</ele><time>2019-10-02T10:40:54Z</time><name>PT2780</name></trkpt>
<trkpt lat="54.595683" lon="-3.215880"><ele>369</ele><time>2019-10-02T10:40:55Z</time><name>PT2781</name></trkpt>
<trkpt lat="54.595679" lon="-3.215895"><ele>369</ele><time>2019-10-02T10:40:56Z</time><name>PT2782</name></trkpt>
<trkpt lat="54.595675" lon="-3.215914"><ele>369</ele><time>2019-10-02T10:40:57Z</time><name>PT2783</name></trkpt>
<trkpt lat="54.595670" lon="-3.215929"><ele>370</ele><time>2019-10-02T10:40:58Z</time><name>PT2784</name></trkpt>
<trkpt lat="54.595666" lon="-3.215946"><ele>370</ele><time>2019-10-02T10:40:59Z</time><name>PT2785</name></trkpt>
<trkpt lat="54.595662" lon="-3.215961"><ele>370</ele><time>2019-10-02T10:41:00Z</time><name>PT2786</name></trkpt>
<trkpt lat="54.595656" lon="-3.215977"><ele>370</ele><time>2019-10-02T10:41:01Z</time><name>PT2787</name></trkpt>
<trkpt lat="54.595650" lon="-3.215994"><ele>370</ele><time>2019-10-02T10:41:02Z</time><name>PT2788</name></trkpt>
<trkpt lat="54.595646" lon="-3.216012"><ele>370</ele><time>2019-10-02T10:41:03Z</time><name>PT2789</name></trkpt>
<trkpt lat="54.595645" lon="-3.216027"><ele>370</ele><time>2019-10-02T10:41:04Z</time><name>PT2790</name></trkpt>
<trkpt lat="54.595641" lon="-3.216045"><ele>370</ele><time>2019-10-02T10:41:05Z</time><name>PT2791</name></trkpt>
<trkpt lat="54.595637" lon="-3.216063"><ele>370</ele><time>2019-10-02T10:41:06Z</time><name>PT2792</name></trkpt>
<trkpt lat="54.595634" lon="-3.216080"><ele>370</ele><time>2019-10-02T10:41:07Z</time><name>PT2793</name></trkpt>
<trkpt lat="54.595633" lon="-3.216096"><ele>371</ele><time>2019-10-02T10:41:08Z</time><name>PT2794</name></trkpt>
<trkpt lat="54.595630" lon="-3.216105"><ele>371</ele><time>2019-10-02T10:41:09Z</time><name>PT2795</name></trkpt>
<trkpt lat="54.595628" lon="-3.216110"><ele>371</ele><time>2019-10-02T10:41:10Z</time><name>PT2796</name></trkpt>
<trkpt lat="54.595627" lon="-3.216121"><ele>371</ele><time>2019-10-02T10:41:11Z</time><name>PT2797</name></trkpt>
<trkpt lat="54.595625" lon="-3.216131"><ele>371</ele><time>2019-10-02T10:41:12Z</time><name>PT2798</name></trkpt>
<trkpt lat="54.595622" lon="-3.216143"><ele>371</ele><time>2019-10-02T10:41:13Z</time><name>PT2799</name></trkpt>
<trkpt lat="54.595618" lon="-3.216156"><ele>371</ele><time>2019-10-02T10:41:14Z</time><name>PT2800</name></trkpt>
<trkpt lat="54.595615" lon="-3.216170"><ele>371</ele><time>2019-10-02T10:41:15Z</time><name>PT2801</name></trkpt>
<trkpt lat="54.595612" lon="-3.216186"><ele>371</ele><time>2019-10-02T10:41:16Z</time><name>PT2802</name></trkpt>
<trkpt lat="54.595608" lon="-3.216201"><ele>371</ele><time>2019-10-02T10:41:17Z</time><name>PT2803</name></trkpt>
<trkpt lat="54.595603" lon="-3.216216"><ele>372</ele><time>2019-10-02T10:41:18Z</time><name>PT2804</name></trkpt>
<trkpt lat="54.595600" lon="-3.216231"><ele>372</ele><time>2019-10-02T10:41:19Z</time><name>PT2805</name></trkpt>
<trkpt lat="54.595599" lon="-3.216248"><ele>372</ele><time>2019-10-02T10:41:20Z</time><name>PT2806</name></trkpt>
<trkpt lat="54.595596" lon="-3.216263"><ele>372</ele><time>2019-10-02T10:41:21Z</time><name>PT2807</name></trkpt>
<trkpt lat="54.595592" lon="-3.216278"><ele>373</ele><time>2019-10-02T10:41:22Z</time><name>PT2808</name></trkpt>
<trkpt lat="54.595588" lon="-3.216293"><ele>373</ele><time>2019-10-02T10:41:23Z</time><name>PT2809</name></trkpt>
<trkpt lat="54.595585" lon="-3.216312"><ele>373</ele><time>2019-10-02T10:41:24Z</time><name>PT2810</name></trkpt>
<trkpt lat="54.595581" lon="-3.216327"><ele>373</ele><time>2019-10-02T10:41:25Z</time><name>PT2811</name></trkpt>
<trkpt lat="54.595576" lon="-3.216340"><ele>373</ele><time>2019-10-02T10:41:26Z</time><name>PT2812</name></trkpt>
<trkpt lat="54.595570" lon="-3.216353"><ele>373</ele><time>2019-10-02T10:41:27Z</time><name>PT2813</name></trkpt>
<trkpt lat="54.595565" lon="-3.216367"><ele>373</ele><time>2019-10-02T10:41:28Z</time><name>PT2814</name></trkpt>
<trkpt lat="54.595561" lon="-3.216383"><ele>373</ele><time>2019-10-02T10:41:29Z</time><name>PT2815</name></trkpt>
<trkpt lat="54.595557" lon="-3.216396"><ele>374</ele><time>2019-10-02T10:41:30Z</time><name>PT2816</name></trkpt>
<trkpt lat="54.595553" lon="-3.216409"><ele>374</ele><time>2019-10-02T10:41:31Z</time><name>PT2817</name></trkpt>
<trkpt lat="54.595550" lon="-3.216424"><ele>374</ele><time>2019-10-02T10:41:32Z</time><name>PT2818</name></trkpt>
<trkpt lat="54.595548" lon="-3.216439"><ele>374</ele><time>2019-10-02T10:41:33Z</time><name>PT2819</name></trkpt>
<trkpt lat="54.595544" lon="-3.216453"><ele>374</ele><time>2019-10-02T10:41:34Z</time><name>PT2820</name></trkpt>
<trkpt lat="54.595541" lon="-3.216464"><ele>374</ele><time>2019-10-02T10:41:35Z</time><name>PT2821</name></trkpt>
<trkpt lat="54.595540" lon="-3.216471"><ele>374</ele><time>2019-10-02T10:41:36Z</time><name>PT2822</name></trkpt>
<trkpt lat="54.595537" lon="-3.216472"><ele>374</ele><time>2019-10-02T10:41:37Z</time><name>PT2823</name></trkpt>
<trkpt lat="54.595533" lon="-3.216484"><ele>374</ele><time>2019-10-02T10:41:38Z</time><name>PT2824</name></trkpt>
<trkpt lat="54.595535" lon="-3.216500"><ele>375</ele><time>2019-10-02T10:41:39Z</time><name>PT2825</name></trkpt>
<trkpt lat="54.595534" lon="-3.216517"><ele>375</ele><time>2019-10-02T10:41:40Z</time><name>PT2826</name></trkpt>
<trkpt lat="54.595531" lon="-3.216530"><ele>375</ele><time>2019-10-02T10:41:41Z</time><name>PT2827</name></trkpt>
<trkpt lat="54.595527" lon="-3.216542"><ele>375</ele><time>2019-10-02T10:41:42Z</time><name>PT2828</name></trkpt>
<trkpt lat="54.595519" lon="-3.216558"><ele>375</ele><time>2019-10-02T10:41:43Z</time><name>PT2829</name></trkpt>
<trkpt lat="54.595514" lon="-3.216574"><ele>375</ele><time>2019-10-02T10:41:44Z</time><name>PT2830</name></trkpt>
<trkpt lat="54.595511" lon="-3.216591"><ele>376</ele><time>2019-10-02T10:41:45Z</time><name>PT2831</name></trkpt>
<trkpt lat="54.595505" lon="-3.216602"><ele>376</ele><time>2019-10-02T10:41:46Z</time><name>PT2832</name></trkpt>
<trkpt lat="54.595497" lon="-3.216613"><ele>376</ele><time>2019-10-02T10:41:47Z</time><name>PT2833</name></trkpt>
<trkpt lat="54.595489" lon="-3.216624"><ele>376</ele><time>2019-10-02T10:41:48Z</time><name>PT2834</name></trkpt>
<trkpt lat="54.595482" lon="-3.216636"><ele>376</ele><time>2019-10-02T10:41:49Z</time><name>PT2835</name></trkpt>
<trkpt lat="54.595476" lon="-3.216650"><ele>376</ele><time>2019-10-02T10:41:50Z</time><name>PT2836</name></trkpt>
<trkpt lat="54.595469" lon="-3.216662"><ele>376</ele><time>2019-10-02T10:41:51Z</time><name>PT2837</name></trkpt>
<trkpt lat="54.595462" lon="-3.216675"><ele>377</ele><time>2019-10-02T10:41:52Z</time><name>PT2838</name></trkpt>
<trkpt lat="54.595454" lon="-3.216686"><ele>377</ele><time>2019-10-02T10:41:53Z</time><name>PT2839</name></trkpt>
<trkpt lat="54.595448" lon="-3.216697"><ele>377</ele><time>2019-10-02T10:41:54Z</time><name>PT2840</name></trkpt>
<trkpt lat="54.595445" lon="-3.216712"><ele>377</ele><time>2019-10-02T10:41:55Z</time><name>PT2841</name></trkpt>
<trkpt lat="54.595441" lon="-3.216718"><ele>377</ele><time>2019-10-02T10:41:56Z</time><name>PT2842</name></trkpt>
<trkpt lat="54.595433" lon="-3.216725"><ele>378</ele><time>2019-10-02T10:41:57Z</time><name>PT2843</name></trkpt>
<trkpt lat="54.595426" lon="-3.216732"><ele>378</ele><time>2019-10-02T10:41:58Z</time><name>PT2844</name></trkpt>
<trkpt lat="54.595422" lon="-3.216745"><ele>378</ele><time>2019-10-02T10:41:59Z</time><name>PT2845</name></trkpt>
<trkpt lat="54.595418" lon="-3.216760"><ele>378</ele><time>2019-10-02T10:42:00Z</time><name>PT2846</name></trkpt>
<trkpt lat="54.595412" lon="-3.216772"><ele>378</ele><time>2019-10-02T10:42:01Z</time><name>PT2847</name></trkpt>
<trkpt lat="54.595407" lon="-3.216786"><ele>378</ele><time>2019-10-02T10:42:02Z</time><name>PT2848</name></trkpt>
<trkpt lat="54.595402" lon="-3.216802"><ele>378</ele><time>2019-10-02T10:42:03Z</time><name>PT2849</name></trkpt>
<trkpt lat="54.595398" lon="-3.216819"><ele>378</ele><time>2019-10-02T10:42:04Z</time><name>PT2850</name></trkpt>
<trkpt lat="54.595395" lon="-3.216835"><ele>378</ele><time>2019-10-02T10:42:05Z</time><name>PT2851</name></trkpt>
<trkpt lat="54.595391" lon="-3.216852"><ele>378</ele><time>2019-10-02T10:42:06Z</time><name>PT2852</name></trkpt>
<trkpt lat="54.595384" lon="-3.216866"><ele>378</ele><time>2019-10-02T10:42:07Z</time><name>PT2853</name></trkpt>
<trkpt lat="54.595381" lon="-3.216883"><ele>378</ele><time>2019-10-02T10:42:08Z</time><name>PT2854</name></trkpt>
<trkpt lat="54.595378" lon="-3.216896"><ele>379</ele><time>2019-10-02T10:42:09Z</time><name>PT2855</name></trkpt>
<trkpt lat="54.595371" lon="-3.216909"><ele>379</ele><time>2019-10-02T10:42:10Z</time><name>PT2856</name></trkpt>
<trkpt lat="54.595363" lon="-3.216925"><ele>378</ele><time>2019-10-02T10:42:11Z</time><name>PT2857</name></trkpt>
<trkpt lat="54.595357" lon="-3.216942"><ele>378</ele><time>2019-10-02T10:42:12Z</time><name>PT2858</name></trkpt>
<trkpt lat="54.595353" lon="-3.216960"><ele>378</ele><time>2019-10-02T10:42:13Z</time><name>PT2859</name></trkpt>
<trkpt lat="54.595349" lon="-3.216978"><ele>378</ele><time>2019-10-02T10:42:14Z</time><name>PT2860</name></trkpt>
<trkpt lat="54.595343" lon="-3.216992"><ele>378</ele><time>2019-10-02T10:42:15Z</time><name>PT2861</name></trkpt>
<trkpt lat="54.595335" lon="-3.217006"><ele>378</ele><time>2019-10-02T10:42:16Z</time><name>PT2862</name></trkpt>
<trkpt lat="54.595327" lon="-3.217018"><ele>378</ele><time>2019-10-02T10:42:17Z</time><name>PT2863</name></trkpt>
<trkpt lat="54.595314" lon="-3.217041"><ele>378</ele><time>2019-10-02T10:42:18Z</time><name>PT2864</name></trkpt>
<trkpt lat="54.595308" lon="-3.217056"><ele>378</ele><time>2019-10-02T10:42:19Z</time><name>PT2865</name></trkpt>
<trkpt lat="54.595310" lon="-3.217064"><ele>378</ele><time>2019-10-02T10:42:20Z</time><name>PT2866</name></trkpt>
<trkpt lat="54.595311" lon="-3.217076"><ele>378</ele><time>2019-10-02T10:42:21Z</time><name>PT2867</name></trkpt>
<trkpt lat="54.595315" lon="-3.217089"><ele>378</ele><time>2019-10-02T10:42:22Z</time><name>PT2868</name></trkpt>
<trkpt lat="54.595317" lon="-3.217100"><ele>378</ele><time>2019-10-02T10:42:23Z</time><name>PT2869</name></trkpt>
<trkpt lat="54.595317" lon="-3.217108"><ele>378</ele><time>2019-10-02T10:42:24Z</time><name>PT2870</name></trkpt>
<trkpt lat="54.595316" lon="-3.217110"><ele>378</ele><time>2019-10-02T10:42:25Z</time><name>PT2871</name></trkpt>
<trkpt lat="54.595315" lon="-3.217115"><ele>378</ele><time>2019-10-02T10:42:26Z</time><name>PT2872</name></trkpt>
<trkpt lat="54.595314" lon="-3.217115"><ele>378</ele><time>2019-10-02T10:42:27Z</time><name>PT2873</name></trkpt>
<trkpt lat="54.595313" lon="-3.217111"><ele>378</ele><time>2019-10-02T10:42:28Z</time><name>PT2874</name></trkpt>
<trkpt lat="54.595312" lon="-3.217116"><ele>378</ele><time>2019-10-02T10:42:29Z</time><name>PT2875</name></trkpt>
<trkpt lat="54.595310" lon="-3.217127"><ele>378</ele><time>2019-10-02T10:42:30Z</time><name>PT2876</name></trkpt>
<trkpt lat="54.595310" lon="-3.217139"><ele>378</ele><time>2019-10-02T10:42:31Z</time><name>PT2877</name></trkpt>
<trkpt lat="54.595308" lon="-3.217151"><ele>378</ele><time>2019-10-02T10:42:32Z</time><name>PT2878</name></trkpt>
<trkpt lat="54.595305" lon="-3.217165"><ele>378</ele><time>2019-10-02T10:42:33Z</time><name>PT2879</name></trkpt>
<trkpt lat="54.595303" lon="-3.217181"><ele>378</ele><time>2019-10-02T10:42:34Z</time><name>PT2880</name></trkpt>
<trkpt lat="54.595304" lon="-3.217199"><ele>378</ele><time>2019-10-02T10:42:35Z</time><name>PT2881</name></trkpt>
<trkpt lat="54.595306" lon="-3.217216"><ele>378</ele><time>2019-10-02T10:42:36Z</time><name>PT2882</name></trkpt>
<trkpt lat="54.595303" lon="-3.217231"><ele>378</ele><time>2019-10-02T10:42:37Z</time><name>PT2883</name></trkpt>
<trkpt lat="54.595302" lon="-3.217248"><ele>379</ele><time>2019-10-02T10:42:38Z</time><name>PT2884</name></trkpt>
<trkpt lat="54.595304" lon="-3.217264"><ele>379</ele><time>2019-10-02T10:42:39Z</time><name>PT2885</name></trkpt>
<trkpt lat="54.595303" lon="-3.217280"><ele>379</ele><time>2019-10-02T10:42:40Z</time><name>PT2886</name></trkpt>
<trkpt lat="54.595304" lon="-3.217300"><ele>379</ele><time>2019-10-02T10:42:41Z</time><name>PT2887</name></trkpt>
<trkpt lat="54.595304" lon="-3.217318"><ele>378</ele><time>2019-10-02T10:42:42Z</time><name>PT2888</name></trkpt>
<trkpt lat="54.595301" lon="-3.217335"><ele>378</ele><time>2019-10-02T10:42:43Z</time><name>PT2889</name></trkpt>
<trkpt lat="54.595297" lon="-3.217347"><ele>378</ele><time>2019-10-02T10:42:44Z</time><name>PT2890</name></trkpt>
<trkpt lat="54.595296" lon="-3.217362"><ele>378</ele><time>2019-10-02T10:42:45Z</time><name>PT2891</name></trkpt>
<trkpt lat="54.595292" lon="-3.217378"><ele>377</ele><time>2019-10-02T10:42:46Z</time><name>PT2892</name></trkpt>
<trkpt lat="54.595287" lon="-3.217392"><ele>377</ele><time>2019-10-02T10:42:47Z</time><name>PT2893</name></trkpt>
<trkpt lat="54.595281" lon="-3.217408"><ele>377</ele><time>2019-10-02T10:42:48Z</time><name>PT2894</name></trkpt>
<trkpt lat="54.595277" lon="-3.217425"><ele>377</ele><time>2019-10-02T10:42:49Z</time><name>PT2895</name></trkpt>
<trkpt lat="54.595274" lon="-3.217443"><ele>377</ele><time>2019-10-02T10:42:50Z</time><name>PT2896</name></trkpt>
<trkpt lat="54.595270" lon="-3.217457"><ele>377</ele><time>2019-10-02T10:42:51Z</time><name>PT2897</name></trkpt>
<trkpt lat="54.595265" lon="-3.217469"><ele>378</ele><time>2019-10-02T10:42:52Z</time><name>PT2898</name></trkpt>
<trkpt lat="54.595259" lon="-3.217483"><ele>378</ele><time>2019-10-02T10:42:53Z</time><name>PT2899</name></trkpt>
<trkpt lat="54.595256" lon="-3.217501"><ele>378</ele><time>2019-10-02T10:42:54Z</time><name>PT2900</name></trkpt>
<trkpt lat="54.595253" lon="-3.217517"><ele>378</ele><time>2019-10-02T10:42:55Z</time><name>PT2901</name></trkpt>
<trkpt lat="54.595250" lon="-3.217532"><ele>378</ele><time>2019-10-02T10:42:56Z</time><name>PT2902</name></trkpt>
<trkpt lat="54.595245" lon="-3.217547"><ele>378</ele><time>2019-10-02T10:42:57Z</time><name>PT2903</name></trkpt>
<trkpt lat="54.595242" lon="-3.217563"><ele>378</ele><time>2019-10-02T10:42:58Z</time><name>PT2904</name></trkpt>
<trkpt lat="54.595239" lon="-3.217577"><ele>378</ele><time>2019-10-02T10:42:59Z</time><name>PT2905</name></trkpt>
<trkpt lat="54.595236" lon="-3.217590"><ele>378</ele><time>2019-10-02T10:43:00Z</time><name>PT2906</name></trkpt>
<trkpt lat="54.595229" lon="-3.217597"><ele>378</ele><time>2019-10-02T10:43:01Z</time><name>PT2907</name></trkpt>
<trkpt lat="54.595224" lon="-3.217607"><ele>378</ele><time>2019-10-02T10:43:02Z</time><name>PT2908</name></trkpt>
<trkpt lat="54.595223" lon="-3.217623"><ele>378</ele><time>2019-10-02T10:43:03Z</time><name>PT2909</name></trkpt>
<trkpt lat="54.595220" lon="-3.217635"><ele>378</ele><time>2019-10-02T10:43:04Z</time><name>PT2910</name></trkpt>
<trkpt lat="54.595216" lon="-3.217648"><ele>379</ele><time>2019-10-02T10:43:05Z</time><name>PT2911</name></trkpt>
<trkpt lat="54.595212" lon="-3.217659"><ele>379</ele><time>2019-10-02T10:43:06Z</time><name>PT2912</name></trkpt>
<trkpt lat="54.595209" lon="-3.217671"><ele>379</ele><time>2019-10-02T10:43:07Z</time><name>PT2913</name></trkpt>
<trkpt lat="54.595205" lon="-3.217683"><ele>379</ele><time>2019-10-02T10:43:08Z</time><name>PT2914</name></trkpt>
<trkpt lat="54.595203" lon="-3.217696"><ele>379</ele><time>2019-10-02T10:43:09Z</time><name>PT2915</name></trkpt>
<trkpt lat="54.595203" lon="-3.217710"><ele>380</ele><time>2019-10-02T10:43:10Z</time><name>PT2916</name></trkpt>
<trkpt lat="54.595202" lon="-3.217723"><ele>380</ele><time>2019-10-02T10:43:11Z</time><name>PT2917</name></trkpt>
<trkpt lat="54.595198" lon="-3.217737"><ele>380</ele><time>2019-10-02T10:43:12Z</time><name>PT2918</name></trkpt>
<trkpt lat="54.595193" lon="-3.217752"><ele>380</ele><time>2019-10-02T10:43:13Z</time><name>PT2919</name></trkpt>
<trkpt lat="54.595191" lon="-3.217769"><ele>380</ele><time>2019-10-02T10:43:14Z</time><name>PT2920</name></trkpt>
<trkpt lat="54.595188" lon="-3.217787"><ele>380</ele><time>2019-10-02T10:43:15Z</time><name>PT2921</name></trkpt>
<trkpt lat="54.595187" lon="-3.217801"><ele>381</ele><time>2019-10-02T10:43:16Z</time><name>PT2922</name></trkpt>
<trkpt lat="54.595184" lon="-3.217818"><ele>381</ele><time>2019-10-02T10:43:17Z</time><name>PT2923</name></trkpt>
<trkpt lat="54.595181" lon="-3.217836"><ele>381</ele><time>2019-10-02T10:43:18Z</time><name>PT2924</name></trkpt>
<trkpt lat="54.595180" lon="-3.217852"><ele>381</ele><time>2019-10-02T10:43:19Z</time><name>PT2925</name></trkpt>
<trkpt lat="54.595176" lon="-3.217867"><ele>381</ele><time>2019-10-02T10:43:20Z</time><name>PT2926</name></trkpt>
<trkpt lat="54.595171" lon="-3.217880"><ele>381</ele><time>2019-10-02T10:43:21Z</time><name>PT2927</name></trkpt>
<trkpt lat="54.595168" lon="-3.217893"><ele>381</ele><time>2019-10-02T10:43:22Z</time><name>PT2928</name></trkpt>
<trkpt lat="54.595167" lon="-3.217906"><ele>382</ele><time>2019-10-02T10:43:23Z</time><name>PT2929</name></trkpt>
<trkpt lat="54.595166" lon="-3.217920"><ele>382</ele><time>2019-10-02T10:43:24Z</time><name>PT2930</name></trkpt>
<trkpt lat="54.595161" lon="-3.217938"><ele>382</ele><time>2019-10-02T10:43:25Z</time><name>PT2931</name></trkpt>
<trkpt lat="54.595159" lon="-3.217954"><ele>382</ele><time>2019-10-02T10:43:26Z</time><name>PT2932</name></trkpt>
<trkpt lat="54.595157" lon="-3.217969"><ele>382</ele><time>2019-10-02T10:43:27Z</time><name>PT2933</name></trkpt>
<trkpt lat="54.595156" lon="-3.217982"><ele>382</ele><time>2019-10-02T10:43:28Z</time><name>PT2934</name></trkpt>
<trkpt lat="54.595154" lon="-3.217997"><ele>382</ele><time>2019-10-02T10:43:29Z</time><name>PT2935</name></trkpt>
<trkpt lat="54.595151" lon="-3.218012"><ele>382</ele><time>2019-10-02T10:43:30Z</time><name>PT2936</name></trkpt>
<trkpt lat="54.595150" lon="-3.218029"><ele>382</ele><time>2019-10-02T10:43:31Z</time><name>PT2937</name></trkpt>
<trkpt lat="54.595149" lon="-3.218042"><ele>383</ele><time>2019-10-02T10:43:32Z</time><name>PT2938</name></trkpt>
<trkpt lat="54.595146" lon="-3.218055"><ele>383</ele><time>2019-10-02T10:43:33Z</time><name>PT2939</name></trkpt>
<trkpt lat="54.595143" lon="-3.218068"><ele>383</ele><time>2019-10-02T10:43:34Z</time><name>PT2940</name></trkpt>
<trkpt lat="54.595140" lon="-3.218085"><ele>383</ele><time>2019-10-02T10:43:35Z</time><name>PT2941</name></trkpt>
<trkpt lat="54.595139" lon="-3.218101"><ele>383</ele><time>2019-10-02T10:43:36Z</time><name>PT2942</name></trkpt>
<trkpt lat="54.595137" lon="-3.218117"><ele>384</ele><time>2019-10-02T10:43:37Z</time><name>PT2943</name></trkpt>
<trkpt lat="54.595136" lon="-3.218130"><ele>384</ele><time>2019-10-02T10:43:38Z</time><name>PT2944</name></trkpt>
<trkpt lat="54.595137" lon="-3.218145"><ele>384</ele><time>2019-10-02T10:43:39Z</time><name>PT2945</name></trkpt>
<trkpt lat="54.595136" lon="-3.218162"><ele>384</ele><time>2019-10-02T10:43:40Z</time><name>PT2946</name></trkpt>
<trkpt lat="54.595137" lon="-3.218179"><ele>385</ele><time>2019-10-02T10:43:41Z</time><name>PT2947</name></trkpt>
<trkpt lat="54.595136" lon="-3.218195"><ele>384</ele><time>2019-10-02T10:43:42Z</time><name>PT2948</name></trkpt>
<trkpt lat="54.595137" lon="-3.218213"><ele>385</ele><time>2019-10-02T10:43:43Z</time><name>PT2949</name></trkpt>
<trkpt lat="54.595137" lon="-3.218228"><ele>385</ele><time>2019-10-02T10:43:44Z</time><name>PT2950</name></trkpt>
<trkpt lat="54.595136" lon="-3.218242"><ele>385</ele><time>2019-10-02T10:43:45Z</time><name>PT2951</name></trkpt>
<trkpt lat="54.595134" lon="-3.218256"><ele>385</ele><time>2019-10-02T10:43:46Z</time><name>PT2952</name></trkpt>
<trkpt lat="54.595134" lon="-3.218271"><ele>385</ele><time>2019-10-02T10:43:47Z</time><name>PT2953</name></trkpt>
<trkpt lat="54.595133" lon="-3.218284"><ele>385</ele><time>2019-10-02T10:43:48Z</time><name>PT2954</name></trkpt>
<trkpt lat="54.595131" lon="-3.218299"><ele>385</ele><time>2019-10-02T10:43:49Z</time><name>PT2955</name></trkpt>
<trkpt lat="54.595129" lon="-3.218313"><ele>385</ele><time>2019-10-02T10:43:50Z</time><name>PT2956</name></trkpt>
<trkpt lat="54.595128" lon="-3.218328"><ele>385</ele><time>2019-10-02T10:43:51Z</time><name>PT2957</name></trkpt>
<trkpt lat="54.595126" lon="-3.218343"><ele>386</ele><time>2019-10-02T10:43:52Z</time><name>PT2958</name></trkpt>
<trkpt lat="54.595127" lon="-3.218360"><ele>386</ele><time>2019-10-02T10:43:53Z</time><name>PT2959</name></trkpt>
<trkpt lat="54.595124" lon="-3.218378"><ele>386</ele><time>2019-10-02T10:43:54Z</time><name>PT2960</name></trkpt>
<trkpt lat="54.595124" lon="-3.218395"><ele>386</ele><time>2019-10-02T10:43:55Z</time><name>PT2961</name></trkpt>
<trkpt lat="54.595120" lon="-3.218412"><ele>386</ele><time>2019-10-02T10:43:56Z</time><name>PT2962</name></trkpt>
<trkpt lat="54.595118" lon="-3.218427"><ele>386</ele><time>2019-10-02T10:43:57Z</time><name>PT2963</name></trkpt>
<trkpt lat="54.595115" lon="-3.218442"><ele>386</ele><time>2019-10-02T10:43:58Z</time><name>PT2964</name></trkpt>
<trkpt lat="54.595112" lon="-3.218459"><ele>386</ele><time>2019-10-02T10:43:59Z</time><name>PT2965</name></trkpt>
<trkpt lat="54.595111" lon="-3.218475"><ele>387</ele><time>2019-10-02T10:44:00Z</time><name>PT2966</name></trkpt>
<trkpt lat="54.595109" lon="-3.218486"><ele>387</ele><time>2019-10-02T10:44:01Z</time><name>PT2967</name></trkpt>
<trkpt lat="54.595108" lon="-3.218501"><ele>388</ele><time>2019-10-02T10:44:02Z</time><name>PT2968</name></trkpt>
<trkpt lat="54.595106" lon="-3.218516"><ele>388</ele><time>2019-10-02T10:44:03Z</time><name>PT2969</name></trkpt>
<trkpt lat="54.595102" lon="-3.218532"><ele>388</ele><time>2019-10-02T10:44:04Z</time><name>PT2970</name></trkpt>
<trkpt lat="54.595096" lon="-3.218544"><ele>388</ele><time>2019-10-02T10:44:05Z</time><name>PT2971</name></trkpt>
<trkpt lat="54.595089" lon="-3.218558"><ele>388</ele><time>2019-10-02T10:44:06Z</time><name>PT2972</name></trkpt>
<trkpt lat="54.595086" lon="-3.218571"><ele>388</ele><time>2019-10-02T10:44:07Z</time><name>PT2973</name></trkpt>
<trkpt lat="54.595081" lon="-3.218585"><ele>388</ele><time>2019-10-02T10:44:08Z</time><name>PT2974</name></trkpt>
<trkpt lat="54.595076" lon="-3.218596"><ele>389</ele><time>2019-10-02T10:44:09Z</time><name>PT2975</name></trkpt>
<trkpt lat="54.595068" lon="-3.218607"><ele>388</ele><time>2019-10-02T10:44:10Z</time><name>PT2976</name></trkpt>
<trkpt lat="54.595063" lon="-3.218619"><ele>389</ele><time>2019-10-02T10:44:11Z</time><name>PT2977</name></trkpt>
<trkpt lat="54.595059" lon="-3.218634"><ele>389</ele><time>2019-10-02T10:44:12Z</time><name>PT2978</name></trkpt>
<trkpt lat="54.595056" lon="-3.218646"><ele>389</ele><time>2019-10-02T10:44:13Z</time><name>PT2979</name></trkpt>
<trkpt lat="54.595052" lon="-3.218658"><ele>389</ele><time>2019-10-02T10:44:14Z</time><name>PT2980</name></trkpt>
<trkpt lat="54.595048" lon="-3.218673"><ele>389</ele><time>2019-10-02T10:44:15Z</time><name>PT2981</name></trkpt>
<trkpt lat="54.595043" lon="-3.218684"><ele>389</ele><time>2019-10-02T10:44:16Z</time><name>PT2982</name></trkpt>
<trkpt lat="54.595038" lon="-3.218697"><ele>389</ele><time>2019-10-02T10:44:17Z</time><name>PT2983</name></trkpt>
<trkpt lat="54.595034" lon="-3.218713"><ele>389</ele><time>2019-10-02T10:44:18Z</time><name>PT2984</name></trkpt>
<trkpt lat="54.595030" lon="-3.218729"><ele>389</ele><time>2019-10-02T10:44:19Z</time><name>PT2985</name></trkpt>
<trkpt lat="54.595025" lon="-3.218744"><ele>389</ele><time>2019-10-02T10:44:20Z</time><name>PT2986</name></trkpt>
<trkpt lat="54.595019" lon="-3.218757"><ele>389</ele><time>2019-10-02T10:44:21Z</time><name>PT2987</name></trkpt>
<trkpt lat="54.595015" lon="-3.218771"><ele>389</ele><time>2019-10-02T10:44:22Z</time><name>PT2988</name></trkpt>
<trkpt lat="54.595013" lon="-3.218785"><ele>389</ele><time>2019-10-02T10:44:23Z</time><name>PT2989</name></trkpt>
<trkpt lat="54.595012" lon="-3.218802"><ele>389</ele><time>2019-10-02T10:44:24Z</time><name>PT2990</name></trkpt>
<trkpt lat="54.595008" lon="-3.218816"><ele>389</ele><time>2019-10-02T10:44:25Z</time><name>PT2991</name></trkpt>
<trkpt lat="54.595003" lon="-3.218827"><ele>389</ele><time>2019-10-02T10:44:26Z</time><name>PT2992</name></trkpt>
<trkpt lat="54.594997" lon="-3.218842"><ele>389</ele><time>2019-10-02T10:44:27Z</time><name>PT2993</name></trkpt>
<trkpt lat="54.594991" lon="-3.218854"><ele>389</ele><time>2019-10-02T10:44:28Z</time><name>PT2994</name></trkpt>
<trkpt lat="54.594986" lon="-3.218866"><ele>389</ele><time>2019-10-02T10:44:29Z</time><name>PT2995</name></trkpt>
<trkpt lat="54.594982" lon="-3.218878"><ele>390</ele><time>2019-10-02T10:44:30Z</time><name>PT2996</name></trkpt>
<trkpt lat="54.594981" lon="-3.218890"><ele>390</ele><time>2019-10-02T10:44:31Z</time><name>PT2997</name></trkpt>
<trkpt lat="54.594980" lon="-3.218897"><ele>390</ele><time>2019-10-02T10:44:32Z</time><name>PT2998</name></trkpt>
<trkpt lat="54.594978" lon="-3.218904"><ele>390</ele><time>2019-10-02T10:44:33Z</time><name>PT2999</name></trkpt>
<trkpt lat="54.594976" lon="-3.218921"><ele>390</ele><time>2019-10-02T10:44:34Z</time><name>PT3000</name></trkpt>
<trkpt lat="54.594969" lon="-3.218935"><ele>390</ele><time>2019-10-02T10:44:35Z</time><name>PT3001</name></trkpt>
<trkpt lat="54.594964" lon="-3.218946"><ele>390</ele><time>2019-10-02T10:44:36Z</time><name>PT3002</name></trkpt>
<trkpt lat="54.594962" lon="-3.218958"><ele>390</ele><time>2019-10-02T10:44:37Z</time><name>PT3003</name></trkpt>
<trkpt lat="54.594961" lon="-3.218971"><ele>391</ele><time>2019-10-02T10:44:38Z</time><name>PT3004</name></trkpt>
<trkpt lat="54.594959" lon="-3.218986"><ele>391</ele><time>2019-10-02T10:44:39Z</time><name>PT3005</name></trkpt>
<trkpt lat="54.594956" lon="-3.218996"><ele>391</ele><time>2019-10-02T10:44:40Z</time><name>PT3006</name></trkpt>
<trkpt lat="54.594950" lon="-3.219009"><ele>391</ele><time>2019-10-02T10:44:41Z</time><name>PT3007</name></trkpt>
<trkpt lat="54.594948" lon="-3.219023"><ele>391</ele><time>2019-10-02T10:44:42Z</time><name>PT3008</name></trkpt>
<trkpt lat="54.594947" lon="-3.219032"><ele>391</ele><time>2019-10-02T10:44:43Z</time><name>PT3009</name></trkpt>
<trkpt lat="54.594944" lon="-3.219046"><ele>391</ele><time>2019-10-02T10:44:44Z</time><name>PT3010</name></trkpt>
<trkpt lat="54.594939" lon="-3.219061"><ele>391</ele><time>2019-10-02T10:44:45Z</time><name>PT3011</name></trkpt>
<trkpt lat="54.594936" lon="-3.219071"><ele>391</ele><time>2019-10-02T10:44:46Z</time><name>PT3012</name></trkpt>
<trkpt lat="54.594932" lon="-3.219085"><ele>391</ele><time>2019-10-02T10:44:47Z</time><name>PT3013</name></trkpt>
<trkpt lat="54.594932" lon="-3.219101"><ele>392</ele><time>2019-10-02T10:44:48Z</time><name>PT3014</name></trkpt>
<trkpt lat="54.594931" lon="-3.219116"><ele>392</ele><time>2019-10-02T10:44:49Z</time><name>PT3015</name></trkpt>
<trkpt lat="54.594928" lon="-3.219129"><ele>392</ele><time>2019-10-02T10:44:50Z</time><name>PT3016</name></trkpt>
<trkpt lat="54.594924" lon="-3.219141"><ele>392</ele><time>2019-10-02T10:44:51Z</time><name>PT3017</name></trkpt>
<trkpt lat="54.594923" lon="-3.219154"><ele>392</ele><time>2019-10-02T10:44:52Z</time><name>PT3018</name></trkpt>
<trkpt lat="54.594922" lon="-3.219170"><ele>392</ele><time>2019-10-02T10:44:53Z</time><name>PT3019</name></trkpt>
<trkpt lat="54.594923" lon="-3.219181"><ele>393</ele><time>2019-10-02T10:44:54Z</time><name>PT3020</name></trkpt>
<trkpt lat="54.594918" lon="-3.219193"><ele>393</ele><time>2019-10-02T10:44:55Z</time><name>PT3021</name></trkpt>
<trkpt lat="54.594917" lon="-3.219206"><ele>393</ele><time>2019-10-02T10:44:56Z</time><name>PT3022</name></trkpt>
<trkpt lat="54.594917" lon="-3.219221"><ele>393</ele><time>2019-10-02T10:44:57Z</time><name>PT3023</name></trkpt>
<trkpt lat="54.594915" lon="-3.219236"><ele>393</ele><time>2019-10-02T10:44:58Z</time><name>PT3024</name></trkpt>
<trkpt lat="54.594909" lon="-3.219251"><ele>393</ele><time>2019-10-02T10:44:59Z</time><name>PT3025</name></trkpt>
<trkpt lat="54.594907" lon="-3.219268"><ele>393</ele><time>2019-10-02T10:45:00Z</time><name>PT3026</name></trkpt>
<trkpt lat="54.594902" lon="-3.219286"><ele>393</ele><time>2019-10-02T10:45:01Z</time><name>PT3027</name></trkpt>
<trkpt lat="54.594899" lon="-3.219301"><ele>394</ele><time>2019-10-02T10:45:02Z</time><name>PT3028</name></trkpt>
<trkpt lat="54.594895" lon="-3.219317"><ele>394</ele><time>2019-10-02T10:45:03Z</time><name>PT3029</name></trkpt>
<trkpt lat="54.594892" lon="-3.219332"><ele>394</ele><time>2019-10-02T10:45:04Z</time><name>PT3030</name></trkpt>
<trkpt lat="54.594891" lon="-3.219346"><ele>394</ele><time>2019-10-02T10:45:05Z</time><name>PT3031</name></trkpt>
<trkpt lat="54.594888" lon="-3.219362"><ele>394</ele><time>2019-10-02T10:45:06Z</time><name>PT3032</name></trkpt>
<trkpt lat="54.594885" lon="-3.219378"><ele>394</ele><time>2019-10-02T10:45:07Z</time><name>PT3033</name></trkpt>
<trkpt lat="54.594884" lon="-3.219394"><ele>395</ele><time>2019-10-02T10:45:08Z</time><name>PT3034</name></trkpt>
<trkpt lat="54.594882" lon="-3.219411"><ele>395</ele><time>2019-10-02T10:45:09Z</time><name>PT3035</name></trkpt>
<trkpt lat="54.594880" lon="-3.219422"><ele>395</ele><time>2019-10-02T10:45:10Z</time><name>PT3036</name></trkpt>
<trkpt lat="54.594877" lon="-3.219434"><ele>395</ele><time>2019-10-02T10:45:11Z</time><name>PT3037</name></trkpt>
<trkpt lat="54.594877" lon="-3.219446"><ele>396</ele><time>2019-10-02T10:45:12Z</time><name>PT3038</name></trkpt>
<trkpt lat="54.594876" lon="-3.219461"><ele>396</ele><time>2019-10-02T10:45:13Z</time><name>PT3039</name></trkpt>
<trkpt lat="54.594876" lon="-3.219474"><ele>396</ele><time>2019-10-02T10:45:14Z</time><name>PT3040</name></trkpt>
<trkpt lat="54.594874" lon="-3.219488"><ele>397</ele><time>2019-10-02T10:45:15Z</time><name>PT3041</name></trkpt>
<trkpt lat="54.594873" lon="-3.219502"><ele>397</ele><time>2019-10-02T10:45:16Z</time><name>PT3042</name></trkpt>
<trkpt lat="54.594873" lon="-3.219519"><ele>397</ele><time>2019-10-02T10:45:17Z</time><name>PT3043</name></trkpt>
<trkpt lat="54.594872" lon="-3.219534"><ele>398</ele><time>2019-10-02T10:45:18Z</time><name>PT3044</name></trkpt>
<trkpt lat="54.594870" lon="-3.219548"><ele>398</ele><time>2019-10-02T10:45:19Z</time><name>PT3045</name></trkpt>
<trkpt lat="54.594871" lon="-3.219563"><ele>398</ele><time>2019-10-02T10:45:20Z</time><name>PT3046</name></trkpt>
<trkpt lat="54.594870" lon="-3.219579"><ele>398</ele><time>2019-10-02T10:45:21Z</time><name>PT3047</name></trkpt>
<trkpt lat="54.594871" lon="-3.219593"><ele>399</ele><time>2019-10-02T10:45:22Z</time><name>PT3048</name></trkpt>
<trkpt lat="54.594867" lon="-3.219608"><ele>399</ele><time>2019-10-02T10:45:23Z</time><name>PT3049</name></trkpt>
<trkpt lat="54.594864" lon="-3.219623"><ele>399</ele><time>2019-10-02T10:45:24Z</time><name>PT3050</name></trkpt>
<trkpt lat="54.594863" lon="-3.219638"><ele>400</ele><time>2019-10-02T10:45:25Z</time><name>PT3051</name></trkpt>
<trkpt lat="54.594861" lon="-3.219654"><ele>399</ele><time>2019-10-02T10:45:26Z</time><name>PT3052</name></trkpt>
<trkpt lat="54.594859" lon="-3.219669"><ele>400</ele><time>2019-10-02T10:45:27Z</time><name>PT3053</name></trkpt>
<trkpt lat="54.594855" lon="-3.219682"><ele>400</ele><time>2019-10-02T10:45:28Z</time><name>PT3054</name></trkpt>
<trkpt lat="54.594852" lon="-3.219696"><ele>400</ele><time>2019-10-02T10:45:29Z</time><name>PT3055</name></trkpt>
<trkpt lat="54.594850" lon="-3.219714"><ele>400</ele><time>2019-10-02T10:45:30Z</time><name>PT3056</name></trkpt>
<trkpt lat="54.594847" lon="-3.219729"><ele>400</ele><time>2019-10-02T10:45:31Z</time><name>PT3057</name></trkpt>
<trkpt lat="54.594844" lon="-3.219741"><ele>400</ele><time>2019-10-02T10:45:32Z</time><name>PT3058</name></trkpt>
<trkpt lat="54.594842" lon="-3.219759"><ele>400</ele><time>2019-10-02T10:45:33Z</time><name>PT3059</name></trkpt>
<trkpt lat="54.594842" lon="-3.219774"><ele>401</ele><time>2019-10-02T10:45:34Z</time><name>PT3060</name></trkpt>
<trkpt lat="54.594836" lon="-3.219789"><ele>401</ele><time>2019-10-02T10:45:35Z</time><name>PT3061</name></trkpt>
<trkpt lat="54.594832" lon="-3.219805"><ele>401</ele><time>2019-10-02T10:45:36Z</time><name>PT3062</name></trkpt>
<trkpt lat="54.594831" lon="-3.219816"><ele>400</ele><time>2019-10-02T10:45:37Z</time><name>PT3063</name></trkpt>
<trkpt lat="54.594828" lon="-3.219822"><ele>401</ele><time>2019-10-02T10:45:38Z</time><name>PT3064</name></trkpt>
<trkpt lat="54.594822" lon="-3.219832"><ele>400</ele><time>2019-10-02T10:45:39Z</time><name>PT3065</name></trkpt>
<trkpt lat="54.594824" lon="-3.219844"><ele>401</ele><time>2019-10-02T10:45:40Z</time><name>PT3066</name></trkpt>
<trkpt lat="54.594823" lon="-3.219862"><ele>401</ele><time>2019-10-02T10:45:41Z</time><name>PT3067</name></trkpt>
<trkpt lat="54.594821" lon="-3.219874"><ele>401</ele><time>2019-10-02T10:45:42Z</time><name>PT3068</name></trkpt>
<trkpt lat="54.594819" lon="-3.219887"><ele>401</ele><time>2019-10-02T10:45:43Z</time><name>PT3069</name></trkpt>
<trkpt lat="54.594817" lon="-3.219900"><ele>402</ele><time>2019-10-02T10:45:44Z</time><name>PT3070</name></trkpt>
<trkpt lat="54.594817" lon="-3.219915"><ele>402</ele><time>2019-10-02T10:45:45Z</time><name>PT3071</name></trkpt>
<trkpt lat="54.594818" lon="-3.219927"><ele>402</ele><time>2019-10-02T10:45:46Z</time><name>PT3072</name></trkpt>
<trkpt lat="54.594816" lon="-3.219941"><ele>403</ele><time>2019-10-02T10:45:47Z</time><name>PT3073</name></trkpt>
<trkpt lat="54.594816" lon="-3.219953"><ele>403</ele><time>2019-10-02T10:45:48Z</time><name>PT3074</name></trkpt>
<trkpt lat="54.594819" lon="-3.219962"><ele>403</ele><time>2019-10-02T10:45:49Z</time><name>PT3075</name></trkpt>
<trkpt lat="54.594816" lon="-3.219976"><ele>403</ele><time>2019-10-02T10:45:50Z</time><name>PT3076</name></trkpt>
<trkpt lat="54.594814" lon="-3.219989"><ele>403</ele><time>2019-10-02T10:45:51Z</time><name>PT3077</name></trkpt>
<trkpt lat="54.594811" lon="-3.220002"><ele>403</ele><time>2019-10-02T10:45:52Z</time><name>PT3078</name></trkpt>
<trkpt lat="54.594808" lon="-3.220010"><ele>403</ele><time>2019-10-02T10:45:53Z</time><name>PT3079</name></trkpt>
<trkpt lat="54.594808" lon="-3.220023"><ele>403</ele><time>2019-10-02T10:45:54Z</time><name>PT3080</name></trkpt>
<trkpt lat="54.594808" lon="-3.220037"><ele>403</ele><time>2019-10-02T10:45:55Z</time><name>PT3081</name></trkpt>
<trkpt lat="54.594807" lon="-3.220049"><ele>403</ele><time>2019-10-02T10:45:56Z</time><name>PT3082</name></trkpt>
<trkpt lat="54.594808" lon="-3.220060"><ele>403</ele><time>2019-10-02T10:45:57Z</time><name>PT3083</name></trkpt>
<trkpt lat="54.594808" lon="-3.220075"><ele>403</ele><time>2019-10-02T10:45:58Z</time><name>PT3084</name></trkpt>
<trkpt lat="54.594806" lon="-3.220090"><ele>403</ele><time>2019-10-02T10:45:59Z</time><name>PT3085</name></trkpt>
<trkpt lat="54.594806" lon="-3.220106"><ele>403</ele><time>2019-10-02T10:46:00Z</time><name>PT3086</name></trkpt>
<trkpt lat="54.594806" lon="-3.220123"><ele>404</ele><time>2019-10-02T10:46:01Z</time><name>PT3087</name></trkpt>
<trkpt lat="54.594807" lon="-3.220137"><ele>404</ele><time>2019-10-02T10:46:02Z</time><name>PT3088</name></trkpt>
<trkpt lat="54.594805" lon="-3.220151"><ele>404</ele><time>2019-10-02T10:46:03Z</time><name>PT3089</name></trkpt>
<trkpt lat="54.594806" lon="-3.220165"><ele>405</ele><time>2019-10-02T10:46:04Z</time><name>PT3090</name></trkpt>
<trkpt lat="54.594809" lon="-3.220177"><ele>405</ele><time>2019-10-02T10:46:05Z</time><name>PT3091</name></trkpt>
<trkpt lat="54.594809" lon="-3.220187"><ele>405</ele><time>2019-10-02T10:46:06Z</time><name>PT3092</name></trkpt>
<trkpt lat="54.594808" lon="-3.220200"><ele>405</ele><time>2019-10-02T10:46:07Z</time><name>PT3093</name></trkpt>
<trkpt lat="54.594809" lon="-3.220210"><ele>405</ele><time>2019-10-02T10:46:08Z</time><name>PT3094</name></trkpt>
<trkpt lat="54.594807" lon="-3.220219"><ele>406</ele><time>2019-10-02T10:46:09Z</time><name>PT3095</name></trkpt>
<trkpt lat="54.594807" lon="-3.220233"><ele>406</ele><time>2019-10-02T10:46:10Z</time><name>PT3096</name></trkpt>
<trkpt lat="54.594807" lon="-3.220244"><ele>406</ele><time>2019-10-02T10:46:11Z</time><name>PT3097</name></trkpt>
<trkpt lat="54.594809" lon="-3.220258"><ele>406</ele><time>2019-10-02T10:46:12Z</time><name>PT3098</name></trkpt>
<trkpt lat="54.594810" lon="-3.220271"><ele>406</ele><time>2019-10-02T10:46:13Z</time><name>PT3099</name></trkpt>
<trkpt lat="54.594810" lon="-3.220286"><ele>406</ele><time>2019-10-02T10:46:14Z</time><name>PT3100</name></trkpt>
<trkpt lat="54.594811" lon="-3.220299"><ele>406</ele><time>2019-10-02T10:46:15Z</time><name>PT3101</name></trkpt>
<trkpt lat="54.594812" lon="-3.220311"><ele>406</ele><time>2019-10-02T10:46:16Z</time><name>PT3102</name></trkpt>
<trkpt lat="54.594812" lon="-3.220324"><ele>407</ele><time>2019-10-02T10:46:17Z</time><name>PT3103</name></trkpt>
<trkpt lat="54.594810" lon="-3.220340"><ele>407</ele><time>2019-10-02T10:46:18Z</time><name>PT3104</name></trkpt>
<trkpt lat="54.594811" lon="-3.220355"><ele>407</ele><time>2019-10-02T10:46:19Z</time><name>PT3105</name></trkpt>
<trkpt lat="54.594811" lon="-3.220370"><ele>407</ele><time>2019-10-02T10:46:20Z</time><name>PT3106</name></trkpt>
<trkpt lat="54.594813" lon="-3.220390"><ele>407</ele><time>2019-10-02T10:46:21Z</time><name>PT3107</name></trkpt>
<trkpt lat="54.594815" lon="-3.220406"><ele>408</ele><time>2019-10-02T10:46:22Z</time><name>PT3108</name></trkpt>
<trkpt lat="54.594815" lon="-3.220421"><ele>408</ele><time>2019-10-02T10:46:23Z</time><name>PT3109</name></trkpt>
<trkpt lat="54.594816" lon="-3.220434"><ele>408</ele><time>2019-10-02T10:46:24Z</time><name>PT3110</name></trkpt>
<trkpt lat="54.594820" lon="-3.220444"><ele>408</ele><time>2019-10-02T10:46:25Z</time><name>PT3111</name></trkpt>
<trkpt lat="54.594823" lon="-3.220456"><ele>409</ele><time>2019-10-02T10:46:26Z</time><name>PT3112</name></trkpt>
<trkpt lat="54.594825" lon="-3.220470"><ele>409</ele><time>2019-10-02T10:46:27Z</time><name>PT3113</name></trkpt>
<trkpt lat="54.594829" lon="-3.220484"><ele>409</ele><time>2019-10-02T10:46:28Z</time><name>PT3114</name></trkpt>
<trkpt lat="54.594832" lon="-3.220499"><ele>409</ele><time>2019-10-02T10:46:29Z</time><name>PT3115</name></trkpt>
<trkpt lat="54.594834" lon="-3.220515"><ele>409</ele><time>2019-10-02T10:46:30Z</time><name>PT3116</name></trkpt>
<trkpt lat="54.594837" lon="-3.220530"><ele>409</ele><time>2019-10-02T10:46:31Z</time><name>PT3117</name></trkpt>
<trkpt lat="54.594844" lon="-3.220542"><ele>409</ele><time>2019-10-02T10:46:32Z</time><name>PT3118</name></trkpt>
<trkpt lat="54.594847" lon="-3.220556"><ele>410</ele><time>2019-10-02T10:46:33Z</time><name>PT3119</name></trkpt>
<trkpt lat="54.594848" lon="-3.220569"><ele>410</ele><time>2019-10-02T10:46:34Z</time><name>PT3120</name></trkpt>
<trkpt lat="54.594852" lon="-3.220583"><ele>410</ele><time>2019-10-02T10:46:35Z</time><name>PT3121</name></trkpt>
<trkpt lat="54.594853" lon="-3.220593"><ele>411</ele><time>2019-10-02T10:46:36Z</time><name>PT3122</name></trkpt>
<trkpt lat="54.594857" lon="-3.220607"><ele>411</ele><time>2019-10-02T10:46:37Z</time><name>PT3123</name></trkpt>
<trkpt lat="54.594858" lon="-3.220620"><ele>411</ele><time>2019-10-02T10:46:38Z</time><name>PT3124</name></trkpt>
<trkpt lat="54.594860" lon="-3.220632"><ele>411</ele><time>2019-10-02T10:46:39Z</time><name>PT3125</name></trkpt>
<trkpt lat="54.594862" lon="-3.220644"><ele>412</ele><time>2019-10-02T10:46:40Z</time><name>PT3126</name></trkpt>
<trkpt lat="54.594863" lon="-3.220657"><ele>412</ele><time>2019-10-02T10:46:41Z</time><name>PT3127</name></trkpt>
<trkpt lat="54.594867" lon="-3.220672"><ele>412</ele><time>2019-10-02T10:46:42Z</time><name>PT3128</name></trkpt>
<trkpt lat="54.594869" lon="-3.220685"><ele>412</ele><time>2019-10-02T10:46:43Z</time><name>PT3129</name></trkpt>
<trkpt lat="54.594869" lon="-3.220700"><ele>413</ele><time>2019-10-02T10:46:44Z</time><name>PT3130</name></trkpt>
<trkpt lat="54.594870" lon="-3.220713"><ele>413</ele><time>2019-10-02T10:46:45Z</time><name>PT3131</name></trkpt>
<trkpt lat="54.594873" lon="-3.220729"><ele>413</ele><time>2019-10-02T10:46:46Z</time><name>PT3132</name></trkpt>
<trkpt lat="54.594872" lon="-3.220738"><ele>412</ele><time>2019-10-02T10:46:47Z</time><name>PT3133</name></trkpt>
<trkpt lat="54.594870" lon="-3.220745"><ele>413</ele><time>2019-10-02T10:46:48Z</time><name>PT3134</name></trkpt>
<trkpt lat="54.594867" lon="-3.220753"><ele>413</ele><time>2019-10-02T10:46:49Z</time><name>PT3135</name></trkpt>
<trkpt lat="54.594870" lon="-3.220763"><ele>413</ele><time>2019-10-02T10:46:50Z</time><name>PT3136</name></trkpt>
<trkpt lat="54.594870" lon="-3.220774"><ele>413</ele><time>2019-10-02T10:46:51Z</time><name>PT3137</name></trkpt>
<trkpt lat="54.594865" lon="-3.220785"><ele>413</ele><time>2019-10-02T10:46:52Z</time><name>PT3138</name></trkpt>
<trkpt lat="54.594861" lon="-3.220794"><ele>413</ele><time>2019-10-02T10:46:53Z</time><name>PT3139</name></trkpt>
<trkpt lat="54.594859" lon="-3.220806"><ele>413</ele><time>2019-10-02T10:46:54Z</time><name>PT3140</name></trkpt>
<trkpt lat="54.594858" lon="-3.220820"><ele>413</ele><time>2019-10-02T10:46:55Z</time><name>PT3141</name></trkpt>
<trkpt lat="54.594857" lon="-3.220832"><ele>413</ele><time>2019-10-02T10:46:56Z</time><name>PT3142</name></trkpt>
<trkpt lat="54.594856" lon="-3.220838"><ele>412</ele><time>2019-10-02T10:46:57Z</time><name>PT3143</name></trkpt>
<trkpt lat="54.594854" lon="-3.220836"><ele>412</ele><time>2019-10-02T10:46:58Z</time><name>PT3144</name></trkpt>
<trkpt lat="54.594852" lon="-3.220841"><ele>413</ele><time>2019-10-02T10:46:59Z</time><name>PT3145</name></trkpt>
<trkpt lat="54.594854" lon="-3.220852"><ele>413</ele><time>2019-10-02T10:47:00Z</time><name>PT3146</name></trkpt>
<trkpt lat="54.594854" lon="-3.220860"><ele>413</ele><time>2019-10-02T10:47:01Z</time><name>PT3147</name></trkpt>
<trkpt lat="54.594854" lon="-3.220874"><ele>414</ele><time>2019-10-02T10:47:02Z</time><name>PT3148</name></trkpt>
<trkpt lat="54.594854" lon="-3.220889"><ele>414</ele><time>2019-10-02T10:47:03Z</time><name>PT3149</name></trkpt>
<trkpt lat="54.594857" lon="-3.220902"><ele>414</ele><time>2019-10-02T10:47:04Z</time><name>PT3150</name></trkpt>
<trkpt lat="54.594858" lon="-3.220914"><ele>414</ele><time>2019-10-02T10:47:05Z</time><name>PT3151</name></trkpt>
<trkpt lat="54.594861" lon="-3.220925"><ele>414</ele><time>2019-10-02T10:47:06Z</time><name>PT3152</name></trkpt>
<trkpt lat="54.594863" lon="-3.220935"><ele>414</ele><time>2019-10-02T10:47:07Z</time><name>PT3153</name></trkpt>
<trkpt lat="54.594868" lon="-3.220947"><ele>414</ele><time>2019-10-02T10:47:08Z</time><name>PT3154</name></trkpt>
<trkpt lat="54.594872" lon="-3.220957"><ele>415</ele><time>2019-10-02T10:47:09Z</time><name>PT3155</name></trkpt>
<trkpt lat="54.594874" lon="-3.220969"><ele>415</ele><time>2019-10-02T10:47:10Z</time><name>PT3156</name></trkpt>
<trkpt lat="54.594877" lon="-3.220981"><ele>415</ele><time>2019-10-02T10:47:11Z</time><name>PT3157</name></trkpt>
<trkpt lat="54.594880" lon="-3.220990"><ele>415</ele><time>2019-10-02T10:47:12Z</time><name>PT3158</name></trkpt>
<trkpt lat="54.594880" lon="-3.221002"><ele>416</ele><time>2019-10-02T10:47:13Z</time><name>PT3159</name></trkpt>
<trkpt lat="54.594883" lon="-3.221012"><ele>416</ele><time>2019-10-02T10:47:14Z</time><name>PT3160</name></trkpt>
<trkpt lat="54.594885" lon="-3.221023"><ele>416</ele><time>2019-10-02T10:47:15Z</time><name>PT3161</name></trkpt>
<trkpt lat="54.594885" lon="-3.221035"><ele>416</ele><time>2019-10-02T10:47:16Z</time><name>PT3162</name></trkpt>
<trkpt lat="54.594885" lon="-3.221044"><ele>416</ele><time>2019-10-02T10:47:17Z</time><name>PT3163</name></trkpt>
<trkpt lat="54.594886" lon="-3.221049"><ele>416</ele><time>2019-10-02T10:47:18Z</time><name>PT3164</name></trkpt>
<trkpt lat="54.594886" lon="-3.221058"><ele>417</ele><time>2019-10-02T10:47:19Z</time><name>PT3165</name></trkpt>
<trkpt lat="54.594886" lon="-3.221070"><ele>417</ele><time>2019-10-02T10:47:20Z</time><name>PT3166</name></trkpt>
<trkpt lat="54.594888" lon="-3.221081"><ele>417</ele><time>2019-10-02T10:47:21Z</time><name>PT3167</name></trkpt>
<trkpt lat="54.594890" lon="-3.221092"><ele>417</ele><time>2019-10-02T10:47:22Z</time><name>PT3168</name></trkpt>
<trkpt lat="54.594887" lon="-3.221104"><ele>417</ele><time>2019-10-02T10:47:23Z</time><name>PT3169</name></trkpt>
<trkpt lat="54.594887" lon="-3.221116"><ele>417</ele><time>2019-10-02T10:47:24Z</time><name>PT3170</name></trkpt>
<trkpt lat="54.594888" lon="-3.221127"><ele>417</ele><time>2019-10-02T10:47:25Z</time><name>PT3171</name></trkpt>
<trkpt lat="54.594892" lon="-3.221139"><ele>418</ele><time>2019-10-02T10:47:26Z</time><name>PT3172</name></trkpt>
<trkpt lat="54.594894" lon="-3.221146"><ele>417</ele><time>2019-10-02T10:47:27Z</time><name>PT3173</name></trkpt>
<trkpt lat="54.594896" lon="-3.221155"><ele>418</ele><time>2019-10-02T10:47:28Z</time><name>PT3174</name></trkpt>
<trkpt lat="54.594900" lon="-3.221166"><ele>418</ele><time>2019-10-02T10:47:29Z</time><name>PT3175</name></trkpt>
<trkpt lat="54.594900" lon="-3.221178"><ele>418</ele><time>2019-10-02T10:47:30Z</time><name>PT3176</name></trkpt>
<trkpt lat="54.594897" lon="-3.221192"><ele>418</ele><time>2019-10-02T10:47:31Z</time><name>PT3177</name></trkpt>
<trkpt lat="54.594898" lon="-3.221203"><ele>418</ele><time>2019-10-02T10:47:32Z</time><name>PT3178</name></trkpt>
<trkpt lat="54.594900" lon="-3.221210"><ele>418</ele><time>2019-10-02T10:47:33Z</time><name>PT3179</name></trkpt>
<trkpt lat="54.594903" lon="-3.221222"><ele>419</ele><time>2019-10-02T10:47:34Z</time><name>PT3180</name></trkpt>
<trkpt lat="54.594908" lon="-3.221232"><ele>419</ele><time>2019-10-02T10:47:35Z</time><name>PT3181</name></trkpt>
<trkpt lat="54.594912" lon="-3.221239"><ele>420</ele><time>2019-10-02T10:47:36Z</time><name>PT3182</name></trkpt>
<trkpt lat="54.594913" lon="-3.221250"><ele>420</ele><time>2019-10-02T10:47:37Z</time><name>PT3183</name></trkpt>
<trkpt lat="54.594913" lon="-3.221261"><ele>420</ele><time>2019-10-02T10:47:38Z</time><name>PT3184</name></trkpt>
<trkpt lat="54.594915" lon="-3.221273"><ele>420</ele><time>2019-10-02T10:47:39Z</time><name>PT3185</name></trkpt>
<trkpt lat="54.594917" lon="-3.221284"><ele>421</ele><time>2019-10-02T10:47:40Z</time><name>PT3186</name></trkpt>
<trkpt lat="54.594918" lon="-3.221292"><ele>421</ele><time>2019-10-02T10:47:41Z</time><name>PT3187</name></trkpt>
<trkpt lat="54.594917" lon="-3.221296"><ele>421</ele><time>2019-10-02T10:47:42Z</time><name>PT3188</name></trkpt>
<trkpt lat="54.594914" lon="-3.221295"><ele>421</ele><time>2019-10-02T10:47:43Z</time><name>PT3189</name></trkpt>
<trkpt lat="54.594914" lon="-3.221304"><ele>421</ele><time>2019-10-02T10:47:44Z</time><name>PT3190</name></trkpt>
<trkpt lat="54.594914" lon="-3.221317"><ele>422</ele><time>2019-10-02T10:47:45Z</time><name>PT3191</name></trkpt>
<trkpt lat="54.594914" lon="-3.221325"><ele>422</ele><time>2019-10-02T10:47:46Z</time><name>PT3192</name></trkpt>
<trkpt lat="54.594913" lon="-3.221334"><ele>422</ele><time>2019-10-02T10:47:47Z</time><name>PT3193</name></trkpt>
<trkpt lat="54.594912" lon="-3.221344"><ele>422</ele><time>2019-10-02T10:47:48Z</time><name>PT3194</name></trkpt>
<trkpt lat="54.594918" lon="-3.221353"><ele>422</ele><time>2019-10-02T10:47:49Z</time><name>PT3195</name></trkpt>
<trkpt lat="54.594923" lon="-3.221363"><ele>423</ele><time>2019-10-02T10:47:50Z</time><name>PT3196</name></trkpt>
<trkpt lat="54.594926" lon="-3.221372"><ele>423</ele><time>2019-10-02T10:47:51Z</time><name>PT3197</name></trkpt>
<trkpt lat="54.594927" lon="-3.221382"><ele>423</ele><time>2019-10-02T10:47:52Z</time><name>PT3198</name></trkpt>
<trkpt lat="54.594930" lon="-3.221390"><ele>424</ele><time>2019-10-02T10:47:53Z</time><name>PT3199</name></trkpt>
<trkpt lat="54.594931" lon="-3.221398"><ele>424</ele><time>2019-10-02T10:47:54Z</time><name>PT3200</name></trkpt>
<trkpt lat="54.594933" lon="-3.221402"><ele>424</ele><time>2019-10-02T10:47:55Z</time><name>PT3201</name></trkpt>
<trkpt lat="54.594938" lon="-3.221410"><ele>424</ele><time>2019-10-02T10:47:56Z</time><name>PT3202</name></trkpt>
<trkpt lat="54.594941" lon="-3.221422"><ele>425</ele><time>2019-10-02T10:47:57Z</time><name>PT3203</name></trkpt>
<trkpt lat="54.594942" lon="-3.221435"><ele>425</ele><time>2019-10-02T10:47:58Z</time><name>PT3204</name></trkpt>
<trkpt lat="54.594942" lon="-3.221442"><ele>426</ele><time>2019-10-02T10:47:59Z</time><name>PT3205</name></trkpt>
<trkpt lat="54.594943" lon="-3.221451"><ele>426</ele><time>2019-10-02T10:48:00Z</time><name>PT3206</name></trkpt>
<trkpt lat="54.594946" lon="-3.221459"><ele>426</ele><time>2019-10-02T10:48:01Z</time><name>PT3207</name></trkpt>
<trkpt lat="54.594951" lon="-3.221468"><ele>426</ele><time>2019-10-02T10:48:02Z</time><name>PT3208</name></trkpt>
<trkpt lat="54.594953" lon="-3.221479"><ele>426</ele><time>2019-10-02T10:48:03Z</time><name>PT3209</name></trkpt>
<trkpt lat="54.594955" lon="-3.221493"><ele>426</ele><time>2019-10-02T10:48:04Z</time><name>PT3210</name></trkpt>
<trkpt lat="54.594953" lon="-3.221504"><ele>426</ele><time>2019-10-02T10:48:05Z</time><name>PT3211</name></trkpt>
<trkpt lat="54.594953" lon="-3.221515"><ele>426</ele><time>2019-10-02T10:48:06Z</time><name>PT3212</name></trkpt>
<trkpt lat="54.594956" lon="-3.221525"><ele>427</ele><time>2019-10-02T10:48:07Z</time><name>PT3213</name></trkpt>
<trkpt lat="54.594958" lon="-3.221533"><ele>427</ele><time>2019-10-02T10:48:08Z</time><name>PT3214</name></trkpt>
<trkpt lat="54.594958" lon="-3.221544"><ele>427</ele><time>2019-10-02T10:48:09Z</time><name>PT3215</name></trkpt>
<trkpt lat="54.594958" lon="-3.221554"><ele>427</ele><time>2019-10-02T10:48:10Z</time><name>PT3216</name></trkpt>
<trkpt lat="54.594961" lon="-3.221565"><ele>427</ele><time>2019-10-02T10:48:11Z</time><name>PT3217</name></trkpt>
<trkpt lat="54.594963" lon="-3.221571"><ele>428</ele><time>2019-10-02T10:48:12Z</time><name>PT3218</name></trkpt>
<trkpt lat="54.594964" lon="-3.221579"><ele>428</ele><time>2019-10-02T10:48:13Z</time><name>PT3219</name></trkpt>
<trkpt lat="54.594967" lon="-3.221589"><ele>429</ele><time>2019-10-02T10:48:14Z</time><name>PT3220</name></trkpt>
<trkpt lat="54.594968" lon="-3.221599"><ele>429</ele><time>2019-10-02T10:48:15Z</time><name>PT3221</name></trkpt>
<trkpt lat="54.594966" lon="-3.221610"><ele>429</ele><time>2019-10-02T10:48:16Z</time><name>PT3222</name></trkpt>
<trkpt lat="54.594966" lon="-3.221620"><ele>429</ele><time>2019-10-02T10:48:17Z</time><name>PT3223</name></trkpt>
<trkpt lat="54.594965" lon="-3.221628"><ele>429</ele><time>2019-10-02T10:48:18Z</time><name>PT3224</name></trkpt>
<trkpt lat="54.594964" lon="-3.221638"><ele>429</ele><time>2019-10-02T10:48:19Z</time><name>PT3225</name></trkpt>
<trkpt lat="54.594964" lon="-3.221647"><ele>429</ele><time>2019-10-02T10:48:20Z</time><name>PT3226</name></trkpt>
<trkpt lat="54.594967" lon="-3.221657"><ele>429</ele><time>2019-10-02T10:48:21Z</time><name>PT3227</name></trkpt>
<trkpt lat="54.594966" lon="-3.221670"><ele>430</ele><time>2019-10-02T10:48:22Z</time><name>PT3228</name></trkpt>
<trkpt lat="54.594965" lon="-3.221680"><ele>430</ele><time>2019-10-02T10:48:23Z</time><name>PT3229</name></trkpt>
<trkpt lat="54.594966" lon="-3.221691"><ele>430</ele><time>2019-10-02T10:48:24Z</time><name>PT3230</name></trkpt>
<trkpt lat="54.594966" lon="-3.221700"><ele>430</ele><time>2019-10-02T10:48:25Z</time><name>PT3231</name></trkpt>
<trkpt lat="54.594965" lon="-3.221709"><ele>430</ele><time>2019-10-02T10:48:26Z</time><name>PT3232</name></trkpt>
<trkpt lat="54.594966" lon="-3.221720"><ele>431</ele><time>2019-10-02T10:48:27Z</time><name>PT3233</name></trkpt>
<trkpt lat="54.594966" lon="-3.221729"><ele>431</ele><time>2019-10-02T10:48:28Z</time><name>PT3234</name></trkpt>
<trkpt lat="54.594964" lon="-3.221740"><ele>431</ele><time>2019-10-02T10:48:29Z</time><name>PT3235</name></trkpt>
<trkpt lat="54.594966" lon="-3.221748"><ele>431</ele><time>2019-10-02T10:48:30Z</time><name>PT3236</name></trkpt>
<trkpt lat="54.594970" lon="-3.221756"><ele>431</ele><time>2019-10-02T10:48:31Z</time><name>PT3237</name></trkpt>
<trkpt lat="54.594970" lon="-3.221765"><ele>432</ele><time>2019-10-02T10:48:32Z</time><name>PT3238</name></trkpt>
<trkpt lat="54.594973" lon="-3.221775"><ele>432</ele><time>2019-10-02T10:48:33Z</time><name>PT3239</name></trkpt>
<trkpt lat="54.594973" lon="-3.221782"><ele>431</ele><time>2019-10-02T10:48:34Z</time><name>PT3240</name></trkpt>
<trkpt lat="54.594971" lon="-3.221791"><ele>431</ele><time>2019-10-02T10:48:35Z</time><name>PT3241</name></trkpt>
<trkpt lat="54.594969" lon="-3.221796"><ele>432</ele><time>2019-10-02T10:48:36Z</time><name>PT3242</name></trkpt>
<trkpt lat="54.594966" lon="-3.221795"><ele>432</ele><time>2019-10-02T10:48:39Z</time><name>PT3243</name></trkpt>
<trkpt lat="54.594968" lon="-3.221808"><ele>432</ele><time>2019-10-02T10:48:40Z</time><name>PT3244</name></trkpt>
<trkpt lat="54.594970" lon="-3.221824"><ele>432</ele><time>2019-10-02T10:48:41Z</time><name>PT3245</name></trkpt>
<trkpt lat="54.594974" lon="-3.221840"><ele>432</ele><time>2019-10-02T10:48:42Z</time><name>PT3246</name></trkpt>
<trkpt lat="54.594974" lon="-3.221850"><ele>433</ele><time>2019-10-02T10:48:43Z</time><name>PT3247</name></trkpt>
<trkpt lat="54.594972" lon="-3.221860"><ele>433</ele><time>2019-10-02T10:48:44Z</time><name>PT3248</name></trkpt>
<trkpt lat="54.594974" lon="-3.221872"><ele>433</ele><time>2019-10-02T10:48:45Z</time><name>PT3249</name></trkpt>
<trkpt lat="54.594974" lon="-3.221881"><ele>433</ele><time>2019-10-02T10:48:46Z</time><name>PT3250</name></trkpt>
<trkpt lat="54.594975" lon="-3.221890"><ele>433</ele><time>2019-10-02T10:48:47Z</time><name>PT3251</name></trkpt>
<trkpt lat="54.594977" lon="-3.221898"><ele>433</ele><time>2019-10-02T10:48:48Z</time><name>PT3252</name></trkpt>
<trkpt lat="54.594980" lon="-3.221907"><ele>434</ele><time>2019-10-02T10:48:49Z</time><name>PT3253</name></trkpt>
<trkpt lat="54.594979" lon="-3.221920"><ele>434</ele><time>2019-10-02T10:48:50Z</time><name>PT3254</name></trkpt>
<trkpt lat="54.594978" lon="-3.221931"><ele>434</ele><time>2019-10-02T10:48:51Z</time><name>PT3255</name></trkpt>
<trkpt lat="54.594978" lon="-3.221950"><ele>434</ele><time>2019-10-02T10:48:52Z</time><name>PT3256</name></trkpt>
<trkpt lat="54.594979" lon="-3.221963"><ele>435</ele><time>2019-10-02T10:48:53Z</time><name>PT3257</name></trkpt>
<trkpt lat="54.594981" lon="-3.221970"><ele>435</ele><time>2019-10-02T10:48:54Z</time><name>PT3258</name></trkpt>
<trkpt lat="54.594984" lon="-3.221975"><ele>435</ele><time>2019-10-02T10:48:55Z</time><name>PT3259</name></trkpt>
<trkpt lat="54.594986" lon="-3.221983"><ele>435</ele><time>2019-10-02T10:48:56Z</time><name>PT3260</name></trkpt>
<trkpt lat="54.594987" lon="-3.221990"><ele>435</ele><time>2019-10-02T10:48:57Z</time><name>PT3261</name></trkpt>
<trkpt lat="54.594992" lon="-3.221995"><ele>436</ele><time>2019-10-02T10:48:58Z</time><name>PT3262</name></trkpt>
<trkpt lat="54.594995" lon="-3.222001"><ele>436</ele><time>2019-10-02T10:48:59Z</time><name>PT3263</name></trkpt>
<trkpt lat="54.594995" lon="-3.222011"><ele>436</ele><time>2019-10-02T10:49:00Z</time><name>PT3264</name></trkpt>
<trkpt lat="54.594995" lon="-3.222024"><ele>436</ele><time>2019-10-02T10:49:01Z</time><name>PT3265</name></trkpt>
<trkpt lat="54.594996" lon="-3.222033"><ele>436</ele><time>2019-10-02T10:49:02Z</time><name>PT3266</name></trkpt>
<trkpt lat="54.595000" lon="-3.222040"><ele>437</ele><time>2019-10-02T10:49:03Z</time><name>PT3267</name></trkpt>
<trkpt lat="54.594999" lon="-3.222051"><ele>437</ele><time>2019-10-02T10:49:04Z</time><name>PT3268</name></trkpt>
<trkpt lat="54.595001" lon="-3.222065"><ele>437</ele><time>2019-10-02T10:49:05Z</time><name>PT3269</name></trkpt>
<trkpt lat="54.595001" lon="-3.222073"><ele>437</ele><time>2019-10-02T10:49:06Z</time><name>PT3270</name></trkpt>
<trkpt lat="54.595001" lon="-3.222076"><ele>437</ele><time>2019-10-02T10:49:07Z</time><name>PT3271</name></trkpt>
<trkpt lat="54.595001" lon="-3.222077"><ele>436</ele><time>2019-10-02T10:49:08Z</time><name>PT3272</name></trkpt>
<trkpt lat="54.594999" lon="-3.222077"><ele>436</ele><time>2019-10-02T10:49:11Z</time><name>PT3273</name></trkpt>
<trkpt lat="54.594996" lon="-3.222088"><ele>436</ele><time>2019-10-02T10:49:12Z</time><name>PT3274</name></trkpt>
<trkpt lat="54.594999" lon="-3.222094"><ele>437</ele><time>2019-10-02T10:49:13Z</time><name>PT3275</name></trkpt>
<trkpt lat="54.595003" lon="-3.222098"><ele>437</ele><time>2019-10-02T10:49:14Z</time><name>PT3276</name></trkpt>
<trkpt lat="54.595006" lon="-3.222107"><ele>437</ele><time>2019-10-02T10:49:15Z</time><name>PT3277</name></trkpt>
<trkpt lat="54.595005" lon="-3.222116"><ele>437</ele><time>2019-10-02T10:49:16Z</time><name>PT3278</name></trkpt>
<trkpt lat="54.595007" lon="-3.222124"><ele>438</ele><time>2019-10-02T10:49:17Z</time><name>PT3279</name></trkpt>
<trkpt lat="54.595008" lon="-3.222133"><ele>438</ele><time>2019-10-02T10:49:18Z</time><name>PT3280</name></trkpt>
<trkpt lat="54.595007" lon="-3.222141"><ele>439</ele><time>2019-10-02T10:49:19Z</time><name>PT3281</name></trkpt>
<trkpt lat="54.595010" lon="-3.222148"><ele>439</ele><time>2019-10-02T10:49:20Z</time><name>PT3282</name></trkpt>
<trkpt lat="54.595010" lon="-3.222158"><ele>439</ele><time>2019-10-02T10:49:21Z</time><name>PT3283</name></trkpt>
<trkpt lat="54.595010" lon="-3.222168"><ele>440</ele><time>2019-10-02T10:49:22Z</time><name>PT3284</name></trkpt>
<trkpt lat="54.595012" lon="-3.222177"><ele>440</ele><time>2019-10-02T10:49:23Z</time><name>PT3285</name></trkpt>
<trkpt lat="54.595014" lon="-3.222184"><ele>440</ele><time>2019-10-02T10:49:24Z</time><name>PT3286</name></trkpt>
<trkpt lat="54.595016" lon="-3.222191"><ele>441</ele><time>2019-10-02T10:49:25Z</time><name>PT3287</name></trkpt>
<trkpt lat="54.595019" lon="-3.222200"><ele>441</ele><time>2019-10-02T10:49:26Z</time><name>PT3288</name></trkpt>
<trkpt lat="54.595021" lon="-3.222207"><ele>442</ele><time>2019-10-02T10:49:27Z</time><name>PT3289</name></trkpt>
<trkpt lat="54.595025" lon="-3.222215"><ele>442</ele><time>2019-10-02T10:49:28Z</time><name>PT3290</name></trkpt>
<trkpt lat="54.595028" lon="-3.222221"><ele>442</ele><time>2019-10-02T10:49:29Z</time><name>PT3291</name></trkpt>
<trkpt lat="54.595030" lon="-3.222231"><ele>442</ele><time>2019-10-02T10:49:30Z</time><name>PT3292</name></trkpt>
<trkpt lat="54.595034" lon="-3.222240"><ele>443</ele><time>2019-10-02T10:49:31Z</time><name>PT3293</name></trkpt>
<trkpt lat="54.595037" lon="-3.222248"><ele>443</ele><time>2019-10-02T10:49:32Z</time><name>PT3294</name></trkpt>
<trkpt lat="54.595038" lon="-3.222256"><ele>443</ele><time>2019-10-02T10:49:33Z</time><name>PT3295</name></trkpt>
<trkpt lat="54.595038" lon="-3.222266"><ele>443</ele><time>2019-10-02T10:49:34Z</time><name>PT3296</name></trkpt>
<trkpt lat="54.595041" lon="-3.222275"><ele>444</ele><time>2019-10-02T10:49:35Z</time><name>PT3297</name></trkpt>
<trkpt lat="54.595043" lon="-3.222282"><ele>444</ele><time>2019-10-02T10:49:36Z</time><name>PT3298</name></trkpt>
<trkpt lat="54.595045" lon="-3.222288"><ele>444</ele><time>2019-10-02T10:49:37Z</time><name>PT3299</name></trkpt>
<trkpt lat="54.595048" lon="-3.222295"><ele>444</ele><time>2019-10-02T10:49:38Z</time><name>PT3300</name></trkpt>
<trkpt lat="54.595051" lon="-3.222306"><ele>444</ele><time>2019-10-02T10:49:39Z</time><name>PT3301</name></trkpt>
<trkpt lat="54.595052" lon="-3.222317"><ele>445</ele><time>2019-10-02T10:49:40Z</time><name>PT3302</name></trkpt>
<trkpt lat="54.595050" lon="-3.222329"><ele>445</ele><time>2019-10-02T10:49:41Z</time><name>PT3303</name></trkpt>
<trkpt lat="54.595051" lon="-3.222340"><ele>445</ele><time>2019-10-02T10:49:42Z</time><name>PT3304</name></trkpt>
<trkpt lat="54.595053" lon="-3.222350"><ele>446</ele><time>2019-10-02T10:49:43Z</time><name>PT3305</name></trkpt>
<trkpt lat="54.595055" lon="-3.222357"><ele>446</ele><time>2019-10-02T10:49:44Z</time><name>PT3306</name></trkpt>
<trkpt lat="54.595059" lon="-3.222364"><ele>446</ele><time>2019-10-02T10:49:45Z</time><name>PT3307</name></trkpt>
<trkpt lat="54.595061" lon="-3.222374"><ele>447</ele><time>2019-10-02T10:49:46Z</time><name>PT3308</name></trkpt>
<trkpt lat="54.595063" lon="-3.222384"><ele>447</ele><time>2019-10-02T10:49:47Z</time><name>PT3309</name></trkpt>
<trkpt lat="54.595062" lon="-3.222391"><ele>447</ele><time>2019-10-02T10:49:48Z</time><name>PT3310</name></trkpt>
<trkpt lat="54.595062" lon="-3.222401"><ele>447</ele><time>2019-10-02T10:49:49Z</time><name>PT3311</name></trkpt>
<trkpt lat="54.595064" lon="-3.222408"><ele>447</ele><time>2019-10-02T10:49:50Z</time><name>PT3312</name></trkpt>
<trkpt lat="54.595066" lon="-3.222411"><ele>447</ele><time>2019-10-02T10:49:51Z</time><name>PT3313</name></trkpt>
<trkpt lat="54.595069" lon="-3.222418"><ele>447</ele><time>2019-10-02T10:49:52Z</time><name>PT3314</name></trkpt>
<trkpt lat="54.595071" lon="-3.222426"><ele>448</ele><time>2019-10-02T10:49:53Z</time><name>PT3315</name></trkpt>
<trkpt lat="54.595071" lon="-3.222434"><ele>448</ele><time>2019-10-02T10:49:54Z</time><name>PT3316</name></trkpt>
<trkpt lat="54.595070" lon="-3.222445"><ele>448</ele><time>2019-10-02T10:49:55Z</time><name>PT3317</name></trkpt>
<trkpt lat="54.595073" lon="-3.222456"><ele>449</ele><time>2019-10-02T10:49:56Z</time><name>PT3318</name></trkpt>
<trkpt lat="54.595073" lon="-3.222462"><ele>449</ele><time>2019-10-02T10:49:57Z</time><name>PT3319</name></trkpt>
<trkpt lat="54.595075" lon="-3.222466"><ele>449</ele><time>2019-10-02T10:49:58Z</time><name>PT3320</name></trkpt>
<trkpt lat="54.595077" lon="-3.222473"><ele>449</ele><time>2019-10-02T10:49:59Z</time><name>PT3321</name></trkpt>
<trkpt lat="54.595079" lon="-3.222482"><ele>450</ele><time>2019-10-02T10:50:00Z</time><name>PT3322</name></trkpt>
<trkpt lat="54.595080" lon="-3.222491"><ele>450</ele><time>2019-10-02T10:50:01Z</time><name>PT3323</name></trkpt>
<trkpt lat="54.595081" lon="-3.222497"><ele>451</ele><time>2019-10-02T10:50:02Z</time><name>PT3324</name></trkpt>
<trkpt lat="54.595081" lon="-3.222507"><ele>451</ele><time>2019-10-02T10:50:03Z</time><name>PT3325</name></trkpt>
<trkpt lat="54.595085" lon="-3.222516"><ele>451</ele><time>2019-10-02T10:50:04Z</time><name>PT3326</name></trkpt>
<trkpt lat="54.595088" lon="-3.222526"><ele>452</ele><time>2019-10-02T10:50:05Z</time><name>PT3327</name></trkpt>
<trkpt lat="54.595090" lon="-3.222538"><ele>452</ele><time>2019-10-02T10:50:06Z</time><name>PT3328</name></trkpt>
<trkpt lat="54.595091" lon="-3.222546"><ele>452</ele><time>2019-10-02T10:50:07Z</time><name>PT3329</name></trkpt>
<trkpt lat="54.595091" lon="-3.222557"><ele>452</ele><time>2019-10-02T10:50:08Z</time><name>PT3330</name></trkpt>
<trkpt lat="54.595092" lon="-3.222564"><ele>452</ele><time>2019-10-02T10:50:09Z</time><name>PT3331</name></trkpt>
<trkpt lat="54.595094" lon="-3.222570"><ele>453</ele><time>2019-10-02T10:50:10Z</time><name>PT3332</name></trkpt>
<trkpt lat="54.595095" lon="-3.222578"><ele>453</ele><time>2019-10-02T10:50:11Z</time><name>PT3333</name></trkpt>
<trkpt lat="54.595097" lon="-3.222585"><ele>453</ele><time>2019-10-02T10:50:12Z</time><name>PT3334</name></trkpt>
<trkpt lat="54.595098" lon="-3.222591"><ele>453</ele><time>2019-10-02T10:50:13Z</time><name>PT3335</name></trkpt>
<trkpt lat="54.595101" lon="-3.222597"><ele>453</ele><time>2019-10-02T10:50:14Z</time><name>PT3336</name></trkpt>
<trkpt lat="54.595104" lon="-3.222605"><ele>454</ele><time>2019-10-02T10:50:15Z</time><name>PT3337</name></trkpt>
<trkpt lat="54.595106" lon="-3.222611"><ele>454</ele><time>2019-10-02T10:50:16Z</time><name>PT3338</name></trkpt>
<trkpt lat="54.595107" lon="-3.222619"><ele>454</ele><time>2019-10-02T10:50:17Z</time><name>PT3339</name></trkpt>
<trkpt lat="54.595108" lon="-3.222630"><ele>455</ele><time>2019-10-02T10:50:18Z</time><name>PT3340</name></trkpt>
<trkpt lat="54.595108" lon="-3.222640"><ele>455</ele><time>2019-10-02T10:50:19Z</time><name>PT3341</name></trkpt>
<trkpt lat="54.595107" lon="-3.222650"><ele>455</ele><time>2019-10-02T10:50:20Z</time><name>PT3342</name></trkpt>
<trkpt lat="54.595107" lon="-3.222659"><ele>455</ele><time>2019-10-02T10:50:21Z</time><name>PT3343</name></trkpt>
<trkpt lat="54.595105" lon="-3.222671"><ele>455</ele><time>2019-10-02T10:50:22Z</time><name>PT3344</name></trkpt>
<trkpt lat="54.595105" lon="-3.222684"><ele>455</ele><time>2019-10-02T10:50:23Z</time><name>PT3345</name></trkpt>
<trkpt lat="54.595104" lon="-3.222696"><ele>455</ele><time>2019-10-02T10:50:24Z</time><name>PT3346</name></trkpt>
<trkpt lat="54.595105" lon="-3.222707"><ele>456</ele><time>2019-10-02T10:50:25Z</time><name>PT3347</name></trkpt>
<trkpt lat="54.595105" lon="-3.222715"><ele>456</ele><time>2019-10-02T10:50:26Z</time><name>PT3348</name></trkpt>
<trkpt lat="54.595108" lon="-3.222721"><ele>456</ele><time>2019-10-02T10:50:27Z</time><name>PT3349</name></trkpt>
<trkpt lat="54.595111" lon="-3.222727"><ele>456</ele><time>2019-10-02T10:50:28Z</time><name>PT3350</name></trkpt>
<trkpt lat="54.595113" lon="-3.222733"><ele>456</ele><time>2019-10-02T10:50:29Z</time><name>PT3351</name></trkpt>
<trkpt lat="54.595117" lon="-3.222741"><ele>457</ele><time>2019-10-02T10:50:30Z</time><name>PT3352</name></trkpt>
<trkpt lat="54.595119" lon="-3.222752"><ele>457</ele><time>2019-10-02T10:50:31Z</time><name>PT3353</name></trkpt>
<trkpt lat="54.595120" lon="-3.222761"><ele>457</ele><time>2019-10-02T10:50:32Z</time><name>PT3354</name></trkpt>
<trkpt lat="54.595122" lon="-3.222771"><ele>456</ele><time>2019-10-02T10:50:33Z</time><name>PT3355</name></trkpt>
<trkpt lat="54.595124" lon="-3.222782"><ele>457</ele><time>2019-10-02T10:50:34Z</time><name>PT3356</name></trkpt>
<trkpt lat="54.595129" lon="-3.222795"><ele>457</ele><time>2019-10-02T10:50:35Z</time><name>PT3357</name></trkpt>
<trkpt lat="54.595132" lon="-3.222805"><ele>458</ele><time>2019-10-02T10:50:36Z</time><name>PT3358</name></trkpt>
<trkpt lat="54.595134" lon="-3.222813"><ele>458</ele><time>2019-10-02T10:50:37Z</time><name>PT3359</name></trkpt>
<trkpt lat="54.595135" lon="-3.222822"><ele>458</ele><time>2019-10-02T10:50:38Z</time><name>PT3360</name></trkpt>
<trkpt lat="54.595138" lon="-3.222832"><ele>459</ele><time>2019-10-02T10:50:39Z</time><name>PT3361</name></trkpt>
<trkpt lat="54.595139" lon="-3.222843"><ele>459</ele><time>2019-10-02T10:50:40Z</time><name>PT3362</name></trkpt>
<trkpt lat="54.595139" lon="-3.222853"><ele>459</ele><time>2019-10-02T10:50:41Z</time><name>PT3363</name></trkpt>
<trkpt lat="54.595140" lon="-3.222862"><ele>459</ele><time>2019-10-02T10:50:42Z</time><name>PT3364</name></trkpt>
<trkpt lat="54.595142" lon="-3.222871"><ele>460</ele><time>2019-10-02T10:50:43Z</time><name>PT3365</name></trkpt>
<trkpt lat="54.595144" lon="-3.222879"><ele>460</ele><time>2019-10-02T10:50:44Z</time><name>PT3366</name></trkpt>
<trkpt lat="54.595146" lon="-3.222888"><ele>460</ele><time>2019-10-02T10:50:45Z</time><name>PT3367</name></trkpt>
<trkpt lat="54.595147" lon="-3.222899"><ele>460</ele><time>2019-10-02T10:50:46Z</time><name>PT3368</name></trkpt>
<trkpt lat="54.595149" lon="-3.222909"><ele>460</ele><time>2019-10-02T10:50:47Z</time><name>PT3369</name></trkpt>
<trkpt lat="54.595151" lon="-3.222917"><ele>460</ele><time>2019-10-02T10:50:48Z</time><name>PT3370</name></trkpt>
<trkpt lat="54.595153" lon="-3.222925"><ele>461</ele><time>2019-10-02T10:50:49Z</time><name>PT3371</name></trkpt>
<trkpt lat="54.595154" lon="-3.222932"><ele>461</ele><time>2019-10-02T10:50:50Z</time><name>PT3372</name></trkpt>
<trkpt lat="54.595157" lon="-3.222939"><ele>461</ele><time>2019-10-02T10:50:51Z</time><name>PT3373</name></trkpt>
<trkpt lat="54.595160" lon="-3.222947"><ele>461</ele><time>2019-10-02T10:50:52Z</time><name>PT3374</name></trkpt>
<trkpt lat="54.595162" lon="-3.222953"><ele>461</ele><time>2019-10-02T10:50:53Z</time><name>PT3375</name></trkpt>
<trkpt lat="54.595162" lon="-3.222958"><ele>461</ele><time>2019-10-02T10:50:54Z</time><name>PT3376</name></trkpt>
<trkpt lat="54.595162" lon="-3.222966"><ele>461</ele><time>2019-10-02T10:50:55Z</time><name>PT3377</name></trkpt>
<trkpt lat="54.595167" lon="-3.222973"><ele>462</ele><time>2019-10-02T10:50:56Z</time><name>PT3378</name></trkpt>
<trkpt lat="54.595170" lon="-3.222980"><ele>462</ele><time>2019-10-02T10:50:57Z</time><name>PT3379</name></trkpt>
<trkpt lat="54.595171" lon="-3.222988"><ele>462</ele><time>2019-10-02T10:50:58Z</time><name>PT3380</name></trkpt>
<trkpt lat="54.595173" lon="-3.222999"><ele>463</ele><time>2019-10-02T10:50:59Z</time><name>PT3381</name></trkpt>
<trkpt lat="54.595175" lon="-3.223010"><ele>463</ele><time>2019-10-02T10:51:00Z</time><name>PT3382</name></trkpt>
<trkpt lat="54.595179" lon="-3.223016"><ele>463</ele><time>2019-10-02T10:51:01Z</time><name>PT3383</name></trkpt>
<trkpt lat="54.595182" lon="-3.223022"><ele>463</ele><time>2019-10-02T10:51:02Z</time><name>PT3384</name></trkpt>
<trkpt lat="54.595186" lon="-3.223028"><ele>463</ele><time>2019-10-02T10:51:03Z</time><name>PT3385</name></trkpt>
<trkpt lat="54.595189" lon="-3.223034"><ele>464</ele><time>2019-10-02T10:51:04Z</time><name>PT3386</name></trkpt>
<trkpt lat="54.595191" lon="-3.223043"><ele>464</ele><time>2019-10-02T10:51:05Z</time><name>PT3387</name></trkpt>
<trkpt lat="54.595191" lon="-3.223052"><ele>464</ele><time>2019-10-02T10:51:06Z</time><name>PT3388</name></trkpt>
<trkpt lat="54.595194" lon="-3.223058"><ele>464</ele><time>2019-10-02T10:51:07Z</time><name>PT3389</name></trkpt>
<trkpt lat="54.595197" lon="-3.223065"><ele>464</ele><time>2019-10-02T10:51:08Z</time><name>PT3390</name></trkpt>
<trkpt lat="54.595203" lon="-3.223071"><ele>464</ele><time>2019-10-02T10:51:09Z</time><name>PT3391</name></trkpt>
<trkpt lat="54.595204" lon="-3.223078"><ele>464</ele><time>2019-10-02T10:51:10Z</time><name>PT3392</name></trkpt>
<trkpt lat="54.595205" lon="-3.223088"><ele>465</ele><time>2019-10-02T10:51:11Z</time><name>PT3393</name></trkpt>
<trkpt lat="54.595208" lon="-3.223093"><ele>465</ele><time>2019-10-02T10:51:12Z</time><name>PT3394</name></trkpt>
<trkpt lat="54.595211" lon="-3.223099"><ele>465</ele><time>2019-10-02T10:51:13Z</time><name>PT3395</name></trkpt>
<trkpt lat="54.595216" lon="-3.223106"><ele>466</ele><time>2019-10-02T10:51:14Z</time><name>PT3396</name></trkpt>
<trkpt lat="54.595219" lon="-3.223114"><ele>466</ele><time>2019-10-02T10:51:15Z</time><name>PT3397</name></trkpt>
<trkpt lat="54.595223" lon="-3.223120"><ele>466</ele><time>2019-10-02T10:51:16Z</time><name>PT3398</name></trkpt>
<trkpt lat="54.595225" lon="-3.223130"><ele>466</ele><time>2019-10-02T10:51:17Z</time><name>PT3399</name></trkpt>
<trkpt lat="54.595227" lon="-3.223136"><ele>467</ele><time>2019-10-02T10:51:18Z</time><name>PT3400</name></trkpt>
<trkpt lat="54.595229" lon="-3.223143"><ele>467</ele><time>2019-10-02T10:51:19Z</time><name>PT3401</name></trkpt>
<trkpt lat="54.595230" lon="-3.223153"><ele>467</ele><time>2019-10-02T10:51:20Z</time><name>PT3402</name></trkpt>
<trkpt lat="54.595232" lon="-3.223164"><ele>467</ele><time>2019-10-02T10:51:21Z</time><name>PT3403</name></trkpt>
<trkpt lat="54.595235" lon="-3.223172"><ele>467</ele><time>2019-10-02T10:51:22Z</time><name>PT3404</name></trkpt>
<trkpt lat="54.595235" lon="-3.223181"><ele>467</ele><time>2019-10-02T10:51:23Z</time><name>PT3405</name></trkpt>
<trkpt lat="54.595236" lon="-3.223191"><ele>467</ele><time>2019-10-02T10:51:24Z</time><name>PT3406</name></trkpt>
<trkpt lat="54.595237" lon="-3.223201"><ele>467</ele><time>2019-10-02T10:51:25Z</time><name>PT3407</name></trkpt>
<trkpt lat="54.595236" lon="-3.223212"><ele>467</ele><time>2019-10-02T10:51:26Z</time><name>PT3408</name></trkpt>
<trkpt lat="54.595234" lon="-3.223216"><ele>467</ele><time>2019-10-02T10:51:27Z</time><name>PT3409</name></trkpt>
<trkpt lat="54.595233" lon="-3.223223"><ele>467</ele><time>2019-10-02T10:51:28Z</time><name>PT3410</name></trkpt>
<trkpt lat="54.595238" lon="-3.223222"><ele>466</ele><time>2019-10-02T10:51:29Z</time><name>PT3411</name></trkpt>
<trkpt lat="54.595245" lon="-3.223226"><ele>467</ele><time>2019-10-02T10:51:30Z</time><name>PT3412</name></trkpt>
<trkpt lat="54.595251" lon="-3.223232"><ele>467</ele><time>2019-10-02T10:51:31Z</time><name>PT3413</name></trkpt>
<trkpt lat="54.595254" lon="-3.223240"><ele>467</ele><time>2019-10-02T10:51:32Z</time><name>PT3414</name></trkpt>
<trkpt lat="54.595254" lon="-3.223250"><ele>467</ele><time>2019-10-02T10:51:33Z</time><name>PT3415</name></trkpt>
<trkpt lat="54.595254" lon="-3.223262"><ele>467</ele><time>2019-10-02T10:51:34Z</time><name>PT3416</name></trkpt>
<trkpt lat="54.595256" lon="-3.223273"><ele>468</ele><time>2019-10-02T10:51:35Z</time><name>PT3417</name></trkpt>
<trkpt lat="54.595258" lon="-3.223286"><ele>468</ele><time>2019-10-02T10:51:36Z</time><name>PT3418</name></trkpt>
<trkpt lat="54.595261" lon="-3.223297"><ele>468</ele><time>2019-10-02T10:51:37Z</time><name>PT3419</name></trkpt>
<trkpt lat="54.595263" lon="-3.223305"><ele>468</ele><time>2019-10-02T10:51:38Z</time><name>PT3420</name></trkpt>
<trkpt lat="54.595265" lon="-3.223315"><ele>469</ele><time>2019-10-02T10:51:39Z</time><name>PT3421</name></trkpt>
<trkpt lat="54.595266" lon="-3.223326"><ele>469</ele><time>2019-10-02T10:51:40Z</time><name>PT3422</name></trkpt>
<trkpt lat="54.595266" lon="-3.223334"><ele>469</ele><time>2019-10-02T10:51:41Z</time><name>PT3423</name></trkpt>
<trkpt lat="54.595265" lon="-3.223347"><ele>469</ele><time>2019-10-02T10:51:42Z</time><name>PT3424</name></trkpt>
<trkpt lat="54.595266" lon="-3.223358"><ele>469</ele><time>2019-10-02T10:51:43Z</time><name>PT3425</name></trkpt>
<trkpt lat="54.595270" lon="-3.223364"><ele>470</ele><time>2019-10-02T10:51:44Z</time><name>PT3426</name></trkpt>
<trkpt lat="54.595270" lon="-3.223373"><ele>470</ele><time>2019-10-02T10:51:45Z</time><name>PT3427</name></trkpt>
<trkpt lat="54.595268" lon="-3.223383"><ele>470</ele><time>2019-10-02T10:51:46Z</time><name>PT3428</name></trkpt>
<trkpt lat="54.595271" lon="-3.223394"><ele>470</ele><time>2019-10-02T10:51:47Z</time><name>PT3429</name></trkpt>
<trkpt lat="54.595269" lon="-3.223403"><ele>470</ele><time>2019-10-02T10:51:48Z</time><name>PT3430</name></trkpt>
<trkpt lat="54.595270" lon="-3.223412"><ele>471</ele><time>2019-10-02T10:51:49Z</time><name>PT3431</name></trkpt>
<trkpt lat="54.595273" lon="-3.223425"><ele>471</ele><time>2019-10-02T10:51:50Z</time><name>PT3432</name></trkpt>
<trkpt lat="54.595274" lon="-3.223435"><ele>471</ele><time>2019-10-02T10:51:51Z</time><name>PT3433</name></trkpt>
<trkpt lat="54.595275" lon="-3.223444"><ele>472</ele><time>2019-10-02T10:51:52Z</time><name>PT3434</name></trkpt>
<trkpt lat="54.595276" lon="-3.223451"><ele>472</ele><time>2019-10-02T10:51:53Z</time><name>PT3435</name></trkpt>
<trkpt lat="54.595279" lon="-3.223460"><ele>472</ele><time>2019-10-02T10:51:54Z</time><name>PT3436</name></trkpt>
<trkpt lat="54.595282" lon="-3.223470"><ele>473</ele><time>2019-10-02T10:51:55Z</time><name>PT3437</name></trkpt>
<trkpt lat="54.595283" lon="-3.223478"><ele>473</ele><time>2019-10-02T10:51:56Z</time><name>PT3438</name></trkpt>
<trkpt lat="54.595283" lon="-3.223491"><ele>473</ele><time>2019-10-02T10:51:57Z</time><name>PT3439</name></trkpt>
<trkpt lat="54.595283" lon="-3.223501"><ele>474</ele><time>2019-10-02T10:51:58Z</time><name>PT3440</name></trkpt>
<trkpt lat="54.595283" lon="-3.223511"><ele>474</ele><time>2019-10-02T10:51:59Z</time><name>PT3441</name></trkpt>
<trkpt lat="54.595283" lon="-3.223523"><ele>474</ele><time>2019-10-02T10:52:00Z</time><name>PT3442</name></trkpt>
<trkpt lat="54.595280" lon="-3.223534"><ele>474</ele><time>2019-10-02T10:52:01Z</time><name>PT3443</name></trkpt>
<trkpt lat="54.595277" lon="-3.223546"><ele>473</ele><time>2019-10-02T10:52:02Z</time><name>PT3444</name></trkpt>
<trkpt lat="54.595276" lon="-3.223557"><ele>474</ele><time>2019-10-02T10:52:03Z</time><name>PT3445</name></trkpt>
<trkpt lat="54.595274" lon="-3.223569"><ele>474</ele><time>2019-10-02T10:52:04Z</time><name>PT3446</name></trkpt>
<trkpt lat="54.595275" lon="-3.223580"><ele>474</ele><time>2019-10-02T10:52:05Z</time><name>PT3447</name></trkpt>
<trkpt lat="54.595274" lon="-3.223591"><ele>474</ele><time>2019-10-02T10:52:06Z</time><name>PT3448</name></trkpt>
<trkpt lat="54.595270" lon="-3.223604"><ele>474</ele><time>2019-10-02T10:52:07Z</time><name>PT3449</name></trkpt>
<trkpt lat="54.595267" lon="-3.223614"><ele>474</ele><time>2019-10-02T10:52:08Z</time><name>PT3450</name></trkpt>
<trkpt lat="54.595264" lon="-3.223624"><ele>474</ele><time>2019-10-02T10:52:09Z</time><name>PT3451</name></trkpt>
<trkpt lat="54.595261" lon="-3.223636"><ele>474</ele><time>2019-10-02T10:52:10Z</time><name>PT3452</name></trkpt>
<trkpt lat="54.595261" lon="-3.223653"><ele>474</ele><time>2019-10-02T10:52:11Z</time><name>PT3453</name></trkpt>
<trkpt lat="54.595261" lon="-3.223659"><ele>474</ele><time>2019-10-02T10:52:12Z</time><name>PT3454</name></trkpt>
<trkpt lat="54.595261" lon="-3.223666"><ele>474</ele><time>2019-10-02T10:52:13Z</time><name>PT3455</name></trkpt>
<trkpt lat="54.595258" lon="-3.223675"><ele>474</ele><time>2019-10-02T10:52:14Z</time><name>PT3456</name></trkpt>
<trkpt lat="54.595256" lon="-3.223685"><ele>474</ele><time>2019-10-02T10:52:15Z</time><name>PT3457</name></trkpt>
<trkpt lat="54.595258" lon="-3.223694"><ele>475</ele><time>2019-10-02T10:52:16Z</time><name>PT3458</name></trkpt>
<trkpt lat="54.595257" lon="-3.223706"><ele>475</ele><time>2019-10-02T10:52:17Z</time><name>PT3459</name></trkpt>
<trkpt lat="54.595256" lon="-3.223715"><ele>475</ele><time>2019-10-02T10:52:18Z</time><name>PT3460</name></trkpt>
<trkpt lat="54.595255" lon="-3.223725"><ele>476</ele><time>2019-10-02T10:52:19Z</time><name>PT3461</name></trkpt>
<trkpt lat="54.595255" lon="-3.223735"><ele>476</ele><time>2019-10-02T10:52:20Z</time><name>PT3462</name></trkpt>
<trkpt lat="54.595253" lon="-3.223744"><ele>476</ele><time>2019-10-02T10:52:21Z</time><name>PT3463</name></trkpt>
<trkpt lat="54.595254" lon="-3.223757"><ele>476</ele><time>2019-10-02T10:52:22Z</time><name>PT3464</name></trkpt>
<trkpt lat="54.595251" lon="-3.223766"><ele>477</ele><time>2019-10-02T10:52:23Z</time><name>PT3465</name></trkpt>
<trkpt lat="54.595248" lon="-3.223773"><ele>477</ele><time>2019-10-02T10:52:24Z</time><name>PT3466</name></trkpt>
<trkpt lat="54.595249" lon="-3.223779"><ele>477</ele><time>2019-10-02T10:52:25Z</time><name>PT3467</name></trkpt>
<trkpt lat="54.595248" lon="-3.223790"><ele>477</ele><time>2019-10-02T10:52:26Z</time><name>PT3468</name></trkpt>
<trkpt lat="54.595250" lon="-3.223802"><ele>477</ele><time>2019-10-02T10:52:27Z</time><name>PT3469</name></trkpt>
<trkpt lat="54.595251" lon="-3.223814"><ele>477</ele><time>2019-10-02T10:52:28Z</time><name>PT3470</name></trkpt>
<trkpt lat="54.595251" lon="-3.223825"><ele>478</ele><time>2019-10-02T10:52:29Z</time><name>PT3471</name></trkpt>
<trkpt lat="54.595248" lon="-3.223836"><ele>478</ele><time>2019-10-02T10:52:30Z</time><name>PT3472</name></trkpt>
<trkpt lat="54.595246" lon="-3.223846"><ele>478</ele><time>2019-10-02T10:52:31Z</time><name>PT3473</name></trkpt>
<trkpt lat="54.595244" lon="-3.223859"><ele>478</ele><time>2019-10-02T10:52:32Z</time><name>PT3474</name></trkpt>
<trkpt lat="54.595241" lon="-3.223870"><ele>478</ele><time>2019-10-02T10:52:33Z</time><name>PT3475</name></trkpt>
<trkpt lat="54.595239" lon="-3.223877"><ele>478</ele><time>2019-10-02T10:52:34Z</time><name>PT3476</name></trkpt>
<trkpt lat="54.595237" lon="-3.223883"><ele>479</ele><time>2019-10-02T10:52:35Z</time><name>PT3477</name></trkpt>
<trkpt lat="54.595233" lon="-3.223890"><ele>479</ele><time>2019-10-02T10:52:36Z</time><name>PT3478</name></trkpt>
<trkpt lat="54.595230" lon="-3.223900"><ele>479</ele><time>2019-10-02T10:52:37Z</time><name>PT3479</name></trkpt>
<trkpt lat="54.595228" lon="-3.223910"><ele>479</ele><time>2019-10-02T10:52:38Z</time><name>PT3480</name></trkpt>
<trkpt lat="54.595226" lon="-3.223921"><ele>479</ele><time>2019-10-02T10:52:39Z</time><name>PT3481</name></trkpt>
<trkpt lat="54.595225" lon="-3.223933"><ele>479</ele><time>2019-10-02T10:52:40Z</time><name>PT3482</name></trkpt>
<trkpt lat="54.595224" lon="-3.223944"><ele>479</ele><time>2019-10-02T10:52:41Z</time><name>PT3483</name></trkpt>
<trkpt lat="54.595220" lon="-3.223950"><ele>479</ele><time>2019-10-02T10:52:42Z</time><name>PT3484</name></trkpt>
<trkpt lat="54.595217" lon="-3.223958"><ele>479</ele><time>2019-10-02T10:52:43Z</time><name>PT3485</name></trkpt>
<trkpt lat="54.595215" lon="-3.223967"><ele>479</ele><time>2019-10-02T10:52:44Z</time><name>PT3486</name></trkpt>
<trkpt lat="54.595212" lon="-3.223977"><ele>479</ele><time>2019-10-02T10:52:45Z</time><name>PT3487</name></trkpt>
<trkpt lat="54.595208" lon="-3.223989"><ele>479</ele><time>2019-10-02T10:52:46Z</time><name>PT3488</name></trkpt>
<trkpt lat="54.595205" lon="-3.223993"><ele>480</ele><time>2019-10-02T10:52:47Z</time><name>PT3489</name></trkpt>
<trkpt lat="54.595204" lon="-3.224000"><ele>480</ele><time>2019-10-02T10:52:48Z</time><name>PT3490</name></trkpt>
<trkpt lat="54.595203" lon="-3.224010"><ele>480</ele><time>2019-10-02T10:52:49Z</time><name>PT3491</name></trkpt>
<trkpt lat="54.595200" lon="-3.224021"><ele>480</ele><time>2019-10-02T10:52:50Z</time><name>PT3492</name></trkpt>
<trkpt lat="54.595197" lon="-3.224031"><ele>480</ele><time>2019-10-02T10:52:51Z</time><name>PT3493</name></trkpt>
<trkpt lat="54.595194" lon="-3.224040"><ele>480</ele><time>2019-10-02T10:52:52Z</time><name>PT3494</name></trkpt>
<trkpt lat="54.595191" lon="-3.224050"><ele>481</ele><time>2019-10-02T10:52:53Z</time><name>PT3495</name></trkpt>
<trkpt lat="54.595191" lon="-3.224059"><ele>481</ele><time>2019-10-02T10:52:54Z</time><name>PT3496</name></trkpt>
<trkpt lat="54.595193" lon="-3.224069"><ele>482</ele><time>2019-10-02T10:52:55Z</time><name>PT3497</name></trkpt>
<trkpt lat="54.595193" lon="-3.224078"><ele>482</ele><time>2019-10-02T10:52:56Z</time><name>PT3498</name></trkpt>
<trkpt lat="54.595195" lon="-3.224085"><ele>482</ele><time>2019-10-02T10:52:57Z</time><name>PT3499</name></trkpt>
<trkpt lat="54.595195" lon="-3.224093"><ele>482</ele><time>2019-10-02T10:52:58Z</time><name>PT3500</name></trkpt>
<trkpt lat="54.595196" lon="-3.224104"><ele>482</ele><time>2019-10-02T10:52:59Z</time><name>PT3501</name></trkpt>
<trkpt lat="54.595193" lon="-3.224114"><ele>482</ele><time>2019-10-02T10:53:00Z</time><name>PT3502</name></trkpt>
<trkpt lat="54.595190" lon="-3.224124"><ele>483</ele><time>2019-10-02T10:53:01Z</time><name>PT3503</name></trkpt>
<trkpt lat="54.595187" lon="-3.224128"><ele>483</ele><time>2019-10-02T10:53:02Z</time><name>PT3504</name></trkpt>
<trkpt lat="54.595183" lon="-3.224134"><ele>483</ele><time>2019-10-02T10:53:03Z</time><name>PT3505</name></trkpt>
<trkpt lat="54.595181" lon="-3.224145"><ele>483</ele><time>2019-10-02T10:53:04Z</time><name>PT3506</name></trkpt>
<trkpt lat="54.595178" lon="-3.224154"><ele>483</ele><time>2019-10-02T10:53:05Z</time><name>PT3507</name></trkpt>
<trkpt lat="54.595176" lon="-3.224163"><ele>483</ele><time>2019-10-02T10:53:06Z</time><name>PT3508</name></trkpt>
<trkpt lat="54.595174" lon="-3.224170"><ele>484</ele><time>2019-10-02T10:53:07Z</time><name>PT3509</name></trkpt>
<trkpt lat="54.595171" lon="-3.224181"><ele>484</ele><time>2019-10-02T10:53:08Z</time><name>PT3510</name></trkpt>
<trkpt lat="54.595170" lon="-3.224193"><ele>484</ele><time>2019-10-02T10:53:09Z</time><name>PT3511</name></trkpt>
<trkpt lat="54.595167" lon="-3.224201"><ele>484</ele><time>2019-10-02T10:53:10Z</time><name>PT3512</name></trkpt>
<trkpt lat="54.595168" lon="-3.224209"><ele>485</ele><time>2019-10-02T10:53:11Z</time><name>PT3513</name></trkpt>
<trkpt lat="54.595171" lon="-3.224217"><ele>485</ele><time>2019-10-02T10:53:12Z</time><name>PT3514</name></trkpt>
<trkpt lat="54.595172" lon="-3.224228"><ele>485</ele><time>2019-10-02T10:53:13Z</time><name>PT3515</name></trkpt>
<trkpt lat="54.595173" lon="-3.224239"><ele>486</ele><time>2019-10-02T10:53:14Z</time><name>PT3516</name></trkpt>
<trkpt lat="54.595173" lon="-3.224246"><ele>486</ele><time>2019-10-02T10:53:15Z</time><name>PT3517</name></trkpt>
<trkpt lat="54.595169" lon="-3.224254"><ele>486</ele><time>2019-10-02T10:53:16Z</time><name>PT3518</name></trkpt>
<trkpt lat="54.595167" lon="-3.224265"><ele>486</ele><time>2019-10-02T10:53:17Z</time><name>PT3519</name></trkpt>
<trkpt lat="54.595166" lon="-3.224271"><ele>487</ele><time>2019-10-02T10:53:18Z</time><name>PT3520</name></trkpt>
<trkpt lat="54.595165" lon="-3.224278"><ele>487</ele><time>2019-10-02T10:53:19Z</time><name>PT3521</name></trkpt>
<trkpt lat="54.595166" lon="-3.224283"><ele>487</ele><time>2019-10-02T10:53:20Z</time><name>PT3522</name></trkpt>
<trkpt lat="54.595166" lon="-3.224289"><ele>487</ele><time>2019-10-02T10:53:21Z</time><name>PT3523</name></trkpt>
<trkpt lat="54.595169" lon="-3.224294"><ele>487</ele><time>2019-10-02T10:53:24Z</time><name>PT3524</name></trkpt>
<trkpt lat="54.595172" lon="-3.224308"><ele>487</ele><time>2019-10-02T10:53:25Z</time><name>PT3525</name></trkpt>
<trkpt lat="54.595172" lon="-3.224317"><ele>488</ele><time>2019-10-02T10:53:26Z</time><name>PT3526</name></trkpt>
<trkpt lat="54.595170" lon="-3.224328"><ele>488</ele><time>2019-10-02T10:53:27Z</time><name>PT3527</name></trkpt>
<trkpt lat="54.595171" lon="-3.224338"><ele>488</ele><time>2019-10-02T10:53:28Z</time><name>PT3528</name></trkpt>
<trkpt lat="54.595172" lon="-3.224348"><ele>489</ele><time>2019-10-02T10:53:29Z</time><name>PT3529</name></trkpt>
<trkpt lat="54.595173" lon="-3.224361"><ele>489</ele><time>2019-10-02T10:53:30Z</time><name>PT3530</name></trkpt>
<trkpt lat="54.595174" lon="-3.224373"><ele>489</ele><time>2019-10-02T10:53:31Z</time><name>PT3531</name></trkpt>
<trkpt lat="54.595173" lon="-3.224384"><ele>489</ele><time>2019-10-02T10:53:32Z</time><name>PT3532</name></trkpt>
<trkpt lat="54.595173" lon="-3.224394"><ele>489</ele><time>2019-10-02T10:53:33Z</time><name>PT3533</name></trkpt>
<trkpt lat="54.595172" lon="-3.224401"><ele>489</ele><time>2019-10-02T10:53:34Z</time><name>PT3534</name></trkpt>
<trkpt lat="54.595171" lon="-3.224408"><ele>489</ele><time>2019-10-02T10:53:35Z</time><name>PT3535</name></trkpt>
<trkpt lat="54.595173" lon="-3.224417"><ele>489</ele><time>2019-10-02T10:53:36Z</time><name>PT3536</name></trkpt>
<trkpt lat="54.595173" lon="-3.224424"><ele>490</ele><time>2019-10-02T10:53:37Z</time><name>PT3537</name></trkpt>
<trkpt lat="54.595172" lon="-3.224433"><ele>490</ele><time>2019-10-02T10:53:38Z</time><name>PT3538</name></trkpt>
<trkpt lat="54.595170" lon="-3.224442"><ele>490</ele><time>2019-10-02T10:53:39Z</time><name>PT3539</name></trkpt>
<trkpt lat="54.595168" lon="-3.224450"><ele>490</ele><time>2019-10-02T10:53:40Z</time><name>PT3540</name></trkpt>
<trkpt lat="54.595167" lon="-3.224459"><ele>490</ele><time>2019-10-02T10:53:41Z</time><name>PT3541</name></trkpt>
<trkpt lat="54.595166" lon="-3.224468"><ele>490</ele><time>2019-10-02T10:53:42Z</time><name>PT3542</name></trkpt>
<trkpt lat="54.595169" lon="-3.224477"><ele>490</ele><time>2019-10-02T10:53:43Z</time><name>PT3543</name></trkpt>
<trkpt lat="54.595172" lon="-3.224487"><ele>491</ele><time>2019-10-02T10:53:44Z</time><name>PT3544</name></trkpt>
<trkpt lat="54.595173" lon="-3.224498"><ele>491</ele><time>2019-10-02T10:53:45Z</time><name>PT3545</name></trkpt>
<trkpt lat="54.595175" lon="-3.224511"><ele>491</ele><time>2019-10-02T10:53:46Z</time><name>PT3546</name></trkpt>
<trkpt lat="54.595174" lon="-3.224521"><ele>491</ele><time>2019-10-02T10:53:47Z</time><name>PT3547</name></trkpt>
<trkpt lat="54.595172" lon="-3.224533"><ele>491</ele><time>2019-10-02T10:53:48Z</time><name>PT3548</name></trkpt>
<trkpt lat="54.595170" lon="-3.224543"><ele>491</ele><time>2019-10-02T10:53:49Z</time><name>PT3549</name></trkpt>
<trkpt lat="54.595169" lon="-3.224554"><ele>491</ele><time>2019-10-02T10:53:50Z</time><name>PT3550</name></trkpt>
<trkpt lat="54.595168" lon="-3.224566"><ele>492</ele><time>2019-10-02T10:53:51Z</time><name>PT3551</name></trkpt>
<trkpt lat="54.595167" lon="-3.224578"><ele>491</ele><time>2019-10-02T10:53:52Z</time><name>PT3552</name></trkpt>
<trkpt lat="54.595168" lon="-3.224590"><ele>491</ele><time>2019-10-02T10:53:53Z</time><name>PT3553</name></trkpt>
<trkpt lat="54.595168" lon="-3.224600"><ele>492</ele><time>2019-10-02T10:53:54Z</time><name>PT3554</name></trkpt>
<trkpt lat="54.595167" lon="-3.224608"><ele>492</ele><time>2019-10-02T10:53:55Z</time><name>PT3555</name></trkpt>
<trkpt lat="54.595167" lon="-3.224618"><ele>492</ele><time>2019-10-02T10:53:56Z</time><name>PT3556</name></trkpt>
<trkpt lat="54.595169" lon="-3.224627"><ele>492</ele><time>2019-10-02T10:53:57Z</time><name>PT3557</name></trkpt>
<trkpt lat="54.595170" lon="-3.224640"><ele>492</ele><time>2019-10-02T10:53:58Z</time><name>PT3558</name></trkpt>
<trkpt lat="54.595169" lon="-3.224653"><ele>492</ele><time>2019-10-02T10:53:59Z</time><name>PT3559</name></trkpt>
<trkpt lat="54.595166" lon="-3.224661"><ele>492</ele><time>2019-10-02T10:54:00Z</time><name>PT3560</name></trkpt>
<trkpt lat="54.595165" lon="-3.224668"><ele>492</ele><time>2019-10-02T10:54:01Z</time><name>PT3561</name></trkpt>
<trkpt lat="54.595167" lon="-3.224679"><ele>492</ele><time>2019-10-02T10:54:02Z</time><name>PT3562</name></trkpt>
<trkpt lat="54.595166" lon="-3.224690"><ele>492</ele><time>2019-10-02T10:54:03Z</time><name>PT3563</name></trkpt>
<trkpt lat="54.595163" lon="-3.224702"><ele>492</ele><time>2019-10-02T10:54:04Z</time><name>PT3564</name></trkpt>
<trkpt lat="54.595160" lon="-3.224716"><ele>492</ele><time>2019-10-02T10:54:05Z</time><name>PT3565</name></trkpt>
<trkpt lat="54.595158" lon="-3.224728"><ele>492</ele><time>2019-10-02T10:54:06Z</time><name>PT3566</name></trkpt>
<trkpt lat="54.595155" lon="-3.224740"><ele>492</ele><time>2019-10-02T10:54:07Z</time><name>PT3567</name></trkpt>
<trkpt lat="54.595152" lon="-3.224754"><ele>493</ele><time>2019-10-02T10:54:08Z</time><name>PT3568</name></trkpt>
<trkpt lat="54.595149" lon="-3.224766"><ele>493</ele><time>2019-10-02T10:54:09Z</time><name>PT3569</name></trkpt>
<trkpt lat="54.595146" lon="-3.224777"><ele>493</ele><time>2019-10-02T10:54:10Z</time><name>PT3570</name></trkpt>
<trkpt lat="54.595142" lon="-3.224786"><ele>493</ele><time>2019-10-02T10:54:11Z</time><name>PT3571</name></trkpt>
<trkpt lat="54.595141" lon="-3.224797"><ele>493</ele><time>2019-10-02T10:54:12Z</time><name>PT3572</name></trkpt>
<trkpt lat="54.595140" lon="-3.224808"><ele>493</ele><time>2019-10-02T10:54:13Z</time><name>PT3573</name></trkpt>
<trkpt lat="54.595137" lon="-3.224819"><ele>493</ele><time>2019-10-02T10:54:14Z</time><name>PT3574</name></trkpt>
<trkpt lat="54.595136" lon="-3.224830"><ele>493</ele><time>2019-10-02T10:54:15Z</time><name>PT3575</name></trkpt>
<trkpt lat="54.595137" lon="-3.224842"><ele>494</ele><time>2019-10-02T10:54:16Z</time><name>PT3576</name></trkpt>
<trkpt lat="54.595138" lon="-3.224853"><ele>494</ele><time>2019-10-02T10:54:17Z</time><name>PT3577</name></trkpt>
<trkpt lat="54.595137" lon="-3.224862"><ele>494</ele><time>2019-10-02T10:54:18Z</time><name>PT3578</name></trkpt>
<trkpt lat="54.595138" lon="-3.224873"><ele>494</ele><time>2019-10-02T10:54:19Z</time><name>PT3579</name></trkpt>
<trkpt lat="54.595136" lon="-3.224884"><ele>494</ele><time>2019-10-02T10:54:20Z</time><name>PT3580</name></trkpt>
<trkpt lat="54.595133" lon="-3.224894"><ele>495</ele><time>2019-10-02T10:54:21Z</time><name>PT3581</name></trkpt>
<trkpt lat="54.595132" lon="-3.224903"><ele>495</ele><time>2019-10-02T10:54:22Z</time><name>PT3582</name></trkpt>
<trkpt lat="54.595132" lon="-3.224914"><ele>495</ele><time>2019-10-02T10:54:23Z</time><name>PT3583</name></trkpt>
<trkpt lat="54.595130" lon="-3.224925"><ele>495</ele><time>2019-10-02T10:54:24Z</time><name>PT3584</name></trkpt>
<trkpt lat="54.595129" lon="-3.224934"><ele>495</ele><time>2019-10-02T10:54:25Z</time><name>PT3585</name></trkpt>
<trkpt lat="54.595127" lon="-3.224946"><ele>496</ele><time>2019-10-02T10:54:26Z</time><name>PT3586</name></trkpt>
<trkpt lat="54.595123" lon="-3.224956"><ele>496</ele><time>2019-10-02T10:54:27Z</time><name>PT3587</name></trkpt>
<trkpt lat="54.595120" lon="-3.224967"><ele>496</ele><time>2019-10-02T10:54:28Z</time><name>PT3588</name></trkpt>
<trkpt lat="54.595118" lon="-3.224979"><ele>496</ele><time>2019-10-02T10:54:29Z</time><name>PT3589</name></trkpt>
<trkpt lat="54.595115" lon="-3.224988"><ele>496</ele><time>2019-10-02T10:54:30Z</time><name>PT3590</name></trkpt>
<trkpt lat="54.595111" lon="-3.224998"><ele>497</ele><time>2019-10-02T10:54:31Z</time><name>PT3591</name></trkpt>
<trkpt lat="54.595108" lon="-3.225008"><ele>497</ele><time>2019-10-02T10:54:32Z</time><name>PT3592</name></trkpt>
<trkpt lat="54.595106" lon="-3.225016"><ele>497</ele><time>2019-10-02T10:54:33Z</time><name>PT3593</name></trkpt>
<trkpt lat="54.595103" lon="-3.225024"><ele>497</ele><time>2019-10-02T10:54:34Z</time><name>PT3594</name></trkpt>
<trkpt lat="54.595102" lon="-3.225033"><ele>498</ele><time>2019-10-02T10:54:35Z</time><name>PT3595</name></trkpt>
<trkpt lat="54.595103" lon="-3.225041"><ele>498</ele><time>2019-10-02T10:54:36Z</time><name>PT3596</name></trkpt>
<trkpt lat="54.595103" lon="-3.225049"><ele>498</ele><time>2019-10-02T10:54:37Z</time><name>PT3597</name></trkpt>
<trkpt lat="54.595103" lon="-3.225053"><ele>498</ele><time>2019-10-02T10:54:38Z</time><name>PT3598</name></trkpt>
<trkpt lat="54.595107" lon="-3.225060"><ele>498</ele><time>2019-10-02T10:54:39Z</time><name>PT3599</name></trkpt>
<trkpt lat="54.595110" lon="-3.225070"><ele>498</ele><time>2019-10-02T10:54:40Z</time><name>PT3600</name></trkpt>
<trkpt lat="54.595108" lon="-3.225082"><ele>498</ele><time>2019-10-02T10:54:41Z</time><name>PT3601</name></trkpt>
<trkpt lat="54.595106" lon="-3.225092"><ele>499</ele><time>2019-10-02T10:54:42Z</time><name>PT3602</name></trkpt>
<trkpt lat="54.595105" lon="-3.225104"><ele>499</ele><time>2019-10-02T10:54:43Z</time><name>PT3603</name></trkpt>
<trkpt lat="54.595103" lon="-3.225115"><ele>499</ele><time>2019-10-02T10:54:44Z</time><name>PT3604</name></trkpt>
<trkpt lat="54.595101" lon="-3.225126"><ele>499</ele><time>2019-10-02T10:54:45Z</time><name>PT3605</name></trkpt>
<trkpt lat="54.595100" lon="-3.225136"><ele>499</ele><time>2019-10-02T10:54:46Z</time><name>PT3606</name></trkpt>
<trkpt lat="54.595101" lon="-3.225150"><ele>500</ele><time>2019-10-02T10:54:47Z</time><name>PT3607</name></trkpt>
<trkpt lat="54.595099" lon="-3.225162"><ele>500</ele><time>2019-10-02T10:54:48Z</time><name>PT3608</name></trkpt>
<trkpt lat="54.595096" lon="-3.225173"><ele>500</ele><time>2019-10-02T10:54:49Z</time><name>PT3609</name></trkpt>
<trkpt lat="54.595097" lon="-3.225185"><ele>500</ele><time>2019-10-02T10:54:50Z</time><name>PT3610</name></trkpt>
<trkpt lat="54.595095" lon="-3.225195"><ele>501</ele><time>2019-10-02T10:54:51Z</time><name>PT3611</name></trkpt>
<trkpt lat="54.595091" lon="-3.225206"><ele>501</ele><time>2019-10-02T10:54:52Z</time><name>PT3612</name></trkpt>
<trkpt lat="54.595090" lon="-3.225219"><ele>501</ele><time>2019-10-02T10:54:53Z</time><name>PT3613</name></trkpt>
<trkpt lat="54.595089" lon="-3.225230"><ele>501</ele><time>2019-10-02T10:54:54Z</time><name>PT3614</name></trkpt>
<trkpt lat="54.595086" lon="-3.225241"><ele>501</ele><time>2019-10-02T10:54:55Z</time><name>PT3615</name></trkpt>
<trkpt lat="54.595083" lon="-3.225252"><ele>501</ele><time>2019-10-02T10:54:56Z</time><name>PT3616</name></trkpt>
<trkpt lat="54.595083" lon="-3.225265"><ele>502</ele><time>2019-10-02T10:54:57Z</time><name>PT3617</name></trkpt>
<trkpt lat="54.595078" lon="-3.225275"><ele>502</ele><time>2019-10-02T10:54:58Z</time><name>PT3618</name></trkpt>
<trkpt lat="54.595076" lon="-3.225285"><ele>502</ele><time>2019-10-02T10:54:59Z</time><name>PT3619</name></trkpt>
<trkpt lat="54.595075" lon="-3.225297"><ele>502</ele><time>2019-10-02T10:55:00Z</time><name>PT3620</name></trkpt>
<trkpt lat="54.595072" lon="-3.225307"><ele>502</ele><time>2019-10-02T10:55:01Z</time><name>PT3621</name></trkpt>
<trkpt lat="54.595069" lon="-3.225317"><ele>502</ele><time>2019-10-02T10:55:02Z</time><name>PT3622</name></trkpt>
<trkpt lat="54.595067" lon="-3.225328"><ele>503</ele><time>2019-10-02T10:55:03Z</time><name>PT3623</name></trkpt>
<trkpt lat="54.595067" lon="-3.225337"><ele>503</ele><time>2019-10-02T10:55:04Z</time><name>PT3624</name></trkpt>
<trkpt lat="54.595068" lon="-3.225347"><ele>503</ele><time>2019-10-02T10:55:05Z</time><name>PT3625</name></trkpt>
<trkpt lat="54.595068" lon="-3.225356"><ele>504</ele><time>2019-10-02T10:55:06Z</time><name>PT3626</name></trkpt>
<trkpt lat="54.595067" lon="-3.225368"><ele>504</ele><time>2019-10-02T10:55:07Z</time><name>PT3627</name></trkpt>
<trkpt lat="54.595068" lon="-3.225379"><ele>504</ele><time>2019-10-02T10:55:08Z</time><name>PT3628</name></trkpt>
<trkpt lat="54.595067" lon="-3.225388"><ele>504</ele><time>2019-10-02T10:55:09Z</time><name>PT3629</name></trkpt>
<trkpt lat="54.595071" lon="-3.225396"><ele>504</ele><time>2019-10-02T10:55:10Z</time><name>PT3630</name></trkpt>
<trkpt lat="54.595073" lon="-3.225406"><ele>505</ele><time>2019-10-02T10:55:11Z</time><name>PT3631</name></trkpt>
<trkpt lat="54.595075" lon="-3.225419"><ele>505</ele><time>2019-10-02T10:55:12Z</time><name>PT3632</name></trkpt>
<trkpt lat="54.595077" lon="-3.225430"><ele>506</ele><time>2019-10-02T10:55:13Z</time><name>PT3633</name></trkpt>
<trkpt lat="54.595079" lon="-3.225439"><ele>506</ele><time>2019-10-02T10:55:14Z</time><name>PT3634</name></trkpt>
<trkpt lat="54.595081" lon="-3.225449"><ele>506</ele><time>2019-10-02T10:55:15Z</time><name>PT3635</name></trkpt>
<trkpt lat="54.595084" lon="-3.225461"><ele>507</ele><time>2019-10-02T10:55:16Z</time><name>PT3636</name></trkpt>
<trkpt lat="54.595084" lon="-3.225471"><ele>507</ele><time>2019-10-02T10:55:17Z</time><name>PT3637</name></trkpt>
<trkpt lat="54.595081" lon="-3.225484"><ele>507</ele><time>2019-10-02T10:55:18Z</time><name>PT3638</name></trkpt>
<trkpt lat="54.595079" lon="-3.225497"><ele>507</ele><time>2019-10-02T10:55:19Z</time><name>PT3639</name></trkpt>
<trkpt lat="54.595078" lon="-3.225510"><ele>507</ele><time>2019-10-02T10:55:20Z</time><name>PT3640</name></trkpt>
<trkpt lat="54.595075" lon="-3.225524"><ele>507</ele><time>2019-10-02T10:55:21Z</time><name>PT3641</name></trkpt>
<trkpt lat="54.595073" lon="-3.225537"><ele>508</ele><time>2019-10-02T10:55:22Z</time><name>PT3642</name></trkpt>
<trkpt lat="54.595070" lon="-3.225548"><ele>508</ele><time>2019-10-02T10:55:23Z</time><name>PT3643</name></trkpt>
<trkpt lat="54.595069" lon="-3.225561"><ele>508</ele><time>2019-10-02T10:55:24Z</time><name>PT3644</name></trkpt>
<trkpt lat="54.595067" lon="-3.225572"><ele>508</ele><time>2019-10-02T10:55:25Z</time><name>PT3645</name></trkpt>
<trkpt lat="54.595063" lon="-3.225582"><ele>508</ele><time>2019-10-02T10:55:26Z</time><name>PT3646</name></trkpt>
<trkpt lat="54.595060" lon="-3.225594"><ele>508</ele><time>2019-10-02T10:55:27Z</time><name>PT3647</name></trkpt>
<trkpt lat="54.595057" lon="-3.225605"><ele>508</ele><time>2019-10-02T10:55:28Z</time><name>PT3648</name></trkpt>
<trkpt lat="54.595054" lon="-3.225617"><ele>508</ele><time>2019-10-02T10:55:29Z</time><name>PT3649</name></trkpt>
<trkpt lat="54.595053" lon="-3.225630"><ele>509</ele><time>2019-10-02T10:55:30Z</time><name>PT3650</name></trkpt>
<trkpt lat="54.595051" lon="-3.225643"><ele>509</ele><time>2019-10-02T10:55:31Z</time><name>PT3651</name></trkpt>
<trkpt lat="54.595046" lon="-3.225651"><ele>509</ele><time>2019-10-02T10:55:32Z</time><name>PT3652</name></trkpt>
<trkpt lat="54.595042" lon="-3.225662"><ele>509</ele><time>2019-10-02T10:55:33Z</time><name>PT3653</name></trkpt>
<trkpt lat="54.595040" lon="-3.225674"><ele>509</ele><time>2019-10-02T10:55:34Z</time><name>PT3654</name></trkpt>
<trkpt lat="54.595038" lon="-3.225683"><ele>509</ele><time>2019-10-02T10:55:35Z</time><name>PT3655</name></trkpt>
<trkpt lat="54.595036" lon="-3.225694"><ele>509</ele><time>2019-10-02T10:55:36Z</time><name>PT3656</name></trkpt>
<trkpt lat="54.595036" lon="-3.225706"><ele>510</ele><time>2019-10-02T10:55:37Z</time><name>PT3657</name></trkpt>
<trkpt lat="54.595034" lon="-3.225717"><ele>510</ele><time>2019-10-02T10:55:38Z</time><name>PT3658</name></trkpt>
<trkpt lat="54.595031" lon="-3.225727"><ele>510</ele><time>2019-10-02T10:55:39Z</time><name>PT3659</name></trkpt>
<trkpt lat="54.595027" lon="-3.225735"><ele>510</ele><time>2019-10-02T10:55:40Z</time><name>PT3660</name></trkpt>
<trkpt lat="54.595024" lon="-3.225746"><ele>510</ele><time>2019-10-02T10:55:41Z</time><name>PT3661</name></trkpt>
<trkpt lat="54.595020" lon="-3.225755"><ele>510</ele><time>2019-10-02T10:55:42Z</time><name>PT3662</name></trkpt>
<trkpt lat="54.595017" lon="-3.225763"><ele>511</ele><time>2019-10-02T10:55:43Z</time><name>PT3663</name></trkpt>
<trkpt lat="54.595013" lon="-3.225775"><ele>511</ele><time>2019-10-02T10:55:44Z</time><name>PT3664</name></trkpt>
<trkpt lat="54.595006" lon="-3.225783"><ele>511</ele><time>2019-10-02T10:55:45Z</time><name>PT3665</name></trkpt>
<trkpt lat="54.595002" lon="-3.225793"><ele>511</ele><time>2019-10-02T10:55:46Z</time><name>PT3666</name></trkpt>
<trkpt lat="54.595002" lon="-3.225805"><ele>511</ele><time>2019-10-02T10:55:47Z</time><name>PT3667</name></trkpt>
<trkpt lat="54.595000" lon="-3.225814"><ele>511</ele><time>2019-10-02T10:55:48Z</time><name>PT3668</name></trkpt>
<trkpt lat="54.594997" lon="-3.225822"><ele>511</ele><time>2019-10-02T10:55:49Z</time><name>PT3669</name></trkpt>
<trkpt lat="54.594994" lon="-3.225832"><ele>511</ele><time>2019-10-02T10:55:50Z</time><name>PT3670</name></trkpt>
<trkpt lat="54.594991" lon="-3.225844"><ele>511</ele><time>2019-10-02T10:55:51Z</time><name>PT3671</name></trkpt>
<trkpt lat="54.594989" lon="-3.225850"><ele>512</ele><time>2019-10-02T10:55:52Z</time><name>PT3672</name></trkpt>
<trkpt lat="54.594987" lon="-3.225858"><ele>512</ele><time>2019-10-02T10:55:53Z</time><name>PT3673</name></trkpt>
<trkpt lat="54.594987" lon="-3.225869"><ele>512</ele><time>2019-10-02T10:55:54Z</time><name>PT3674</name></trkpt>
<trkpt lat="54.594985" lon="-3.225877"><ele>512</ele><time>2019-10-02T10:55:55Z</time><name>PT3675</name></trkpt>
<trkpt lat="54.594981" lon="-3.225888"><ele>512</ele><time>2019-10-02T10:55:56Z</time><name>PT3676</name></trkpt>
<trkpt lat="54.594983" lon="-3.225896"><ele>512</ele><time>2019-10-02T10:55:57Z</time><name>PT3677</name></trkpt>
<trkpt lat="54.594982" lon="-3.225907"><ele>512</ele><time>2019-10-02T10:55:58Z</time><name>PT3678</name></trkpt>
<trkpt lat="54.594985" lon="-3.225914"><ele>513</ele><time>2019-10-02T10:55:59Z</time><name>PT3679</name></trkpt>
<trkpt lat="54.594986" lon="-3.225920"><ele>513</ele><time>2019-10-02T10:56:00Z</time><name>PT3680</name></trkpt>
<trkpt lat="54.594986" lon="-3.225925"><ele>513</ele><time>2019-10-02T10:56:01Z</time><name>PT3681</name></trkpt>
<trkpt lat="54.594990" lon="-3.225931"><ele>513</ele><time>2019-10-02T10:56:02Z</time><name>PT3682</name></trkpt>
<trkpt lat="54.594989" lon="-3.225933"><ele>513</ele><time>2019-10-02T10:56:03Z</time><name>PT3683</name></trkpt>
<trkpt lat="54.594988" lon="-3.225940"><ele>513</ele><time>2019-10-02T10:56:04Z</time><name>PT3684</name></trkpt>
<trkpt lat="54.594987" lon="-3.225947"><ele>513</ele><time>2019-10-02T10:56:05Z</time><name>PT3685</name></trkpt>
<trkpt lat="54.594986" lon="-3.225956"><ele>513</ele><time>2019-10-02T10:56:06Z</time><name>PT3686</name></trkpt>
<trkpt lat="54.594989" lon="-3.225967"><ele>514</ele><time>2019-10-02T10:56:07Z</time><name>PT3687</name></trkpt>
<trkpt lat="54.594990" lon="-3.225976"><ele>514</ele><time>2019-10-02T10:56:08Z</time><name>PT3688</name></trkpt>
<trkpt lat="54.594989" lon="-3.225983"><ele>515</ele><time>2019-10-02T10:56:09Z</time><name>PT3689</name></trkpt>
<trkpt lat="54.594989" lon="-3.225992"><ele>515</ele><time>2019-10-02T10:56:10Z</time><name>PT3690</name></trkpt>
<trkpt lat="54.594987" lon="-3.226001"><ele>515</ele><time>2019-10-02T10:56:11Z</time><name>PT3691</name></trkpt>
<trkpt lat="54.594983" lon="-3.226011"><ele>516</ele><time>2019-10-02T10:56:12Z</time><name>PT3692</name></trkpt>
<trkpt lat="54.594981" lon="-3.226023"><ele>516</ele><time>2019-10-02T10:56:13Z</time><name>PT3693</name></trkpt>
<trkpt lat="54.594978" lon="-3.226034"><ele>516</ele><time>2019-10-02T10:56:14Z</time><name>PT3694</name></trkpt>
<trkpt lat="54.594975" lon="-3.226044"><ele>517</ele><time>2019-10-02T10:56:15Z</time><name>PT3695</name></trkpt>
<trkpt lat="54.594975" lon="-3.226055"><ele>517</ele><time>2019-10-02T10:56:16Z</time><name>PT3696</name></trkpt>
<trkpt lat="54.594975" lon="-3.226068"><ele>517</ele><time>2019-10-02T10:56:17Z</time><name>PT3697</name></trkpt>
<trkpt lat="54.594974" lon="-3.226081"><ele>517</ele><time>2019-10-02T10:56:18Z</time><name>PT3698</name></trkpt>
<trkpt lat="54.594971" lon="-3.226094"><ele>518</ele><time>2019-10-02T10:56:19Z</time><name>PT3699</name></trkpt>
<trkpt lat="54.594971" lon="-3.226106"><ele>518</ele><time>2019-10-02T10:56:20Z</time><name>PT3700</name></trkpt>
<trkpt lat="54.594969" lon="-3.226116"><ele>518</ele><time>2019-10-02T10:56:21Z</time><name>PT3701</name></trkpt>
<trkpt lat="54.594970" lon="-3.226128"><ele>518</ele><time>2019-10-02T10:56:22Z</time><name>PT3702</name></trkpt>
<trkpt lat="54.594970" lon="-3.226144"><ele>519</ele><time>2019-10-02T10:56:23Z</time><name>PT3703</name></trkpt>
<trkpt lat="54.594968" lon="-3.226155"><ele>519</ele><time>2019-10-02T10:56:24Z</time><name>PT3704</name></trkpt>
<trkpt lat="54.594965" lon="-3.226166"><ele>519</ele><time>2019-10-02T10:56:25Z</time><name>PT3705</name></trkpt>
<trkpt lat="54.594964" lon="-3.226176"><ele>519</ele><time>2019-10-02T10:56:26Z</time><name>PT3706</name></trkpt>
<trkpt lat="54.594963" lon="-3.226186"><ele>519</ele><time>2019-10-02T10:56:27Z</time><name>PT3707</name></trkpt>
<trkpt lat="54.594961" lon="-3.226193"><ele>519</ele><time>2019-10-02T10:56:28Z</time><name>PT3708</name></trkpt>
<trkpt lat="54.594958" lon="-3.226203"><ele>520</ele><time>2019-10-02T10:56:29Z</time><name>PT3709</name></trkpt>
<trkpt lat="54.594955" lon="-3.226214"><ele>520</ele><time>2019-10-02T10:56:30Z</time><name>PT3710</name></trkpt>
<trkpt lat="54.594951" lon="-3.226223"><ele>520</ele><time>2019-10-02T10:56:31Z</time><name>PT3711</name></trkpt>
<trkpt lat="54.594949" lon="-3.226232"><ele>520</ele><time>2019-10-02T10:56:32Z</time><name>PT3712</name></trkpt>
<trkpt lat="54.594949" lon="-3.226241"><ele>520</ele><time>2019-10-02T10:56:33Z</time><name>PT3713</name></trkpt>
<trkpt lat="54.594946" lon="-3.226252"><ele>520</ele><time>2019-10-02T10:56:34Z</time><name>PT3714</name></trkpt>
<trkpt lat="54.594944" lon="-3.226266"><ele>520</ele><time>2019-10-02T10:56:35Z</time><name>PT3715</name></trkpt>
<trkpt lat="54.594942" lon="-3.226279"><ele>521</ele><time>2019-10-02T10:56:36Z</time><name>PT3716</name></trkpt>
<trkpt lat="54.594939" lon="-3.226290"><ele>521</ele><time>2019-10-02T10:56:37Z</time><name>PT3717</name></trkpt>
<trkpt lat="54.594937" lon="-3.226299"><ele>521</ele><time>2019-10-02T10:56:38Z</time><name>PT3718</name></trkpt>
<trkpt lat="54.594933" lon="-3.226306"><ele>522</ele><time>2019-10-02T10:56:39Z</time><name>PT3719</name></trkpt>
<trkpt lat="54.594929" lon="-3.226314"><ele>522</ele><time>2019-10-02T10:56:40Z</time><name>PT3720</name></trkpt>
<trkpt lat="54.594928" lon="-3.226325"><ele>522</ele><time>2019-10-02T10:56:41Z</time><name>PT3721</name></trkpt>
<trkpt lat="54.594928" lon="-3.226333"><ele>522</ele><time>2019-10-02T10:56:42Z</time><name>PT3722</name></trkpt>
<trkpt lat="54.594927" lon="-3.226343"><ele>522</ele><time>2019-10-02T10:56:43Z</time><name>PT3723</name></trkpt>
<trkpt lat="54.594930" lon="-3.226354"><ele>522</ele><time>2019-10-02T10:56:44Z</time><name>PT3724</name></trkpt>
<trkpt lat="54.594931" lon="-3.226364"><ele>523</ele><time>2019-10-02T10:56:45Z</time><name>PT3725</name></trkpt>
<trkpt lat="54.594930" lon="-3.226376"><ele>523</ele><time>2019-10-02T10:56:46Z</time><name>PT3726</name></trkpt>
<trkpt lat="54.594931" lon="-3.226388"><ele>523</ele><time>2019-10-02T10:56:47Z</time><name>PT3727</name></trkpt>
<trkpt lat="54.594934" lon="-3.226398"><ele>524</ele><time>2019-10-02T10:56:48Z</time><name>PT3728</name></trkpt>
<trkpt lat="54.594932" lon="-3.226408"><ele>524</ele><time>2019-10-02T10:56:49Z</time><name>PT3729</name></trkpt>
<trkpt lat="54.594932" lon="-3.226420"><ele>524</ele><time>2019-10-02T10:56:50Z</time><name>PT3730</name></trkpt>
<trkpt lat="54.594930" lon="-3.226428"><ele>524</ele><time>2019-10-02T10:56:51Z</time><name>PT3731</name></trkpt>
<trkpt lat="54.594928" lon="-3.226438"><ele>524</ele><time>2019-10-02T10:56:52Z</time><name>PT3732</name></trkpt>
<trkpt lat="54.594930" lon="-3.226451"><ele>524</ele><time>2019-10-02T10:56:53Z</time><name>PT3733</name></trkpt>
<trkpt lat="54.594930" lon="-3.226461"><ele>524</ele><time>2019-10-02T10:56:54Z</time><name>PT3734</name></trkpt>
<trkpt lat="54.594931" lon="-3.226472"><ele>524</ele><time>2019-10-02T10:56:55Z</time><name>PT3735</name></trkpt>
<trkpt lat="54.594933" lon="-3.226483"><ele>525</ele><time>2019-10-02T10:56:56Z</time><name>PT3736</name></trkpt>
<trkpt lat="54.594930" lon="-3.226491"><ele>525</ele><time>2019-10-02T10:56:57Z</time><name>PT3737</name></trkpt>
<trkpt lat="54.594929" lon="-3.226501"><ele>525</ele><time>2019-10-02T10:56:58Z</time><name>PT3738</name></trkpt>
<trkpt lat="54.594930" lon="-3.226512"><ele>525</ele><time>2019-10-02T10:56:59Z</time><name>PT3739</name></trkpt>
<trkpt lat="54.594930" lon="-3.226523"><ele>525</ele><time>2019-10-02T10:57:00Z</time><name>PT3740</name></trkpt>
<trkpt lat="54.594929" lon="-3.226534"><ele>525</ele><time>2019-10-02T10:57:01Z</time><name>PT3741</name></trkpt>
<trkpt lat="54.594927" lon="-3.226543"><ele>526</ele><time>2019-10-02T10:57:02Z</time><name>PT3742</name></trkpt>
<trkpt lat="54.594924" lon="-3.226553"><ele>526</ele><time>2019-10-02T10:57:03Z</time><name>PT3743</name></trkpt>
<trkpt lat="54.594922" lon="-3.226564"><ele>526</ele><time>2019-10-02T10:57:04Z</time><name>PT3744</name></trkpt>
<trkpt lat="54.594920" lon="-3.226573"><ele>526</ele><time>2019-10-02T10:57:05Z</time><name>PT3745</name></trkpt>
<trkpt lat="54.594917" lon="-3.226583"><ele>526</ele><time>2019-10-02T10:57:06Z</time><name>PT3746</name></trkpt>
<trkpt lat="54.594916" lon="-3.226593"><ele>526</ele><time>2019-10-02T10:57:07Z</time><name>PT3747</name></trkpt>
<trkpt lat="54.594915" lon="-3.226604"><ele>526</ele><time>2019-10-02T10:57:08Z</time><name>PT3748</name></trkpt>
<trkpt lat="54.594913" lon="-3.226617"><ele>527</ele><time>2019-10-02T10:57:09Z</time><name>PT3749</name></trkpt>
<trkpt lat="54.594912" lon="-3.226628"><ele>527</ele><time>2019-10-02T10:57:10Z</time><name>PT3750</name></trkpt>
<trkpt lat="54.594911" lon="-3.226637"><ele>527</ele><time>2019-10-02T10:57:11Z</time><name>PT3751</name></trkpt>
<trkpt lat="54.594910" lon="-3.226646"><ele>527</ele><time>2019-10-02T10:57:12Z</time><name>PT3752</name></trkpt>
<trkpt lat="54.594909" lon="-3.226654"><ele>528</ele><time>2019-10-02T10:57:13Z</time><name>PT3753</name></trkpt>
<trkpt lat="54.594910" lon="-3.226661"><ele>528</ele><time>2019-10-02T10:57:14Z</time><name>PT3754</name></trkpt>
<trkpt lat="54.594909" lon="-3.226670"><ele>528</ele><time>2019-10-02T10:57:15Z</time><name>PT3755</name></trkpt>
<trkpt lat="54.594909" lon="-3.226678"><ele>528</ele><time>2019-10-02T10:57:16Z</time><name>PT3756</name></trkpt>
<trkpt lat="54.594908" lon="-3.226687"><ele>528</ele><time>2019-10-02T10:57:17Z</time><name>PT3757</name></trkpt>
<trkpt lat="54.594907" lon="-3.226697"><ele>528</ele><time>2019-10-02T10:57:18Z</time><name>PT3758</name></trkpt>
<trkpt lat="54.594905" lon="-3.226709"><ele>529</ele><time>2019-10-02T10:57:19Z</time><name>PT3759</name></trkpt>
<trkpt lat="54.594903" lon="-3.226721"><ele>529</ele><time>2019-10-02T10:57:20Z</time><name>PT3760</name></trkpt>
<trkpt lat="54.594900" lon="-3.226732"><ele>529</ele><time>2019-10-02T10:57:21Z</time><name>PT3761</name></trkpt>
<trkpt lat="54.594896" lon="-3.226744"><ele>529</ele><time>2019-10-02T10:57:22Z</time><name>PT3762</name></trkpt>
<trkpt lat="54.594893" lon="-3.226756"><ele>529</ele><time>2019-10-02T10:57:23Z</time><name>PT3763</name></trkpt>
<trkpt lat="54.594890" lon="-3.226763"><ele>529</ele><time>2019-10-02T10:57:24Z</time><name>PT3764</name></trkpt>
<trkpt lat="54.594885" lon="-3.226772"><ele>529</ele><time>2019-10-02T10:57:25Z</time><name>PT3765</name></trkpt>
<trkpt lat="54.594880" lon="-3.226780"><ele>529</ele><time>2019-10-02T10:57:26Z</time><name>PT3766</name></trkpt>
<trkpt lat="54.594875" lon="-3.226790"><ele>529</ele><time>2019-10-02T10:57:27Z</time><name>PT3767</name></trkpt>
<trkpt lat="54.594870" lon="-3.226802"><ele>530</ele><time>2019-10-02T10:57:28Z</time><name>PT3768</name></trkpt>
<trkpt lat="54.594862" lon="-3.226813"><ele>530</ele><time>2019-10-02T10:57:29Z</time><name>PT3769</name></trkpt>
<trkpt lat="54.594856" lon="-3.226824"><ele>530</ele><time>2019-10-02T10:57:30Z</time><name>PT3770</name></trkpt>
<trkpt lat="54.594853" lon="-3.226836"><ele>530</ele><time>2019-10-02T10:57:31Z</time><name>PT3771</name></trkpt>
<trkpt lat="54.594850" lon="-3.226848"><ele>530</ele><time>2019-10-02T10:57:32Z</time><name>PT3772</name></trkpt>
<trkpt lat="54.594845" lon="-3.226858"><ele>531</ele><time>2019-10-02T10:57:33Z</time><name>PT3773</name></trkpt>
<trkpt lat="54.594841" lon="-3.226869"><ele>531</ele><time>2019-10-02T10:57:34Z</time><name>PT3774</name></trkpt>
<trkpt lat="54.594836" lon="-3.226878"><ele>531</ele><time>2019-10-02T10:57:35Z</time><name>PT3775</name></trkpt>
<trkpt lat="54.594831" lon="-3.226884"><ele>531</ele><time>2019-10-02T10:57:36Z</time><name>PT3776</name></trkpt>
<trkpt lat="54.594827" lon="-3.226893"><ele>532</ele><time>2019-10-02T10:57:37Z</time><name>PT3777</name></trkpt>
<trkpt lat="54.594823" lon="-3.226903"><ele>531</ele><time>2019-10-02T10:57:38Z</time><name>PT3778</name></trkpt>
<trkpt lat="54.594819" lon="-3.226911"><ele>532</ele><time>2019-10-02T10:57:39Z</time><name>PT3779</name></trkpt>
<trkpt lat="54.594814" lon="-3.226921"><ele>532</ele><time>2019-10-02T10:57:40Z</time><name>PT3780</name></trkpt>
<trkpt lat="54.594809" lon="-3.226933"><ele>532</ele><time>2019-10-02T10:57:41Z</time><name>PT3781</name></trkpt>
<trkpt lat="54.594805" lon="-3.226938"><ele>533</ele><time>2019-10-02T10:57:42Z</time><name>PT3782</name></trkpt>
<trkpt lat="54.594801" lon="-3.226947"><ele>533</ele><time>2019-10-02T10:57:43Z</time><name>PT3783</name></trkpt>
<trkpt lat="54.594800" lon="-3.226958"><ele>533</ele><time>2019-10-02T10:57:44Z</time><name>PT3784</name></trkpt>
<trkpt lat="54.594798" lon="-3.226968"><ele>533</ele><time>2019-10-02T10:57:45Z</time><name>PT3785</name></trkpt>
<trkpt lat="54.594795" lon="-3.226977"><ele>533</ele><time>2019-10-02T10:57:46Z</time><name>PT3786</name></trkpt>
<trkpt lat="54.594792" lon="-3.226989"><ele>533</ele><time>2019-10-02T10:57:47Z</time><name>PT3787</name></trkpt>
<trkpt lat="54.594790" lon="-3.226998"><ele>534</ele><time>2019-10-02T10:57:48Z</time><name>PT3788</name></trkpt>
<trkpt lat="54.594789" lon="-3.227006"><ele>534</ele><time>2019-10-02T10:57:49Z</time><name>PT3789</name></trkpt>
<trkpt lat="54.594788" lon="-3.227013"><ele>535</ele><time>2019-10-02T10:57:50Z</time><name>PT3790</name></trkpt>
<trkpt lat="54.594784" lon="-3.227022"><ele>535</ele><time>2019-10-02T10:57:51Z</time><name>PT3791</name></trkpt>
<trkpt lat="54.594781" lon="-3.227030"><ele>535</ele><time>2019-10-02T10:57:52Z</time><name>PT3792</name></trkpt>
<trkpt lat="54.594777" lon="-3.227036"><ele>535</ele><time>2019-10-02T10:57:53Z</time><name>PT3793</name></trkpt>
<trkpt lat="54.594777" lon="-3.227042"><ele>535</ele><time>2019-10-02T10:57:54Z</time><name>PT3794</name></trkpt>
<trkpt lat="54.594779" lon="-3.227048"><ele>535</ele><time>2019-10-02T10:57:55Z</time><name>PT3795</name></trkpt>
<trkpt lat="54.594779" lon="-3.227055"><ele>536</ele><time>2019-10-02T10:57:56Z</time><name>PT3796</name></trkpt>
<trkpt lat="54.594780" lon="-3.227065"><ele>536</ele><time>2019-10-02T10:57:57Z</time><name>PT3797</name></trkpt>
<trkpt lat="54.594777" lon="-3.227076"><ele>536</ele><time>2019-10-02T10:57:58Z</time><name>PT3798</name></trkpt>
<trkpt lat="54.594772" lon="-3.227087"><ele>537</ele><time>2019-10-02T10:57:59Z</time><name>PT3799</name></trkpt>
<trkpt lat="54.594769" lon="-3.227099"><ele>537</ele><time>2019-10-02T10:58:00Z</time><name>PT3800</name></trkpt>
<trkpt lat="54.594765" lon="-3.227110"><ele>537</ele><time>2019-10-02T10:58:01Z</time><name>PT3801</name></trkpt>
<trkpt lat="54.594763" lon="-3.227120"><ele>537</ele><time>2019-10-02T10:58:02Z</time><name>PT3802</name></trkpt>
<trkpt lat="54.594761" lon="-3.227130"><ele>537</ele><time>2019-10-02T10:58:03Z</time><name>PT3803</name></trkpt>
<trkpt lat="54.594760" lon="-3.227142"><ele>538</ele><time>2019-10-02T10:58:04Z</time><name>PT3804</name></trkpt>
<trkpt lat="54.594758" lon="-3.227152"><ele>538</ele><time>2019-10-02T10:58:05Z</time><name>PT3805</name></trkpt>
<trkpt lat="54.594756" lon="-3.227163"><ele>538</ele><time>2019-10-02T10:58:06Z</time><name>PT3806</name></trkpt>
<trkpt lat="54.594756" lon="-3.227179"><ele>538</ele><time>2019-10-02T10:58:07Z</time><name>PT3807</name></trkpt>
<trkpt lat="54.594753" lon="-3.227190"><ele>538</ele><time>2019-10-02T10:58:08Z</time><name>PT3808</name></trkpt>
<trkpt lat="54.594750" lon="-3.227201"><ele>538</ele><time>2019-10-02T10:58:09Z</time><name>PT3809</name></trkpt>
<trkpt lat="54.594750" lon="-3.227214"><ele>539</ele><time>2019-10-02T10:58:10Z</time><name>PT3810</name></trkpt>
<trkpt lat="54.594749" lon="-3.227226"><ele>538</ele><time>2019-10-02T10:58:11Z</time><name>PT3811</name></trkpt>
<trkpt lat="54.594747" lon="-3.227240"><ele>539</ele><time>2019-10-02T10:58:12Z</time><name>PT3812</name></trkpt>
<trkpt lat="54.594744" lon="-3.227253"><ele>539</ele><time>2019-10-02T10:58:13Z</time><name>PT3813</name></trkpt>
<trkpt lat="54.594741" lon="-3.227261"><ele>539</ele><time>2019-10-02T10:58:14Z</time><name>PT3814</name></trkpt>
<trkpt lat="54.594741" lon="-3.227271"><ele>539</ele><time>2019-10-02T10:58:15Z</time><name>PT3815</name></trkpt>
<trkpt lat="54.594742" lon="-3.227280"><ele>540</ele><time>2019-10-02T10:58:16Z</time><name>PT3816</name></trkpt>
<trkpt lat="54.594740" lon="-3.227291"><ele>540</ele><time>2019-10-02T10:58:17Z</time><name>PT3817</name></trkpt>
<trkpt lat="54.594738" lon="-3.227303"><ele>540</ele><time>2019-10-02T10:58:18Z</time><name>PT3818</name></trkpt>
<trkpt lat="54.594737" lon="-3.227314"><ele>540</ele><time>2019-10-02T10:58:19Z</time><name>PT3819</name></trkpt>
<trkpt lat="54.594736" lon="-3.227325"><ele>541</ele><time>2019-10-02T10:58:20Z</time><name>PT3820</name></trkpt>
<trkpt lat="54.594737" lon="-3.227337"><ele>541</ele><time>2019-10-02T10:58:21Z</time><name>PT3821</name></trkpt>
<trkpt lat="54.594735" lon="-3.227347"><ele>542</ele><time>2019-10-02T10:58:22Z</time><name>PT3822</name></trkpt>
<trkpt lat="54.594731" lon="-3.227359"><ele>542</ele><time>2019-10-02T10:58:23Z</time><name>PT3823</name></trkpt>
<trkpt lat="54.594728" lon="-3.227373"><ele>542</ele><time>2019-10-02T10:58:24Z</time><name>PT3824</name></trkpt>
<trkpt lat="54.594725" lon="-3.227386"><ele>542</ele><time>2019-10-02T10:58:25Z</time><name>PT3825</name></trkpt>
<trkpt lat="54.594721" lon="-3.227399"><ele>542</ele><time>2019-10-02T10:58:26Z</time><name>PT3826</name></trkpt>
<trkpt lat="54.594719" lon="-3.227412"><ele>542</ele><time>2019-10-02T10:58:27Z</time><name>PT3827</name></trkpt>
<trkpt lat="54.594714" lon="-3.227425"><ele>542</ele><time>2019-10-02T10:58:28Z</time><name>PT3828</name></trkpt>
<trkpt lat="54.594709" lon="-3.227436"><ele>542</ele><time>2019-10-02T10:58:29Z</time><name>PT3829</name></trkpt>
<trkpt lat="54.594707" lon="-3.227445"><ele>542</ele><time>2019-10-02T10:58:30Z</time><name>PT3830</name></trkpt>
<trkpt lat="54.594708" lon="-3.227455"><ele>543</ele><time>2019-10-02T10:58:31Z</time><name>PT3831</name></trkpt>
<trkpt lat="54.594706" lon="-3.227465"><ele>543</ele><time>2019-10-02T10:58:32Z</time><name>PT3832</name></trkpt>
<trkpt lat="54.594702" lon="-3.227476"><ele>543</ele><time>2019-10-02T10:58:33Z</time><name>PT3833</name></trkpt>
<trkpt lat="54.594700" lon="-3.227489"><ele>544</ele><time>2019-10-02T10:58:34Z</time><name>PT3834</name></trkpt>
<trkpt lat="54.594698" lon="-3.227502"><ele>544</ele><time>2019-10-02T10:58:35Z</time><name>PT3835</name></trkpt>
<trkpt lat="54.594694" lon="-3.227518"><ele>544</ele><time>2019-10-02T10:58:36Z</time><name>PT3836</name></trkpt>
<trkpt lat="54.594691" lon="-3.227533"><ele>544</ele><time>2019-10-02T10:58:37Z</time><name>PT3837</name></trkpt>
<trkpt lat="54.594691" lon="-3.227548"><ele>545</ele><time>2019-10-02T10:58:38Z</time><name>PT3838</name></trkpt>
<trkpt lat="54.594690" lon="-3.227561"><ele>545</ele><time>2019-10-02T10:58:39Z</time><name>PT3839</name></trkpt>
<trkpt lat="54.594688" lon="-3.227572"><ele>545</ele><time>2019-10-02T10:58:40Z</time><name>PT3840</name></trkpt>
<trkpt lat="54.594689" lon="-3.227584"><ele>546</ele><time>2019-10-02T10:58:41Z</time><name>PT3841</name></trkpt>
<trkpt lat="54.594689" lon="-3.227593"><ele>546</ele><time>2019-10-02T10:58:42Z</time><name>PT3842</name></trkpt>
<trkpt lat="54.594688" lon="-3.227605"><ele>546</ele><time>2019-10-02T10:58:43Z</time><name>PT3843</name></trkpt>
<trkpt lat="54.594687" lon="-3.227618"><ele>546</ele><time>2019-10-02T10:58:44Z</time><name>PT3844</name></trkpt>
<trkpt lat="54.594687" lon="-3.227633"><ele>546</ele><time>2019-10-02T10:58:45Z</time><name>PT3845</name></trkpt>
<trkpt lat="54.594687" lon="-3.227647"><ele>546</ele><time>2019-10-02T10:58:46Z</time><name>PT3846</name></trkpt>
<trkpt lat="54.594685" lon="-3.227664"><ele>546</ele><time>2019-10-02T10:58:47Z</time><name>PT3847</name></trkpt>
<trkpt lat="54.594684" lon="-3.227678"><ele>546</ele><time>2019-10-02T10:58:48Z</time><name>PT3848</name></trkpt>
<trkpt lat="54.594686" lon="-3.227692"><ele>547</ele><time>2019-10-02T10:58:49Z</time><name>PT3849</name></trkpt>
<trkpt lat="54.594687" lon="-3.227705"><ele>547</ele><time>2019-10-02T10:58:50Z</time><name>PT3850</name></trkpt>
<trkpt lat="54.594687" lon="-3.227718"><ele>547</ele><time>2019-10-02T10:58:51Z</time><name>PT3851</name></trkpt>
<trkpt lat="54.594689" lon="-3.227733"><ele>548</ele><time>2019-10-02T10:58:52Z</time><name>PT3852</name></trkpt>
<trkpt lat="54.594688" lon="-3.227747"><ele>548</ele><time>2019-10-02T10:58:53Z</time><name>PT3853</name></trkpt>
<trkpt lat="54.594685" lon="-3.227761"><ele>548</ele><time>2019-10-02T10:58:54Z</time><name>PT3854</name></trkpt>
<trkpt lat="54.594682" lon="-3.227774"><ele>548</ele><time>2019-10-02T10:58:55Z</time><name>PT3855</name></trkpt>
<trkpt lat="54.594680" lon="-3.227790"><ele>548</ele><time>2019-10-02T10:58:56Z</time><name>PT3856</name></trkpt>
<trkpt lat="54.594677" lon="-3.227803"><ele>548</ele><time>2019-10-02T10:58:57Z</time><name>PT3857</name></trkpt>
<trkpt lat="54.594673" lon="-3.227817"><ele>549</ele><time>2019-10-02T10:58:58Z</time><name>PT3858</name></trkpt>
<trkpt lat="54.594672" lon="-3.227833"><ele>549</ele><time>2019-10-02T10:58:59Z</time><name>PT3859</name></trkpt>
<trkpt lat="54.594673" lon="-3.227848"><ele>549</ele><time>2019-10-02T10:59:00Z</time><name>PT3860</name></trkpt>
<trkpt lat="54.594672" lon="-3.227861"><ele>550</ele><time>2019-10-02T10:59:01Z</time><name>PT3861</name></trkpt>
<trkpt lat="54.594668" lon="-3.227875"><ele>550</ele><time>2019-10-02T10:59:02Z</time><name>PT3862</name></trkpt>
<trkpt lat="54.594666" lon="-3.227888"><ele>550</ele><time>2019-10-02T10:59:03Z</time><name>PT3863</name></trkpt>
<trkpt lat="54.594666" lon="-3.227901"><ele>550</ele><time>2019-10-02T10:59:04Z</time><name>PT3864</name></trkpt>
<trkpt lat="54.594664" lon="-3.227914"><ele>550</ele><time>2019-10-02T10:59:05Z</time><name>PT3865</name></trkpt>
<trkpt lat="54.594661" lon="-3.227926"><ele>550</ele><time>2019-10-02T10:59:06Z</time><name>PT3866</name></trkpt>
<trkpt lat="54.594657" lon="-3.227939"><ele>551</ele><time>2019-10-02T10:59:07Z</time><name>PT3867</name></trkpt>
<trkpt lat="54.594653" lon="-3.227953"><ele>551</ele><time>2019-10-02T10:59:08Z</time><name>PT3868</name></trkpt>
<trkpt lat="54.594647" lon="-3.227964"><ele>551</ele><time>2019-10-02T10:59:09Z</time><name>PT3869</name></trkpt>
<trkpt lat="54.594642" lon="-3.227975"><ele>551</ele><time>2019-10-02T10:59:10Z</time><name>PT3870</name></trkpt>
<trkpt lat="54.594638" lon="-3.227990"><ele>551</ele><time>2019-10-02T10:59:11Z</time><name>PT3871</name></trkpt>
<trkpt lat="54.594634" lon="-3.228003"><ele>551</ele><time>2019-10-02T10:59:12Z</time><name>PT3872</name></trkpt>
<trkpt lat="54.594629" lon="-3.228016"><ele>551</ele><time>2019-10-02T10:59:13Z</time><name>PT3873</name></trkpt>
<trkpt lat="54.594622" lon="-3.228030"><ele>552</ele><time>2019-10-02T10:59:14Z</time><name>PT3874</name></trkpt>
<trkpt lat="54.594615" lon="-3.228042"><ele>552</ele><time>2019-10-02T10:59:15Z</time><name>PT3875</name></trkpt>
<trkpt lat="54.594608" lon="-3.228049"><ele>552</ele><time>2019-10-02T10:59:16Z</time><name>PT3876</name></trkpt>
<trkpt lat="54.594599" lon="-3.228053"><ele>552</ele><time>2019-10-02T10:59:17Z</time><name>PT3877</name></trkpt>
<trkpt lat="54.594592" lon="-3.228058"><ele>553</ele><time>2019-10-02T10:59:18Z</time><name>PT3878</name></trkpt>
<trkpt lat="54.594585" lon="-3.228064"><ele>553</ele><time>2019-10-02T10:59:19Z</time><name>PT3879</name></trkpt>
<trkpt lat="54.594577" lon="-3.228070"><ele>553</ele><time>2019-10-02T10:59:20Z</time><name>PT3880</name></trkpt>
<trkpt lat="54.594570" lon="-3.228076"><ele>553</ele><time>2019-10-02T10:59:21Z</time><name>PT3881</name></trkpt>
<trkpt lat="54.594565" lon="-3.228086"><ele>553</ele><time>2019-10-02T10:59:22Z</time><name>PT3882</name></trkpt>
<trkpt lat="54.594559" lon="-3.228095"><ele>553</ele><time>2019-10-02T10:59:23Z</time><name>PT3883</name></trkpt>
<trkpt lat="54.594554" lon="-3.228104"><ele>554</ele><time>2019-10-02T10:59:24Z</time><name>PT3884</name></trkpt>
<trkpt lat="54.594550" lon="-3.228113"><ele>554</ele><time>2019-10-02T10:59:25Z</time><name>PT3885</name></trkpt>
<trkpt lat="54.594548" lon="-3.228124"><ele>554</ele><time>2019-10-02T10:59:26Z</time><name>PT3886</name></trkpt>
<trkpt lat="54.594544" lon="-3.228133"><ele>554</ele><time>2019-10-02T10:59:27Z</time><name>PT3887</name></trkpt>
<trkpt lat="54.594541" lon="-3.228143"><ele>554</ele><time>2019-10-02T10:59:28Z</time><name>PT3888</name></trkpt>
<trkpt lat="54.594538" lon="-3.228151"><ele>554</ele><time>2019-10-02T10:59:29Z</time><name>PT3889</name></trkpt>
<trkpt lat="54.594532" lon="-3.228152"><ele>554</ele><time>2019-10-02T10:59:30Z</time><name>PT3890</name></trkpt>
<trkpt lat="54.594528" lon="-3.228155"><ele>554</ele><time>2019-10-02T10:59:31Z</time><name>PT3891</name></trkpt>
<trkpt lat="54.594524" lon="-3.228163"><ele>554</ele><time>2019-10-02T10:59:32Z</time><name>PT3892</name></trkpt>
<trkpt lat="54.594521" lon="-3.228170"><ele>554</ele><time>2019-10-02T10:59:33Z</time><name>PT3893</name></trkpt>
<trkpt lat="54.594519" lon="-3.228179"><ele>554</ele><time>2019-10-02T10:59:34Z</time><name>PT3894</name></trkpt>
<trkpt lat="54.594517" lon="-3.228193"><ele>555</ele><time>2019-10-02T10:59:35Z</time><name>PT3895</name></trkpt>
<trkpt lat="54.594516" lon="-3.228206"><ele>555</ele><time>2019-10-02T10:59:36Z</time><name>PT3896</name></trkpt>
<trkpt lat="54.594513" lon="-3.228215"><ele>555</ele><time>2019-10-02T10:59:37Z</time><name>PT3897</name></trkpt>
<trkpt lat="54.594510" lon="-3.228223"><ele>555</ele><time>2019-10-02T10:59:38Z</time><name>PT3898</name></trkpt>
<trkpt lat="54.594506" lon="-3.228236"><ele>555</ele><time>2019-10-02T10:59:39Z</time><name>PT3899</name></trkpt>
<trkpt lat="54.594502" lon="-3.228246"><ele>555</ele><time>2019-10-02T10:59:40Z</time><name>PT3900</name></trkpt>
<trkpt lat="54.594495" lon="-3.228254"><ele>555</ele><time>2019-10-02T10:59:41Z</time><name>PT3901</name></trkpt>
<trkpt lat="54.594489" lon="-3.228265"><ele>555</ele><time>2019-10-02T10:59:42Z</time><name>PT3902</name></trkpt>
<trkpt lat="54.594484" lon="-3.228270"><ele>555</ele><time>2019-10-02T10:59:43Z</time><name>PT3903</name></trkpt>
<trkpt lat="54.594477" lon="-3.228275"><ele>556</ele><time>2019-10-02T10:59:44Z</time><name>PT3904</name></trkpt>
<trkpt lat="54.594471" lon="-3.228280"><ele>556</ele><time>2019-10-02T10:59:45Z</time><name>PT3905</name></trkpt>
<trkpt lat="54.594464" lon="-3.228284"><ele>556</ele><time>2019-10-02T10:59:46Z</time><name>PT3906</name></trkpt>
<trkpt lat="54.594458" lon="-3.228292"><ele>556</ele><time>2019-10-02T10:59:47Z</time><name>PT3907</name></trkpt>
<trkpt lat="54.594456" lon="-3.228305"><ele>556</ele><time>2019-10-02T10:59:48Z</time><name>PT3908</name></trkpt>
<trkpt lat="54.594454" lon="-3.228314"><ele>557</ele><time>2019-10-02T10:59:49Z</time><name>PT3909</name></trkpt>
<trkpt lat="54.594449" lon="-3.228322"><ele>557</ele><time>2019-10-02T10:59:50Z</time><name>PT3910</name></trkpt>
<trkpt lat="54.594442" lon="-3.228330"><ele>557</ele><time>2019-10-02T10:59:51Z</time><name>PT3911</name></trkpt>
<trkpt lat="54.594434" lon="-3.228334"><ele>557</ele><time>2019-10-02T10:59:52Z</time><name>PT3912</name></trkpt>
<trkpt lat="54.594427" lon="-3.228335"><ele>557</ele><time>2019-10-02T10:59:53Z</time><name>PT3913</name></trkpt>
<trkpt lat="54.594421" lon="-3.228338"><ele>557</ele><time>2019-10-02T10:59:54Z</time><name>PT3914</name></trkpt>
<trkpt lat="54.594415" lon="-3.228344"><ele>557</ele><time>2019-10-02T10:59:55Z</time><name>PT3915</name></trkpt>
<trkpt lat="54.594408" lon="-3.228351"><ele>557</ele><time>2019-10-02T10:59:56Z</time><name>PT3916</name></trkpt>
<trkpt lat="54.594403" lon="-3.228358"><ele>558</ele><time>2019-10-02T10:59:57Z</time><name>PT3917</name></trkpt>
<trkpt lat="54.594397" lon="-3.228359"><ele>558</ele><time>2019-10-02T10:59:58Z</time><name>PT3918</name></trkpt>
<trkpt lat="54.594390" lon="-3.228364"><ele>558</ele><time>2019-10-02T10:59:59Z</time><name>PT3919</name></trkpt>
<trkpt lat="54.594381" lon="-3.228374"><ele>558</ele><time>2019-10-02T11:00:00Z</time><name>PT3920</name></trkpt>
<trkpt lat="54.594375" lon="-3.228382"><ele>558</ele><time>2019-10-02T11:00:01Z</time><name>PT3921</name></trkpt>
<trkpt lat="54.594367" lon="-3.228393"><ele>558</ele><time>2019-10-02T11:00:02Z</time><name>PT3922</name></trkpt>
<trkpt lat="54.594361" lon="-3.228405"><ele>559</ele><time>2019-10-02T11:00:03Z</time><name>PT3923</name></trkpt>
<trkpt lat="54.594354" lon="-3.228417"><ele>559</ele><time>2019-10-02T11:00:04Z</time><name>PT3924</name></trkpt>
<trkpt lat="54.594347" lon="-3.228431"><ele>559</ele><time>2019-10-02T11:00:05Z</time><name>PT3925</name></trkpt>
<trkpt lat="54.594338" lon="-3.228442"><ele>559</ele><time>2019-10-02T11:00:06Z</time><name>PT3926</name></trkpt>
<trkpt lat="54.594331" lon="-3.228455"><ele>559</ele><time>2019-10-02T11:00:07Z</time><name>PT3927</name></trkpt>
<trkpt lat="54.594324" lon="-3.228468"><ele>559</ele><time>2019-10-02T11:00:08Z</time><name>PT3928</name></trkpt>
<trkpt lat="54.594318" lon="-3.228480"><ele>559</ele><time>2019-10-02T11:00:09Z</time><name>PT3929</name></trkpt>
<trkpt lat="54.594314" lon="-3.228496"><ele>559</ele><time>2019-10-02T11:00:10Z</time><name>PT3930</name></trkpt>
<trkpt lat="54.594309" lon="-3.228508"><ele>560</ele><time>2019-10-02T11:00:11Z</time><name>PT3931</name></trkpt>
<trkpt lat="54.594303" lon="-3.228519"><ele>560</ele><time>2019-10-02T11:00:12Z</time><name>PT3932</name></trkpt>
<trkpt lat="54.594297" lon="-3.228535"><ele>560</ele><time>2019-10-02T11:00:13Z</time><name>PT3933</name></trkpt>
<trkpt lat="54.594290" lon="-3.228549"><ele>560</ele><time>2019-10-02T11:00:14Z</time><name>PT3934</name></trkpt>
<trkpt lat="54.594281" lon="-3.228558"><ele>560</ele><time>2019-10-02T11:00:15Z</time><name>PT3935</name></trkpt>
<trkpt lat="54.594273" lon="-3.228567"><ele>560</ele><time>2019-10-02T11:00:16Z</time><name>PT3936</name></trkpt>
<trkpt lat="54.594266" lon="-3.228578"><ele>560</ele><time>2019-10-02T11:00:17Z</time><name>PT3937</name></trkpt>
<trkpt lat="54.594256" lon="-3.228588"><ele>559</ele><time>2019-10-02T11:00:18Z</time><name>PT3938</name></trkpt>
<trkpt lat="54.594246" lon="-3.228599"><ele>559</ele><time>2019-10-02T11:00:19Z</time><name>PT3939</name></trkpt>
<trkpt lat="54.594237" lon="-3.228614"><ele>558</ele><time>2019-10-02T11:00:20Z</time><name>PT3940</name></trkpt>
<trkpt lat="54.594230" lon="-3.228627"><ele>558</ele><time>2019-10-02T11:00:21Z</time><name>PT3941</name></trkpt>
<trkpt lat="54.594227" lon="-3.228643"><ele>558</ele><time>2019-10-02T11:00:22Z</time><name>PT3942</name></trkpt>
<trkpt lat="54.594225" lon="-3.228665"><ele>558</ele><time>2019-10-02T11:00:23Z</time><name>PT3943</name></trkpt>
<trkpt lat="54.594223" lon="-3.228683"><ele>558</ele><time>2019-10-02T11:00:24Z</time><name>PT3944</name></trkpt>
<trkpt lat="54.594220" lon="-3.228704"><ele>558</ele><time>2019-10-02T11:00:25Z</time><name>PT3945</name></trkpt>
<trkpt lat="54.594216" lon="-3.228723"><ele>558</ele><time>2019-10-02T11:00:26Z</time><name>PT3946</name></trkpt>
<trkpt lat="54.594211" lon="-3.228742"><ele>558</ele><time>2019-10-02T11:00:27Z</time><name>PT3947</name></trkpt>
<trkpt lat="54.594205" lon="-3.228762"><ele>558</ele><time>2019-10-02T11:00:28Z</time><name>PT3948</name></trkpt>
<trkpt lat="54.594203" lon="-3.228779"><ele>558</ele><time>2019-10-02T11:00:29Z</time><name>PT3949</name></trkpt>
<trkpt lat="54.594199" lon="-3.228799"><ele>558</ele><time>2019-10-02T11:00:30Z</time><name>PT3950</name></trkpt>
<trkpt lat="54.594192" lon="-3.228818"><ele>558</ele><time>2019-10-02T11:00:31Z</time><name>PT3951</name></trkpt>
<trkpt lat="54.594185" lon="-3.228835"><ele>558</ele><time>2019-10-02T11:00:32Z</time><name>PT3952</name></trkpt>
<trkpt lat="54.594179" lon="-3.228854"><ele>559</ele><time>2019-10-02T11:00:33Z</time><name>PT3953</name></trkpt>
<trkpt lat="54.594171" lon="-3.228875"><ele>558</ele><time>2019-10-02T11:00:34Z</time><name>PT3954</name></trkpt>
<trkpt lat="54.594165" lon="-3.228890"><ele>559</ele><time>2019-10-02T11:00:35Z</time><name>PT3955</name></trkpt>
<trkpt lat="54.594153" lon="-3.228898"><ele>559</ele><time>2019-10-02T11:00:36Z</time><name>PT3956</name></trkpt>
<trkpt lat="54.594145" lon="-3.228907"><ele>558</ele><time>2019-10-02T11:00:37Z</time><name>PT3957</name></trkpt>
<trkpt lat="54.594141" lon="-3.228924"><ele>558</ele><time>2019-10-02T11:00:38Z</time><name>PT3958</name></trkpt>
<trkpt lat="54.594136" lon="-3.228945"><ele>558</ele><time>2019-10-02T11:00:39Z</time><name>PT3959</name></trkpt>
<trkpt lat="54.594130" lon="-3.228963"><ele>558</ele><time>2019-10-02T11:00:40Z</time><name>PT3960</name></trkpt>
<trkpt lat="54.594122" lon="-3.228979"><ele>558</ele><time>2019-10-02T11:00:41Z</time><name>PT3961</name></trkpt>
<trkpt lat="54.594115" lon="-3.228994"><ele>558</ele><time>2019-10-02T11:00:42Z</time><name>PT3962</name></trkpt>
<trkpt lat="54.594109" lon="-3.229008"><ele>558</ele><time>2019-10-02T11:00:43Z</time><name>PT3963</name></trkpt>
<trkpt lat="54.594101" lon="-3.229025"><ele>559</ele><time>2019-10-02T11:00:44Z</time><name>PT3964</name></trkpt>
<trkpt lat="54.594094" lon="-3.229037"><ele>559</ele><time>2019-10-02T11:00:45Z</time><name>PT3965</name></trkpt>
<trkpt lat="54.594085" lon="-3.229051"><ele>559</ele><time>2019-10-02T11:00:46Z</time><name>PT3966</name></trkpt>
<trkpt lat="54.594075" lon="-3.229061"><ele>559</ele><time>2019-10-02T11:00:47Z</time><name>PT3967</name></trkpt>
<trkpt lat="54.594066" lon="-3.229073"><ele>559</ele><time>2019-10-02T11:00:48Z</time><name>PT3968</name></trkpt>
<trkpt lat="54.594057" lon="-3.229085"><ele>559</ele><time>2019-10-02T11:00:49Z</time><name>PT3969</name></trkpt>
<trkpt lat="54.594050" lon="-3.229094"><ele>559</ele><time>2019-10-02T11:00:50Z</time><name>PT3970</name></trkpt>
<trkpt lat="54.594044" lon="-3.229105"><ele>559</ele><time>2019-10-02T11:00:51Z</time><name>PT3971</name></trkpt>
<trkpt lat="54.594037" lon="-3.229115"><ele>559</ele><time>2019-10-02T11:00:52Z</time><name>PT3972</name></trkpt>
<trkpt lat="54.594031" lon="-3.229131"><ele>560</ele><time>2019-10-02T11:00:53Z</time><name>PT3973</name></trkpt>
<trkpt lat="54.594024" lon="-3.229146"><ele>559</ele><time>2019-10-02T11:00:54Z</time><name>PT3974</name></trkpt>
<trkpt lat="54.594017" lon="-3.229161"><ele>560</ele><time>2019-10-02T11:00:55Z</time><name>PT3975</name></trkpt>
<trkpt lat="54.594008" lon="-3.229172"><ele>560</ele><time>2019-10-02T11:00:56Z</time><name>PT3976</name></trkpt>
<trkpt lat="54.594000" lon="-3.229183"><ele>560</ele><time>2019-10-02T11:00:57Z</time><name>PT3977</name></trkpt>
<trkpt lat="54.593994" lon="-3.229199"><ele>560</ele><time>2019-10-02T11:00:58Z</time><name>PT3978</name></trkpt>
<trkpt lat="54.593991" lon="-3.229214"><ele>560</ele><time>2019-10-02T11:00:59Z</time><name>PT3979</name></trkpt>
<trkpt lat="54.593985" lon="-3.229227"><ele>560</ele><time>2019-10-02T11:01:00Z</time><name>PT3980</name></trkpt>
<trkpt lat="54.593976" lon="-3.229243"><ele>560</ele><time>2019-10-02T11:01:01Z</time><name>PT3981</name></trkpt>
<trkpt lat="54.593970" lon="-3.229259"><ele>560</ele><time>2019-10-02T11:01:02Z</time><name>PT3982</name></trkpt>
<trkpt lat="54.593964" lon="-3.229275"><ele>560</ele><time>2019-10-02T11:01:03Z</time><name>PT3983</name></trkpt>
<trkpt lat="54.593957" lon="-3.229292"><ele>560</ele><time>2019-10-02T11:01:04Z</time><name>PT3984</name></trkpt>
<trkpt lat="54.593951" lon="-3.229305"><ele>561</ele><time>2019-10-02T11:01:05Z</time><name>PT3985</name></trkpt>
<trkpt lat="54.593943" lon="-3.229321"><ele>561</ele><time>2019-10-02T11:01:06Z</time><name>PT3986</name></trkpt>
<trkpt lat="54.593936" lon="-3.229335"><ele>561</ele><time>2019-10-02T11:01:07Z</time><name>PT3987</name></trkpt>
<trkpt lat="54.593929" lon="-3.229352"><ele>561</ele><time>2019-10-02T11:01:08Z</time><name>PT3988</name></trkpt>
<trkpt lat="54.593921" lon="-3.229369"><ele>561</ele><time>2019-10-02T11:01:09Z</time><name>PT3989</name></trkpt>
<trkpt lat="54.593914" lon="-3.229382"><ele>561</ele><time>2019-10-02T11:01:10Z</time><name>PT3990</name></trkpt>
<trkpt lat="54.593906" lon="-3.229398"><ele>561</ele><time>2019-10-02T11:01:11Z</time><name>PT3991</name></trkpt>
<trkpt lat="54.593900" lon="-3.229413"><ele>561</ele><time>2019-10-02T11:01:12Z</time><name>PT3992</name></trkpt>
<trkpt lat="54.593898" lon="-3.229431"><ele>562</ele><time>2019-10-02T11:01:13Z</time><name>PT3993</name></trkpt>
<trkpt lat="54.593897" lon="-3.229444"><ele>562</ele><time>2019-10-02T11:01:14Z</time><name>PT3994</name></trkpt>
<trkpt lat="54.593892" lon="-3.229458"><ele>562</ele><time>2019-10-02T11:01:15Z</time><name>PT3995</name></trkpt>
<trkpt lat="54.593886" lon="-3.229472"><ele>562</ele><time>2019-10-02T11:01:16Z</time><name>PT3996</name></trkpt>
<trkpt lat="54.593878" lon="-3.229484"><ele>562</ele><time>2019-10-02T11:01:17Z</time><name>PT3997</name></trkpt>
<trkpt lat="54.593869" lon="-3.229496"><ele>562</ele><time>2019-10-02T11:01:18Z</time><name>PT3998</name></trkpt>
<trkpt lat="54.593860" lon="-3.229510"><ele>562</ele><time>2019-10-02T11:01:19Z</time><name>PT3999</name></trkpt>
<trkpt lat="54.593851" lon="-3.229525"><ele>562</ele><time>2019-10-02T11:01:20Z</time><name>PT4000</name></trkpt>
<trkpt lat="54.593844" lon="-3.229541"><ele>562</ele><time>2019-10-02T11:01:21Z</time><name>PT4001</name></trkpt>
<trkpt lat="54.593837" lon="-3.229558"><ele>563</ele><time>2019-10-02T11:01:22Z</time><name>PT4002</name></trkpt>
<trkpt lat="54.593829" lon="-3.229572"><ele>563</ele><time>2019-10-02T11:01:23Z</time><name>PT4003</name></trkpt>
<trkpt lat="54.593821" lon="-3.229586"><ele>563</ele><time>2019-10-02T11:01:24Z</time><name>PT4004</name></trkpt>
<trkpt lat="54.593811" lon="-3.229599"><ele>563</ele><time>2019-10-02T11:01:25Z</time><name>PT4005</name></trkpt>
<trkpt lat="54.593804" lon="-3.229615"><ele>563</ele><time>2019-10-02T11:01:26Z</time><name>PT4006</name></trkpt>
<trkpt lat="54.593796" lon="-3.229631"><ele>563</ele><time>2019-10-02T11:01:27Z</time><name>PT4007</name></trkpt>
<trkpt lat="54.593788" lon="-3.229648"><ele>563</ele><time>2019-10-02T11:01:28Z</time><name>PT4008</name></trkpt>
<trkpt lat="54.593783" lon="-3.229664"><ele>563</ele><time>2019-10-02T11:01:29Z</time><name>PT4009</name></trkpt>
<trkpt lat="54.593775" lon="-3.229678"><ele>563</ele><time>2019-10-02T11:01:30Z</time><name>PT4010</name></trkpt>
<trkpt lat="54.593769" lon="-3.229693"><ele>563</ele><time>2019-10-02T11:01:31Z</time><name>PT4011</name></trkpt>
<trkpt lat="54.593765" lon="-3.229711"><ele>564</ele><time>2019-10-02T11:01:32Z</time><name>PT4012</name></trkpt>
<trkpt lat="54.593761" lon="-3.229731"><ele>564</ele><time>2019-10-02T11:01:33Z</time><name>PT4013</name></trkpt>
<trkpt lat="54.593756" lon="-3.229748"><ele>564</ele><time>2019-10-02T11:01:34Z</time><name>PT4014</name></trkpt>
<trkpt lat="54.593749" lon="-3.229761"><ele>564</ele><time>2019-10-02T11:01:35Z</time><name>PT4015</name></trkpt>
<trkpt lat="54.593741" lon="-3.229775"><ele>564</ele><time>2019-10-02T11:01:36Z</time><name>PT4016</name></trkpt>
<trkpt lat="54.593735" lon="-3.229791"><ele>564</ele><time>2019-10-02T11:01:37Z</time><name>PT4017</name></trkpt>
<trkpt lat="54.593729" lon="-3.229807"><ele>565</ele><time>2019-10-02T11:01:38Z</time><name>PT4018</name></trkpt>
<trkpt lat="54.593723" lon="-3.229820"><ele>565</ele><time>2019-10-02T11:01:39Z</time><name>PT4019</name></trkpt>
<trkpt lat="54.593717" lon="-3.229831"><ele>565</ele><time>2019-10-02T11:01:40Z</time><name>PT4020</name></trkpt>
<trkpt lat="54.593715" lon="-3.229840"><ele>565</ele><time>2019-10-02T11:01:41Z</time><name>PT4021</name></trkpt>
<trkpt lat="54.593713" lon="-3.229855"><ele>565</ele><time>2019-10-02T11:01:42Z</time><name>PT4022</name></trkpt>
<trkpt lat="54.593707" lon="-3.229871"><ele>565</ele><time>2019-10-02T11:01:43Z</time><name>PT4023</name></trkpt>
<trkpt lat="54.593702" lon="-3.229885"><ele>565</ele><time>2019-10-02T11:01:44Z</time><name>PT4024</name></trkpt>
<trkpt lat="54.593698" lon="-3.229899"><ele>565</ele><time>2019-10-02T11:01:45Z</time><name>PT4025</name></trkpt>
<trkpt lat="54.593694" lon="-3.229913"><ele>565</ele><time>2019-10-02T11:01:46Z</time><name>PT4026</name></trkpt>
<trkpt lat="54.593690" lon="-3.229927"><ele>566</ele><time>2019-10-02T11:01:47Z</time><name>PT4027</name></trkpt>
<trkpt lat="54.593684" lon="-3.229940"><ele>566</ele><time>2019-10-02T11:01:48Z</time><name>PT4028</name></trkpt>
<trkpt lat="54.593680" lon="-3.229947"><ele>566</ele><time>2019-10-02T11:01:49Z</time><name>PT4029</name></trkpt>
<trkpt lat="54.593677" lon="-3.229960"><ele>566</ele><time>2019-10-02T11:01:50Z</time><name>PT4030</name></trkpt>
<trkpt lat="54.593674" lon="-3.229974"><ele>566</ele><time>2019-10-02T11:01:51Z</time><name>PT4031</name></trkpt>
<trkpt lat="54.593671" lon="-3.229987"><ele>566</ele><time>2019-10-02T11:01:52Z</time><name>PT4032</name></trkpt>
<trkpt lat="54.593671" lon="-3.229994"><ele>566</ele><time>2019-10-02T11:01:53Z</time><name>PT4033</name></trkpt>
<trkpt lat="54.593669" lon="-3.230006"><ele>566</ele><time>2019-10-02T11:01:54Z</time><name>PT4034</name></trkpt>
<trkpt lat="54.593675" lon="-3.230019"><ele>566</ele><time>2019-10-02T11:01:55Z</time><name>PT4035</name></trkpt>
<trkpt lat="54.593683" lon="-3.230033"><ele>567</ele><time>2019-10-02T11:01:56Z</time><name>PT4036</name></trkpt>
<trkpt lat="54.593681" lon="-3.230050"><ele>567</ele><time>2019-10-02T11:01:57Z</time><name>PT4037</name></trkpt>
<trkpt lat="54.593676" lon="-3.230070"><ele>566</ele><time>2019-10-02T11:01:58Z</time><name>PT4038</name></trkpt>
<trkpt lat="54.593671" lon="-3.230088"><ele>566</ele><time>2019-10-02T11:01:59Z</time><name>PT4039</name></trkpt>
<trkpt lat="54.593670" lon="-3.230108"><ele>566</ele><time>2019-10-02T11:02:00Z</time><name>PT4040</name></trkpt>
<trkpt lat="54.593667" lon="-3.230127"><ele>566</ele><time>2019-10-02T11:02:01Z</time><name>PT4041</name></trkpt>
<trkpt lat="54.593664" lon="-3.230142"><ele>567</ele><time>2019-10-02T11:02:02Z</time><name>PT4042</name></trkpt>
<trkpt lat="54.593659" lon="-3.230155"><ele>567</ele><time>2019-10-02T11:02:03Z</time><name>PT4043</name></trkpt>
<trkpt lat="54.593657" lon="-3.230170"><ele>567</ele><time>2019-10-02T11:02:04Z</time><name>PT4044</name></trkpt>
<trkpt lat="54.593656" lon="-3.230184"><ele>568</ele><time>2019-10-02T11:02:05Z</time><name>PT4045</name></trkpt>
<trkpt lat="54.593650" lon="-3.230194"><ele>568</ele><time>2019-10-02T11:02:06Z</time><name>PT4046</name></trkpt>
<trkpt lat="54.593645" lon="-3.230206"><ele>568</ele><time>2019-10-02T11:02:07Z</time><name>PT4047</name></trkpt>
<trkpt lat="54.593638" lon="-3.230221"><ele>568</ele><time>2019-10-02T11:02:08Z</time><name>PT4048</name></trkpt>
<trkpt lat="54.593632" lon="-3.230236"><ele>569</ele><time>2019-10-02T11:02:09Z</time><name>PT4049</name></trkpt>
<trkpt lat="54.593625" lon="-3.230254"><ele>569</ele><time>2019-10-02T11:02:10Z</time><name>PT4050</name></trkpt>
<trkpt lat="54.593620" lon="-3.230273"><ele>569</ele><time>2019-10-02T11:02:11Z</time><name>PT4051</name></trkpt>
<trkpt lat="54.593615" lon="-3.230291"><ele>569</ele><time>2019-10-02T11:02:12Z</time><name>PT4052</name></trkpt>
<trkpt lat="54.593612" lon="-3.230312"><ele>569</ele><time>2019-10-02T11:02:13Z</time><name>PT4053</name></trkpt>
<trkpt lat="54.593607" lon="-3.230330"><ele>569</ele><time>2019-10-02T11:02:14Z</time><name>PT4054</name></trkpt>
<trkpt lat="54.593600" lon="-3.230347"><ele>569</ele><time>2019-10-02T11:02:15Z</time><name>PT4055</name></trkpt>
<trkpt lat="54.593597" lon="-3.230365"><ele>570</ele><time>2019-10-02T11:02:16Z</time><name>PT4056</name></trkpt>
<trkpt lat="54.593592" lon="-3.230383"><ele>570</ele><time>2019-10-02T11:02:17Z</time><name>PT4057</name></trkpt>
<trkpt lat="54.593588" lon="-3.230400"><ele>570</ele><time>2019-10-02T11:02:18Z</time><name>PT4058</name></trkpt>
<trkpt lat="54.593584" lon="-3.230413"><ele>570</ele><time>2019-10-02T11:02:19Z</time><name>PT4059</name></trkpt>
<trkpt lat="54.593580" lon="-3.230429"><ele>570</ele><time>2019-10-02T11:02:20Z</time><name>PT4060</name></trkpt>
<trkpt lat="54.593576" lon="-3.230445"><ele>570</ele><time>2019-10-02T11:02:21Z</time><name>PT4061</name></trkpt>
<trkpt lat="54.593576" lon="-3.230461"><ele>570</ele><time>2019-10-02T11:02:22Z</time><name>PT4062</name></trkpt>
<trkpt lat="54.593575" lon="-3.230478"><ele>570</ele><time>2019-10-02T11:02:23Z</time><name>PT4063</name></trkpt>
<trkpt lat="54.593573" lon="-3.230495"><ele>570</ele><time>2019-10-02T11:02:24Z</time><name>PT4064</name></trkpt>
<trkpt lat="54.593568" lon="-3.230514"><ele>570</ele><time>2019-10-02T11:02:25Z</time><name>PT4065</name></trkpt>
<trkpt lat="54.593565" lon="-3.230534"><ele>570</ele><time>2019-10-02T11:02:26Z</time><name>PT4066</name></trkpt>
<trkpt lat="54.593562" lon="-3.230554"><ele>570</ele><time>2019-10-02T11:02:27Z</time><name>PT4067</name></trkpt>
<trkpt lat="54.593559" lon="-3.230574"><ele>570</ele><time>2019-10-02T11:02:28Z</time><name>PT4068</name></trkpt>
<trkpt lat="54.593556" lon="-3.230592"><ele>571</ele><time>2019-10-02T11:02:29Z</time><name>PT4069</name></trkpt>
<trkpt lat="54.593552" lon="-3.230609"><ele>571</ele><time>2019-10-02T11:02:30Z</time><name>PT4070</name></trkpt>
<trkpt lat="54.593549" lon="-3.230626"><ele>571</ele><time>2019-10-02T11:02:31Z</time><name>PT4071</name></trkpt>
<trkpt lat="54.593545" lon="-3.230643"><ele>571</ele><time>2019-10-02T11:02:32Z</time><name>PT4072</name></trkpt>
<trkpt lat="54.593539" lon="-3.230659"><ele>571</ele><time>2019-10-02T11:02:33Z</time><name>PT4073</name></trkpt>
<trkpt lat="54.593534" lon="-3.230670"><ele>571</ele><time>2019-10-02T11:02:34Z</time><name>PT4074</name></trkpt>
<trkpt lat="54.593526" lon="-3.230682"><ele>571</ele><time>2019-10-02T11:02:35Z</time><name>PT4075</name></trkpt>
<trkpt lat="54.593521" lon="-3.230700"><ele>571</ele><time>2019-10-02T11:02:36Z</time><name>PT4076</name></trkpt>
<trkpt lat="54.593519" lon="-3.230719"><ele>571</ele><time>2019-10-02T11:02:37Z</time><name>PT4077</name></trkpt>
<trkpt lat="54.593514" lon="-3.230736"><ele>571</ele><time>2019-10-02T11:02:38Z</time><name>PT4078</name></trkpt>
<trkpt lat="54.593507" lon="-3.230753"><ele>571</ele><time>2019-10-02T11:02:39Z</time><name>PT4079</name></trkpt>
<trkpt lat="54.593500" lon="-3.230768"><ele>571</ele><time>2019-10-02T11:02:40Z</time><name>PT4080</name></trkpt>
<trkpt lat="54.593493" lon="-3.230783"><ele>571</ele><time>2019-10-02T11:02:41Z</time><name>PT4081</name></trkpt>
<trkpt lat="54.593486" lon="-3.230799"><ele>571</ele><time>2019-10-02T11:02:42Z</time><name>PT4082</name></trkpt>
<trkpt lat="54.593481" lon="-3.230812"><ele>571</ele><time>2019-10-02T11:02:43Z</time><name>PT4083</name></trkpt>
<trkpt lat="54.593476" lon="-3.230825"><ele>571</ele><time>2019-10-02T11:02:44Z</time><name>PT4084</name></trkpt>
<trkpt lat="54.593472" lon="-3.230840"><ele>571</ele><time>2019-10-02T11:02:45Z</time><name>PT4085</name></trkpt>
<trkpt lat="54.593467" lon="-3.230859"><ele>571</ele><time>2019-10-02T11:02:46Z</time><name>PT4086</name></trkpt>
<trkpt lat="54.593466" lon="-3.230880"><ele>571</ele><time>2019-10-02T11:02:47Z</time><name>PT4087</name></trkpt>
<trkpt lat="54.593465" lon="-3.230901"><ele>570</ele><time>2019-10-02T11:02:48Z</time><name>PT4088</name></trkpt>
<trkpt lat="54.593460" lon="-3.230922"><ele>570</ele><time>2019-10-02T11:02:49Z</time><name>PT4089</name></trkpt>
<trkpt lat="54.593454" lon="-3.230941"><ele>570</ele><time>2019-10-02T11:02:50Z</time><name>PT4090</name></trkpt>
<trkpt lat="54.593447" lon="-3.230959"><ele>570</ele><time>2019-10-02T11:02:51Z</time><name>PT4091</name></trkpt>
<trkpt lat="54.593441" lon="-3.230975"><ele>571</ele><time>2019-10-02T11:02:52Z</time><name>PT4092</name></trkpt>
<trkpt lat="54.593438" lon="-3.230993"><ele>571</ele><time>2019-10-02T11:02:53Z</time><name>PT4093</name></trkpt>
<trkpt lat="54.593433" lon="-3.231009"><ele>571</ele><time>2019-10-02T11:02:54Z</time><name>PT4094</name></trkpt>
<trkpt lat="54.593424" lon="-3.231025"><ele>570</ele><time>2019-10-02T11:02:55Z</time><name>PT4095</name></trkpt>
<trkpt lat="54.593418" lon="-3.231044"><ele>570</ele><time>2019-10-02T11:02:56Z</time><name>PT4096</name></trkpt>
<trkpt lat="54.593413" lon="-3.231064"><ele>570</ele><time>2019-10-02T11:02:57Z</time><name>PT4097</name></trkpt>
<trkpt lat="54.593409" lon="-3.231080"><ele>570</ele><time>2019-10-02T11:02:58Z</time><name>PT4098</name></trkpt>
<trkpt lat="54.593406" lon="-3.231097"><ele>570</ele><time>2019-10-02T11:02:59Z</time><name>PT4099</name></trkpt>
<trkpt lat="54.593403" lon="-3.231116"><ele>570</ele><time>2019-10-02T11:03:00Z</time><name>PT4100</name></trkpt>
<trkpt lat="54.593400" lon="-3.231134"><ele>570</ele><time>2019-10-02T11:03:01Z</time><name>PT4101</name></trkpt>
<trkpt lat="54.593397" lon="-3.231152"><ele>569</ele><time>2019-10-02T11:03:02Z</time><name>PT4102</name></trkpt>
<trkpt lat="54.593392" lon="-3.231169"><ele>569</ele><time>2019-10-02T11:03:03Z</time><name>PT4103</name></trkpt>
<trkpt lat="54.593385" lon="-3.231185"><ele>569</ele><time>2019-10-02T11:03:04Z</time><name>PT4104</name></trkpt>
<trkpt lat="54.593378" lon="-3.231202"><ele>569</ele><time>2019-10-02T11:03:05Z</time><name>PT4105</name></trkpt>
<trkpt lat="54.593374" lon="-3.231220"><ele>569</ele><time>2019-10-02T11:03:06Z</time><name>PT4106</name></trkpt>
<trkpt lat="54.593370" lon="-3.231240"><ele>569</ele><time>2019-10-02T11:03:07Z</time><name>PT4107</name></trkpt>
<trkpt lat="54.593365" lon="-3.231259"><ele>569</ele><time>2019-10-02T11:03:08Z</time><name>PT4108</name></trkpt>
<trkpt lat="54.593357" lon="-3.231275"><ele>569</ele><time>2019-10-02T11:03:09Z</time><name>PT4109</name></trkpt>
<trkpt lat="54.593349" lon="-3.231290"><ele>569</ele><time>2019-10-02T11:03:10Z</time><name>PT4110</name></trkpt>
<trkpt lat="54.593342" lon="-3.231305"><ele>569</ele><time>2019-10-02T11:03:11Z</time><name>PT4111</name></trkpt>
<trkpt lat="54.593339" lon="-3.231325"><ele>570</ele><time>2019-10-02T11:03:12Z</time><name>PT4112</name></trkpt>
<trkpt lat="54.593332" lon="-3.231346"><ele>569</ele><time>2019-10-02T11:03:13Z</time><name>PT4113</name></trkpt>
<trkpt lat="54.593325" lon="-3.231364"><ele>569</ele><time>2019-10-02T11:03:14Z</time><name>PT4114</name></trkpt>
<trkpt lat="54.593317" lon="-3.231381"><ele>569</ele><time>2019-10-02T11:03:15Z</time><name>PT4115</name></trkpt>
<trkpt lat="54.593311" lon="-3.231397"><ele>569</ele><time>2019-10-02T11:03:16Z</time><name>PT4116</name></trkpt>
<trkpt lat="54.593308" lon="-3.231416"><ele>569</ele><time>2019-10-02T11:03:17Z</time><name>PT4117</name></trkpt>
<trkpt lat="54.593303" lon="-3.231435"><ele>569</ele><time>2019-10-02T11:03:18Z</time><name>PT4118</name></trkpt>
<trkpt lat="54.593298" lon="-3.231454"><ele>570</ele><time>2019-10-02T11:03:19Z</time><name>PT4119</name></trkpt>
<trkpt lat="54.593292" lon="-3.231474"><ele>570</ele><time>2019-10-02T11:03:20Z</time><name>PT4120</name></trkpt>
<trkpt lat="54.593286" lon="-3.231493"><ele>570</ele><time>2019-10-02T11:03:21Z</time><name>PT4121</name></trkpt>
<trkpt lat="54.593282" lon="-3.231512"><ele>570</ele><time>2019-10-02T11:03:22Z</time><name>PT4122</name></trkpt>
<trkpt lat="54.593279" lon="-3.231533"><ele>570</ele><time>2019-10-02T11:03:23Z</time><name>PT4123</name></trkpt>
<trkpt lat="54.593276" lon="-3.231554"><ele>570</ele><time>2019-10-02T11:03:24Z</time><name>PT4124</name></trkpt>
<trkpt lat="54.593271" lon="-3.231563"><ele>570</ele><time>2019-10-02T11:03:25Z</time><name>PT4125</name></trkpt>
<trkpt lat="54.593267" lon="-3.231575"><ele>571</ele><time>2019-10-02T11:03:26Z</time><name>PT4126</name></trkpt>
<trkpt lat="54.593262" lon="-3.231593"><ele>571</ele><time>2019-10-02T11:03:27Z</time><name>PT4127</name></trkpt>
<trkpt lat="54.593257" lon="-3.231611"><ele>571</ele><time>2019-10-02T11:03:28Z</time><name>PT4128</name></trkpt>
<trkpt lat="54.593253" lon="-3.231629"><ele>571</ele><time>2019-10-02T11:03:29Z</time><name>PT4129</name></trkpt>
<trkpt lat="54.593250" lon="-3.231646"><ele>572</ele><time>2019-10-02T11:03:30Z</time><name>PT4130</name></trkpt>
<trkpt lat="54.593244" lon="-3.231663"><ele>572</ele><time>2019-10-02T11:03:31Z</time><name>PT4131</name></trkpt>
<trkpt lat="54.593239" lon="-3.231681"><ele>572</ele><time>2019-10-02T11:03:32Z</time><name>PT4132</name></trkpt>
<trkpt lat="54.593233" lon="-3.231698"><ele>572</ele><time>2019-10-02T11:03:33Z</time><name>PT4133</name></trkpt>
<trkpt lat="54.593227" lon="-3.231714"><ele>572</ele><time>2019-10-02T11:03:34Z</time><name>PT4134</name></trkpt>
<trkpt lat="54.593223" lon="-3.231730"><ele>572</ele><time>2019-10-02T11:03:35Z</time><name>PT4135</name></trkpt>
<trkpt lat="54.593220" lon="-3.231747"><ele>572</ele><time>2019-10-02T11:03:36Z</time><name>PT4136</name></trkpt>
<trkpt lat="54.593217" lon="-3.231764"><ele>572</ele><time>2019-10-02T11:03:37Z</time><name>PT4137</name></trkpt>
<trkpt lat="54.593215" lon="-3.231782"><ele>572</ele><time>2019-10-02T11:03:38Z</time><name>PT4138</name></trkpt>
<trkpt lat="54.593212" lon="-3.231799"><ele>573</ele><time>2019-10-02T11:03:39Z</time><name>PT4139</name></trkpt>
<trkpt lat="54.593208" lon="-3.231816"><ele>573</ele><time>2019-10-02T11:03:40Z</time><name>PT4140</name></trkpt>
<trkpt lat="54.593204" lon="-3.231831"><ele>573</ele><time>2019-10-02T11:03:41Z</time><name>PT4141</name></trkpt>
<trkpt lat="54.593198" lon="-3.231846"><ele>573</ele><time>2019-10-02T11:03:42Z</time><name>PT4142</name></trkpt>
<trkpt lat="54.593192" lon="-3.231860"><ele>573</ele><time>2019-10-02T11:03:43Z</time><name>PT4143</name></trkpt>
<trkpt lat="54.593188" lon="-3.231875"><ele>573</ele><time>2019-10-02T11:03:44Z</time><name>PT4144</name></trkpt>
<trkpt lat="54.593183" lon="-3.231887"><ele>574</ele><time>2019-10-02T11:03:45Z</time><name>PT4145</name></trkpt>
<trkpt lat="54.593176" lon="-3.231898"><ele>574</ele><time>2019-10-02T11:03:46Z</time><name>PT4146</name></trkpt>
<trkpt lat="54.593171" lon="-3.231911"><ele>574</ele><time>2019-10-02T11:03:47Z</time><name>PT4147</name></trkpt>
<trkpt lat="54.593167" lon="-3.231926"><ele>574</ele><time>2019-10-02T11:03:48Z</time><name>PT4148</name></trkpt>
<trkpt lat="54.593163" lon="-3.231935"><ele>575</ele><time>2019-10-02T11:03:49Z</time><name>PT4149</name></trkpt>
<trkpt lat="54.593159" lon="-3.231947"><ele>575</ele><time>2019-10-02T11:03:50Z</time><name>PT4150</name></trkpt>
<trkpt lat="54.593158" lon="-3.231960"><ele>575</ele><time>2019-10-02T11:03:51Z</time><name>PT4151</name></trkpt>
<trkpt lat="54.593156" lon="-3.231973"><ele>575</ele><time>2019-10-02T11:03:52Z</time><name>PT4152</name></trkpt>
<trkpt lat="54.593157" lon="-3.231985"><ele>576</ele><time>2019-10-02T11:03:53Z</time><name>PT4153</name></trkpt>
<trkpt lat="54.593155" lon="-3.231998"><ele>576</ele><time>2019-10-02T11:03:54Z</time><name>PT4154</name></trkpt>
<trkpt lat="54.593154" lon="-3.232012"><ele>577</ele><time>2019-10-02T11:03:55Z</time><name>PT4155</name></trkpt>
<trkpt lat="54.593152" lon="-3.232025"><ele>577</ele><time>2019-10-02T11:03:56Z</time><name>PT4156</name></trkpt>
<trkpt lat="54.593149" lon="-3.232036"><ele>577</ele><time>2019-10-02T11:03:57Z</time><name>PT4157</name></trkpt>
<trkpt lat="54.593145" lon="-3.232048"><ele>577</ele><time>2019-10-02T11:03:58Z</time><name>PT4158</name></trkpt>
<trkpt lat="54.593145" lon="-3.232060"><ele>577</ele><time>2019-10-02T11:03:59Z</time><name>PT4159</name></trkpt>
<trkpt lat="54.593143" lon="-3.232073"><ele>577</ele><time>2019-10-02T11:04:00Z</time><name>PT4160</name></trkpt>
<trkpt lat="54.593139" lon="-3.232085"><ele>578</ele><time>2019-10-02T11:04:01Z</time><name>PT4161</name></trkpt>
<trkpt lat="54.593134" lon="-3.232096"><ele>578</ele><time>2019-10-02T11:04:02Z</time><name>PT4162</name></trkpt>
<trkpt lat="54.593129" lon="-3.232109"><ele>578</ele><time>2019-10-02T11:04:03Z</time><name>PT4163</name></trkpt>
<trkpt lat="54.593123" lon="-3.232119"><ele>578</ele><time>2019-10-02T11:04:04Z</time><name>PT4164</name></trkpt>
<trkpt lat="54.593118" lon="-3.232131"><ele>578</ele><time>2019-10-02T11:04:05Z</time><name>PT4165</name></trkpt>
<trkpt lat="54.593115" lon="-3.232142"><ele>578</ele><time>2019-10-02T11:04:06Z</time><name>PT4166</name></trkpt>
<trkpt lat="54.593112" lon="-3.232156"><ele>578</ele><time>2019-10-02T11:04:07Z</time><name>PT4167</name></trkpt>
<trkpt lat="54.593111" lon="-3.232170"><ele>579</ele><time>2019-10-02T11:04:08Z</time><name>PT4168</name></trkpt>
<trkpt lat="54.593109" lon="-3.232182"><ele>579</ele><time>2019-10-02T11:04:09Z</time><name>PT4169</name></trkpt>
<trkpt lat="54.593106" lon="-3.232195"><ele>579</ele><time>2019-10-02T11:04:10Z</time><name>PT4170</name></trkpt>
<trkpt lat="54.593105" lon="-3.232207"><ele>579</ele><time>2019-10-02T11:04:11Z</time><name>PT4171</name></trkpt>
<trkpt lat="54.593103" lon="-3.232222"><ele>579</ele><time>2019-10-02T11:04:12Z</time><name>PT4172</name></trkpt>
<trkpt lat="54.593101" lon="-3.232234"><ele>579</ele><time>2019-10-02T11:04:13Z</time><name>PT4173</name></trkpt>
<trkpt lat="54.593098" lon="-3.232244"><ele>579</ele><time>2019-10-02T11:04:14Z</time><name>PT4174</name></trkpt>
<trkpt lat="54.593096" lon="-3.232259"><ele>580</ele><time>2019-10-02T11:04:15Z</time><name>PT4175</name></trkpt>
<trkpt lat="54.593092" lon="-3.232274"><ele>580</ele><time>2019-10-02T11:04:16Z</time><name>PT4176</name></trkpt>
<trkpt lat="54.593089" lon="-3.232287"><ele>580</ele><time>2019-10-02T11:04:17Z</time><name>PT4177</name></trkpt>
<trkpt lat="54.593086" lon="-3.232299"><ele>580</ele><time>2019-10-02T11:04:18Z</time><name>PT4178</name></trkpt>
<trkpt lat="54.593084" lon="-3.232315"><ele>580</ele><time>2019-10-02T11:04:19Z</time><name>PT4179</name></trkpt>
<trkpt lat="54.593082" lon="-3.232327"><ele>581</ele><time>2019-10-02T11:04:20Z</time><name>PT4180</name></trkpt>
<trkpt lat="54.593080" lon="-3.232338"><ele>581</ele><time>2019-10-02T11:04:21Z</time><name>PT4181</name></trkpt>
<trkpt lat="54.593078" lon="-3.232351"><ele>581</ele><time>2019-10-02T11:04:22Z</time><name>PT4182</name></trkpt>
<trkpt lat="54.593079" lon="-3.232364"><ele>581</ele><time>2019-10-02T11:04:23Z</time><name>PT4183</name></trkpt>
<trkpt lat="54.593079" lon="-3.232377"><ele>581</ele><time>2019-10-02T11:04:24Z</time><name>PT4184</name></trkpt>
<trkpt lat="54.593077" lon="-3.232389"><ele>582</ele><time>2019-10-02T11:04:25Z</time><name>PT4185</name></trkpt>
<trkpt lat="54.593078" lon="-3.232401"><ele>582</ele><time>2019-10-02T11:04:26Z</time><name>PT4186</name></trkpt>
<trkpt lat="54.593079" lon="-3.232414"><ele>582</ele><time>2019-10-02T11:04:27Z</time><name>PT4187</name></trkpt>
<trkpt lat="54.593076" lon="-3.232426"><ele>582</ele><time>2019-10-02T11:04:28Z</time><name>PT4188</name></trkpt>
<trkpt lat="54.593073" lon="-3.232437"><ele>582</ele><time>2019-10-02T11:04:29Z</time><name>PT4189</name></trkpt>
<trkpt lat="54.593071" lon="-3.232447"><ele>582</ele><time>2019-10-02T11:04:30Z</time><name>PT4190</name></trkpt>
<trkpt lat="54.593070" lon="-3.232455"><ele>583</ele><time>2019-10-02T11:04:31Z</time><name>PT4191</name></trkpt>
<trkpt lat="54.593067" lon="-3.232467"><ele>583</ele><time>2019-10-02T11:04:32Z</time><name>PT4192</name></trkpt>
<trkpt lat="54.593064" lon="-3.232477"><ele>583</ele><time>2019-10-02T11:04:33Z</time><name>PT4193</name></trkpt>
<trkpt lat="54.593063" lon="-3.232488"><ele>583</ele><time>2019-10-02T11:04:34Z</time><name>PT4194</name></trkpt>
<trkpt lat="54.593061" lon="-3.232497"><ele>583</ele><time>2019-10-02T11:04:35Z</time><name>PT4195</name></trkpt>
<trkpt lat="54.593058" lon="-3.232507"><ele>584</ele><time>2019-10-02T11:04:36Z</time><name>PT4196</name></trkpt>
<trkpt lat="54.593054" lon="-3.232517"><ele>584</ele><time>2019-10-02T11:04:37Z</time><name>PT4197</name></trkpt>
<trkpt lat="54.593051" lon="-3.232527"><ele>584</ele><time>2019-10-02T11:04:38Z</time><name>PT4198</name></trkpt>
<trkpt lat="54.593046" lon="-3.232537"><ele>585</ele><time>2019-10-02T11:04:39Z</time><name>PT4199</name></trkpt>
<trkpt lat="54.593040" lon="-3.232545"><ele>585</ele><time>2019-10-02T11:04:40Z</time><name>PT4200</name></trkpt>
<trkpt lat="54.593035" lon="-3.232556"><ele>585</ele><time>2019-10-02T11:04:41Z</time><name>PT4201</name></trkpt>
<trkpt lat="54.593029" lon="-3.232565"><ele>585</ele><time>2019-10-02T11:04:42Z</time><name>PT4202</name></trkpt>
<trkpt lat="54.593023" lon="-3.232577"><ele>585</ele><time>2019-10-02T11:04:43Z</time><name>PT4203</name></trkpt>
<trkpt lat="54.593018" lon="-3.232588"><ele>585</ele><time>2019-10-02T11:04:44Z</time><name>PT4204</name></trkpt>
<trkpt lat="54.593012" lon="-3.232603"><ele>585</ele><time>2019-10-02T11:04:45Z</time><name>PT4205</name></trkpt>
<trkpt lat="54.593007" lon="-3.232616"><ele>585</ele><time>2019-10-02T11:04:46Z</time><name>PT4206</name></trkpt>
<trkpt lat="54.593003" lon="-3.232630"><ele>585</ele><time>2019-10-02T11:04:47Z</time><name>PT4207</name></trkpt>
<trkpt lat="54.592999" lon="-3.232644"><ele>585</ele><time>2019-10-02T11:04:48Z</time><name>PT4208</name></trkpt>
<trkpt lat="54.592996" lon="-3.232659"><ele>586</ele><time>2019-10-02T11:04:49Z</time><name>PT4209</name></trkpt>
<trkpt lat="54.592994" lon="-3.232670"><ele>586</ele><time>2019-10-02T11:04:50Z</time><name>PT4210</name></trkpt>
<trkpt lat="54.592991" lon="-3.232685"><ele>586</ele><time>2019-10-02T11:04:51Z</time><name>PT4211</name></trkpt>
<trkpt lat="54.592987" lon="-3.232698"><ele>586</ele><time>2019-10-02T11:04:52Z</time><name>PT4212</name></trkpt>
<trkpt lat="54.592982" lon="-3.232714"><ele>586</ele><time>2019-10-02T11:04:53Z</time><name>PT4213</name></trkpt>
<trkpt lat="54.592978" lon="-3.232725"><ele>587</ele><time>2019-10-02T11:04:54Z</time><name>PT4214</name></trkpt>
<trkpt lat="54.592973" lon="-3.232738"><ele>587</ele><time>2019-10-02T11:04:55Z</time><name>PT4215</name></trkpt>
<trkpt lat="54.592969" lon="-3.232751"><ele>587</ele><time>2019-10-02T11:04:56Z</time><name>PT4216</name></trkpt>
<trkpt lat="54.592967" lon="-3.232765"><ele>587</ele><time>2019-10-02T11:04:57Z</time><name>PT4217</name></trkpt>
<trkpt lat="54.592966" lon="-3.232776"><ele>588</ele><time>2019-10-02T11:04:58Z</time><name>PT4218</name></trkpt>
<trkpt lat="54.592964" lon="-3.232788"><ele>588</ele><time>2019-10-02T11:04:59Z</time><name>PT4219</name></trkpt>
<trkpt lat="54.592962" lon="-3.232802"><ele>588</ele><time>2019-10-02T11:05:00Z</time><name>PT4220</name></trkpt>
<trkpt lat="54.592959" lon="-3.232816"><ele>588</ele><time>2019-10-02T11:05:01Z</time><name>PT4221</name></trkpt>
<trkpt lat="54.592955" lon="-3.232827"><ele>588</ele><time>2019-10-02T11:05:02Z</time><name>PT4222</name></trkpt>
<trkpt lat="54.592951" lon="-3.232837"><ele>588</ele><time>2019-10-02T11:05:03Z</time><name>PT4223</name></trkpt>
<trkpt lat="54.592949" lon="-3.232848"><ele>589</ele><time>2019-10-02T11:05:04Z</time><name>PT4224</name></trkpt>
<trkpt lat="54.592946" lon="-3.232859"><ele>589</ele><time>2019-10-02T11:05:05Z</time><name>PT4225</name></trkpt>
<trkpt lat="54.592942" lon="-3.232870"><ele>589</ele><time>2019-10-02T11:05:06Z</time><name>PT4226</name></trkpt>
<trkpt lat="54.592939" lon="-3.232880"><ele>589</ele><time>2019-10-02T11:05:07Z</time><name>PT4227</name></trkpt>
<trkpt lat="54.592937" lon="-3.232894"><ele>589</ele><time>2019-10-02T11:05:08Z</time><name>PT4228</name></trkpt>
<trkpt lat="54.592934" lon="-3.232905"><ele>589</ele><time>2019-10-02T11:05:09Z</time><name>PT4229</name></trkpt>
<trkpt lat="54.592931" lon="-3.232917"><ele>589</ele><time>2019-10-02T11:05:10Z</time><name>PT4230</name></trkpt>
<trkpt lat="54.592928" lon="-3.232928"><ele>589</ele><time>2019-10-02T11:05:11Z</time><name>PT4231</name></trkpt>
<trkpt lat="54.592926" lon="-3.232940"><ele>589</ele><time>2019-10-02T11:05:12Z</time><name>PT4232</name></trkpt>
<trkpt lat="54.592924" lon="-3.232951"><ele>589</ele><time>2019-10-02T11:05:13Z</time><name>PT4233</name></trkpt>
<trkpt lat="54.592922" lon="-3.232961"><ele>589</ele><time>2019-10-02T11:05:14Z</time><name>PT4234</name></trkpt>
<trkpt lat="54.592921" lon="-3.232971"><ele>590</ele><time>2019-10-02T11:05:15Z</time><name>PT4235</name></trkpt>
<trkpt lat="54.592919" lon="-3.232983"><ele>590</ele><time>2019-10-02T11:05:16Z</time><name>PT4236</name></trkpt>
<trkpt lat="54.592915" lon="-3.232994"><ele>590</ele><time>2019-10-02T11:05:17Z</time><name>PT4237</name></trkpt>
<trkpt lat="54.592913" lon="-3.233007"><ele>590</ele><time>2019-10-02T11:05:18Z</time><name>PT4238</name></trkpt>
<trkpt lat="54.592909" lon="-3.233020"><ele>590</ele><time>2019-10-02T11:05:19Z</time><name>PT4239</name></trkpt>
<trkpt lat="54.592902" lon="-3.233028"><ele>590</ele><time>2019-10-02T11:05:20Z</time><name>PT4240</name></trkpt>
<trkpt lat="54.592897" lon="-3.233036"><ele>591</ele><time>2019-10-02T11:05:21Z</time><name>PT4241</name></trkpt>
<trkpt lat="54.592896" lon="-3.233047"><ele>591</ele><time>2019-10-02T11:05:22Z</time><name>PT4242</name></trkpt>
<trkpt lat="54.592893" lon="-3.233059"><ele>591</ele><time>2019-10-02T11:05:23Z</time><name>PT4243</name></trkpt>
<trkpt lat="54.592888" lon="-3.233068"><ele>591</ele><time>2019-10-02T11:05:24Z</time><name>PT4244</name></trkpt>
<trkpt lat="54.592883" lon="-3.233076"><ele>591</ele><time>2019-10-02T11:05:25Z</time><name>PT4245</name></trkpt>
<trkpt lat="54.592880" lon="-3.233087"><ele>591</ele><time>2019-10-02T11:05:26Z</time><name>PT4246</name></trkpt>
<trkpt lat="54.592876" lon="-3.233096"><ele>592</ele><time>2019-10-02T11:05:27Z</time><name>PT4247</name></trkpt>
<trkpt lat="54.592872" lon="-3.233105"><ele>592</ele><time>2019-10-02T11:05:28Z</time><name>PT4248</name></trkpt>
<trkpt lat="54.592870" lon="-3.233114"><ele>592</ele><time>2019-10-02T11:05:29Z</time><name>PT4249</name></trkpt>
<trkpt lat="54.592869" lon="-3.233123"><ele>592</ele><time>2019-10-02T11:05:30Z</time><name>PT4250</name></trkpt>
<trkpt lat="54.592868" lon="-3.233132"><ele>593</ele><time>2019-10-02T11:05:31Z</time><name>PT4251</name></trkpt>
<trkpt lat="54.592866" lon="-3.233141"><ele>593</ele><time>2019-10-02T11:05:32Z</time><name>PT4252</name></trkpt>
<trkpt lat="54.592864" lon="-3.233153"><ele>593</ele><time>2019-10-02T11:05:33Z</time><name>PT4253</name></trkpt>
<trkpt lat="54.592860" lon="-3.233163"><ele>593</ele><time>2019-10-02T11:05:34Z</time><name>PT4254</name></trkpt>
<trkpt lat="54.592855" lon="-3.233166"><ele>593</ele><time>2019-10-02T11:05:35Z</time><name>PT4255</name></trkpt>
<trkpt lat="54.592852" lon="-3.233173"><ele>594</ele><time>2019-10-02T11:05:36Z</time><name>PT4256</name></trkpt>
<trkpt lat="54.592852" lon="-3.233181"><ele>594</ele><time>2019-10-02T11:05:37Z</time><name>PT4257</name></trkpt>
<trkpt lat="54.592849" lon="-3.233193"><ele>594</ele><time>2019-10-02T11:05:38Z</time><name>PT4258</name></trkpt>
<trkpt lat="54.592845" lon="-3.233204"><ele>594</ele><time>2019-10-02T11:05:39Z</time><name>PT4259</name></trkpt>
<trkpt lat="54.592845" lon="-3.233218"><ele>594</ele><time>2019-10-02T11:05:40Z</time><name>PT4260</name></trkpt>
<trkpt lat="54.592844" lon="-3.233231"><ele>594</ele><time>2019-10-02T11:05:41Z</time><name>PT4261</name></trkpt>
<trkpt lat="54.592843" lon="-3.233247"><ele>594</ele><time>2019-10-02T11:05:42Z</time><name>PT4262</name></trkpt>
<trkpt lat="54.592844" lon="-3.233262"><ele>595</ele><time>2019-10-02T11:05:43Z</time><name>PT4263</name></trkpt>
<trkpt lat="54.592847" lon="-3.233278"><ele>595</ele><time>2019-10-02T11:05:44Z</time><name>PT4264</name></trkpt>
<trkpt lat="54.592851" lon="-3.233293"><ele>595</ele><time>2019-10-02T11:05:45Z</time><name>PT4265</name></trkpt>
<trkpt lat="54.592849" lon="-3.233310"><ele>595</ele><time>2019-10-02T11:05:46Z</time><name>PT4266</name></trkpt>
<trkpt lat="54.592848" lon="-3.233326"><ele>595</ele><time>2019-10-02T11:05:47Z</time><name>PT4267</name></trkpt>
<trkpt lat="54.592848" lon="-3.233342"><ele>595</ele><time>2019-10-02T11:05:48Z</time><name>PT4268</name></trkpt>
<trkpt lat="54.592849" lon="-3.233357"><ele>595</ele><time>2019-10-02T11:05:49Z</time><name>PT4269</name></trkpt>
<trkpt lat="54.592849" lon="-3.233372"><ele>596</ele><time>2019-10-02T11:05:50Z</time><name>PT4270</name></trkpt>
<trkpt lat="54.592851" lon="-3.233387"><ele>596</ele><time>2019-10-02T11:05:51Z</time><name>PT4271</name></trkpt>
<trkpt lat="54.592854" lon="-3.233402"><ele>596</ele><time>2019-10-02T11:05:52Z</time><name>PT4272</name></trkpt>
<trkpt lat="54.592857" lon="-3.233421"><ele>596</ele><time>2019-10-02T11:05:53Z</time><name>PT4273</name></trkpt>
<trkpt lat="54.592857" lon="-3.233436"><ele>596</ele><time>2019-10-02T11:05:54Z</time><name>PT4274</name></trkpt>
<trkpt lat="54.592856" lon="-3.233452"><ele>596</ele><time>2019-10-02T11:05:55Z</time><name>PT4275</name></trkpt>
<trkpt lat="54.592854" lon="-3.233466"><ele>596</ele><time>2019-10-02T11:05:56Z</time><name>PT4276</name></trkpt>
<trkpt lat="54.592856" lon="-3.233481"><ele>597</ele><time>2019-10-02T11:05:57Z</time><name>PT4277</name></trkpt>
<trkpt lat="54.592857" lon="-3.233494"><ele>597</ele><time>2019-10-02T11:05:58Z</time><name>PT4278</name></trkpt>
<trkpt lat="54.592857" lon="-3.233509"><ele>597</ele><time>2019-10-02T11:05:59Z</time><name>PT4279</name></trkpt>
<trkpt lat="54.592856" lon="-3.233524"><ele>598</ele><time>2019-10-02T11:06:00Z</time><name>PT4280</name></trkpt>
<trkpt lat="54.592857" lon="-3.233539"><ele>598</ele><time>2019-10-02T11:06:01Z</time><name>PT4281</name></trkpt>
<trkpt lat="54.592858" lon="-3.233554"><ele>598</ele><time>2019-10-02T11:06:02Z</time><name>PT4282</name></trkpt>
<trkpt lat="54.592858" lon="-3.233567"><ele>598</ele><time>2019-10-02T11:06:03Z</time><name>PT4283</name></trkpt>
<trkpt lat="54.592856" lon="-3.233581"><ele>598</ele><time>2019-10-02T11:06:04Z</time><name>PT4284</name></trkpt>
<trkpt lat="54.592854" lon="-3.233596"><ele>598</ele><time>2019-10-02T11:06:05Z</time><name>PT4285</name></trkpt>
<trkpt lat="54.592851" lon="-3.233607"><ele>599</ele><time>2019-10-02T11:06:06Z</time><name>PT4286</name></trkpt>
<trkpt lat="54.592847" lon="-3.233618"><ele>599</ele><time>2019-10-02T11:06:07Z</time><name>PT4287</name></trkpt>
<trkpt lat="54.592843" lon="-3.233628"><ele>599</ele><time>2019-10-02T11:06:08Z</time><name>PT4288</name></trkpt>
<trkpt lat="54.592843" lon="-3.233641"><ele>599</ele><time>2019-10-02T11:06:09Z</time><name>PT4289</name></trkpt>
<trkpt lat="54.592844" lon="-3.233650"><ele>600</ele><time>2019-10-02T11:06:10Z</time><name>PT4290</name></trkpt>
<trkpt lat="54.592844" lon="-3.233661"><ele>600</ele><time>2019-10-02T11:06:11Z</time><name>PT4291</name></trkpt>
<trkpt lat="54.592846" lon="-3.233674"><ele>600</ele><time>2019-10-02T11:06:12Z</time><name>PT4292</name></trkpt>
<trkpt lat="54.592844" lon="-3.233686"><ele>600</ele><time>2019-10-02T11:06:13Z</time><name>PT4293</name></trkpt>
<trkpt lat="54.592842" lon="-3.233697"><ele>600</ele><time>2019-10-02T11:06:14Z</time><name>PT4294</name></trkpt>
<trkpt lat="54.592840" lon="-3.233707"><ele>600</ele><time>2019-10-02T11:06:15Z</time><name>PT4295</name></trkpt>
<trkpt lat="54.592842" lon="-3.233718"><ele>600</ele><time>2019-10-02T11:06:16Z</time><name>PT4296</name></trkpt>
<trkpt lat="54.592844" lon="-3.233728"><ele>601</ele><time>2019-10-02T11:06:17Z</time><name>PT4297</name></trkpt>
<trkpt lat="54.592844" lon="-3.233740"><ele>601</ele><time>2019-10-02T11:06:18Z</time><name>PT4298</name></trkpt>
<trkpt lat="54.592846" lon="-3.233752"><ele>601</ele><time>2019-10-02T11:06:19Z</time><name>PT4299</name></trkpt>
<trkpt lat="54.592847" lon="-3.233762"><ele>601</ele><time>2019-10-02T11:06:20Z</time><name>PT4300</name></trkpt>
<trkpt lat="54.592847" lon="-3.233771"><ele>602</ele><time>2019-10-02T11:06:21Z</time><name>PT4301</name></trkpt>
<trkpt lat="54.592848" lon="-3.233782"><ele>602</ele><time>2019-10-02T11:06:22Z</time><name>PT4302</name></trkpt>
<trkpt lat="54.592851" lon="-3.233792"><ele>602</ele><time>2019-10-02T11:06:23Z</time><name>PT4303</name></trkpt>
<trkpt lat="54.592852" lon="-3.233802"><ele>602</ele><time>2019-10-02T11:06:24Z</time><name>PT4304</name></trkpt>
<trkpt lat="54.592848" lon="-3.233812"><ele>602</ele><time>2019-10-02T11:06:25Z</time><name>PT4305</name></trkpt>
<trkpt lat="54.592849" lon="-3.233822"><ele>603</ele><time>2019-10-02T11:06:26Z</time><name>PT4306</name></trkpt>
<trkpt lat="54.592849" lon="-3.233835"><ele>603</ele><time>2019-10-02T11:06:27Z</time><name>PT4307</name></trkpt>
<trkpt lat="54.592848" lon="-3.233847"><ele>603</ele><time>2019-10-02T11:06:28Z</time><name>PT4308</name></trkpt>
<trkpt lat="54.592846" lon="-3.233860"><ele>603</ele><time>2019-10-02T11:06:29Z</time><name>PT4309</name></trkpt>
<trkpt lat="54.592846" lon="-3.233873"><ele>604</ele><time>2019-10-02T11:06:30Z</time><name>PT4310</name></trkpt>
<trkpt lat="54.592842" lon="-3.233886"><ele>604</ele><time>2019-10-02T11:06:31Z</time><name>PT4311</name></trkpt>
<trkpt lat="54.592838" lon="-3.233898"><ele>604</ele><time>2019-10-02T11:06:32Z</time><name>PT4312</name></trkpt>
<trkpt lat="54.592833" lon="-3.233909"><ele>604</ele><time>2019-10-02T11:06:33Z</time><name>PT4313</name></trkpt>
<trkpt lat="54.592829" lon="-3.233921"><ele>604</ele><time>2019-10-02T11:06:34Z</time><name>PT4314</name></trkpt>
<trkpt lat="54.592825" lon="-3.233933"><ele>604</ele><time>2019-10-02T11:06:35Z</time><name>PT4315</name></trkpt>
<trkpt lat="54.592820" lon="-3.233944"><ele>604</ele><time>2019-10-02T11:06:36Z</time><name>PT4316</name></trkpt>
<trkpt lat="54.592815" lon="-3.233955"><ele>604</ele><time>2019-10-02T11:06:37Z</time><name>PT4317</name></trkpt>
<trkpt lat="54.592814" lon="-3.233966"><ele>605</ele><time>2019-10-02T11:06:38Z</time><name>PT4318</name></trkpt>
<trkpt lat="54.592814" lon="-3.233978"><ele>605</ele><time>2019-10-02T11:06:39Z</time><name>PT4319</name></trkpt>
<trkpt lat="54.592813" lon="-3.233989"><ele>605</ele><time>2019-10-02T11:06:40Z</time><name>PT4320</name></trkpt>
<trkpt lat="54.592813" lon="-3.234001"><ele>605</ele><time>2019-10-02T11:06:41Z</time><name>PT4321</name></trkpt>
<trkpt lat="54.592812" lon="-3.234011"><ele>606</ele><time>2019-10-02T11:06:42Z</time><name>PT4322</name></trkpt>
<trkpt lat="54.592807" lon="-3.234021"><ele>606</ele><time>2019-10-02T11:06:43Z</time><name>PT4323</name></trkpt>
<trkpt lat="54.592804" lon="-3.234033"><ele>606</ele><time>2019-10-02T11:06:44Z</time><name>PT4324</name></trkpt>
<trkpt lat="54.592801" lon="-3.234044"><ele>606</ele><time>2019-10-02T11:06:45Z</time><name>PT4325</name></trkpt>
<trkpt lat="54.592798" lon="-3.234056"><ele>606</ele><time>2019-10-02T11:06:46Z</time><name>PT4326</name></trkpt>
<trkpt lat="54.592798" lon="-3.234065"><ele>606</ele><time>2019-10-02T11:06:47Z</time><name>PT4327</name></trkpt>
<trkpt lat="54.592800" lon="-3.234073"><ele>607</ele><time>2019-10-02T11:06:48Z</time><name>PT4328</name></trkpt>
<trkpt lat="54.592802" lon="-3.234082"><ele>607</ele><time>2019-10-02T11:06:49Z</time><name>PT4329</name></trkpt>
<trkpt lat="54.592805" lon="-3.234090"><ele>607</ele><time>2019-10-02T11:06:50Z</time><name>PT4330</name></trkpt>
<trkpt lat="54.592808" lon="-3.234100"><ele>607</ele><time>2019-10-02T11:06:51Z</time><name>PT4331</name></trkpt>
<trkpt lat="54.592808" lon="-3.234111"><ele>607</ele><time>2019-10-02T11:06:52Z</time><name>PT4332</name></trkpt>
<trkpt lat="54.592809" lon="-3.234124"><ele>607</ele><time>2019-10-02T11:06:53Z</time><name>PT4333</name></trkpt>
<trkpt lat="54.592812" lon="-3.234136"><ele>608</ele><time>2019-10-02T11:06:54Z</time><name>PT4334</name></trkpt>
<trkpt lat="54.592815" lon="-3.234149"><ele>608</ele><time>2019-10-02T11:06:55Z</time><name>PT4335</name></trkpt>
<trkpt lat="54.592815" lon="-3.234162"><ele>608</ele><time>2019-10-02T11:06:56Z</time><name>PT4336</name></trkpt>
<trkpt lat="54.592814" lon="-3.234176"><ele>608</ele><time>2019-10-02T11:06:57Z</time><name>PT4337</name></trkpt>
<trkpt lat="54.592813" lon="-3.234190"><ele>609</ele><time>2019-10-02T11:06:58Z</time><name>PT4338</name></trkpt>
<trkpt lat="54.592811" lon="-3.234205"><ele>609</ele><time>2019-10-02T11:06:59Z</time><name>PT4339</name></trkpt>
<trkpt lat="54.592809" lon="-3.234219"><ele>609</ele><time>2019-10-02T11:07:00Z</time><name>PT4340</name></trkpt>
<trkpt lat="54.592803" lon="-3.234232"><ele>609</ele><time>2019-10-02T11:07:01Z</time><name>PT4341</name></trkpt>
<trkpt lat="54.592800" lon="-3.234245"><ele>609</ele><time>2019-10-02T11:07:02Z</time><name>PT4342</name></trkpt>
<trkpt lat="54.592798" lon="-3.234258"><ele>609</ele><time>2019-10-02T11:07:03Z</time><name>PT4343</name></trkpt>
<trkpt lat="54.592794" lon="-3.234270"><ele>609</ele><time>2019-10-02T11:07:04Z</time><name>PT4344</name></trkpt>
<trkpt lat="54.592790" lon="-3.234282"><ele>609</ele><time>2019-10-02T11:07:05Z</time><name>PT4345</name></trkpt>
<trkpt lat="54.592786" lon="-3.234294"><ele>610</ele><time>2019-10-02T11:07:06Z</time><name>PT4346</name></trkpt>
<trkpt lat="54.592784" lon="-3.234308"><ele>610</ele><time>2019-10-02T11:07:07Z</time><name>PT4347</name></trkpt>
<trkpt lat="54.592780" lon="-3.234318"><ele>610</ele><time>2019-10-02T11:07:08Z</time><name>PT4348</name></trkpt>
<trkpt lat="54.592778" lon="-3.234330"><ele>610</ele><time>2019-10-02T11:07:09Z</time><name>PT4349</name></trkpt>
<trkpt lat="54.592780" lon="-3.234339"><ele>611</ele><time>2019-10-02T11:07:10Z</time><name>PT4350</name></trkpt>
<trkpt lat="54.592784" lon="-3.234344"><ele>611</ele><time>2019-10-02T11:07:11Z</time><name>PT4351</name></trkpt>
<trkpt lat="54.592784" lon="-3.234353"><ele>611</ele><time>2019-10-02T11:07:12Z</time><name>PT4352</name></trkpt>
<trkpt lat="54.592786" lon="-3.234359"><ele>612</ele><time>2019-10-02T11:07:13Z</time><name>PT4353</name></trkpt>
<trkpt lat="54.592787" lon="-3.234369"><ele>612</ele><time>2019-10-02T11:07:14Z</time><name>PT4354</name></trkpt>
<trkpt lat="54.592788" lon="-3.234377"><ele>612</ele><time>2019-10-02T11:07:15Z</time><name>PT4355</name></trkpt>
<trkpt lat="54.592789" lon="-3.234387"><ele>612</ele><time>2019-10-02T11:07:16Z</time><name>PT4356</name></trkpt>
<trkpt lat="54.592787" lon="-3.234395"><ele>612</ele><time>2019-10-02T11:07:17Z</time><name>PT4357</name></trkpt>
<trkpt lat="54.592785" lon="-3.234404"><ele>612</ele><time>2019-10-02T11:07:18Z</time><name>PT4358</name></trkpt>
<trkpt lat="54.592786" lon="-3.234416"><ele>613</ele><time>2019-10-02T11:07:19Z</time><name>PT4359</name></trkpt>
<trkpt lat="54.592783" lon="-3.234425"><ele>613</ele><time>2019-10-02T11:07:20Z</time><name>PT4360</name></trkpt>
<trkpt lat="54.592779" lon="-3.234434"><ele>613</ele><time>2019-10-02T11:07:21Z</time><name>PT4361</name></trkpt>
<trkpt lat="54.592779" lon="-3.234442"><ele>614</ele><time>2019-10-02T11:07:22Z</time><name>PT4362</name></trkpt>
<trkpt lat="54.592776" lon="-3.234451"><ele>614</ele><time>2019-10-02T11:07:23Z</time><name>PT4363</name></trkpt>
<trkpt lat="54.592774" lon="-3.234463"><ele>614</ele><time>2019-10-02T11:07:24Z</time><name>PT4364</name></trkpt>
<trkpt lat="54.592773" lon="-3.234470"><ele>614</ele><time>2019-10-02T11:07:25Z</time><name>PT4365</name></trkpt>
<trkpt lat="54.592772" lon="-3.234477"><ele>614</ele><time>2019-10-02T11:07:26Z</time><name>PT4366</name></trkpt>
<trkpt lat="54.592771" lon="-3.234484"><ele>614</ele><time>2019-10-02T11:07:27Z</time><name>PT4367</name></trkpt>
<trkpt lat="54.592772" lon="-3.234492"><ele>614</ele><time>2019-10-02T11:07:28Z</time><name>PT4368</name></trkpt>
<trkpt lat="54.592771" lon="-3.234502"><ele>614</ele><time>2019-10-02T11:07:29Z</time><name>PT4369</name></trkpt>
<trkpt lat="54.592766" lon="-3.234511"><ele>614</ele><time>2019-10-02T11:07:30Z</time><name>PT4370</name></trkpt>
<trkpt lat="54.592763" lon="-3.234518"><ele>614</ele><time>2019-10-02T11:07:31Z</time><name>PT4371</name></trkpt>
<trkpt lat="54.592758" lon="-3.234524"><ele>614</ele><time>2019-10-02T11:07:32Z</time><name>PT4372</name></trkpt>
<trkpt lat="54.592751" lon="-3.234530"><ele>615</ele><time>2019-10-02T11:07:33Z</time><name>PT4373</name></trkpt>
<trkpt lat="54.592748" lon="-3.234540"><ele>615</ele><time>2019-10-02T11:07:34Z</time><name>PT4374</name></trkpt>
<trkpt lat="54.592744" lon="-3.234547"><ele>615</ele><time>2019-10-02T11:07:35Z</time><name>PT4375</name></trkpt>
<trkpt lat="54.592743" lon="-3.234551"><ele>615</ele><time>2019-10-02T11:07:36Z</time><name>PT4376</name></trkpt>
<trkpt lat="54.592741" lon="-3.234554"><ele>616</ele><time>2019-10-02T11:07:37Z</time><name>PT4377</name></trkpt>
<trkpt lat="54.592741" lon="-3.234558"><ele>616</ele><time>2019-10-02T11:07:38Z</time><name>PT4378</name></trkpt>
<trkpt lat="54.592744" lon="-3.234559"><ele>617</ele><time>2019-10-02T11:07:39Z</time><name>PT4379</name></trkpt>
<trkpt lat="54.592741" lon="-3.234564"><ele>616</ele><time>2019-10-02T11:07:40Z</time><name>PT4380</name></trkpt>
<trkpt lat="54.592740" lon="-3.234570"><ele>616</ele><time>2019-10-02T11:07:41Z</time><name>PT4381</name></trkpt>
<trkpt lat="54.592738" lon="-3.234575"><ele>617</ele><time>2019-10-02T11:07:42Z</time><name>PT4382</name></trkpt>
<trkpt lat="54.592737" lon="-3.234581"><ele>617</ele><time>2019-10-02T11:07:43Z</time><name>PT4383</name></trkpt>
<trkpt lat="54.592736" lon="-3.234590"><ele>617</ele><time>2019-10-02T11:07:44Z</time><name>PT4384</name></trkpt>
<trkpt lat="54.592732" lon="-3.234596"><ele>617</ele><time>2019-10-02T11:07:45Z</time><name>PT4385</name></trkpt>
<trkpt lat="54.592730" lon="-3.234601"><ele>617</ele><time>2019-10-02T11:07:46Z</time><name>PT4386</name></trkpt>
<trkpt lat="54.592727" lon="-3.234606"><ele>617</ele><time>2019-10-02T11:07:47Z</time><name>PT4387</name></trkpt>
<trkpt lat="54.592727" lon="-3.234615"><ele>618</ele><time>2019-10-02T11:07:48Z</time><name>PT4388</name></trkpt>
<trkpt lat="54.592727" lon="-3.234625"><ele>618</ele><time>2019-10-02T11:07:49Z</time><name>PT4389</name></trkpt>
<trkpt lat="54.592726" lon="-3.234635"><ele>618</ele><time>2019-10-02T11:07:50Z</time><name>PT4390</name></trkpt>
<trkpt lat="54.592722" lon="-3.234651"><ele>618</ele><time>2019-10-02T11:07:51Z</time><name>PT4391</name></trkpt>
<trkpt lat="54.592719" lon="-3.234664"><ele>618</ele><time>2019-10-02T11:07:52Z</time><name>PT4392</name></trkpt>
<trkpt lat="54.592716" lon="-3.234675"><ele>618</ele><time>2019-10-02T11:07:53Z</time><name>PT4393</name></trkpt>
<trkpt lat="54.592713" lon="-3.234685"><ele>619</ele><time>2019-10-02T11:07:54Z</time><name>PT4394</name></trkpt>
<trkpt lat="54.592708" lon="-3.234694"><ele>619</ele><time>2019-10-02T11:07:55Z</time><name>PT4395</name></trkpt>
<trkpt lat="54.592705" lon="-3.234704"><ele>619</ele><time>2019-10-02T11:07:56Z</time><name>PT4396</name></trkpt>
<trkpt lat="54.592705" lon="-3.234710"><ele>619</ele><time>2019-10-02T11:07:57Z</time><name>PT4397</name></trkpt>
<trkpt lat="54.592706" lon="-3.234719"><ele>619</ele><time>2019-10-02T11:07:58Z</time><name>PT4398</name></trkpt>
<trkpt lat="54.592705" lon="-3.234733"><ele>620</ele><time>2019-10-02T11:07:59Z</time><name>PT4399</name></trkpt>
<trkpt lat="54.592702" lon="-3.234746"><ele>620</ele><time>2019-10-02T11:08:00Z</time><name>PT4400</name></trkpt>
<trkpt lat="54.592699" lon="-3.234758"><ele>620</ele><time>2019-10-02T11:08:01Z</time><name>PT4401</name></trkpt>
<trkpt lat="54.592698" lon="-3.234769"><ele>621</ele><time>2019-10-02T11:08:02Z</time><name>PT4402</name></trkpt>
<trkpt lat="54.592697" lon="-3.234779"><ele>621</ele><time>2019-10-02T11:08:03Z</time><name>PT4403</name></trkpt>
<trkpt lat="54.592694" lon="-3.234787"><ele>621</ele><time>2019-10-02T11:08:04Z</time><name>PT4404</name></trkpt>
<trkpt lat="54.592694" lon="-3.234797"><ele>621</ele><time>2019-10-02T11:08:05Z</time><name>PT4405</name></trkpt>
<trkpt lat="54.592695" lon="-3.234807"><ele>622</ele><time>2019-10-02T11:08:06Z</time><name>PT4406</name></trkpt>
<trkpt lat="54.592693" lon="-3.234819"><ele>622</ele><time>2019-10-02T11:08:07Z</time><name>PT4407</name></trkpt>
<trkpt lat="54.592689" lon="-3.234825"><ele>622</ele><time>2019-10-02T11:08:08Z</time><name>PT4408</name></trkpt>
<trkpt lat="54.592684" lon="-3.234831"><ele>622</ele><time>2019-10-02T11:08:09Z</time><name>PT4409</name></trkpt>
<trkpt lat="54.592681" lon="-3.234839"><ele>623</ele><time>2019-10-02T11:08:10Z</time><name>PT4410</name></trkpt>
<trkpt lat="54.592679" lon="-3.234848"><ele>623</ele><time>2019-10-02T11:08:11Z</time><name>PT4411</name></trkpt>
<trkpt lat="54.592679" lon="-3.234859"><ele>623</ele><time>2019-10-02T11:08:12Z</time><name>PT4412</name></trkpt>
<trkpt lat="54.592680" lon="-3.234871"><ele>624</ele><time>2019-10-02T11:08:13Z</time><name>PT4413</name></trkpt>
<trkpt lat="54.592681" lon="-3.234878"><ele>624</ele><time>2019-10-02T11:08:14Z</time><name>PT4414</name></trkpt>
<trkpt lat="54.592682" lon="-3.234889"><ele>624</ele><time>2019-10-02T11:08:15Z</time><name>PT4415</name></trkpt>
<trkpt lat="54.592683" lon="-3.234901"><ele>624</ele><time>2019-10-02T11:08:16Z</time><name>PT4416</name></trkpt>
<trkpt lat="54.592684" lon="-3.234911"><ele>624</ele><time>2019-10-02T11:08:17Z</time><name>PT4417</name></trkpt>
<trkpt lat="54.592686" lon="-3.234925"><ele>624</ele><time>2019-10-02T11:08:18Z</time><name>PT4418</name></trkpt>
<trkpt lat="54.592687" lon="-3.234939"><ele>624</ele><time>2019-10-02T11:08:19Z</time><name>PT4419</name></trkpt>
<trkpt lat="54.592689" lon="-3.234953"><ele>624</ele><time>2019-10-02T11:08:20Z</time><name>PT4420</name></trkpt>
<trkpt lat="54.592690" lon="-3.234965"><ele>625</ele><time>2019-10-02T11:08:21Z</time><name>PT4421</name></trkpt>
<trkpt lat="54.592690" lon="-3.234979"><ele>625</ele><time>2019-10-02T11:08:22Z</time><name>PT4422</name></trkpt>
<trkpt lat="54.592692" lon="-3.234993"><ele>625</ele><time>2019-10-02T11:08:23Z</time><name>PT4423</name></trkpt>
<trkpt lat="54.592691" lon="-3.235006"><ele>625</ele><time>2019-10-02T11:08:24Z</time><name>PT4424</name></trkpt>
<trkpt lat="54.592688" lon="-3.235014"><ele>625</ele><time>2019-10-02T11:08:25Z</time><name>PT4425</name></trkpt>
<trkpt lat="54.592684" lon="-3.235024"><ele>625</ele><time>2019-10-02T11:08:26Z</time><name>PT4426</name></trkpt>
<trkpt lat="54.592683" lon="-3.235035"><ele>626</ele><time>2019-10-02T11:08:27Z</time><name>PT4427</name></trkpt>
<trkpt lat="54.592681" lon="-3.235049"><ele>626</ele><time>2019-10-02T11:08:28Z</time><name>PT4428</name></trkpt>
<trkpt lat="54.592679" lon="-3.235062"><ele>626</ele><time>2019-10-02T11:08:29Z</time><name>PT4429</name></trkpt>
<trkpt lat="54.592676" lon="-3.235079"><ele>626</ele><time>2019-10-02T11:08:30Z</time><name>PT4430</name></trkpt>
<trkpt lat="54.592671" lon="-3.235091"><ele>626</ele><time>2019-10-02T11:08:31Z</time><name>PT4431</name></trkpt>
<trkpt lat="54.592664" lon="-3.235100"><ele>626</ele><time>2019-10-02T11:08:32Z</time><name>PT4432</name></trkpt>
<trkpt lat="54.592659" lon="-3.235111"><ele>626</ele><time>2019-10-02T11:08:33Z</time><name>PT4433</name></trkpt>
<trkpt lat="54.592656" lon="-3.235127"><ele>626</ele><time>2019-10-02T11:08:34Z</time><name>PT4434</name></trkpt>
<trkpt lat="54.592655" lon="-3.235140"><ele>626</ele><time>2019-10-02T11:08:35Z</time><name>PT4435</name></trkpt>
<trkpt lat="54.592652" lon="-3.235154"><ele>626</ele><time>2019-10-02T11:08:36Z</time><name>PT4436</name></trkpt>
<trkpt lat="54.592650" lon="-3.235169"><ele>627</ele><time>2019-10-02T11:08:37Z</time><name>PT4437</name></trkpt>
<trkpt lat="54.592651" lon="-3.235186"><ele>627</ele><time>2019-10-02T11:08:38Z</time><name>PT4438</name></trkpt>
<trkpt lat="54.592650" lon="-3.235202"><ele>627</ele><time>2019-10-02T11:08:39Z</time><name>PT4439</name></trkpt>
<trkpt lat="54.592648" lon="-3.235217"><ele>627</ele><time>2019-10-02T11:08:40Z</time><name>PT4440</name></trkpt>
<trkpt lat="54.592644" lon="-3.235229"><ele>627</ele><time>2019-10-02T11:08:41Z</time><name>PT4441</name></trkpt>
<trkpt lat="54.592641" lon="-3.235241"><ele>627</ele><time>2019-10-02T11:08:42Z</time><name>PT4442</name></trkpt>
<trkpt lat="54.592636" lon="-3.235251"><ele>627</ele><time>2019-10-02T11:08:43Z</time><name>PT4443</name></trkpt>
<trkpt lat="54.592631" lon="-3.235259"><ele>627</ele><time>2019-10-02T11:08:44Z</time><name>PT4444</name></trkpt>
<trkpt lat="54.592626" lon="-3.235271"><ele>627</ele><time>2019-10-02T11:08:45Z</time><name>PT4445</name></trkpt>
<trkpt lat="54.592622" lon="-3.235286"><ele>627</ele><time>2019-10-02T11:08:46Z</time><name>PT4446</name></trkpt>
<trkpt lat="54.592617" lon="-3.235302"><ele>628</ele><time>2019-10-02T11:08:47Z</time><name>PT4447</name></trkpt>
<trkpt lat="54.592614" lon="-3.235319"><ele>628</ele><time>2019-10-02T11:08:48Z</time><name>PT4448</name></trkpt>
<trkpt lat="54.592610" lon="-3.235337"><ele>628</ele><time>2019-10-02T11:08:49Z</time><name>PT4449</name></trkpt>
<trkpt lat="54.592605" lon="-3.235356"><ele>627</ele><time>2019-10-02T11:08:50Z</time><name>PT4450</name></trkpt>
<trkpt lat="54.592599" lon="-3.235371"><ele>628</ele><time>2019-10-02T11:08:51Z</time><name>PT4451</name></trkpt>
<trkpt lat="54.592594" lon="-3.235385"><ele>628</ele><time>2019-10-02T11:08:52Z</time><name>PT4452</name></trkpt>
<trkpt lat="54.592588" lon="-3.235398"><ele>628</ele><time>2019-10-02T11:08:53Z</time><name>PT4453</name></trkpt>
<trkpt lat="54.592583" lon="-3.235411"><ele>629</ele><time>2019-10-02T11:08:54Z</time><name>PT4454</name></trkpt>
<trkpt lat="54.592578" lon="-3.235421"><ele>629</ele><time>2019-10-02T11:08:55Z</time><name>PT4455</name></trkpt>
<trkpt lat="54.592572" lon="-3.235430"><ele>629</ele><time>2019-10-02T11:08:56Z</time><name>PT4456</name></trkpt>
<trkpt lat="54.592565" lon="-3.235440"><ele>629</ele><time>2019-10-02T11:08:57Z</time><name>PT4457</name></trkpt>
<trkpt lat="54.592563" lon="-3.235452"><ele>629</ele><time>2019-10-02T11:08:58Z</time><name>PT4458</name></trkpt>
<trkpt lat="54.592562" lon="-3.235462"><ele>629</ele><time>2019-10-02T11:08:59Z</time><name>PT4459</name></trkpt>
<trkpt lat="54.592562" lon="-3.235473"><ele>630</ele><time>2019-10-02T11:09:00Z</time><name>PT4460</name></trkpt>
<trkpt lat="54.592562" lon="-3.235486"><ele>630</ele><time>2019-10-02T11:09:01Z</time><name>PT4461</name></trkpt>
<trkpt lat="54.592562" lon="-3.235500"><ele>630</ele><time>2019-10-02T11:09:02Z</time><name>PT4462</name></trkpt>
<trkpt lat="54.592560" lon="-3.235513"><ele>631</ele><time>2019-10-02T11:09:03Z</time><name>PT4463</name></trkpt>
<trkpt lat="54.592556" lon="-3.235526"><ele>631</ele><time>2019-10-02T11:09:04Z</time><name>PT4464</name></trkpt>
<trkpt lat="54.592554" lon="-3.235540"><ele>631</ele><time>2019-10-02T11:09:05Z</time><name>PT4465</name></trkpt>
<trkpt lat="54.592554" lon="-3.235555"><ele>631</ele><time>2019-10-02T11:09:06Z</time><name>PT4466</name></trkpt>
<trkpt lat="54.592552" lon="-3.235566"><ele>631</ele><time>2019-10-02T11:09:07Z</time><name>PT4467</name></trkpt>
<trkpt lat="54.592548" lon="-3.235578"><ele>632</ele><time>2019-10-02T11:09:08Z</time><name>PT4468</name></trkpt>
<trkpt lat="54.592546" lon="-3.235589"><ele>632</ele><time>2019-10-02T11:09:09Z</time><name>PT4469</name></trkpt>
<trkpt lat="54.592543" lon="-3.235603"><ele>632</ele><time>2019-10-02T11:09:10Z</time><name>PT4470</name></trkpt>
<trkpt lat="54.592539" lon="-3.235613"><ele>632</ele><time>2019-10-02T11:09:11Z</time><name>PT4471</name></trkpt>
<trkpt lat="54.592534" lon="-3.235622"><ele>632</ele><time>2019-10-02T11:09:12Z</time><name>PT4472</name></trkpt>
<trkpt lat="54.592533" lon="-3.235632"><ele>632</ele><time>2019-10-02T11:09:13Z</time><name>PT4473</name></trkpt>
<trkpt lat="54.592533" lon="-3.235644"><ele>632</ele><time>2019-10-02T11:09:14Z</time><name>PT4474</name></trkpt>
<trkpt lat="54.592533" lon="-3.235653"><ele>632</ele><time>2019-10-02T11:09:15Z</time><name>PT4475</name></trkpt>
<trkpt lat="54.592530" lon="-3.235664"><ele>633</ele><time>2019-10-02T11:09:16Z</time><name>PT4476</name></trkpt>
<trkpt lat="54.592529" lon="-3.235677"><ele>633</ele><time>2019-10-02T11:09:17Z</time><name>PT4477</name></trkpt>
<trkpt lat="54.592531" lon="-3.235689"><ele>633</ele><time>2019-10-02T11:09:18Z</time><name>PT4478</name></trkpt>
<trkpt lat="54.592532" lon="-3.235699"><ele>634</ele><time>2019-10-02T11:09:19Z</time><name>PT4479</name></trkpt>
<trkpt lat="54.592528" lon="-3.235710"><ele>634</ele><time>2019-10-02T11:09:20Z</time><name>PT4480</name></trkpt>
<trkpt lat="54.592524" lon="-3.235719"><ele>634</ele><time>2019-10-02T11:09:21Z</time><name>PT4481</name></trkpt>
<trkpt lat="54.592521" lon="-3.235730"><ele>634</ele><time>2019-10-02T11:09:22Z</time><name>PT4482</name></trkpt>
<trkpt lat="54.592516" lon="-3.235740"><ele>634</ele><time>2019-10-02T11:09:23Z</time><name>PT4483</name></trkpt>
<trkpt lat="54.592511" lon="-3.235750"><ele>635</ele><time>2019-10-02T11:09:24Z</time><name>PT4484</name></trkpt>
<trkpt lat="54.592508" lon="-3.235760"><ele>635</ele><time>2019-10-02T11:09:25Z</time><name>PT4485</name></trkpt>
<trkpt lat="54.592507" lon="-3.235772"><ele>635</ele><time>2019-10-02T11:09:26Z</time><name>PT4486</name></trkpt>
<trkpt lat="54.592503" lon="-3.235782"><ele>635</ele><time>2019-10-02T11:09:27Z</time><name>PT4487</name></trkpt>
<trkpt lat="54.592499" lon="-3.235792"><ele>635</ele><time>2019-10-02T11:09:28Z</time><name>PT4488</name></trkpt>
<trkpt lat="54.592496" lon="-3.235805"><ele>636</ele><time>2019-10-02T11:09:29Z</time><name>PT4489</name></trkpt>
<trkpt lat="54.592492" lon="-3.235812"><ele>636</ele><time>2019-10-02T11:09:30Z</time><name>PT4490</name></trkpt>
<trkpt lat="54.592490" lon="-3.235824"><ele>636</ele><time>2019-10-02T11:09:31Z</time><name>PT4491</name></trkpt>
<trkpt lat="54.592488" lon="-3.235837"><ele>636</ele><time>2019-10-02T11:09:32Z</time><name>PT4492</name></trkpt>
<trkpt lat="54.592487" lon="-3.235846"><ele>636</ele><time>2019-10-02T11:09:33Z</time><name>PT4493</name></trkpt>
<trkpt lat="54.592484" lon="-3.235855"><ele>637</ele><time>2019-10-02T11:09:34Z</time><name>PT4494</name></trkpt>
<trkpt lat="54.592482" lon="-3.235865"><ele>637</ele><time>2019-10-02T11:09:35Z</time><name>PT4495</name></trkpt>
<trkpt lat="54.592481" lon="-3.235875"><ele>637</ele><time>2019-10-02T11:09:36Z</time><name>PT4496</name></trkpt>
<trkpt lat="54.592479" lon="-3.235884"><ele>637</ele><time>2019-10-02T11:09:37Z</time><name>PT4497</name></trkpt>
<trkpt lat="54.592476" lon="-3.235894"><ele>637</ele><time>2019-10-02T11:09:38Z</time><name>PT4498</name></trkpt>
<trkpt lat="54.592476" lon="-3.235906"><ele>638</ele><time>2019-10-02T11:09:39Z</time><name>PT4499</name></trkpt>
<trkpt lat="54.592474" lon="-3.235914"><ele>638</ele><time>2019-10-02T11:09:40Z</time><name>PT4500</name></trkpt>
<trkpt lat="54.592470" lon="-3.235922"><ele>638</ele><time>2019-10-02T11:09:41Z</time><name>PT4501</name></trkpt>
<trkpt lat="54.592469" lon="-3.235929"><ele>638</ele><time>2019-10-02T11:09:42Z</time><name>PT4502</name></trkpt>
<trkpt lat="54.592471" lon="-3.235936"><ele>639</ele><time>2019-10-02T11:09:43Z</time><name>PT4503</name></trkpt>
<trkpt lat="54.592473" lon="-3.235944"><ele>639</ele><time>2019-10-02T11:09:44Z</time><name>PT4504</name></trkpt>
<trkpt lat="54.592477" lon="-3.235952"><ele>639</ele><time>2019-10-02T11:09:45Z</time><name>PT4505</name></trkpt>
<trkpt lat="54.592481" lon="-3.235962"><ele>640</ele><time>2019-10-02T11:09:46Z</time><name>PT4506</name></trkpt>
<trkpt lat="54.592486" lon="-3.235972"><ele>640</ele><time>2019-10-02T11:09:47Z</time><name>PT4507</name></trkpt>
<trkpt lat="54.592485" lon="-3.235980"><ele>640</ele><time>2019-10-02T11:09:48Z</time><name>PT4508</name></trkpt>
<trkpt lat="54.592479" lon="-3.235986"><ele>640</ele><time>2019-10-02T11:09:49Z</time><name>PT4509</name></trkpt>
<trkpt lat="54.592479" lon="-3.235991"><ele>641</ele><time>2019-10-02T11:09:50Z</time><name>PT4510</name></trkpt>
<trkpt lat="54.592482" lon="-3.235996"><ele>641</ele><time>2019-10-02T11:09:51Z</time><name>PT4511</name></trkpt>
<trkpt lat="54.592484" lon="-3.236005"><ele>642</ele><time>2019-10-02T11:09:52Z</time><name>PT4512</name></trkpt>
<trkpt lat="54.592483" lon="-3.236013"><ele>642</ele><time>2019-10-02T11:09:53Z</time><name>PT4513</name></trkpt>
<trkpt lat="54.592482" lon="-3.236023"><ele>642</ele><time>2019-10-02T11:09:54Z</time><name>PT4514</name></trkpt>
<trkpt lat="54.592483" lon="-3.236031"><ele>642</ele><time>2019-10-02T11:09:55Z</time><name>PT4515</name></trkpt>
<trkpt lat="54.592485" lon="-3.236039"><ele>642</ele><time>2019-10-02T11:09:56Z</time><name>PT4516</name></trkpt>
<trkpt lat="54.592488" lon="-3.236047"><ele>642</ele><time>2019-10-02T11:09:57Z</time><name>PT4517</name></trkpt>
<trkpt lat="54.592495" lon="-3.236056"><ele>643</ele><time>2019-10-02T11:09:58Z</time><name>PT4518</name></trkpt>
<trkpt lat="54.592497" lon="-3.236065"><ele>643</ele><time>2019-10-02T11:09:59Z</time><name>PT4519</name></trkpt>
<trkpt lat="54.592497" lon="-3.236074"><ele>643</ele><time>2019-10-02T11:10:00Z</time><name>PT4520</name></trkpt>
<trkpt lat="54.592499" lon="-3.236081"><ele>643</ele><time>2019-10-02T11:10:01Z</time><name>PT4521</name></trkpt>
<trkpt lat="54.592497" lon="-3.236087"><ele>644</ele><time>2019-10-02T11:10:02Z</time><name>PT4522</name></trkpt>
<trkpt lat="54.592493" lon="-3.236096"><ele>644</ele><time>2019-10-02T11:10:03Z</time><name>PT4523</name></trkpt>
<trkpt lat="54.592490" lon="-3.236106"><ele>644</ele><time>2019-10-02T11:10:04Z</time><name>PT4524</name></trkpt>
<trkpt lat="54.592491" lon="-3.236113"><ele>644</ele><time>2019-10-02T11:10:05Z</time><name>PT4525</name></trkpt>
<trkpt lat="54.592487" lon="-3.236120"><ele>645</ele><time>2019-10-02T11:10:06Z</time><name>PT4526</name></trkpt>
<trkpt lat="54.592486" lon="-3.236127"><ele>645</ele><time>2019-10-02T11:10:07Z</time><name>PT4527</name></trkpt>
<trkpt lat="54.592485" lon="-3.236135"><ele>645</ele><time>2019-10-02T11:10:08Z</time><name>PT4528</name></trkpt>
<trkpt lat="54.592482" lon="-3.236144"><ele>645</ele><time>2019-10-02T11:10:09Z</time><name>PT4529</name></trkpt>
<trkpt lat="54.592480" lon="-3.236153"><ele>646</ele><time>2019-10-02T11:10:10Z</time><name>PT4530</name></trkpt>
<trkpt lat="54.592478" lon="-3.236159"><ele>646</ele><time>2019-10-02T11:10:11Z</time><name>PT4531</name></trkpt>
<trkpt lat="54.592477" lon="-3.236165"><ele>645</ele><time>2019-10-02T11:10:12Z</time><name>PT4532</name></trkpt>
<trkpt lat="54.592476" lon="-3.236175"><ele>645</ele><time>2019-10-02T11:10:13Z</time><name>PT4533</name></trkpt>
<trkpt lat="54.592473" lon="-3.236184"><ele>646</ele><time>2019-10-02T11:10:14Z</time><name>PT4534</name></trkpt>
<trkpt lat="54.592471" lon="-3.236192"><ele>646</ele><time>2019-10-02T11:10:15Z</time><name>PT4535</name></trkpt>
<trkpt lat="54.592468" lon="-3.236203"><ele>646</ele><time>2019-10-02T11:10:16Z</time><name>PT4536</name></trkpt>
<trkpt lat="54.592465" lon="-3.236212"><ele>646</ele><time>2019-10-02T11:10:17Z</time><name>PT4537</name></trkpt>
<trkpt lat="54.592464" lon="-3.236222"><ele>646</ele><time>2019-10-02T11:10:18Z</time><name>PT4538</name></trkpt>
<trkpt lat="54.592463" lon="-3.236232"><ele>646</ele><time>2019-10-02T11:10:19Z</time><name>PT4539</name></trkpt>
<trkpt lat="54.592464" lon="-3.236243"><ele>646</ele><time>2019-10-02T11:10:20Z</time><name>PT4540</name></trkpt>
<trkpt lat="54.592466" lon="-3.236256"><ele>646</ele><time>2019-10-02T11:10:21Z</time><name>PT4541</name></trkpt>
<trkpt lat="54.592465" lon="-3.236265"><ele>646</ele><time>2019-10-02T11:10:22Z</time><name>PT4542</name></trkpt>
<trkpt lat="54.592460" lon="-3.236274"><ele>647</ele><time>2019-10-02T11:10:23Z</time><name>PT4543</name></trkpt>
<trkpt lat="54.592456" lon="-3.236283"><ele>647</ele><time>2019-10-02T11:10:24Z</time><name>PT4544</name></trkpt>
<trkpt lat="54.592455" lon="-3.236290"><ele>647</ele><time>2019-10-02T11:10:25Z</time><name>PT4545</name></trkpt>
<trkpt lat="54.592453" lon="-3.236300"><ele>647</ele><time>2019-10-02T11:10:26Z</time><name>PT4546</name></trkpt>
<trkpt lat="54.592453" lon="-3.236311"><ele>647</ele><time>2019-10-02T11:10:27Z</time><name>PT4547</name></trkpt>
<trkpt lat="54.592452" lon="-3.236321"><ele>647</ele><time>2019-10-02T11:10:28Z</time><name>PT4548</name></trkpt>
<trkpt lat="54.592448" lon="-3.236332"><ele>647</ele><time>2019-10-02T11:10:29Z</time><name>PT4549</name></trkpt>
<trkpt lat="54.592446" lon="-3.236342"><ele>647</ele><time>2019-10-02T11:10:30Z</time><name>PT4550</name></trkpt>
<trkpt lat="54.592444" lon="-3.236351"><ele>647</ele><time>2019-10-02T11:10:31Z</time><name>PT4551</name></trkpt>
<trkpt lat="54.592443" lon="-3.236361"><ele>648</ele><time>2019-10-02T11:10:32Z</time><name>PT4552</name></trkpt>
<trkpt lat="54.592443" lon="-3.236371"><ele>648</ele><time>2019-10-02T11:10:33Z</time><name>PT4553</name></trkpt>
<trkpt lat="54.592447" lon="-3.236380"><ele>648</ele><time>2019-10-02T11:10:34Z</time><name>PT4554</name></trkpt>
<trkpt lat="54.592449" lon="-3.236389"><ele>648</ele><time>2019-10-02T11:10:35Z</time><name>PT4555</name></trkpt>
<trkpt lat="54.592449" lon="-3.236401"><ele>648</ele><time>2019-10-02T11:10:36Z</time><name>PT4556</name></trkpt>
<trkpt lat="54.592449" lon="-3.236415"><ele>648</ele><time>2019-10-02T11:10:37Z</time><name>PT4557</name></trkpt>
<trkpt lat="54.592447" lon="-3.236428"><ele>649</ele><time>2019-10-02T11:10:38Z</time><name>PT4558</name></trkpt>
<trkpt lat="54.592444" lon="-3.236438"><ele>649</ele><time>2019-10-02T11:10:39Z</time><name>PT4559</name></trkpt>
<trkpt lat="54.592446" lon="-3.236450"><ele>649</ele><time>2019-10-02T11:10:40Z</time><name>PT4560</name></trkpt>
<trkpt lat="54.592445" lon="-3.236461"><ele>649</ele><time>2019-10-02T11:10:41Z</time><name>PT4561</name></trkpt>
<trkpt lat="54.592441" lon="-3.236471"><ele>649</ele><time>2019-10-02T11:10:42Z</time><name>PT4562</name></trkpt>
<trkpt lat="54.592439" lon="-3.236482"><ele>649</ele><time>2019-10-02T11:10:43Z</time><name>PT4563</name></trkpt>
<trkpt lat="54.592440" lon="-3.236490"><ele>650</ele><time>2019-10-02T11:10:44Z</time><name>PT4564</name></trkpt>
<trkpt lat="54.592438" lon="-3.236501"><ele>650</ele><time>2019-10-02T11:10:45Z</time><name>PT4565</name></trkpt>
<trkpt lat="54.592439" lon="-3.236512"><ele>650</ele><time>2019-10-02T11:10:46Z</time><name>PT4566</name></trkpt>
<trkpt lat="54.592437" lon="-3.236521"><ele>650</ele><time>2019-10-02T11:10:47Z</time><name>PT4567</name></trkpt>
<trkpt lat="54.592435" lon="-3.236532"><ele>650</ele><time>2019-10-02T11:10:48Z</time><name>PT4568</name></trkpt>
<trkpt lat="54.592436" lon="-3.236543"><ele>650</ele><time>2019-10-02T11:10:49Z</time><name>PT4569</name></trkpt>
<trkpt lat="54.592435" lon="-3.236553"><ele>651</ele><time>2019-10-02T11:10:50Z</time><name>PT4570</name></trkpt>
<trkpt lat="54.592432" lon="-3.236563"><ele>651</ele><time>2019-10-02T11:10:51Z</time><name>PT4571</name></trkpt>
<trkpt lat="54.592429" lon="-3.236573"><ele>651</ele><time>2019-10-02T11:10:52Z</time><name>PT4572</name></trkpt>
<trkpt lat="54.592427" lon="-3.236581"><ele>651</ele><time>2019-10-02T11:10:53Z</time><name>PT4573</name></trkpt>
<trkpt lat="54.592426" lon="-3.236591"><ele>651</ele><time>2019-10-02T11:10:54Z</time><name>PT4574</name></trkpt>
<trkpt lat="54.592424" lon="-3.236602"><ele>651</ele><time>2019-10-02T11:10:55Z</time><name>PT4575</name></trkpt>
<trkpt lat="54.592423" lon="-3.236611"><ele>652</ele><time>2019-10-02T11:10:56Z</time><name>PT4576</name></trkpt>
<trkpt lat="54.592424" lon="-3.236621"><ele>652</ele><time>2019-10-02T11:10:57Z</time><name>PT4577</name></trkpt>
<trkpt lat="54.592424" lon="-3.236633"><ele>652</ele><time>2019-10-02T11:10:58Z</time><name>PT4578</name></trkpt>
<trkpt lat="54.592422" lon="-3.236645"><ele>652</ele><time>2019-10-02T11:10:59Z</time><name>PT4579</name></trkpt>
<trkpt lat="54.592421" lon="-3.236653"><ele>652</ele><time>2019-10-02T11:11:00Z</time><name>PT4580</name></trkpt>
<trkpt lat="54.592419" lon="-3.236662"><ele>652</ele><time>2019-10-02T11:11:01Z</time><name>PT4581</name></trkpt>
<trkpt lat="54.592416" lon="-3.236672"><ele>652</ele><time>2019-10-02T11:11:02Z</time><name>PT4582</name></trkpt>
<trkpt lat="54.592414" lon="-3.236681"><ele>652</ele><time>2019-10-02T11:11:03Z</time><name>PT4583</name></trkpt>
<trkpt lat="54.592415" lon="-3.236690"><ele>653</ele><time>2019-10-02T11:11:04Z</time><name>PT4584</name></trkpt>
<trkpt lat="54.592414" lon="-3.236700"><ele>653</ele><time>2019-10-02T11:11:05Z</time><name>PT4585</name></trkpt>
<trkpt lat="54.592415" lon="-3.236711"><ele>653</ele><time>2019-10-02T11:11:06Z</time><name>PT4586</name></trkpt>
<trkpt lat="54.592418" lon="-3.236721"><ele>653</ele><time>2019-10-02T11:11:07Z</time><name>PT4587</name></trkpt>
<trkpt lat="54.592419" lon="-3.236732"><ele>654</ele><time>2019-10-02T11:11:08Z</time><name>PT4588</name></trkpt>
<trkpt lat="54.592421" lon="-3.236741"><ele>654</ele><time>2019-10-02T11:11:09Z</time><name>PT4589</name></trkpt>
<trkpt lat="54.592425" lon="-3.236752"><ele>654</ele><time>2019-10-02T11:11:10Z</time><name>PT4590</name></trkpt>
<trkpt lat="54.592427" lon="-3.236761"><ele>654</ele><time>2019-10-02T11:11:11Z</time><name>PT4591</name></trkpt>
<trkpt lat="54.592428" lon="-3.236770"><ele>654</ele><time>2019-10-02T11:11:12Z</time><name>PT4592</name></trkpt>
<trkpt lat="54.592431" lon="-3.236780"><ele>655</ele><time>2019-10-02T11:11:13Z</time><name>PT4593</name></trkpt>
<trkpt lat="54.592431" lon="-3.236789"><ele>655</ele><time>2019-10-02T11:11:14Z</time><name>PT4594</name></trkpt>
<trkpt lat="54.592431" lon="-3.236799"><ele>655</ele><time>2019-10-02T11:11:15Z</time><name>PT4595</name></trkpt>
<trkpt lat="54.592433" lon="-3.236809"><ele>656</ele><time>2019-10-02T11:11:16Z</time><name>PT4596</name></trkpt>
<trkpt lat="54.592432" lon="-3.236819"><ele>656</ele><time>2019-10-02T11:11:17Z</time><name>PT4597</name></trkpt>
<trkpt lat="54.592430" lon="-3.236829"><ele>656</ele><time>2019-10-02T11:11:18Z</time><name>PT4598</name></trkpt>
<trkpt lat="54.592428" lon="-3.236838"><ele>656</ele><time>2019-10-02T11:11:19Z</time><name>PT4599</name></trkpt>
<trkpt lat="54.592426" lon="-3.236843"><ele>656</ele><time>2019-10-02T11:11:20Z</time><name>PT4600</name></trkpt>
<trkpt lat="54.592425" lon="-3.236851"><ele>656</ele><time>2019-10-02T11:11:21Z</time><name>PT4601</name></trkpt>
<trkpt lat="54.592423" lon="-3.236857"><ele>657</ele><time>2019-10-02T11:11:22Z</time><name>PT4602</name></trkpt>
<trkpt lat="54.592419" lon="-3.236862"><ele>657</ele><time>2019-10-02T11:11:23Z</time><name>PT4603</name></trkpt>
<trkpt lat="54.592419" lon="-3.236868"><ele>657</ele><time>2019-10-02T11:11:24Z</time><name>PT4604</name></trkpt>
<trkpt lat="54.592416" lon="-3.236876"><ele>657</ele><time>2019-10-02T11:11:25Z</time><name>PT4605</name></trkpt>
<trkpt lat="54.592418" lon="-3.236881"><ele>657</ele><time>2019-10-02T11:11:26Z</time><name>PT4606</name></trkpt>
<trkpt lat="54.592419" lon="-3.236889"><ele>657</ele><time>2019-10-02T11:11:27Z</time><name>PT4607</name></trkpt>
<trkpt lat="54.592421" lon="-3.236896"><ele>658</ele><time>2019-10-02T11:11:28Z</time><name>PT4608</name></trkpt>
<trkpt lat="54.592422" lon="-3.236904"><ele>658</ele><time>2019-10-02T11:11:29Z</time><name>PT4609</name></trkpt>
<trkpt lat="54.592427" lon="-3.236913"><ele>658</ele><time>2019-10-02T11:11:30Z</time><name>PT4610</name></trkpt>
<trkpt lat="54.592427" lon="-3.236920"><ele>658</ele><time>2019-10-02T11:11:31Z</time><name>PT4611</name></trkpt>
<trkpt lat="54.592426" lon="-3.236930"><ele>658</ele><time>2019-10-02T11:11:32Z</time><name>PT4612</name></trkpt>
<trkpt lat="54.592427" lon="-3.236940"><ele>658</ele><time>2019-10-02T11:11:33Z</time><name>PT4613</name></trkpt>
<trkpt lat="54.592425" lon="-3.236949"><ele>658</ele><time>2019-10-02T11:11:34Z</time><name>PT4614</name></trkpt>
<trkpt lat="54.592423" lon="-3.236958"><ele>659</ele><time>2019-10-02T11:11:35Z</time><name>PT4615</name></trkpt>
<trkpt lat="54.592422" lon="-3.236967"><ele>659</ele><time>2019-10-02T11:11:36Z</time><name>PT4616</name></trkpt>
<trkpt lat="54.592422" lon="-3.236974"><ele>659</ele><time>2019-10-02T11:11:37Z</time><name>PT4617</name></trkpt>
<trkpt lat="54.592421" lon="-3.236982"><ele>659</ele><time>2019-10-02T11:11:38Z</time><name>PT4618</name></trkpt>
<trkpt lat="54.592423" lon="-3.236989"><ele>660</ele><time>2019-10-02T11:11:39Z</time><name>PT4619</name></trkpt>
<trkpt lat="54.592423" lon="-3.236996"><ele>660</ele><time>2019-10-02T11:11:40Z</time><name>PT4620</name></trkpt>
<trkpt lat="54.592423" lon="-3.237005"><ele>660</ele><time>2019-10-02T11:11:41Z</time><name>PT4621</name></trkpt>
<trkpt lat="54.592424" lon="-3.237013"><ele>660</ele><time>2019-10-02T11:11:42Z</time><name>PT4622</name></trkpt>
<trkpt lat="54.592420" lon="-3.237022"><ele>661</ele><time>2019-10-02T11:11:43Z</time><name>PT4623</name></trkpt>
<trkpt lat="54.592418" lon="-3.237027"><ele>661</ele><time>2019-10-02T11:11:44Z</time><name>PT4624</name></trkpt>
<trkpt lat="54.592413" lon="-3.237030"><ele>661</ele><time>2019-10-02T11:11:45Z</time><name>PT4625</name></trkpt>
<trkpt lat="54.592411" lon="-3.237032"><ele>661</ele><time>2019-10-02T11:11:46Z</time><name>PT4626</name></trkpt>
<trkpt lat="54.592408" lon="-3.237025"><ele>661</ele><time>2019-10-02T11:11:48Z</time><name>PT4627</name></trkpt>
<trkpt lat="54.592409" lon="-3.237033"><ele>661</ele><time>2019-10-02T11:11:49Z</time><name>PT4628</name></trkpt>
<trkpt lat="54.592411" lon="-3.237047"><ele>661</ele><time>2019-10-02T11:11:50Z</time><name>PT4629</name></trkpt>
<trkpt lat="54.592415" lon="-3.237060"><ele>661</ele><time>2019-10-02T11:11:51Z</time><name>PT4630</name></trkpt>
<trkpt lat="54.592412" lon="-3.237067"><ele>661</ele><time>2019-10-02T11:11:52Z</time><name>PT4631</name></trkpt>
<trkpt lat="54.592409" lon="-3.237074"><ele>661</ele><time>2019-10-02T11:11:53Z</time><name>PT4632</name></trkpt>
<trkpt lat="54.592408" lon="-3.237082"><ele>662</ele><time>2019-10-02T11:11:54Z</time><name>PT4633</name></trkpt>
<trkpt lat="54.592408" lon="-3.237085"><ele>662</ele><time>2019-10-02T11:11:55Z</time><name>PT4634</name></trkpt>
<trkpt lat="54.592408" lon="-3.237093"><ele>662</ele><time>2019-10-02T11:11:56Z</time><name>PT4635</name></trkpt>
<trkpt lat="54.592408" lon="-3.237103"><ele>662</ele><time>2019-10-02T11:11:57Z</time><name>PT4636</name></trkpt>
<trkpt lat="54.592409" lon="-3.237114"><ele>662</ele><time>2019-10-02T11:11:58Z</time><name>PT4637</name></trkpt>
<trkpt lat="54.592407" lon="-3.237124"><ele>663</ele><time>2019-10-02T11:11:59Z</time><name>PT4638</name></trkpt>
<trkpt lat="54.592404" lon="-3.237134"><ele>663</ele><time>2019-10-02T11:12:00Z</time><name>PT4639</name></trkpt>
<trkpt lat="54.592400" lon="-3.237144"><ele>663</ele><time>2019-10-02T11:12:01Z</time><name>PT4640</name></trkpt>
<trkpt lat="54.592395" lon="-3.237147"><ele>663</ele><time>2019-10-02T11:12:02Z</time><name>PT4641</name></trkpt>
<trkpt lat="54.592391" lon="-3.237150"><ele>664</ele><time>2019-10-02T11:12:03Z</time><name>PT4642</name></trkpt>
<trkpt lat="54.592388" lon="-3.237152"><ele>664</ele><time>2019-10-02T11:12:04Z</time><name>PT4643</name></trkpt>
<trkpt lat="54.592384" lon="-3.237159"><ele>664</ele><time>2019-10-02T11:12:05Z</time><name>PT4644</name></trkpt>
<trkpt lat="54.592382" lon="-3.237169"><ele>665</ele><time>2019-10-02T11:12:06Z</time><name>PT4645</name></trkpt>
<trkpt lat="54.592379" lon="-3.237179"><ele>665</ele><time>2019-10-02T11:12:07Z</time><name>PT4646</name></trkpt>
<trkpt lat="54.592376" lon="-3.237188"><ele>665</ele><time>2019-10-02T11:12:08Z</time><name>PT4647</name></trkpt>
<trkpt lat="54.592373" lon="-3.237198"><ele>665</ele><time>2019-10-02T11:12:09Z</time><name>PT4648</name></trkpt>
<trkpt lat="54.592372" lon="-3.237210"><ele>665</ele><time>2019-10-02T11:12:10Z</time><name>PT4649</name></trkpt>
<trkpt lat="54.592371" lon="-3.237220"><ele>666</ele><time>2019-10-02T11:12:11Z</time><name>PT4650</name></trkpt>
<trkpt lat="54.592370" lon="-3.237229"><ele>666</ele><time>2019-10-02T11:12:12Z</time><name>PT4651</name></trkpt>
<trkpt lat="54.592369" lon="-3.237238"><ele>666</ele><time>2019-10-02T11:12:13Z</time><name>PT4652</name></trkpt>
<trkpt lat="54.592368" lon="-3.237244"><ele>666</ele><time>2019-10-02T11:12:14Z</time><name>PT4653</name></trkpt>
<trkpt lat="54.592366" lon="-3.237254"><ele>666</ele><time>2019-10-02T11:12:15Z</time><name>PT4654</name></trkpt>
<trkpt lat="54.592369" lon="-3.237264"><ele>667</ele><time>2019-10-02T11:12:16Z</time><name>PT4655</name></trkpt>
<trkpt lat="54.592371" lon="-3.237270"><ele>667</ele><time>2019-10-02T11:12:17Z</time><name>PT4656</name></trkpt>
<trkpt lat="54.592370" lon="-3.237280"><ele>667</ele><time>2019-10-02T11:12:18Z</time><name>PT4657</name></trkpt>
<trkpt lat="54.592370" lon="-3.237291"><ele>668</ele><time>2019-10-02T11:12:19Z</time><name>PT4658</name></trkpt>
<trkpt lat="54.592368" lon="-3.237297"><ele>668</ele><time>2019-10-02T11:12:20Z</time><name>PT4659</name></trkpt>
<trkpt lat="54.592368" lon="-3.237305"><ele>668</ele><time>2019-10-02T11:12:21Z</time><name>PT4660</name></trkpt>
<trkpt lat="54.592372" lon="-3.237312"><ele>668</ele><time>2019-10-02T11:12:22Z</time><name>PT4661</name></trkpt>
<trkpt lat="54.592373" lon="-3.237321"><ele>668</ele><time>2019-10-02T11:12:23Z</time><name>PT4662</name></trkpt>
<trkpt lat="54.592371" lon="-3.237329"><ele>668</ele><time>2019-10-02T11:12:24Z</time><name>PT4663</name></trkpt>
<trkpt lat="54.592370" lon="-3.237337"><ele>668</ele><time>2019-10-02T11:12:25Z</time><name>PT4664</name></trkpt>
<trkpt lat="54.592371" lon="-3.237346"><ele>668</ele><time>2019-10-02T11:12:26Z</time><name>PT4665</name></trkpt>
<trkpt lat="54.592375" lon="-3.237355"><ele>669</ele><time>2019-10-02T11:12:27Z</time><name>PT4666</name></trkpt>
<trkpt lat="54.592380" lon="-3.237365"><ele>669</ele><time>2019-10-02T11:12:28Z</time><name>PT4667</name></trkpt>
<trkpt lat="54.592384" lon="-3.237374"><ele>670</ele><time>2019-10-02T11:12:29Z</time><name>PT4668</name></trkpt>
<trkpt lat="54.592383" lon="-3.237382"><ele>670</ele><time>2019-10-02T11:12:30Z</time><name>PT4669</name></trkpt>
<trkpt lat="54.592382" lon="-3.237392"><ele>670</ele><time>2019-10-02T11:12:31Z</time><name>PT4670</name></trkpt>
<trkpt lat="54.592379" lon="-3.237401"><ele>670</ele><time>2019-10-02T11:12:32Z</time><name>PT4671</name></trkpt>
<trkpt lat="54.592378" lon="-3.237408"><ele>670</ele><time>2019-10-02T11:12:33Z</time><name>PT4672</name></trkpt>
<trkpt lat="54.592377" lon="-3.237416"><ele>670</ele><time>2019-10-02T11:12:34Z</time><name>PT4673</name></trkpt>
<trkpt lat="54.592378" lon="-3.237425"><ele>670</ele><time>2019-10-02T11:12:35Z</time><name>PT4674</name></trkpt>
<trkpt lat="54.592377" lon="-3.237431"><ele>671</ele><time>2019-10-02T11:12:36Z</time><name>PT4675</name></trkpt>
<trkpt lat="54.592374" lon="-3.237438"><ele>671</ele><time>2019-10-02T11:12:37Z</time><name>PT4676</name></trkpt>
<trkpt lat="54.592373" lon="-3.237446"><ele>671</ele><time>2019-10-02T11:12:38Z</time><name>PT4677</name></trkpt>
<trkpt lat="54.592374" lon="-3.237452"><ele>671</ele><time>2019-10-02T11:12:39Z</time><name>PT4678</name></trkpt>
<trkpt lat="54.592371" lon="-3.237460"><ele>671</ele><time>2019-10-02T11:12:40Z</time><name>PT4679</name></trkpt>
<trkpt lat="54.592365" lon="-3.237467"><ele>671</ele><time>2019-10-02T11:12:44Z</time><name>PT4680</name></trkpt>
<trkpt lat="54.592360" lon="-3.237478"><ele>672</ele><time>2019-10-02T11:12:45Z</time><name>PT4681</name></trkpt>
<trkpt lat="54.592355" lon="-3.237491"><ele>672</ele><time>2019-10-02T11:12:46Z</time><name>PT4682</name></trkpt>
<trkpt lat="54.592353" lon="-3.237502"><ele>673</ele><time>2019-10-02T11:12:47Z</time><name>PT4683</name></trkpt>
<trkpt lat="54.592351" lon="-3.237509"><ele>673</ele><time>2019-10-02T11:12:48Z</time><name>PT4684</name></trkpt>
<trkpt lat="54.592347" lon="-3.237516"><ele>673</ele><time>2019-10-02T11:12:49Z</time><name>PT4685</name></trkpt>
<trkpt lat="54.592346" lon="-3.237525"><ele>673</ele><time>2019-10-02T11:12:50Z</time><name>PT4686</name></trkpt>
<trkpt lat="54.592343" lon="-3.237537"><ele>673</ele><time>2019-10-02T11:12:51Z</time><name>PT4687</name></trkpt>
<trkpt lat="54.592341" lon="-3.237546"><ele>673</ele><time>2019-10-02T11:12:52Z</time><name>PT4688</name></trkpt>
<trkpt lat="54.592340" lon="-3.237552"><ele>673</ele><time>2019-10-02T11:12:53Z</time><name>PT4689</name></trkpt>
<trkpt lat="54.592339" lon="-3.237555"><ele>673</ele><time>2019-10-02T11:12:54Z</time><name>PT4690</name></trkpt>
<trkpt lat="54.592341" lon="-3.237559"><ele>673</ele><time>2019-10-02T11:12:55Z</time><name>PT4691</name></trkpt>
<trkpt lat="54.592340" lon="-3.237567"><ele>674</ele><time>2019-10-02T11:12:56Z</time><name>PT4692</name></trkpt>
<trkpt lat="54.592338" lon="-3.237575"><ele>674</ele><time>2019-10-02T11:12:57Z</time><name>PT4693</name></trkpt>
<trkpt lat="54.592336" lon="-3.237579"><ele>674</ele><time>2019-10-02T11:12:58Z</time><name>PT4694</name></trkpt>
<trkpt lat="54.592333" lon="-3.237582"><ele>674</ele><time>2019-10-02T11:12:59Z</time><name>PT4695</name></trkpt>
<trkpt lat="54.592329" lon="-3.237587"><ele>675</ele><time>2019-10-02T11:13:00Z</time><name>PT4696</name></trkpt>
<trkpt lat="54.592327" lon="-3.237595"><ele>675</ele><time>2019-10-02T11:13:01Z</time><name>PT4697</name></trkpt>
<trkpt lat="54.592327" lon="-3.237598"><ele>675</ele><time>2019-10-02T11:13:02Z</time><name>PT4698</name></trkpt>
<trkpt lat="54.592330" lon="-3.237605"><ele>675</ele><time>2019-10-02T11:13:03Z</time><name>PT4699</name></trkpt>
<trkpt lat="54.592332" lon="-3.237614"><ele>676</ele><time>2019-10-02T11:13:04Z</time><name>PT4700</name></trkpt>
<trkpt lat="54.592334" lon="-3.237619"><ele>676</ele><time>2019-10-02T11:13:05Z</time><name>PT4701</name></trkpt>
<trkpt lat="54.592334" lon="-3.237621"><ele>676</ele><time>2019-10-02T11:13:06Z</time><name>PT4702</name></trkpt>
<trkpt lat="54.592336" lon="-3.237627"><ele>676</ele><time>2019-10-02T11:13:07Z</time><name>PT4703</name></trkpt>
<trkpt lat="54.592340" lon="-3.237635"><ele>676</ele><time>2019-10-02T11:13:08Z</time><name>PT4704</name></trkpt>
<trkpt lat="54.592344" lon="-3.237640"><ele>676</ele><time>2019-10-02T11:13:09Z</time><name>PT4705</name></trkpt>
<trkpt lat="54.592348" lon="-3.237645"><ele>677</ele><time>2019-10-02T11:13:10Z</time><name>PT4706</name></trkpt>
<trkpt lat="54.592350" lon="-3.237654"><ele>677</ele><time>2019-10-02T11:13:11Z</time><name>PT4707</name></trkpt>
<trkpt lat="54.592353" lon="-3.237661"><ele>677</ele><time>2019-10-02T11:13:12Z</time><name>PT4708</name></trkpt>
<trkpt lat="54.592356" lon="-3.237669"><ele>677</ele><time>2019-10-02T11:13:13Z</time><name>PT4709</name></trkpt>
<trkpt lat="54.592362" lon="-3.237675"><ele>677</ele><time>2019-10-02T11:13:14Z</time><name>PT4710</name></trkpt>
<trkpt lat="54.592365" lon="-3.237679"><ele>678</ele><time>2019-10-02T11:13:15Z</time><name>PT4711</name></trkpt>
<trkpt lat="54.592367" lon="-3.237684"><ele>678</ele><time>2019-10-02T11:13:16Z</time><name>PT4712</name></trkpt>
<trkpt lat="54.592371" lon="-3.237693"><ele>678</ele><time>2019-10-02T11:13:17Z</time><name>PT4713</name></trkpt>
<trkpt lat="54.592370" lon="-3.237700"><ele>678</ele><time>2019-10-02T11:13:18Z</time><name>PT4714</name></trkpt>
<trkpt lat="54.592372" lon="-3.237706"><ele>679</ele><time>2019-10-02T11:13:19Z</time><name>PT4715</name></trkpt>
<trkpt lat="54.592372" lon="-3.237713"><ele>679</ele><time>2019-10-02T11:13:20Z</time><name>PT4716</name></trkpt>
<trkpt lat="54.592372" lon="-3.237719"><ele>679</ele><time>2019-10-02T11:13:21Z</time><name>PT4717</name></trkpt>
<trkpt lat="54.592372" lon="-3.237724"><ele>679</ele><time>2019-10-02T11:13:22Z</time><name>PT4718</name></trkpt>
<trkpt lat="54.592375" lon="-3.237728"><ele>679</ele><time>2019-10-02T11:13:23Z</time><name>PT4719</name></trkpt>
<trkpt lat="54.592379" lon="-3.237732"><ele>679</ele><time>2019-10-02T11:13:24Z</time><name>PT4720</name></trkpt>
<trkpt lat="54.592384" lon="-3.237740"><ele>679</ele><time>2019-10-02T11:13:25Z</time><name>PT4721</name></trkpt>
<trkpt lat="54.592387" lon="-3.237750"><ele>680</ele><time>2019-10-02T11:13:26Z</time><name>PT4722</name></trkpt>
<trkpt lat="54.592386" lon="-3.237760"><ele>680</ele><time>2019-10-02T11:13:27Z</time><name>PT4723</name></trkpt>
<trkpt lat="54.592383" lon="-3.237769"><ele>680</ele><time>2019-10-02T11:13:28Z</time><name>PT4724</name></trkpt>
<trkpt lat="54.592381" lon="-3.237777"><ele>680</ele><time>2019-10-02T11:13:29Z</time><name>PT4725</name></trkpt>
<trkpt lat="54.592380" lon="-3.237780"><ele>680</ele><time>2019-10-02T11:13:30Z</time><name>PT4726</name></trkpt>
<trkpt lat="54.592379" lon="-3.237785"><ele>680</ele><time>2019-10-02T11:13:31Z</time><name>PT4727</name></trkpt>
<trkpt lat="54.592377" lon="-3.237793"><ele>681</ele><time>2019-10-02T11:13:32Z</time><name>PT4728</name></trkpt>
<trkpt lat="54.592373" lon="-3.237799"><ele>681</ele><time>2019-10-02T11:13:33Z</time><name>PT4729</name></trkpt>
<trkpt lat="54.592372" lon="-3.237807"><ele>681</ele><time>2019-10-02T11:13:34Z</time><name>PT4730</name></trkpt>
<trkpt lat="54.592371" lon="-3.237815"><ele>681</ele><time>2019-10-02T11:13:35Z</time><name>PT4731</name></trkpt>
<trkpt lat="54.592371" lon="-3.237822"><ele>682</ele><time>2019-10-02T11:13:36Z</time><name>PT4732</name></trkpt>
<trkpt lat="54.592371" lon="-3.237828"><ele>682</ele><time>2019-10-02T11:13:37Z</time><name>PT4733</name></trkpt>
<trkpt lat="54.592368" lon="-3.237836"><ele>682</ele><time>2019-10-02T11:13:38Z</time><name>PT4734</name></trkpt>
<trkpt lat="54.592368" lon="-3.237844"><ele>682</ele><time>2019-10-02T11:13:39Z</time><name>PT4735</name></trkpt>
<trkpt lat="54.592368" lon="-3.237851"><ele>682</ele><time>2019-10-02T11:13:40Z</time><name>PT4736</name></trkpt>
<trkpt lat="54.592368" lon="-3.237859"><ele>682</ele><time>2019-10-02T11:13:41Z</time><name>PT4737</name></trkpt>
<trkpt lat="54.592369" lon="-3.237867"><ele>683</ele><time>2019-10-02T11:13:42Z</time><name>PT4738</name></trkpt>
<trkpt lat="54.592367" lon="-3.237875"><ele>683</ele><time>2019-10-02T11:13:43Z</time><name>PT4739</name></trkpt>
<trkpt lat="54.592366" lon="-3.237881"><ele>683</ele><time>2019-10-02T11:13:44Z</time><name>PT4740</name></trkpt>
<trkpt lat="54.592363" lon="-3.237888"><ele>683</ele><time>2019-10-02T11:13:45Z</time><name>PT4741</name></trkpt>
<trkpt lat="54.592361" lon="-3.237897"><ele>684</ele><time>2019-10-02T11:13:46Z</time><name>PT4742</name></trkpt>
<trkpt lat="54.592359" lon="-3.237901"><ele>684</ele><time>2019-10-02T11:13:47Z</time><name>PT4743</name></trkpt>
<trkpt lat="54.592356" lon="-3.237907"><ele>684</ele><time>2019-10-02T11:13:48Z</time><name>PT4744</name></trkpt>
<trkpt lat="54.592356" lon="-3.237917"><ele>685</ele><time>2019-10-02T11:13:49Z</time><name>PT4745</name></trkpt>
<trkpt lat="54.592354" lon="-3.237923"><ele>685</ele><time>2019-10-02T11:13:50Z</time><name>PT4746</name></trkpt>
<trkpt lat="54.592352" lon="-3.237927"><ele>685</ele><time>2019-10-02T11:13:51Z</time><name>PT4747</name></trkpt>
<trkpt lat="54.592353" lon="-3.237928"><ele>685</ele><time>2019-10-02T11:13:52Z</time><name>PT4748</name></trkpt>
<trkpt lat="54.592354" lon="-3.237933"><ele>685</ele><time>2019-10-02T11:13:53Z</time><name>PT4749</name></trkpt>
<trkpt lat="54.592353" lon="-3.237937"><ele>686</ele><time>2019-10-02T11:13:54Z</time><name>PT4750</name></trkpt>
<trkpt lat="54.592352" lon="-3.237939"><ele>686</ele><time>2019-10-02T11:13:55Z</time><name>PT4751</name></trkpt>
<trkpt lat="54.592349" lon="-3.237940"><ele>686</ele><time>2019-10-02T11:13:56Z</time><name>PT4752</name></trkpt>
<trkpt lat="54.592349" lon="-3.237943"><ele>686</ele><time>2019-10-02T11:13:57Z</time><name>PT4753</name></trkpt>
<trkpt lat="54.592350" lon="-3.237945"><ele>686</ele><time>2019-10-02T11:13:58Z</time><name>PT4754</name></trkpt>
<trkpt lat="54.592349" lon="-3.237944"><ele>687</ele><time>2019-10-02T11:13:59Z</time><name>PT4755</name></trkpt>
<trkpt lat="54.592349" lon="-3.237945"><ele>687</ele><time>2019-10-02T11:14:00Z</time><name>PT4756</name></trkpt>
<trkpt lat="54.592348" lon="-3.237947"><ele>687</ele><time>2019-10-02T11:14:01Z</time><name>PT4757</name></trkpt>
<trkpt lat="54.592349" lon="-3.237950"><ele>687</ele><time>2019-10-02T11:14:02Z</time><name>PT4758</name></trkpt>
<trkpt lat="54.592346" lon="-3.237949"><ele>687</ele><time>2019-10-02T11:14:03Z</time><name>PT4759</name></trkpt>
<trkpt lat="54.592343" lon="-3.237952"><ele>688</ele><time>2019-10-02T11:14:04Z</time><name>PT4760</name></trkpt>
<trkpt lat="54.592342" lon="-3.237952"><ele>688</ele><time>2019-10-02T11:14:05Z</time><name>PT4761</name></trkpt>
<trkpt lat="54.592340" lon="-3.237953"><ele>688</ele><time>2019-10-02T11:14:06Z</time><name>PT4762</name></trkpt>
<trkpt lat="54.592339" lon="-3.237955"><ele>688</ele><time>2019-10-02T11:14:07Z</time><name>PT4763</name></trkpt>
<trkpt lat="54.592337" lon="-3.237956"><ele>688</ele><time>2019-10-02T11:14:08Z</time><name>PT4764</name></trkpt>
<trkpt lat="54.592336" lon="-3.237960"><ele>688</ele><time>2019-10-02T11:14:09Z</time><name>PT4765</name></trkpt>
<trkpt lat="54.592340" lon="-3.237963"><ele>689</ele><time>2019-10-02T11:14:11Z</time><name>PT4766</name></trkpt>
<trkpt lat="54.592337" lon="-3.237962"><ele>689</ele><time>2019-10-02T11:14:12Z</time><name>PT4767</name></trkpt>
<trkpt lat="54.592336" lon="-3.237965"><ele>689</ele><time>2019-10-02T11:14:13Z</time><name>PT4768</name></trkpt>
<trkpt lat="54.592333" lon="-3.237967"><ele>689</ele><time>2019-10-02T11:14:14Z</time><name>PT4769</name></trkpt>
<trkpt lat="54.592334" lon="-3.237972"><ele>689</ele><time>2019-10-02T11:14:15Z</time><name>PT4770</name></trkpt>
<trkpt lat="54.592333" lon="-3.237976"><ele>690</ele><time>2019-10-02T11:14:16Z</time><name>PT4771</name></trkpt>
<trkpt lat="54.592331" lon="-3.237978"><ele>689</ele><time>2019-10-02T11:14:17Z</time><name>PT4772</name></trkpt>
<trkpt lat="54.592328" lon="-3.237979"><ele>690</ele><time>2019-10-02T11:14:18Z</time><name>PT4773</name></trkpt>
<trkpt lat="54.592326" lon="-3.237988"><ele>691</ele><time>2019-10-02T11:14:19Z</time><name>PT4774</name></trkpt>
<trkpt lat="54.592322" lon="-3.237991"><ele>691</ele><time>2019-10-02T11:14:20Z</time><name>PT4775</name></trkpt>
<trkpt lat="54.592320" lon="-3.237993"><ele>691</ele><time>2019-10-02T11:14:21Z</time><name>PT4776</name></trkpt>
<trkpt lat="54.592316" lon="-3.237993"><ele>691</ele><time>2019-10-02T11:14:22Z</time><name>PT4777</name></trkpt>
<trkpt lat="54.592312" lon="-3.237994"><ele>691</ele><time>2019-10-02T11:14:23Z</time><name>PT4778</name></trkpt>
<trkpt lat="54.592309" lon="-3.237991"><ele>691</ele><time>2019-10-02T11:14:24Z</time><name>PT4779</name></trkpt>
<trkpt lat="54.592310" lon="-3.237993"><ele>692</ele><time>2019-10-02T11:14:25Z</time><name>PT4780</name></trkpt>
<trkpt lat="54.592312" lon="-3.237990"><ele>692</ele><time>2019-10-02T11:14:26Z</time><name>PT4781</name></trkpt>
<trkpt lat="54.592312" lon="-3.237992"><ele>692</ele><time>2019-10-02T11:14:27Z</time><name>PT4782</name></trkpt>
<trkpt lat="54.592313" lon="-3.237997"><ele>692</ele><time>2019-10-02T11:14:28Z</time><name>PT4783</name></trkpt>
<trkpt lat="54.592313" lon="-3.238004"><ele>692</ele><time>2019-10-02T11:14:29Z</time><name>PT4784</name></trkpt>
<trkpt lat="54.592313" lon="-3.238012"><ele>692</ele><time>2019-10-02T11:14:30Z</time><name>PT4785</name></trkpt>
<trkpt lat="54.592310" lon="-3.238015"><ele>692</ele><time>2019-10-02T11:14:31Z</time><name>PT4786</name></trkpt>
<trkpt lat="54.592308" lon="-3.238024"><ele>692</ele><time>2019-10-02T11:14:32Z</time><name>PT4787</name></trkpt>
<trkpt lat="54.592307" lon="-3.238027"><ele>692</ele><time>2019-10-02T11:14:33Z</time><name>PT4788</name></trkpt>
<trkpt lat="54.592305" lon="-3.238027"><ele>692</ele><time>2019-10-02T11:14:34Z</time><name>PT4789</name></trkpt>
<trkpt lat="54.592309" lon="-3.238028"><ele>692</ele><time>2019-10-02T11:14:35Z</time><name>PT4790</name></trkpt>
<trkpt lat="54.592313" lon="-3.238029"><ele>693</ele><time>2019-10-02T11:14:36Z</time><name>PT4791</name></trkpt>
<trkpt lat="54.592313" lon="-3.238032"><ele>693</ele><time>2019-10-02T11:14:37Z</time><name>PT4792</name></trkpt>
<trkpt lat="54.592313" lon="-3.238040"><ele>693</ele><time>2019-10-02T11:14:38Z</time><name>PT4793</name></trkpt>
<trkpt lat="54.592308" lon="-3.238046"><ele>693</ele><time>2019-10-02T11:14:39Z</time><name>PT4794</name></trkpt>
<trkpt lat="54.592307" lon="-3.238051"><ele>694</ele><time>2019-10-02T11:14:40Z</time><name>PT4795</name></trkpt>
<trkpt lat="54.592305" lon="-3.238056"><ele>694</ele><time>2019-10-02T11:14:41Z</time><name>PT4796</name></trkpt>
<trkpt lat="54.592304" lon="-3.238059"><ele>694</ele><time>2019-10-02T11:14:42Z</time><name>PT4797</name></trkpt>
<trkpt lat="54.592303" lon="-3.238066"><ele>694</ele><time>2019-10-02T11:14:43Z</time><name>PT4798</name></trkpt>
<trkpt lat="54.592301" lon="-3.238072"><ele>694</ele><time>2019-10-02T11:14:44Z</time><name>PT4799</name></trkpt>
<trkpt lat="54.592299" lon="-3.238078"><ele>694</ele><time>2019-10-02T11:14:45Z</time><name>PT4800</name></trkpt>
<trkpt lat="54.592297" lon="-3.238084"><ele>694</ele><time>2019-10-02T11:14:46Z</time><name>PT4801</name></trkpt>
<trkpt lat="54.592293" lon="-3.238088"><ele>694</ele><time>2019-10-02T11:14:47Z</time><name>PT4802</name></trkpt>
<trkpt lat="54.592288" lon="-3.238085"><ele>695</ele><time>2019-10-02T11:14:48Z</time><name>PT4803</name></trkpt>
<trkpt lat="54.592288" lon="-3.238088"><ele>695</ele><time>2019-10-02T11:14:49Z</time><name>PT4804</name></trkpt>
<trkpt lat="54.592287" lon="-3.238095"><ele>695</ele><time>2019-10-02T11:14:50Z</time><name>PT4805</name></trkpt>
<trkpt lat="54.592286" lon="-3.238099"><ele>695</ele><time>2019-10-02T11:14:51Z</time><name>PT4806</name></trkpt>
<trkpt lat="54.592288" lon="-3.238104"><ele>695</ele><time>2019-10-02T11:14:52Z</time><name>PT4807</name></trkpt>
<trkpt lat="54.592290" lon="-3.238109"><ele>695</ele><time>2019-10-02T11:14:53Z</time><name>PT4808</name></trkpt>
<trkpt lat="54.592292" lon="-3.238114"><ele>695</ele><time>2019-10-02T11:14:54Z</time><name>PT4809</name></trkpt>
<trkpt lat="54.592297" lon="-3.238128"><ele>696</ele><time>2019-10-02T11:14:58Z</time><name>PT4810</name></trkpt>
<trkpt lat="54.592296" lon="-3.238132"><ele>696</ele><time>2019-10-02T11:14:59Z</time><name>PT4811</name></trkpt>
<trkpt lat="54.592296" lon="-3.238138"><ele>696</ele><time>2019-10-02T11:15:00Z</time><name>PT4812</name></trkpt>
<trkpt lat="54.592294" lon="-3.238146"><ele>696</ele><time>2019-10-02T11:15:01Z</time><name>PT4813</name></trkpt>
<trkpt lat="54.592291" lon="-3.238158"><ele>696</ele><time>2019-10-02T11:15:02Z</time><name>PT4814</name></trkpt>
<trkpt lat="54.592287" lon="-3.238169"><ele>697</ele><time>2019-10-02T11:15:03Z</time><name>PT4815</name></trkpt>
<trkpt lat="54.592284" lon="-3.238171"><ele>697</ele><time>2019-10-02T11:15:04Z</time><name>PT4816</name></trkpt>
<trkpt lat="54.592280" lon="-3.238175"><ele>697</ele><time>2019-10-02T11:15:05Z</time><name>PT4817</name></trkpt>
<trkpt lat="54.592278" lon="-3.238180"><ele>697</ele><time>2019-10-02T11:15:06Z</time><name>PT4818</name></trkpt>
<trkpt lat="54.592277" lon="-3.238186"><ele>697</ele><time>2019-10-02T11:15:07Z</time><name>PT4819</name></trkpt>
<trkpt lat="54.592279" lon="-3.238189"><ele>697</ele><time>2019-10-02T11:15:08Z</time><name>PT4820</name></trkpt>
<trkpt lat="54.592281" lon="-3.238196"><ele>697</ele><time>2019-10-02T11:15:09Z</time><name>PT4821</name></trkpt>
<trkpt lat="54.592282" lon="-3.238203"><ele>697</ele><time>2019-10-02T11:15:10Z</time><name>PT4822</name></trkpt>
<trkpt lat="54.592283" lon="-3.238210"><ele>697</ele><time>2019-10-02T11:15:11Z</time><name>PT4823</name></trkpt>
<trkpt lat="54.592288" lon="-3.238214"><ele>698</ele><time>2019-10-02T11:15:14Z</time><name>PT4824</name></trkpt>
<trkpt lat="54.592291" lon="-3.238227"><ele>698</ele><time>2019-10-02T11:15:15Z</time><name>PT4825</name></trkpt>
<trkpt lat="54.592297" lon="-3.238233"><ele>698</ele><time>2019-10-02T11:15:16Z</time><name>PT4826</name></trkpt>
<trkpt lat="54.592299" lon="-3.238239"><ele>699</ele><time>2019-10-02T11:15:17Z</time><name>PT4827</name></trkpt>
<trkpt lat="54.592298" lon="-3.238248"><ele>699</ele><time>2019-10-02T11:15:18Z</time><name>PT4828</name></trkpt>
<trkpt lat="54.592296" lon="-3.238255"><ele>699</ele><time>2019-10-02T11:15:19Z</time><name>PT4829</name></trkpt>
<trkpt lat="54.592294" lon="-3.238261"><ele>699</ele><time>2019-10-02T11:15:20Z</time><name>PT4830</name></trkpt>
<trkpt lat="54.592293" lon="-3.238269"><ele>699</ele><time>2019-10-02T11:15:21Z</time><name>PT4831</name></trkpt>
<trkpt lat="54.592289" lon="-3.238274"><ele>699</ele><time>2019-10-02T11:15:24Z</time><name>PT4832</name></trkpt>
<trkpt lat="54.592288" lon="-3.238284"><ele>699</ele><time>2019-10-02T11:15:25Z</time><name>PT4833</name></trkpt>
<trkpt lat="54.592287" lon="-3.238294"><ele>700</ele><time>2019-10-02T11:15:26Z</time><name>PT4834</name></trkpt>
<trkpt lat="54.592288" lon="-3.238304"><ele>700</ele><time>2019-10-02T11:15:27Z</time><name>PT4835</name></trkpt>
<trkpt lat="54.592290" lon="-3.238314"><ele>701</ele><time>2019-10-02T11:15:28Z</time><name>PT4836</name></trkpt>
<trkpt lat="54.592294" lon="-3.238320"><ele>701</ele><time>2019-10-02T11:15:29Z</time><name>PT4837</name></trkpt>
<trkpt lat="54.592291" lon="-3.238330"><ele>701</ele><time>2019-10-02T11:15:30Z</time><name>PT4838</name></trkpt>
<trkpt lat="54.592288" lon="-3.238337"><ele>702</ele><time>2019-10-02T11:15:31Z</time><name>PT4839</name></trkpt>
<trkpt lat="54.592286" lon="-3.238346"><ele>702</ele><time>2019-10-02T11:15:32Z</time><name>PT4840</name></trkpt>
<trkpt lat="54.592286" lon="-3.238350"><ele>702</ele><time>2019-10-02T11:15:33Z</time><name>PT4841</name></trkpt>
<trkpt lat="54.592288" lon="-3.238357"><ele>702</ele><time>2019-10-02T11:15:34Z</time><name>PT4842</name></trkpt>
<trkpt lat="54.592291" lon="-3.238362"><ele>703</ele><time>2019-10-02T11:15:35Z</time><name>PT4843</name></trkpt>
<trkpt lat="54.592292" lon="-3.238367"><ele>703</ele><time>2019-10-02T11:15:36Z</time><name>PT4844</name></trkpt>
<trkpt lat="54.592292" lon="-3.238372"><ele>703</ele><time>2019-10-02T11:15:37Z</time><name>PT4845</name></trkpt>
<trkpt lat="54.592294" lon="-3.238378"><ele>703</ele><time>2019-10-02T11:15:38Z</time><name>PT4846</name></trkpt>
<trkpt lat="54.592294" lon="-3.238384"><ele>703</ele><time>2019-10-02T11:15:39Z</time><name>PT4847</name></trkpt>
<trkpt lat="54.592292" lon="-3.238389"><ele>703</ele><time>2019-10-02T11:15:44Z</time><name>PT4848</name></trkpt>
<trkpt lat="54.592291" lon="-3.238401"><ele>704</ele><time>2019-10-02T11:15:45Z</time><name>PT4849</name></trkpt>
<trkpt lat="54.592294" lon="-3.238410"><ele>704</ele><time>2019-10-02T11:15:46Z</time><name>PT4850</name></trkpt>
<trkpt lat="54.592293" lon="-3.238418"><ele>704</ele><time>2019-10-02T11:15:47Z</time><name>PT4851</name></trkpt>
<trkpt lat="54.592292" lon="-3.238429"><ele>705</ele><time>2019-10-02T11:15:48Z</time><name>PT4852</name></trkpt>
<trkpt lat="54.592290" lon="-3.238437"><ele>705</ele><time>2019-10-02T11:15:49Z</time><name>PT4853</name></trkpt>
<trkpt lat="54.592289" lon="-3.238443"><ele>705</ele><time>2019-10-02T11:15:50Z</time><name>PT4854</name></trkpt>
<trkpt lat="54.592288" lon="-3.238449"><ele>705</ele><time>2019-10-02T11:15:51Z</time><name>PT4855</name></trkpt>
<trkpt lat="54.592289" lon="-3.238461"><ele>706</ele><time>2019-10-02T11:16:01Z</time><name>PT4856</name></trkpt>
<trkpt lat="54.592288" lon="-3.238461"><ele>706</ele><time>2019-10-02T11:16:02Z</time><name>PT4857</name></trkpt>
<trkpt lat="54.592284" lon="-3.238470"><ele>706</ele><time>2019-10-02T11:16:03Z</time><name>PT4858</name></trkpt>
<trkpt lat="54.592282" lon="-3.238475"><ele>706</ele><time>2019-10-02T11:16:04Z</time><name>PT4859</name></trkpt>
<trkpt lat="54.592275" lon="-3.238481"><ele>707</ele><time>2019-10-02T11:16:05Z</time><name>PT4860</name></trkpt>
<trkpt lat="54.592269" lon="-3.238488"><ele>707</ele><time>2019-10-02T11:16:06Z</time><name>PT4861</name></trkpt>
<trkpt lat="54.592261" lon="-3.238493"><ele>707</ele><time>2019-10-02T11:16:11Z</time><name>PT4862</name></trkpt>
<trkpt lat="54.592260" lon="-3.238506"><ele>707</ele><time>2019-10-02T11:16:12Z</time><name>PT4863</name></trkpt>
<trkpt lat="54.592260" lon="-3.238517"><ele>708</ele><time>2019-10-02T11:16:13Z</time><name>PT4864</name></trkpt>
<trkpt lat="54.592257" lon="-3.238527"><ele>708</ele><time>2019-10-02T11:16:14Z</time><name>PT4865</name></trkpt>
<trkpt lat="54.592255" lon="-3.238535"><ele>709</ele><time>2019-10-02T11:16:15Z</time><name>PT4866</name></trkpt>
<trkpt lat="54.592253" lon="-3.238546"><ele>709</ele><time>2019-10-02T11:16:16Z</time><name>PT4867</name></trkpt>
<trkpt lat="54.592253" lon="-3.238554"><ele>709</ele><time>2019-10-02T11:16:17Z</time><name>PT4868</name></trkpt>
<trkpt lat="54.592248" lon="-3.238559"><ele>709</ele><time>2019-10-02T11:16:21Z</time><name>PT4869</name></trkpt>
<trkpt lat="54.592245" lon="-3.238572"><ele>709</ele><time>2019-10-02T11:16:22Z</time><name>PT4870</name></trkpt>
<trkpt lat="54.592240" lon="-3.238583"><ele>710</ele><time>2019-10-02T11:16:23Z</time><name>PT4871</name></trkpt>
<trkpt lat="54.592234" lon="-3.238594"><ele>710</ele><time>2019-10-02T11:16:24Z</time><name>PT4872</name></trkpt>
<trkpt lat="54.592231" lon="-3.238608"><ele>710</ele><time>2019-10-02T11:16:25Z</time><name>PT4873</name></trkpt>
<trkpt lat="54.592228" lon="-3.238615"><ele>711</ele><time>2019-10-02T11:16:26Z</time><name>PT4874</name></trkpt>
<trkpt lat="54.592227" lon="-3.238621"><ele>711</ele><time>2019-10-02T11:16:27Z</time><name>PT4875</name></trkpt>
<trkpt lat="54.592226" lon="-3.238631"><ele>711</ele><time>2019-10-02T11:16:28Z</time><name>PT4876</name></trkpt>
<trkpt lat="54.592226" lon="-3.238640"><ele>711</ele><time>2019-10-02T11:16:29Z</time><name>PT4877</name></trkpt>
<trkpt lat="54.592228" lon="-3.238649"><ele>711</ele><time>2019-10-02T11:16:30Z</time><name>PT4878</name></trkpt>
<trkpt lat="54.592228" lon="-3.238658"><ele>711</ele><time>2019-10-02T11:16:31Z</time><name>PT4879</name></trkpt>
<trkpt lat="54.592229" lon="-3.238665"><ele>712</ele><time>2019-10-02T11:16:32Z</time><name>PT4880</name></trkpt>
<trkpt lat="54.592229" lon="-3.238673"><ele>712</ele><time>2019-10-02T11:16:33Z</time><name>PT4881</name></trkpt>
<trkpt lat="54.592229" lon="-3.238682"><ele>712</ele><time>2019-10-02T11:16:34Z</time><name>PT4882</name></trkpt>
<trkpt lat="54.592231" lon="-3.238698"><ele>712</ele><time>2019-10-02T11:16:37Z</time><name>PT4883</name></trkpt>
<trkpt lat="54.592226" lon="-3.238709"><ele>713</ele><time>2019-10-02T11:16:38Z</time><name>PT4884</name></trkpt>
<trkpt lat="54.592221" lon="-3.238718"><ele>713</ele><time>2019-10-02T11:16:39Z</time><name>PT4885</name></trkpt>
<trkpt lat="54.592218" lon="-3.238722"><ele>713</ele><time>2019-10-02T11:16:40Z</time><name>PT4886</name></trkpt>
<trkpt lat="54.592217" lon="-3.238731"><ele>714</ele><time>2019-10-02T11:16:41Z</time><name>PT4887</name></trkpt>
<trkpt lat="54.592216" lon="-3.238740"><ele>714</ele><time>2019-10-02T11:16:42Z</time><name>PT4888</name></trkpt>
<trkpt lat="54.592217" lon="-3.238748"><ele>714</ele><time>2019-10-02T11:16:43Z</time><name>PT4889</name></trkpt>
<trkpt lat="54.592214" lon="-3.238762"><ele>714</ele><time>2019-10-02T11:16:44Z</time><name>PT4890</name></trkpt>
<trkpt lat="54.592212" lon="-3.238770"><ele>714</ele><time>2019-10-02T11:16:45Z</time><name>PT4891</name></trkpt>
<trkpt lat="54.592213" lon="-3.238778"><ele>714</ele><time>2019-10-02T11:16:46Z</time><name>PT4892</name></trkpt>
<trkpt lat="54.592211" lon="-3.238785"><ele>714</ele><time>2019-10-02T11:16:47Z</time><name>PT4893</name></trkpt>
<trkpt lat="54.592210" lon="-3.238793"><ele>714</ele><time>2019-10-02T11:16:48Z</time><name>PT4894</name></trkpt>
<trkpt lat="54.592210" lon="-3.238798"><ele>714</ele><time>2019-10-02T11:16:49Z</time><name>PT4895</name></trkpt>
<trkpt lat="54.592211" lon="-3.238802"><ele>715</ele><time>2019-10-02T11:16:50Z</time><name>PT4896</name></trkpt>
<trkpt lat="54.592208" lon="-3.238807"><ele>715</ele><time>2019-10-02T11:16:51Z</time><name>PT4897</name></trkpt>
<trkpt lat="54.592207" lon="-3.238815"><ele>715</ele><time>2019-10-02T11:16:52Z</time><name>PT4898</name></trkpt>
<trkpt lat="54.592211" lon="-3.238823"><ele>715</ele><time>2019-10-02T11:16:53Z</time><name>PT4899</name></trkpt>
<trkpt lat="54.592211" lon="-3.238831"><ele>715</ele><time>2019-10-02T11:16:54Z</time><name>PT4900</name></trkpt>
<trkpt lat="54.592210" lon="-3.238838"><ele>715</ele><time>2019-10-02T11:16:55Z</time><name>PT4901</name></trkpt>
<trkpt lat="54.592209" lon="-3.238847"><ele>715</ele><time>2019-10-02T11:16:56Z</time><name>PT4902</name></trkpt>
<trkpt lat="54.592206" lon="-3.238855"><ele>715</ele><time>2019-10-02T11:16:57Z</time><name>PT4903</name></trkpt>
<trkpt lat="54.592205" lon="-3.238858"><ele>716</ele><time>2019-10-02T11:16:58Z</time><name>PT4904</name></trkpt>
<trkpt lat="54.592203" lon="-3.238863"><ele>716</ele><time>2019-10-02T11:16:59Z</time><name>PT4905</name></trkpt>
<trkpt lat="54.592204" lon="-3.238869"><ele>716</ele><time>2019-10-02T11:17:00Z</time><name>PT4906</name></trkpt>
<trkpt lat="54.592206" lon="-3.238876"><ele>717</ele><time>2019-10-02T11:17:01Z</time><name>PT4907</name></trkpt>
<trkpt lat="54.592207" lon="-3.238882"><ele>717</ele><time>2019-10-02T11:17:02Z</time><name>PT4908</name></trkpt>
<trkpt lat="54.592207" lon="-3.238886"><ele>716</ele><time>2019-10-02T11:17:03Z</time><name>PT4909</name></trkpt>
<trkpt lat="54.592208" lon="-3.238889"><ele>716</ele><time>2019-10-02T11:17:04Z</time><name>PT4910</name></trkpt>
<trkpt lat="54.592211" lon="-3.238896"><ele>717</ele><time>2019-10-02T11:17:05Z</time><name>PT4911</name></trkpt>
<trkpt lat="54.592212" lon="-3.238903"><ele>717</ele><time>2019-10-02T11:17:06Z</time><name>PT4912</name></trkpt>
<trkpt lat="54.592213" lon="-3.238909"><ele>717</ele><time>2019-10-02T11:17:07Z</time><name>PT4913</name></trkpt>
<trkpt lat="54.592214" lon="-3.238918"><ele>717</ele><time>2019-10-02T11:17:08Z</time><name>PT4914</name></trkpt>
<trkpt lat="54.592213" lon="-3.238926"><ele>717</ele><time>2019-10-02T11:17:09Z</time><name>PT4915</name></trkpt>
<trkpt lat="54.592213" lon="-3.238931"><ele>718</ele><time>2019-10-02T11:17:11Z</time><name>PT4916</name></trkpt>
<trkpt lat="54.592217" lon="-3.238936"><ele>718</ele><time>2019-10-02T11:17:12Z</time><name>PT4917</name></trkpt>
<trkpt lat="54.592220" lon="-3.238942"><ele>718</ele><time>2019-10-02T11:17:13Z</time><name>PT4918</name></trkpt>
<trkpt lat="54.592223" lon="-3.238951"><ele>718</ele><time>2019-10-02T11:17:14Z</time><name>PT4919</name></trkpt>
<trkpt lat="54.592225" lon="-3.238962"><ele>718</ele><time>2019-10-02T11:17:15Z</time><name>PT4920</name></trkpt>
<trkpt lat="54.592226" lon="-3.238971"><ele>719</ele><time>2019-10-02T11:17:16Z</time><name>PT4921</name></trkpt>
<trkpt lat="54.592228" lon="-3.238980"><ele>719</ele><time>2019-10-02T11:17:17Z</time><name>PT4922</name></trkpt>
<trkpt lat="54.592228" lon="-3.238983"><ele>719</ele><time>2019-10-02T11:17:20Z</time><name>PT4923</name></trkpt>
<trkpt lat="54.592224" lon="-3.238990"><ele>719</ele><time>2019-10-02T11:17:21Z</time><name>PT4924</name></trkpt>
<trkpt lat="54.592224" lon="-3.238996"><ele>719</ele><time>2019-10-02T11:17:22Z</time><name>PT4925</name></trkpt>
<trkpt lat="54.592226" lon="-3.239007"><ele>719</ele><time>2019-10-02T11:17:23Z</time><name>PT4926</name></trkpt>
<trkpt lat="54.592229" lon="-3.239015"><ele>719</ele><time>2019-10-02T11:17:24Z</time><name>PT4927</name></trkpt>
<trkpt lat="54.592231" lon="-3.239020"><ele>720</ele><time>2019-10-02T11:17:25Z</time><name>PT4928</name></trkpt>
<trkpt lat="54.592233" lon="-3.239032"><ele>720</ele><time>2019-10-02T11:17:26Z</time><name>PT4929</name></trkpt>
<trkpt lat="54.592233" lon="-3.239040"><ele>720</ele><time>2019-10-02T11:17:27Z</time><name>PT4930</name></trkpt>
<trkpt lat="54.592233" lon="-3.239050"><ele>721</ele><time>2019-10-02T11:17:28Z</time><name>PT4931</name></trkpt>
<trkpt lat="54.592230" lon="-3.239061"><ele>721</ele><time>2019-10-02T11:17:29Z</time><name>PT4932</name></trkpt>
<trkpt lat="54.592228" lon="-3.239069"><ele>721</ele><time>2019-10-02T11:17:30Z</time><name>PT4933</name></trkpt>
<trkpt lat="54.592229" lon="-3.239077"><ele>721</ele><time>2019-10-02T11:17:31Z</time><name>PT4934</name></trkpt>
<trkpt lat="54.592229" lon="-3.239086"><ele>722</ele><time>2019-10-02T11:17:32Z</time><name>PT4935</name></trkpt>
<trkpt lat="54.592231" lon="-3.239092"><ele>722</ele><time>2019-10-02T11:17:33Z</time><name>PT4936</name></trkpt>
<trkpt lat="54.592229" lon="-3.239097"><ele>722</ele><time>2019-10-02T11:17:34Z</time><name>PT4937</name></trkpt>
<trkpt lat="54.592228" lon="-3.239103"><ele>722</ele><time>2019-10-02T11:17:35Z</time><name>PT4938</name></trkpt>
<trkpt lat="54.592226" lon="-3.239111"><ele>722</ele><time>2019-10-02T11:17:36Z</time><name>PT4939</name></trkpt>
<trkpt lat="54.592221" lon="-3.239116"><ele>722</ele><time>2019-10-02T11:17:39Z</time><name>PT4940</name></trkpt>
<trkpt lat="54.592219" lon="-3.239129"><ele>722</ele><time>2019-10-02T11:17:40Z</time><name>PT4941</name></trkpt>
<trkpt lat="54.592220" lon="-3.239140"><ele>723</ele><time>2019-10-02T11:17:41Z</time><name>PT4942</name></trkpt>
<trkpt lat="54.592220" lon="-3.239151"><ele>723</ele><time>2019-10-02T11:17:42Z</time><name>PT4943</name></trkpt>
<trkpt lat="54.592224" lon="-3.239164"><ele>723</ele><time>2019-10-02T11:17:43Z</time><name>PT4944</name></trkpt>
<trkpt lat="54.592223" lon="-3.239175"><ele>724</ele><time>2019-10-02T11:17:44Z</time><name>PT4945</name></trkpt>
<trkpt lat="54.592224" lon="-3.239183"><ele>724</ele><time>2019-10-02T11:17:45Z</time><name>PT4946</name></trkpt>
<trkpt lat="54.592224" lon="-3.239194"><ele>724</ele><time>2019-10-02T11:17:46Z</time><name>PT4947</name></trkpt>
<trkpt lat="54.592225" lon="-3.239201"><ele>725</ele><time>2019-10-02T11:17:47Z</time><name>PT4948</name></trkpt>
<trkpt lat="54.592225" lon="-3.239207"><ele>725</ele><time>2019-10-02T11:17:48Z</time><name>PT4949</name></trkpt>
<trkpt lat="54.592225" lon="-3.239211"><ele>725</ele><time>2019-10-02T11:17:49Z</time><name>PT4950</name></trkpt>
<trkpt lat="54.592228" lon="-3.239218"><ele>725</ele><time>2019-10-02T11:17:50Z</time><name>PT4951</name></trkpt>
<trkpt lat="54.592227" lon="-3.239225"><ele>725</ele><time>2019-10-02T11:17:51Z</time><name>PT4952</name></trkpt>
<trkpt lat="54.592227" lon="-3.239235"><ele>725</ele><time>2019-10-02T11:17:52Z</time><name>PT4953</name></trkpt>
<trkpt lat="54.592221" lon="-3.239240"><ele>725</ele><time>2019-10-02T11:17:53Z</time><name>PT4954</name></trkpt>
<trkpt lat="54.592216" lon="-3.239246"><ele>725</ele><time>2019-10-02T11:17:54Z</time><name>PT4955</name></trkpt>
<trkpt lat="54.592212" lon="-3.239252"><ele>725</ele><time>2019-10-02T11:17:55Z</time><name>PT4956</name></trkpt>
<trkpt lat="54.592211" lon="-3.239258"><ele>725</ele><time>2019-10-02T11:17:56Z</time><name>PT4957</name></trkpt>
<trkpt lat="54.592210" lon="-3.239264"><ele>725</ele><time>2019-10-02T11:17:57Z</time><name>PT4958</name></trkpt>
<trkpt lat="54.592210" lon="-3.239269"><ele>726</ele><time>2019-10-02T11:17:58Z</time><name>PT4959</name></trkpt>
<trkpt lat="54.592216" lon="-3.239273"><ele>726</ele><time>2019-10-02T11:18:05Z</time><name>PT4960</name></trkpt>
<trkpt lat="54.592216" lon="-3.239289"><ele>727</ele><time>2019-10-02T11:18:06Z</time><name>PT4961</name></trkpt>
<trkpt lat="54.592219" lon="-3.239301"><ele>727</ele><time>2019-10-02T11:18:07Z</time><name>PT4962</name></trkpt>
<trkpt lat="54.592221" lon="-3.239312"><ele>728</ele><time>2019-10-02T11:18:08Z</time><name>PT4963</name></trkpt>
<trkpt lat="54.592220" lon="-3.239320"><ele>728</ele><time>2019-10-02T11:18:09Z</time><name>PT4964</name></trkpt>
<trkpt lat="54.592218" lon="-3.239329"><ele>728</ele><time>2019-10-02T11:18:10Z</time><name>PT4965</name></trkpt>
<trkpt lat="54.592215" lon="-3.239337"><ele>728</ele><time>2019-10-02T11:18:11Z</time><name>PT4966</name></trkpt>
<trkpt lat="54.592214" lon="-3.239344"><ele>728</ele><time>2019-10-02T11:18:12Z</time><name>PT4967</name></trkpt>
<trkpt lat="54.592213" lon="-3.239355"><ele>728</ele><time>2019-10-02T11:18:13Z</time><name>PT4968</name></trkpt>
<trkpt lat="54.592214" lon="-3.239365"><ele>729</ele><time>2019-10-02T11:18:14Z</time><name>PT4969</name></trkpt>
<trkpt lat="54.592214" lon="-3.239373"><ele>729</ele><time>2019-10-02T11:18:15Z</time><name>PT4970</name></trkpt>
<trkpt lat="54.592217" lon="-3.239382"><ele>729</ele><time>2019-10-02T11:18:16Z</time><name>PT4971</name></trkpt>
<trkpt lat="54.592215" lon="-3.239389"><ele>730</ele><time>2019-10-02T11:18:17Z</time><name>PT4972</name></trkpt>
<trkpt lat="54.592211" lon="-3.239397"><ele>730</ele><time>2019-10-02T11:18:18Z</time><name>PT4973</name></trkpt>
<trkpt lat="54.592207" lon="-3.239403"><ele>730</ele><time>2019-10-02T11:18:19Z</time><name>PT4974</name></trkpt>
<trkpt lat="54.592206" lon="-3.239408"><ele>730</ele><time>2019-10-02T11:18:20Z</time><name>PT4975</name></trkpt>
<trkpt lat="54.592206" lon="-3.239414"><ele>730</ele><time>2019-10-02T11:18:21Z</time><name>PT4976</name></trkpt>
<trkpt lat="54.592206" lon="-3.239418"><ele>730</ele><time>2019-10-02T11:18:22Z</time><name>PT4977</name></trkpt>
<trkpt lat="54.592205" lon="-3.239424"><ele>730</ele><time>2019-10-02T11:18:23Z</time><name>PT4978</name></trkpt>
<trkpt lat="54.592204" lon="-3.239428"><ele>730</ele><time>2019-10-02T11:18:24Z</time><name>PT4979</name></trkpt>
<trkpt lat="54.592203" lon="-3.239433"><ele>731</ele><time>2019-10-02T11:18:25Z</time><name>PT4980</name></trkpt>
<trkpt lat="54.592203" lon="-3.239439"><ele>731</ele><time>2019-10-02T11:18:26Z</time><name>PT4981</name></trkpt>
<trkpt lat="54.592202" lon="-3.239446"><ele>731</ele><time>2019-10-02T11:18:27Z</time><name>PT4982</name></trkpt>
<trkpt lat="54.592200" lon="-3.239452"><ele>731</ele><time>2019-10-02T11:18:28Z</time><name>PT4983</name></trkpt>
<trkpt lat="54.592196" lon="-3.239458"><ele>731</ele><time>2019-10-02T11:18:29Z</time><name>PT4984</name></trkpt>
<trkpt lat="54.592193" lon="-3.239462"><ele>731</ele><time>2019-10-02T11:18:30Z</time><name>PT4985</name></trkpt>
<trkpt lat="54.592191" lon="-3.239464"><ele>731</ele><time>2019-10-02T11:18:31Z</time><name>PT4986</name></trkpt>
<trkpt lat="54.592188" lon="-3.239463"><ele>731</ele><time>2019-10-02T11:18:32Z</time><name>PT4987</name></trkpt>
<trkpt lat="54.592185" lon="-3.239466"><ele>731</ele><time>2019-10-02T11:18:33Z</time><name>PT4988</name></trkpt>
<trkpt lat="54.592184" lon="-3.239473"><ele>732</ele><time>2019-10-02T11:18:34Z</time><name>PT4989</name></trkpt>
<trkpt lat="54.592181" lon="-3.239480"><ele>732</ele><time>2019-10-02T11:18:35Z</time><name>PT4990</name></trkpt>
<trkpt lat="54.592183" lon="-3.239482"><ele>733</ele><time>2019-10-02T11:18:36Z</time><name>PT4991</name></trkpt>
<trkpt lat="54.592183" lon="-3.239493"><ele>733</ele><time>2019-10-02T11:18:37Z</time><name>PT4992</name></trkpt>
<trkpt lat="54.592185" lon="-3.239503"><ele>734</ele><time>2019-10-02T11:18:38Z</time><name>PT4993</name></trkpt>
<trkpt lat="54.592185" lon="-3.239509"><ele>734</ele><time>2019-10-02T11:18:39Z</time><name>PT4994</name></trkpt>
<trkpt lat="54.592184" lon="-3.239516"><ele>734</ele><time>2019-10-02T11:18:40Z</time><name>PT4995</name></trkpt>
<trkpt lat="54.592183" lon="-3.239522"><ele>734</ele><time>2019-10-02T11:18:41Z</time><name>PT4996</name></trkpt>
<trkpt lat="54.592179" lon="-3.239527"><ele>735</ele><time>2019-10-02T11:18:50Z</time><name>PT4997</name></trkpt>
<trkpt lat="54.592177" lon="-3.239538"><ele>736</ele><time>2019-10-02T11:18:51Z</time><name>PT4998</name></trkpt>
<trkpt lat="54.592176" lon="-3.239556"><ele>736</ele><time>2019-10-02T11:18:52Z</time><name>PT4999</name></trkpt>
<trkpt lat="54.592177" lon="-3.239565"><ele>736</ele><time>2019-10-02T11:18:53Z</time><name>PT5000</name></trkpt>
<trkpt lat="54.592177" lon="-3.239574"><ele>736</ele><time>2019-10-02T11:18:54Z</time><name>PT5001</name></trkpt>
<trkpt lat="54.592178" lon="-3.239585"><ele>736</ele><time>2019-10-02T11:18:55Z</time><name>PT5002</name></trkpt>
<trkpt lat="54.592176" lon="-3.239597"><ele>736</ele><time>2019-10-02T11:19:01Z</time><name>PT5003</name></trkpt>
<trkpt lat="54.592181" lon="-3.239604"><ele>736</ele><time>2019-10-02T11:19:02Z</time><name>PT5004</name></trkpt>
<trkpt lat="54.592183" lon="-3.239618"><ele>737</ele><time>2019-10-02T11:19:03Z</time><name>PT5005</name></trkpt>
<trkpt lat="54.592184" lon="-3.239625"><ele>737</ele><time>2019-10-02T11:19:04Z</time><name>PT5006</name></trkpt>
<trkpt lat="54.592188" lon="-3.239640"><ele>737</ele><time>2019-10-02T11:19:05Z</time><name>PT5007</name></trkpt>
<trkpt lat="54.592192" lon="-3.239653"><ele>737</ele><time>2019-10-02T11:19:06Z</time><name>PT5008</name></trkpt>
<trkpt lat="54.592195" lon="-3.239662"><ele>738</ele><time>2019-10-02T11:19:07Z</time><name>PT5009</name></trkpt>
<trkpt lat="54.592195" lon="-3.239670"><ele>738</ele><time>2019-10-02T11:19:08Z</time><name>PT5010</name></trkpt>
<trkpt lat="54.592198" lon="-3.239680"><ele>739</ele><time>2019-10-02T11:19:09Z</time><name>PT5011</name></trkpt>
<trkpt lat="54.592197" lon="-3.239686"><ele>739</ele><time>2019-10-02T11:19:10Z</time><name>PT5012</name></trkpt>
<trkpt lat="54.592196" lon="-3.239692"><ele>739</ele><time>2019-10-02T11:19:11Z</time><name>PT5013</name></trkpt>
<trkpt lat="54.592196" lon="-3.239699"><ele>739</ele><time>2019-10-02T11:19:12Z</time><name>PT5014</name></trkpt>
<trkpt lat="54.592192" lon="-3.239706"><ele>739</ele><time>2019-10-02T11:19:13Z</time><name>PT5015</name></trkpt>
<trkpt lat="54.592196" lon="-3.239713"><ele>739</ele><time>2019-10-02T11:19:21Z</time><name>PT5016</name></trkpt>
<trkpt lat="54.592199" lon="-3.239727"><ele>740</ele><time>2019-10-02T11:19:22Z</time><name>PT5017</name></trkpt>
<trkpt lat="54.592202" lon="-3.239738"><ele>740</ele><time>2019-10-02T11:19:23Z</time><name>PT5018</name></trkpt>
<trkpt lat="54.592202" lon="-3.239752"><ele>740</ele><time>2019-10-02T11:19:24Z</time><name>PT5019</name></trkpt>
<trkpt lat="54.592205" lon="-3.239764"><ele>741</ele><time>2019-10-02T11:19:25Z</time><name>PT5020</name></trkpt>
<trkpt lat="54.592206" lon="-3.239773"><ele>741</ele><time>2019-10-02T11:19:26Z</time><name>PT5021</name></trkpt>
<trkpt lat="54.592209" lon="-3.239782"><ele>741</ele><time>2019-10-02T11:19:27Z</time><name>PT5022</name></trkpt>
<trkpt lat="54.592209" lon="-3.239790"><ele>741</ele><time>2019-10-02T11:19:28Z</time><name>PT5023</name></trkpt>
<trkpt lat="54.592212" lon="-3.239799"><ele>742</ele><time>2019-10-02T11:19:29Z</time><name>PT5024</name></trkpt>
<trkpt lat="54.592212" lon="-3.239809"><ele>742</ele><time>2019-10-02T11:19:30Z</time><name>PT5025</name></trkpt>
<trkpt lat="54.592213" lon="-3.239817"><ele>742</ele><time>2019-10-02T11:19:31Z</time><name>PT5026</name></trkpt>
<trkpt lat="54.592213" lon="-3.239823"><ele>743</ele><time>2019-10-02T11:19:32Z</time><name>PT5027</name></trkpt>
<trkpt lat="54.592210" lon="-3.239831"><ele>743</ele><time>2019-10-02T11:19:33Z</time><name>PT5028</name></trkpt>
<trkpt lat="54.592207" lon="-3.239839"><ele>743</ele><time>2019-10-02T11:19:34Z</time><name>PT5029</name></trkpt>
<trkpt lat="54.592203" lon="-3.239843"><ele>744</ele><time>2019-10-02T11:19:35Z</time><name>PT5030</name></trkpt>
<trkpt lat="54.592202" lon="-3.239848"><ele>744</ele><time>2019-10-02T11:19:36Z</time><name>PT5031</name></trkpt>
<trkpt lat="54.592202" lon="-3.239857"><ele>744</ele><time>2019-10-02T11:19:37Z</time><name>PT5032</name></trkpt>
<trkpt lat="54.592204" lon="-3.239867"><ele>745</ele><time>2019-10-02T11:19:38Z</time><name>PT5033</name></trkpt>
<trkpt lat="54.592205" lon="-3.239873"><ele>745</ele><time>2019-10-02T11:19:39Z</time><name>PT5034</name></trkpt>
<trkpt lat="54.592206" lon="-3.239879"><ele>745</ele><time>2019-10-02T11:19:40Z</time><name>PT5035</name></trkpt>
<trkpt lat="54.592208" lon="-3.239880"><ele>745</ele><time>2019-10-02T11:19:41Z</time><name>PT5036</name></trkpt>
<trkpt lat="54.592208" lon="-3.239880"><ele>745</ele><time>2019-10-02T11:19:43Z</time><name>PT5037</name></trkpt>
<trkpt lat="54.592209" lon="-3.239891"><ele>746</ele><time>2019-10-02T11:19:44Z</time><name>PT5038</name></trkpt>
<trkpt lat="54.592212" lon="-3.239894"><ele>746</ele><time>2019-10-02T11:19:45Z</time><name>PT5039</name></trkpt>
<trkpt lat="54.592214" lon="-3.239901"><ele>746</ele><time>2019-10-02T11:19:46Z</time><name>PT5040</name></trkpt>
<trkpt lat="54.592213" lon="-3.239904"><ele>746</ele><time>2019-10-02T11:19:47Z</time><name>PT5041</name></trkpt>
<trkpt lat="54.592213" lon="-3.239910"><ele>747</ele><time>2019-10-02T11:19:48Z</time><name>PT5042</name></trkpt>
<trkpt lat="54.592211" lon="-3.239911"><ele>747</ele><time>2019-10-02T11:19:49Z</time><name>PT5043</name></trkpt>
<trkpt lat="54.592214" lon="-3.239913"><ele>747</ele><time>2019-10-02T11:19:50Z</time><name>PT5044</name></trkpt>
<trkpt lat="54.592217" lon="-3.239920"><ele>747</ele><time>2019-10-02T11:19:51Z</time><name>PT5045</name></trkpt>
<trkpt lat="54.592217" lon="-3.239925"><ele>747</ele><time>2019-10-02T11:19:52Z</time><name>PT5046</name></trkpt>
<trkpt lat="54.592218" lon="-3.239932"><ele>747</ele><time>2019-10-02T11:19:53Z</time><name>PT5047</name></trkpt>
<trkpt lat="54.592219" lon="-3.239937"><ele>748</ele><time>2019-10-02T11:19:59Z</time><name>PT5048</name></trkpt>
<trkpt lat="54.592219" lon="-3.239946"><ele>748</ele><time>2019-10-02T11:20:00Z</time><name>PT5049</name></trkpt>
<trkpt lat="54.592219" lon="-3.239961"><ele>748</ele><time>2019-10-02T11:20:01Z</time><name>PT5050</name></trkpt>
<trkpt lat="54.592218" lon="-3.239971"><ele>748</ele><time>2019-10-02T11:20:02Z</time><name>PT5051</name></trkpt>
<trkpt lat="54.592220" lon="-3.239980"><ele>749</ele><time>2019-10-02T11:20:03Z</time><name>PT5052</name></trkpt>
<trkpt lat="54.592221" lon="-3.239988"><ele>749</ele><time>2019-10-02T11:20:04Z</time><name>PT5053</name></trkpt>
<trkpt lat="54.592219" lon="-3.239993"><ele>749</ele><time>2019-10-02T11:20:05Z</time><name>PT5054</name></trkpt>
<trkpt lat="54.592220" lon="-3.240001"><ele>749</ele><time>2019-10-02T11:20:06Z</time><name>PT5055</name></trkpt>
<trkpt lat="54.592215" lon="-3.240011"><ele>750</ele><time>2019-10-02T11:20:13Z</time><name>PT5056</name></trkpt>
<trkpt lat="54.592211" lon="-3.240028"><ele>750</ele><time>2019-10-02T11:20:14Z</time><name>PT5057</name></trkpt>
<trkpt lat="54.592205" lon="-3.240040"><ele>751</ele><time>2019-10-02T11:20:15Z</time><name>PT5058</name></trkpt>
<trkpt lat="54.592201" lon="-3.240046"><ele>752</ele><time>2019-10-02T11:20:16Z</time><name>PT5059</name></trkpt>
<trkpt lat="54.592197" lon="-3.240049"><ele>752</ele><time>2019-10-02T11:20:17Z</time><name>PT5060</name></trkpt>
<trkpt lat="54.592194" lon="-3.240059"><ele>752</ele><time>2019-10-02T11:20:18Z</time><name>PT5061</name></trkpt>
<trkpt lat="54.592190" lon="-3.240065"><ele>752</ele><time>2019-10-02T11:20:19Z</time><name>PT5062</name></trkpt>
<trkpt lat="54.592189" lon="-3.240070"><ele>752</ele><time>2019-10-02T11:20:20Z</time><name>PT5063</name></trkpt>
<trkpt lat="54.592185" lon="-3.240071"><ele>752</ele><time>2019-10-02T11:20:21Z</time><name>PT5064</name></trkpt>
<trkpt lat="54.592181" lon="-3.240076"><ele>753</ele><time>2019-10-02T11:20:22Z</time><name>PT5065</name></trkpt>
<trkpt lat="54.592175" lon="-3.240084"><ele>753</ele><time>2019-10-02T11:20:23Z</time><name>PT5066</name></trkpt>
<trkpt lat="54.592172" lon="-3.240089"><ele>754</ele><time>2019-10-02T11:20:24Z</time><name>PT5067</name></trkpt>
<trkpt lat="54.592169" lon="-3.240091"><ele>754</ele><time>2019-10-02T11:20:25Z</time><name>PT5068</name></trkpt>
<trkpt lat="54.592167" lon="-3.240095"><ele>754</ele><time>2019-10-02T11:20:26Z</time><name>PT5069</name></trkpt>
<trkpt lat="54.592163" lon="-3.240101"><ele>754</ele><time>2019-10-02T11:20:27Z</time><name>PT5070</name></trkpt>
<trkpt lat="54.592163" lon="-3.240104"><ele>754</ele><time>2019-10-02T11:20:28Z</time><name>PT5071</name></trkpt>
<trkpt lat="54.592167" lon="-3.240102"><ele>754</ele><time>2019-10-02T11:20:29Z</time><name>PT5072</name></trkpt>
<trkpt lat="54.592171" lon="-3.240104"><ele>754</ele><time>2019-10-02T11:20:30Z</time><name>PT5073</name></trkpt>
<trkpt lat="54.592168" lon="-3.240103"><ele>754</ele><time>2019-10-02T11:20:34Z</time><name>PT5074</name></trkpt>
<trkpt lat="54.592170" lon="-3.240109"><ele>754</ele><time>2019-10-02T11:20:35Z</time><name>PT5075</name></trkpt>
<trkpt lat="54.592174" lon="-3.240118"><ele>754</ele><time>2019-10-02T11:20:36Z</time><name>PT5076</name></trkpt>
<trkpt lat="54.592181" lon="-3.240125"><ele>754</ele><time>2019-10-02T11:20:37Z</time><name>PT5077</name></trkpt>
<trkpt lat="54.592184" lon="-3.240129"><ele>755</ele><time>2019-10-02T11:20:38Z</time><name>PT5078</name></trkpt>
<trkpt lat="54.592187" lon="-3.240135"><ele>755</ele><time>2019-10-02T11:20:39Z</time><name>PT5079</name></trkpt>
<trkpt lat="54.592189" lon="-3.240139"><ele>755</ele><time>2019-10-02T11:20:40Z</time><name>PT5080</name></trkpt>
<trkpt lat="54.592191" lon="-3.240146"><ele>755</ele><time>2019-10-02T11:20:41Z</time><name>PT5081</name></trkpt>
<trkpt lat="54.592194" lon="-3.240157"><ele>755</ele><time>2019-10-02T11:20:42Z</time><name>PT5082</name></trkpt>
<trkpt lat="54.592196" lon="-3.240174"><ele>755</ele><time>2019-10-02T11:20:43Z</time><name>PT5083</name></trkpt>
<trkpt lat="54.592192" lon="-3.240181"><ele>756</ele><time>2019-10-02T11:20:44Z</time><name>PT5084</name></trkpt>
<trkpt lat="54.592190" lon="-3.240188"><ele>756</ele><time>2019-10-02T11:20:45Z</time><name>PT5085</name></trkpt>
<trkpt lat="54.592190" lon="-3.240197"><ele>756</ele><time>2019-10-02T11:20:46Z</time><name>PT5086</name></trkpt>
<trkpt lat="54.592191" lon="-3.240203"><ele>757</ele><time>2019-10-02T11:20:47Z</time><name>PT5087</name></trkpt>
<trkpt lat="54.592192" lon="-3.240210"><ele>757</ele><time>2019-10-02T11:20:48Z</time><name>PT5088</name></trkpt>
<trkpt lat="54.592191" lon="-3.240211"><ele>757</ele><time>2019-10-02T11:20:49Z</time><name>PT5089</name></trkpt>
<trkpt lat="54.592194" lon="-3.240215"><ele>757</ele><time>2019-10-02T11:20:50Z</time><name>PT5090</name></trkpt>
<trkpt lat="54.592197" lon="-3.240221"><ele>757</ele><time>2019-10-02T11:20:51Z</time><name>PT5091</name></trkpt>
<trkpt lat="54.592200" lon="-3.240226"><ele>757</ele><time>2019-10-02T11:20:52Z</time><name>PT5092</name></trkpt>
<trkpt lat="54.592204" lon="-3.240234"><ele>757</ele><time>2019-10-02T11:20:53Z</time><name>PT5093</name></trkpt>
<trkpt lat="54.592206" lon="-3.240244"><ele>757</ele><time>2019-10-02T11:20:54Z</time><name>PT5094</name></trkpt>
<trkpt lat="54.592211" lon="-3.240252"><ele>757</ele><time>2019-10-02T11:20:55Z</time><name>PT5095</name></trkpt>
<trkpt lat="54.592213" lon="-3.240256"><ele>758</ele><time>2019-10-02T11:20:56Z</time><name>PT5096</name></trkpt>
<trkpt lat="54.592214" lon="-3.240265"><ele>758</ele><time>2019-10-02T11:20:57Z</time><name>PT5097</name></trkpt>
<trkpt lat="54.592213" lon="-3.240279"><ele>758</ele><time>2019-10-02T11:20:58Z</time><name>PT5098</name></trkpt>
<trkpt lat="54.592210" lon="-3.240286"><ele>758</ele><time>2019-10-02T11:20:59Z</time><name>PT5099</name></trkpt>
<trkpt lat="54.592209" lon="-3.240289"><ele>758</ele><time>2019-10-02T11:21:00Z</time><name>PT5100</name></trkpt>
<trkpt lat="54.592209" lon="-3.240292"><ele>759</ele><time>2019-10-02T11:21:01Z</time><name>PT5101</name></trkpt>
<trkpt lat="54.592209" lon="-3.240292"><ele>759</ele><time>2019-10-02T11:21:02Z</time><name>PT5102</name></trkpt>
<trkpt lat="54.592210" lon="-3.240298"><ele>759</ele><time>2019-10-02T11:21:06Z</time><name>PT5103</name></trkpt>
<trkpt lat="54.592209" lon="-3.240307"><ele>760</ele><time>2019-10-02T11:21:07Z</time><name>PT5104</name></trkpt>
<trkpt lat="54.592210" lon="-3.240312"><ele>760</ele><time>2019-10-02T11:21:08Z</time><name>PT5105</name></trkpt>
<trkpt lat="54.592213" lon="-3.240314"><ele>760</ele><time>2019-10-02T11:21:09Z</time><name>PT5106</name></trkpt>
<trkpt lat="54.592214" lon="-3.240320"><ele>760</ele><time>2019-10-02T11:21:10Z</time><name>PT5107</name></trkpt>
<trkpt lat="54.592211" lon="-3.240323"><ele>761</ele><time>2019-10-02T11:21:11Z</time><name>PT5108</name></trkpt>
<trkpt lat="54.592208" lon="-3.240324"><ele>761</ele><time>2019-10-02T11:21:12Z</time><name>PT5109</name></trkpt>
<trkpt lat="54.592212" lon="-3.240324"><ele>761</ele><time>2019-10-02T11:21:13Z</time><name>PT5110</name></trkpt>
<trkpt lat="54.592213" lon="-3.240327"><ele>761</ele><time>2019-10-02T11:21:14Z</time><name>PT5111</name></trkpt>
<trkpt lat="54.592213" lon="-3.240332"><ele>761</ele><time>2019-10-02T11:21:15Z</time><name>PT5112</name></trkpt>
<trkpt lat="54.592213" lon="-3.240340"><ele>761</ele><time>2019-10-02T11:21:16Z</time><name>PT5113</name></trkpt>
<trkpt lat="54.592215" lon="-3.240347"><ele>761</ele><time>2019-10-02T11:21:17Z</time><name>PT5114</name></trkpt>
<trkpt lat="54.592217" lon="-3.240354"><ele>762</ele><time>2019-10-02T11:21:18Z</time><name>PT5115</name></trkpt>
<trkpt lat="54.592219" lon="-3.240358"><ele>762</ele><time>2019-10-02T11:21:19Z</time><name>PT5116</name></trkpt>
<trkpt lat="54.592220" lon="-3.240365"><ele>762</ele><time>2019-10-02T11:21:20Z</time><name>PT5117</name></trkpt>
<trkpt lat="54.592221" lon="-3.240372"><ele>762</ele><time>2019-10-02T11:21:21Z</time><name>PT5118</name></trkpt>
<trkpt lat="54.592222" lon="-3.240379"><ele>763</ele><time>2019-10-02T11:21:22Z</time><name>PT5119</name></trkpt>
<trkpt lat="54.592227" lon="-3.240390"><ele>763</ele><time>2019-10-02T11:21:27Z</time><name>PT5120</name></trkpt>
<trkpt lat="54.592227" lon="-3.240397"><ele>763</ele><time>2019-10-02T11:21:28Z</time><name>PT5121</name></trkpt>
<trkpt lat="54.592228" lon="-3.240408"><ele>763</ele><time>2019-10-02T11:21:29Z</time><name>PT5122</name></trkpt>
<trkpt lat="54.592226" lon="-3.240416"><ele>763</ele><time>2019-10-02T11:21:30Z</time><name>PT5123</name></trkpt>
<trkpt lat="54.592227" lon="-3.240420"><ele>763</ele><time>2019-10-02T11:21:31Z</time><name>PT5124</name></trkpt>
<trkpt lat="54.592228" lon="-3.240425"><ele>764</ele><time>2019-10-02T11:21:32Z</time><name>PT5125</name></trkpt>
<trkpt lat="54.592230" lon="-3.240430"><ele>764</ele><time>2019-10-02T11:21:33Z</time><name>PT5126</name></trkpt>
<trkpt lat="54.592234" lon="-3.240435"><ele>764</ele><time>2019-10-02T11:21:34Z</time><name>PT5127</name></trkpt>
<trkpt lat="54.592238" lon="-3.240444"><ele>764</ele><time>2019-10-02T11:21:35Z</time><name>PT5128</name></trkpt>
<trkpt lat="54.592241" lon="-3.240450"><ele>764</ele><time>2019-10-02T11:21:36Z</time><name>PT5129</name></trkpt>
<trkpt lat="54.592244" lon="-3.240459"><ele>765</ele><time>2019-10-02T11:21:37Z</time><name>PT5130</name></trkpt>
<trkpt lat="54.592245" lon="-3.240470"><ele>765</ele><time>2019-10-02T11:21:38Z</time><name>PT5131</name></trkpt>
<trkpt lat="54.592241" lon="-3.240475"><ele>766</ele><time>2019-10-02T11:21:39Z</time><name>PT5132</name></trkpt>
<trkpt lat="54.592237" lon="-3.240477"><ele>766</ele><time>2019-10-02T11:21:40Z</time><name>PT5133</name></trkpt>
<trkpt lat="54.592237" lon="-3.240484"><ele>767</ele><time>2019-10-02T11:21:41Z</time><name>PT5134</name></trkpt>
<trkpt lat="54.592239" lon="-3.240489"><ele>767</ele><time>2019-10-02T11:21:42Z</time><name>PT5135</name></trkpt>
<trkpt lat="54.592241" lon="-3.240493"><ele>767</ele><time>2019-10-02T11:21:43Z</time><name>PT5136</name></trkpt>
<trkpt lat="54.592242" lon="-3.240499"><ele>767</ele><time>2019-10-02T11:21:44Z</time><name>PT5137</name></trkpt>
<trkpt lat="54.592245" lon="-3.240503"><ele>767</ele><time>2019-10-02T11:21:45Z</time><name>PT5138</name></trkpt>
<trkpt lat="54.592249" lon="-3.240508"><ele>767</ele><time>2019-10-02T11:21:46Z</time><name>PT5139</name></trkpt>
<trkpt lat="54.592255" lon="-3.240516"><ele>768</ele><time>2019-10-02T11:21:47Z</time><name>PT5140</name></trkpt>
<trkpt lat="54.592259" lon="-3.240531"><ele>768</ele><time>2019-10-02T11:21:48Z</time><name>PT5141</name></trkpt>
<trkpt lat="54.592257" lon="-3.240538"><ele>769</ele><time>2019-10-02T11:21:49Z</time><name>PT5142</name></trkpt>
<trkpt lat="54.592255" lon="-3.240541"><ele>769</ele><time>2019-10-02T11:21:50Z</time><name>PT5143</name></trkpt>
<trkpt lat="54.592254" lon="-3.240542"><ele>769</ele><time>2019-10-02T11:21:51Z</time><name>PT5144</name></trkpt>
<trkpt lat="54.592252" lon="-3.240544"><ele>769</ele><time>2019-10-02T11:21:52Z</time><name>PT5145</name></trkpt>
<trkpt lat="54.592254" lon="-3.240549"><ele>769</ele><time>2019-10-02T11:21:53Z</time><name>PT5146</name></trkpt>
<trkpt lat="54.592256" lon="-3.240551"><ele>769</ele><time>2019-10-02T11:21:54Z</time><name>PT5147</name></trkpt>
<trkpt lat="54.592259" lon="-3.240556"><ele>769</ele><time>2019-10-02T11:21:55Z</time><name>PT5148</name></trkpt>
<trkpt lat="54.592262" lon="-3.240560"><ele>769</ele><time>2019-10-02T11:21:56Z</time><name>PT5149</name></trkpt>
<trkpt lat="54.592267" lon="-3.240563"><ele>769</ele><time>2019-10-02T11:21:57Z</time><name>PT5150</name></trkpt>
<trkpt lat="54.592271" lon="-3.240571"><ele>770</ele><time>2019-10-02T11:21:58Z</time><name>PT5151</name></trkpt>
<trkpt lat="54.592277" lon="-3.240577"><ele>770</ele><time>2019-10-02T11:21:59Z</time><name>PT5152</name></trkpt>
<trkpt lat="54.592281" lon="-3.240582"><ele>770</ele><time>2019-10-02T11:22:00Z</time><name>PT5153</name></trkpt>
<trkpt lat="54.592284" lon="-3.240585"><ele>770</ele><time>2019-10-02T11:22:01Z</time><name>PT5154</name></trkpt>
<trkpt lat="54.592289" lon="-3.240589"><ele>770</ele><time>2019-10-02T11:22:11Z</time><name>PT5155</name></trkpt>
<trkpt lat="54.592291" lon="-3.240599"><ele>771</ele><time>2019-10-02T11:22:12Z</time><name>PT5156</name></trkpt>
<trkpt lat="54.592297" lon="-3.240609"><ele>771</ele><time>2019-10-02T11:22:13Z</time><name>PT5157</name></trkpt>
<trkpt lat="54.592307" lon="-3.240615"><ele>771</ele><time>2019-10-02T11:22:14Z</time><name>PT5158</name></trkpt>
<trkpt lat="54.592313" lon="-3.240627"><ele>771</ele><time>2019-10-02T11:22:15Z</time><name>PT5159</name></trkpt>
<trkpt lat="54.592317" lon="-3.240639"><ele>771</ele><time>2019-10-02T11:22:16Z</time><name>PT5160</name></trkpt>
<trkpt lat="54.592323" lon="-3.240646"><ele>771</ele><time>2019-10-02T11:22:17Z</time><name>PT5161</name></trkpt>
<trkpt lat="54.592328" lon="-3.240653"><ele>772</ele><time>2019-10-02T11:22:18Z</time><name>PT5162</name></trkpt>
<trkpt lat="54.592332" lon="-3.240661"><ele>772</ele><time>2019-10-02T11:22:19Z</time><name>PT5163</name></trkpt>
<trkpt lat="54.592335" lon="-3.240670"><ele>772</ele><time>2019-10-02T11:22:20Z</time><name>PT5164</name></trkpt>
<trkpt lat="54.592337" lon="-3.240677"><ele>772</ele><time>2019-10-02T11:22:21Z</time><name>PT5165</name></trkpt>
<trkpt lat="54.592342" lon="-3.240686"><ele>772</ele><time>2019-10-02T11:22:22Z</time><name>PT5166</name></trkpt>
<trkpt lat="54.592346" lon="-3.240692"><ele>772</ele><time>2019-10-02T11:22:23Z</time><name>PT5167</name></trkpt>
<trkpt lat="54.592352" lon="-3.240698"><ele>773</ele><time>2019-10-02T11:22:24Z</time><name>PT5168</name></trkpt>
<trkpt lat="54.592357" lon="-3.240704"><ele>772</ele><time>2019-10-02T11:22:25Z</time><name>PT5169</name></trkpt>
<trkpt lat="54.592362" lon="-3.240711"><ele>773</ele><time>2019-10-02T11:22:26Z</time><name>PT5170</name></trkpt>
<trkpt lat="54.592368" lon="-3.240715"><ele>773</ele><time>2019-10-02T11:22:27Z</time><name>PT5171</name></trkpt>
<trkpt lat="54.592373" lon="-3.240722"><ele>773</ele><time>2019-10-02T11:22:28Z</time><name>PT5172</name></trkpt>
<trkpt lat="54.592375" lon="-3.240731"><ele>773</ele><time>2019-10-02T11:22:29Z</time><name>PT5173</name></trkpt>
<trkpt lat="54.592372" lon="-3.240742"><ele>773</ele><time>2019-10-02T11:22:30Z</time><name>PT5174</name></trkpt>
<trkpt lat="54.592371" lon="-3.240750"><ele>773</ele><time>2019-10-02T11:22:31Z</time><name>PT5175</name></trkpt>
<trkpt lat="54.592372" lon="-3.240759"><ele>773</ele><time>2019-10-02T11:22:32Z</time><name>PT5176</name></trkpt>
<trkpt lat="54.592371" lon="-3.240766"><ele>773</ele><time>2019-10-02T11:22:33Z</time><name>PT5177</name></trkpt>
<trkpt lat="54.592374" lon="-3.240772"><ele>773</ele><time>2019-10-02T11:22:34Z</time><name>PT5178</name></trkpt>
<trkpt lat="54.592378" lon="-3.240781"><ele>773</ele><time>2019-10-02T11:22:35Z</time><name>PT5179</name></trkpt>
<trkpt lat="54.592382" lon="-3.240786"><ele>773</ele><time>2019-10-02T11:22:36Z</time><name>PT5180</name></trkpt>
<trkpt lat="54.592384" lon="-3.240791"><ele>774</ele><time>2019-10-02T11:22:37Z</time><name>PT5181</name></trkpt>
<trkpt lat="54.592384" lon="-3.240800"><ele>774</ele><time>2019-10-02T11:22:38Z</time><name>PT5182</name></trkpt>
<trkpt lat="54.592386" lon="-3.240809"><ele>774</ele><time>2019-10-02T11:22:39Z</time><name>PT5183</name></trkpt>
<trkpt lat="54.592385" lon="-3.240817"><ele>774</ele><time>2019-10-02T11:22:40Z</time><name>PT5184</name></trkpt>
<trkpt lat="54.592386" lon="-3.240822"><ele>774</ele><time>2019-10-02T11:22:41Z</time><name>PT5185</name></trkpt>
<trkpt lat="54.592388" lon="-3.240826"><ele>775</ele><time>2019-10-02T11:22:42Z</time><name>PT5186</name></trkpt>
<trkpt lat="54.592389" lon="-3.240832"><ele>775</ele><time>2019-10-02T11:22:43Z</time><name>PT5187</name></trkpt>
<trkpt lat="54.592386" lon="-3.240835"><ele>775</ele><time>2019-10-02T11:22:45Z</time><name>PT5188</name></trkpt>
<trkpt lat="54.592392" lon="-3.240849"><ele>776</ele><time>2019-10-02T11:22:46Z</time><name>PT5189</name></trkpt>
<trkpt lat="54.592393" lon="-3.240857"><ele>776</ele><time>2019-10-02T11:22:47Z</time><name>PT5190</name></trkpt>
<trkpt lat="54.592392" lon="-3.240870"><ele>776</ele><time>2019-10-02T11:22:48Z</time><name>PT5191</name></trkpt>
<trkpt lat="54.592387" lon="-3.240874"><ele>776</ele><time>2019-10-02T11:22:49Z</time><name>PT5192</name></trkpt>
<trkpt lat="54.592383" lon="-3.240876"><ele>776</ele><time>2019-10-02T11:22:50Z</time><name>PT5193</name></trkpt>
<trkpt lat="54.592379" lon="-3.240879"><ele>776</ele><time>2019-10-02T11:22:51Z</time><name>PT5194</name></trkpt>
<trkpt lat="54.592377" lon="-3.240880"><ele>777</ele><time>2019-10-02T11:22:55Z</time><name>PT5195</name></trkpt>
<trkpt lat="54.592377" lon="-3.240892"><ele>777</ele><time>2019-10-02T11:22:56Z</time><name>PT5196</name></trkpt>
<trkpt lat="54.592381" lon="-3.240900"><ele>778</ele><time>2019-10-02T11:22:57Z</time><name>PT5197</name></trkpt>
<trkpt lat="54.592378" lon="-3.240909"><ele>778</ele><time>2019-10-02T11:22:58Z</time><name>PT5198</name></trkpt>
<trkpt lat="54.592377" lon="-3.240915"><ele>778</ele><time>2019-10-02T11:22:59Z</time><name>PT5199</name></trkpt>
<trkpt lat="54.592375" lon="-3.240922"><ele>778</ele><time>2019-10-02T11:23:00Z</time><name>PT5200</name></trkpt>
<trkpt lat="54.592374" lon="-3.240930"><ele>778</ele><time>2019-10-02T11:23:01Z</time><name>PT5201</name></trkpt>
<trkpt lat="54.592369" lon="-3.240940"><ele>778</ele><time>2019-10-02T11:23:02Z</time><name>PT5202</name></trkpt>
<trkpt lat="54.592366" lon="-3.240945"><ele>778</ele><time>2019-10-02T11:23:03Z</time><name>PT5203</name></trkpt>
<trkpt lat="54.592360" lon="-3.240950"><ele>778</ele><time>2019-10-02T11:23:04Z</time><name>PT5204</name></trkpt>
<trkpt lat="54.592357" lon="-3.240956"><ele>779</ele><time>2019-10-02T11:23:05Z</time><name>PT5205</name></trkpt>
<trkpt lat="54.592357" lon="-3.240961"><ele>779</ele><time>2019-10-02T11:23:06Z</time><name>PT5206</name></trkpt>
<trkpt lat="54.592355" lon="-3.240971"><ele>780</ele><time>2019-10-02T11:23:07Z</time><name>PT5207</name></trkpt>
<trkpt lat="54.592353" lon="-3.240977"><ele>780</ele><time>2019-10-02T11:23:08Z</time><name>PT5208</name></trkpt>
<trkpt lat="54.592355" lon="-3.240985"><ele>780</ele><time>2019-10-02T11:23:09Z</time><name>PT5209</name></trkpt>
<trkpt lat="54.592354" lon="-3.240993"><ele>780</ele><time>2019-10-02T11:23:10Z</time><name>PT5210</name></trkpt>
<trkpt lat="54.592351" lon="-3.241000"><ele>780</ele><time>2019-10-02T11:23:11Z</time><name>PT5211</name></trkpt>
<trkpt lat="54.592347" lon="-3.241006"><ele>780</ele><time>2019-10-02T11:23:12Z</time><name>PT5212</name></trkpt>
<trkpt lat="54.592345" lon="-3.241007"><ele>781</ele><time>2019-10-02T11:23:15Z</time><name>PT5213</name></trkpt>
<trkpt lat="54.592343" lon="-3.241018"><ele>781</ele><time>2019-10-02T11:23:16Z</time><name>PT5214</name></trkpt>
<trkpt lat="54.592342" lon="-3.241028"><ele>781</ele><time>2019-10-02T11:23:17Z</time><name>PT5215</name></trkpt>
<trkpt lat="54.592341" lon="-3.241039"><ele>781</ele><time>2019-10-02T11:23:18Z</time><name>PT5216</name></trkpt>
<trkpt lat="54.592342" lon="-3.241053"><ele>781</ele><time>2019-10-02T11:23:19Z</time><name>PT5217</name></trkpt>
<trkpt lat="54.592341" lon="-3.241064"><ele>782</ele><time>2019-10-02T11:23:20Z</time><name>PT5218</name></trkpt>
<trkpt lat="54.592344" lon="-3.241077"><ele>782</ele><time>2019-10-02T11:23:21Z</time><name>PT5219</name></trkpt>
<trkpt lat="54.592345" lon="-3.241087"><ele>782</ele><time>2019-10-02T11:23:22Z</time><name>PT5220</name></trkpt>
<trkpt lat="54.592344" lon="-3.241099"><ele>782</ele><time>2019-10-02T11:23:23Z</time><name>PT5221</name></trkpt>
<trkpt lat="54.592343" lon="-3.241113"><ele>782</ele><time>2019-10-02T11:23:24Z</time><name>PT5222</name></trkpt>
<trkpt lat="54.592343" lon="-3.241126"><ele>782</ele><time>2019-10-02T11:23:25Z</time><name>PT5223</name></trkpt>
<trkpt lat="54.592341" lon="-3.241138"><ele>782</ele><time>2019-10-02T11:23:26Z</time><name>PT5224</name></trkpt>
<trkpt lat="54.592341" lon="-3.241153"><ele>782</ele><time>2019-10-02T11:23:27Z</time><name>PT5225</name></trkpt>
<trkpt lat="54.592340" lon="-3.241166"><ele>783</ele><time>2019-10-02T11:23:28Z</time><name>PT5226</name></trkpt>
<trkpt lat="54.592338" lon="-3.241177"><ele>783</ele><time>2019-10-02T11:23:29Z</time><name>PT5227</name></trkpt>
<trkpt lat="54.592335" lon="-3.241190"><ele>783</ele><time>2019-10-02T11:23:30Z</time><name>PT5228</name></trkpt>
<trkpt lat="54.592330" lon="-3.241199"><ele>783</ele><time>2019-10-02T11:23:31Z</time><name>PT5229</name></trkpt>
<trkpt lat="54.592325" lon="-3.241209"><ele>783</ele><time>2019-10-02T11:23:32Z</time><name>PT5230</name></trkpt>
<trkpt lat="54.592321" lon="-3.241220"><ele>783</ele><time>2019-10-02T11:23:33Z</time><name>PT5231</name></trkpt>
<trkpt lat="54.592317" lon="-3.241229"><ele>783</ele><time>2019-10-02T11:23:34Z</time><name>PT5232</name></trkpt>
<trkpt lat="54.592312" lon="-3.241235"><ele>784</ele><time>2019-10-02T11:23:35Z</time><name>PT5233</name></trkpt>
<trkpt lat="54.592308" lon="-3.241244"><ele>784</ele><time>2019-10-02T11:23:36Z</time><name>PT5234</name></trkpt>
<trkpt lat="54.592302" lon="-3.241253"><ele>784</ele><time>2019-10-02T11:23:37Z</time><name>PT5235</name></trkpt>
<trkpt lat="54.592298" lon="-3.241262"><ele>784</ele><time>2019-10-02T11:23:38Z</time><name>PT5236</name></trkpt>
<trkpt lat="54.592294" lon="-3.241270"><ele>784</ele><time>2019-10-02T11:23:39Z</time><name>PT5237</name></trkpt>
<trkpt lat="54.592288" lon="-3.241275"><ele>784</ele><time>2019-10-02T11:23:40Z</time><name>PT5238</name></trkpt>
<trkpt lat="54.592283" lon="-3.241286"><ele>785</ele><time>2019-10-02T11:23:41Z</time><name>PT5239</name></trkpt>
<trkpt lat="54.592278" lon="-3.241293"><ele>785</ele><time>2019-10-02T11:23:42Z</time><name>PT5240</name></trkpt>
<trkpt lat="54.592273" lon="-3.241301"><ele>785</ele><time>2019-10-02T11:23:43Z</time><name>PT5241</name></trkpt>
<trkpt lat="54.592267" lon="-3.241309"><ele>785</ele><time>2019-10-02T11:23:44Z</time><name>PT5242</name></trkpt>
<trkpt lat="54.592262" lon="-3.241315"><ele>786</ele><time>2019-10-02T11:23:45Z</time><name>PT5243</name></trkpt>
<trkpt lat="54.592257" lon="-3.241322"><ele>786</ele><time>2019-10-02T11:23:46Z</time><name>PT5244</name></trkpt>
<trkpt lat="54.592252" lon="-3.241331"><ele>786</ele><time>2019-10-02T11:23:47Z</time><name>PT5245</name></trkpt>
<trkpt lat="54.592245" lon="-3.241338"><ele>786</ele><time>2019-10-02T11:23:48Z</time><name>PT5246</name></trkpt>
<trkpt lat="54.592238" lon="-3.241346"><ele>786</ele><time>2019-10-02T11:23:49Z</time><name>PT5247</name></trkpt>
<trkpt lat="54.592233" lon="-3.241355"><ele>786</ele><time>2019-10-02T11:23:50Z</time><name>PT5248</name></trkpt>
<trkpt lat="54.592227" lon="-3.241362"><ele>787</ele><time>2019-10-02T11:23:51Z</time><name>PT5249</name></trkpt>
<trkpt lat="54.592221" lon="-3.241372"><ele>787</ele><time>2019-10-02T11:23:52Z</time><name>PT5250</name></trkpt>
<trkpt lat="54.592215" lon="-3.241377"><ele>787</ele><time>2019-10-02T11:23:53Z</time><name>PT5251</name></trkpt>
<trkpt lat="54.592208" lon="-3.241380"><ele>787</ele><time>2019-10-02T11:23:54Z</time><name>PT5252</name></trkpt>
<trkpt lat="54.592202" lon="-3.241386"><ele>788</ele><time>2019-10-02T11:23:55Z</time><name>PT5253</name></trkpt>
<trkpt lat="54.592196" lon="-3.241391"><ele>788</ele><time>2019-10-02T11:23:56Z</time><name>PT5254</name></trkpt>
<trkpt lat="54.592189" lon="-3.241396"><ele>788</ele><time>2019-10-02T11:23:57Z</time><name>PT5255</name></trkpt>
<trkpt lat="54.592182" lon="-3.241407"><ele>788</ele><time>2019-10-02T11:23:58Z</time><name>PT5256</name></trkpt>
<trkpt lat="54.592176" lon="-3.241413"><ele>788</ele><time>2019-10-02T11:23:59Z</time><name>PT5257</name></trkpt>
<trkpt lat="54.592169" lon="-3.241418"><ele>788</ele><time>2019-10-02T11:24:00Z</time><name>PT5258</name></trkpt>
<trkpt lat="54.592161" lon="-3.241425"><ele>788</ele><time>2019-10-02T11:24:01Z</time><name>PT5259</name></trkpt>
<trkpt lat="54.592154" lon="-3.241430"><ele>789</ele><time>2019-10-02T11:24:02Z</time><name>PT5260</name></trkpt>
<trkpt lat="54.592147" lon="-3.241436"><ele>789</ele><time>2019-10-02T11:24:03Z</time><name>PT5261</name></trkpt>
<trkpt lat="54.592140" lon="-3.241446"><ele>789</ele><time>2019-10-02T11:24:04Z</time><name>PT5262</name></trkpt>
<trkpt lat="54.592133" lon="-3.241457"><ele>789</ele><time>2019-10-02T11:24:05Z</time><name>PT5263</name></trkpt>
<trkpt lat="54.592125" lon="-3.241467"><ele>789</ele><time>2019-10-02T11:24:06Z</time><name>PT5264</name></trkpt>
<trkpt lat="54.592119" lon="-3.241477"><ele>789</ele><time>2019-10-02T11:24:07Z</time><name>PT5265</name></trkpt>
<trkpt lat="54.592113" lon="-3.241489"><ele>789</ele><time>2019-10-02T11:24:08Z</time><name>PT5266</name></trkpt>
<trkpt lat="54.592108" lon="-3.241500"><ele>790</ele><time>2019-10-02T11:24:09Z</time><name>PT5267</name></trkpt>
<trkpt lat="54.592102" lon="-3.241511"><ele>790</ele><time>2019-10-02T11:24:10Z</time><name>PT5268</name></trkpt>
<trkpt lat="54.592097" lon="-3.241524"><ele>790</ele><time>2019-10-02T11:24:11Z</time><name>PT5269</name></trkpt>
<trkpt lat="54.592093" lon="-3.241534"><ele>790</ele><time>2019-10-02T11:24:12Z</time><name>PT5270</name></trkpt>
<trkpt lat="54.592088" lon="-3.241543"><ele>790</ele><time>2019-10-02T11:24:13Z</time><name>PT5271</name></trkpt>
<trkpt lat="54.592082" lon="-3.241554"><ele>791</ele><time>2019-10-02T11:24:14Z</time><name>PT5272</name></trkpt>
<trkpt lat="54.592078" lon="-3.241563"><ele>791</ele><time>2019-10-02T11:24:15Z</time><name>PT5273</name></trkpt>
<trkpt lat="54.592075" lon="-3.241572"><ele>791</ele><time>2019-10-02T11:24:16Z</time><name>PT5274</name></trkpt>
<trkpt lat="54.592071" lon="-3.241584"><ele>791</ele><time>2019-10-02T11:24:17Z</time><name>PT5275</name></trkpt>
<trkpt lat="54.592067" lon="-3.241597"><ele>791</ele><time>2019-10-02T11:24:18Z</time><name>PT5276</name></trkpt>
<trkpt lat="54.592064" lon="-3.241611"><ele>791</ele><time>2019-10-02T11:24:19Z</time><name>PT5277</name></trkpt>
<trkpt lat="54.592058" lon="-3.241624"><ele>791</ele><time>2019-10-02T11:24:20Z</time><name>PT5278</name></trkpt>
<trkpt lat="54.592049" lon="-3.241634"><ele>791</ele><time>2019-10-02T11:24:21Z</time><name>PT5279</name></trkpt>
<trkpt lat="54.592041" lon="-3.241642"><ele>791</ele><time>2019-10-02T11:24:22Z</time><name>PT5280</name></trkpt>
<trkpt lat="54.592032" lon="-3.241654"><ele>791</ele><time>2019-10-02T11:24:23Z</time><name>PT5281</name></trkpt>
<trkpt lat="54.592024" lon="-3.241663"><ele>791</ele><time>2019-10-02T11:24:24Z</time><name>PT5282</name></trkpt>
<trkpt lat="54.592019" lon="-3.241668"><ele>791</ele><time>2019-10-02T11:24:25Z</time><name>PT5283</name></trkpt>
<trkpt lat="54.592013" lon="-3.241675"><ele>792</ele><time>2019-10-02T11:24:26Z</time><name>PT5284</name></trkpt>
<trkpt lat="54.592008" lon="-3.241687"><ele>792</ele><time>2019-10-02T11:24:27Z</time><name>PT5285</name></trkpt>
<trkpt lat="54.592004" lon="-3.241701"><ele>792</ele><time>2019-10-02T11:24:28Z</time><name>PT5286</name></trkpt>
<trkpt lat="54.592000" lon="-3.241713"><ele>792</ele><time>2019-10-02T11:24:29Z</time><name>PT5287</name></trkpt>
<trkpt lat="54.591994" lon="-3.241720"><ele>792</ele><time>2019-10-02T11:24:30Z</time><name>PT5288</name></trkpt>
<trkpt lat="54.591986" lon="-3.241727"><ele>792</ele><time>2019-10-02T11:24:31Z</time><name>PT5289</name></trkpt>
<trkpt lat="54.591980" lon="-3.241738"><ele>793</ele><time>2019-10-02T11:24:32Z</time><name>PT5290</name></trkpt>
<trkpt lat="54.591975" lon="-3.241746"><ele>793</ele><time>2019-10-02T11:24:33Z</time><name>PT5291</name></trkpt>
<trkpt lat="54.591969" lon="-3.241750"><ele>793</ele><time>2019-10-02T11:24:34Z</time><name>PT5292</name></trkpt>
<trkpt lat="54.591961" lon="-3.241758"><ele>793</ele><time>2019-10-02T11:24:35Z</time><name>PT5293</name></trkpt>
<trkpt lat="54.591954" lon="-3.241765"><ele>793</ele><time>2019-10-02T11:24:36Z</time><name>PT5294</name></trkpt>
<trkpt lat="54.591947" lon="-3.241769"><ele>794</ele><time>2019-10-02T11:24:37Z</time><name>PT5295</name></trkpt>
<trkpt lat="54.591943" lon="-3.241777"><ele>794</ele><time>2019-10-02T11:24:38Z</time><name>PT5296</name></trkpt>
<trkpt lat="54.591939" lon="-3.241787"><ele>794</ele><time>2019-10-02T11:24:39Z</time><name>PT5297</name></trkpt>
<trkpt lat="54.591937" lon="-3.241798"><ele>794</ele><time>2019-10-02T11:24:40Z</time><name>PT5298</name></trkpt>
<trkpt lat="54.591933" lon="-3.241809"><ele>794</ele><time>2019-10-02T11:24:41Z</time><name>PT5299</name></trkpt>
<trkpt lat="54.591926" lon="-3.241816"><ele>794</ele><time>2019-10-02T11:24:42Z</time><name>PT5300</name></trkpt>
<trkpt lat="54.591918" lon="-3.241823"><ele>794</ele><time>2019-10-02T11:24:43Z</time><name>PT5301</name></trkpt>
<trkpt lat="54.591913" lon="-3.241835"><ele>794</ele><time>2019-10-02T11:24:44Z</time><name>PT5302</name></trkpt>
<trkpt lat="54.591906" lon="-3.241848"><ele>794</ele><time>2019-10-02T11:24:45Z</time><name>PT5303</name></trkpt>
<trkpt lat="54.591901" lon="-3.241861"><ele>794</ele><time>2019-10-02T11:24:46Z</time><name>PT5304</name></trkpt>
<trkpt lat="54.591896" lon="-3.241874"><ele>794</ele><time>2019-10-02T11:24:47Z</time><name>PT5305</name></trkpt>
<trkpt lat="54.591891" lon="-3.241888"><ele>794</ele><time>2019-10-02T11:24:48Z</time><name>PT5306</name></trkpt>
<trkpt lat="54.591886" lon="-3.241900"><ele>794</ele><time>2019-10-02T11:24:49Z</time><name>PT5307</name></trkpt>
<trkpt lat="54.591881" lon="-3.241911"><ele>794</ele><time>2019-10-02T11:24:50Z</time><name>PT5308</name></trkpt>
<trkpt lat="54.591876" lon="-3.241919"><ele>794</ele><time>2019-10-02T11:24:51Z</time><name>PT5309</name></trkpt>
<trkpt lat="54.591868" lon="-3.241925"><ele>794</ele><time>2019-10-02T11:24:52Z</time><name>PT5310</name></trkpt>
<trkpt lat="54.591860" lon="-3.241935"><ele>794</ele><time>2019-10-02T11:24:53Z</time><name>PT5311</name></trkpt>
<trkpt lat="54.591852" lon="-3.241943"><ele>795</ele><time>2019-10-02T11:24:54Z</time><name>PT5312</name></trkpt>
<trkpt lat="54.591844" lon="-3.241949"><ele>795</ele><time>2019-10-02T11:24:55Z</time><name>PT5313</name></trkpt>
<trkpt lat="54.591837" lon="-3.241960"><ele>795</ele><time>2019-10-02T11:24:56Z</time><name>PT5314</name></trkpt>
<trkpt lat="54.591831" lon="-3.241969"><ele>795</ele><time>2019-10-02T11:24:57Z</time><name>PT5315</name></trkpt>
<trkpt lat="54.591826" lon="-3.241975"><ele>795</ele><time>2019-10-02T11:24:58Z</time><name>PT5316</name></trkpt>
<trkpt lat="54.591823" lon="-3.241984"><ele>795</ele><time>2019-10-02T11:24:59Z</time><name>PT5317</name></trkpt>
<trkpt lat="54.591815" lon="-3.241991"><ele>795</ele><time>2019-10-02T11:25:00Z</time><name>PT5318</name></trkpt>
<trkpt lat="54.591808" lon="-3.241997"><ele>796</ele><time>2019-10-02T11:25:01Z</time><name>PT5319</name></trkpt>
<trkpt lat="54.591801" lon="-3.242001"><ele>796</ele><time>2019-10-02T11:25:02Z</time><name>PT5320</name></trkpt>
<trkpt lat="54.591793" lon="-3.242000"><ele>796</ele><time>2019-10-02T11:25:03Z</time><name>PT5321</name></trkpt>
<trkpt lat="54.591785" lon="-3.242005"><ele>795</ele><time>2019-10-02T11:25:04Z</time><name>PT5322</name></trkpt>
<trkpt lat="54.591780" lon="-3.242008"><ele>795</ele><time>2019-10-02T11:25:05Z</time><name>PT5323</name></trkpt>
<trkpt lat="54.591773" lon="-3.242014"><ele>795</ele><time>2019-10-02T11:25:06Z</time><name>PT5324</name></trkpt>
<trkpt lat="54.591771" lon="-3.242016"><ele>795</ele><time>2019-10-02T11:25:07Z</time><name>PT5325</name></trkpt>
<trkpt lat="54.591770" lon="-3.242015"><ele>794</ele><time>2019-10-02T11:25:08Z</time><name>PT5326</name></trkpt>
<trkpt lat="54.591770" lon="-3.242015"><ele>794</ele><time>2019-10-02T11:25:09Z</time><name>PT5327</name></trkpt>
<trkpt lat="54.591772" lon="-3.242013"><ele>794</ele><time>2019-10-02T11:25:59Z</time><name>PT5328</name></trkpt>
<trkpt lat="54.591777" lon="-3.242015"><ele>795</ele><time>2019-10-02T11:26:00Z</time><name>PT5329</name></trkpt>
<trkpt lat="54.591781" lon="-3.242018"><ele>795</ele><time>2019-10-02T11:26:01Z</time><name>PT5330</name></trkpt>
<trkpt lat="54.591784" lon="-3.242019"><ele>795</ele><time>2019-10-02T11:28:28Z</time><name>PT5331</name></trkpt>
<trkpt lat="54.591785" lon="-3.242018"><ele>795</ele><time>2019-10-02T11:28:29Z</time><name>PT5332</name></trkpt>
<trkpt lat="54.591778" lon="-3.242011"><ele>795</ele><time>2019-10-02T11:34:31Z</time><name>PT5333</name></trkpt>
<trkpt lat="54.591780" lon="-3.242011"><ele>796</ele><time>2019-10-02T11:34:32Z</time><name>PT5334</name></trkpt>
<trkpt lat="54.591777" lon="-3.242010"><ele>796</ele><time>2019-10-02T11:34:33Z</time><name>PT5335</name></trkpt>
<trkpt lat="54.591777" lon="-3.242009"><ele>796</ele><time>2019-10-02T11:34:34Z</time><name>PT5336</name></trkpt>
<trkpt lat="54.591780" lon="-3.242016"><ele>795</ele><time>2019-10-02T11:35:23Z</time><name>PT5337</name></trkpt>
<trkpt lat="54.591790" lon="-3.242017"><ele>795</ele><time>2019-10-02T11:35:24Z</time><name>PT5338</name></trkpt>
<trkpt lat="54.591791" lon="-3.242017"><ele>795</ele><time>2019-10-02T11:38:53Z</time><name>PT5339</name></trkpt>
<trkpt lat="54.591792" lon="-3.242020"><ele>796</ele><time>2019-10-02T11:38:54Z</time><name>PT5340</name></trkpt>
<trkpt lat="54.591796" lon="-3.242026"><ele>795</ele><time>2019-10-02T11:39:07Z</time><name>PT5341</name></trkpt>
<trkpt lat="54.591795" lon="-3.242025"><ele>795</ele><time>2019-10-02T11:39:08Z</time><name>PT5342</name></trkpt>
<trkpt lat="54.591795" lon="-3.242025"><ele>795</ele><time>2019-10-02T11:39:09Z</time><name>PT5343</name></trkpt>
<trkpt lat="54.591800" lon="-3.242019"><ele>795</ele><time>2019-10-02T11:45:53Z</time><name>PT5344</name></trkpt>
<trkpt lat="54.591803" lon="-3.242007"><ele>796</ele><time>2019-10-02T11:45:54Z</time><name>PT5345</name></trkpt>
<trkpt lat="54.591801" lon="-3.242005"><ele>796</ele><time>2019-10-02T11:45:55Z</time><name>PT5346</name></trkpt>
<trkpt lat="54.591801" lon="-3.242003"><ele>796</ele><time>2019-10-02T11:45:56Z</time><name>PT5347</name></trkpt>
<trkpt lat="54.591800" lon="-3.242001"><ele>796</ele><time>2019-10-02T11:45:57Z</time><name>PT5348</name></trkpt>
<trkpt lat="54.591800" lon="-3.242001"><ele>795</ele><time>2019-10-02T11:45:58Z</time><name>PT5349</name></trkpt>
<trkpt lat="54.591797" lon="-3.242000"><ele>796</ele><time>2019-10-02T11:45:59Z</time><name>PT5350</name></trkpt>
<trkpt lat="54.591792" lon="-3.242005"><ele>796</ele><time>2019-10-02T11:46:59Z</time><name>PT5351</name></trkpt>
<trkpt lat="54.591792" lon="-3.242010"><ele>796</ele><time>2019-10-02T11:47:00Z</time><name>PT5352</name></trkpt>
<trkpt lat="54.591789" lon="-3.242010"><ele>796</ele><time>2019-10-02T11:47:01Z</time><name>PT5353</name></trkpt>
<trkpt lat="54.591788" lon="-3.242011"><ele>796</ele><time>2019-10-02T11:47:25Z</time><name>PT5354</name></trkpt>
<trkpt lat="54.591789" lon="-3.242011"><ele>796</ele><time>2019-10-02T11:47:26Z</time><name>PT5355</name></trkpt>
<trkpt lat="54.591788" lon="-3.242016"><ele>796</ele><time>2019-10-02T11:47:27Z</time><name>PT5356</name></trkpt>
<trkpt lat="54.591785" lon="-3.242017"><ele>796</ele><time>2019-10-02T11:47:28Z</time><name>PT5357</name></trkpt>
<trkpt lat="54.591785" lon="-3.242020"><ele>796</ele><time>2019-10-02T11:47:29Z</time><name>PT5358</name></trkpt>
<trkpt lat="54.591783" lon="-3.242017"><ele>795</ele><time>2019-10-02T11:47:30Z</time><name>PT5359</name></trkpt>
<trkpt lat="54.591783" lon="-3.242018"><ele>795</ele><time>2019-10-02T11:47:31Z</time><name>PT5360</name></trkpt>
<trkpt lat="54.591785" lon="-3.242019"><ele>795</ele><time>2019-10-02T11:47:32Z</time><name>PT5361</name></trkpt>
<trkpt lat="54.591785" lon="-3.242019"><ele>795</ele><time>2019-10-02T11:47:33Z</time><name>PT5362</name></trkpt>
<trkpt lat="54.591787" lon="-3.242022"><ele>794</ele><time>2019-10-02T11:47:34Z</time><name>PT5363</name></trkpt>
<trkpt lat="54.591787" lon="-3.242024"><ele>794</ele><time>2019-10-02T11:47:35Z</time><name>PT5364</name></trkpt>
<trkpt lat="54.591786" lon="-3.242020"><ele>794</ele><time>2019-10-02T11:47:36Z</time><name>PT5365</name></trkpt>
<trkpt lat="54.591786" lon="-3.242023"><ele>794</ele><time>2019-10-02T11:47:37Z</time><name>PT5366</name></trkpt>
<trkpt lat="54.591785" lon="-3.242023"><ele>794</ele><time>2019-10-02T11:47:38Z</time><name>PT5367</name></trkpt>
<trkpt lat="54.591785" lon="-3.242025"><ele>794</ele><time>2019-10-02T11:47:39Z</time><name>PT5368</name></trkpt>
<trkpt lat="54.591785" lon="-3.242027"><ele>794</ele><time>2019-10-02T11:47:40Z</time><name>PT5369</name></trkpt>
<trkpt lat="54.591785" lon="-3.242027"><ele>794</ele><time>2019-10-02T11:47:41Z</time><name>PT5370</name></trkpt>
<trkpt lat="54.591783" lon="-3.242023"><ele>794</ele><time>2019-10-02T11:47:44Z</time><name>PT5371</name></trkpt>
<trkpt lat="54.591782" lon="-3.242024"><ele>794</ele><time>2019-10-02T11:47:45Z</time><name>PT5372</name></trkpt>
<trkpt lat="54.591783" lon="-3.242026"><ele>794</ele><time>2019-10-02T11:47:46Z</time><name>PT5373</name></trkpt>
<trkpt lat="54.591782" lon="-3.242026"><ele>795</ele><time>2019-10-02T11:47:47Z</time><name>PT5374</name></trkpt>
<trkpt lat="54.591781" lon="-3.242020"><ele>795</ele><time>2019-10-02T11:47:48Z</time><name>PT5375</name></trkpt>
<trkpt lat="54.591783" lon="-3.242013"><ele>795</ele><time>2019-10-02T11:47:49Z</time><name>PT5376</name></trkpt>
<trkpt lat="54.591782" lon="-3.242012"><ele>794</ele><time>2019-10-02T11:47:50Z</time><name>PT5377</name></trkpt>
<trkpt lat="54.591781" lon="-3.242013"><ele>794</ele><time>2019-10-02T11:47:51Z</time><name>PT5378</name></trkpt>
<trkpt lat="54.591783" lon="-3.242005"><ele>794</ele><time>2019-10-02T11:47:52Z</time><name>PT5379</name></trkpt>
<trkpt lat="54.591786" lon="-3.241983"><ele>794</ele><time>2019-10-02T11:47:53Z</time><name>PT5380</name></trkpt>
<trkpt lat="54.591789" lon="-3.241964"><ele>794</ele><time>2019-10-02T11:47:54Z</time><name>PT5381</name></trkpt>
<trkpt lat="54.591788" lon="-3.241958"><ele>794</ele><time>2019-10-02T11:47:55Z</time><name>PT5382</name></trkpt>
<trkpt lat="54.591787" lon="-3.241957"><ele>794</ele><time>2019-10-02T11:47:56Z</time><name>PT5383</name></trkpt>
<trkpt lat="54.591788" lon="-3.241958"><ele>794</ele><time>2019-10-02T11:47:57Z</time><name>PT5384</name></trkpt>
<trkpt lat="54.591787" lon="-3.241959"><ele>794</ele><time>2019-10-02T11:48:00Z</time><name>PT5385</name></trkpt>
<trkpt lat="54.591781" lon="-3.241959"><ele>794</ele><time>2019-10-02T11:48:01Z</time><name>PT5386</name></trkpt>
<trkpt lat="54.591777" lon="-3.241956"><ele>794</ele><time>2019-10-02T11:48:02Z</time><name>PT5387</name></trkpt>
<trkpt lat="54.591773" lon="-3.241957"><ele>795</ele><time>2019-10-02T11:48:03Z</time><name>PT5388</name></trkpt>
<trkpt lat="54.591776" lon="-3.241958"><ele>794</ele><time>2019-10-02T11:48:04Z</time><name>PT5389</name></trkpt>
<trkpt lat="54.591775" lon="-3.241959"><ele>794</ele><time>2019-10-02T11:48:05Z</time><name>PT5390</name></trkpt>
<trkpt lat="54.591775" lon="-3.241958"><ele>794</ele><time>2019-10-02T11:48:06Z</time><name>PT5391</name></trkpt>
<trkpt lat="54.591774" lon="-3.241957"><ele>794</ele><time>2019-10-02T11:48:07Z</time><name>PT5392</name></trkpt>
<trkpt lat="54.591776" lon="-3.241959"><ele>794</ele><time>2019-10-02T11:48:31Z</time><name>PT5393</name></trkpt>
<trkpt lat="54.591771" lon="-3.241958"><ele>794</ele><time>2019-10-02T11:48:32Z</time><name>PT5394</name></trkpt>
<trkpt lat="54.591766" lon="-3.241964"><ele>794</ele><time>2019-10-02T11:48:33Z</time><name>PT5395</name></trkpt>
<trkpt lat="54.591759" lon="-3.241967"><ele>794</ele><time>2019-10-02T11:48:34Z</time><name>PT5396</name></trkpt>
<trkpt lat="54.591753" lon="-3.241967"><ele>794</ele><time>2019-10-02T11:48:35Z</time><name>PT5397</name></trkpt>
<trkpt lat="54.591742" lon="-3.241965"><ele>794</ele><time>2019-10-02T11:48:36Z</time><name>PT5398</name></trkpt>
<trkpt lat="54.591737" lon="-3.241962"><ele>794</ele><time>2019-10-02T11:48:37Z</time><name>PT5399</name></trkpt>
<trkpt lat="54.591733" lon="-3.241961"><ele>794</ele><time>2019-10-02T11:48:38Z</time><name>PT5400</name></trkpt>
<trkpt lat="54.591731" lon="-3.241962"><ele>794</ele><time>2019-10-02T11:48:39Z</time><name>PT5401</name></trkpt>
<trkpt lat="54.591730" lon="-3.241963"><ele>794</ele><time>2019-10-02T11:48:40Z</time><name>PT5402</name></trkpt>
<trkpt lat="54.591730" lon="-3.241965"><ele>794</ele><time>2019-10-02T11:48:42Z</time><name>PT5403</name></trkpt>
<trkpt lat="54.591727" lon="-3.241970"><ele>794</ele><time>2019-10-02T11:48:53Z</time><name>PT5404</name></trkpt>
<trkpt lat="54.591716" lon="-3.241981"><ele>794</ele><time>2019-10-02T11:48:54Z</time><name>PT5405</name></trkpt>
<trkpt lat="54.591706" lon="-3.241988"><ele>794</ele><time>2019-10-02T11:48:55Z</time><name>PT5406</name></trkpt>
<trkpt lat="54.591696" lon="-3.242000"><ele>794</ele><time>2019-10-02T11:48:56Z</time><name>PT5407</name></trkpt>
<trkpt lat="54.591688" lon="-3.242017"><ele>794</ele><time>2019-10-02T11:48:57Z</time><name>PT5408</name></trkpt>
<trkpt lat="54.591679" lon="-3.242027"><ele>794</ele><time>2019-10-02T11:48:58Z</time><name>PT5409</name></trkpt>
<trkpt lat="54.591671" lon="-3.242038"><ele>794</ele><time>2019-10-02T11:48:59Z</time><name>PT5410</name></trkpt>
<trkpt lat="54.591664" lon="-3.242048"><ele>794</ele><time>2019-10-02T11:49:00Z</time><name>PT5411</name></trkpt>
<trkpt lat="54.591655" lon="-3.242057"><ele>794</ele><time>2019-10-02T11:49:01Z</time><name>PT5412</name></trkpt>
<trkpt lat="54.591649" lon="-3.242072"><ele>794</ele><time>2019-10-02T11:49:02Z</time><name>PT5413</name></trkpt>
<trkpt lat="54.591641" lon="-3.242086"><ele>794</ele><time>2019-10-02T11:49:03Z</time><name>PT5414</name></trkpt>
<trkpt lat="54.591635" lon="-3.242103"><ele>794</ele><time>2019-10-02T11:49:04Z</time><name>PT5415</name></trkpt>
<trkpt lat="54.591628" lon="-3.242114"><ele>793</ele><time>2019-10-02T11:49:05Z</time><name>PT5416</name></trkpt>
<trkpt lat="54.591619" lon="-3.242130"><ele>793</ele><time>2019-10-02T11:49:06Z</time><name>PT5417</name></trkpt>
<trkpt lat="54.591611" lon="-3.242147"><ele>793</ele><time>2019-10-02T11:49:07Z</time><name>PT5418</name></trkpt>
<trkpt lat="54.591604" lon="-3.242157"><ele>793</ele><time>2019-10-02T11:49:08Z</time><name>PT5419</name></trkpt>
<trkpt lat="54.591597" lon="-3.242168"><ele>793</ele><time>2019-10-02T11:49:09Z</time><name>PT5420</name></trkpt>
<trkpt lat="54.591594" lon="-3.242178"><ele>793</ele><time>2019-10-02T11:49:10Z</time><name>PT5421</name></trkpt>
<trkpt lat="54.591589" lon="-3.242186"><ele>793</ele><time>2019-10-02T11:49:11Z</time><name>PT5422</name></trkpt>
<trkpt lat="54.591583" lon="-3.242194"><ele>793</ele><time>2019-10-02T11:49:12Z</time><name>PT5423</name></trkpt>
<trkpt lat="54.591575" lon="-3.242199"><ele>793</ele><time>2019-10-02T11:49:13Z</time><name>PT5424</name></trkpt>
<trkpt lat="54.591566" lon="-3.242203"><ele>793</ele><time>2019-10-02T11:49:14Z</time><name>PT5425</name></trkpt>
<trkpt lat="54.591556" lon="-3.242205"><ele>792</ele><time>2019-10-02T11:49:15Z</time><name>PT5426</name></trkpt>
<trkpt lat="54.591548" lon="-3.242210"><ele>793</ele><time>2019-10-02T11:49:16Z</time><name>PT5427</name></trkpt>
<trkpt lat="54.591543" lon="-3.242218"><ele>793</ele><time>2019-10-02T11:49:17Z</time><name>PT5428</name></trkpt>
<trkpt lat="54.591540" lon="-3.242227"><ele>793</ele><time>2019-10-02T11:49:18Z</time><name>PT5429</name></trkpt>
<trkpt lat="54.591535" lon="-3.242236"><ele>792</ele><time>2019-10-02T11:49:19Z</time><name>PT5430</name></trkpt>
<trkpt lat="54.591528" lon="-3.242243"><ele>793</ele><time>2019-10-02T11:49:20Z</time><name>PT5431</name></trkpt>
<trkpt lat="54.591522" lon="-3.242254"><ele>793</ele><time>2019-10-02T11:49:21Z</time><name>PT5432</name></trkpt>
<trkpt lat="54.591516" lon="-3.242265"><ele>793</ele><time>2019-10-02T11:49:22Z</time><name>PT5433</name></trkpt>
<trkpt lat="54.591509" lon="-3.242278"><ele>793</ele><time>2019-10-02T11:49:23Z</time><name>PT5434</name></trkpt>
<trkpt lat="54.591503" lon="-3.242289"><ele>792</ele><time>2019-10-02T11:49:24Z</time><name>PT5435</name></trkpt>
<trkpt lat="54.591499" lon="-3.242300"><ele>793</ele><time>2019-10-02T11:49:25Z</time><name>PT5436</name></trkpt>
<trkpt lat="54.591492" lon="-3.242315"><ele>793</ele><time>2019-10-02T11:49:26Z</time><name>PT5437</name></trkpt>
<trkpt lat="54.591484" lon="-3.242331"><ele>793</ele><time>2019-10-02T11:49:27Z</time><name>PT5438</name></trkpt>
<trkpt lat="54.591482" lon="-3.242341"><ele>793</ele><time>2019-10-02T11:49:28Z</time><name>PT5439</name></trkpt>
<trkpt lat="54.591477" lon="-3.242354"><ele>793</ele><time>2019-10-02T11:49:29Z</time><name>PT5440</name></trkpt>
<trkpt lat="54.591474" lon="-3.242364"><ele>793</ele><time>2019-10-02T11:49:30Z</time><name>PT5441</name></trkpt>
<trkpt lat="54.591472" lon="-3.242374"><ele>793</ele><time>2019-10-02T11:49:31Z</time><name>PT5442</name></trkpt>
<trkpt lat="54.591472" lon="-3.242389"><ele>793</ele><time>2019-10-02T11:49:32Z</time><name>PT5443</name></trkpt>
<trkpt lat="54.591470" lon="-3.242402"><ele>792</ele><time>2019-10-02T11:49:33Z</time><name>PT5444</name></trkpt>
<trkpt lat="54.591465" lon="-3.242421"><ele>791</ele><time>2019-10-02T11:49:34Z</time><name>PT5445</name></trkpt>
<trkpt lat="54.591472" lon="-3.242442"><ele>792</ele><time>2019-10-02T11:49:35Z</time><name>PT5446</name></trkpt>
<trkpt lat="54.591474" lon="-3.242458"><ele>791</ele><time>2019-10-02T11:49:36Z</time><name>PT5447</name></trkpt>
<trkpt lat="54.591475" lon="-3.242474"><ele>791</ele><time>2019-10-02T11:49:37Z</time><name>PT5448</name></trkpt>
<trkpt lat="54.591474" lon="-3.242489"><ele>791</ele><time>2019-10-02T11:49:38Z</time><name>PT5449</name></trkpt>
<trkpt lat="54.591470" lon="-3.242505"><ele>791</ele><time>2019-10-02T11:49:39Z</time><name>PT5450</name></trkpt>
<trkpt lat="54.591469" lon="-3.242518"><ele>791</ele><time>2019-10-02T11:49:40Z</time><name>PT5451</name></trkpt>
<trkpt lat="54.591471" lon="-3.242534"><ele>792</ele><time>2019-10-02T11:49:41Z</time><name>PT5452</name></trkpt>
<trkpt lat="54.591468" lon="-3.242549"><ele>792</ele><time>2019-10-02T11:49:42Z</time><name>PT5453</name></trkpt>
<trkpt lat="54.591464" lon="-3.242565"><ele>792</ele><time>2019-10-02T11:49:43Z</time><name>PT5454</name></trkpt>
<trkpt lat="54.591459" lon="-3.242580"><ele>791</ele><time>2019-10-02T11:49:44Z</time><name>PT5455</name></trkpt>
<trkpt lat="54.591456" lon="-3.242596"><ele>792</ele><time>2019-10-02T11:49:45Z</time><name>PT5456</name></trkpt>
<trkpt lat="54.591453" lon="-3.242608"><ele>791</ele><time>2019-10-02T11:49:46Z</time><name>PT5457</name></trkpt>
<trkpt lat="54.591451" lon="-3.242619"><ele>791</ele><time>2019-10-02T11:49:47Z</time><name>PT5458</name></trkpt>
<trkpt lat="54.591448" lon="-3.242634"><ele>790</ele><time>2019-10-02T11:49:48Z</time><name>PT5459</name></trkpt>
<trkpt lat="54.591443" lon="-3.242646"><ele>790</ele><time>2019-10-02T11:49:49Z</time><name>PT5460</name></trkpt>
<trkpt lat="54.591439" lon="-3.242657"><ele>790</ele><time>2019-10-02T11:49:50Z</time><name>PT5461</name></trkpt>
<trkpt lat="54.591434" lon="-3.242667"><ele>789</ele><time>2019-10-02T11:49:51Z</time><name>PT5462</name></trkpt>
<trkpt lat="54.591427" lon="-3.242676"><ele>789</ele><time>2019-10-02T11:49:52Z</time><name>PT5463</name></trkpt>
<trkpt lat="54.591421" lon="-3.242684"><ele>788</ele><time>2019-10-02T11:49:53Z</time><name>PT5464</name></trkpt>
<trkpt lat="54.591416" lon="-3.242694"><ele>788</ele><time>2019-10-02T11:49:54Z</time><name>PT5465</name></trkpt>
<trkpt lat="54.591409" lon="-3.242705"><ele>788</ele><time>2019-10-02T11:49:55Z</time><name>PT5466</name></trkpt>
<trkpt lat="54.591401" lon="-3.242717"><ele>788</ele><time>2019-10-02T11:49:56Z</time><name>PT5467</name></trkpt>
<trkpt lat="54.591397" lon="-3.242722"><ele>788</ele><time>2019-10-02T11:49:57Z</time><name>PT5468</name></trkpt>
<trkpt lat="54.591392" lon="-3.242730"><ele>788</ele><time>2019-10-02T11:49:58Z</time><name>PT5469</name></trkpt>
<trkpt lat="54.591386" lon="-3.242739"><ele>788</ele><time>2019-10-02T11:49:59Z</time><name>PT5470</name></trkpt>
<trkpt lat="54.591378" lon="-3.242748"><ele>788</ele><time>2019-10-02T11:50:00Z</time><name>PT5471</name></trkpt>
<trkpt lat="54.591371" lon="-3.242752"><ele>787</ele><time>2019-10-02T11:50:01Z</time><name>PT5472</name></trkpt>
<trkpt lat="54.591363" lon="-3.242759"><ele>787</ele><time>2019-10-02T11:50:02Z</time><name>PT5473</name></trkpt>
<trkpt lat="54.591358" lon="-3.242765"><ele>787</ele><time>2019-10-02T11:50:03Z</time><name>PT5474</name></trkpt>
<trkpt lat="54.591355" lon="-3.242772"><ele>787</ele><time>2019-10-02T11:50:04Z</time><name>PT5475</name></trkpt>
<trkpt lat="54.591349" lon="-3.242779"><ele>786</ele><time>2019-10-02T11:50:05Z</time><name>PT5476</name></trkpt>
<trkpt lat="54.591341" lon="-3.242789"><ele>786</ele><time>2019-10-02T11:50:06Z</time><name>PT5477</name></trkpt>
<trkpt lat="54.591334" lon="-3.242799"><ele>786</ele><time>2019-10-02T11:50:07Z</time><name>PT5478</name></trkpt>
<trkpt lat="54.591326" lon="-3.242808"><ele>786</ele><time>2019-10-02T11:50:08Z</time><name>PT5479</name></trkpt>
<trkpt lat="54.591319" lon="-3.242813"><ele>786</ele><time>2019-10-02T11:50:09Z</time><name>PT5480</name></trkpt>
<trkpt lat="54.591313" lon="-3.242823"><ele>786</ele><time>2019-10-02T11:50:10Z</time><name>PT5481</name></trkpt>
<trkpt lat="54.591306" lon="-3.242831"><ele>786</ele><time>2019-10-02T11:50:11Z</time><name>PT5482</name></trkpt>
<trkpt lat="54.591300" lon="-3.242842"><ele>785</ele><time>2019-10-02T11:50:12Z</time><name>PT5483</name></trkpt>
<trkpt lat="54.591292" lon="-3.242849"><ele>785</ele><time>2019-10-02T11:50:13Z</time><name>PT5484</name></trkpt>
<trkpt lat="54.591284" lon="-3.242858"><ele>785</ele><time>2019-10-02T11:50:14Z</time><name>PT5485</name></trkpt>
<trkpt lat="54.591275" lon="-3.242865"><ele>785</ele><time>2019-10-02T11:50:15Z</time><name>PT5486</name></trkpt>
<trkpt lat="54.591268" lon="-3.242872"><ele>785</ele><time>2019-10-02T11:50:16Z</time><name>PT5487</name></trkpt>
<trkpt lat="54.591263" lon="-3.242876"><ele>785</ele><time>2019-10-02T11:50:17Z</time><name>PT5488</name></trkpt>
<trkpt lat="54.591261" lon="-3.242885"><ele>785</ele><time>2019-10-02T11:50:18Z</time><name>PT5489</name></trkpt>
<trkpt lat="54.591256" lon="-3.242893"><ele>785</ele><time>2019-10-02T11:50:19Z</time><name>PT5490</name></trkpt>
<trkpt lat="54.591248" lon="-3.242897"><ele>784</ele><time>2019-10-02T11:50:20Z</time><name>PT5491</name></trkpt>
<trkpt lat="54.591240" lon="-3.242903"><ele>784</ele><time>2019-10-02T11:50:21Z</time><name>PT5492</name></trkpt>
<trkpt lat="54.591233" lon="-3.242908"><ele>784</ele><time>2019-10-02T11:50:22Z</time><name>PT5493</name></trkpt>
<trkpt lat="54.591224" lon="-3.242914"><ele>784</ele><time>2019-10-02T11:50:23Z</time><name>PT5494</name></trkpt>
<trkpt lat="54.591217" lon="-3.242919"><ele>784</ele><time>2019-10-02T11:50:24Z</time><name>PT5495</name></trkpt>
<trkpt lat="54.591209" lon="-3.242925"><ele>784</ele><time>2019-10-02T11:50:25Z</time><name>PT5496</name></trkpt>
<trkpt lat="54.591201" lon="-3.242929"><ele>783</ele><time>2019-10-02T11:50:26Z</time><name>PT5497</name></trkpt>
<trkpt lat="54.591193" lon="-3.242933"><ele>783</ele><time>2019-10-02T11:50:27Z</time><name>PT5498</name></trkpt>
<trkpt lat="54.591186" lon="-3.242938"><ele>783</ele><time>2019-10-02T11:50:28Z</time><name>PT5499</name></trkpt>
<trkpt lat="54.591179" lon="-3.242947"><ele>783</ele><time>2019-10-02T11:50:29Z</time><name>PT5500</name></trkpt>
<trkpt lat="54.591171" lon="-3.242955"><ele>782</ele><time>2019-10-02T11:50:30Z</time><name>PT5501</name></trkpt>
<trkpt lat="54.591163" lon="-3.242963"><ele>782</ele><time>2019-10-02T11:50:31Z</time><name>PT5502</name></trkpt>
<trkpt lat="54.591156" lon="-3.242969"><ele>782</ele><time>2019-10-02T11:50:32Z</time><name>PT5503</name></trkpt>
<trkpt lat="54.591153" lon="-3.242973"><ele>782</ele><time>2019-10-02T11:50:33Z</time><name>PT5504</name></trkpt>
<trkpt lat="54.591150" lon="-3.242981"><ele>782</ele><time>2019-10-02T11:50:34Z</time><name>PT5505</name></trkpt>
<trkpt lat="54.591145" lon="-3.242992"><ele>781</ele><time>2019-10-02T11:50:35Z</time><name>PT5506</name></trkpt>
<trkpt lat="54.591142" lon="-3.243001"><ele>781</ele><time>2019-10-02T11:50:36Z</time><name>PT5507</name></trkpt>
<trkpt lat="54.591137" lon="-3.243013"><ele>781</ele><time>2019-10-02T11:50:37Z</time><name>PT5508</name></trkpt>
<trkpt lat="54.591134" lon="-3.243024"><ele>781</ele><time>2019-10-02T11:50:38Z</time><name>PT5509</name></trkpt>
<trkpt lat="54.591128" lon="-3.243035"><ele>781</ele><time>2019-10-02T11:50:39Z</time><name>PT5510</name></trkpt>
<trkpt lat="54.591122" lon="-3.243047"><ele>781</ele><time>2019-10-02T11:50:40Z</time><name>PT5511</name></trkpt>
<trkpt lat="54.591119" lon="-3.243059"><ele>780</ele><time>2019-10-02T11:50:41Z</time><name>PT5512</name></trkpt>
<trkpt lat="54.591119" lon="-3.243073"><ele>780</ele><time>2019-10-02T11:50:42Z</time><name>PT5513</name></trkpt>
<trkpt lat="54.591114" lon="-3.243085"><ele>780</ele><time>2019-10-02T11:50:43Z</time><name>PT5514</name></trkpt>
<trkpt lat="54.591113" lon="-3.243102"><ele>780</ele><time>2019-10-02T11:50:44Z</time><name>PT5515</name></trkpt>
<trkpt lat="54.591111" lon="-3.243115"><ele>779</ele><time>2019-10-02T11:50:45Z</time><name>PT5516</name></trkpt>
<trkpt lat="54.591107" lon="-3.243128"><ele>779</ele><time>2019-10-02T11:50:46Z</time><name>PT5517</name></trkpt>
<trkpt lat="54.591101" lon="-3.243140"><ele>779</ele><time>2019-10-02T11:50:47Z</time><name>PT5518</name></trkpt>
<trkpt lat="54.591094" lon="-3.243148"><ele>779</ele><time>2019-10-02T11:50:48Z</time><name>PT5519</name></trkpt>
<trkpt lat="54.591087" lon="-3.243157"><ele>778</ele><time>2019-10-02T11:50:49Z</time><name>PT5520</name></trkpt>
<trkpt lat="54.591081" lon="-3.243164"><ele>778</ele><time>2019-10-02T11:50:50Z</time><name>PT5521</name></trkpt>
<trkpt lat="54.591076" lon="-3.243169"><ele>777</ele><time>2019-10-02T11:50:51Z</time><name>PT5522</name></trkpt>
<trkpt lat="54.591072" lon="-3.243172"><ele>777</ele><time>2019-10-02T11:50:52Z</time><name>PT5523</name></trkpt>
<trkpt lat="54.591066" lon="-3.243181"><ele>777</ele><time>2019-10-02T11:50:53Z</time><name>PT5524</name></trkpt>
<trkpt lat="54.591061" lon="-3.243187"><ele>777</ele><time>2019-10-02T11:50:54Z</time><name>PT5525</name></trkpt>
<trkpt lat="54.591057" lon="-3.243195"><ele>776</ele><time>2019-10-02T11:50:55Z</time><name>PT5526</name></trkpt>
<trkpt lat="54.591053" lon="-3.243204"><ele>776</ele><time>2019-10-02T11:50:56Z</time><name>PT5527</name></trkpt>
<trkpt lat="54.591049" lon="-3.243212"><ele>776</ele><time>2019-10-02T11:50:57Z</time><name>PT5528</name></trkpt>
<trkpt lat="54.591044" lon="-3.243218"><ele>776</ele><time>2019-10-02T11:50:58Z</time><name>PT5529</name></trkpt>
<trkpt lat="54.591038" lon="-3.243223"><ele>775</ele><time>2019-10-02T11:50:59Z</time><name>PT5530</name></trkpt>
<trkpt lat="54.591033" lon="-3.243223"><ele>775</ele><time>2019-10-02T11:51:00Z</time><name>PT5531</name></trkpt>
<trkpt lat="54.591028" lon="-3.243224"><ele>774</ele><time>2019-10-02T11:51:01Z</time><name>PT5532</name></trkpt>
<trkpt lat="54.591023" lon="-3.243226"><ele>774</ele><time>2019-10-02T11:51:02Z</time><name>PT5533</name></trkpt>
<trkpt lat="54.591019" lon="-3.243227"><ele>774</ele><time>2019-10-02T11:51:03Z</time><name>PT5534</name></trkpt>
<trkpt lat="54.591013" lon="-3.243240"><ele>774</ele><time>2019-10-02T11:51:04Z</time><name>PT5535</name></trkpt>
<trkpt lat="54.591006" lon="-3.243253"><ele>773</ele><time>2019-10-02T11:51:05Z</time><name>PT5536</name></trkpt>
<trkpt lat="54.590999" lon="-3.243266"><ele>773</ele><time>2019-10-02T11:51:06Z</time><name>PT5537</name></trkpt>
<trkpt lat="54.590995" lon="-3.243272"><ele>773</ele><time>2019-10-02T11:51:07Z</time><name>PT5538</name></trkpt>
<trkpt lat="54.590989" lon="-3.243283"><ele>772</ele><time>2019-10-02T11:51:08Z</time><name>PT5539</name></trkpt>
<trkpt lat="54.590981" lon="-3.243294"><ele>772</ele><time>2019-10-02T11:51:09Z</time><name>PT5540</name></trkpt>
<trkpt lat="54.590975" lon="-3.243303"><ele>772</ele><time>2019-10-02T11:51:10Z</time><name>PT5541</name></trkpt>
<trkpt lat="54.590971" lon="-3.243311"><ele>772</ele><time>2019-10-02T11:51:11Z</time><name>PT5542</name></trkpt>
<trkpt lat="54.590964" lon="-3.243321"><ele>772</ele><time>2019-10-02T11:51:12Z</time><name>PT5543</name></trkpt>
<trkpt lat="54.590958" lon="-3.243334"><ele>772</ele><time>2019-10-02T11:51:13Z</time><name>PT5544</name></trkpt>
<trkpt lat="54.590953" lon="-3.243347"><ele>771</ele><time>2019-10-02T11:51:14Z</time><name>PT5545</name></trkpt>
<trkpt lat="54.590946" lon="-3.243358"><ele>771</ele><time>2019-10-02T11:51:15Z</time><name>PT5546</name></trkpt>
<trkpt lat="54.590942" lon="-3.243362"><ele>771</ele><time>2019-10-02T11:51:16Z</time><name>PT5547</name></trkpt>
<trkpt lat="54.590934" lon="-3.243371"><ele>770</ele><time>2019-10-02T11:51:17Z</time><name>PT5548</name></trkpt>
<trkpt lat="54.590930" lon="-3.243368"><ele>770</ele><time>2019-10-02T11:51:18Z</time><name>PT5549</name></trkpt>
<trkpt lat="54.590923" lon="-3.243374"><ele>770</ele><time>2019-10-02T11:51:19Z</time><name>PT5550</name></trkpt>
<trkpt lat="54.590916" lon="-3.243379"><ele>770</ele><time>2019-10-02T11:51:20Z</time><name>PT5551</name></trkpt>
<trkpt lat="54.590910" lon="-3.243383"><ele>770</ele><time>2019-10-02T11:51:21Z</time><name>PT5552</name></trkpt>
<trkpt lat="54.590905" lon="-3.243390"><ele>770</ele><time>2019-10-02T11:51:22Z</time><name>PT5553</name></trkpt>
<trkpt lat="54.590902" lon="-3.243398"><ele>770</ele><time>2019-10-02T11:51:23Z</time><name>PT5554</name></trkpt>
<trkpt lat="54.590897" lon="-3.243408"><ele>770</ele><time>2019-10-02T11:51:24Z</time><name>PT5555</name></trkpt>
<trkpt lat="54.590893" lon="-3.243420"><ele>770</ele><time>2019-10-02T11:51:25Z</time><name>PT5556</name></trkpt>
<trkpt lat="54.590889" lon="-3.243430"><ele>770</ele><time>2019-10-02T11:51:26Z</time><name>PT5557</name></trkpt>
<trkpt lat="54.590884" lon="-3.243445"><ele>770</ele><time>2019-10-02T11:51:27Z</time><name>PT5558</name></trkpt>
<trkpt lat="54.590879" lon="-3.243452"><ele>770</ele><time>2019-10-02T11:51:28Z</time><name>PT5559</name></trkpt>
<trkpt lat="54.590875" lon="-3.243455"><ele>769</ele><time>2019-10-02T11:51:29Z</time><name>PT5560</name></trkpt>
<trkpt lat="54.590870" lon="-3.243464"><ele>769</ele><time>2019-10-02T11:51:30Z</time><name>PT5561</name></trkpt>
<trkpt lat="54.590866" lon="-3.243469"><ele>769</ele><time>2019-10-02T11:51:31Z</time><name>PT5562</name></trkpt>
<trkpt lat="54.590860" lon="-3.243478"><ele>769</ele><time>2019-10-02T11:51:32Z</time><name>PT5563</name></trkpt>
<trkpt lat="54.590853" lon="-3.243487"><ele>769</ele><time>2019-10-02T11:51:33Z</time><name>PT5564</name></trkpt>
<trkpt lat="54.590848" lon="-3.243492"><ele>768</ele><time>2019-10-02T11:51:34Z</time><name>PT5565</name></trkpt>
<trkpt lat="54.590841" lon="-3.243499"><ele>768</ele><time>2019-10-02T11:51:35Z</time><name>PT5566</name></trkpt>
<trkpt lat="54.590836" lon="-3.243509"><ele>768</ele><time>2019-10-02T11:51:36Z</time><name>PT5567</name></trkpt>
<trkpt lat="54.590831" lon="-3.243514"><ele>767</ele><time>2019-10-02T11:51:37Z</time><name>PT5568</name></trkpt>
<trkpt lat="54.590826" lon="-3.243518"><ele>767</ele><time>2019-10-02T11:51:38Z</time><name>PT5569</name></trkpt>
<trkpt lat="54.590820" lon="-3.243522"><ele>767</ele><time>2019-10-02T11:51:39Z</time><name>PT5570</name></trkpt>
<trkpt lat="54.590816" lon="-3.243530"><ele>767</ele><time>2019-10-02T11:51:40Z</time><name>PT5571</name></trkpt>
<trkpt lat="54.590811" lon="-3.243540"><ele>767</ele><time>2019-10-02T11:51:41Z</time><name>PT5572</name></trkpt>
<trkpt lat="54.590806" lon="-3.243552"><ele>766</ele><time>2019-10-02T11:51:42Z</time><name>PT5573</name></trkpt>
<trkpt lat="54.590802" lon="-3.243561"><ele>766</ele><time>2019-10-02T11:51:43Z</time><name>PT5574</name></trkpt>
<trkpt lat="54.590796" lon="-3.243570"><ele>766</ele><time>2019-10-02T11:51:44Z</time><name>PT5575</name></trkpt>
<trkpt lat="54.590790" lon="-3.243585"><ele>766</ele><time>2019-10-02T11:51:45Z</time><name>PT5576</name></trkpt>
<trkpt lat="54.590785" lon="-3.243600"><ele>766</ele><time>2019-10-02T11:51:46Z</time><name>PT5577</name></trkpt>
<trkpt lat="54.590779" lon="-3.243611"><ele>765</ele><time>2019-10-02T11:51:47Z</time><name>PT5578</name></trkpt>
<trkpt lat="54.590773" lon="-3.243628"><ele>765</ele><time>2019-10-02T11:51:48Z</time><name>PT5579</name></trkpt>
<trkpt lat="54.590769" lon="-3.243634"><ele>765</ele><time>2019-10-02T11:51:49Z</time><name>PT5580</name></trkpt>
<trkpt lat="54.590765" lon="-3.243640"><ele>765</ele><time>2019-10-02T11:51:50Z</time><name>PT5581</name></trkpt>
<trkpt lat="54.590760" lon="-3.243648"><ele>765</ele><time>2019-10-02T11:51:51Z</time><name>PT5582</name></trkpt>
<trkpt lat="54.590755" lon="-3.243654"><ele>765</ele><time>2019-10-02T11:51:52Z</time><name>PT5583</name></trkpt>
<trkpt lat="54.590750" lon="-3.243660"><ele>765</ele><time>2019-10-02T11:51:53Z</time><name>PT5584</name></trkpt>
<trkpt lat="54.590745" lon="-3.243668"><ele>765</ele><time>2019-10-02T11:51:54Z</time><name>PT5585</name></trkpt>
<trkpt lat="54.590739" lon="-3.243674"><ele>764</ele><time>2019-10-02T11:51:55Z</time><name>PT5586</name></trkpt>
<trkpt lat="54.590736" lon="-3.243682"><ele>764</ele><time>2019-10-02T11:51:56Z</time><name>PT5587</name></trkpt>
<trkpt lat="54.590729" lon="-3.243690"><ele>764</ele><time>2019-10-02T11:51:57Z</time><name>PT5588</name></trkpt>
<trkpt lat="54.590723" lon="-3.243699"><ele>764</ele><time>2019-10-02T11:51:58Z</time><name>PT5589</name></trkpt>
<trkpt lat="54.590718" lon="-3.243706"><ele>764</ele><time>2019-10-02T11:51:59Z</time><name>PT5590</name></trkpt>
<trkpt lat="54.590711" lon="-3.243712"><ele>764</ele><time>2019-10-02T11:52:00Z</time><name>PT5591</name></trkpt>
<trkpt lat="54.590703" lon="-3.243720"><ele>763</ele><time>2019-10-02T11:52:01Z</time><name>PT5592</name></trkpt>
<trkpt lat="54.590695" lon="-3.243728"><ele>763</ele><time>2019-10-02T11:52:02Z</time><name>PT5593</name></trkpt>
<trkpt lat="54.590688" lon="-3.243737"><ele>763</ele><time>2019-10-02T11:52:03Z</time><name>PT5594</name></trkpt>
<trkpt lat="54.590682" lon="-3.243747"><ele>763</ele><time>2019-10-02T11:52:04Z</time><name>PT5595</name></trkpt>
<trkpt lat="54.590675" lon="-3.243757"><ele>762</ele><time>2019-10-02T11:52:05Z</time><name>PT5596</name></trkpt>
<trkpt lat="54.590668" lon="-3.243772"><ele>762</ele><time>2019-10-02T11:52:06Z</time><name>PT5597</name></trkpt>
<trkpt lat="54.590663" lon="-3.243787"><ele>762</ele><time>2019-10-02T11:52:07Z</time><name>PT5598</name></trkpt>
<trkpt lat="54.590658" lon="-3.243798"><ele>762</ele><time>2019-10-02T11:52:08Z</time><name>PT5599</name></trkpt>
<trkpt lat="54.590650" lon="-3.243805"><ele>762</ele><time>2019-10-02T11:52:09Z</time><name>PT5600</name></trkpt>
<trkpt lat="54.590641" lon="-3.243817"><ele>762</ele><time>2019-10-02T11:52:10Z</time><name>PT5601</name></trkpt>
<trkpt lat="54.590636" lon="-3.243825"><ele>762</ele><time>2019-10-02T11:52:11Z</time><name>PT5602</name></trkpt>
<trkpt lat="54.590630" lon="-3.243835"><ele>761</ele><time>2019-10-02T11:52:12Z</time><name>PT5603</name></trkpt>
<trkpt lat="54.590624" lon="-3.243847"><ele>761</ele><time>2019-10-02T11:52:13Z</time><name>PT5604</name></trkpt>
<trkpt lat="54.590618" lon="-3.243864"><ele>761</ele><time>2019-10-02T11:52:14Z</time><name>PT5605</name></trkpt>
<trkpt lat="54.590611" lon="-3.243879"><ele>761</ele><time>2019-10-02T11:52:15Z</time><name>PT5606</name></trkpt>
<trkpt lat="54.590604" lon="-3.243894"><ele>761</ele><time>2019-10-02T11:52:16Z</time><name>PT5607</name></trkpt>
<trkpt lat="54.590598" lon="-3.243910"><ele>761</ele><time>2019-10-02T11:52:17Z</time><name>PT5608</name></trkpt>
<trkpt lat="54.590594" lon="-3.243919"><ele>760</ele><time>2019-10-02T11:52:18Z</time><name>PT5609</name></trkpt>
<trkpt lat="54.590587" lon="-3.243931"><ele>760</ele><time>2019-10-02T11:52:19Z</time><name>PT5610</name></trkpt>
<trkpt lat="54.590579" lon="-3.243946"><ele>760</ele><time>2019-10-02T11:52:20Z</time><name>PT5611</name></trkpt>
<trkpt lat="54.590570" lon="-3.243957"><ele>760</ele><time>2019-10-02T11:52:21Z</time><name>PT5612</name></trkpt>
<trkpt lat="54.590562" lon="-3.243968"><ele>760</ele><time>2019-10-02T11:52:22Z</time><name>PT5613</name></trkpt>
<trkpt lat="54.590552" lon="-3.243978"><ele>759</ele><time>2019-10-02T11:52:23Z</time><name>PT5614</name></trkpt>
<trkpt lat="54.590542" lon="-3.243990"><ele>759</ele><time>2019-10-02T11:52:24Z</time><name>PT5615</name></trkpt>
<trkpt lat="54.590534" lon="-3.244007"><ele>759</ele><time>2019-10-02T11:52:25Z</time><name>PT5616</name></trkpt>
<trkpt lat="54.590526" lon="-3.244018"><ele>759</ele><time>2019-10-02T11:52:26Z</time><name>PT5617</name></trkpt>
<trkpt lat="54.590521" lon="-3.244023"><ele>759</ele><time>2019-10-02T11:52:27Z</time><name>PT5618</name></trkpt>
<trkpt lat="54.590513" lon="-3.244028"><ele>759</ele><time>2019-10-02T11:52:28Z</time><name>PT5619</name></trkpt>
<trkpt lat="54.590503" lon="-3.244043"><ele>759</ele><time>2019-10-02T11:52:29Z</time><name>PT5620</name></trkpt>
<trkpt lat="54.590499" lon="-3.244052"><ele>759</ele><time>2019-10-02T11:52:30Z</time><name>PT5621</name></trkpt>
<trkpt lat="54.590491" lon="-3.244060"><ele>759</ele><time>2019-10-02T11:52:31Z</time><name>PT5622</name></trkpt>
<trkpt lat="54.590482" lon="-3.244070"><ele>758</ele><time>2019-10-02T11:52:32Z</time><name>PT5623</name></trkpt>
<trkpt lat="54.590475" lon="-3.244083"><ele>758</ele><time>2019-10-02T11:52:33Z</time><name>PT5624</name></trkpt>
<trkpt lat="54.590469" lon="-3.244095"><ele>758</ele><time>2019-10-02T11:52:34Z</time><name>PT5625</name></trkpt>
<trkpt lat="54.590463" lon="-3.244109"><ele>758</ele><time>2019-10-02T11:52:35Z</time><name>PT5626</name></trkpt>
<trkpt lat="54.590455" lon="-3.244116"><ele>757</ele><time>2019-10-02T11:52:36Z</time><name>PT5627</name></trkpt>
<trkpt lat="54.590448" lon="-3.244126"><ele>757</ele><time>2019-10-02T11:52:37Z</time><name>PT5628</name></trkpt>
<trkpt lat="54.590440" lon="-3.244138"><ele>756</ele><time>2019-10-02T11:52:38Z</time><name>PT5629</name></trkpt>
<trkpt lat="54.590433" lon="-3.244153"><ele>756</ele><time>2019-10-02T11:52:39Z</time><name>PT5630</name></trkpt>
<trkpt lat="54.590427" lon="-3.244168"><ele>756</ele><time>2019-10-02T11:52:40Z</time><name>PT5631</name></trkpt>
<trkpt lat="54.590421" lon="-3.244183"><ele>755</ele><time>2019-10-02T11:52:41Z</time><name>PT5632</name></trkpt>
<trkpt lat="54.590412" lon="-3.244196"><ele>755</ele><time>2019-10-02T11:52:42Z</time><name>PT5633</name></trkpt>
<trkpt lat="54.590405" lon="-3.244208"><ele>755</ele><time>2019-10-02T11:52:43Z</time><name>PT5634</name></trkpt>
<trkpt lat="54.590400" lon="-3.244220"><ele>755</ele><time>2019-10-02T11:52:44Z</time><name>PT5635</name></trkpt>
<trkpt lat="54.590392" lon="-3.244235"><ele>754</ele><time>2019-10-02T11:52:45Z</time><name>PT5636</name></trkpt>
<trkpt lat="54.590384" lon="-3.244251"><ele>754</ele><time>2019-10-02T11:52:46Z</time><name>PT5637</name></trkpt>
<trkpt lat="54.590377" lon="-3.244272"><ele>755</ele><time>2019-10-02T11:52:47Z</time><name>PT5638</name></trkpt>
<trkpt lat="54.590371" lon="-3.244288"><ele>755</ele><time>2019-10-02T11:52:48Z</time><name>PT5639</name></trkpt>
<trkpt lat="54.590366" lon="-3.244303"><ele>755</ele><time>2019-10-02T11:52:49Z</time><name>PT5640</name></trkpt>
<trkpt lat="54.590362" lon="-3.244320"><ele>754</ele><time>2019-10-02T11:52:50Z</time><name>PT5641</name></trkpt>
<trkpt lat="54.590357" lon="-3.244334"><ele>754</ele><time>2019-10-02T11:52:51Z</time><name>PT5642</name></trkpt>
<trkpt lat="54.590353" lon="-3.244347"><ele>755</ele><time>2019-10-02T11:52:52Z</time><name>PT5643</name></trkpt>
<trkpt lat="54.590349" lon="-3.244359"><ele>755</ele><time>2019-10-02T11:52:53Z</time><name>PT5644</name></trkpt>
<trkpt lat="54.590347" lon="-3.244367"><ele>755</ele><time>2019-10-02T11:52:54Z</time><name>PT5645</name></trkpt>
<trkpt lat="54.590345" lon="-3.244368"><ele>755</ele><time>2019-10-02T11:52:55Z</time><name>PT5646</name></trkpt>
<trkpt lat="54.590338" lon="-3.244375"><ele>754</ele><time>2019-10-02T11:52:56Z</time><name>PT5647</name></trkpt>
<trkpt lat="54.590333" lon="-3.244378"><ele>754</ele><time>2019-10-02T11:52:57Z</time><name>PT5648</name></trkpt>
<trkpt lat="54.590329" lon="-3.244384"><ele>753</ele><time>2019-10-02T11:52:58Z</time><name>PT5649</name></trkpt>
<trkpt lat="54.590322" lon="-3.244382"><ele>753</ele><time>2019-10-02T11:52:59Z</time><name>PT5650</name></trkpt>
<trkpt lat="54.590318" lon="-3.244378"><ele>753</ele><time>2019-10-02T11:53:00Z</time><name>PT5651</name></trkpt>
<trkpt lat="54.590313" lon="-3.244379"><ele>752</ele><time>2019-10-02T11:53:01Z</time><name>PT5652</name></trkpt>
<trkpt lat="54.590308" lon="-3.244383"><ele>752</ele><time>2019-10-02T11:53:02Z</time><name>PT5653</name></trkpt>
<trkpt lat="54.590301" lon="-3.244392"><ele>752</ele><time>2019-10-02T11:53:03Z</time><name>PT5654</name></trkpt>
<trkpt lat="54.590293" lon="-3.244401"><ele>751</ele><time>2019-10-02T11:53:04Z</time><name>PT5655</name></trkpt>
<trkpt lat="54.590287" lon="-3.244410"><ele>751</ele><time>2019-10-02T11:53:05Z</time><name>PT5656</name></trkpt>
<trkpt lat="54.590282" lon="-3.244425"><ele>751</ele><time>2019-10-02T11:53:06Z</time><name>PT5657</name></trkpt>
<trkpt lat="54.590276" lon="-3.244440"><ele>751</ele><time>2019-10-02T11:53:07Z</time><name>PT5658</name></trkpt>
<trkpt lat="54.590269" lon="-3.244451"><ele>751</ele><time>2019-10-02T11:53:08Z</time><name>PT5659</name></trkpt>
<trkpt lat="54.590261" lon="-3.244464"><ele>750</ele><time>2019-10-02T11:53:09Z</time><name>PT5660</name></trkpt>
<trkpt lat="54.590254" lon="-3.244471"><ele>750</ele><time>2019-10-02T11:53:10Z</time><name>PT5661</name></trkpt>
<trkpt lat="54.590248" lon="-3.244484"><ele>750</ele><time>2019-10-02T11:53:11Z</time><name>PT5662</name></trkpt>
<trkpt lat="54.590238" lon="-3.244498"><ele>749</ele><time>2019-10-02T11:53:12Z</time><name>PT5663</name></trkpt>
<trkpt lat="54.590229" lon="-3.244508"><ele>749</ele><time>2019-10-02T11:53:13Z</time><name>PT5664</name></trkpt>
<trkpt lat="54.590221" lon="-3.244518"><ele>749</ele><time>2019-10-02T11:53:14Z</time><name>PT5665</name></trkpt>
<trkpt lat="54.590212" lon="-3.244530"><ele>749</ele><time>2019-10-02T11:53:15Z</time><name>PT5666</name></trkpt>
<trkpt lat="54.590204" lon="-3.244538"><ele>749</ele><time>2019-10-02T11:53:16Z</time><name>PT5667</name></trkpt>
<trkpt lat="54.590198" lon="-3.244547"><ele>749</ele><time>2019-10-02T11:53:17Z</time><name>PT5668</name></trkpt>
<trkpt lat="54.590188" lon="-3.244560"><ele>748</ele><time>2019-10-02T11:53:18Z</time><name>PT5669</name></trkpt>
<trkpt lat="54.590178" lon="-3.244575"><ele>748</ele><time>2019-10-02T11:53:19Z</time><name>PT5670</name></trkpt>
<trkpt lat="54.590170" lon="-3.244589"><ele>749</ele><time>2019-10-02T11:53:20Z</time><name>PT5671</name></trkpt>
<trkpt lat="54.590162" lon="-3.244604"><ele>749</ele><time>2019-10-02T11:53:21Z</time><name>PT5672</name></trkpt>
<trkpt lat="54.590155" lon="-3.244619"><ele>749</ele><time>2019-10-02T11:53:22Z</time><name>PT5673</name></trkpt>
<trkpt lat="54.590148" lon="-3.244634"><ele>748</ele><time>2019-10-02T11:53:23Z</time><name>PT5674</name></trkpt>
<trkpt lat="54.590141" lon="-3.244648"><ele>748</ele><time>2019-10-02T11:53:24Z</time><name>PT5675</name></trkpt>
<trkpt lat="54.590136" lon="-3.244661"><ele>748</ele><time>2019-10-02T11:53:25Z</time><name>PT5676</name></trkpt>
<trkpt lat="54.590132" lon="-3.244673"><ele>749</ele><time>2019-10-02T11:53:26Z</time><name>PT5677</name></trkpt>
<trkpt lat="54.590125" lon="-3.244683"><ele>749</ele><time>2019-10-02T11:53:27Z</time><name>PT5678</name></trkpt>
<trkpt lat="54.590119" lon="-3.244692"><ele>748</ele><time>2019-10-02T11:53:28Z</time><name>PT5679</name></trkpt>
<trkpt lat="54.590112" lon="-3.244706"><ele>748</ele><time>2019-10-02T11:53:29Z</time><name>PT5680</name></trkpt>
<trkpt lat="54.590106" lon="-3.244716"><ele>748</ele><time>2019-10-02T11:53:30Z</time><name>PT5681</name></trkpt>
<trkpt lat="54.590100" lon="-3.244720"><ele>749</ele><time>2019-10-02T11:53:31Z</time><name>PT5682</name></trkpt>
<trkpt lat="54.590092" lon="-3.244721"><ele>748</ele><time>2019-10-02T11:53:32Z</time><name>PT5683</name></trkpt>
<trkpt lat="54.590085" lon="-3.244720"><ele>748</ele><time>2019-10-02T11:53:33Z</time><name>PT5684</name></trkpt>
<trkpt lat="54.590080" lon="-3.244720"><ele>748</ele><time>2019-10-02T11:53:34Z</time><name>PT5685</name></trkpt>
<trkpt lat="54.590074" lon="-3.244718"><ele>748</ele><time>2019-10-02T11:53:35Z</time><name>PT5686</name></trkpt>
<trkpt lat="54.590068" lon="-3.244717"><ele>748</ele><time>2019-10-02T11:53:36Z</time><name>PT5687</name></trkpt>
<trkpt lat="54.590064" lon="-3.244713"><ele>748</ele><time>2019-10-02T11:53:37Z</time><name>PT5688</name></trkpt>
<trkpt lat="54.590059" lon="-3.244715"><ele>747</ele><time>2019-10-02T11:53:38Z</time><name>PT5689</name></trkpt>
<trkpt lat="54.590055" lon="-3.244714"><ele>747</ele><time>2019-10-02T11:53:39Z</time><name>PT5690</name></trkpt>
<trkpt lat="54.590053" lon="-3.244707"><ele>746</ele><time>2019-10-02T11:53:40Z</time><name>PT5691</name></trkpt>
<trkpt lat="54.590050" lon="-3.244699"><ele>746</ele><time>2019-10-02T11:53:41Z</time><name>PT5692</name></trkpt>
<trkpt lat="54.590050" lon="-3.244692"><ele>745</ele><time>2019-10-02T11:53:42Z</time><name>PT5693</name></trkpt>
<trkpt lat="54.590048" lon="-3.244685"><ele>745</ele><time>2019-10-02T11:53:43Z</time><name>PT5694</name></trkpt>
<trkpt lat="54.590045" lon="-3.244678"><ele>744</ele><time>2019-10-02T11:53:44Z</time><name>PT5695</name></trkpt>
<trkpt lat="54.590043" lon="-3.244671"><ele>744</ele><time>2019-10-02T11:53:45Z</time><name>PT5696</name></trkpt>
<trkpt lat="54.590041" lon="-3.244667"><ele>743</ele><time>2019-10-02T11:53:46Z</time><name>PT5697</name></trkpt>
<trkpt lat="54.590039" lon="-3.244663"><ele>743</ele><time>2019-10-02T11:53:47Z</time><name>PT5698</name></trkpt>
<trkpt lat="54.590036" lon="-3.244657"><ele>743</ele><time>2019-10-02T11:53:48Z</time><name>PT5699</name></trkpt>
<trkpt lat="54.590034" lon="-3.244649"><ele>742</ele><time>2019-10-02T11:53:49Z</time><name>PT5700</name></trkpt>
<trkpt lat="54.590029" lon="-3.244641"><ele>742</ele><time>2019-10-02T11:53:50Z</time><name>PT5701</name></trkpt>
<trkpt lat="54.590024" lon="-3.244631"><ele>742</ele><time>2019-10-02T11:53:51Z</time><name>PT5702</name></trkpt>
<trkpt lat="54.590019" lon="-3.244624"><ele>741</ele><time>2019-10-02T11:53:52Z</time><name>PT5703</name></trkpt>
<trkpt lat="54.590017" lon="-3.244616"><ele>741</ele><time>2019-10-02T11:53:53Z</time><name>PT5704</name></trkpt>
<trkpt lat="54.590017" lon="-3.244606"><ele>740</ele><time>2019-10-02T11:53:54Z</time><name>PT5705</name></trkpt>
<trkpt lat="54.590016" lon="-3.244599"><ele>740</ele><time>2019-10-02T11:53:55Z</time><name>PT5706</name></trkpt>
<trkpt lat="54.590012" lon="-3.244590"><ele>739</ele><time>2019-10-02T11:53:56Z</time><name>PT5707</name></trkpt>
<trkpt lat="54.590006" lon="-3.244581"><ele>738</ele><time>2019-10-02T11:53:57Z</time><name>PT5708</name></trkpt>
<trkpt lat="54.590002" lon="-3.244574"><ele>738</ele><time>2019-10-02T11:53:58Z</time><name>PT5709</name></trkpt>
<trkpt lat="54.590000" lon="-3.244566"><ele>737</ele><time>2019-10-02T11:53:59Z</time><name>PT5710</name></trkpt>
<trkpt lat="54.589993" lon="-3.244558"><ele>737</ele><time>2019-10-02T11:54:00Z</time><name>PT5711</name></trkpt>
<trkpt lat="54.589985" lon="-3.244555"><ele>737</ele><time>2019-10-02T11:54:01Z</time><name>PT5712</name></trkpt>
<trkpt lat="54.589977" lon="-3.244557"><ele>737</ele><time>2019-10-02T11:54:02Z</time><name>PT5713</name></trkpt>
<trkpt lat="54.589970" lon="-3.244562"><ele>737</ele><time>2019-10-02T11:54:03Z</time><name>PT5714</name></trkpt>
<trkpt lat="54.589962" lon="-3.244567"><ele>737</ele><time>2019-10-02T11:54:04Z</time><name>PT5715</name></trkpt>
<trkpt lat="54.589956" lon="-3.244567"><ele>736</ele><time>2019-10-02T11:54:05Z</time><name>PT5716</name></trkpt>
<trkpt lat="54.589945" lon="-3.244569"><ele>736</ele><time>2019-10-02T11:54:06Z</time><name>PT5717</name></trkpt>
<trkpt lat="54.589934" lon="-3.244574"><ele>736</ele><time>2019-10-02T11:54:07Z</time><name>PT5718</name></trkpt>
<trkpt lat="54.589927" lon="-3.244583"><ele>735</ele><time>2019-10-02T11:54:08Z</time><name>PT5719</name></trkpt>
<trkpt lat="54.589918" lon="-3.244592"><ele>735</ele><time>2019-10-02T11:54:09Z</time><name>PT5720</name></trkpt>
<trkpt lat="54.589914" lon="-3.244596"><ele>735</ele><time>2019-10-02T11:54:10Z</time><name>PT5721</name></trkpt>
<trkpt lat="54.589907" lon="-3.244605"><ele>735</ele><time>2019-10-02T11:54:11Z</time><name>PT5722</name></trkpt>
<trkpt lat="54.589898" lon="-3.244615"><ele>735</ele><time>2019-10-02T11:54:12Z</time><name>PT5723</name></trkpt>
<trkpt lat="54.589890" lon="-3.244626"><ele>735</ele><time>2019-10-02T11:54:13Z</time><name>PT5724</name></trkpt>
<trkpt lat="54.589887" lon="-3.244635"><ele>735</ele><time>2019-10-02T11:54:14Z</time><name>PT5725</name></trkpt>
<trkpt lat="54.589881" lon="-3.244641"><ele>735</ele><time>2019-10-02T11:54:15Z</time><name>PT5726</name></trkpt>
<trkpt lat="54.589878" lon="-3.244646"><ele>735</ele><time>2019-10-02T11:54:16Z</time><name>PT5727</name></trkpt>
<trkpt lat="54.589871" lon="-3.244648"><ele>734</ele><time>2019-10-02T11:54:17Z</time><name>PT5728</name></trkpt>
<trkpt lat="54.589863" lon="-3.244648"><ele>734</ele><time>2019-10-02T11:54:18Z</time><name>PT5729</name></trkpt>
<trkpt lat="54.589854" lon="-3.244652"><ele>734</ele><time>2019-10-02T11:54:19Z</time><name>PT5730</name></trkpt>
<trkpt lat="54.589846" lon="-3.244652"><ele>734</ele><time>2019-10-02T11:54:20Z</time><name>PT5731</name></trkpt>
<trkpt lat="54.589841" lon="-3.244656"><ele>733</ele><time>2019-10-02T11:54:21Z</time><name>PT5732</name></trkpt>
<trkpt lat="54.589835" lon="-3.244658"><ele>734</ele><time>2019-10-02T11:54:22Z</time><name>PT5733</name></trkpt>
<trkpt lat="54.589827" lon="-3.244662"><ele>733</ele><time>2019-10-02T11:54:23Z</time><name>PT5734</name></trkpt>
<trkpt lat="54.589820" lon="-3.244666"><ele>733</ele><time>2019-10-02T11:54:24Z</time><name>PT5735</name></trkpt>
<trkpt lat="54.589812" lon="-3.244672"><ele>733</ele><time>2019-10-02T11:54:25Z</time><name>PT5736</name></trkpt>
<trkpt lat="54.589805" lon="-3.244682"><ele>733</ele><time>2019-10-02T11:54:26Z</time><name>PT5737</name></trkpt>
<trkpt lat="54.589797" lon="-3.244688"><ele>733</ele><time>2019-10-02T11:54:27Z</time><name>PT5738</name></trkpt>
<trkpt lat="54.589792" lon="-3.244692"><ele>733</ele><time>2019-10-02T11:54:28Z</time><name>PT5739</name></trkpt>
<trkpt lat="54.589788" lon="-3.244696"><ele>733</ele><time>2019-10-02T11:54:29Z</time><name>PT5740</name></trkpt>
<trkpt lat="54.589783" lon="-3.244705"><ele>733</ele><time>2019-10-02T11:54:30Z</time><name>PT5741</name></trkpt>
<trkpt lat="54.589778" lon="-3.244710"><ele>732</ele><time>2019-10-02T11:54:31Z</time><name>PT5742</name></trkpt>
<trkpt lat="54.589771" lon="-3.244713"><ele>732</ele><time>2019-10-02T11:54:32Z</time><name>PT5743</name></trkpt>
<trkpt lat="54.589767" lon="-3.244716"><ele>732</ele><time>2019-10-02T11:54:33Z</time><name>PT5744</name></trkpt>
<trkpt lat="54.589761" lon="-3.244729"><ele>732</ele><time>2019-10-02T11:54:34Z</time><name>PT5745</name></trkpt>
<trkpt lat="54.589755" lon="-3.244735"><ele>731</ele><time>2019-10-02T11:54:35Z</time><name>PT5746</name></trkpt>
<trkpt lat="54.589753" lon="-3.244744"><ele>731</ele><time>2019-10-02T11:54:36Z</time><name>PT5747</name></trkpt>
<trkpt lat="54.589751" lon="-3.244749"><ele>731</ele><time>2019-10-02T11:54:37Z</time><name>PT5748</name></trkpt>
<trkpt lat="54.589746" lon="-3.244752"><ele>731</ele><time>2019-10-02T11:54:38Z</time><name>PT5749</name></trkpt>
<trkpt lat="54.589738" lon="-3.244757"><ele>731</ele><time>2019-10-02T11:54:39Z</time><name>PT5750</name></trkpt>
<trkpt lat="54.589731" lon="-3.244765"><ele>731</ele><time>2019-10-02T11:54:40Z</time><name>PT5751</name></trkpt>
<trkpt lat="54.589727" lon="-3.244772"><ele>730</ele><time>2019-10-02T11:54:41Z</time><name>PT5752</name></trkpt>
<trkpt lat="54.589720" lon="-3.244780"><ele>730</ele><time>2019-10-02T11:54:42Z</time><name>PT5753</name></trkpt>
<trkpt lat="54.589713" lon="-3.244786"><ele>730</ele><time>2019-10-02T11:54:43Z</time><name>PT5754</name></trkpt>
<trkpt lat="54.589705" lon="-3.244792"><ele>730</ele><time>2019-10-02T11:54:44Z</time><name>PT5755</name></trkpt>
<trkpt lat="54.589695" lon="-3.244800"><ele>730</ele><time>2019-10-02T11:54:45Z</time><name>PT5756</name></trkpt>
<trkpt lat="54.589687" lon="-3.244811"><ele>730</ele><time>2019-10-02T11:54:46Z</time><name>PT5757</name></trkpt>
<trkpt lat="54.589680" lon="-3.244821"><ele>730</ele><time>2019-10-02T11:54:47Z</time><name>PT5758</name></trkpt>
<trkpt lat="54.589673" lon="-3.244828"><ele>730</ele><time>2019-10-02T11:54:48Z</time><name>PT5759</name></trkpt>
<trkpt lat="54.589665" lon="-3.244833"><ele>729</ele><time>2019-10-02T11:54:49Z</time><name>PT5760</name></trkpt>
<trkpt lat="54.589658" lon="-3.244835"><ele>729</ele><time>2019-10-02T11:54:50Z</time><name>PT5761</name></trkpt>
<trkpt lat="54.589651" lon="-3.244841"><ele>729</ele><time>2019-10-02T11:54:51Z</time><name>PT5762</name></trkpt>
<trkpt lat="54.589646" lon="-3.244845"><ele>728</ele><time>2019-10-02T11:54:52Z</time><name>PT5763</name></trkpt>
<trkpt lat="54.589642" lon="-3.244850"><ele>729</ele><time>2019-10-02T11:54:53Z</time><name>PT5764</name></trkpt>
<trkpt lat="54.589634" lon="-3.244855"><ele>729</ele><time>2019-10-02T11:54:54Z</time><name>PT5765</name></trkpt>
<trkpt lat="54.589627" lon="-3.244867"><ele>728</ele><time>2019-10-02T11:54:55Z</time><name>PT5766</name></trkpt>
<trkpt lat="54.589621" lon="-3.244877"><ele>728</ele><time>2019-10-02T11:54:56Z</time><name>PT5767</name></trkpt>
<trkpt lat="54.589616" lon="-3.244883"><ele>728</ele><time>2019-10-02T11:54:57Z</time><name>PT5768</name></trkpt>
<trkpt lat="54.589609" lon="-3.244888"><ele>727</ele><time>2019-10-02T11:54:58Z</time><name>PT5769</name></trkpt>
<trkpt lat="54.589603" lon="-3.244894"><ele>727</ele><time>2019-10-02T11:54:59Z</time><name>PT5770</name></trkpt>
<trkpt lat="54.589596" lon="-3.244901"><ele>727</ele><time>2019-10-02T11:55:00Z</time><name>PT5771</name></trkpt>
<trkpt lat="54.589588" lon="-3.244900"><ele>726</ele><time>2019-10-02T11:55:01Z</time><name>PT5772</name></trkpt>
<trkpt lat="54.589581" lon="-3.244896"><ele>725</ele><time>2019-10-02T11:55:02Z</time><name>PT5773</name></trkpt>
<trkpt lat="54.589575" lon="-3.244890"><ele>725</ele><time>2019-10-02T11:55:03Z</time><name>PT5774</name></trkpt>
<trkpt lat="54.589571" lon="-3.244885"><ele>724</ele><time>2019-10-02T11:55:04Z</time><name>PT5775</name></trkpt>
<trkpt lat="54.589566" lon="-3.244884"><ele>724</ele><time>2019-10-02T11:55:05Z</time><name>PT5776</name></trkpt>
<trkpt lat="54.589560" lon="-3.244884"><ele>723</ele><time>2019-10-02T11:55:06Z</time><name>PT5777</name></trkpt>
<trkpt lat="54.589554" lon="-3.244892"><ele>723</ele><time>2019-10-02T11:55:07Z</time><name>PT5778</name></trkpt>
<trkpt lat="54.589547" lon="-3.244905"><ele>723</ele><time>2019-10-02T11:55:08Z</time><name>PT5779</name></trkpt>
<trkpt lat="54.589537" lon="-3.244915"><ele>724</ele><time>2019-10-02T11:55:09Z</time><name>PT5780</name></trkpt>
<trkpt lat="54.589531" lon="-3.244926"><ele>723</ele><time>2019-10-02T11:55:10Z</time><name>PT5781</name></trkpt>
<trkpt lat="54.589524" lon="-3.244936"><ele>723</ele><time>2019-10-02T11:55:11Z</time><name>PT5782</name></trkpt>
<trkpt lat="54.589518" lon="-3.244946"><ele>722</ele><time>2019-10-02T11:55:12Z</time><name>PT5783</name></trkpt>
<trkpt lat="54.589511" lon="-3.244961"><ele>722</ele><time>2019-10-02T11:55:13Z</time><name>PT5784</name></trkpt>
<trkpt lat="54.589503" lon="-3.244975"><ele>723</ele><time>2019-10-02T11:55:14Z</time><name>PT5785</name></trkpt>
<trkpt lat="54.589493" lon="-3.244993"><ele>723</ele><time>2019-10-02T11:55:15Z</time><name>PT5786</name></trkpt>
<trkpt lat="54.589484" lon="-3.245009"><ele>723</ele><time>2019-10-02T11:55:16Z</time><name>PT5787</name></trkpt>
<trkpt lat="54.589474" lon="-3.245027"><ele>723</ele><time>2019-10-02T11:55:17Z</time><name>PT5788</name></trkpt>
<trkpt lat="54.589465" lon="-3.245043"><ele>723</ele><time>2019-10-02T11:55:18Z</time><name>PT5789</name></trkpt>
<trkpt lat="54.589458" lon="-3.245049"><ele>723</ele><time>2019-10-02T11:55:19Z</time><name>PT5790</name></trkpt>
<trkpt lat="54.589452" lon="-3.245057"><ele>722</ele><time>2019-10-02T11:55:20Z</time><name>PT5791</name></trkpt>
<trkpt lat="54.589443" lon="-3.245065"><ele>722</ele><time>2019-10-02T11:55:21Z</time><name>PT5792</name></trkpt>
<trkpt lat="54.589437" lon="-3.245077"><ele>722</ele><time>2019-10-02T11:55:22Z</time><name>PT5793</name></trkpt>
<trkpt lat="54.589429" lon="-3.245089"><ele>722</ele><time>2019-10-02T11:55:23Z</time><name>PT5794</name></trkpt>
<trkpt lat="54.589422" lon="-3.245099"><ele>721</ele><time>2019-10-02T11:55:24Z</time><name>PT5795</name></trkpt>
<trkpt lat="54.589414" lon="-3.245114"><ele>721</ele><time>2019-10-02T11:55:25Z</time><name>PT5796</name></trkpt>
<trkpt lat="54.589406" lon="-3.245126"><ele>721</ele><time>2019-10-02T11:55:26Z</time><name>PT5797</name></trkpt>
<trkpt lat="54.589400" lon="-3.245131"><ele>721</ele><time>2019-10-02T11:55:27Z</time><name>PT5798</name></trkpt>
<trkpt lat="54.589393" lon="-3.245139"><ele>721</ele><time>2019-10-02T11:55:28Z</time><name>PT5799</name></trkpt>
<trkpt lat="54.589385" lon="-3.245145"><ele>721</ele><time>2019-10-02T11:55:29Z</time><name>PT5800</name></trkpt>
<trkpt lat="54.589373" lon="-3.245151"><ele>720</ele><time>2019-10-02T11:55:30Z</time><name>PT5801</name></trkpt>
<trkpt lat="54.589361" lon="-3.245153"><ele>720</ele><time>2019-10-02T11:55:31Z</time><name>PT5802</name></trkpt>
<trkpt lat="54.589349" lon="-3.245154"><ele>719</ele><time>2019-10-02T11:55:32Z</time><name>PT5803</name></trkpt>
<trkpt lat="54.589337" lon="-3.245152"><ele>719</ele><time>2019-10-02T11:55:33Z</time><name>PT5804</name></trkpt>
<trkpt lat="54.589327" lon="-3.245149"><ele>719</ele><time>2019-10-02T11:55:34Z</time><name>PT5805</name></trkpt>
<trkpt lat="54.589315" lon="-3.245148"><ele>718</ele><time>2019-10-02T11:55:35Z</time><name>PT5806</name></trkpt>
<trkpt lat="54.589306" lon="-3.245145"><ele>718</ele><time>2019-10-02T11:55:36Z</time><name>PT5807</name></trkpt>
<trkpt lat="54.589296" lon="-3.245143"><ele>717</ele><time>2019-10-02T11:55:37Z</time><name>PT5808</name></trkpt>
<trkpt lat="54.589285" lon="-3.245145"><ele>717</ele><time>2019-10-02T11:55:38Z</time><name>PT5809</name></trkpt>
<trkpt lat="54.589278" lon="-3.245147"><ele>717</ele><time>2019-10-02T11:55:39Z</time><name>PT5810</name></trkpt>
<trkpt lat="54.589272" lon="-3.245142"><ele>716</ele><time>2019-10-02T11:55:40Z</time><name>PT5811</name></trkpt>
<trkpt lat="54.589264" lon="-3.245142"><ele>716</ele><time>2019-10-02T11:55:41Z</time><name>PT5812</name></trkpt>
<trkpt lat="54.589259" lon="-3.245142"><ele>716</ele><time>2019-10-02T11:55:42Z</time><name>PT5813</name></trkpt>
<trkpt lat="54.589254" lon="-3.245137"><ele>715</ele><time>2019-10-02T11:55:43Z</time><name>PT5814</name></trkpt>
<trkpt lat="54.589251" lon="-3.245137"><ele>715</ele><time>2019-10-02T11:55:44Z</time><name>PT5815</name></trkpt>
<trkpt lat="54.589249" lon="-3.245140"><ele>715</ele><time>2019-10-02T11:55:45Z</time><name>PT5816</name></trkpt>
<trkpt lat="54.589247" lon="-3.245147"><ele>715</ele><time>2019-10-02T11:55:46Z</time><name>PT5817</name></trkpt>
<trkpt lat="54.589238" lon="-3.245160"><ele>717</ele><time>2019-10-02T11:55:47Z</time><name>PT5818</name></trkpt>
<trkpt lat="54.589230" lon="-3.245173"><ele>717</ele><time>2019-10-02T11:55:48Z</time><name>PT5819</name></trkpt>
<trkpt lat="54.589224" lon="-3.245183"><ele>716</ele><time>2019-10-02T11:55:49Z</time><name>PT5820</name></trkpt>
<trkpt lat="54.589218" lon="-3.245197"><ele>716</ele><time>2019-10-02T11:55:50Z</time><name>PT5821</name></trkpt>
<trkpt lat="54.589212" lon="-3.245209"><ele>717</ele><time>2019-10-02T11:55:51Z</time><name>PT5822</name></trkpt>
<trkpt lat="54.589209" lon="-3.245212"><ele>716</ele><time>2019-10-02T11:55:52Z</time><name>PT5823</name></trkpt>
<trkpt lat="54.589205" lon="-3.245218"><ele>716</ele><time>2019-10-02T11:55:53Z</time><name>PT5824</name></trkpt>
<trkpt lat="54.589205" lon="-3.245217"><ele>716</ele><time>2019-10-02T11:55:54Z</time><name>PT5825</name></trkpt>
<trkpt lat="54.589201" lon="-3.245212"><ele>715</ele><time>2019-10-02T11:55:55Z</time><name>PT5826</name></trkpt>
<trkpt lat="54.589198" lon="-3.245208"><ele>715</ele><time>2019-10-02T11:55:56Z</time><name>PT5827</name></trkpt>
<trkpt lat="54.589197" lon="-3.245206"><ele>715</ele><time>2019-10-02T11:55:57Z</time><name>PT5828</name></trkpt>
<trkpt lat="54.589198" lon="-3.245201"><ele>715</ele><time>2019-10-02T11:55:58Z</time><name>PT5829</name></trkpt>
<trkpt lat="54.589197" lon="-3.245201"><ele>715</ele><time>2019-10-02T11:55:59Z</time><name>PT5830</name></trkpt>
<trkpt lat="54.589196" lon="-3.245199"><ele>715</ele><time>2019-10-02T11:56:00Z</time><name>PT5831</name></trkpt>
<trkpt lat="54.589188" lon="-3.245203"><ele>714</ele><time>2019-10-02T11:56:01Z</time><name>PT5832</name></trkpt>
<trkpt lat="54.589180" lon="-3.245198"><ele>714</ele><time>2019-10-02T11:56:02Z</time><name>PT5833</name></trkpt>
<trkpt lat="54.589171" lon="-3.245192"><ele>714</ele><time>2019-10-02T11:56:03Z</time><name>PT5834</name></trkpt>
<trkpt lat="54.589165" lon="-3.245188"><ele>713</ele><time>2019-10-02T11:56:04Z</time><name>PT5835</name></trkpt>
<trkpt lat="54.589159" lon="-3.245184"><ele>713</ele><time>2019-10-02T11:56:05Z</time><name>PT5836</name></trkpt>
<trkpt lat="54.589146" lon="-3.245182"><ele>713</ele><time>2019-10-02T11:56:06Z</time><name>PT5837</name></trkpt>
<trkpt lat="54.589135" lon="-3.245185"><ele>713</ele><time>2019-10-02T11:56:07Z</time><name>PT5838</name></trkpt>
<trkpt lat="54.589125" lon="-3.245193"><ele>713</ele><time>2019-10-02T11:56:08Z</time><name>PT5839</name></trkpt>
<trkpt lat="54.589117" lon="-3.245194"><ele>712</ele><time>2019-10-02T11:56:09Z</time><name>PT5840</name></trkpt>
<trkpt lat="54.589113" lon="-3.245191"><ele>712</ele><time>2019-10-02T11:56:10Z</time><name>PT5841</name></trkpt>
<trkpt lat="54.589108" lon="-3.245197"><ele>712</ele><time>2019-10-02T11:56:11Z</time><name>PT5842</name></trkpt>
<trkpt lat="54.589106" lon="-3.245205"><ele>712</ele><time>2019-10-02T11:56:12Z</time><name>PT5843</name></trkpt>
<trkpt lat="54.589104" lon="-3.245208"><ele>712</ele><time>2019-10-02T11:56:13Z</time><name>PT5844</name></trkpt>
<trkpt lat="54.589103" lon="-3.245209"><ele>711</ele><time>2019-10-02T11:56:14Z</time><name>PT5845</name></trkpt>
<trkpt lat="54.589103" lon="-3.245211"><ele>711</ele><time>2019-10-02T11:56:15Z</time><name>PT5846</name></trkpt>
<trkpt lat="54.589105" lon="-3.245208"><ele>710</ele><time>2019-10-02T11:56:27Z</time><name>PT5847</name></trkpt>
<trkpt lat="54.589107" lon="-3.245209"><ele>710</ele><time>2019-10-02T11:56:28Z</time><name>PT5848</name></trkpt>
<trkpt lat="54.589107" lon="-3.245208"><ele>710</ele><time>2019-10-02T11:56:29Z</time><name>PT5849</name></trkpt>
<trkpt lat="54.589107" lon="-3.245209"><ele>709</ele><time>2019-10-02T11:56:30Z</time><name>PT5850</name></trkpt>
<trkpt lat="54.589106" lon="-3.245211"><ele>709</ele><time>2019-10-02T11:56:31Z</time><name>PT5851</name></trkpt>
<trkpt lat="54.589104" lon="-3.245211"><ele>710</ele><time>2019-10-02T11:56:35Z</time><name>PT5852</name></trkpt>
<trkpt lat="54.589094" lon="-3.245220"><ele>710</ele><time>2019-10-02T11:56:36Z</time><name>PT5853</name></trkpt>
<trkpt lat="54.589086" lon="-3.245226"><ele>710</ele><time>2019-10-02T11:56:37Z</time><name>PT5854</name></trkpt>
<trkpt lat="54.589079" lon="-3.245226"><ele>710</ele><time>2019-10-02T11:56:38Z</time><name>PT5855</name></trkpt>
<trkpt lat="54.589070" lon="-3.245238"><ele>710</ele><time>2019-10-02T11:56:39Z</time><name>PT5856</name></trkpt>
<trkpt lat="54.589063" lon="-3.245257"><ele>710</ele><time>2019-10-02T11:56:40Z</time><name>PT5857</name></trkpt>
<trkpt lat="54.589056" lon="-3.245267"><ele>709</ele><time>2019-10-02T11:56:41Z</time><name>PT5858</name></trkpt>
<trkpt lat="54.589047" lon="-3.245283"><ele>709</ele><time>2019-10-02T11:56:42Z</time><name>PT5859</name></trkpt>
<trkpt lat="54.589038" lon="-3.245295"><ele>709</ele><time>2019-10-02T11:56:43Z</time><name>PT5860</name></trkpt>
<trkpt lat="54.589028" lon="-3.245304"><ele>709</ele><time>2019-10-02T11:56:44Z</time><name>PT5861</name></trkpt>
<trkpt lat="54.589013" lon="-3.245317"><ele>709</ele><time>2019-10-02T11:56:45Z</time><name>PT5862</name></trkpt>
<trkpt lat="54.589003" lon="-3.245328"><ele>709</ele><time>2019-10-02T11:56:46Z</time><name>PT5863</name></trkpt>
<trkpt lat="54.588992" lon="-3.245334"><ele>709</ele><time>2019-10-02T11:56:47Z</time><name>PT5864</name></trkpt>
<trkpt lat="54.588981" lon="-3.245340"><ele>709</ele><time>2019-10-02T11:56:48Z</time><name>PT5865</name></trkpt>
<trkpt lat="54.588973" lon="-3.245346"><ele>709</ele><time>2019-10-02T11:56:49Z</time><name>PT5866</name></trkpt>
<trkpt lat="54.588965" lon="-3.245357"><ele>709</ele><time>2019-10-02T11:56:50Z</time><name>PT5867</name></trkpt>
<trkpt lat="54.588955" lon="-3.245365"><ele>708</ele><time>2019-10-02T11:56:51Z</time><name>PT5868</name></trkpt>
<trkpt lat="54.588947" lon="-3.245376"><ele>709</ele><time>2019-10-02T11:56:52Z</time><name>PT5869</name></trkpt>
<trkpt lat="54.588942" lon="-3.245384"><ele>709</ele><time>2019-10-02T11:56:53Z</time><name>PT5870</name></trkpt>
<trkpt lat="54.588934" lon="-3.245389"><ele>709</ele><time>2019-10-02T11:56:54Z</time><name>PT5871</name></trkpt>
<trkpt lat="54.588925" lon="-3.245399"><ele>709</ele><time>2019-10-02T11:56:55Z</time><name>PT5872</name></trkpt>
<trkpt lat="54.588917" lon="-3.245407"><ele>709</ele><time>2019-10-02T11:56:56Z</time><name>PT5873</name></trkpt>
<trkpt lat="54.588906" lon="-3.245417"><ele>709</ele><time>2019-10-02T11:56:57Z</time><name>PT5874</name></trkpt>
<trkpt lat="54.588895" lon="-3.245429"><ele>709</ele><time>2019-10-02T11:56:58Z</time><name>PT5875</name></trkpt>
<trkpt lat="54.588884" lon="-3.245443"><ele>709</ele><time>2019-10-02T11:56:59Z</time><name>PT5876</name></trkpt>
<trkpt lat="54.588875" lon="-3.245447"><ele>709</ele><time>2019-10-02T11:57:00Z</time><name>PT5877</name></trkpt>
<trkpt lat="54.588865" lon="-3.245448"><ele>709</ele><time>2019-10-02T11:57:01Z</time><name>PT5878</name></trkpt>
<trkpt lat="54.588856" lon="-3.245454"><ele>709</ele><time>2019-10-02T11:57:02Z</time><name>PT5879</name></trkpt>
<trkpt lat="54.588844" lon="-3.245465"><ele>709</ele><time>2019-10-02T11:57:03Z</time><name>PT5880</name></trkpt>
<trkpt lat="54.588833" lon="-3.245479"><ele>709</ele><time>2019-10-02T11:57:04Z</time><name>PT5881</name></trkpt>
<trkpt lat="54.588825" lon="-3.245493"><ele>709</ele><time>2019-10-02T11:57:05Z</time><name>PT5882</name></trkpt>
<trkpt lat="54.588816" lon="-3.245507"><ele>710</ele><time>2019-10-02T11:57:06Z</time><name>PT5883</name></trkpt>
<trkpt lat="54.588808" lon="-3.245520"><ele>710</ele><time>2019-10-02T11:57:07Z</time><name>PT5884</name></trkpt>
<trkpt lat="54.588798" lon="-3.245533"><ele>710</ele><time>2019-10-02T11:57:08Z</time><name>PT5885</name></trkpt>
<trkpt lat="54.588791" lon="-3.245547"><ele>709</ele><time>2019-10-02T11:57:09Z</time><name>PT5886</name></trkpt>
<trkpt lat="54.588784" lon="-3.245558"><ele>710</ele><time>2019-10-02T11:57:10Z</time><name>PT5887</name></trkpt>
<trkpt lat="54.588777" lon="-3.245565"><ele>710</ele><time>2019-10-02T11:57:11Z</time><name>PT5888</name></trkpt>
<trkpt lat="54.588767" lon="-3.245572"><ele>709</ele><time>2019-10-02T11:57:12Z</time><name>PT5889</name></trkpt>
<trkpt lat="54.588756" lon="-3.245584"><ele>709</ele><time>2019-10-02T11:57:13Z</time><name>PT5890</name></trkpt>
<trkpt lat="54.588748" lon="-3.245591"><ele>708</ele><time>2019-10-02T11:57:14Z</time><name>PT5891</name></trkpt>
<trkpt lat="54.588738" lon="-3.245602"><ele>709</ele><time>2019-10-02T11:57:15Z</time><name>PT5892</name></trkpt>
<trkpt lat="54.588728" lon="-3.245618"><ele>708</ele><time>2019-10-02T11:57:16Z</time><name>PT5893</name></trkpt>
<trkpt lat="54.588719" lon="-3.245630"><ele>708</ele><time>2019-10-02T11:57:17Z</time><name>PT5894</name></trkpt>
<trkpt lat="54.588709" lon="-3.245646"><ele>708</ele><time>2019-10-02T11:57:18Z</time><name>PT5895</name></trkpt>
<trkpt lat="54.588703" lon="-3.245661"><ele>708</ele><time>2019-10-02T11:57:19Z</time><name>PT5896</name></trkpt>
<trkpt lat="54.588694" lon="-3.245674"><ele>708</ele><time>2019-10-02T11:57:20Z</time><name>PT5897</name></trkpt>
<trkpt lat="54.588686" lon="-3.245682"><ele>708</ele><time>2019-10-02T11:57:21Z</time><name>PT5898</name></trkpt>
<trkpt lat="54.588676" lon="-3.245696"><ele>708</ele><time>2019-10-02T11:57:22Z</time><name>PT5899</name></trkpt>
<trkpt lat="54.588665" lon="-3.245716"><ele>708</ele><time>2019-10-02T11:57:23Z</time><name>PT5900</name></trkpt>
<trkpt lat="54.588657" lon="-3.245730"><ele>708</ele><time>2019-10-02T11:57:24Z</time><name>PT5901</name></trkpt>
<trkpt lat="54.588652" lon="-3.245743"><ele>708</ele><time>2019-10-02T11:57:25Z</time><name>PT5902</name></trkpt>
<trkpt lat="54.588639" lon="-3.245768"><ele>707</ele><time>2019-10-02T11:57:26Z</time><name>PT5903</name></trkpt>
<trkpt lat="54.588624" lon="-3.245814"><ele>706</ele><time>2019-10-02T11:57:27Z</time><name>PT5904</name></trkpt>
<trkpt lat="54.588613" lon="-3.245836"><ele>706</ele><time>2019-10-02T11:57:28Z</time><name>PT5905</name></trkpt>
<trkpt lat="54.588602" lon="-3.245853"><ele>705</ele><time>2019-10-02T11:57:29Z</time><name>PT5906</name></trkpt>
<trkpt lat="54.588592" lon="-3.245872"><ele>705</ele><time>2019-10-02T11:57:30Z</time><name>PT5907</name></trkpt>
<trkpt lat="54.588585" lon="-3.245889"><ele>706</ele><time>2019-10-02T11:57:31Z</time><name>PT5908</name></trkpt>
<trkpt lat="54.588577" lon="-3.245905"><ele>706</ele><time>2019-10-02T11:57:32Z</time><name>PT5909</name></trkpt>
<trkpt lat="54.588568" lon="-3.245918"><ele>706</ele><time>2019-10-02T11:57:33Z</time><name>PT5910</name></trkpt>
<trkpt lat="54.588559" lon="-3.245930"><ele>706</ele><time>2019-10-02T11:57:34Z</time><name>PT5911</name></trkpt>
<trkpt lat="54.588550" lon="-3.245947"><ele>706</ele><time>2019-10-02T11:57:35Z</time><name>PT5912</name></trkpt>
<trkpt lat="54.588542" lon="-3.245962"><ele>706</ele><time>2019-10-02T11:57:36Z</time><name>PT5913</name></trkpt>
<trkpt lat="54.588533" lon="-3.245975"><ele>706</ele><time>2019-10-02T11:57:37Z</time><name>PT5914</name></trkpt>
<trkpt lat="54.588526" lon="-3.245985"><ele>707</ele><time>2019-10-02T11:57:38Z</time><name>PT5915</name></trkpt>
<trkpt lat="54.588521" lon="-3.245999"><ele>707</ele><time>2019-10-02T11:57:39Z</time><name>PT5916</name></trkpt>
<trkpt lat="54.588517" lon="-3.246016"><ele>707</ele><time>2019-10-02T11:57:40Z</time><name>PT5917</name></trkpt>
<trkpt lat="54.588515" lon="-3.246030"><ele>707</ele><time>2019-10-02T11:57:41Z</time><name>PT5918</name></trkpt>
<trkpt lat="54.588511" lon="-3.246048"><ele>707</ele><time>2019-10-02T11:57:42Z</time><name>PT5919</name></trkpt>
<trkpt lat="54.588505" lon="-3.246060"><ele>708</ele><time>2019-10-02T11:57:43Z</time><name>PT5920</name></trkpt>
<trkpt lat="54.588498" lon="-3.246075"><ele>708</ele><time>2019-10-02T11:57:44Z</time><name>PT5921</name></trkpt>
<trkpt lat="54.588492" lon="-3.246088"><ele>708</ele><time>2019-10-02T11:57:45Z</time><name>PT5922</name></trkpt>
<trkpt lat="54.588488" lon="-3.246094"><ele>709</ele><time>2019-10-02T11:57:46Z</time><name>PT5923</name></trkpt>
<trkpt lat="54.588487" lon="-3.246098"><ele>708</ele><time>2019-10-02T11:57:47Z</time><name>PT5924</name></trkpt>
<trkpt lat="54.588484" lon="-3.246109"><ele>709</ele><time>2019-10-02T11:57:48Z</time><name>PT5925</name></trkpt>
<trkpt lat="54.588477" lon="-3.246124"><ele>709</ele><time>2019-10-02T11:57:49Z</time><name>PT5926</name></trkpt>
<trkpt lat="54.588470" lon="-3.246138"><ele>708</ele><time>2019-10-02T11:57:50Z</time><name>PT5927</name></trkpt>
<trkpt lat="54.588464" lon="-3.246150"><ele>709</ele><time>2019-10-02T11:57:51Z</time><name>PT5928</name></trkpt>
<trkpt lat="54.588459" lon="-3.246162"><ele>709</ele><time>2019-10-02T11:57:52Z</time><name>PT5929</name></trkpt>
<trkpt lat="54.588453" lon="-3.246174"><ele>709</ele><time>2019-10-02T11:57:53Z</time><name>PT5930</name></trkpt>
<trkpt lat="54.588448" lon="-3.246190"><ele>709</ele><time>2019-10-02T11:57:54Z</time><name>PT5931</name></trkpt>
<trkpt lat="54.588442" lon="-3.246207"><ele>709</ele><time>2019-10-02T11:57:55Z</time><name>PT5932</name></trkpt>
<trkpt lat="54.588432" lon="-3.246229"><ele>709</ele><time>2019-10-02T11:57:56Z</time><name>PT5933</name></trkpt>
<trkpt lat="54.588425" lon="-3.246245"><ele>709</ele><time>2019-10-02T11:57:57Z</time><name>PT5934</name></trkpt>
<trkpt lat="54.588417" lon="-3.246260"><ele>709</ele><time>2019-10-02T11:57:58Z</time><name>PT5935</name></trkpt>
<trkpt lat="54.588408" lon="-3.246274"><ele>709</ele><time>2019-10-02T11:57:59Z</time><name>PT5936</name></trkpt>
<trkpt lat="54.588401" lon="-3.246283"><ele>709</ele><time>2019-10-02T11:58:00Z</time><name>PT5937</name></trkpt>
<trkpt lat="54.588392" lon="-3.246297"><ele>710</ele><time>2019-10-02T11:58:01Z</time><name>PT5938</name></trkpt>
<trkpt lat="54.588385" lon="-3.246314"><ele>709</ele><time>2019-10-02T11:58:02Z</time><name>PT5939</name></trkpt>
<trkpt lat="54.588381" lon="-3.246322"><ele>709</ele><time>2019-10-02T11:58:03Z</time><name>PT5940</name></trkpt>
<trkpt lat="54.588374" lon="-3.246334"><ele>710</ele><time>2019-10-02T11:58:04Z</time><name>PT5941</name></trkpt>
<trkpt lat="54.588368" lon="-3.246351"><ele>710</ele><time>2019-10-02T11:58:05Z</time><name>PT5942</name></trkpt>
<trkpt lat="54.588360" lon="-3.246367"><ele>710</ele><time>2019-10-02T11:58:06Z</time><name>PT5943</name></trkpt>
<trkpt lat="54.588351" lon="-3.246378"><ele>710</ele><time>2019-10-02T11:58:07Z</time><name>PT5944</name></trkpt>
<trkpt lat="54.588344" lon="-3.246389"><ele>710</ele><time>2019-10-02T11:58:08Z</time><name>PT5945</name></trkpt>
<trkpt lat="54.588337" lon="-3.246401"><ele>710</ele><time>2019-10-02T11:58:09Z</time><name>PT5946</name></trkpt>
<trkpt lat="54.588331" lon="-3.246414"><ele>711</ele><time>2019-10-02T11:58:10Z</time><name>PT5947</name></trkpt>
<trkpt lat="54.588326" lon="-3.246427"><ele>711</ele><time>2019-10-02T11:58:11Z</time><name>PT5948</name></trkpt>
<trkpt lat="54.588321" lon="-3.246440"><ele>711</ele><time>2019-10-02T11:58:12Z</time><name>PT5949</name></trkpt>
<trkpt lat="54.588315" lon="-3.246456"><ele>711</ele><time>2019-10-02T11:58:13Z</time><name>PT5950</name></trkpt>
<trkpt lat="54.588311" lon="-3.246468"><ele>711</ele><time>2019-10-02T11:58:14Z</time><name>PT5951</name></trkpt>
<trkpt lat="54.588308" lon="-3.246480"><ele>711</ele><time>2019-10-02T11:58:15Z</time><name>PT5952</name></trkpt>
<trkpt lat="54.588307" lon="-3.246498"><ele>712</ele><time>2019-10-02T11:58:16Z</time><name>PT5953</name></trkpt>
<trkpt lat="54.588301" lon="-3.246514"><ele>712</ele><time>2019-10-02T11:58:17Z</time><name>PT5954</name></trkpt>
<trkpt lat="54.588297" lon="-3.246527"><ele>711</ele><time>2019-10-02T11:58:18Z</time><name>PT5955</name></trkpt>
<trkpt lat="54.588293" lon="-3.246537"><ele>711</ele><time>2019-10-02T11:58:19Z</time><name>PT5956</name></trkpt>
<trkpt lat="54.588288" lon="-3.246543"><ele>711</ele><time>2019-10-02T11:58:20Z</time><name>PT5957</name></trkpt>
<trkpt lat="54.588282" lon="-3.246552"><ele>711</ele><time>2019-10-02T11:58:21Z</time><name>PT5958</name></trkpt>
<trkpt lat="54.588277" lon="-3.246557"><ele>712</ele><time>2019-10-02T11:58:22Z</time><name>PT5959</name></trkpt>
<trkpt lat="54.588270" lon="-3.246571"><ele>712</ele><time>2019-10-02T11:58:23Z</time><name>PT5960</name></trkpt>
<trkpt lat="54.588263" lon="-3.246585"><ele>711</ele><time>2019-10-02T11:58:24Z</time><name>PT5961</name></trkpt>
<trkpt lat="54.588257" lon="-3.246602"><ele>711</ele><time>2019-10-02T11:58:25Z</time><name>PT5962</name></trkpt>
<trkpt lat="54.588252" lon="-3.246617"><ele>712</ele><time>2019-10-02T11:58:26Z</time><name>PT5963</name></trkpt>
<trkpt lat="54.588249" lon="-3.246627"><ele>712</ele><time>2019-10-02T11:58:27Z</time><name>PT5964</name></trkpt>
<trkpt lat="54.588247" lon="-3.246635"><ele>712</ele><time>2019-10-02T11:58:28Z</time><name>PT5965</name></trkpt>
<trkpt lat="54.588244" lon="-3.246645"><ele>712</ele><time>2019-10-02T11:58:29Z</time><name>PT5966</name></trkpt>
<trkpt lat="54.588242" lon="-3.246654"><ele>712</ele><time>2019-10-02T11:58:30Z</time><name>PT5967</name></trkpt>
<trkpt lat="54.588238" lon="-3.246670"><ele>711</ele><time>2019-10-02T11:58:31Z</time><name>PT5968</name></trkpt>
<trkpt lat="54.588232" lon="-3.246684"><ele>711</ele><time>2019-10-02T11:58:32Z</time><name>PT5969</name></trkpt>
<trkpt lat="54.588228" lon="-3.246698"><ele>711</ele><time>2019-10-02T11:58:33Z</time><name>PT5970</name></trkpt>
<trkpt lat="54.588223" lon="-3.246715"><ele>711</ele><time>2019-10-02T11:58:34Z</time><name>PT5971</name></trkpt>
<trkpt lat="54.588218" lon="-3.246735"><ele>711</ele><time>2019-10-02T11:58:35Z</time><name>PT5972</name></trkpt>
<trkpt lat="54.588211" lon="-3.246758"><ele>711</ele><time>2019-10-02T11:58:36Z</time><name>PT5973</name></trkpt>
<trkpt lat="54.588204" lon="-3.246775"><ele>712</ele><time>2019-10-02T11:58:37Z</time><name>PT5974</name></trkpt>
<trkpt lat="54.588194" lon="-3.246794"><ele>712</ele><time>2019-10-02T11:58:38Z</time><name>PT5975</name></trkpt>
<trkpt lat="54.588188" lon="-3.246809"><ele>712</ele><time>2019-10-02T11:58:39Z</time><name>PT5976</name></trkpt>
<trkpt lat="54.588182" lon="-3.246823"><ele>711</ele><time>2019-10-02T11:58:40Z</time><name>PT5977</name></trkpt>
<trkpt lat="54.588176" lon="-3.246842"><ele>712</ele><time>2019-10-02T11:58:41Z</time><name>PT5978</name></trkpt>
<trkpt lat="54.588170" lon="-3.246864"><ele>712</ele><time>2019-10-02T11:58:42Z</time><name>PT5979</name></trkpt>
<trkpt lat="54.588162" lon="-3.246883"><ele>712</ele><time>2019-10-02T11:58:43Z</time><name>PT5980</name></trkpt>
<trkpt lat="54.588155" lon="-3.246900"><ele>712</ele><time>2019-10-02T11:58:44Z</time><name>PT5981</name></trkpt>
<trkpt lat="54.588148" lon="-3.246922"><ele>712</ele><time>2019-10-02T11:58:45Z</time><name>PT5982</name></trkpt>
<trkpt lat="54.588137" lon="-3.246941"><ele>712</ele><time>2019-10-02T11:58:46Z</time><name>PT5983</name></trkpt>
<trkpt lat="54.588129" lon="-3.246958"><ele>712</ele><time>2019-10-02T11:58:47Z</time><name>PT5984</name></trkpt>
<trkpt lat="54.588124" lon="-3.246978"><ele>712</ele><time>2019-10-02T11:58:48Z</time><name>PT5985</name></trkpt>
<trkpt lat="54.588117" lon="-3.247001"><ele>712</ele><time>2019-10-02T11:58:49Z</time><name>PT5986</name></trkpt>
<trkpt lat="54.588111" lon="-3.247020"><ele>712</ele><time>2019-10-02T11:58:50Z</time><name>PT5987</name></trkpt>
<trkpt lat="54.588102" lon="-3.247037"><ele>713</ele><time>2019-10-02T11:58:51Z</time><name>PT5988</name></trkpt>
<trkpt lat="54.588095" lon="-3.247049"><ele>713</ele><time>2019-10-02T11:58:52Z</time><name>PT5989</name></trkpt>
<trkpt lat="54.588085" lon="-3.247072"><ele>713</ele><time>2019-10-02T11:58:53Z</time><name>PT5990</name></trkpt>
<trkpt lat="54.588079" lon="-3.247093"><ele>713</ele><time>2019-10-02T11:58:54Z</time><name>PT5991</name></trkpt>
<trkpt lat="54.588071" lon="-3.247115"><ele>713</ele><time>2019-10-02T11:58:55Z</time><name>PT5992</name></trkpt>
<trkpt lat="54.588065" lon="-3.247132"><ele>713</ele><time>2019-10-02T11:58:56Z</time><name>PT5993</name></trkpt>
<trkpt lat="54.588059" lon="-3.247146"><ele>713</ele><time>2019-10-02T11:58:57Z</time><name>PT5994</name></trkpt>
<trkpt lat="54.588054" lon="-3.247161"><ele>713</ele><time>2019-10-02T11:58:58Z</time><name>PT5995</name></trkpt>
<trkpt lat="54.588047" lon="-3.247177"><ele>713</ele><time>2019-10-02T11:58:59Z</time><name>PT5996</name></trkpt>
<trkpt lat="54.588040" lon="-3.247193"><ele>713</ele><time>2019-10-02T11:59:00Z</time><name>PT5997</name></trkpt>
<trkpt lat="54.588037" lon="-3.247208"><ele>713</ele><time>2019-10-02T11:59:01Z</time><name>PT5998</name></trkpt>
<trkpt lat="54.588032" lon="-3.247223"><ele>713</ele><time>2019-10-02T11:59:02Z</time><name>PT5999</name></trkpt>
<trkpt lat="54.588027" lon="-3.247237"><ele>714</ele><time>2019-10-02T11:59:03Z</time><name>PT6000</name></trkpt>
<trkpt lat="54.588021" lon="-3.247253"><ele>714</ele><time>2019-10-02T11:59:04Z</time><name>PT6001</name></trkpt>
<trkpt lat="54.588016" lon="-3.247270"><ele>714</ele><time>2019-10-02T11:59:05Z</time><name>PT6002</name></trkpt>
<trkpt lat="54.588011" lon="-3.247288"><ele>714</ele><time>2019-10-02T11:59:06Z</time><name>PT6003</name></trkpt>
<trkpt lat="54.588006" lon="-3.247302"><ele>714</ele><time>2019-10-02T11:59:07Z</time><name>PT6004</name></trkpt>
<trkpt lat="54.588002" lon="-3.247317"><ele>714</ele><time>2019-10-02T11:59:08Z</time><name>PT6005</name></trkpt>
<trkpt lat="54.587996" lon="-3.247333"><ele>713</ele><time>2019-10-02T11:59:09Z</time><name>PT6006</name></trkpt>
<trkpt lat="54.587988" lon="-3.247352"><ele>713</ele><time>2019-10-02T11:59:10Z</time><name>PT6007</name></trkpt>
<trkpt lat="54.587983" lon="-3.247366"><ele>712</ele><time>2019-10-02T11:59:11Z</time><name>PT6008</name></trkpt>
<trkpt lat="54.587983" lon="-3.247379"><ele>712</ele><time>2019-10-02T11:59:12Z</time><name>PT6009</name></trkpt>
<trkpt lat="54.587980" lon="-3.247392"><ele>712</ele><time>2019-10-02T11:59:13Z</time><name>PT6010</name></trkpt>
<trkpt lat="54.587973" lon="-3.247404"><ele>712</ele><time>2019-10-02T11:59:14Z</time><name>PT6011</name></trkpt>
<trkpt lat="54.587965" lon="-3.247415"><ele>712</ele><time>2019-10-02T11:59:15Z</time><name>PT6012</name></trkpt>
<trkpt lat="54.587956" lon="-3.247427"><ele>712</ele><time>2019-10-02T11:59:16Z</time><name>PT6013</name></trkpt>
<trkpt lat="54.587951" lon="-3.247437"><ele>712</ele><time>2019-10-02T11:59:17Z</time><name>PT6014</name></trkpt>
<trkpt lat="54.587947" lon="-3.247445"><ele>711</ele><time>2019-10-02T11:59:18Z</time><name>PT6015</name></trkpt>
<trkpt lat="54.587939" lon="-3.247457"><ele>711</ele><time>2019-10-02T11:59:19Z</time><name>PT6016</name></trkpt>
<trkpt lat="54.587932" lon="-3.247468"><ele>712</ele><time>2019-10-02T11:59:20Z</time><name>PT6017</name></trkpt>
<trkpt lat="54.587925" lon="-3.247484"><ele>712</ele><time>2019-10-02T11:59:21Z</time><name>PT6018</name></trkpt>
<trkpt lat="54.587918" lon="-3.247495"><ele>712</ele><time>2019-10-02T11:59:22Z</time><name>PT6019</name></trkpt>
<trkpt lat="54.587911" lon="-3.247508"><ele>712</ele><time>2019-10-02T11:59:23Z</time><name>PT6020</name></trkpt>
<trkpt lat="54.587905" lon="-3.247523"><ele>712</ele><time>2019-10-02T11:59:24Z</time><name>PT6021</name></trkpt>
<trkpt lat="54.587899" lon="-3.247536"><ele>712</ele><time>2019-10-02T11:59:25Z</time><name>PT6022</name></trkpt>
<trkpt lat="54.587892" lon="-3.247548"><ele>712</ele><time>2019-10-02T11:59:26Z</time><name>PT6023</name></trkpt>
<trkpt lat="54.587886" lon="-3.247561"><ele>712</ele><time>2019-10-02T11:59:27Z</time><name>PT6024</name></trkpt>
<trkpt lat="54.587880" lon="-3.247571"><ele>712</ele><time>2019-10-02T11:59:28Z</time><name>PT6025</name></trkpt>
<trkpt lat="54.587873" lon="-3.247581"><ele>712</ele><time>2019-10-02T11:59:29Z</time><name>PT6026</name></trkpt>
<trkpt lat="54.587866" lon="-3.247600"><ele>712</ele><time>2019-10-02T11:59:30Z</time><name>PT6027</name></trkpt>
<trkpt lat="54.587860" lon="-3.247615"><ele>713</ele><time>2019-10-02T11:59:31Z</time><name>PT6028</name></trkpt>
<trkpt lat="54.587854" lon="-3.247628"><ele>713</ele><time>2019-10-02T11:59:32Z</time><name>PT6029</name></trkpt>
<trkpt lat="54.587847" lon="-3.247637"><ele>713</ele><time>2019-10-02T11:59:33Z</time><name>PT6030</name></trkpt>
<trkpt lat="54.587840" lon="-3.247648"><ele>713</ele><time>2019-10-02T11:59:34Z</time><name>PT6031</name></trkpt>
<trkpt lat="54.587832" lon="-3.247663"><ele>713</ele><time>2019-10-02T11:59:35Z</time><name>PT6032</name></trkpt>
<trkpt lat="54.587825" lon="-3.247678"><ele>713</ele><time>2019-10-02T11:59:36Z</time><name>PT6033</name></trkpt>
<trkpt lat="54.587817" lon="-3.247694"><ele>713</ele><time>2019-10-02T11:59:37Z</time><name>PT6034</name></trkpt>
<trkpt lat="54.587808" lon="-3.247711"><ele>713</ele><time>2019-10-02T11:59:38Z</time><name>PT6035</name></trkpt>
<trkpt lat="54.587798" lon="-3.247728"><ele>714</ele><time>2019-10-02T11:59:39Z</time><name>PT6036</name></trkpt>
<trkpt lat="54.587793" lon="-3.247739"><ele>714</ele><time>2019-10-02T11:59:40Z</time><name>PT6037</name></trkpt>
<trkpt lat="54.587785" lon="-3.247753"><ele>714</ele><time>2019-10-02T11:59:41Z</time><name>PT6038</name></trkpt>
<trkpt lat="54.587777" lon="-3.247763"><ele>715</ele><time>2019-10-02T11:59:42Z</time><name>PT6039</name></trkpt>
<trkpt lat="54.587771" lon="-3.247775"><ele>715</ele><time>2019-10-02T11:59:43Z</time><name>PT6040</name></trkpt>
<trkpt lat="54.587767" lon="-3.247785"><ele>715</ele><time>2019-10-02T11:59:44Z</time><name>PT6041</name></trkpt>
<trkpt lat="54.587760" lon="-3.247796"><ele>715</ele><time>2019-10-02T11:59:45Z</time><name>PT6042</name></trkpt>
<trkpt lat="54.587752" lon="-3.247809"><ele>716</ele><time>2019-10-02T11:59:46Z</time><name>PT6043</name></trkpt>
<trkpt lat="54.587743" lon="-3.247826"><ele>716</ele><time>2019-10-02T11:59:47Z</time><name>PT6044</name></trkpt>
<trkpt lat="54.587735" lon="-3.247840"><ele>716</ele><time>2019-10-02T11:59:48Z</time><name>PT6045</name></trkpt>
<trkpt lat="54.587728" lon="-3.247850"><ele>716</ele><time>2019-10-02T11:59:49Z</time><name>PT6046</name></trkpt>
<trkpt lat="54.587720" lon="-3.247861"><ele>717</ele><time>2019-10-02T11:59:50Z</time><name>PT6047</name></trkpt>
<trkpt lat="54.587712" lon="-3.247873"><ele>717</ele><time>2019-10-02T11:59:51Z</time><name>PT6048</name></trkpt>
<trkpt lat="54.587708" lon="-3.247885"><ele>717</ele><time>2019-10-02T11:59:52Z</time><name>PT6049</name></trkpt>
<trkpt lat="54.587706" lon="-3.247899"><ele>718</ele><time>2019-10-02T11:59:53Z</time><name>PT6050</name></trkpt>
<trkpt lat="54.587703" lon="-3.247912"><ele>718</ele><time>2019-10-02T11:59:54Z</time><name>PT6051</name></trkpt>
<trkpt lat="54.587699" lon="-3.247924"><ele>718</ele><time>2019-10-02T11:59:55Z</time><name>PT6052</name></trkpt>
<trkpt lat="54.587695" lon="-3.247933"><ele>718</ele><time>2019-10-02T11:59:56Z</time><name>PT6053</name></trkpt>
<trkpt lat="54.587689" lon="-3.247941"><ele>719</ele><time>2019-10-02T11:59:57Z</time><name>PT6054</name></trkpt>
<trkpt lat="54.587683" lon="-3.247958"><ele>719</ele><time>2019-10-02T11:59:58Z</time><name>PT6055</name></trkpt>
<trkpt lat="54.587675" lon="-3.247975"><ele>719</ele><time>2019-10-02T11:59:59Z</time><name>PT6056</name></trkpt>
<trkpt lat="54.587671" lon="-3.247994"><ele>719</ele><time>2019-10-02T12:00:00Z</time><name>PT6057</name></trkpt>
<trkpt lat="54.587666" lon="-3.248008"><ele>719</ele><time>2019-10-02T12:00:01Z</time><name>PT6058</name></trkpt>
<trkpt lat="54.587659" lon="-3.248025"><ele>719</ele><time>2019-10-02T12:00:02Z</time><name>PT6059</name></trkpt>
<trkpt lat="54.587652" lon="-3.248037"><ele>719</ele><time>2019-10-02T12:00:03Z</time><name>PT6060</name></trkpt>
<trkpt lat="54.587644" lon="-3.248052"><ele>720</ele><time>2019-10-02T12:00:04Z</time><name>PT6061</name></trkpt>
<trkpt lat="54.587640" lon="-3.248064"><ele>720</ele><time>2019-10-02T12:00:05Z</time><name>PT6062</name></trkpt>
<trkpt lat="54.587635" lon="-3.248076"><ele>720</ele><time>2019-10-02T12:00:06Z</time><name>PT6063</name></trkpt>
<trkpt lat="54.587628" lon="-3.248090"><ele>720</ele><time>2019-10-02T12:00:07Z</time><name>PT6064</name></trkpt>
<trkpt lat="54.587622" lon="-3.248097"><ele>720</ele><time>2019-10-02T12:00:08Z</time><name>PT6065</name></trkpt>
<trkpt lat="54.587617" lon="-3.248103"><ele>721</ele><time>2019-10-02T12:00:09Z</time><name>PT6066</name></trkpt>
<trkpt lat="54.587609" lon="-3.248109"><ele>721</ele><time>2019-10-02T12:00:10Z</time><name>PT6067</name></trkpt>
<trkpt lat="54.587609" lon="-3.248109"><ele>721</ele><time>2019-10-02T12:00:11Z</time><name>PT6068</name></trkpt>
<trkpt lat="54.587610" lon="-3.248110"><ele>721</ele><time>2019-10-02T12:00:12Z</time><name>PT6069</name></trkpt>
<trkpt lat="54.587612" lon="-3.248113"><ele>721</ele><time>2019-10-02T12:00:13Z</time><name>PT6070</name></trkpt>
<trkpt lat="54.587610" lon="-3.248123"><ele>721</ele><time>2019-10-02T12:00:14Z</time><name>PT6071</name></trkpt>
<trkpt lat="54.587604" lon="-3.248131"><ele>721</ele><time>2019-10-02T12:00:15Z</time><name>PT6072</name></trkpt>
<trkpt lat="54.587595" lon="-3.248138"><ele>722</ele><time>2019-10-02T12:00:16Z</time><name>PT6073</name></trkpt>
<trkpt lat="54.587585" lon="-3.248142"><ele>721</ele><time>2019-10-02T12:00:17Z</time><name>PT6074</name></trkpt>
<trkpt lat="54.587576" lon="-3.248152"><ele>722</ele><time>2019-10-02T12:00:18Z</time><name>PT6075</name></trkpt>
<trkpt lat="54.587569" lon="-3.248161"><ele>722</ele><time>2019-10-02T12:00:19Z</time><name>PT6076</name></trkpt>
<trkpt lat="54.587561" lon="-3.248169"><ele>722</ele><time>2019-10-02T12:00:20Z</time><name>PT6077</name></trkpt>
<trkpt lat="54.587553" lon="-3.248174"><ele>722</ele><time>2019-10-02T12:00:21Z</time><name>PT6078</name></trkpt>
<trkpt lat="54.587546" lon="-3.248180"><ele>722</ele><time>2019-10-02T12:00:22Z</time><name>PT6079</name></trkpt>
<trkpt lat="54.587543" lon="-3.248186"><ele>723</ele><time>2019-10-02T12:00:23Z</time><name>PT6080</name></trkpt>
<trkpt lat="54.587541" lon="-3.248186"><ele>723</ele><time>2019-10-02T12:00:24Z</time><name>PT6081</name></trkpt>
<trkpt lat="54.587540" lon="-3.248193"><ele>723</ele><time>2019-10-02T12:00:25Z</time><name>PT6082</name></trkpt>
<trkpt lat="54.587536" lon="-3.248195"><ele>723</ele><time>2019-10-02T12:00:26Z</time><name>PT6083</name></trkpt>
<trkpt lat="54.587531" lon="-3.248198"><ele>724</ele><time>2019-10-02T12:00:27Z</time><name>PT6084</name></trkpt>
<trkpt lat="54.587521" lon="-3.248202"><ele>723</ele><time>2019-10-02T12:00:28Z</time><name>PT6085</name></trkpt>
<trkpt lat="54.587513" lon="-3.248202"><ele>723</ele><time>2019-10-02T12:00:29Z</time><name>PT6086</name></trkpt>
<trkpt lat="54.587504" lon="-3.248206"><ele>724</ele><time>2019-10-02T12:00:30Z</time><name>PT6087</name></trkpt>
<trkpt lat="54.587496" lon="-3.248210"><ele>724</ele><time>2019-10-02T12:00:31Z</time><name>PT6088</name></trkpt>
<trkpt lat="54.587489" lon="-3.248213"><ele>724</ele><time>2019-10-02T12:00:32Z</time><name>PT6089</name></trkpt>
<trkpt lat="54.587485" lon="-3.248216"><ele>724</ele><time>2019-10-02T12:00:33Z</time><name>PT6090</name></trkpt>
<trkpt lat="54.587481" lon="-3.248226"><ele>724</ele><time>2019-10-02T12:00:34Z</time><name>PT6091</name></trkpt>
<trkpt lat="54.587479" lon="-3.248236"><ele>724</ele><time>2019-10-02T12:00:35Z</time><name>PT6092</name></trkpt>
<trkpt lat="54.587476" lon="-3.248245"><ele>724</ele><time>2019-10-02T12:00:36Z</time><name>PT6093</name></trkpt>
<trkpt lat="54.587476" lon="-3.248250"><ele>724</ele><time>2019-10-02T12:00:37Z</time><name>PT6094</name></trkpt>
<trkpt lat="54.587475" lon="-3.248262"><ele>725</ele><time>2019-10-02T12:00:38Z</time><name>PT6095</name></trkpt>
<trkpt lat="54.587471" lon="-3.248272"><ele>724</ele><time>2019-10-02T12:00:39Z</time><name>PT6096</name></trkpt>
<trkpt lat="54.587464" lon="-3.248290"><ele>725</ele><time>2019-10-02T12:00:40Z</time><name>PT6097</name></trkpt>
<trkpt lat="54.587459" lon="-3.248304"><ele>725</ele><time>2019-10-02T12:00:41Z</time><name>PT6098</name></trkpt>
<trkpt lat="54.587456" lon="-3.248311"><ele>725</ele><time>2019-10-02T12:00:42Z</time><name>PT6099</name></trkpt>
<trkpt lat="54.587454" lon="-3.248321"><ele>725</ele><time>2019-10-02T12:00:43Z</time><name>PT6100</name></trkpt>
<trkpt lat="54.587451" lon="-3.248334"><ele>726</ele><time>2019-10-02T12:00:44Z</time><name>PT6101</name></trkpt>
<trkpt lat="54.587447" lon="-3.248350"><ele>726</ele><time>2019-10-02T12:00:45Z</time><name>PT6102</name></trkpt>
<trkpt lat="54.587441" lon="-3.248366"><ele>726</ele><time>2019-10-02T12:00:46Z</time><name>PT6103</name></trkpt>
<trkpt lat="54.587436" lon="-3.248382"><ele>726</ele><time>2019-10-02T12:00:47Z</time><name>PT6104</name></trkpt>
<trkpt lat="54.587431" lon="-3.248392"><ele>726</ele><time>2019-10-02T12:00:48Z</time><name>PT6105</name></trkpt>
<trkpt lat="54.587429" lon="-3.248405"><ele>726</ele><time>2019-10-02T12:00:49Z</time><name>PT6106</name></trkpt>
<trkpt lat="54.587430" lon="-3.248426"><ele>727</ele><time>2019-10-02T12:00:50Z</time><name>PT6107</name></trkpt>
<trkpt lat="54.587428" lon="-3.248437"><ele>727</ele><time>2019-10-02T12:00:51Z</time><name>PT6108</name></trkpt>
<trkpt lat="54.587425" lon="-3.248450"><ele>728</ele><time>2019-10-02T12:00:52Z</time><name>PT6109</name></trkpt>
<trkpt lat="54.587428" lon="-3.248466"><ele>728</ele><time>2019-10-02T12:00:53Z</time><name>PT6110</name></trkpt>
<trkpt lat="54.587428" lon="-3.248484"><ele>729</ele><time>2019-10-02T12:00:54Z</time><name>PT6111</name></trkpt>
<trkpt lat="54.587426" lon="-3.248496"><ele>729</ele><time>2019-10-02T12:00:55Z</time><name>PT6112</name></trkpt>
<trkpt lat="54.587423" lon="-3.248504"><ele>730</ele><time>2019-10-02T12:00:56Z</time><name>PT6113</name></trkpt>
<trkpt lat="54.587415" lon="-3.248511"><ele>729</ele><time>2019-10-02T12:00:57Z</time><name>PT6114</name></trkpt>
<trkpt lat="54.587411" lon="-3.248517"><ele>729</ele><time>2019-10-02T12:00:58Z</time><name>PT6115</name></trkpt>
<trkpt lat="54.587408" lon="-3.248516"><ele>730</ele><time>2019-10-02T12:00:59Z</time><name>PT6116</name></trkpt>
<trkpt lat="54.587404" lon="-3.248528"><ele>730</ele><time>2019-10-02T12:01:00Z</time><name>PT6117</name></trkpt>
<trkpt lat="54.587401" lon="-3.248531"><ele>731</ele><time>2019-10-02T12:01:01Z</time><name>PT6118</name></trkpt>
<trkpt lat="54.587396" lon="-3.248532"><ele>731</ele><time>2019-10-02T12:01:02Z</time><name>PT6119</name></trkpt>
<trkpt lat="54.587393" lon="-3.248531"><ele>731</ele><time>2019-10-02T12:01:03Z</time><name>PT6120</name></trkpt>
<trkpt lat="54.587390" lon="-3.248531"><ele>731</ele><time>2019-10-02T12:01:04Z</time><name>PT6121</name></trkpt>
<trkpt lat="54.587385" lon="-3.248531"><ele>731</ele><time>2019-10-02T12:01:05Z</time><name>PT6122</name></trkpt>
<trkpt lat="54.587384" lon="-3.248537"><ele>732</ele><time>2019-10-02T12:01:06Z</time><name>PT6123</name></trkpt>
<trkpt lat="54.587382" lon="-3.248549"><ele>732</ele><time>2019-10-02T12:01:08Z</time><name>PT6124</name></trkpt>
<trkpt lat="54.587380" lon="-3.248548"><ele>732</ele><time>2019-10-02T12:01:09Z</time><name>PT6125</name></trkpt>
<trkpt lat="54.587375" lon="-3.248554"><ele>733</ele><time>2019-10-02T12:01:15Z</time><name>PT6126</name></trkpt>
<trkpt lat="54.587373" lon="-3.248559"><ele>733</ele><time>2019-10-02T12:01:16Z</time><name>PT6127</name></trkpt>
<trkpt lat="54.587367" lon="-3.248559"><ele>733</ele><time>2019-10-02T12:01:17Z</time><name>PT6128</name></trkpt>
<trkpt lat="54.587360" lon="-3.248562"><ele>733</ele><time>2019-10-02T12:01:18Z</time><name>PT6129</name></trkpt>
<trkpt lat="54.587356" lon="-3.248561"><ele>732</ele><time>2019-10-02T12:01:19Z</time><name>PT6130</name></trkpt>
<trkpt lat="54.587352" lon="-3.248558"><ele>732</ele><time>2019-10-02T12:01:20Z</time><name>PT6131</name></trkpt>
<trkpt lat="54.587349" lon="-3.248559"><ele>732</ele><time>2019-10-02T12:01:21Z</time><name>PT6132</name></trkpt>
<trkpt lat="54.587343" lon="-3.248560"><ele>732</ele><time>2019-10-02T12:01:22Z</time><name>PT6133</name></trkpt>
<trkpt lat="54.587337" lon="-3.248566"><ele>732</ele><time>2019-10-02T12:01:23Z</time><name>PT6134</name></trkpt>
<trkpt lat="54.587335" lon="-3.248567"><ele>733</ele><time>2019-10-02T12:01:24Z</time><name>PT6135</name></trkpt>
<trkpt lat="54.587330" lon="-3.248572"><ele>733</ele><time>2019-10-02T12:01:25Z</time><name>PT6136</name></trkpt>
<trkpt lat="54.587324" lon="-3.248568"><ele>733</ele><time>2019-10-02T12:01:26Z</time><name>PT6137</name></trkpt>
<trkpt lat="54.587318" lon="-3.248568"><ele>733</ele><time>2019-10-02T12:01:27Z</time><name>PT6138</name></trkpt>
<trkpt lat="54.587312" lon="-3.248572"><ele>733</ele><time>2019-10-02T12:01:28Z</time><name>PT6139</name></trkpt>
<trkpt lat="54.587307" lon="-3.248577"><ele>733</ele><time>2019-10-02T12:01:29Z</time><name>PT6140</name></trkpt>
<trkpt lat="54.587302" lon="-3.248579"><ele>734</ele><time>2019-10-02T12:01:30Z</time><name>PT6141</name></trkpt>
<trkpt lat="54.587297" lon="-3.248591"><ele>734</ele><time>2019-10-02T12:01:31Z</time><name>PT6142</name></trkpt>
<trkpt lat="54.587294" lon="-3.248597"><ele>734</ele><time>2019-10-02T12:01:32Z</time><name>PT6143</name></trkpt>
<trkpt lat="54.587290" lon="-3.248602"><ele>734</ele><time>2019-10-02T12:01:33Z</time><name>PT6144</name></trkpt>
<trkpt lat="54.587285" lon="-3.248609"><ele>734</ele><time>2019-10-02T12:01:34Z</time><name>PT6145</name></trkpt>
<trkpt lat="54.587282" lon="-3.248621"><ele>734</ele><time>2019-10-02T12:01:35Z</time><name>PT6146</name></trkpt>
<trkpt lat="54.587278" lon="-3.248628"><ele>734</ele><time>2019-10-02T12:01:36Z</time><name>PT6147</name></trkpt>
<trkpt lat="54.587272" lon="-3.248636"><ele>734</ele><time>2019-10-02T12:01:37Z</time><name>PT6148</name></trkpt>
<trkpt lat="54.587268" lon="-3.248638"><ele>734</ele><time>2019-10-02T12:01:38Z</time><name>PT6149</name></trkpt>
<trkpt lat="54.587265" lon="-3.248644"><ele>734</ele><time>2019-10-02T12:01:39Z</time><name>PT6150</name></trkpt>
<trkpt lat="54.587261" lon="-3.248654"><ele>734</ele><time>2019-10-02T12:01:40Z</time><name>PT6151</name></trkpt>
<trkpt lat="54.587256" lon="-3.248662"><ele>735</ele><time>2019-10-02T12:01:41Z</time><name>PT6152</name></trkpt>
<trkpt lat="54.587250" lon="-3.248672"><ele>735</ele><time>2019-10-02T12:01:42Z</time><name>PT6153</name></trkpt>
<trkpt lat="54.587246" lon="-3.248682"><ele>735</ele><time>2019-10-02T12:01:43Z</time><name>PT6154</name></trkpt>
<trkpt lat="54.587240" lon="-3.248691"><ele>735</ele><time>2019-10-02T12:01:44Z</time><name>PT6155</name></trkpt>
<trkpt lat="54.587235" lon="-3.248702"><ele>735</ele><time>2019-10-02T12:01:45Z</time><name>PT6156</name></trkpt>
<trkpt lat="54.587232" lon="-3.248715"><ele>736</ele><time>2019-10-02T12:01:46Z</time><name>PT6157</name></trkpt>
<trkpt lat="54.587230" lon="-3.248727"><ele>736</ele><time>2019-10-02T12:01:47Z</time><name>PT6158</name></trkpt>
<trkpt lat="54.587227" lon="-3.248738"><ele>736</ele><time>2019-10-02T12:01:48Z</time><name>PT6159</name></trkpt>
<trkpt lat="54.587225" lon="-3.248747"><ele>736</ele><time>2019-10-02T12:01:49Z</time><name>PT6160</name></trkpt>
<trkpt lat="54.587224" lon="-3.248757"><ele>737</ele><time>2019-10-02T12:01:50Z</time><name>PT6161</name></trkpt>
<trkpt lat="54.587221" lon="-3.248771"><ele>737</ele><time>2019-10-02T12:01:51Z</time><name>PT6162</name></trkpt>
<trkpt lat="54.587220" lon="-3.248783"><ele>737</ele><time>2019-10-02T12:01:52Z</time><name>PT6163</name></trkpt>
<trkpt lat="54.587222" lon="-3.248793"><ele>737</ele><time>2019-10-02T12:01:53Z</time><name>PT6164</name></trkpt>
<trkpt lat="54.587224" lon="-3.248805"><ele>737</ele><time>2019-10-02T12:01:54Z</time><name>PT6165</name></trkpt>
<trkpt lat="54.587224" lon="-3.248819"><ele>737</ele><time>2019-10-02T12:01:55Z</time><name>PT6166</name></trkpt>
<trkpt lat="54.587227" lon="-3.248829"><ele>737</ele><time>2019-10-02T12:01:56Z</time><name>PT6167</name></trkpt>
<trkpt lat="54.587227" lon="-3.248840"><ele>738</ele><time>2019-10-02T12:01:57Z</time><name>PT6168</name></trkpt>
<trkpt lat="54.587226" lon="-3.248848"><ele>738</ele><time>2019-10-02T12:01:58Z</time><name>PT6169</name></trkpt>
<trkpt lat="54.587221" lon="-3.248852"><ele>738</ele><time>2019-10-02T12:01:59Z</time><name>PT6170</name></trkpt>
<trkpt lat="54.587219" lon="-3.248857"><ele>738</ele><time>2019-10-02T12:02:00Z</time><name>PT6171</name></trkpt>
<trkpt lat="54.587218" lon="-3.248861"><ele>738</ele><time>2019-10-02T12:02:01Z</time><name>PT6172</name></trkpt>
<trkpt lat="54.587216" lon="-3.248863"><ele>738</ele><time>2019-10-02T12:02:02Z</time><name>PT6173</name></trkpt>
<trkpt lat="54.587215" lon="-3.248869"><ele>739</ele><time>2019-10-02T12:02:03Z</time><name>PT6174</name></trkpt>
<trkpt lat="54.587215" lon="-3.248873"><ele>739</ele><time>2019-10-02T12:02:04Z</time><name>PT6175</name></trkpt>
<trkpt lat="54.587212" lon="-3.248880"><ele>739</ele><time>2019-10-02T12:02:05Z</time><name>PT6176</name></trkpt>
<trkpt lat="54.587210" lon="-3.248887"><ele>739</ele><time>2019-10-02T12:02:06Z</time><name>PT6177</name></trkpt>
<trkpt lat="54.587210" lon="-3.248893"><ele>740</ele><time>2019-10-02T12:02:07Z</time><name>PT6178</name></trkpt>
<trkpt lat="54.587206" lon="-3.248898"><ele>739</ele><time>2019-10-02T12:02:08Z</time><name>PT6179</name></trkpt>
<trkpt lat="54.587207" lon="-3.248905"><ele>740</ele><time>2019-10-02T12:02:09Z</time><name>PT6180</name></trkpt>
<trkpt lat="54.587208" lon="-3.248912"><ele>741</ele><time>2019-10-02T12:02:10Z</time><name>PT6181</name></trkpt>
<trkpt lat="54.587207" lon="-3.248916"><ele>741</ele><time>2019-10-02T12:02:11Z</time><name>PT6182</name></trkpt>
<trkpt lat="54.587202" lon="-3.248925"><ele>740</ele><time>2019-10-02T12:02:15Z</time><name>PT6183</name></trkpt>
<trkpt lat="54.587199" lon="-3.248950"><ele>740</ele><time>2019-10-02T12:02:16Z</time><name>PT6184</name></trkpt>
<trkpt lat="54.587188" lon="-3.248950"><ele>740</ele><time>2019-10-02T12:02:17Z</time><name>PT6185</name></trkpt>
<trkpt lat="54.587186" lon="-3.248964"><ele>740</ele><time>2019-10-02T12:02:18Z</time><name>PT6186</name></trkpt>
<trkpt lat="54.587185" lon="-3.248974"><ele>740</ele><time>2019-10-02T12:02:19Z</time><name>PT6187</name></trkpt>
<trkpt lat="54.587184" lon="-3.248982"><ele>741</ele><time>2019-10-02T12:02:20Z</time><name>PT6188</name></trkpt>
<trkpt lat="54.587184" lon="-3.248988"><ele>741</ele><time>2019-10-02T12:02:21Z</time><name>PT6189</name></trkpt>
<trkpt lat="54.587181" lon="-3.248995"><ele>741</ele><time>2019-10-02T12:02:22Z</time><name>PT6190</name></trkpt>
<trkpt lat="54.587175" lon="-3.249001"><ele>740</ele><time>2019-10-02T12:02:23Z</time><name>PT6191</name></trkpt>
<trkpt lat="54.587168" lon="-3.249008"><ele>740</ele><time>2019-10-02T12:02:24Z</time><name>PT6192</name></trkpt>
<trkpt lat="54.587162" lon="-3.249017"><ele>740</ele><time>2019-10-02T12:02:25Z</time><name>PT6193</name></trkpt>
<trkpt lat="54.587157" lon="-3.249027"><ele>740</ele><time>2019-10-02T12:02:26Z</time><name>PT6194</name></trkpt>
<trkpt lat="54.587151" lon="-3.249033"><ele>740</ele><time>2019-10-02T12:02:27Z</time><name>PT6195</name></trkpt>
<trkpt lat="54.587147" lon="-3.249039"><ele>740</ele><time>2019-10-02T12:02:28Z</time><name>PT6196</name></trkpt>
<trkpt lat="54.587137" lon="-3.249049"><ele>741</ele><time>2019-10-02T12:02:29Z</time><name>PT6197</name></trkpt>
<trkpt lat="54.587130" lon="-3.249059"><ele>741</ele><time>2019-10-02T12:02:30Z</time><name>PT6198</name></trkpt>
<trkpt lat="54.587123" lon="-3.249066"><ele>741</ele><time>2019-10-02T12:02:31Z</time><name>PT6199</name></trkpt>
<trkpt lat="54.587121" lon="-3.249076"><ele>741</ele><time>2019-10-02T12:02:32Z</time><name>PT6200</name></trkpt>
<trkpt lat="54.587122" lon="-3.249086"><ele>741</ele><time>2019-10-02T12:02:33Z</time><name>PT6201</name></trkpt>
<trkpt lat="54.587124" lon="-3.249091"><ele>741</ele><time>2019-10-02T12:02:34Z</time><name>PT6202</name></trkpt>
<trkpt lat="54.587130" lon="-3.249096"><ele>741</ele><time>2019-10-02T12:02:35Z</time><name>PT6203</name></trkpt>
<trkpt lat="54.587136" lon="-3.249100"><ele>741</ele><time>2019-10-02T12:02:36Z</time><name>PT6204</name></trkpt>
<trkpt lat="54.587143" lon="-3.249104"><ele>741</ele><time>2019-10-02T12:02:37Z</time><name>PT6205</name></trkpt>
<trkpt lat="54.587147" lon="-3.249109"><ele>741</ele><time>2019-10-02T12:02:38Z</time><name>PT6206</name></trkpt>
<trkpt lat="54.587150" lon="-3.249116"><ele>741</ele><time>2019-10-02T12:02:39Z</time><name>PT6207</name></trkpt>
<trkpt lat="54.587153" lon="-3.249120"><ele>741</ele><time>2019-10-02T12:02:40Z</time><name>PT6208</name></trkpt>
<trkpt lat="54.587153" lon="-3.249121"><ele>741</ele><time>2019-10-02T12:02:41Z</time><name>PT6209</name></trkpt>
<trkpt lat="54.587154" lon="-3.249124"><ele>741</ele><time>2019-10-02T12:02:42Z</time><name>PT6210</name></trkpt>
<trkpt lat="54.587154" lon="-3.249125"><ele>742</ele><time>2019-10-02T12:02:43Z</time><name>PT6211</name></trkpt>
<trkpt lat="54.587154" lon="-3.249126"><ele>741</ele><time>2019-10-02T12:02:58Z</time><name>PT6212</name></trkpt>
<trkpt lat="54.587148" lon="-3.249125"><ele>741</ele><time>2019-10-02T12:02:59Z</time><name>PT6213</name></trkpt>
<trkpt lat="54.587145" lon="-3.249121"><ele>741</ele><time>2019-10-02T12:03:00Z</time><name>PT6214</name></trkpt>
<trkpt lat="54.587141" lon="-3.249122"><ele>741</ele><time>2019-10-02T12:03:01Z</time><name>PT6215</name></trkpt>
<trkpt lat="54.587141" lon="-3.249121"><ele>741</ele><time>2019-10-02T12:03:02Z</time><name>PT6216</name></trkpt>
<trkpt lat="54.587140" lon="-3.249125"><ele>741</ele><time>2019-10-02T12:03:03Z</time><name>PT6217</name></trkpt>
<trkpt lat="54.587136" lon="-3.249127"><ele>741</ele><time>2019-10-02T12:03:06Z</time><name>PT6218</name></trkpt>
<trkpt lat="54.587136" lon="-3.249128"><ele>742</ele><time>2019-10-02T12:03:07Z</time><name>PT6219</name></trkpt>
<trkpt lat="54.587136" lon="-3.249129"><ele>742</ele><time>2019-10-02T12:03:08Z</time><name>PT6220</name></trkpt>
<trkpt lat="54.587135" lon="-3.249132"><ele>742</ele><time>2019-10-02T12:03:09Z</time><name>PT6221</name></trkpt>
<trkpt lat="54.587134" lon="-3.249131"><ele>742</ele><time>2019-10-02T12:03:10Z</time><name>PT6222</name></trkpt>
<trkpt lat="54.587137" lon="-3.249125"><ele>742</ele><time>2019-10-02T12:03:21Z</time><name>PT6223</name></trkpt>
<trkpt lat="54.587134" lon="-3.249134"><ele>741</ele><time>2019-10-02T12:03:22Z</time><name>PT6224</name></trkpt>
<trkpt lat="54.587135" lon="-3.249137"><ele>741</ele><time>2019-10-02T12:03:23Z</time><name>PT6225</name></trkpt>
<trkpt lat="54.587134" lon="-3.249140"><ele>741</ele><time>2019-10-02T12:03:24Z</time><name>PT6226</name></trkpt>
<trkpt lat="54.587135" lon="-3.249141"><ele>741</ele><time>2019-10-02T12:03:25Z</time><name>PT6227</name></trkpt>
<trkpt lat="54.587129" lon="-3.249145"><ele>741</ele><time>2019-10-02T12:03:26Z</time><name>PT6228</name></trkpt>
<trkpt lat="54.587123" lon="-3.249146"><ele>741</ele><time>2019-10-02T12:03:27Z</time><name>PT6229</name></trkpt>
<trkpt lat="54.587117" lon="-3.249146"><ele>741</ele><time>2019-10-02T12:03:28Z</time><name>PT6230</name></trkpt>
<trkpt lat="54.587112" lon="-3.249145"><ele>741</ele><time>2019-10-02T12:03:29Z</time><name>PT6231</name></trkpt>
<trkpt lat="54.587107" lon="-3.249145"><ele>741</ele><time>2019-10-02T12:03:30Z</time><name>PT6232</name></trkpt>
<trkpt lat="54.587104" lon="-3.249148"><ele>741</ele><time>2019-10-02T12:03:31Z</time><name>PT6233</name></trkpt>
<trkpt lat="54.587101" lon="-3.249145"><ele>741</ele><time>2019-10-02T12:03:32Z</time><name>PT6234</name></trkpt>
<trkpt lat="54.587100" lon="-3.249143"><ele>741</ele><time>2019-10-02T12:03:33Z</time><name>PT6235</name></trkpt>
<trkpt lat="54.587101" lon="-3.249140"><ele>740</ele><time>2019-10-02T12:03:34Z</time><name>PT6236</name></trkpt>
<trkpt lat="54.587102" lon="-3.249133"><ele>740</ele><time>2019-10-02T12:03:35Z</time><name>PT6237</name></trkpt>
<trkpt lat="54.587101" lon="-3.249132"><ele>740</ele><time>2019-10-02T12:03:36Z</time><name>PT6238</name></trkpt>
<trkpt lat="54.587096" lon="-3.249130"><ele>741</ele><time>2019-10-02T12:03:37Z</time><name>PT6239</name></trkpt>
<trkpt lat="54.587092" lon="-3.249136"><ele>740</ele><time>2019-10-02T12:03:38Z</time><name>PT6240</name></trkpt>
<trkpt lat="54.587099" lon="-3.249141"><ele>740</ele><time>2019-10-02T12:03:39Z</time><name>PT6241</name></trkpt>
<trkpt lat="54.587098" lon="-3.249150"><ele>740</ele><time>2019-10-02T12:03:40Z</time><name>PT6242</name></trkpt>
<trkpt lat="54.587093" lon="-3.249162"><ele>740</ele><time>2019-10-02T12:03:41Z</time><name>PT6243</name></trkpt>
<trkpt lat="54.587088" lon="-3.249177"><ele>740</ele><time>2019-10-02T12:03:42Z</time><name>PT6244</name></trkpt>
<trkpt lat="54.587082" lon="-3.249189"><ele>739</ele><time>2019-10-02T12:03:43Z</time><name>PT6245</name></trkpt>
<trkpt lat="54.587077" lon="-3.249202"><ele>739</ele><time>2019-10-02T12:03:44Z</time><name>PT6246</name></trkpt>
<trkpt lat="54.587080" lon="-3.249208"><ele>739</ele><time>2019-10-02T12:03:45Z</time><name>PT6247</name></trkpt>
<trkpt lat="54.587076" lon="-3.249217"><ele>740</ele><time>2019-10-02T12:03:46Z</time><name>PT6248</name></trkpt>
<trkpt lat="54.587068" lon="-3.249226"><ele>740</ele><time>2019-10-02T12:03:47Z</time><name>PT6249</name></trkpt>
<trkpt lat="54.587061" lon="-3.249240"><ele>740</ele><time>2019-10-02T12:03:48Z</time><name>PT6250</name></trkpt>
<trkpt lat="54.587051" lon="-3.249258"><ele>740</ele><time>2019-10-02T12:03:49Z</time><name>PT6251</name></trkpt>
<trkpt lat="54.587043" lon="-3.249274"><ele>740</ele><time>2019-10-02T12:03:50Z</time><name>PT6252</name></trkpt>
<trkpt lat="54.587035" lon="-3.249289"><ele>740</ele><time>2019-10-02T12:03:51Z</time><name>PT6253</name></trkpt>
<trkpt lat="54.587029" lon="-3.249303"><ele>740</ele><time>2019-10-02T12:03:52Z</time><name>PT6254</name></trkpt>
<trkpt lat="54.587018" lon="-3.249319"><ele>740</ele><time>2019-10-02T12:03:53Z</time><name>PT6255</name></trkpt>
<trkpt lat="54.587009" lon="-3.249337"><ele>740</ele><time>2019-10-02T12:03:54Z</time><name>PT6256</name></trkpt>
<trkpt lat="54.587002" lon="-3.249353"><ele>740</ele><time>2019-10-02T12:03:55Z</time><name>PT6257</name></trkpt>
<trkpt lat="54.586994" lon="-3.249368"><ele>740</ele><time>2019-10-02T12:03:56Z</time><name>PT6258</name></trkpt>
<trkpt lat="54.586984" lon="-3.249385"><ele>740</ele><time>2019-10-02T12:03:57Z</time><name>PT6259</name></trkpt>
<trkpt lat="54.586980" lon="-3.249399"><ele>740</ele><time>2019-10-02T12:03:58Z</time><name>PT6260</name></trkpt>
<trkpt lat="54.586973" lon="-3.249409"><ele>740</ele><time>2019-10-02T12:03:59Z</time><name>PT6261</name></trkpt>
<trkpt lat="54.586964" lon="-3.249423"><ele>740</ele><time>2019-10-02T12:04:00Z</time><name>PT6262</name></trkpt>
<trkpt lat="54.586955" lon="-3.249435"><ele>740</ele><time>2019-10-02T12:04:01Z</time><name>PT6263</name></trkpt>
<trkpt lat="54.586947" lon="-3.249446"><ele>740</ele><time>2019-10-02T12:04:02Z</time><name>PT6264</name></trkpt>
<trkpt lat="54.586941" lon="-3.249459"><ele>740</ele><time>2019-10-02T12:04:03Z</time><name>PT6265</name></trkpt>
<trkpt lat="54.586933" lon="-3.249479"><ele>740</ele><time>2019-10-02T12:04:04Z</time><name>PT6266</name></trkpt>
<trkpt lat="54.586927" lon="-3.249495"><ele>740</ele><time>2019-10-02T12:04:05Z</time><name>PT6267</name></trkpt>
<trkpt lat="54.586924" lon="-3.249515"><ele>740</ele><time>2019-10-02T12:04:06Z</time><name>PT6268</name></trkpt>
<trkpt lat="54.586915" lon="-3.249538"><ele>739</ele><time>2019-10-02T12:04:07Z</time><name>PT6269</name></trkpt>
<trkpt lat="54.586909" lon="-3.249556"><ele>739</ele><time>2019-10-02T12:04:08Z</time><name>PT6270</name></trkpt>
<trkpt lat="54.586904" lon="-3.249571"><ele>739</ele><time>2019-10-02T12:04:09Z</time><name>PT6271</name></trkpt>
<trkpt lat="54.586900" lon="-3.249588"><ele>739</ele><time>2019-10-02T12:04:10Z</time><name>PT6272</name></trkpt>
<trkpt lat="54.586897" lon="-3.249600"><ele>739</ele><time>2019-10-02T12:04:11Z</time><name>PT6273</name></trkpt>
<trkpt lat="54.586893" lon="-3.249610"><ele>738</ele><time>2019-10-02T12:04:12Z</time><name>PT6274</name></trkpt>
<trkpt lat="54.586888" lon="-3.249627"><ele>739</ele><time>2019-10-02T12:04:13Z</time><name>PT6275</name></trkpt>
<trkpt lat="54.586883" lon="-3.249639"><ele>738</ele><time>2019-10-02T12:04:14Z</time><name>PT6276</name></trkpt>
<trkpt lat="54.586878" lon="-3.249652"><ele>738</ele><time>2019-10-02T12:04:15Z</time><name>PT6277</name></trkpt>
<trkpt lat="54.586872" lon="-3.249671"><ele>738</ele><time>2019-10-02T12:04:16Z</time><name>PT6278</name></trkpt>
<trkpt lat="54.586865" lon="-3.249690"><ele>737</ele><time>2019-10-02T12:04:17Z</time><name>PT6279</name></trkpt>
<trkpt lat="54.586859" lon="-3.249707"><ele>737</ele><time>2019-10-02T12:04:18Z</time><name>PT6280</name></trkpt>
<trkpt lat="54.586853" lon="-3.249720"><ele>737</ele><time>2019-10-02T12:04:19Z</time><name>PT6281</name></trkpt>
<trkpt lat="54.586848" lon="-3.249736"><ele>737</ele><time>2019-10-02T12:04:20Z</time><name>PT6282</name></trkpt>
<trkpt lat="54.586842" lon="-3.249748"><ele>736</ele><time>2019-10-02T12:04:21Z</time><name>PT6283</name></trkpt>
<trkpt lat="54.586837" lon="-3.249765"><ele>737</ele><time>2019-10-02T12:04:22Z</time><name>PT6284</name></trkpt>
<trkpt lat="54.586831" lon="-3.249781"><ele>737</ele><time>2019-10-02T12:04:23Z</time><name>PT6285</name></trkpt>
<trkpt lat="54.586826" lon="-3.249796"><ele>737</ele><time>2019-10-02T12:04:24Z</time><name>PT6286</name></trkpt>
<trkpt lat="54.586822" lon="-3.249810"><ele>737</ele><time>2019-10-02T12:04:25Z</time><name>PT6287</name></trkpt>
<trkpt lat="54.586818" lon="-3.249827"><ele>737</ele><time>2019-10-02T12:04:26Z</time><name>PT6288</name></trkpt>
<trkpt lat="54.586816" lon="-3.249842"><ele>737</ele><time>2019-10-02T12:04:27Z</time><name>PT6289</name></trkpt>
<trkpt lat="54.586811" lon="-3.249862"><ele>737</ele><time>2019-10-02T12:04:28Z</time><name>PT6290</name></trkpt>
<trkpt lat="54.586806" lon="-3.249881"><ele>737</ele><time>2019-10-02T12:04:29Z</time><name>PT6291</name></trkpt>
<trkpt lat="54.586803" lon="-3.249894"><ele>737</ele><time>2019-10-02T12:04:30Z</time><name>PT6292</name></trkpt>
<trkpt lat="54.586797" lon="-3.249913"><ele>737</ele><time>2019-10-02T12:04:31Z</time><name>PT6293</name></trkpt>
<trkpt lat="54.586795" lon="-3.249924"><ele>736</ele><time>2019-10-02T12:04:32Z</time><name>PT6294</name></trkpt>
<trkpt lat="54.586790" lon="-3.249934"><ele>736</ele><time>2019-10-02T12:04:33Z</time><name>PT6295</name></trkpt>
<trkpt lat="54.586784" lon="-3.249943"><ele>736</ele><time>2019-10-02T12:04:34Z</time><name>PT6296</name></trkpt>
<trkpt lat="54.586779" lon="-3.249953"><ele>736</ele><time>2019-10-02T12:04:35Z</time><name>PT6297</name></trkpt>
<trkpt lat="54.586775" lon="-3.249966"><ele>736</ele><time>2019-10-02T12:04:36Z</time><name>PT6298</name></trkpt>
<trkpt lat="54.586769" lon="-3.249978"><ele>736</ele><time>2019-10-02T12:04:37Z</time><name>PT6299</name></trkpt>
<trkpt lat="54.586766" lon="-3.249985"><ele>736</ele><time>2019-10-02T12:04:38Z</time><name>PT6300</name></trkpt>
<trkpt lat="54.586764" lon="-3.249993"><ele>735</ele><time>2019-10-02T12:04:39Z</time><name>PT6301</name></trkpt>
<trkpt lat="54.586760" lon="-3.250002"><ele>735</ele><time>2019-10-02T12:04:40Z</time><name>PT6302</name></trkpt>
<trkpt lat="54.586753" lon="-3.250012"><ele>735</ele><time>2019-10-02T12:04:41Z</time><name>PT6303</name></trkpt>
<trkpt lat="54.586746" lon="-3.250031"><ele>736</ele><time>2019-10-02T12:04:42Z</time><name>PT6304</name></trkpt>
<trkpt lat="54.586739" lon="-3.250043"><ele>735</ele><time>2019-10-02T12:04:43Z</time><name>PT6305</name></trkpt>
<trkpt lat="54.586733" lon="-3.250054"><ele>735</ele><time>2019-10-02T12:04:44Z</time><name>PT6306</name></trkpt>
<trkpt lat="54.586727" lon="-3.250064"><ele>735</ele><time>2019-10-02T12:04:45Z</time><name>PT6307</name></trkpt>
<trkpt lat="54.586722" lon="-3.250074"><ele>735</ele><time>2019-10-02T12:04:46Z</time><name>PT6308</name></trkpt>
<trkpt lat="54.586714" lon="-3.250083"><ele>735</ele><time>2019-10-02T12:04:47Z</time><name>PT6309</name></trkpt>
<trkpt lat="54.586709" lon="-3.250099"><ele>735</ele><time>2019-10-02T12:04:48Z</time><name>PT6310</name></trkpt>
<trkpt lat="54.586705" lon="-3.250112"><ele>736</ele><time>2019-10-02T12:04:49Z</time><name>PT6311</name></trkpt>
<trkpt lat="54.586701" lon="-3.250125"><ele>735</ele><time>2019-10-02T12:04:50Z</time><name>PT6312</name></trkpt>
<trkpt lat="54.586699" lon="-3.250142"><ele>735</ele><time>2019-10-02T12:04:51Z</time><name>PT6313</name></trkpt>
<trkpt lat="54.586700" lon="-3.250162"><ele>735</ele><time>2019-10-02T12:04:52Z</time><name>PT6314</name></trkpt>
<trkpt lat="54.586701" lon="-3.250182"><ele>735</ele><time>2019-10-02T12:04:53Z</time><name>PT6315</name></trkpt>
<trkpt lat="54.586698" lon="-3.250206"><ele>735</ele><time>2019-10-02T12:04:54Z</time><name>PT6316</name></trkpt>
<trkpt lat="54.586697" lon="-3.250224"><ele>735</ele><time>2019-10-02T12:04:55Z</time><name>PT6317</name></trkpt>
<trkpt lat="54.586697" lon="-3.250243"><ele>735</ele><time>2019-10-02T12:04:56Z</time><name>PT6318</name></trkpt>
<trkpt lat="54.586698" lon="-3.250266"><ele>735</ele><time>2019-10-02T12:04:57Z</time><name>PT6319</name></trkpt>
<trkpt lat="54.586695" lon="-3.250286"><ele>735</ele><time>2019-10-02T12:04:58Z</time><name>PT6320</name></trkpt>
<trkpt lat="54.586690" lon="-3.250304"><ele>734</ele><time>2019-10-02T12:04:59Z</time><name>PT6321</name></trkpt>
<trkpt lat="54.586687" lon="-3.250322"><ele>734</ele><time>2019-10-02T12:05:00Z</time><name>PT6322</name></trkpt>
<trkpt lat="54.586683" lon="-3.250336"><ele>734</ele><time>2019-10-02T12:05:01Z</time><name>PT6323</name></trkpt>
<trkpt lat="54.586680" lon="-3.250349"><ele>733</ele><time>2019-10-02T12:05:02Z</time><name>PT6324</name></trkpt>
<trkpt lat="54.586678" lon="-3.250362"><ele>733</ele><time>2019-10-02T12:05:03Z</time><name>PT6325</name></trkpt>
<trkpt lat="54.586679" lon="-3.250381"><ele>733</ele><time>2019-10-02T12:05:04Z</time><name>PT6326</name></trkpt>
<trkpt lat="54.586677" lon="-3.250400"><ele>733</ele><time>2019-10-02T12:05:05Z</time><name>PT6327</name></trkpt>
<trkpt lat="54.586680" lon="-3.250417"><ele>733</ele><time>2019-10-02T12:05:06Z</time><name>PT6328</name></trkpt>
<trkpt lat="54.586683" lon="-3.250436"><ele>733</ele><time>2019-10-02T12:05:07Z</time><name>PT6329</name></trkpt>
<trkpt lat="54.586682" lon="-3.250454"><ele>733</ele><time>2019-10-02T12:05:08Z</time><name>PT6330</name></trkpt>
<trkpt lat="54.586680" lon="-3.250475"><ele>733</ele><time>2019-10-02T12:05:09Z</time><name>PT6331</name></trkpt>
<trkpt lat="54.586678" lon="-3.250494"><ele>733</ele><time>2019-10-02T12:05:10Z</time><name>PT6332</name></trkpt>
<trkpt lat="54.586678" lon="-3.250514"><ele>733</ele><time>2019-10-02T12:05:11Z</time><name>PT6333</name></trkpt>
<trkpt lat="54.586678" lon="-3.250529"><ele>732</ele><time>2019-10-02T12:05:12Z</time><name>PT6334</name></trkpt>
<trkpt lat="54.586681" lon="-3.250535"><ele>732</ele><time>2019-10-02T12:05:13Z</time><name>PT6335</name></trkpt>
<trkpt lat="54.586680" lon="-3.250547"><ele>732</ele><time>2019-10-02T12:05:14Z</time><name>PT6336</name></trkpt>
<trkpt lat="54.586681" lon="-3.250560"><ele>732</ele><time>2019-10-02T12:05:15Z</time><name>PT6337</name></trkpt>
<trkpt lat="54.586682" lon="-3.250577"><ele>732</ele><time>2019-10-02T12:05:16Z</time><name>PT6338</name></trkpt>
<trkpt lat="54.586682" lon="-3.250592"><ele>732</ele><time>2019-10-02T12:05:17Z</time><name>PT6339</name></trkpt>
<trkpt lat="54.586677" lon="-3.250605"><ele>732</ele><time>2019-10-02T12:05:18Z</time><name>PT6340</name></trkpt>
<trkpt lat="54.586676" lon="-3.250622"><ele>732</ele><time>2019-10-02T12:05:19Z</time><name>PT6341</name></trkpt>
<trkpt lat="54.586675" lon="-3.250641"><ele>731</ele><time>2019-10-02T12:05:20Z</time><name>PT6342</name></trkpt>
<trkpt lat="54.586671" lon="-3.250660"><ele>731</ele><time>2019-10-02T12:05:21Z</time><name>PT6343</name></trkpt>
<trkpt lat="54.586670" lon="-3.250678"><ele>731</ele><time>2019-10-02T12:05:22Z</time><name>PT6344</name></trkpt>
<trkpt lat="54.586669" lon="-3.250690"><ele>731</ele><time>2019-10-02T12:05:23Z</time><name>PT6345</name></trkpt>
<trkpt lat="54.586664" lon="-3.250700"><ele>730</ele><time>2019-10-02T12:05:24Z</time><name>PT6346</name></trkpt>
<trkpt lat="54.586660" lon="-3.250712"><ele>730</ele><time>2019-10-02T12:05:25Z</time><name>PT6347</name></trkpt>
<trkpt lat="54.586657" lon="-3.250720"><ele>729</ele><time>2019-10-02T12:05:26Z</time><name>PT6348</name></trkpt>
<trkpt lat="54.586652" lon="-3.250734"><ele>729</ele><time>2019-10-02T12:05:27Z</time><name>PT6349</name></trkpt>
<trkpt lat="54.586650" lon="-3.250751"><ele>729</ele><time>2019-10-02T12:05:28Z</time><name>PT6350</name></trkpt>
<trkpt lat="54.586653" lon="-3.250761"><ele>729</ele><time>2019-10-02T12:05:29Z</time><name>PT6351</name></trkpt>
<trkpt lat="54.586653" lon="-3.250777"><ele>729</ele><time>2019-10-02T12:05:30Z</time><name>PT6352</name></trkpt>
<trkpt lat="54.586650" lon="-3.250792"><ele>728</ele><time>2019-10-02T12:05:31Z</time><name>PT6353</name></trkpt>
<trkpt lat="54.586649" lon="-3.250806"><ele>728</ele><time>2019-10-02T12:05:32Z</time><name>PT6354</name></trkpt>
<trkpt lat="54.586646" lon="-3.250819"><ele>728</ele><time>2019-10-02T12:05:33Z</time><name>PT6355</name></trkpt>
<trkpt lat="54.586645" lon="-3.250833"><ele>728</ele><time>2019-10-02T12:05:34Z</time><name>PT6356</name></trkpt>
<trkpt lat="54.586646" lon="-3.250849"><ele>728</ele><time>2019-10-02T12:05:35Z</time><name>PT6357</name></trkpt>
<trkpt lat="54.586646" lon="-3.250866"><ele>728</ele><time>2019-10-02T12:05:36Z</time><name>PT6358</name></trkpt>
<trkpt lat="54.586648" lon="-3.250882"><ele>728</ele><time>2019-10-02T12:05:37Z</time><name>PT6359</name></trkpt>
<trkpt lat="54.586650" lon="-3.250901"><ele>727</ele><time>2019-10-02T12:05:38Z</time><name>PT6360</name></trkpt>
<trkpt lat="54.586648" lon="-3.250914"><ele>727</ele><time>2019-10-02T12:05:39Z</time><name>PT6361</name></trkpt>
<trkpt lat="54.586647" lon="-3.250927"><ele>727</ele><time>2019-10-02T12:05:40Z</time><name>PT6362</name></trkpt>
<trkpt lat="54.586648" lon="-3.250942"><ele>727</ele><time>2019-10-02T12:05:41Z</time><name>PT6363</name></trkpt>
<trkpt lat="54.586648" lon="-3.250956"><ele>727</ele><time>2019-10-02T12:05:42Z</time><name>PT6364</name></trkpt>
<trkpt lat="54.586647" lon="-3.250971"><ele>726</ele><time>2019-10-02T12:05:43Z</time><name>PT6365</name></trkpt>
<trkpt lat="54.586644" lon="-3.250986"><ele>726</ele><time>2019-10-02T12:05:44Z</time><name>PT6366</name></trkpt>
<trkpt lat="54.586643" lon="-3.251001"><ele>726</ele><time>2019-10-02T12:05:45Z</time><name>PT6367</name></trkpt>
<trkpt lat="54.586644" lon="-3.251018"><ele>726</ele><time>2019-10-02T12:05:46Z</time><name>PT6368</name></trkpt>
<trkpt lat="54.586644" lon="-3.251034"><ele>725</ele><time>2019-10-02T12:05:47Z</time><name>PT6369</name></trkpt>
<trkpt lat="54.586645" lon="-3.251053"><ele>725</ele><time>2019-10-02T12:05:48Z</time><name>PT6370</name></trkpt>
<trkpt lat="54.586646" lon="-3.251068"><ele>725</ele><time>2019-10-02T12:05:49Z</time><name>PT6371</name></trkpt>
<trkpt lat="54.586648" lon="-3.251080"><ele>724</ele><time>2019-10-02T12:05:50Z</time><name>PT6372</name></trkpt>
<trkpt lat="54.586651" lon="-3.251093"><ele>724</ele><time>2019-10-02T12:05:51Z</time><name>PT6373</name></trkpt>
<trkpt lat="54.586655" lon="-3.251105"><ele>724</ele><time>2019-10-02T12:05:52Z</time><name>PT6374</name></trkpt>
<trkpt lat="54.586655" lon="-3.251121"><ele>724</ele><time>2019-10-02T12:05:53Z</time><name>PT6375</name></trkpt>
<trkpt lat="54.586656" lon="-3.251135"><ele>724</ele><time>2019-10-02T12:05:54Z</time><name>PT6376</name></trkpt>
<trkpt lat="54.586653" lon="-3.251148"><ele>723</ele><time>2019-10-02T12:05:55Z</time><name>PT6377</name></trkpt>
<trkpt lat="54.586648" lon="-3.251159"><ele>723</ele><time>2019-10-02T12:05:56Z</time><name>PT6378</name></trkpt>
<trkpt lat="54.586644" lon="-3.251164"><ele>723</ele><time>2019-10-02T12:05:57Z</time><name>PT6379</name></trkpt>
<trkpt lat="54.586639" lon="-3.251169"><ele>722</ele><time>2019-10-02T12:05:58Z</time><name>PT6380</name></trkpt>
<trkpt lat="54.586632" lon="-3.251176"><ele>722</ele><time>2019-10-02T12:05:59Z</time><name>PT6381</name></trkpt>
<trkpt lat="54.586627" lon="-3.251184"><ele>722</ele><time>2019-10-02T12:06:00Z</time><name>PT6382</name></trkpt>
<trkpt lat="54.586623" lon="-3.251193"><ele>722</ele><time>2019-10-02T12:06:01Z</time><name>PT6383</name></trkpt>
<trkpt lat="54.586620" lon="-3.251204"><ele>721</ele><time>2019-10-02T12:06:02Z</time><name>PT6384</name></trkpt>
<trkpt lat="54.586618" lon="-3.251216"><ele>721</ele><time>2019-10-02T12:06:03Z</time><name>PT6385</name></trkpt>
<trkpt lat="54.586616" lon="-3.251231"><ele>721</ele><time>2019-10-02T12:06:04Z</time><name>PT6386</name></trkpt>
<trkpt lat="54.586614" lon="-3.251246"><ele>720</ele><time>2019-10-02T12:06:05Z</time><name>PT6387</name></trkpt>
<trkpt lat="54.586614" lon="-3.251258"><ele>720</ele><time>2019-10-02T12:06:06Z</time><name>PT6388</name></trkpt>
<trkpt lat="54.586613" lon="-3.251268"><ele>720</ele><time>2019-10-02T12:06:07Z</time><name>PT6389</name></trkpt>
<trkpt lat="54.586612" lon="-3.251282"><ele>719</ele><time>2019-10-02T12:06:08Z</time><name>PT6390</name></trkpt>
<trkpt lat="54.586613" lon="-3.251296"><ele>719</ele><time>2019-10-02T12:06:09Z</time><name>PT6391</name></trkpt>
<trkpt lat="54.586614" lon="-3.251307"><ele>719</ele><time>2019-10-02T12:06:10Z</time><name>PT6392</name></trkpt>
<trkpt lat="54.586616" lon="-3.251323"><ele>718</ele><time>2019-10-02T12:06:11Z</time><name>PT6393</name></trkpt>
<trkpt lat="54.586617" lon="-3.251337"><ele>718</ele><time>2019-10-02T12:06:12Z</time><name>PT6394</name></trkpt>
<trkpt lat="54.586615" lon="-3.251348"><ele>717</ele><time>2019-10-02T12:06:13Z</time><name>PT6395</name></trkpt>
<trkpt lat="54.586612" lon="-3.251359"><ele>717</ele><time>2019-10-02T12:06:14Z</time><name>PT6396</name></trkpt>
<trkpt lat="54.586611" lon="-3.251370"><ele>717</ele><time>2019-10-02T12:06:15Z</time><name>PT6397</name></trkpt>
<trkpt lat="54.586609" lon="-3.251380"><ele>717</ele><time>2019-10-02T12:06:16Z</time><name>PT6398</name></trkpt>
<trkpt lat="54.586609" lon="-3.251392"><ele>717</ele><time>2019-10-02T12:06:17Z</time><name>PT6399</name></trkpt>
<trkpt lat="54.586608" lon="-3.251407"><ele>716</ele><time>2019-10-02T12:06:18Z</time><name>PT6400</name></trkpt>
<trkpt lat="54.586609" lon="-3.251419"><ele>716</ele><time>2019-10-02T12:06:19Z</time><name>PT6401</name></trkpt>
<trkpt lat="54.586609" lon="-3.251431"><ele>716</ele><time>2019-10-02T12:06:20Z</time><name>PT6402</name></trkpt>
<trkpt lat="54.586610" lon="-3.251446"><ele>716</ele><time>2019-10-02T12:06:21Z</time><name>PT6403</name></trkpt>
<trkpt lat="54.586613" lon="-3.251464"><ele>716</ele><time>2019-10-02T12:06:22Z</time><name>PT6404</name></trkpt>
<trkpt lat="54.586615" lon="-3.251479"><ele>715</ele><time>2019-10-02T12:06:23Z</time><name>PT6405</name></trkpt>
<trkpt lat="54.586617" lon="-3.251490"><ele>715</ele><time>2019-10-02T12:06:24Z</time><name>PT6406</name></trkpt>
<trkpt lat="54.586621" lon="-3.251502"><ele>715</ele><time>2019-10-02T12:06:25Z</time><name>PT6407</name></trkpt>
<trkpt lat="54.586624" lon="-3.251516"><ele>714</ele><time>2019-10-02T12:06:26Z</time><name>PT6408</name></trkpt>
<trkpt lat="54.586625" lon="-3.251532"><ele>714</ele><time>2019-10-02T12:06:27Z</time><name>PT6409</name></trkpt>
<trkpt lat="54.586627" lon="-3.251546"><ele>714</ele><time>2019-10-02T12:06:28Z</time><name>PT6410</name></trkpt>
<trkpt lat="54.586627" lon="-3.251559"><ele>714</ele><time>2019-10-02T12:06:29Z</time><name>PT6411</name></trkpt>
<trkpt lat="54.586630" lon="-3.251571"><ele>714</ele><time>2019-10-02T12:06:30Z</time><name>PT6412</name></trkpt>
<trkpt lat="54.586634" lon="-3.251579"><ele>714</ele><time>2019-10-02T12:06:31Z</time><name>PT6413</name></trkpt>
<trkpt lat="54.586641" lon="-3.251590"><ele>714</ele><time>2019-10-02T12:06:32Z</time><name>PT6414</name></trkpt>
<trkpt lat="54.586647" lon="-3.251602"><ele>713</ele><time>2019-10-02T12:06:33Z</time><name>PT6415</name></trkpt>
<trkpt lat="54.586651" lon="-3.251616"><ele>713</ele><time>2019-10-02T12:06:34Z</time><name>PT6416</name></trkpt>
<trkpt lat="54.586654" lon="-3.251628"><ele>713</ele><time>2019-10-02T12:06:35Z</time><name>PT6417</name></trkpt>
<trkpt lat="54.586657" lon="-3.251640"><ele>713</ele><time>2019-10-02T12:06:36Z</time><name>PT6418</name></trkpt>
<trkpt lat="54.586660" lon="-3.251653"><ele>712</ele><time>2019-10-02T12:06:37Z</time><name>PT6419</name></trkpt>
<trkpt lat="54.586661" lon="-3.251663"><ele>712</ele><time>2019-10-02T12:06:38Z</time><name>PT6420</name></trkpt>
<trkpt lat="54.586666" lon="-3.251673"><ele>712</ele><time>2019-10-02T12:06:39Z</time><name>PT6421</name></trkpt>
<trkpt lat="54.586666" lon="-3.251688"><ele>711</ele><time>2019-10-02T12:06:40Z</time><name>PT6422</name></trkpt>
<trkpt lat="54.586667" lon="-3.251703"><ele>711</ele><time>2019-10-02T12:06:41Z</time><name>PT6423</name></trkpt>
<trkpt lat="54.586666" lon="-3.251715"><ele>711</ele><time>2019-10-02T12:06:42Z</time><name>PT6424</name></trkpt>
<trkpt lat="54.586665" lon="-3.251724"><ele>711</ele><time>2019-10-02T12:06:43Z</time><name>PT6425</name></trkpt>
<trkpt lat="54.586665" lon="-3.251737"><ele>710</ele><time>2019-10-02T12:06:44Z</time><name>PT6426</name></trkpt>
<trkpt lat="54.586666" lon="-3.251754"><ele>710</ele><time>2019-10-02T12:06:45Z</time><name>PT6427</name></trkpt>
<trkpt lat="54.586669" lon="-3.251770"><ele>710</ele><time>2019-10-02T12:06:46Z</time><name>PT6428</name></trkpt>
<trkpt lat="54.586670" lon="-3.251785"><ele>710</ele><time>2019-10-02T12:06:47Z</time><name>PT6429</name></trkpt>
<trkpt lat="54.586673" lon="-3.251798"><ele>709</ele><time>2019-10-02T12:06:48Z</time><name>PT6430</name></trkpt>
<trkpt lat="54.586674" lon="-3.251813"><ele>710</ele><time>2019-10-02T12:06:49Z</time><name>PT6431</name></trkpt>
<trkpt lat="54.586674" lon="-3.251824"><ele>709</ele><time>2019-10-02T12:06:50Z</time><name>PT6432</name></trkpt>
<trkpt lat="54.586673" lon="-3.251832"><ele>709</ele><time>2019-10-02T12:06:51Z</time><name>PT6433</name></trkpt>
<trkpt lat="54.586669" lon="-3.251846"><ele>708</ele><time>2019-10-02T12:06:52Z</time><name>PT6434</name></trkpt>
<trkpt lat="54.586668" lon="-3.251859"><ele>708</ele><time>2019-10-02T12:06:53Z</time><name>PT6435</name></trkpt>
<trkpt lat="54.586668" lon="-3.251875"><ele>708</ele><time>2019-10-02T12:06:54Z</time><name>PT6436</name></trkpt>
<trkpt lat="54.586668" lon="-3.251888"><ele>708</ele><time>2019-10-02T12:06:55Z</time><name>PT6437</name></trkpt>
<trkpt lat="54.586670" lon="-3.251901"><ele>708</ele><time>2019-10-02T12:06:56Z</time><name>PT6438</name></trkpt>
<trkpt lat="54.586673" lon="-3.251916"><ele>708</ele><time>2019-10-02T12:06:57Z</time><name>PT6439</name></trkpt>
<trkpt lat="54.586675" lon="-3.251932"><ele>708</ele><time>2019-10-02T12:06:58Z</time><name>PT6440</name></trkpt>
<trkpt lat="54.586674" lon="-3.251944"><ele>708</ele><time>2019-10-02T12:06:59Z</time><name>PT6441</name></trkpt>
<trkpt lat="54.586671" lon="-3.251955"><ele>707</ele><time>2019-10-02T12:07:00Z</time><name>PT6442</name></trkpt>
<trkpt lat="54.586671" lon="-3.251966"><ele>707</ele><time>2019-10-02T12:07:01Z</time><name>PT6443</name></trkpt>
<trkpt lat="54.586670" lon="-3.251978"><ele>707</ele><time>2019-10-02T12:07:02Z</time><name>PT6444</name></trkpt>
<trkpt lat="54.586671" lon="-3.251994"><ele>707</ele><time>2019-10-02T12:07:03Z</time><name>PT6445</name></trkpt>
<trkpt lat="54.586670" lon="-3.252008"><ele>707</ele><time>2019-10-02T12:07:04Z</time><name>PT6446</name></trkpt>
<trkpt lat="54.586669" lon="-3.252021"><ele>707</ele><time>2019-10-02T12:07:05Z</time><name>PT6447</name></trkpt>
<trkpt lat="54.586669" lon="-3.252036"><ele>707</ele><time>2019-10-02T12:07:06Z</time><name>PT6448</name></trkpt>
<trkpt lat="54.586673" lon="-3.252050"><ele>706</ele><time>2019-10-02T12:07:07Z</time><name>PT6449</name></trkpt>
<trkpt lat="54.586673" lon="-3.252065"><ele>706</ele><time>2019-10-02T12:07:08Z</time><name>PT6450</name></trkpt>
<trkpt lat="54.586673" lon="-3.252081"><ele>706</ele><time>2019-10-02T12:07:09Z</time><name>PT6451</name></trkpt>
<trkpt lat="54.586673" lon="-3.252094"><ele>706</ele><time>2019-10-02T12:07:10Z</time><name>PT6452</name></trkpt>
<trkpt lat="54.586673" lon="-3.252104"><ele>705</ele><time>2019-10-02T12:07:11Z</time><name>PT6453</name></trkpt>
<trkpt lat="54.586670" lon="-3.252117"><ele>705</ele><time>2019-10-02T12:07:12Z</time><name>PT6454</name></trkpt>
<trkpt lat="54.586669" lon="-3.252129"><ele>705</ele><time>2019-10-02T12:07:13Z</time><name>PT6455</name></trkpt>
<trkpt lat="54.586669" lon="-3.252139"><ele>705</ele><time>2019-10-02T12:07:14Z</time><name>PT6456</name></trkpt>
<trkpt lat="54.586666" lon="-3.252151"><ele>705</ele><time>2019-10-02T12:07:15Z</time><name>PT6457</name></trkpt>
<trkpt lat="54.586663" lon="-3.252158"><ele>704</ele><time>2019-10-02T12:07:16Z</time><name>PT6458</name></trkpt>
<trkpt lat="54.586662" lon="-3.252166"><ele>704</ele><time>2019-10-02T12:07:17Z</time><name>PT6459</name></trkpt>
<trkpt lat="54.586662" lon="-3.252178"><ele>704</ele><time>2019-10-02T12:07:18Z</time><name>PT6460</name></trkpt>
<trkpt lat="54.586661" lon="-3.252190"><ele>704</ele><time>2019-10-02T12:07:19Z</time><name>PT6461</name></trkpt>
<trkpt lat="54.586663" lon="-3.252197"><ele>703</ele><time>2019-10-02T12:07:20Z</time><name>PT6462</name></trkpt>
<trkpt lat="54.586663" lon="-3.252210"><ele>703</ele><time>2019-10-02T12:07:21Z</time><name>PT6463</name></trkpt>
<trkpt lat="54.586662" lon="-3.252219"><ele>703</ele><time>2019-10-02T12:07:22Z</time><name>PT6464</name></trkpt>
<trkpt lat="54.586665" lon="-3.252222"><ele>703</ele><time>2019-10-02T12:07:23Z</time><name>PT6465</name></trkpt>
<trkpt lat="54.586668" lon="-3.252223"><ele>702</ele><time>2019-10-02T12:07:24Z</time><name>PT6466</name></trkpt>
<trkpt lat="54.586669" lon="-3.252226"><ele>702</ele><time>2019-10-02T12:07:25Z</time><name>PT6467</name></trkpt>
<trkpt lat="54.586672" lon="-3.252229"><ele>703</ele><time>2019-10-02T12:07:26Z</time><name>PT6468</name></trkpt>
<trkpt lat="54.586674" lon="-3.252239"><ele>702</ele><time>2019-10-02T12:07:27Z</time><name>PT6469</name></trkpt>
<trkpt lat="54.586676" lon="-3.252253"><ele>702</ele><time>2019-10-02T12:07:28Z</time><name>PT6470</name></trkpt>
<trkpt lat="54.586676" lon="-3.252265"><ele>702</ele><time>2019-10-02T12:07:29Z</time><name>PT6471</name></trkpt>
<trkpt lat="54.586675" lon="-3.252274"><ele>702</ele><time>2019-10-02T12:07:30Z</time><name>PT6472</name></trkpt>
<trkpt lat="54.586671" lon="-3.252284"><ele>702</ele><time>2019-10-02T12:07:31Z</time><name>PT6473</name></trkpt>
<trkpt lat="54.586667" lon="-3.252294"><ele>701</ele><time>2019-10-02T12:07:32Z</time><name>PT6474</name></trkpt>
<trkpt lat="54.586665" lon="-3.252302"><ele>701</ele><time>2019-10-02T12:07:33Z</time><name>PT6475</name></trkpt>
<trkpt lat="54.586662" lon="-3.252308"><ele>701</ele><time>2019-10-02T12:07:34Z</time><name>PT6476</name></trkpt>
<trkpt lat="54.586657" lon="-3.252317"><ele>701</ele><time>2019-10-02T12:07:35Z</time><name>PT6477</name></trkpt>
<trkpt lat="54.586656" lon="-3.252330"><ele>701</ele><time>2019-10-02T12:07:36Z</time><name>PT6478</name></trkpt>
<trkpt lat="54.586659" lon="-3.252343"><ele>701</ele><time>2019-10-02T12:07:37Z</time><name>PT6479</name></trkpt>
<trkpt lat="54.586661" lon="-3.252354"><ele>700</ele><time>2019-10-02T12:07:38Z</time><name>PT6480</name></trkpt>
<trkpt lat="54.586666" lon="-3.252369"><ele>700</ele><time>2019-10-02T12:07:39Z</time><name>PT6481</name></trkpt>
<trkpt lat="54.586668" lon="-3.252383"><ele>700</ele><time>2019-10-02T12:07:40Z</time><name>PT6482</name></trkpt>
<trkpt lat="54.586670" lon="-3.252396"><ele>701</ele><time>2019-10-02T12:07:41Z</time><name>PT6483</name></trkpt>
<trkpt lat="54.586670" lon="-3.252405"><ele>701</ele><time>2019-10-02T12:07:42Z</time><name>PT6484</name></trkpt>
<trkpt lat="54.586671" lon="-3.252415"><ele>701</ele><time>2019-10-02T12:07:43Z</time><name>PT6485</name></trkpt>
<trkpt lat="54.586672" lon="-3.252425"><ele>700</ele><time>2019-10-02T12:07:44Z</time><name>PT6486</name></trkpt>
<trkpt lat="54.586681" lon="-3.252424"><ele>701</ele><time>2019-10-02T12:07:45Z</time><name>PT6487</name></trkpt>
<trkpt lat="54.586679" lon="-3.252434"><ele>701</ele><time>2019-10-02T12:07:46Z</time><name>PT6488</name></trkpt>
<trkpt lat="54.586678" lon="-3.252448"><ele>701</ele><time>2019-10-02T12:07:47Z</time><name>PT6489</name></trkpt>
<trkpt lat="54.586674" lon="-3.252460"><ele>700</ele><time>2019-10-02T12:07:48Z</time><name>PT6490</name></trkpt>
<trkpt lat="54.586670" lon="-3.252472"><ele>699</ele><time>2019-10-02T12:07:49Z</time><name>PT6491</name></trkpt>
<trkpt lat="54.586666" lon="-3.252484"><ele>699</ele><time>2019-10-02T12:07:50Z</time><name>PT6492</name></trkpt>
<trkpt lat="54.586663" lon="-3.252489"><ele>699</ele><time>2019-10-02T12:07:51Z</time><name>PT6493</name></trkpt>
<trkpt lat="54.586667" lon="-3.252495"><ele>698</ele><time>2019-10-02T12:07:52Z</time><name>PT6494</name></trkpt>
<trkpt lat="54.586670" lon="-3.252498"><ele>697</ele><time>2019-10-02T12:07:53Z</time><name>PT6495</name></trkpt>
<trkpt lat="54.586672" lon="-3.252504"><ele>697</ele><time>2019-10-02T12:07:54Z</time><name>PT6496</name></trkpt>
<trkpt lat="54.586674" lon="-3.252508"><ele>697</ele><time>2019-10-02T12:07:55Z</time><name>PT6497</name></trkpt>
<trkpt lat="54.586675" lon="-3.252512"><ele>696</ele><time>2019-10-02T12:07:56Z</time><name>PT6498</name></trkpt>
<trkpt lat="54.586677" lon="-3.252521"><ele>696</ele><time>2019-10-02T12:07:57Z</time><name>PT6499</name></trkpt>
<trkpt lat="54.586684" lon="-3.252529"><ele>697</ele><time>2019-10-02T12:07:58Z</time><name>PT6500</name></trkpt>
<trkpt lat="54.586682" lon="-3.252536"><ele>697</ele><time>2019-10-02T12:07:59Z</time><name>PT6501</name></trkpt>
<trkpt lat="54.586685" lon="-3.252534"><ele>696</ele><time>2019-10-02T12:08:00Z</time><name>PT6502</name></trkpt>
<trkpt lat="54.586682" lon="-3.252540"><ele>696</ele><time>2019-10-02T12:08:01Z</time><name>PT6503</name></trkpt>
<trkpt lat="54.586681" lon="-3.252548"><ele>696</ele><time>2019-10-02T12:08:02Z</time><name>PT6504</name></trkpt>
<trkpt lat="54.586679" lon="-3.252559"><ele>696</ele><time>2019-10-02T12:08:03Z</time><name>PT6505</name></trkpt>
<trkpt lat="54.586677" lon="-3.252575"><ele>696</ele><time>2019-10-02T12:08:04Z</time><name>PT6506</name></trkpt>
<trkpt lat="54.586675" lon="-3.252580"><ele>695</ele><time>2019-10-02T12:08:05Z</time><name>PT6507</name></trkpt>
<trkpt lat="54.586673" lon="-3.252592"><ele>695</ele><time>2019-10-02T12:08:06Z</time><name>PT6508</name></trkpt>
<trkpt lat="54.586672" lon="-3.252604"><ele>695</ele><time>2019-10-02T12:08:07Z</time><name>PT6509</name></trkpt>
<trkpt lat="54.586673" lon="-3.252618"><ele>695</ele><time>2019-10-02T12:08:08Z</time><name>PT6510</name></trkpt>
<trkpt lat="54.586669" lon="-3.252630"><ele>694</ele><time>2019-10-02T12:08:09Z</time><name>PT6511</name></trkpt>
<trkpt lat="54.586670" lon="-3.252634"><ele>694</ele><time>2019-10-02T12:08:10Z</time><name>PT6512</name></trkpt>
<trkpt lat="54.586670" lon="-3.252643"><ele>694</ele><time>2019-10-02T12:08:11Z</time><name>PT6513</name></trkpt>
<trkpt lat="54.586669" lon="-3.252653"><ele>693</ele><time>2019-10-02T12:08:12Z</time><name>PT6514</name></trkpt>
<trkpt lat="54.586668" lon="-3.252667"><ele>693</ele><time>2019-10-02T12:08:13Z</time><name>PT6515</name></trkpt>
<trkpt lat="54.586669" lon="-3.252684"><ele>693</ele><time>2019-10-02T12:08:14Z</time><name>PT6516</name></trkpt>
<trkpt lat="54.586668" lon="-3.252696"><ele>692</ele><time>2019-10-02T12:08:15Z</time><name>PT6517</name></trkpt>
<trkpt lat="54.586666" lon="-3.252711"><ele>692</ele><time>2019-10-02T12:08:16Z</time><name>PT6518</name></trkpt>
<trkpt lat="54.586666" lon="-3.252722"><ele>692</ele><time>2019-10-02T12:08:17Z</time><name>PT6519</name></trkpt>
<trkpt lat="54.586665" lon="-3.252738"><ele>692</ele><time>2019-10-02T12:08:18Z</time><name>PT6520</name></trkpt>
<trkpt lat="54.586663" lon="-3.252752"><ele>692</ele><time>2019-10-02T12:08:19Z</time><name>PT6521</name></trkpt>
<trkpt lat="54.586662" lon="-3.252759"><ele>692</ele><time>2019-10-02T12:08:20Z</time><name>PT6522</name></trkpt>
<trkpt lat="54.586662" lon="-3.252769"><ele>691</ele><time>2019-10-02T12:08:21Z</time><name>PT6523</name></trkpt>
<trkpt lat="54.586661" lon="-3.252780"><ele>691</ele><time>2019-10-02T12:08:22Z</time><name>PT6524</name></trkpt>
<trkpt lat="54.586657" lon="-3.252795"><ele>691</ele><time>2019-10-02T12:08:23Z</time><name>PT6525</name></trkpt>
<trkpt lat="54.586656" lon="-3.252812"><ele>691</ele><time>2019-10-02T12:08:24Z</time><name>PT6526</name></trkpt>
<trkpt lat="54.586657" lon="-3.252829"><ele>691</ele><time>2019-10-02T12:08:25Z</time><name>PT6527</name></trkpt>
<trkpt lat="54.586659" lon="-3.252844"><ele>690</ele><time>2019-10-02T12:08:26Z</time><name>PT6528</name></trkpt>
<trkpt lat="54.586656" lon="-3.252859"><ele>690</ele><time>2019-10-02T12:08:27Z</time><name>PT6529</name></trkpt>
<trkpt lat="54.586655" lon="-3.252873"><ele>689</ele><time>2019-10-02T12:08:28Z</time><name>PT6530</name></trkpt>
<trkpt lat="54.586656" lon="-3.252888"><ele>689</ele><time>2019-10-02T12:08:29Z</time><name>PT6531</name></trkpt>
<trkpt lat="54.586657" lon="-3.252907"><ele>689</ele><time>2019-10-02T12:08:30Z</time><name>PT6532</name></trkpt>
<trkpt lat="54.586657" lon="-3.252929"><ele>688</ele><time>2019-10-02T12:08:31Z</time><name>PT6533</name></trkpt>
<trkpt lat="54.586656" lon="-3.252948"><ele>688</ele><time>2019-10-02T12:08:32Z</time><name>PT6534</name></trkpt>
<trkpt lat="54.586655" lon="-3.252965"><ele>688</ele><time>2019-10-02T12:08:33Z</time><name>PT6535</name></trkpt>
<trkpt lat="54.586653" lon="-3.252984"><ele>687</ele><time>2019-10-02T12:08:34Z</time><name>PT6536</name></trkpt>
<trkpt lat="54.586651" lon="-3.253001"><ele>687</ele><time>2019-10-02T12:08:35Z</time><name>PT6537</name></trkpt>
<trkpt lat="54.586650" lon="-3.253018"><ele>687</ele><time>2019-10-02T12:08:36Z</time><name>PT6538</name></trkpt>
<trkpt lat="54.586651" lon="-3.253037"><ele>687</ele><time>2019-10-02T12:08:37Z</time><name>PT6539</name></trkpt>
<trkpt lat="54.586648" lon="-3.253055"><ele>687</ele><time>2019-10-02T12:08:38Z</time><name>PT6540</name></trkpt>
<trkpt lat="54.586648" lon="-3.253073"><ele>687</ele><time>2019-10-02T12:08:39Z</time><name>PT6541</name></trkpt>
<trkpt lat="54.586648" lon="-3.253087"><ele>687</ele><time>2019-10-02T12:08:40Z</time><name>PT6542</name></trkpt>
<trkpt lat="54.586648" lon="-3.253100"><ele>687</ele><time>2019-10-02T12:08:41Z</time><name>PT6543</name></trkpt>
<trkpt lat="54.586644" lon="-3.253114"><ele>686</ele><time>2019-10-02T12:08:42Z</time><name>PT6544</name></trkpt>
<trkpt lat="54.586641" lon="-3.253128"><ele>686</ele><time>2019-10-02T12:08:43Z</time><name>PT6545</name></trkpt>
<trkpt lat="54.586637" lon="-3.253143"><ele>686</ele><time>2019-10-02T12:08:44Z</time><name>PT6546</name></trkpt>
<trkpt lat="54.586638" lon="-3.253161"><ele>686</ele><time>2019-10-02T12:08:45Z</time><name>PT6547</name></trkpt>
<trkpt lat="54.586639" lon="-3.253177"><ele>686</ele><time>2019-10-02T12:08:46Z</time><name>PT6548</name></trkpt>
<trkpt lat="54.586638" lon="-3.253192"><ele>686</ele><time>2019-10-02T12:08:47Z</time><name>PT6549</name></trkpt>
<trkpt lat="54.586636" lon="-3.253208"><ele>685</ele><time>2019-10-02T12:08:48Z</time><name>PT6550</name></trkpt>
<trkpt lat="54.586635" lon="-3.253223"><ele>685</ele><time>2019-10-02T12:08:49Z</time><name>PT6551</name></trkpt>
<trkpt lat="54.586635" lon="-3.253238"><ele>684</ele><time>2019-10-02T12:08:50Z</time><name>PT6552</name></trkpt>
<trkpt lat="54.586636" lon="-3.253256"><ele>684</ele><time>2019-10-02T12:08:51Z</time><name>PT6553</name></trkpt>
<trkpt lat="54.586634" lon="-3.253273"><ele>684</ele><time>2019-10-02T12:08:52Z</time><name>PT6554</name></trkpt>
<trkpt lat="54.586633" lon="-3.253290"><ele>684</ele><time>2019-10-02T12:08:53Z</time><name>PT6555</name></trkpt>
<trkpt lat="54.586632" lon="-3.253306"><ele>684</ele><time>2019-10-02T12:08:54Z</time><name>PT6556</name></trkpt>
<trkpt lat="54.586634" lon="-3.253326"><ele>683</ele><time>2019-10-02T12:08:55Z</time><name>PT6557</name></trkpt>
<trkpt lat="54.586630" lon="-3.253342"><ele>683</ele><time>2019-10-02T12:08:56Z</time><name>PT6558</name></trkpt>
<trkpt lat="54.586627" lon="-3.253364"><ele>683</ele><time>2019-10-02T12:08:57Z</time><name>PT6559</name></trkpt>
<trkpt lat="54.586625" lon="-3.253384"><ele>683</ele><time>2019-10-02T12:08:58Z</time><name>PT6560</name></trkpt>
<trkpt lat="54.586623" lon="-3.253401"><ele>682</ele><time>2019-10-02T12:08:59Z</time><name>PT6561</name></trkpt>
<trkpt lat="54.586622" lon="-3.253422"><ele>682</ele><time>2019-10-02T12:09:00Z</time><name>PT6562</name></trkpt>
<trkpt lat="54.586622" lon="-3.253441"><ele>682</ele><time>2019-10-02T12:09:01Z</time><name>PT6563</name></trkpt>
<trkpt lat="54.586621" lon="-3.253463"><ele>682</ele><time>2019-10-02T12:09:02Z</time><name>PT6564</name></trkpt>
<trkpt lat="54.586618" lon="-3.253487"><ele>681</ele><time>2019-10-02T12:09:03Z</time><name>PT6565</name></trkpt>
<trkpt lat="54.586617" lon="-3.253505"><ele>681</ele><time>2019-10-02T12:09:04Z</time><name>PT6566</name></trkpt>
<trkpt lat="54.586614" lon="-3.253520"><ele>681</ele><time>2019-10-02T12:09:05Z</time><name>PT6567</name></trkpt>
<trkpt lat="54.586611" lon="-3.253541"><ele>681</ele><time>2019-10-02T12:09:06Z</time><name>PT6568</name></trkpt>
<trkpt lat="54.586611" lon="-3.253561"><ele>681</ele><time>2019-10-02T12:09:07Z</time><name>PT6569</name></trkpt>
<trkpt lat="54.586612" lon="-3.253579"><ele>681</ele><time>2019-10-02T12:09:08Z</time><name>PT6570</name></trkpt>
<trkpt lat="54.586614" lon="-3.253598"><ele>681</ele><time>2019-10-02T12:09:09Z</time><name>PT6571</name></trkpt>
<trkpt lat="54.586616" lon="-3.253611"><ele>680</ele><time>2019-10-02T12:09:10Z</time><name>PT6572</name></trkpt>
<trkpt lat="54.586616" lon="-3.253629"><ele>680</ele><time>2019-10-02T12:09:11Z</time><name>PT6573</name></trkpt>
<trkpt lat="54.586615" lon="-3.253646"><ele>680</ele><time>2019-10-02T12:09:12Z</time><name>PT6574</name></trkpt>
<trkpt lat="54.586612" lon="-3.253670"><ele>680</ele><time>2019-10-02T12:09:13Z</time><name>PT6575</name></trkpt>
<trkpt lat="54.586613" lon="-3.253691"><ele>680</ele><time>2019-10-02T12:09:14Z</time><name>PT6576</name></trkpt>
<trkpt lat="54.586611" lon="-3.253712"><ele>680</ele><time>2019-10-02T12:09:15Z</time><name>PT6577</name></trkpt>
<trkpt lat="54.586613" lon="-3.253735"><ele>680</ele><time>2019-10-02T12:09:16Z</time><name>PT6578</name></trkpt>
<trkpt lat="54.586617" lon="-3.253757"><ele>679</ele><time>2019-10-02T12:09:17Z</time><name>PT6579</name></trkpt>
<trkpt lat="54.586614" lon="-3.253775"><ele>679</ele><time>2019-10-02T12:09:18Z</time><name>PT6580</name></trkpt>
<trkpt lat="54.586609" lon="-3.253790"><ele>679</ele><time>2019-10-02T12:09:19Z</time><name>PT6581</name></trkpt>
<trkpt lat="54.586607" lon="-3.253809"><ele>679</ele><time>2019-10-02T12:09:20Z</time><name>PT6582</name></trkpt>
<trkpt lat="54.586604" lon="-3.253828"><ele>679</ele><time>2019-10-02T12:09:21Z</time><name>PT6583</name></trkpt>
<trkpt lat="54.586604" lon="-3.253846"><ele>679</ele><time>2019-10-02T12:09:22Z</time><name>PT6584</name></trkpt>
<trkpt lat="54.586605" lon="-3.253870"><ele>679</ele><time>2019-10-02T12:09:23Z</time><name>PT6585</name></trkpt>
<trkpt lat="54.586604" lon="-3.253892"><ele>679</ele><time>2019-10-02T12:09:24Z</time><name>PT6586</name></trkpt>
<trkpt lat="54.586603" lon="-3.253909"><ele>679</ele><time>2019-10-02T12:09:25Z</time><name>PT6587</name></trkpt>
<trkpt lat="54.586601" lon="-3.253925"><ele>678</ele><time>2019-10-02T12:09:26Z</time><name>PT6588</name></trkpt>
<trkpt lat="54.586596" lon="-3.253947"><ele>679</ele><time>2019-10-02T12:09:27Z</time><name>PT6589</name></trkpt>
<trkpt lat="54.586594" lon="-3.253967"><ele>678</ele><time>2019-10-02T12:09:28Z</time><name>PT6590</name></trkpt>
<trkpt lat="54.586592" lon="-3.253986"><ele>679</ele><time>2019-10-02T12:09:29Z</time><name>PT6591</name></trkpt>
<trkpt lat="54.586588" lon="-3.254007"><ele>679</ele><time>2019-10-02T12:09:30Z</time><name>PT6592</name></trkpt>
<trkpt lat="54.586579" lon="-3.254036"><ele>680</ele><time>2019-10-02T12:09:31Z</time><name>PT6593</name></trkpt>
<trkpt lat="54.586573" lon="-3.254056"><ele>680</ele><time>2019-10-02T12:09:32Z</time><name>PT6594</name></trkpt>
<trkpt lat="54.586569" lon="-3.254074"><ele>680</ele><time>2019-10-02T12:09:33Z</time><name>PT6595</name></trkpt>
<trkpt lat="54.586567" lon="-3.254089"><ele>679</ele><time>2019-10-02T12:09:34Z</time><name>PT6596</name></trkpt>
<trkpt lat="54.586566" lon="-3.254110"><ele>680</ele><time>2019-10-02T12:09:35Z</time><name>PT6597</name></trkpt>
<trkpt lat="54.586563" lon="-3.254128"><ele>679</ele><time>2019-10-02T12:09:36Z</time><name>PT6598</name></trkpt>
<trkpt lat="54.586561" lon="-3.254144"><ele>679</ele><time>2019-10-02T12:09:37Z</time><name>PT6599</name></trkpt>
<trkpt lat="54.586558" lon="-3.254163"><ele>679</ele><time>2019-10-02T12:09:38Z</time><name>PT6600</name></trkpt>
<trkpt lat="54.586555" lon="-3.254182"><ele>679</ele><time>2019-10-02T12:09:39Z</time><name>PT6601</name></trkpt>
<trkpt lat="54.586553" lon="-3.254203"><ele>678</ele><time>2019-10-02T12:09:40Z</time><name>PT6602</name></trkpt>
<trkpt lat="54.586549" lon="-3.254224"><ele>678</ele><time>2019-10-02T12:09:41Z</time><name>PT6603</name></trkpt>
<trkpt lat="54.586546" lon="-3.254243"><ele>678</ele><time>2019-10-02T12:09:42Z</time><name>PT6604</name></trkpt>
<trkpt lat="54.586542" lon="-3.254263"><ele>678</ele><time>2019-10-02T12:09:43Z</time><name>PT6605</name></trkpt>
<trkpt lat="54.586539" lon="-3.254284"><ele>678</ele><time>2019-10-02T12:09:44Z</time><name>PT6606</name></trkpt>
<trkpt lat="54.586536" lon="-3.254309"><ele>678</ele><time>2019-10-02T12:09:45Z</time><name>PT6607</name></trkpt>
<trkpt lat="54.586531" lon="-3.254329"><ele>678</ele><time>2019-10-02T12:09:46Z</time><name>PT6608</name></trkpt>
<trkpt lat="54.586527" lon="-3.254344"><ele>678</ele><time>2019-10-02T12:09:47Z</time><name>PT6609</name></trkpt>
<trkpt lat="54.586522" lon="-3.254362"><ele>678</ele><time>2019-10-02T12:09:48Z</time><name>PT6610</name></trkpt>
<trkpt lat="54.586517" lon="-3.254380"><ele>678</ele><time>2019-10-02T12:09:49Z</time><name>PT6611</name></trkpt>
<trkpt lat="54.586511" lon="-3.254400"><ele>678</ele><time>2019-10-02T12:09:50Z</time><name>PT6612</name></trkpt>
<trkpt lat="54.586505" lon="-3.254418"><ele>679</ele><time>2019-10-02T12:09:51Z</time><name>PT6613</name></trkpt>
<trkpt lat="54.586501" lon="-3.254431"><ele>679</ele><time>2019-10-02T12:09:52Z</time><name>PT6614</name></trkpt>
<trkpt lat="54.586495" lon="-3.254449"><ele>679</ele><time>2019-10-02T12:09:53Z</time><name>PT6615</name></trkpt>
<trkpt lat="54.586488" lon="-3.254466"><ele>679</ele><time>2019-10-02T12:09:54Z</time><name>PT6616</name></trkpt>
<trkpt lat="54.586482" lon="-3.254487"><ele>679</ele><time>2019-10-02T12:09:55Z</time><name>PT6617</name></trkpt>
<trkpt lat="54.586477" lon="-3.254505"><ele>679</ele><time>2019-10-02T12:09:56Z</time><name>PT6618</name></trkpt>
<trkpt lat="54.586471" lon="-3.254522"><ele>679</ele><time>2019-10-02T12:09:57Z</time><name>PT6619</name></trkpt>
<trkpt lat="54.586464" lon="-3.254537"><ele>679</ele><time>2019-10-02T12:09:58Z</time><name>PT6620</name></trkpt>
<trkpt lat="54.586457" lon="-3.254548"><ele>679</ele><time>2019-10-02T12:09:59Z</time><name>PT6621</name></trkpt>
<trkpt lat="54.586451" lon="-3.254565"><ele>679</ele><time>2019-10-02T12:10:00Z</time><name>PT6622</name></trkpt>
<trkpt lat="54.586445" lon="-3.254579"><ele>679</ele><time>2019-10-02T12:10:01Z</time><name>PT6623</name></trkpt>
<trkpt lat="54.586437" lon="-3.254592"><ele>680</ele><time>2019-10-02T12:10:02Z</time><name>PT6624</name></trkpt>
<trkpt lat="54.586430" lon="-3.254606"><ele>680</ele><time>2019-10-02T12:10:03Z</time><name>PT6625</name></trkpt>
<trkpt lat="54.586424" lon="-3.254623"><ele>680</ele><time>2019-10-02T12:10:04Z</time><name>PT6626</name></trkpt>
<trkpt lat="54.586419" lon="-3.254645"><ele>680</ele><time>2019-10-02T12:10:05Z</time><name>PT6627</name></trkpt>
<trkpt lat="54.586412" lon="-3.254661"><ele>680</ele><time>2019-10-02T12:10:06Z</time><name>PT6628</name></trkpt>
<trkpt lat="54.586406" lon="-3.254667"><ele>681</ele><time>2019-10-02T12:10:07Z</time><name>PT6629</name></trkpt>
<trkpt lat="54.586402" lon="-3.254676"><ele>681</ele><time>2019-10-02T12:10:08Z</time><name>PT6630</name></trkpt>
<trkpt lat="54.586397" lon="-3.254690"><ele>681</ele><time>2019-10-02T12:10:09Z</time><name>PT6631</name></trkpt>
<trkpt lat="54.586390" lon="-3.254700"><ele>681</ele><time>2019-10-02T12:10:10Z</time><name>PT6632</name></trkpt>
<trkpt lat="54.586385" lon="-3.254710"><ele>681</ele><time>2019-10-02T12:10:11Z</time><name>PT6633</name></trkpt>
<trkpt lat="54.586381" lon="-3.254722"><ele>681</ele><time>2019-10-02T12:10:12Z</time><name>PT6634</name></trkpt>
<trkpt lat="54.586380" lon="-3.254728"><ele>681</ele><time>2019-10-02T12:10:13Z</time><name>PT6635</name></trkpt>
<trkpt lat="54.586376" lon="-3.254739"><ele>681</ele><time>2019-10-02T12:10:14Z</time><name>PT6636</name></trkpt>
<trkpt lat="54.586375" lon="-3.254749"><ele>681</ele><time>2019-10-02T12:10:15Z</time><name>PT6637</name></trkpt>
<trkpt lat="54.586372" lon="-3.254755"><ele>681</ele><time>2019-10-02T12:10:16Z</time><name>PT6638</name></trkpt>
<trkpt lat="54.586369" lon="-3.254763"><ele>682</ele><time>2019-10-02T12:10:17Z</time><name>PT6639</name></trkpt>
<trkpt lat="54.586367" lon="-3.254772"><ele>682</ele><time>2019-10-02T12:10:18Z</time><name>PT6640</name></trkpt>
<trkpt lat="54.586366" lon="-3.254783"><ele>681</ele><time>2019-10-02T12:10:19Z</time><name>PT6641</name></trkpt>
<trkpt lat="54.586364" lon="-3.254795"><ele>682</ele><time>2019-10-02T12:10:20Z</time><name>PT6642</name></trkpt>
<trkpt lat="54.586365" lon="-3.254808"><ele>682</ele><time>2019-10-02T12:10:21Z</time><name>PT6643</name></trkpt>
<trkpt lat="54.586367" lon="-3.254821"><ele>682</ele><time>2019-10-02T12:10:22Z</time><name>PT6644</name></trkpt>
<trkpt lat="54.586368" lon="-3.254837"><ele>682</ele><time>2019-10-02T12:10:23Z</time><name>PT6645</name></trkpt>
<trkpt lat="54.586367" lon="-3.254852"><ele>682</ele><time>2019-10-02T12:10:24Z</time><name>PT6646</name></trkpt>
<trkpt lat="54.586369" lon="-3.254866"><ele>682</ele><time>2019-10-02T12:10:25Z</time><name>PT6647</name></trkpt>
<trkpt lat="54.586370" lon="-3.254884"><ele>682</ele><time>2019-10-02T12:10:26Z</time><name>PT6648</name></trkpt>
<trkpt lat="54.586372" lon="-3.254897"><ele>682</ele><time>2019-10-02T12:10:27Z</time><name>PT6649</name></trkpt>
<trkpt lat="54.586373" lon="-3.254907"><ele>682</ele><time>2019-10-02T12:10:28Z</time><name>PT6650</name></trkpt>
<trkpt lat="54.586376" lon="-3.254916"><ele>682</ele><time>2019-10-02T12:10:29Z</time><name>PT6651</name></trkpt>
<trkpt lat="54.586381" lon="-3.254933"><ele>682</ele><time>2019-10-02T12:10:30Z</time><name>PT6652</name></trkpt>
<trkpt lat="54.586384" lon="-3.254945"><ele>683</ele><time>2019-10-02T12:10:31Z</time><name>PT6653</name></trkpt>
<trkpt lat="54.586386" lon="-3.254958"><ele>683</ele><time>2019-10-02T12:10:32Z</time><name>PT6654</name></trkpt>
<trkpt lat="54.586389" lon="-3.254971"><ele>683</ele><time>2019-10-02T12:10:33Z</time><name>PT6655</name></trkpt>
<trkpt lat="54.586392" lon="-3.254989"><ele>683</ele><time>2019-10-02T12:10:34Z</time><name>PT6656</name></trkpt>
<trkpt lat="54.586392" lon="-3.255007"><ele>683</ele><time>2019-10-02T12:10:35Z</time><name>PT6657</name></trkpt>
<trkpt lat="54.586394" lon="-3.255019"><ele>683</ele><time>2019-10-02T12:10:36Z</time><name>PT6658</name></trkpt>
<trkpt lat="54.586396" lon="-3.255032"><ele>683</ele><time>2019-10-02T12:10:37Z</time><name>PT6659</name></trkpt>
<trkpt lat="54.586398" lon="-3.255044"><ele>683</ele><time>2019-10-02T12:10:38Z</time><name>PT6660</name></trkpt>
<trkpt lat="54.586398" lon="-3.255056"><ele>683</ele><time>2019-10-02T12:10:39Z</time><name>PT6661</name></trkpt>
<trkpt lat="54.586398" lon="-3.255064"><ele>683</ele><time>2019-10-02T12:10:40Z</time><name>PT6662</name></trkpt>
<trkpt lat="54.586397" lon="-3.255074"><ele>682</ele><time>2019-10-02T12:10:41Z</time><name>PT6663</name></trkpt>
<trkpt lat="54.586396" lon="-3.255085"><ele>682</ele><time>2019-10-02T12:10:42Z</time><name>PT6664</name></trkpt>
<trkpt lat="54.586395" lon="-3.255096"><ele>682</ele><time>2019-10-02T12:10:43Z</time><name>PT6665</name></trkpt>
<trkpt lat="54.586393" lon="-3.255112"><ele>683</ele><time>2019-10-02T12:10:44Z</time><name>PT6666</name></trkpt>
<trkpt lat="54.586391" lon="-3.255126"><ele>683</ele><time>2019-10-02T12:10:45Z</time><name>PT6667</name></trkpt>
<trkpt lat="54.586389" lon="-3.255138"><ele>684</ele><time>2019-10-02T12:10:46Z</time><name>PT6668</name></trkpt>
<trkpt lat="54.586387" lon="-3.255151"><ele>684</ele><time>2019-10-02T12:10:47Z</time><name>PT6669</name></trkpt>
<trkpt lat="54.586388" lon="-3.255166"><ele>683</ele><time>2019-10-02T12:10:48Z</time><name>PT6670</name></trkpt>
<trkpt lat="54.586389" lon="-3.255176"><ele>683</ele><time>2019-10-02T12:10:49Z</time><name>PT6671</name></trkpt>
<trkpt lat="54.586391" lon="-3.255190"><ele>683</ele><time>2019-10-02T12:10:50Z</time><name>PT6672</name></trkpt>
<trkpt lat="54.586391" lon="-3.255204"><ele>683</ele><time>2019-10-02T12:10:51Z</time><name>PT6673</name></trkpt>
<trkpt lat="54.586393" lon="-3.255214"><ele>683</ele><time>2019-10-02T12:10:52Z</time><name>PT6674</name></trkpt>
<trkpt lat="54.586395" lon="-3.255225"><ele>683</ele><time>2019-10-02T12:10:53Z</time><name>PT6675</name></trkpt>
<trkpt lat="54.586399" lon="-3.255234"><ele>684</ele><time>2019-10-02T12:10:54Z</time><name>PT6676</name></trkpt>
<trkpt lat="54.586402" lon="-3.255247"><ele>684</ele><time>2019-10-02T12:10:55Z</time><name>PT6677</name></trkpt>
<trkpt lat="54.586404" lon="-3.255259"><ele>684</ele><time>2019-10-02T12:10:56Z</time><name>PT6678</name></trkpt>
<trkpt lat="54.586408" lon="-3.255273"><ele>685</ele><time>2019-10-02T12:10:57Z</time><name>PT6679</name></trkpt>
<trkpt lat="54.586410" lon="-3.255285"><ele>685</ele><time>2019-10-02T12:10:58Z</time><name>PT6680</name></trkpt>
<trkpt lat="54.586411" lon="-3.255296"><ele>685</ele><time>2019-10-02T12:10:59Z</time><name>PT6681</name></trkpt>
<trkpt lat="54.586412" lon="-3.255309"><ele>685</ele><time>2019-10-02T12:11:00Z</time><name>PT6682</name></trkpt>
<trkpt lat="54.586411" lon="-3.255318"><ele>685</ele><time>2019-10-02T12:11:01Z</time><name>PT6683</name></trkpt>
<trkpt lat="54.586409" lon="-3.255328"><ele>685</ele><time>2019-10-02T12:11:02Z</time><name>PT6684</name></trkpt>
<trkpt lat="54.586408" lon="-3.255340"><ele>685</ele><time>2019-10-02T12:11:03Z</time><name>PT6685</name></trkpt>
<trkpt lat="54.586407" lon="-3.255348"><ele>685</ele><time>2019-10-02T12:11:04Z</time><name>PT6686</name></trkpt>
<trkpt lat="54.586404" lon="-3.255359"><ele>685</ele><time>2019-10-02T12:11:05Z</time><name>PT6687</name></trkpt>
<trkpt lat="54.586402" lon="-3.255369"><ele>685</ele><time>2019-10-02T12:11:06Z</time><name>PT6688</name></trkpt>
<trkpt lat="54.586400" lon="-3.255380"><ele>686</ele><time>2019-10-02T12:11:07Z</time><name>PT6689</name></trkpt>
<trkpt lat="54.586400" lon="-3.255392"><ele>686</ele><time>2019-10-02T12:11:08Z</time><name>PT6690</name></trkpt>
<trkpt lat="54.586397" lon="-3.255406"><ele>686</ele><time>2019-10-02T12:11:09Z</time><name>PT6691</name></trkpt>
<trkpt lat="54.586396" lon="-3.255419"><ele>686</ele><time>2019-10-02T12:11:10Z</time><name>PT6692</name></trkpt>
<trkpt lat="54.586398" lon="-3.255427"><ele>687</ele><time>2019-10-02T12:11:11Z</time><name>PT6693</name></trkpt>
<trkpt lat="54.586398" lon="-3.255436"><ele>687</ele><time>2019-10-02T12:11:12Z</time><name>PT6694</name></trkpt>
<trkpt lat="54.586399" lon="-3.255447"><ele>687</ele><time>2019-10-02T12:11:13Z</time><name>PT6695</name></trkpt>
<trkpt lat="54.586398" lon="-3.255459"><ele>687</ele><time>2019-10-02T12:11:14Z</time><name>PT6696</name></trkpt>
<trkpt lat="54.586395" lon="-3.255474"><ele>688</ele><time>2019-10-02T12:11:15Z</time><name>PT6697</name></trkpt>
<trkpt lat="54.586395" lon="-3.255485"><ele>688</ele><time>2019-10-02T12:11:16Z</time><name>PT6698</name></trkpt>
<trkpt lat="54.586396" lon="-3.255492"><ele>688</ele><time>2019-10-02T12:11:17Z</time><name>PT6699</name></trkpt>
<trkpt lat="54.586397" lon="-3.255500"><ele>688</ele><time>2019-10-02T12:11:18Z</time><name>PT6700</name></trkpt>
<trkpt lat="54.586396" lon="-3.255506"><ele>688</ele><time>2019-10-02T12:11:19Z</time><name>PT6701</name></trkpt>
<trkpt lat="54.586397" lon="-3.255515"><ele>689</ele><time>2019-10-02T12:11:20Z</time><name>PT6702</name></trkpt>
<trkpt lat="54.586398" lon="-3.255525"><ele>689</ele><time>2019-10-02T12:11:21Z</time><name>PT6703</name></trkpt>
<trkpt lat="54.586398" lon="-3.255529"><ele>689</ele><time>2019-10-02T12:11:22Z</time><name>PT6704</name></trkpt>
<trkpt lat="54.586398" lon="-3.255531"><ele>690</ele><time>2019-10-02T12:11:23Z</time><name>PT6705</name></trkpt>
<trkpt lat="54.586400" lon="-3.255530"><ele>690</ele><time>2019-10-02T12:11:24Z</time><name>PT6706</name></trkpt>
<trkpt lat="54.586396" lon="-3.255542"><ele>691</ele><time>2019-10-02T12:11:32Z</time><name>PT6707</name></trkpt>
<trkpt lat="54.586395" lon="-3.255545"><ele>691</ele><time>2019-10-02T12:11:33Z</time><name>PT6708</name></trkpt>
<trkpt lat="54.586394" lon="-3.255556"><ele>691</ele><time>2019-10-02T12:11:34Z</time><name>PT6709</name></trkpt>
<trkpt lat="54.586392" lon="-3.255569"><ele>691</ele><time>2019-10-02T12:11:35Z</time><name>PT6710</name></trkpt>
<trkpt lat="54.586386" lon="-3.255578"><ele>692</ele><time>2019-10-02T12:11:36Z</time><name>PT6711</name></trkpt>
<trkpt lat="54.586383" lon="-3.255588"><ele>692</ele><time>2019-10-02T12:11:37Z</time><name>PT6712</name></trkpt>
<trkpt lat="54.586382" lon="-3.255596"><ele>692</ele><time>2019-10-02T12:11:38Z</time><name>PT6713</name></trkpt>
<trkpt lat="54.586381" lon="-3.255601"><ele>692</ele><time>2019-10-02T12:11:39Z</time><name>PT6714</name></trkpt>
<trkpt lat="54.586382" lon="-3.255610"><ele>693</ele><time>2019-10-02T12:11:40Z</time><name>PT6715</name></trkpt>
<trkpt lat="54.586382" lon="-3.255620"><ele>693</ele><time>2019-10-02T12:11:44Z</time><name>PT6716</name></trkpt>
<trkpt lat="54.586381" lon="-3.255632"><ele>694</ele><time>2019-10-02T12:11:45Z</time><name>PT6717</name></trkpt>
<trkpt lat="54.586381" lon="-3.255638"><ele>694</ele><time>2019-10-02T12:11:46Z</time><name>PT6718</name></trkpt>
<trkpt lat="54.586378" lon="-3.255645"><ele>694</ele><time>2019-10-02T12:11:47Z</time><name>PT6719</name></trkpt>
<trkpt lat="54.586376" lon="-3.255653"><ele>694</ele><time>2019-10-02T12:11:48Z</time><name>PT6720</name></trkpt>
<trkpt lat="54.586378" lon="-3.255666"><ele>694</ele><time>2019-10-02T12:11:49Z</time><name>PT6721</name></trkpt>
<trkpt lat="54.586378" lon="-3.255683"><ele>694</ele><time>2019-10-02T12:11:50Z</time><name>PT6722</name></trkpt>
<trkpt lat="54.586379" lon="-3.255689"><ele>694</ele><time>2019-10-02T12:11:51Z</time><name>PT6723</name></trkpt>
<trkpt lat="54.586381" lon="-3.255694"><ele>694</ele><time>2019-10-02T12:11:52Z</time><name>PT6724</name></trkpt>
<trkpt lat="54.586377" lon="-3.255702"><ele>694</ele><time>2019-10-02T12:11:53Z</time><name>PT6725</name></trkpt>
<trkpt lat="54.586373" lon="-3.255711"><ele>694</ele><time>2019-10-02T12:11:54Z</time><name>PT6726</name></trkpt>
<trkpt lat="54.586372" lon="-3.255723"><ele>694</ele><time>2019-10-02T12:11:55Z</time><name>PT6727</name></trkpt>
<trkpt lat="54.586368" lon="-3.255740"><ele>694</ele><time>2019-10-02T12:11:56Z</time><name>PT6728</name></trkpt>
<trkpt lat="54.586366" lon="-3.255749"><ele>694</ele><time>2019-10-02T12:11:57Z</time><name>PT6729</name></trkpt>
<trkpt lat="54.586368" lon="-3.255758"><ele>694</ele><time>2019-10-02T12:11:58Z</time><name>PT6730</name></trkpt>
<trkpt lat="54.586369" lon="-3.255767"><ele>695</ele><time>2019-10-02T12:11:59Z</time><name>PT6731</name></trkpt>
<trkpt lat="54.586370" lon="-3.255778"><ele>695</ele><time>2019-10-02T12:12:00Z</time><name>PT6732</name></trkpt>
<trkpt lat="54.586369" lon="-3.255793"><ele>695</ele><time>2019-10-02T12:12:01Z</time><name>PT6733</name></trkpt>
<trkpt lat="54.586368" lon="-3.255805"><ele>695</ele><time>2019-10-02T12:12:02Z</time><name>PT6734</name></trkpt>
<trkpt lat="54.586368" lon="-3.255817"><ele>696</ele><time>2019-10-02T12:12:03Z</time><name>PT6735</name></trkpt>
<trkpt lat="54.586368" lon="-3.255828"><ele>696</ele><time>2019-10-02T12:12:04Z</time><name>PT6736</name></trkpt>
<trkpt lat="54.586368" lon="-3.255839"><ele>695</ele><time>2019-10-02T12:12:05Z</time><name>PT6737</name></trkpt>
<trkpt lat="54.586369" lon="-3.255850"><ele>696</ele><time>2019-10-02T12:12:06Z</time><name>PT6738</name></trkpt>
<trkpt lat="54.586369" lon="-3.255864"><ele>696</ele><time>2019-10-02T12:12:07Z</time><name>PT6739</name></trkpt>
<trkpt lat="54.586367" lon="-3.255876"><ele>696</ele><time>2019-10-02T12:12:08Z</time><name>PT6740</name></trkpt>
<trkpt lat="54.586366" lon="-3.255883"><ele>697</ele><time>2019-10-02T12:12:09Z</time><name>PT6741</name></trkpt>
<trkpt lat="54.586374" lon="-3.255886"><ele>696</ele><time>2019-10-02T12:12:10Z</time><name>PT6742</name></trkpt>
<trkpt lat="54.586378" lon="-3.255894"><ele>696</ele><time>2019-10-02T12:12:11Z</time><name>PT6743</name></trkpt>
<trkpt lat="54.586379" lon="-3.255906"><ele>696</ele><time>2019-10-02T12:12:12Z</time><name>PT6744</name></trkpt>
<trkpt lat="54.586377" lon="-3.255919"><ele>696</ele><time>2019-10-02T12:12:13Z</time><name>PT6745</name></trkpt>
<trkpt lat="54.586375" lon="-3.255930"><ele>696</ele><time>2019-10-02T12:12:14Z</time><name>PT6746</name></trkpt>
<trkpt lat="54.586375" lon="-3.255942"><ele>697</ele><time>2019-10-02T12:12:15Z</time><name>PT6747</name></trkpt>
<trkpt lat="54.586375" lon="-3.255951"><ele>697</ele><time>2019-10-02T12:12:16Z</time><name>PT6748</name></trkpt>
<trkpt lat="54.586375" lon="-3.255963"><ele>697</ele><time>2019-10-02T12:12:17Z</time><name>PT6749</name></trkpt>
<trkpt lat="54.586375" lon="-3.255976"><ele>697</ele><time>2019-10-02T12:12:18Z</time><name>PT6750</name></trkpt>
<trkpt lat="54.586377" lon="-3.255987"><ele>697</ele><time>2019-10-02T12:12:19Z</time><name>PT6751</name></trkpt>
<trkpt lat="54.586376" lon="-3.255999"><ele>697</ele><time>2019-10-02T12:12:20Z</time><name>PT6752</name></trkpt>
<trkpt lat="54.586374" lon="-3.256007"><ele>697</ele><time>2019-10-02T12:12:21Z</time><name>PT6753</name></trkpt>
<trkpt lat="54.586374" lon="-3.256018"><ele>697</ele><time>2019-10-02T12:12:22Z</time><name>PT6754</name></trkpt>
<trkpt lat="54.586372" lon="-3.256030"><ele>697</ele><time>2019-10-02T12:12:23Z</time><name>PT6755</name></trkpt>
<trkpt lat="54.586369" lon="-3.256048"><ele>697</ele><time>2019-10-02T12:12:24Z</time><name>PT6756</name></trkpt>
<trkpt lat="54.586369" lon="-3.256063"><ele>697</ele><time>2019-10-02T12:12:25Z</time><name>PT6757</name></trkpt>
<trkpt lat="54.586370" lon="-3.256077"><ele>698</ele><time>2019-10-02T12:12:26Z</time><name>PT6758</name></trkpt>
<trkpt lat="54.586371" lon="-3.256089"><ele>698</ele><time>2019-10-02T12:12:27Z</time><name>PT6759</name></trkpt>
<trkpt lat="54.586374" lon="-3.256099"><ele>698</ele><time>2019-10-02T12:12:28Z</time><name>PT6760</name></trkpt>
<trkpt lat="54.586376" lon="-3.256106"><ele>698</ele><time>2019-10-02T12:12:29Z</time><name>PT6761</name></trkpt>
<trkpt lat="54.586373" lon="-3.256113"><ele>698</ele><time>2019-10-02T12:12:30Z</time><name>PT6762</name></trkpt>
<trkpt lat="54.586372" lon="-3.256119"><ele>698</ele><time>2019-10-02T12:12:31Z</time><name>PT6763</name></trkpt>
<trkpt lat="54.586372" lon="-3.256128"><ele>698</ele><time>2019-10-02T12:12:32Z</time><name>PT6764</name></trkpt>
<trkpt lat="54.586373" lon="-3.256137"><ele>698</ele><time>2019-10-02T12:12:33Z</time><name>PT6765</name></trkpt>
<trkpt lat="54.586372" lon="-3.256147"><ele>698</ele><time>2019-10-02T12:12:34Z</time><name>PT6766</name></trkpt>
<trkpt lat="54.586372" lon="-3.256158"><ele>699</ele><time>2019-10-02T12:12:35Z</time><name>PT6767</name></trkpt>
<trkpt lat="54.586370" lon="-3.256170"><ele>699</ele><time>2019-10-02T12:12:36Z</time><name>PT6768</name></trkpt>
<trkpt lat="54.586366" lon="-3.256174"><ele>699</ele><time>2019-10-02T12:12:37Z</time><name>PT6769</name></trkpt>
<trkpt lat="54.586364" lon="-3.256178"><ele>699</ele><time>2019-10-02T12:12:38Z</time><name>PT6770</name></trkpt>
<trkpt lat="54.586361" lon="-3.256182"><ele>699</ele><time>2019-10-02T12:12:39Z</time><name>PT6771</name></trkpt>
<trkpt lat="54.586358" lon="-3.256189"><ele>700</ele><time>2019-10-02T12:12:40Z</time><name>PT6772</name></trkpt>
<trkpt lat="54.586357" lon="-3.256193"><ele>700</ele><time>2019-10-02T12:12:41Z</time><name>PT6773</name></trkpt>
<trkpt lat="54.586354" lon="-3.256196"><ele>700</ele><time>2019-10-02T12:12:42Z</time><name>PT6774</name></trkpt>
<trkpt lat="54.586351" lon="-3.256201"><ele>700</ele><time>2019-10-02T12:12:43Z</time><name>PT6775</name></trkpt>
<trkpt lat="54.586349" lon="-3.256205"><ele>700</ele><time>2019-10-02T12:12:44Z</time><name>PT6776</name></trkpt>
<trkpt lat="54.586350" lon="-3.256206"><ele>700</ele><time>2019-10-02T12:12:55Z</time><name>PT6777</name></trkpt>
<trkpt lat="54.586353" lon="-3.256222"><ele>701</ele><time>2019-10-02T12:12:56Z</time><name>PT6778</name></trkpt>
<trkpt lat="54.586357" lon="-3.256237"><ele>701</ele><time>2019-10-02T12:12:57Z</time><name>PT6779</name></trkpt>
<trkpt lat="54.586362" lon="-3.256256"><ele>702</ele><time>2019-10-02T12:12:58Z</time><name>PT6780</name></trkpt>
<trkpt lat="54.586368" lon="-3.256278"><ele>702</ele><time>2019-10-02T12:12:59Z</time><name>PT6781</name></trkpt>
<trkpt lat="54.586372" lon="-3.256296"><ele>702</ele><time>2019-10-02T12:13:00Z</time><name>PT6782</name></trkpt>
<trkpt lat="54.586375" lon="-3.256311"><ele>703</ele><time>2019-10-02T12:13:01Z</time><name>PT6783</name></trkpt>
<trkpt lat="54.586376" lon="-3.256324"><ele>704</ele><time>2019-10-02T12:13:02Z</time><name>PT6784</name></trkpt>
<trkpt lat="54.586379" lon="-3.256339"><ele>704</ele><time>2019-10-02T12:13:03Z</time><name>PT6785</name></trkpt>
<trkpt lat="54.586381" lon="-3.256351"><ele>704</ele><time>2019-10-02T12:13:04Z</time><name>PT6786</name></trkpt>
<trkpt lat="54.586381" lon="-3.256363"><ele>705</ele><time>2019-10-02T12:13:05Z</time><name>PT6787</name></trkpt>
<trkpt lat="54.586383" lon="-3.256373"><ele>705</ele><time>2019-10-02T12:13:06Z</time><name>PT6788</name></trkpt>
<trkpt lat="54.586379" lon="-3.256380"><ele>705</ele><time>2019-10-02T12:13:07Z</time><name>PT6789</name></trkpt>
<trkpt lat="54.586378" lon="-3.256389"><ele>705</ele><time>2019-10-02T12:13:08Z</time><name>PT6790</name></trkpt>
<trkpt lat="54.586378" lon="-3.256399"><ele>705</ele><time>2019-10-02T12:13:09Z</time><name>PT6791</name></trkpt>
<trkpt lat="54.586377" lon="-3.256411"><ele>706</ele><time>2019-10-02T12:13:10Z</time><name>PT6792</name></trkpt>
<trkpt lat="54.586374" lon="-3.256420"><ele>706</ele><time>2019-10-02T12:13:11Z</time><name>PT6793</name></trkpt>
<trkpt lat="54.586374" lon="-3.256432"><ele>706</ele><time>2019-10-02T12:13:12Z</time><name>PT6794</name></trkpt>
<trkpt lat="54.586381" lon="-3.256467"><ele>707</ele><time>2019-10-02T12:13:26Z</time><name>PT6795</name></trkpt>
<trkpt lat="54.586388" lon="-3.256489"><ele>707</ele><time>2019-10-02T12:13:27Z</time><name>PT6796</name></trkpt>
<trkpt lat="54.586393" lon="-3.256509"><ele>707</ele><time>2019-10-02T12:13:28Z</time><name>PT6797</name></trkpt>
<trkpt lat="54.586398" lon="-3.256531"><ele>707</ele><time>2019-10-02T12:13:29Z</time><name>PT6798</name></trkpt>
<trkpt lat="54.586400" lon="-3.256555"><ele>707</ele><time>2019-10-02T12:13:30Z</time><name>PT6799</name></trkpt>
<trkpt lat="54.586405" lon="-3.256574"><ele>707</ele><time>2019-10-02T12:13:31Z</time><name>PT6800</name></trkpt>
<trkpt lat="54.586411" lon="-3.256589"><ele>707</ele><time>2019-10-02T12:13:32Z</time><name>PT6801</name></trkpt>
<trkpt lat="54.586414" lon="-3.256609"><ele>708</ele><time>2019-10-02T12:13:33Z</time><name>PT6802</name></trkpt>
<trkpt lat="54.586416" lon="-3.256621"><ele>708</ele><time>2019-10-02T12:13:34Z</time><name>PT6803</name></trkpt>
<trkpt lat="54.586419" lon="-3.256635"><ele>708</ele><time>2019-10-02T12:13:35Z</time><name>PT6804</name></trkpt>
<trkpt lat="54.586421" lon="-3.256653"><ele>708</ele><time>2019-10-02T12:13:36Z</time><name>PT6805</name></trkpt>
<trkpt lat="54.586421" lon="-3.256667"><ele>708</ele><time>2019-10-02T12:13:37Z</time><name>PT6806</name></trkpt>
<trkpt lat="54.586425" lon="-3.256675"><ele>708</ele><time>2019-10-02T12:13:38Z</time><name>PT6807</name></trkpt>
<trkpt lat="54.586428" lon="-3.256685"><ele>708</ele><time>2019-10-02T12:13:39Z</time><name>PT6808</name></trkpt>
<trkpt lat="54.586432" lon="-3.256698"><ele>709</ele><time>2019-10-02T12:13:40Z</time><name>PT6809</name></trkpt>
<trkpt lat="54.586435" lon="-3.256711"><ele>709</ele><time>2019-10-02T12:13:41Z</time><name>PT6810</name></trkpt>
<trkpt lat="54.586438" lon="-3.256722"><ele>709</ele><time>2019-10-02T12:13:42Z</time><name>PT6811</name></trkpt>
<trkpt lat="54.586440" lon="-3.256733"><ele>709</ele><time>2019-10-02T12:13:43Z</time><name>PT6812</name></trkpt>
<trkpt lat="54.586442" lon="-3.256746"><ele>709</ele><time>2019-10-02T12:13:44Z</time><name>PT6813</name></trkpt>
<trkpt lat="54.586445" lon="-3.256764"><ele>709</ele><time>2019-10-02T12:13:45Z</time><name>PT6814</name></trkpt>
<trkpt lat="54.586447" lon="-3.256778"><ele>709</ele><time>2019-10-02T12:13:46Z</time><name>PT6815</name></trkpt>
<trkpt lat="54.586451" lon="-3.256792"><ele>709</ele><time>2019-10-02T12:13:47Z</time><name>PT6816</name></trkpt>
<trkpt lat="54.586454" lon="-3.256804"><ele>709</ele><time>2019-10-02T12:13:48Z</time><name>PT6817</name></trkpt>
<trkpt lat="54.586458" lon="-3.256819"><ele>710</ele><time>2019-10-02T12:13:49Z</time><name>PT6818</name></trkpt>
<trkpt lat="54.586463" lon="-3.256835"><ele>710</ele><time>2019-10-02T12:13:50Z</time><name>PT6819</name></trkpt>
<trkpt lat="54.586467" lon="-3.256849"><ele>710</ele><time>2019-10-02T12:13:51Z</time><name>PT6820</name></trkpt>
<trkpt lat="54.586471" lon="-3.256861"><ele>710</ele><time>2019-10-02T12:13:52Z</time><name>PT6821</name></trkpt>
<trkpt lat="54.586476" lon="-3.256875"><ele>711</ele><time>2019-10-02T12:13:53Z</time><name>PT6822</name></trkpt>
<trkpt lat="54.586481" lon="-3.256888"><ele>710</ele><time>2019-10-02T12:13:54Z</time><name>PT6823</name></trkpt>
<trkpt lat="54.586487" lon="-3.256903"><ele>711</ele><time>2019-10-02T12:13:55Z</time><name>PT6824</name></trkpt>
<trkpt lat="54.586493" lon="-3.256921"><ele>711</ele><time>2019-10-02T12:13:56Z</time><name>PT6825</name></trkpt>
<trkpt lat="54.586497" lon="-3.256939"><ele>711</ele><time>2019-10-02T12:13:57Z</time><name>PT6826</name></trkpt>
<trkpt lat="54.586503" lon="-3.256958"><ele>712</ele><time>2019-10-02T12:13:58Z</time><name>PT6827</name></trkpt>
<trkpt lat="54.586506" lon="-3.256976"><ele>712</ele><time>2019-10-02T12:13:59Z</time><name>PT6828</name></trkpt>
<trkpt lat="54.586510" lon="-3.256993"><ele>713</ele><time>2019-10-02T12:14:00Z</time><name>PT6829</name></trkpt>
<trkpt lat="54.586516" lon="-3.257011"><ele>713</ele><time>2019-10-02T12:14:01Z</time><name>PT6830</name></trkpt>
<trkpt lat="54.586518" lon="-3.257024"><ele>713</ele><time>2019-10-02T12:14:02Z</time><name>PT6831</name></trkpt>
<trkpt lat="54.586520" lon="-3.257039"><ele>713</ele><time>2019-10-02T12:14:03Z</time><name>PT6832</name></trkpt>
<trkpt lat="54.586522" lon="-3.257054"><ele>713</ele><time>2019-10-02T12:14:04Z</time><name>PT6833</name></trkpt>
<trkpt lat="54.586526" lon="-3.257069"><ele>713</ele><time>2019-10-02T12:14:05Z</time><name>PT6834</name></trkpt>
<trkpt lat="54.586530" lon="-3.257084"><ele>714</ele><time>2019-10-02T12:14:06Z</time><name>PT6835</name></trkpt>
<trkpt lat="54.586530" lon="-3.257094"><ele>713</ele><time>2019-10-02T12:14:07Z</time><name>PT6836</name></trkpt>
<trkpt lat="54.586533" lon="-3.257110"><ele>713</ele><time>2019-10-02T12:14:08Z</time><name>PT6837</name></trkpt>
<trkpt lat="54.586536" lon="-3.257127"><ele>713</ele><time>2019-10-02T12:14:09Z</time><name>PT6838</name></trkpt>
<trkpt lat="54.586537" lon="-3.257145"><ele>712</ele><time>2019-10-02T12:14:10Z</time><name>PT6839</name></trkpt>
<trkpt lat="54.586541" lon="-3.257159"><ele>713</ele><time>2019-10-02T12:14:11Z</time><name>PT6840</name></trkpt>
<trkpt lat="54.586544" lon="-3.257170"><ele>713</ele><time>2019-10-02T12:14:12Z</time><name>PT6841</name></trkpt>
<trkpt lat="54.586547" lon="-3.257184"><ele>713</ele><time>2019-10-02T12:14:13Z</time><name>PT6842</name></trkpt>
<trkpt lat="54.586550" lon="-3.257193"><ele>713</ele><time>2019-10-02T12:14:14Z</time><name>PT6843</name></trkpt>
<trkpt lat="54.586552" lon="-3.257204"><ele>713</ele><time>2019-10-02T12:14:15Z</time><name>PT6844</name></trkpt>
<trkpt lat="54.586556" lon="-3.257215"><ele>714</ele><time>2019-10-02T12:14:16Z</time><name>PT6845</name></trkpt>
<trkpt lat="54.586559" lon="-3.257226"><ele>714</ele><time>2019-10-02T12:14:17Z</time><name>PT6846</name></trkpt>
<trkpt lat="54.586562" lon="-3.257233"><ele>714</ele><time>2019-10-02T12:14:18Z</time><name>PT6847</name></trkpt>
<trkpt lat="54.586565" lon="-3.257243"><ele>714</ele><time>2019-10-02T12:14:19Z</time><name>PT6848</name></trkpt>
<trkpt lat="54.586566" lon="-3.257253"><ele>715</ele><time>2019-10-02T12:14:20Z</time><name>PT6849</name></trkpt>
<trkpt lat="54.586567" lon="-3.257263"><ele>715</ele><time>2019-10-02T12:14:21Z</time><name>PT6850</name></trkpt>
<trkpt lat="54.586572" lon="-3.257276"><ele>716</ele><time>2019-10-02T12:14:22Z</time><name>PT6851</name></trkpt>
<trkpt lat="54.586575" lon="-3.257288"><ele>716</ele><time>2019-10-02T12:14:23Z</time><name>PT6852</name></trkpt>
<trkpt lat="54.586577" lon="-3.257301"><ele>716</ele><time>2019-10-02T12:14:24Z</time><name>PT6853</name></trkpt>
<trkpt lat="54.586578" lon="-3.257317"><ele>717</ele><time>2019-10-02T12:14:25Z</time><name>PT6854</name></trkpt>
<trkpt lat="54.586579" lon="-3.257330"><ele>717</ele><time>2019-10-02T12:14:26Z</time><name>PT6855</name></trkpt>
<trkpt lat="54.586580" lon="-3.257345"><ele>717</ele><time>2019-10-02T12:14:27Z</time><name>PT6856</name></trkpt>
<trkpt lat="54.586582" lon="-3.257357"><ele>718</ele><time>2019-10-02T12:14:28Z</time><name>PT6857</name></trkpt>
<trkpt lat="54.586582" lon="-3.257370"><ele>718</ele><time>2019-10-02T12:14:29Z</time><name>PT6858</name></trkpt>
<trkpt lat="54.586584" lon="-3.257381"><ele>718</ele><time>2019-10-02T12:14:30Z</time><name>PT6859</name></trkpt>
<trkpt lat="54.586586" lon="-3.257393"><ele>718</ele><time>2019-10-02T12:14:31Z</time><name>PT6860</name></trkpt>
<trkpt lat="54.586589" lon="-3.257404"><ele>718</ele><time>2019-10-02T12:14:32Z</time><name>PT6861</name></trkpt>
<trkpt lat="54.586591" lon="-3.257417"><ele>718</ele><time>2019-10-02T12:14:33Z</time><name>PT6862</name></trkpt>
<trkpt lat="54.586594" lon="-3.257428"><ele>718</ele><time>2019-10-02T12:14:34Z</time><name>PT6863</name></trkpt>
<trkpt lat="54.586597" lon="-3.257437"><ele>718</ele><time>2019-10-02T12:14:35Z</time><name>PT6864</name></trkpt>
<trkpt lat="54.586600" lon="-3.257451"><ele>719</ele><time>2019-10-02T12:14:36Z</time><name>PT6865</name></trkpt>
<trkpt lat="54.586606" lon="-3.257465"><ele>719</ele><time>2019-10-02T12:14:37Z</time><name>PT6866</name></trkpt>
<trkpt lat="54.586611" lon="-3.257476"><ele>720</ele><time>2019-10-02T12:14:38Z</time><name>PT6867</name></trkpt>
<trkpt lat="54.586615" lon="-3.257486"><ele>720</ele><time>2019-10-02T12:14:39Z</time><name>PT6868</name></trkpt>
<trkpt lat="54.586618" lon="-3.257496"><ele>720</ele><time>2019-10-02T12:14:40Z</time><name>PT6869</name></trkpt>
<trkpt lat="54.586616" lon="-3.257507"><ele>720</ele><time>2019-10-02T12:14:41Z</time><name>PT6870</name></trkpt>
<trkpt lat="54.586616" lon="-3.257520"><ele>720</ele><time>2019-10-02T12:14:42Z</time><name>PT6871</name></trkpt>
<trkpt lat="54.586621" lon="-3.257534"><ele>720</ele><time>2019-10-02T12:14:43Z</time><name>PT6872</name></trkpt>
<trkpt lat="54.586623" lon="-3.257546"><ele>720</ele><time>2019-10-02T12:14:44Z</time><name>PT6873</name></trkpt>
<trkpt lat="54.586625" lon="-3.257556"><ele>720</ele><time>2019-10-02T12:14:45Z</time><name>PT6874</name></trkpt>
<trkpt lat="54.586625" lon="-3.257570"><ele>720</ele><time>2019-10-02T12:14:46Z</time><name>PT6875</name></trkpt>
<trkpt lat="54.586629" lon="-3.257580"><ele>720</ele><time>2019-10-02T12:14:47Z</time><name>PT6876</name></trkpt>
<trkpt lat="54.586633" lon="-3.257587"><ele>720</ele><time>2019-10-02T12:14:48Z</time><name>PT6877</name></trkpt>
<trkpt lat="54.586638" lon="-3.257593"><ele>720</ele><time>2019-10-02T12:14:49Z</time><name>PT6878</name></trkpt>
<trkpt lat="54.586640" lon="-3.257603"><ele>720</ele><time>2019-10-02T12:14:50Z</time><name>PT6879</name></trkpt>
<trkpt lat="54.586641" lon="-3.257611"><ele>720</ele><time>2019-10-02T12:14:51Z</time><name>PT6880</name></trkpt>
<trkpt lat="54.586645" lon="-3.257621"><ele>720</ele><time>2019-10-02T12:14:52Z</time><name>PT6881</name></trkpt>
<trkpt lat="54.586648" lon="-3.257632"><ele>721</ele><time>2019-10-02T12:14:53Z</time><name>PT6882</name></trkpt>
<trkpt lat="54.586652" lon="-3.257641"><ele>721</ele><time>2019-10-02T12:14:54Z</time><name>PT6883</name></trkpt>
<trkpt lat="54.586654" lon="-3.257647"><ele>721</ele><time>2019-10-02T12:14:55Z</time><name>PT6884</name></trkpt>
<trkpt lat="54.586656" lon="-3.257657"><ele>721</ele><time>2019-10-02T12:14:56Z</time><name>PT6885</name></trkpt>
<trkpt lat="54.586660" lon="-3.257664"><ele>721</ele><time>2019-10-02T12:14:57Z</time><name>PT6886</name></trkpt>
<trkpt lat="54.586662" lon="-3.257672"><ele>721</ele><time>2019-10-02T12:14:58Z</time><name>PT6887</name></trkpt>
<trkpt lat="54.586665" lon="-3.257684"><ele>721</ele><time>2019-10-02T12:14:59Z</time><name>PT6888</name></trkpt>
<trkpt lat="54.586671" lon="-3.257695"><ele>721</ele><time>2019-10-02T12:15:00Z</time><name>PT6889</name></trkpt>
<trkpt lat="54.586675" lon="-3.257707"><ele>721</ele><time>2019-10-02T12:15:01Z</time><name>PT6890</name></trkpt>
<trkpt lat="54.586679" lon="-3.257719"><ele>722</ele><time>2019-10-02T12:15:02Z</time><name>PT6891</name></trkpt>
<trkpt lat="54.586683" lon="-3.257729"><ele>722</ele><time>2019-10-02T12:15:03Z</time><name>PT6892</name></trkpt>
<trkpt lat="54.586688" lon="-3.257739"><ele>722</ele><time>2019-10-02T12:15:04Z</time><name>PT6893</name></trkpt>
<trkpt lat="54.586692" lon="-3.257751"><ele>722</ele><time>2019-10-02T12:15:05Z</time><name>PT6894</name></trkpt>
<trkpt lat="54.586696" lon="-3.257761"><ele>722</ele><time>2019-10-02T12:15:06Z</time><name>PT6895</name></trkpt>
<trkpt lat="54.586702" lon="-3.257775"><ele>722</ele><time>2019-10-02T12:15:07Z</time><name>PT6896</name></trkpt>
<trkpt lat="54.586707" lon="-3.257787"><ele>722</ele><time>2019-10-02T12:15:08Z</time><name>PT6897</name></trkpt>
<trkpt lat="54.586711" lon="-3.257798"><ele>722</ele><time>2019-10-02T12:15:09Z</time><name>PT6898</name></trkpt>
<trkpt lat="54.586715" lon="-3.257811"><ele>722</ele><time>2019-10-02T12:15:10Z</time><name>PT6899</name></trkpt>
<trkpt lat="54.586718" lon="-3.257821"><ele>723</ele><time>2019-10-02T12:15:11Z</time><name>PT6900</name></trkpt>
<trkpt lat="54.586718" lon="-3.257838"><ele>723</ele><time>2019-10-02T12:15:12Z</time><name>PT6901</name></trkpt>
<trkpt lat="54.586721" lon="-3.257850"><ele>723</ele><time>2019-10-02T12:15:13Z</time><name>PT6902</name></trkpt>
<trkpt lat="54.586722" lon="-3.257861"><ele>723</ele><time>2019-10-02T12:15:14Z</time><name>PT6903</name></trkpt>
<trkpt lat="54.586722" lon="-3.257870"><ele>723</ele><time>2019-10-02T12:15:15Z</time><name>PT6904</name></trkpt>
<trkpt lat="54.586722" lon="-3.257879"><ele>723</ele><time>2019-10-02T12:15:16Z</time><name>PT6905</name></trkpt>
<trkpt lat="54.586724" lon="-3.257890"><ele>723</ele><time>2019-10-02T12:15:17Z</time><name>PT6906</name></trkpt>
<trkpt lat="54.586724" lon="-3.257905"><ele>723</ele><time>2019-10-02T12:15:18Z</time><name>PT6907</name></trkpt>
<trkpt lat="54.586727" lon="-3.257913"><ele>723</ele><time>2019-10-02T12:15:19Z</time><name>PT6908</name></trkpt>
<trkpt lat="54.586729" lon="-3.257923"><ele>724</ele><time>2019-10-02T12:15:20Z</time><name>PT6909</name></trkpt>
<trkpt lat="54.586731" lon="-3.257933"><ele>724</ele><time>2019-10-02T12:15:21Z</time><name>PT6910</name></trkpt>
<trkpt lat="54.586735" lon="-3.257943"><ele>723</ele><time>2019-10-02T12:15:22Z</time><name>PT6911</name></trkpt>
<trkpt lat="54.586737" lon="-3.257954"><ele>723</ele><time>2019-10-02T12:15:23Z</time><name>PT6912</name></trkpt>
<trkpt lat="54.586740" lon="-3.257965"><ele>724</ele><time>2019-10-02T12:15:24Z</time><name>PT6913</name></trkpt>
<trkpt lat="54.586745" lon="-3.257976"><ele>724</ele><time>2019-10-02T12:15:25Z</time><name>PT6914</name></trkpt>
<trkpt lat="54.586747" lon="-3.257988"><ele>724</ele><time>2019-10-02T12:15:26Z</time><name>PT6915</name></trkpt>
<trkpt lat="54.586750" lon="-3.257995"><ele>724</ele><time>2019-10-02T12:15:27Z</time><name>PT6916</name></trkpt>
<trkpt lat="54.586756" lon="-3.258006"><ele>724</ele><time>2019-10-02T12:15:28Z</time><name>PT6917</name></trkpt>
<trkpt lat="54.586761" lon="-3.258017"><ele>725</ele><time>2019-10-02T12:15:29Z</time><name>PT6918</name></trkpt>
<trkpt lat="54.586765" lon="-3.258027"><ele>725</ele><time>2019-10-02T12:15:30Z</time><name>PT6919</name></trkpt>
<trkpt lat="54.586767" lon="-3.258037"><ele>725</ele><time>2019-10-02T12:15:31Z</time><name>PT6920</name></trkpt>
<trkpt lat="54.586768" lon="-3.258050"><ele>725</ele><time>2019-10-02T12:15:32Z</time><name>PT6921</name></trkpt>
<trkpt lat="54.586769" lon="-3.258055"><ele>725</ele><time>2019-10-02T12:15:33Z</time><name>PT6922</name></trkpt>
<trkpt lat="54.586771" lon="-3.258064"><ele>725</ele><time>2019-10-02T12:15:34Z</time><name>PT6923</name></trkpt>
<trkpt lat="54.586770" lon="-3.258072"><ele>725</ele><time>2019-10-02T12:15:35Z</time><name>PT6924</name></trkpt>
<trkpt lat="54.586770" lon="-3.258084"><ele>725</ele><time>2019-10-02T12:15:36Z</time><name>PT6925</name></trkpt>
<trkpt lat="54.586771" lon="-3.258096"><ele>725</ele><time>2019-10-02T12:15:37Z</time><name>PT6926</name></trkpt>
<trkpt lat="54.586774" lon="-3.258107"><ele>725</ele><time>2019-10-02T12:15:38Z</time><name>PT6927</name></trkpt>
<trkpt lat="54.586778" lon="-3.258118"><ele>725</ele><time>2019-10-02T12:15:39Z</time><name>PT6928</name></trkpt>
<trkpt lat="54.586785" lon="-3.258127"><ele>726</ele><time>2019-10-02T12:15:40Z</time><name>PT6929</name></trkpt>
<trkpt lat="54.586791" lon="-3.258138"><ele>726</ele><time>2019-10-02T12:15:41Z</time><name>PT6930</name></trkpt>
<trkpt lat="54.586793" lon="-3.258147"><ele>727</ele><time>2019-10-02T12:15:42Z</time><name>PT6931</name></trkpt>
<trkpt lat="54.586797" lon="-3.258159"><ele>727</ele><time>2019-10-02T12:15:43Z</time><name>PT6932</name></trkpt>
<trkpt lat="54.586798" lon="-3.258169"><ele>726</ele><time>2019-10-02T12:15:44Z</time><name>PT6933</name></trkpt>
<trkpt lat="54.586800" lon="-3.258183"><ele>727</ele><time>2019-10-02T12:15:45Z</time><name>PT6934</name></trkpt>
<trkpt lat="54.586803" lon="-3.258192"><ele>727</ele><time>2019-10-02T12:15:46Z</time><name>PT6935</name></trkpt>
<trkpt lat="54.586806" lon="-3.258202"><ele>726</ele><time>2019-10-02T12:15:47Z</time><name>PT6936</name></trkpt>
<trkpt lat="54.586809" lon="-3.258217"><ele>726</ele><time>2019-10-02T12:15:48Z</time><name>PT6937</name></trkpt>
<trkpt lat="54.586810" lon="-3.258233"><ele>726</ele><time>2019-10-02T12:15:49Z</time><name>PT6938</name></trkpt>
<trkpt lat="54.586813" lon="-3.258246"><ele>726</ele><time>2019-10-02T12:15:50Z</time><name>PT6939</name></trkpt>
<trkpt lat="54.586813" lon="-3.258258"><ele>726</ele><time>2019-10-02T12:15:51Z</time><name>PT6940</name></trkpt>
<trkpt lat="54.586817" lon="-3.258269"><ele>726</ele><time>2019-10-02T12:15:52Z</time><name>PT6941</name></trkpt>
<trkpt lat="54.586820" lon="-3.258281"><ele>726</ele><time>2019-10-02T12:15:53Z</time><name>PT6942</name></trkpt>
<trkpt lat="54.586823" lon="-3.258293"><ele>726</ele><time>2019-10-02T12:15:54Z</time><name>PT6943</name></trkpt>
<trkpt lat="54.586828" lon="-3.258310"><ele>726</ele><time>2019-10-02T12:15:55Z</time><name>PT6944</name></trkpt>
<trkpt lat="54.586833" lon="-3.258323"><ele>726</ele><time>2019-10-02T12:15:56Z</time><name>PT6945</name></trkpt>
<trkpt lat="54.586837" lon="-3.258334"><ele>726</ele><time>2019-10-02T12:15:57Z</time><name>PT6946</name></trkpt>
<trkpt lat="54.586843" lon="-3.258346"><ele>727</ele><time>2019-10-02T12:15:58Z</time><name>PT6947</name></trkpt>
<trkpt lat="54.586848" lon="-3.258359"><ele>727</ele><time>2019-10-02T12:15:59Z</time><name>PT6948</name></trkpt>
<trkpt lat="54.586851" lon="-3.258372"><ele>727</ele><time>2019-10-02T12:16:00Z</time><name>PT6949</name></trkpt>
<trkpt lat="54.586852" lon="-3.258384"><ele>728</ele><time>2019-10-02T12:16:01Z</time><name>PT6950</name></trkpt>
<trkpt lat="54.586856" lon="-3.258398"><ele>728</ele><time>2019-10-02T12:16:02Z</time><name>PT6951</name></trkpt>
<trkpt lat="54.586862" lon="-3.258412"><ele>728</ele><time>2019-10-02T12:16:03Z</time><name>PT6952</name></trkpt>
<trkpt lat="54.586863" lon="-3.258424"><ele>728</ele><time>2019-10-02T12:16:04Z</time><name>PT6953</name></trkpt>
<trkpt lat="54.586862" lon="-3.258437"><ele>728</ele><time>2019-10-02T12:16:05Z</time><name>PT6954</name></trkpt>
<trkpt lat="54.586863" lon="-3.258451"><ele>729</ele><time>2019-10-02T12:16:06Z</time><name>PT6955</name></trkpt>
<trkpt lat="54.586869" lon="-3.258469"><ele>730</ele><time>2019-10-02T12:16:07Z</time><name>PT6956</name></trkpt>
<trkpt lat="54.586876" lon="-3.258480"><ele>730</ele><time>2019-10-02T12:16:08Z</time><name>PT6957</name></trkpt>
<trkpt lat="54.586887" lon="-3.258495"><ele>730</ele><time>2019-10-02T12:16:09Z</time><name>PT6958</name></trkpt>
<trkpt lat="54.586895" lon="-3.258507"><ele>730</ele><time>2019-10-02T12:16:10Z</time><name>PT6959</name></trkpt>
<trkpt lat="54.586901" lon="-3.258522"><ele>730</ele><time>2019-10-02T12:16:11Z</time><name>PT6960</name></trkpt>
<trkpt lat="54.586905" lon="-3.258533"><ele>730</ele><time>2019-10-02T12:16:12Z</time><name>PT6961</name></trkpt>
<trkpt lat="54.586909" lon="-3.258545"><ele>731</ele><time>2019-10-02T12:16:13Z</time><name>PT6962</name></trkpt>
<trkpt lat="54.586915" lon="-3.258556"><ele>731</ele><time>2019-10-02T12:16:14Z</time><name>PT6963</name></trkpt>
<trkpt lat="54.586920" lon="-3.258569"><ele>730</ele><time>2019-10-02T12:16:15Z</time><name>PT6964</name></trkpt>
<trkpt lat="54.586926" lon="-3.258587"><ele>731</ele><time>2019-10-02T12:16:16Z</time><name>PT6965</name></trkpt>
<trkpt lat="54.586933" lon="-3.258596"><ele>730</ele><time>2019-10-02T12:16:17Z</time><name>PT6966</name></trkpt>
<trkpt lat="54.586939" lon="-3.258607"><ele>730</ele><time>2019-10-02T12:16:18Z</time><name>PT6967</name></trkpt>
<trkpt lat="54.586946" lon="-3.258619"><ele>730</ele><time>2019-10-02T12:16:19Z</time><name>PT6968</name></trkpt>
<trkpt lat="54.586950" lon="-3.258631"><ele>730</ele><time>2019-10-02T12:16:20Z</time><name>PT6969</name></trkpt>
<trkpt lat="54.586956" lon="-3.258645"><ele>730</ele><time>2019-10-02T12:16:21Z</time><name>PT6970</name></trkpt>
<trkpt lat="54.586963" lon="-3.258660"><ele>730</ele><time>2019-10-02T12:16:22Z</time><name>PT6971</name></trkpt>
<trkpt lat="54.586971" lon="-3.258674"><ele>730</ele><time>2019-10-02T12:16:23Z</time><name>PT6972</name></trkpt>
<trkpt lat="54.586977" lon="-3.258685"><ele>730</ele><time>2019-10-02T12:16:24Z</time><name>PT6973</name></trkpt>
<trkpt lat="54.586986" lon="-3.258699"><ele>731</ele><time>2019-10-02T12:16:25Z</time><name>PT6974</name></trkpt>
<trkpt lat="54.586994" lon="-3.258713"><ele>731</ele><time>2019-10-02T12:16:26Z</time><name>PT6975</name></trkpt>
<trkpt lat="54.587003" lon="-3.258730"><ele>731</ele><time>2019-10-02T12:16:27Z</time><name>PT6976</name></trkpt>
<trkpt lat="54.587012" lon="-3.258742"><ele>731</ele><time>2019-10-02T12:16:28Z</time><name>PT6977</name></trkpt>
<trkpt lat="54.587019" lon="-3.258756"><ele>731</ele><time>2019-10-02T12:16:29Z</time><name>PT6978</name></trkpt>
<trkpt lat="54.587023" lon="-3.258769"><ele>732</ele><time>2019-10-02T12:16:30Z</time><name>PT6979</name></trkpt>
<trkpt lat="54.587029" lon="-3.258784"><ele>732</ele><time>2019-10-02T12:16:31Z</time><name>PT6980</name></trkpt>
<trkpt lat="54.587035" lon="-3.258800"><ele>732</ele><time>2019-10-02T12:16:32Z</time><name>PT6981</name></trkpt>
<trkpt lat="54.587042" lon="-3.258814"><ele>732</ele><time>2019-10-02T12:16:33Z</time><name>PT6982</name></trkpt>
<trkpt lat="54.587050" lon="-3.258828"><ele>732</ele><time>2019-10-02T12:16:34Z</time><name>PT6983</name></trkpt>
<trkpt lat="54.587056" lon="-3.258841"><ele>732</ele><time>2019-10-02T12:16:35Z</time><name>PT6984</name></trkpt>
<trkpt lat="54.587063" lon="-3.258856"><ele>732</ele><time>2019-10-02T12:16:36Z</time><name>PT6985</name></trkpt>
<trkpt lat="54.587070" lon="-3.258871"><ele>732</ele><time>2019-10-02T12:16:37Z</time><name>PT6986</name></trkpt>
<trkpt lat="54.587076" lon="-3.258886"><ele>732</ele><time>2019-10-02T12:16:38Z</time><name>PT6987</name></trkpt>
<trkpt lat="54.587082" lon="-3.258901"><ele>732</ele><time>2019-10-02T12:16:39Z</time><name>PT6988</name></trkpt>
<trkpt lat="54.587087" lon="-3.258917"><ele>732</ele><time>2019-10-02T12:16:40Z</time><name>PT6989</name></trkpt>
<trkpt lat="54.587093" lon="-3.258931"><ele>732</ele><time>2019-10-02T12:16:41Z</time><name>PT6990</name></trkpt>
<trkpt lat="54.587099" lon="-3.258947"><ele>732</ele><time>2019-10-02T12:16:42Z</time><name>PT6991</name></trkpt>
<trkpt lat="54.587106" lon="-3.258962"><ele>732</ele><time>2019-10-02T12:16:43Z</time><name>PT6992</name></trkpt>
<trkpt lat="54.587113" lon="-3.258974"><ele>732</ele><time>2019-10-02T12:16:44Z</time><name>PT6993</name></trkpt>
<trkpt lat="54.587119" lon="-3.258987"><ele>732</ele><time>2019-10-02T12:16:45Z</time><name>PT6994</name></trkpt>
<trkpt lat="54.587123" lon="-3.259003"><ele>732</ele><time>2019-10-02T12:16:46Z</time><name>PT6995</name></trkpt>
<trkpt lat="54.587131" lon="-3.259019"><ele>732</ele><time>2019-10-02T12:16:47Z</time><name>PT6996</name></trkpt>
<trkpt lat="54.587137" lon="-3.259034"><ele>732</ele><time>2019-10-02T12:16:48Z</time><name>PT6997</name></trkpt>
<trkpt lat="54.587144" lon="-3.259049"><ele>733</ele><time>2019-10-02T12:16:49Z</time><name>PT6998</name></trkpt>
<trkpt lat="54.587150" lon="-3.259065"><ele>732</ele><time>2019-10-02T12:16:50Z</time><name>PT6999</name></trkpt>
<trkpt lat="54.587155" lon="-3.259080"><ele>733</ele><time>2019-10-02T12:16:51Z</time><name>PT7000</name></trkpt>
<trkpt lat="54.587161" lon="-3.259094"><ele>733</ele><time>2019-10-02T12:16:52Z</time><name>PT7001</name></trkpt>
<trkpt lat="54.587165" lon="-3.259104"><ele>732</ele><time>2019-10-02T12:16:53Z</time><name>PT7002</name></trkpt>
<trkpt lat="54.587169" lon="-3.259117"><ele>732</ele><time>2019-10-02T12:16:54Z</time><name>PT7003</name></trkpt>
<trkpt lat="54.587174" lon="-3.259131"><ele>732</ele><time>2019-10-02T12:16:55Z</time><name>PT7004</name></trkpt>
<trkpt lat="54.587179" lon="-3.259145"><ele>732</ele><time>2019-10-02T12:16:56Z</time><name>PT7005</name></trkpt>
<trkpt lat="54.587186" lon="-3.259158"><ele>732</ele><time>2019-10-02T12:16:57Z</time><name>PT7006</name></trkpt>
<trkpt lat="54.587190" lon="-3.259173"><ele>732</ele><time>2019-10-02T12:16:58Z</time><name>PT7007</name></trkpt>
<trkpt lat="54.587196" lon="-3.259187"><ele>732</ele><time>2019-10-02T12:16:59Z</time><name>PT7008</name></trkpt>
<trkpt lat="54.587201" lon="-3.259199"><ele>732</ele><time>2019-10-02T12:17:00Z</time><name>PT7009</name></trkpt>
<trkpt lat="54.587206" lon="-3.259216"><ele>733</ele><time>2019-10-02T12:17:01Z</time><name>PT7010</name></trkpt>
<trkpt lat="54.587213" lon="-3.259231"><ele>733</ele><time>2019-10-02T12:17:02Z</time><name>PT7011</name></trkpt>
<trkpt lat="54.587219" lon="-3.259248"><ele>733</ele><time>2019-10-02T12:17:03Z</time><name>PT7012</name></trkpt>
<trkpt lat="54.587225" lon="-3.259262"><ele>734</ele><time>2019-10-02T12:17:04Z</time><name>PT7013</name></trkpt>
<trkpt lat="54.587230" lon="-3.259276"><ele>734</ele><time>2019-10-02T12:17:05Z</time><name>PT7014</name></trkpt>
<trkpt lat="54.587236" lon="-3.259289"><ele>735</ele><time>2019-10-02T12:17:06Z</time><name>PT7015</name></trkpt>
<trkpt lat="54.587241" lon="-3.259300"><ele>735</ele><time>2019-10-02T12:17:07Z</time><name>PT7016</name></trkpt>
<trkpt lat="54.587246" lon="-3.259312"><ele>735</ele><time>2019-10-02T12:17:08Z</time><name>PT7017</name></trkpt>
<trkpt lat="54.587250" lon="-3.259325"><ele>736</ele><time>2019-10-02T12:17:09Z</time><name>PT7018</name></trkpt>
<trkpt lat="54.587257" lon="-3.259332"><ele>736</ele><time>2019-10-02T12:17:10Z</time><name>PT7019</name></trkpt>
<trkpt lat="54.587263" lon="-3.259343"><ele>736</ele><time>2019-10-02T12:17:11Z</time><name>PT7020</name></trkpt>
<trkpt lat="54.587269" lon="-3.259357"><ele>736</ele><time>2019-10-02T12:17:12Z</time><name>PT7021</name></trkpt>
<trkpt lat="54.587272" lon="-3.259369"><ele>737</ele><time>2019-10-02T12:17:13Z</time><name>PT7022</name></trkpt>
<trkpt lat="54.587277" lon="-3.259381"><ele>737</ele><time>2019-10-02T12:17:14Z</time><name>PT7023</name></trkpt>
<trkpt lat="54.587282" lon="-3.259390"><ele>737</ele><time>2019-10-02T12:17:15Z</time><name>PT7024</name></trkpt>
<trkpt lat="54.587291" lon="-3.259401"><ele>737</ele><time>2019-10-02T12:17:16Z</time><name>PT7025</name></trkpt>
<trkpt lat="54.587298" lon="-3.259409"><ele>738</ele><time>2019-10-02T12:17:17Z</time><name>PT7026</name></trkpt>
<trkpt lat="54.587307" lon="-3.259419"><ele>738</ele><time>2019-10-02T12:17:18Z</time><name>PT7027</name></trkpt>
<trkpt lat="54.587315" lon="-3.259428"><ele>738</ele><time>2019-10-02T12:17:19Z</time><name>PT7028</name></trkpt>
<trkpt lat="54.587322" lon="-3.259436"><ele>738</ele><time>2019-10-02T12:17:20Z</time><name>PT7029</name></trkpt>
<trkpt lat="54.587331" lon="-3.259445"><ele>738</ele><time>2019-10-02T12:17:21Z</time><name>PT7030</name></trkpt>
<trkpt lat="54.587340" lon="-3.259451"><ele>738</ele><time>2019-10-02T12:17:22Z</time><name>PT7031</name></trkpt>
<trkpt lat="54.587349" lon="-3.259456"><ele>738</ele><time>2019-10-02T12:17:23Z</time><name>PT7032</name></trkpt>
<trkpt lat="54.587357" lon="-3.259463"><ele>739</ele><time>2019-10-02T12:17:24Z</time><name>PT7033</name></trkpt>
<trkpt lat="54.587366" lon="-3.259472"><ele>739</ele><time>2019-10-02T12:17:25Z</time><name>PT7034</name></trkpt>
<trkpt lat="54.587376" lon="-3.259479"><ele>739</ele><time>2019-10-02T12:17:26Z</time><name>PT7035</name></trkpt>
<trkpt lat="54.587384" lon="-3.259485"><ele>739</ele><time>2019-10-02T12:17:27Z</time><name>PT7036</name></trkpt>
<trkpt lat="54.587390" lon="-3.259491"><ele>739</ele><time>2019-10-02T12:17:28Z</time><name>PT7037</name></trkpt>
<trkpt lat="54.587394" lon="-3.259495"><ele>739</ele><time>2019-10-02T12:17:29Z</time><name>PT7038</name></trkpt>
<trkpt lat="54.587402" lon="-3.259502"><ele>739</ele><time>2019-10-02T12:17:30Z</time><name>PT7039</name></trkpt>
<trkpt lat="54.587408" lon="-3.259512"><ele>739</ele><time>2019-10-02T12:17:31Z</time><name>PT7040</name></trkpt>
<trkpt lat="54.587415" lon="-3.259517"><ele>739</ele><time>2019-10-02T12:17:32Z</time><name>PT7041</name></trkpt>
<trkpt lat="54.587420" lon="-3.259522"><ele>739</ele><time>2019-10-02T12:17:33Z</time><name>PT7042</name></trkpt>
<trkpt lat="54.587426" lon="-3.259527"><ele>739</ele><time>2019-10-02T12:17:34Z</time><name>PT7043</name></trkpt>
<trkpt lat="54.587431" lon="-3.259533"><ele>739</ele><time>2019-10-02T12:17:35Z</time><name>PT7044</name></trkpt>
<trkpt lat="54.587436" lon="-3.259540"><ele>740</ele><time>2019-10-02T12:17:36Z</time><name>PT7045</name></trkpt>
<trkpt lat="54.587440" lon="-3.259545"><ele>740</ele><time>2019-10-02T12:17:37Z</time><name>PT7046</name></trkpt>
<trkpt lat="54.587445" lon="-3.259551"><ele>739</ele><time>2019-10-02T12:17:38Z</time><name>PT7047</name></trkpt>
<trkpt lat="54.587450" lon="-3.259557"><ele>740</ele><time>2019-10-02T12:17:39Z</time><name>PT7048</name></trkpt>
<trkpt lat="54.587457" lon="-3.259562"><ele>740</ele><time>2019-10-02T12:17:40Z</time><name>PT7049</name></trkpt>
<trkpt lat="54.587461" lon="-3.259568"><ele>740</ele><time>2019-10-02T12:17:41Z</time><name>PT7050</name></trkpt>
<trkpt lat="54.587466" lon="-3.259574"><ele>740</ele><time>2019-10-02T12:17:42Z</time><name>PT7051</name></trkpt>
<trkpt lat="54.587470" lon="-3.259580"><ele>740</ele><time>2019-10-02T12:17:43Z</time><name>PT7052</name></trkpt>
<trkpt lat="54.587476" lon="-3.259588"><ele>740</ele><time>2019-10-02T12:17:44Z</time><name>PT7053</name></trkpt>
<trkpt lat="54.587480" lon="-3.259599"><ele>741</ele><time>2019-10-02T12:17:45Z</time><name>PT7054</name></trkpt>
<trkpt lat="54.587484" lon="-3.259610"><ele>740</ele><time>2019-10-02T12:17:46Z</time><name>PT7055</name></trkpt>
<trkpt lat="54.587489" lon="-3.259621"><ele>741</ele><time>2019-10-02T12:17:47Z</time><name>PT7056</name></trkpt>
<trkpt lat="54.587493" lon="-3.259628"><ele>741</ele><time>2019-10-02T12:17:48Z</time><name>PT7057</name></trkpt>
<trkpt lat="54.587497" lon="-3.259638"><ele>741</ele><time>2019-10-02T12:17:49Z</time><name>PT7058</name></trkpt>
<trkpt lat="54.587499" lon="-3.259646"><ele>740</ele><time>2019-10-02T12:17:50Z</time><name>PT7059</name></trkpt>
<trkpt lat="54.587502" lon="-3.259655"><ele>740</ele><time>2019-10-02T12:17:51Z</time><name>PT7060</name></trkpt>
<trkpt lat="54.587504" lon="-3.259664"><ele>740</ele><time>2019-10-02T12:17:52Z</time><name>PT7061</name></trkpt>
<trkpt lat="54.587506" lon="-3.259675"><ele>741</ele><time>2019-10-02T12:17:53Z</time><name>PT7062</name></trkpt>
<trkpt lat="54.587510" lon="-3.259684"><ele>741</ele><time>2019-10-02T12:17:54Z</time><name>PT7063</name></trkpt>
<trkpt lat="54.587518" lon="-3.259696"><ele>742</ele><time>2019-10-02T12:17:55Z</time><name>PT7064</name></trkpt>
<trkpt lat="54.587523" lon="-3.259705"><ele>742</ele><time>2019-10-02T12:17:56Z</time><name>PT7065</name></trkpt>
<trkpt lat="54.587528" lon="-3.259714"><ele>742</ele><time>2019-10-02T12:17:57Z</time><name>PT7066</name></trkpt>
<trkpt lat="54.587533" lon="-3.259721"><ele>742</ele><time>2019-10-02T12:17:58Z</time><name>PT7067</name></trkpt>
<trkpt lat="54.587537" lon="-3.259724"><ele>742</ele><time>2019-10-02T12:17:59Z</time><name>PT7068</name></trkpt>
<trkpt lat="54.587542" lon="-3.259734"><ele>742</ele><time>2019-10-02T12:18:00Z</time><name>PT7069</name></trkpt>
<trkpt lat="54.587549" lon="-3.259742"><ele>743</ele><time>2019-10-02T12:18:01Z</time><name>PT7070</name></trkpt>
<trkpt lat="54.587552" lon="-3.259750"><ele>743</ele><time>2019-10-02T12:18:02Z</time><name>PT7071</name></trkpt>
<trkpt lat="54.587558" lon="-3.259757"><ele>743</ele><time>2019-10-02T12:18:03Z</time><name>PT7072</name></trkpt>
<trkpt lat="54.587562" lon="-3.259765"><ele>743</ele><time>2019-10-02T12:18:04Z</time><name>PT7073</name></trkpt>
<trkpt lat="54.587567" lon="-3.259771"><ele>744</ele><time>2019-10-02T12:18:05Z</time><name>PT7074</name></trkpt>
<trkpt lat="54.587572" lon="-3.259778"><ele>744</ele><time>2019-10-02T12:18:06Z</time><name>PT7075</name></trkpt>
<trkpt lat="54.587577" lon="-3.259783"><ele>744</ele><time>2019-10-02T12:18:07Z</time><name>PT7076</name></trkpt>
<trkpt lat="54.587583" lon="-3.259789"><ele>744</ele><time>2019-10-02T12:18:08Z</time><name>PT7077</name></trkpt>
<trkpt lat="54.587588" lon="-3.259797"><ele>745</ele><time>2019-10-02T12:18:09Z</time><name>PT7078</name></trkpt>
<trkpt lat="54.587590" lon="-3.259806"><ele>745</ele><time>2019-10-02T12:18:10Z</time><name>PT7079</name></trkpt>
<trkpt lat="54.587593" lon="-3.259813"><ele>745</ele><time>2019-10-02T12:18:11Z</time><name>PT7080</name></trkpt>
<trkpt lat="54.587594" lon="-3.259822"><ele>745</ele><time>2019-10-02T12:18:12Z</time><name>PT7081</name></trkpt>
<trkpt lat="54.587594" lon="-3.259829"><ele>745</ele><time>2019-10-02T12:18:13Z</time><name>PT7082</name></trkpt>
<trkpt lat="54.587594" lon="-3.259838"><ele>744</ele><time>2019-10-02T12:18:14Z</time><name>PT7083</name></trkpt>
<trkpt lat="54.587595" lon="-3.259845"><ele>745</ele><time>2019-10-02T12:18:15Z</time><name>PT7084</name></trkpt>
<trkpt lat="54.587595" lon="-3.259853"><ele>745</ele><time>2019-10-02T12:18:16Z</time><name>PT7085</name></trkpt>
<trkpt lat="54.587590" lon="-3.259861"><ele>745</ele><time>2019-10-02T12:18:17Z</time><name>PT7086</name></trkpt>
<trkpt lat="54.587587" lon="-3.259869"><ele>745</ele><time>2019-10-02T12:18:18Z</time><name>PT7087</name></trkpt>
<trkpt lat="54.587583" lon="-3.259873"><ele>745</ele><time>2019-10-02T12:18:19Z</time><name>PT7088</name></trkpt>
<trkpt lat="54.587580" lon="-3.259881"><ele>745</ele><time>2019-10-02T12:18:20Z</time><name>PT7089</name></trkpt>
<trkpt lat="54.587576" lon="-3.259885"><ele>745</ele><time>2019-10-02T12:18:21Z</time><name>PT7090</name></trkpt>
<trkpt lat="54.587572" lon="-3.259893"><ele>745</ele><time>2019-10-02T12:18:22Z</time><name>PT7091</name></trkpt>
<trkpt lat="54.587567" lon="-3.259900"><ele>746</ele><time>2019-10-02T12:18:23Z</time><name>PT7092</name></trkpt>
<trkpt lat="54.587564" lon="-3.259907"><ele>746</ele><time>2019-10-02T12:18:24Z</time><name>PT7093</name></trkpt>
<trkpt lat="54.587560" lon="-3.259917"><ele>746</ele><time>2019-10-02T12:18:25Z</time><name>PT7094</name></trkpt>
<trkpt lat="54.587556" lon="-3.259927"><ele>746</ele><time>2019-10-02T12:18:26Z</time><name>PT7095</name></trkpt>
<trkpt lat="54.587554" lon="-3.259939"><ele>746</ele><time>2019-10-02T12:18:27Z</time><name>PT7096</name></trkpt>
<trkpt lat="54.587551" lon="-3.259948"><ele>746</ele><time>2019-10-02T12:18:28Z</time><name>PT7097</name></trkpt>
<trkpt lat="54.587548" lon="-3.259956"><ele>746</ele><time>2019-10-02T12:18:29Z</time><name>PT7098</name></trkpt>
<trkpt lat="54.587545" lon="-3.259969"><ele>747</ele><time>2019-10-02T12:18:30Z</time><name>PT7099</name></trkpt>
<trkpt lat="54.587543" lon="-3.259979"><ele>747</ele><time>2019-10-02T12:18:31Z</time><name>PT7100</name></trkpt>
<trkpt lat="54.587542" lon="-3.259988"><ele>747</ele><time>2019-10-02T12:18:32Z</time><name>PT7101</name></trkpt>
<trkpt lat="54.587542" lon="-3.259998"><ele>748</ele><time>2019-10-02T12:18:33Z</time><name>PT7102</name></trkpt>
<trkpt lat="54.587541" lon="-3.260003"><ele>748</ele><time>2019-10-02T12:18:34Z</time><name>PT7103</name></trkpt>
<trkpt lat="54.587539" lon="-3.260010"><ele>748</ele><time>2019-10-02T12:18:35Z</time><name>PT7104</name></trkpt>
<trkpt lat="54.587537" lon="-3.260019"><ele>748</ele><time>2019-10-02T12:18:36Z</time><name>PT7105</name></trkpt>
<trkpt lat="54.587535" lon="-3.260027"><ele>749</ele><time>2019-10-02T12:18:37Z</time><name>PT7106</name></trkpt>
<trkpt lat="54.587533" lon="-3.260034"><ele>749</ele><time>2019-10-02T12:18:38Z</time><name>PT7107</name></trkpt>
<trkpt lat="54.587534" lon="-3.260045"><ele>749</ele><time>2019-10-02T12:18:39Z</time><name>PT7108</name></trkpt>
<trkpt lat="54.587532" lon="-3.260057"><ele>749</ele><time>2019-10-02T12:18:40Z</time><name>PT7109</name></trkpt>
<trkpt lat="54.587532" lon="-3.260068"><ele>749</ele><time>2019-10-02T12:18:41Z</time><name>PT7110</name></trkpt>
<trkpt lat="54.587532" lon="-3.260079"><ele>749</ele><time>2019-10-02T12:18:42Z</time><name>PT7111</name></trkpt>
<trkpt lat="54.587532" lon="-3.260088"><ele>749</ele><time>2019-10-02T12:18:43Z</time><name>PT7112</name></trkpt>
<trkpt lat="54.587533" lon="-3.260096"><ele>749</ele><time>2019-10-02T12:18:44Z</time><name>PT7113</name></trkpt>
<trkpt lat="54.587531" lon="-3.260105"><ele>750</ele><time>2019-10-02T12:18:45Z</time><name>PT7114</name></trkpt>
<trkpt lat="54.587529" lon="-3.260112"><ele>750</ele><time>2019-10-02T12:18:46Z</time><name>PT7115</name></trkpt>
<trkpt lat="54.587529" lon="-3.260119"><ele>750</ele><time>2019-10-02T12:18:47Z</time><name>PT7116</name></trkpt>
<trkpt lat="54.587530" lon="-3.260129"><ele>750</ele><time>2019-10-02T12:18:48Z</time><name>PT7117</name></trkpt>
<trkpt lat="54.587531" lon="-3.260136"><ele>750</ele><time>2019-10-02T12:18:49Z</time><name>PT7118</name></trkpt>
<trkpt lat="54.587532" lon="-3.260142"><ele>751</ele><time>2019-10-02T12:18:50Z</time><name>PT7119</name></trkpt>
<trkpt lat="54.587533" lon="-3.260149"><ele>751</ele><time>2019-10-02T12:18:51Z</time><name>PT7120</name></trkpt>
<trkpt lat="54.587535" lon="-3.260157"><ele>751</ele><time>2019-10-02T12:18:59Z</time><name>PT7121</name></trkpt>
<trkpt lat="54.587539" lon="-3.260175"><ele>751</ele><time>2019-10-02T12:19:00Z</time><name>PT7122</name></trkpt>
<trkpt lat="54.587541" lon="-3.260191"><ele>751</ele><time>2019-10-02T12:19:02Z</time><name>PT7123</name></trkpt>
<trkpt lat="54.587541" lon="-3.260211"><ele>751</ele><time>2019-10-02T12:19:03Z</time><name>PT7124</name></trkpt>
<trkpt lat="54.587538" lon="-3.260220"><ele>752</ele><time>2019-10-02T12:19:04Z</time><name>PT7125</name></trkpt>
<trkpt lat="54.587540" lon="-3.260231"><ele>752</ele><time>2019-10-02T12:19:05Z</time><name>PT7126</name></trkpt>
<trkpt lat="54.587541" lon="-3.260242"><ele>752</ele><time>2019-10-02T12:19:06Z</time><name>PT7127</name></trkpt>
<trkpt lat="54.587541" lon="-3.260256"><ele>752</ele><time>2019-10-02T12:19:07Z</time><name>PT7128</name></trkpt>
<trkpt lat="54.587543" lon="-3.260269"><ele>753</ele><time>2019-10-02T12:19:08Z</time><name>PT7129</name></trkpt>
<trkpt lat="54.587543" lon="-3.260288"><ele>753</ele><time>2019-10-02T12:19:09Z</time><name>PT7130</name></trkpt>
<trkpt lat="54.587544" lon="-3.260298"><ele>753</ele><time>2019-10-02T12:19:10Z</time><name>PT7131</name></trkpt>
<trkpt lat="54.587543" lon="-3.260307"><ele>753</ele><time>2019-10-02T12:19:11Z</time><name>PT7132</name></trkpt>
<trkpt lat="54.587545" lon="-3.260318"><ele>753</ele><time>2019-10-02T12:19:12Z</time><name>PT7133</name></trkpt>
<trkpt lat="54.587547" lon="-3.260319"><ele>754</ele><time>2019-10-02T12:19:15Z</time><name>PT7134</name></trkpt>
<trkpt lat="54.587546" lon="-3.260331"><ele>754</ele><time>2019-10-02T12:19:16Z</time><name>PT7135</name></trkpt>
<trkpt lat="54.587547" lon="-3.260344"><ele>754</ele><time>2019-10-02T12:19:17Z</time><name>PT7136</name></trkpt>
<trkpt lat="54.587548" lon="-3.260357"><ele>754</ele><time>2019-10-02T12:19:18Z</time><name>PT7137</name></trkpt>
<trkpt lat="54.587549" lon="-3.260366"><ele>754</ele><time>2019-10-02T12:19:19Z</time><name>PT7138</name></trkpt>
<trkpt lat="54.587553" lon="-3.260380"><ele>754</ele><time>2019-10-02T12:19:20Z</time><name>PT7139</name></trkpt>
<trkpt lat="54.587555" lon="-3.260393"><ele>755</ele><time>2019-10-02T12:19:21Z</time><name>PT7140</name></trkpt>
<trkpt lat="54.587555" lon="-3.260404"><ele>755</ele><time>2019-10-02T12:19:22Z</time><name>PT7141</name></trkpt>
<trkpt lat="54.587554" lon="-3.260415"><ele>755</ele><time>2019-10-02T12:19:23Z</time><name>PT7142</name></trkpt>
<trkpt lat="54.587555" lon="-3.260423"><ele>756</ele><time>2019-10-02T12:19:24Z</time><name>PT7143</name></trkpt>
<trkpt lat="54.587556" lon="-3.260432"><ele>756</ele><time>2019-10-02T12:19:25Z</time><name>PT7144</name></trkpt>
<trkpt lat="54.587557" lon="-3.260443"><ele>756</ele><time>2019-10-02T12:19:26Z</time><name>PT7145</name></trkpt>
<trkpt lat="54.587558" lon="-3.260457"><ele>757</ele><time>2019-10-02T12:19:27Z</time><name>PT7146</name></trkpt>
<trkpt lat="54.587558" lon="-3.260471"><ele>756</ele><time>2019-10-02T12:19:28Z</time><name>PT7147</name></trkpt>
<trkpt lat="54.587559" lon="-3.260484"><ele>757</ele><time>2019-10-02T12:19:29Z</time><name>PT7148</name></trkpt>
<trkpt lat="54.587560" lon="-3.260495"><ele>756</ele><time>2019-10-02T12:19:30Z</time><name>PT7149</name></trkpt>
<trkpt lat="54.587562" lon="-3.260506"><ele>757</ele><time>2019-10-02T12:19:31Z</time><name>PT7150</name></trkpt>
<trkpt lat="54.587564" lon="-3.260516"><ele>757</ele><time>2019-10-02T12:19:32Z</time><name>PT7151</name></trkpt>
<trkpt lat="54.587566" lon="-3.260530"><ele>757</ele><time>2019-10-02T12:19:33Z</time><name>PT7152</name></trkpt>
<trkpt lat="54.587567" lon="-3.260542"><ele>757</ele><time>2019-10-02T12:19:34Z</time><name>PT7153</name></trkpt>
<trkpt lat="54.587570" lon="-3.260554"><ele>757</ele><time>2019-10-02T12:19:35Z</time><name>PT7154</name></trkpt>
<trkpt lat="54.587573" lon="-3.260569"><ele>757</ele><time>2019-10-02T12:19:36Z</time><name>PT7155</name></trkpt>
<trkpt lat="54.587579" lon="-3.260580"><ele>757</ele><time>2019-10-02T12:19:37Z</time><name>PT7156</name></trkpt>
<trkpt lat="54.587583" lon="-3.260594"><ele>758</ele><time>2019-10-02T12:19:38Z</time><name>PT7157</name></trkpt>
<trkpt lat="54.587585" lon="-3.260611"><ele>758</ele><time>2019-10-02T12:19:39Z</time><name>PT7158</name></trkpt>
<trkpt lat="54.587589" lon="-3.260622"><ele>758</ele><time>2019-10-02T12:19:40Z</time><name>PT7159</name></trkpt>
<trkpt lat="54.587593" lon="-3.260639"><ele>759</ele><time>2019-10-02T12:19:41Z</time><name>PT7160</name></trkpt>
<trkpt lat="54.587598" lon="-3.260648"><ele>759</ele><time>2019-10-02T12:19:42Z</time><name>PT7161</name></trkpt>
<trkpt lat="54.587601" lon="-3.260659"><ele>759</ele><time>2019-10-02T12:19:43Z</time><name>PT7162</name></trkpt>
<trkpt lat="54.587604" lon="-3.260671"><ele>760</ele><time>2019-10-02T12:19:44Z</time><name>PT7163</name></trkpt>
<trkpt lat="54.587605" lon="-3.260681"><ele>760</ele><time>2019-10-02T12:19:45Z</time><name>PT7164</name></trkpt>
<trkpt lat="54.587607" lon="-3.260691"><ele>760</ele><time>2019-10-02T12:19:46Z</time><name>PT7165</name></trkpt>
<trkpt lat="54.587611" lon="-3.260702"><ele>760</ele><time>2019-10-02T12:19:47Z</time><name>PT7166</name></trkpt>
<trkpt lat="54.587613" lon="-3.260714"><ele>760</ele><time>2019-10-02T12:19:48Z</time><name>PT7167</name></trkpt>
<trkpt lat="54.587615" lon="-3.260726"><ele>760</ele><time>2019-10-02T12:19:49Z</time><name>PT7168</name></trkpt>
<trkpt lat="54.587619" lon="-3.260740"><ele>760</ele><time>2019-10-02T12:19:50Z</time><name>PT7169</name></trkpt>
<trkpt lat="54.587621" lon="-3.260753"><ele>761</ele><time>2019-10-02T12:19:51Z</time><name>PT7170</name></trkpt>
<trkpt lat="54.587624" lon="-3.260769"><ele>761</ele><time>2019-10-02T12:19:52Z</time><name>PT7171</name></trkpt>
<trkpt lat="54.587627" lon="-3.260787"><ele>761</ele><time>2019-10-02T12:19:53Z</time><name>PT7172</name></trkpt>
<trkpt lat="54.587631" lon="-3.260802"><ele>761</ele><time>2019-10-02T12:19:54Z</time><name>PT7173</name></trkpt>
<trkpt lat="54.587632" lon="-3.260819"><ele>762</ele><time>2019-10-02T12:19:55Z</time><name>PT7174</name></trkpt>
<trkpt lat="54.587634" lon="-3.260833"><ele>762</ele><time>2019-10-02T12:19:56Z</time><name>PT7175</name></trkpt>
<trkpt lat="54.587639" lon="-3.260850"><ele>762</ele><time>2019-10-02T12:19:57Z</time><name>PT7176</name></trkpt>
<trkpt lat="54.587641" lon="-3.260866"><ele>762</ele><time>2019-10-02T12:19:58Z</time><name>PT7177</name></trkpt>
<trkpt lat="54.587643" lon="-3.260884"><ele>762</ele><time>2019-10-02T12:19:59Z</time><name>PT7178</name></trkpt>
<trkpt lat="54.587646" lon="-3.260902"><ele>762</ele><time>2019-10-02T12:20:00Z</time><name>PT7179</name></trkpt>
<trkpt lat="54.587648" lon="-3.260918"><ele>762</ele><time>2019-10-02T12:20:01Z</time><name>PT7180</name></trkpt>
<trkpt lat="54.587647" lon="-3.260932"><ele>762</ele><time>2019-10-02T12:20:02Z</time><name>PT7181</name></trkpt>
<trkpt lat="54.587650" lon="-3.260948"><ele>761</ele><time>2019-10-02T12:20:03Z</time><name>PT7182</name></trkpt>
<trkpt lat="54.587649" lon="-3.260965"><ele>761</ele><time>2019-10-02T12:20:04Z</time><name>PT7183</name></trkpt>
<trkpt lat="54.587650" lon="-3.260982"><ele>762</ele><time>2019-10-02T12:20:05Z</time><name>PT7184</name></trkpt>
<trkpt lat="54.587650" lon="-3.260999"><ele>762</ele><time>2019-10-02T12:20:06Z</time><name>PT7185</name></trkpt>
<trkpt lat="54.587652" lon="-3.261014"><ele>762</ele><time>2019-10-02T12:20:07Z</time><name>PT7186</name></trkpt>
<trkpt lat="54.587654" lon="-3.261031"><ele>762</ele><time>2019-10-02T12:20:08Z</time><name>PT7187</name></trkpt>
<trkpt lat="54.587656" lon="-3.261047"><ele>762</ele><time>2019-10-02T12:20:09Z</time><name>PT7188</name></trkpt>
<trkpt lat="54.587658" lon="-3.261064"><ele>762</ele><time>2019-10-02T12:20:10Z</time><name>PT7189</name></trkpt>
<trkpt lat="54.587660" lon="-3.261081"><ele>762</ele><time>2019-10-02T12:20:11Z</time><name>PT7190</name></trkpt>
<trkpt lat="54.587664" lon="-3.261100"><ele>762</ele><time>2019-10-02T12:20:12Z</time><name>PT7191</name></trkpt>
<trkpt lat="54.587671" lon="-3.261122"><ele>762</ele><time>2019-10-02T12:20:13Z</time><name>PT7192</name></trkpt>
<trkpt lat="54.587676" lon="-3.261136"><ele>762</ele><time>2019-10-02T12:20:14Z</time><name>PT7193</name></trkpt>
<trkpt lat="54.587684" lon="-3.261152"><ele>763</ele><time>2019-10-02T12:20:15Z</time><name>PT7194</name></trkpt>
<trkpt lat="54.587691" lon="-3.261170"><ele>763</ele><time>2019-10-02T12:20:16Z</time><name>PT7195</name></trkpt>
<trkpt lat="54.587700" lon="-3.261188"><ele>763</ele><time>2019-10-02T12:20:17Z</time><name>PT7196</name></trkpt>
<trkpt lat="54.587706" lon="-3.261202"><ele>763</ele><time>2019-10-02T12:20:18Z</time><name>PT7197</name></trkpt>
<trkpt lat="54.587713" lon="-3.261213"><ele>763</ele><time>2019-10-02T12:20:19Z</time><name>PT7198</name></trkpt>
<trkpt lat="54.587721" lon="-3.261223"><ele>764</ele><time>2019-10-02T12:20:20Z</time><name>PT7199</name></trkpt>
<trkpt lat="54.587730" lon="-3.261236"><ele>764</ele><time>2019-10-02T12:20:21Z</time><name>PT7200</name></trkpt>
<trkpt lat="54.587738" lon="-3.261246"><ele>765</ele><time>2019-10-02T12:20:22Z</time><name>PT7201</name></trkpt>
<trkpt lat="54.587742" lon="-3.261255"><ele>765</ele><time>2019-10-02T12:20:23Z</time><name>PT7202</name></trkpt>
<trkpt lat="54.587747" lon="-3.261267"><ele>765</ele><time>2019-10-02T12:20:24Z</time><name>PT7203</name></trkpt>
<trkpt lat="54.587752" lon="-3.261278"><ele>765</ele><time>2019-10-02T12:20:25Z</time><name>PT7204</name></trkpt>
<trkpt lat="54.587760" lon="-3.261287"><ele>765</ele><time>2019-10-02T12:20:26Z</time><name>PT7205</name></trkpt>
<trkpt lat="54.587766" lon="-3.261294"><ele>765</ele><time>2019-10-02T12:20:27Z</time><name>PT7206</name></trkpt>
<trkpt lat="54.587773" lon="-3.261303"><ele>765</ele><time>2019-10-02T12:20:28Z</time><name>PT7207</name></trkpt>
<trkpt lat="54.587781" lon="-3.261311"><ele>765</ele><time>2019-10-02T12:20:29Z</time><name>PT7208</name></trkpt>
<trkpt lat="54.587788" lon="-3.261320"><ele>765</ele><time>2019-10-02T12:20:30Z</time><name>PT7209</name></trkpt>
<trkpt lat="54.587794" lon="-3.261329"><ele>765</ele><time>2019-10-02T12:20:31Z</time><name>PT7210</name></trkpt>
<trkpt lat="54.587799" lon="-3.261338"><ele>766</ele><time>2019-10-02T12:20:32Z</time><name>PT7211</name></trkpt>
<trkpt lat="54.587806" lon="-3.261347"><ele>766</ele><time>2019-10-02T12:20:33Z</time><name>PT7212</name></trkpt>
<trkpt lat="54.587813" lon="-3.261356"><ele>766</ele><time>2019-10-02T12:20:34Z</time><name>PT7213</name></trkpt>
<trkpt lat="54.587819" lon="-3.261366"><ele>766</ele><time>2019-10-02T12:20:35Z</time><name>PT7214</name></trkpt>
<trkpt lat="54.587823" lon="-3.261376"><ele>766</ele><time>2019-10-02T12:20:36Z</time><name>PT7215</name></trkpt>
<trkpt lat="54.587829" lon="-3.261387"><ele>766</ele><time>2019-10-02T12:20:37Z</time><name>PT7216</name></trkpt>
<trkpt lat="54.587835" lon="-3.261393"><ele>766</ele><time>2019-10-02T12:20:38Z</time><name>PT7217</name></trkpt>
<trkpt lat="54.587842" lon="-3.261397"><ele>766</ele><time>2019-10-02T12:20:39Z</time><name>PT7218</name></trkpt>
<trkpt lat="54.587848" lon="-3.261406"><ele>767</ele><time>2019-10-02T12:20:40Z</time><name>PT7219</name></trkpt>
<trkpt lat="54.587855" lon="-3.261411"><ele>767</ele><time>2019-10-02T12:20:41Z</time><name>PT7220</name></trkpt>
<trkpt lat="54.587862" lon="-3.261416"><ele>767</ele><time>2019-10-02T12:20:42Z</time><name>PT7221</name></trkpt>
<trkpt lat="54.587869" lon="-3.261425"><ele>767</ele><time>2019-10-02T12:20:43Z</time><name>PT7222</name></trkpt>
<trkpt lat="54.587876" lon="-3.261431"><ele>767</ele><time>2019-10-02T12:20:44Z</time><name>PT7223</name></trkpt>
<trkpt lat="54.587882" lon="-3.261436"><ele>768</ele><time>2019-10-02T12:20:45Z</time><name>PT7224</name></trkpt>
<trkpt lat="54.587889" lon="-3.261443"><ele>767</ele><time>2019-10-02T12:20:46Z</time><name>PT7225</name></trkpt>
<trkpt lat="54.587895" lon="-3.261453"><ele>767</ele><time>2019-10-02T12:20:47Z</time><name>PT7226</name></trkpt>
<trkpt lat="54.587900" lon="-3.261461"><ele>767</ele><time>2019-10-02T12:20:48Z</time><name>PT7227</name></trkpt>
<trkpt lat="54.587906" lon="-3.261471"><ele>768</ele><time>2019-10-02T12:20:49Z</time><name>PT7228</name></trkpt>
<trkpt lat="54.587911" lon="-3.261478"><ele>768</ele><time>2019-10-02T12:20:50Z</time><name>PT7229</name></trkpt>
<trkpt lat="54.587916" lon="-3.261485"><ele>768</ele><time>2019-10-02T12:20:51Z</time><name>PT7230</name></trkpt>
<trkpt lat="54.587922" lon="-3.261493"><ele>768</ele><time>2019-10-02T12:20:52Z</time><name>PT7231</name></trkpt>
<trkpt lat="54.587930" lon="-3.261501"><ele>768</ele><time>2019-10-02T12:20:53Z</time><name>PT7232</name></trkpt>
<trkpt lat="54.587938" lon="-3.261512"><ele>768</ele><time>2019-10-02T12:20:54Z</time><name>PT7233</name></trkpt>
<trkpt lat="54.587942" lon="-3.261522"><ele>769</ele><time>2019-10-02T12:20:55Z</time><name>PT7234</name></trkpt>
<trkpt lat="54.587947" lon="-3.261529"><ele>769</ele><time>2019-10-02T12:20:56Z</time><name>PT7235</name></trkpt>
<trkpt lat="54.587952" lon="-3.261535"><ele>769</ele><time>2019-10-02T12:20:57Z</time><name>PT7236</name></trkpt>
<trkpt lat="54.587960" lon="-3.261541"><ele>769</ele><time>2019-10-02T12:20:58Z</time><name>PT7237</name></trkpt>
<trkpt lat="54.587967" lon="-3.261550"><ele>769</ele><time>2019-10-02T12:20:59Z</time><name>PT7238</name></trkpt>
<trkpt lat="54.587974" lon="-3.261560"><ele>770</ele><time>2019-10-02T12:21:00Z</time><name>PT7239</name></trkpt>
<trkpt lat="54.587979" lon="-3.261571"><ele>770</ele><time>2019-10-02T12:21:01Z</time><name>PT7240</name></trkpt>
<trkpt lat="54.587984" lon="-3.261579"><ele>770</ele><time>2019-10-02T12:21:02Z</time><name>PT7241</name></trkpt>
<trkpt lat="54.587990" lon="-3.261583"><ele>770</ele><time>2019-10-02T12:21:03Z</time><name>PT7242</name></trkpt>
<trkpt lat="54.587994" lon="-3.261590"><ele>770</ele><time>2019-10-02T12:21:04Z</time><name>PT7243</name></trkpt>
<trkpt lat="54.588001" lon="-3.261598"><ele>770</ele><time>2019-10-02T12:21:05Z</time><name>PT7244</name></trkpt>
<trkpt lat="54.588007" lon="-3.261606"><ele>770</ele><time>2019-10-02T12:21:06Z</time><name>PT7245</name></trkpt>
<trkpt lat="54.588012" lon="-3.261615"><ele>770</ele><time>2019-10-02T12:21:07Z</time><name>PT7246</name></trkpt>
<trkpt lat="54.588016" lon="-3.261625"><ele>770</ele><time>2019-10-02T12:21:08Z</time><name>PT7247</name></trkpt>
<trkpt lat="54.588024" lon="-3.261630"><ele>770</ele><time>2019-10-02T12:21:09Z</time><name>PT7248</name></trkpt>
<trkpt lat="54.588029" lon="-3.261636"><ele>771</ele><time>2019-10-02T12:21:10Z</time><name>PT7249</name></trkpt>
<trkpt lat="54.588030" lon="-3.261638"><ele>771</ele><time>2019-10-02T12:21:11Z</time><name>PT7250</name></trkpt>
<trkpt lat="54.588032" lon="-3.261640"><ele>771</ele><time>2019-10-02T12:21:12Z</time><name>PT7251</name></trkpt>
<trkpt lat="54.588033" lon="-3.261640"><ele>771</ele><time>2019-10-02T12:21:13Z</time><name>PT7252</name></trkpt>
<trkpt lat="54.588035" lon="-3.261637"><ele>771</ele><time>2019-10-02T12:21:15Z</time><name>PT7253</name></trkpt>
<trkpt lat="54.588040" lon="-3.261632"><ele>771</ele><time>2019-10-02T12:21:16Z</time><name>PT7254</name></trkpt>
<trkpt lat="54.588043" lon="-3.261626"><ele>771</ele><time>2019-10-02T12:21:17Z</time><name>PT7255</name></trkpt>
<trkpt lat="54.588048" lon="-3.261618"><ele>771</ele><time>2019-10-02T12:21:18Z</time><name>PT7256</name></trkpt>
<trkpt lat="54.588054" lon="-3.261616"><ele>771</ele><time>2019-10-02T12:21:19Z</time><name>PT7257</name></trkpt>
<trkpt lat="54.588055" lon="-3.261614"><ele>771</ele><time>2019-10-02T12:21:20Z</time><name>PT7258</name></trkpt>
<trkpt lat="54.588059" lon="-3.261619"><ele>771</ele><time>2019-10-02T12:21:21Z</time><name>PT7259</name></trkpt>
<trkpt lat="54.588062" lon="-3.261630"><ele>771</ele><time>2019-10-02T12:21:22Z</time><name>PT7260</name></trkpt>
<trkpt lat="54.588063" lon="-3.261641"><ele>771</ele><time>2019-10-02T12:21:23Z</time><name>PT7261</name></trkpt>
<trkpt lat="54.588067" lon="-3.261647"><ele>771</ele><time>2019-10-02T12:21:24Z</time><name>PT7262</name></trkpt>
<trkpt lat="54.588068" lon="-3.261654"><ele>771</ele><time>2019-10-02T12:21:25Z</time><name>PT7263</name></trkpt>
<trkpt lat="54.588068" lon="-3.261662"><ele>771</ele><time>2019-10-02T12:21:26Z</time><name>PT7264</name></trkpt>
<trkpt lat="54.588069" lon="-3.261671"><ele>771</ele><time>2019-10-02T12:21:27Z</time><name>PT7265</name></trkpt>
<trkpt lat="54.588069" lon="-3.261678"><ele>771</ele><time>2019-10-02T12:21:28Z</time><name>PT7266</name></trkpt>
<trkpt lat="54.588068" lon="-3.261680"><ele>772</ele><time>2019-10-02T12:21:29Z</time><name>PT7267</name></trkpt>
<trkpt lat="54.588069" lon="-3.261680"><ele>771</ele><time>2019-10-02T12:21:30Z</time><name>PT7268</name></trkpt>
<trkpt lat="54.588070" lon="-3.261684"><ele>772</ele><time>2019-10-02T12:21:57Z</time><name>PT7269</name></trkpt>
<trkpt lat="54.588071" lon="-3.261686"><ele>772</ele><time>2019-10-02T12:21:58Z</time><name>PT7270</name></trkpt>
<trkpt lat="54.588072" lon="-3.261682"><ele>772</ele><time>2019-10-02T12:21:59Z</time><name>PT7271</name></trkpt>
<trkpt lat="54.588072" lon="-3.261686"><ele>772</ele><time>2019-10-02T12:22:04Z</time><name>PT7272</name></trkpt>
<trkpt lat="54.588072" lon="-3.261687"><ele>772</ele><time>2019-10-02T12:22:05Z</time><name>PT7273</name></trkpt>
<trkpt lat="54.588069" lon="-3.261686"><ele>772</ele><time>2019-10-02T12:22:06Z</time><name>PT7274</name></trkpt>
<trkpt lat="54.588067" lon="-3.261690"><ele>772</ele><time>2019-10-02T12:22:07Z</time><name>PT7275</name></trkpt>
<trkpt lat="54.588068" lon="-3.261690"><ele>772</ele><time>2019-10-02T12:22:08Z</time><name>PT7276</name></trkpt>
<trkpt lat="54.588066" lon="-3.261683"><ele>772</ele><time>2019-10-02T12:22:09Z</time><name>PT7277</name></trkpt>
<trkpt lat="54.588068" lon="-3.261684"><ele>772</ele><time>2019-10-02T12:22:10Z</time><name>PT7278</name></trkpt>
<trkpt lat="54.588068" lon="-3.261681"><ele>772</ele><time>2019-10-02T12:22:11Z</time><name>PT7279</name></trkpt>
<trkpt lat="54.588071" lon="-3.261690"><ele>772</ele><time>2019-10-02T12:22:12Z</time><name>PT7280</name></trkpt>
<trkpt lat="54.588071" lon="-3.261692"><ele>772</ele><time>2019-10-02T12:22:13Z</time><name>PT7281</name></trkpt>
<trkpt lat="54.588070" lon="-3.261699"><ele>772</ele><time>2019-10-02T12:22:14Z</time><name>PT7282</name></trkpt>
<trkpt lat="54.588069" lon="-3.261708"><ele>772</ele><time>2019-10-02T12:22:15Z</time><name>PT7283</name></trkpt>
<trkpt lat="54.588063" lon="-3.261702"><ele>771</ele><time>2019-10-02T12:22:16Z</time><name>PT7284</name></trkpt>
<trkpt lat="54.588068" lon="-3.261699"><ele>771</ele><time>2019-10-02T12:22:17Z</time><name>PT7285</name></trkpt>
<trkpt lat="54.588071" lon="-3.261704"><ele>771</ele><time>2019-10-02T12:22:18Z</time><name>PT7286</name></trkpt>
<trkpt lat="54.588076" lon="-3.261700"><ele>771</ele><time>2019-10-02T12:22:19Z</time><name>PT7287</name></trkpt>
<trkpt lat="54.588079" lon="-3.261699"><ele>771</ele><time>2019-10-02T12:22:20Z</time><name>PT7288</name></trkpt>
<trkpt lat="54.588081" lon="-3.261697"><ele>771</ele><time>2019-10-02T12:23:12Z</time><name>PT7289</name></trkpt>
<trkpt lat="54.588081" lon="-3.261697"><ele>771</ele><time>2019-10-02T12:23:13Z</time><name>PT7290</name></trkpt>
<trkpt lat="54.588082" lon="-3.261696"><ele>771</ele><time>2019-10-02T12:23:14Z</time><name>PT7291</name></trkpt>
<trkpt lat="54.588086" lon="-3.261693"><ele>771</ele><time>2019-10-02T12:24:07Z</time><name>PT7292</name></trkpt>
<trkpt lat="54.588088" lon="-3.261695"><ele>771</ele><time>2019-10-02T12:24:08Z</time><name>PT7293</name></trkpt>
<trkpt lat="54.588089" lon="-3.261696"><ele>771</ele><time>2019-10-02T12:24:09Z</time><name>PT7294</name></trkpt>
<trkpt lat="54.588090" lon="-3.261696"><ele>771</ele><time>2019-10-02T12:24:34Z</time><name>PT7295</name></trkpt>
<trkpt lat="54.588092" lon="-3.261694"><ele>771</ele><time>2019-10-02T12:24:35Z</time><name>PT7296</name></trkpt>
<trkpt lat="54.588090" lon="-3.261694"><ele>771</ele><time>2019-10-02T12:24:36Z</time><name>PT7297</name></trkpt>
<trkpt lat="54.588089" lon="-3.261693"><ele>771</ele><time>2019-10-02T12:24:37Z</time><name>PT7298</name></trkpt>
<trkpt lat="54.588089" lon="-3.261693"><ele>771</ele><time>2019-10-02T12:24:38Z</time><name>PT7299</name></trkpt>
<trkpt lat="54.588088" lon="-3.261693"><ele>771</ele><time>2019-10-02T12:25:33Z</time><name>PT7300</name></trkpt>
<trkpt lat="54.588084" lon="-3.261691"><ele>771</ele><time>2019-10-02T12:25:34Z</time><name>PT7301</name></trkpt>
<trkpt lat="54.588082" lon="-3.261690"><ele>771</ele><time>2019-10-02T12:25:35Z</time><name>PT7302</name></trkpt>
<trkpt lat="54.588082" lon="-3.261691"><ele>771</ele><time>2019-10-02T12:25:36Z</time><name>PT7303</name></trkpt>
<trkpt lat="54.588082" lon="-3.261689"><ele>772</ele><time>2019-10-02T12:25:37Z</time><name>PT7304</name></trkpt>
<trkpt lat="54.588082" lon="-3.261687"><ele>771</ele><time>2019-10-02T12:25:38Z</time><name>PT7305</name></trkpt>
<trkpt lat="54.588073" lon="-3.261684"><ele>773</ele><time>2019-10-02T12:26:52Z</time><name>PT7306</name></trkpt>
<trkpt lat="54.588068" lon="-3.261679"><ele>772</ele><time>2019-10-02T12:26:53Z</time><name>PT7307</name></trkpt>
<trkpt lat="54.588063" lon="-3.261668"><ele>772</ele><time>2019-10-02T12:26:54Z</time><name>PT7308</name></trkpt>
<trkpt lat="54.588066" lon="-3.261667"><ele>772</ele><time>2019-10-02T12:26:55Z</time><name>PT7309</name></trkpt>
<trkpt lat="54.588065" lon="-3.261666"><ele>773</ele><time>2019-10-02T12:26:56Z</time><name>PT7310</name></trkpt>
<trkpt lat="54.588066" lon="-3.261665"><ele>772</ele><time>2019-10-02T12:26:57Z</time><name>PT7311</name></trkpt>
<trkpt lat="54.588064" lon="-3.261667"><ele>773</ele><time>2019-10-02T12:26:58Z</time><name>PT7312</name></trkpt>
<trkpt lat="54.588066" lon="-3.261666"><ele>772</ele><time>2019-10-02T12:26:59Z</time><name>PT7313</name></trkpt>
<trkpt lat="54.588065" lon="-3.261666"><ele>772</ele><time>2019-10-02T12:27:00Z</time><name>PT7314</name></trkpt>
<trkpt lat="54.588067" lon="-3.261666"><ele>772</ele><time>2019-10-02T12:27:01Z</time><name>PT7315</name></trkpt>
<trkpt lat="54.588067" lon="-3.261662"><ele>773</ele><time>2019-10-02T12:27:02Z</time><name>PT7316</name></trkpt>
<trkpt lat="54.588069" lon="-3.261658"><ele>773</ele><time>2019-10-02T12:27:03Z</time><name>PT7317</name></trkpt>
<trkpt lat="54.588072" lon="-3.261663"><ele>773</ele><time>2019-10-02T12:27:04Z</time><name>PT7318</name></trkpt>
<trkpt lat="54.588077" lon="-3.261663"><ele>773</ele><time>2019-10-02T12:27:05Z</time><name>PT7319</name></trkpt>
<trkpt lat="54.588080" lon="-3.261667"><ele>773</ele><time>2019-10-02T12:27:06Z</time><name>PT7320</name></trkpt>
<trkpt lat="54.588083" lon="-3.261669"><ele>774</ele><time>2019-10-02T12:27:07Z</time><name>PT7321</name></trkpt>
<trkpt lat="54.588084" lon="-3.261667"><ele>774</ele><time>2019-10-02T12:27:08Z</time><name>PT7322</name></trkpt>
<trkpt lat="54.588083" lon="-3.261667"><ele>774</ele><time>2019-10-02T12:27:09Z</time><name>PT7323</name></trkpt>
<trkpt lat="54.588079" lon="-3.261667"><ele>774</ele><time>2019-10-02T12:27:17Z</time><name>PT7324</name></trkpt>
<trkpt lat="54.588080" lon="-3.261667"><ele>774</ele><time>2019-10-02T12:27:18Z</time><name>PT7325</name></trkpt>
<trkpt lat="54.588080" lon="-3.261666"><ele>774</ele><time>2019-10-02T12:27:19Z</time><name>PT7326</name></trkpt>
<trkpt lat="54.588079" lon="-3.261659"><ele>773</ele><time>2019-10-02T12:27:26Z</time><name>PT7327</name></trkpt>
<trkpt lat="54.588077" lon="-3.261657"><ele>773</ele><time>2019-10-02T12:27:27Z</time><name>PT7328</name></trkpt>
<trkpt lat="54.588075" lon="-3.261656"><ele>773</ele><time>2019-10-02T12:27:28Z</time><name>PT7329</name></trkpt>
<trkpt lat="54.588074" lon="-3.261657"><ele>773</ele><time>2019-10-02T12:27:48Z</time><name>PT7330</name></trkpt>
<trkpt lat="54.588074" lon="-3.261656"><ele>773</ele><time>2019-10-02T12:27:49Z</time><name>PT7331</name></trkpt>
<trkpt lat="54.588076" lon="-3.261653"><ele>773</ele><time>2019-10-02T12:28:08Z</time><name>PT7332</name></trkpt>
<trkpt lat="54.588075" lon="-3.261654"><ele>773</ele><time>2019-10-02T12:28:09Z</time><name>PT7333</name></trkpt>
<trkpt lat="54.588075" lon="-3.261657"><ele>773</ele><time>2019-10-02T12:28:10Z</time><name>PT7334</name></trkpt>
<trkpt lat="54.588075" lon="-3.261660"><ele>773</ele><time>2019-10-02T12:28:11Z</time><name>PT7335</name></trkpt>
<trkpt lat="54.588073" lon="-3.261665"><ele>773</ele><time>2019-10-02T12:28:12Z</time><name>PT7336</name></trkpt>
<trkpt lat="54.588076" lon="-3.261670"><ele>774</ele><time>2019-10-02T12:28:13Z</time><name>PT7337</name></trkpt>
<trkpt lat="54.588069" lon="-3.261674"><ele>774</ele><time>2019-10-02T12:28:28Z</time><name>PT7338</name></trkpt>
<trkpt lat="54.588064" lon="-3.261669"><ele>774</ele><time>2019-10-02T12:28:29Z</time><name>PT7339</name></trkpt>
<trkpt lat="54.588061" lon="-3.261671"><ele>774</ele><time>2019-10-02T12:28:30Z</time><name>PT7340</name></trkpt>
<trkpt lat="54.588057" lon="-3.261670"><ele>774</ele><time>2019-10-02T12:28:31Z</time><name>PT7341</name></trkpt>
<trkpt lat="54.588053" lon="-3.261668"><ele>774</ele><time>2019-10-02T12:28:32Z</time><name>PT7342</name></trkpt>
<trkpt lat="54.588051" lon="-3.261662"><ele>773</ele><time>2019-10-02T12:28:33Z</time><name>PT7343</name></trkpt>
<trkpt lat="54.588055" lon="-3.261655"><ele>773</ele><time>2019-10-02T12:28:34Z</time><name>PT7344</name></trkpt>
<trkpt lat="54.588051" lon="-3.261647"><ele>772</ele><time>2019-10-02T12:28:35Z</time><name>PT7345</name></trkpt>
<trkpt lat="54.588050" lon="-3.261636"><ele>771</ele><time>2019-10-02T12:28:36Z</time><name>PT7346</name></trkpt>
<trkpt lat="54.588047" lon="-3.261633"><ele>771</ele><time>2019-10-02T12:28:37Z</time><name>PT7347</name></trkpt>
<trkpt lat="54.588050" lon="-3.261626"><ele>771</ele><time>2019-10-02T12:28:38Z</time><name>PT7348</name></trkpt>
<trkpt lat="54.588050" lon="-3.261618"><ele>770</ele><time>2019-10-02T12:28:39Z</time><name>PT7349</name></trkpt>
<trkpt lat="54.588047" lon="-3.261608"><ele>769</ele><time>2019-10-02T12:28:40Z</time><name>PT7350</name></trkpt>
<trkpt lat="54.588047" lon="-3.261604"><ele>769</ele><time>2019-10-02T12:28:41Z</time><name>PT7351</name></trkpt>
<trkpt lat="54.588047" lon="-3.261605"><ele>769</ele><time>2019-10-02T12:28:42Z</time><name>PT7352</name></trkpt>
<trkpt lat="54.588047" lon="-3.261604"><ele>769</ele><time>2019-10-02T12:28:43Z</time><name>PT7353</name></trkpt>
<trkpt lat="54.588047" lon="-3.261608"><ele>769</ele><time>2019-10-02T12:28:44Z</time><name>PT7354</name></trkpt>
<trkpt lat="54.588048" lon="-3.261604"><ele>769</ele><time>2019-10-02T12:28:46Z</time><name>PT7355</name></trkpt>
<trkpt lat="54.588045" lon="-3.261602"><ele>769</ele><time>2019-10-02T12:28:47Z</time><name>PT7356</name></trkpt>
<trkpt lat="54.588043" lon="-3.261600"><ele>770</ele><time>2019-10-02T12:28:48Z</time><name>PT7357</name></trkpt>
<trkpt lat="54.588039" lon="-3.261600"><ele>770</ele><time>2019-10-02T12:28:50Z</time><name>PT7358</name></trkpt>
<trkpt lat="54.588035" lon="-3.261598"><ele>769</ele><time>2019-10-02T12:28:51Z</time><name>PT7359</name></trkpt>
<trkpt lat="54.588033" lon="-3.261603"><ele>769</ele><time>2019-10-02T12:28:52Z</time><name>PT7360</name></trkpt>
<trkpt lat="54.588030" lon="-3.261605"><ele>769</ele><time>2019-10-02T12:28:53Z</time><name>PT7361</name></trkpt>
<trkpt lat="54.588028" lon="-3.261606"><ele>769</ele><time>2019-10-02T12:28:54Z</time><name>PT7362</name></trkpt>
<trkpt lat="54.588030" lon="-3.261599"><ele>769</ele><time>2019-10-02T12:29:05Z</time><name>PT7363</name></trkpt>
<trkpt lat="54.588024" lon="-3.261591"><ele>768</ele><time>2019-10-02T12:29:06Z</time><name>PT7364</name></trkpt>
<trkpt lat="54.588019" lon="-3.261582"><ele>769</ele><time>2019-10-02T12:29:07Z</time><name>PT7365</name></trkpt>
<trkpt lat="54.588013" lon="-3.261574"><ele>769</ele><time>2019-10-02T12:29:08Z</time><name>PT7366</name></trkpt>
<trkpt lat="54.588010" lon="-3.261569"><ele>769</ele><time>2019-10-02T12:29:09Z</time><name>PT7367</name></trkpt>
<trkpt lat="54.588008" lon="-3.261560"><ele>769</ele><time>2019-10-02T12:29:10Z</time><name>PT7368</name></trkpt>
<trkpt lat="54.588005" lon="-3.261553"><ele>768</ele><time>2019-10-02T12:29:11Z</time><name>PT7369</name></trkpt>
<trkpt lat="54.588001" lon="-3.261550"><ele>768</ele><time>2019-10-02T12:29:12Z</time><name>PT7370</name></trkpt>
<trkpt lat="54.588001" lon="-3.261551"><ele>768</ele><time>2019-10-02T12:29:13Z</time><name>PT7371</name></trkpt>
<trkpt lat="54.588000" lon="-3.261553"><ele>768</ele><time>2019-10-02T12:29:14Z</time><name>PT7372</name></trkpt>
<trkpt lat="54.588004" lon="-3.261550"><ele>768</ele><time>2019-10-02T12:29:15Z</time><name>PT7373</name></trkpt>
<trkpt lat="54.588004" lon="-3.261549"><ele>768</ele><time>2019-10-02T12:29:16Z</time><name>PT7374</name></trkpt>
<trkpt lat="54.588004" lon="-3.261550"><ele>768</ele><time>2019-10-02T12:29:17Z</time><name>PT7375</name></trkpt>
<trkpt lat="54.588003" lon="-3.261549"><ele>768</ele><time>2019-10-02T12:29:18Z</time><name>PT7376</name></trkpt>
<trkpt lat="54.587992" lon="-3.261552"><ele>768</ele><time>2019-10-02T12:29:20Z</time><name>PT7377</name></trkpt>
<trkpt lat="54.587983" lon="-3.261546"><ele>767</ele><time>2019-10-02T12:29:21Z</time><name>PT7378</name></trkpt>
<trkpt lat="54.587980" lon="-3.261542"><ele>767</ele><time>2019-10-02T12:29:22Z</time><name>PT7379</name></trkpt>
<trkpt lat="54.587977" lon="-3.261547"><ele>767</ele><time>2019-10-02T12:29:23Z</time><name>PT7380</name></trkpt>
<trkpt lat="54.587974" lon="-3.261547"><ele>767</ele><time>2019-10-02T12:29:24Z</time><name>PT7381</name></trkpt>
<trkpt lat="54.587974" lon="-3.261547"><ele>767</ele><time>2019-10-02T12:29:25Z</time><name>PT7382</name></trkpt>
<trkpt lat="54.587974" lon="-3.261545"><ele>766</ele><time>2019-10-02T12:29:26Z</time><name>PT7383</name></trkpt>
<trkpt lat="54.587974" lon="-3.261544"><ele>766</ele><time>2019-10-02T12:29:27Z</time><name>PT7384</name></trkpt>
<trkpt lat="54.587968" lon="-3.261531"><ele>766</ele><time>2019-10-02T12:29:30Z</time><name>PT7385</name></trkpt>
<trkpt lat="54.587963" lon="-3.261517"><ele>766</ele><time>2019-10-02T12:29:31Z</time><name>PT7386</name></trkpt>
<trkpt lat="54.587959" lon="-3.261503"><ele>765</ele><time>2019-10-02T12:29:32Z</time><name>PT7387</name></trkpt>
<trkpt lat="54.587957" lon="-3.261487"><ele>765</ele><time>2019-10-02T12:29:33Z</time><name>PT7388</name></trkpt>
<trkpt lat="54.587953" lon="-3.261479"><ele>765</ele><time>2019-10-02T12:29:34Z</time><name>PT7389</name></trkpt>
<trkpt lat="54.587946" lon="-3.261475"><ele>765</ele><time>2019-10-02T12:29:35Z</time><name>PT7390</name></trkpt>
<trkpt lat="54.587939" lon="-3.261461"><ele>765</ele><time>2019-10-02T12:29:36Z</time><name>PT7391</name></trkpt>
<trkpt lat="54.587932" lon="-3.261452"><ele>765</ele><time>2019-10-02T12:29:37Z</time><name>PT7392</name></trkpt>
<trkpt lat="54.587924" lon="-3.261446"><ele>765</ele><time>2019-10-02T12:29:38Z</time><name>PT7393</name></trkpt>
<trkpt lat="54.587918" lon="-3.261439"><ele>765</ele><time>2019-10-02T12:29:39Z</time><name>PT7394</name></trkpt>
<trkpt lat="54.587915" lon="-3.261428"><ele>765</ele><time>2019-10-02T12:29:40Z</time><name>PT7395</name></trkpt>
<trkpt lat="54.587908" lon="-3.261419"><ele>765</ele><time>2019-10-02T12:29:41Z</time><name>PT7396</name></trkpt>
<trkpt lat="54.587900" lon="-3.261414"><ele>765</ele><time>2019-10-02T12:29:42Z</time><name>PT7397</name></trkpt>
<trkpt lat="54.587891" lon="-3.261411"><ele>764</ele><time>2019-10-02T12:29:43Z</time><name>PT7398</name></trkpt>
<trkpt lat="54.587884" lon="-3.261403"><ele>764</ele><time>2019-10-02T12:29:44Z</time><name>PT7399</name></trkpt>
<trkpt lat="54.587877" lon="-3.261397"><ele>764</ele><time>2019-10-02T12:29:45Z</time><name>PT7400</name></trkpt>
<trkpt lat="54.587870" lon="-3.261385"><ele>764</ele><time>2019-10-02T12:29:46Z</time><name>PT7401</name></trkpt>
<trkpt lat="54.587863" lon="-3.261378"><ele>763</ele><time>2019-10-02T12:29:47Z</time><name>PT7402</name></trkpt>
<trkpt lat="54.587854" lon="-3.261374"><ele>763</ele><time>2019-10-02T12:29:48Z</time><name>PT7403</name></trkpt>
<trkpt lat="54.587847" lon="-3.261366"><ele>762</ele><time>2019-10-02T12:29:49Z</time><name>PT7404</name></trkpt>
<trkpt lat="54.587841" lon="-3.261355"><ele>762</ele><time>2019-10-02T12:29:50Z</time><name>PT7405</name></trkpt>
<trkpt lat="54.587837" lon="-3.261345"><ele>761</ele><time>2019-10-02T12:29:51Z</time><name>PT7406</name></trkpt>
<trkpt lat="54.587831" lon="-3.261334"><ele>761</ele><time>2019-10-02T12:29:52Z</time><name>PT7407</name></trkpt>
<trkpt lat="54.587825" lon="-3.261326"><ele>761</ele><time>2019-10-02T12:29:53Z</time><name>PT7408</name></trkpt>
<trkpt lat="54.587819" lon="-3.261322"><ele>761</ele><time>2019-10-02T12:29:54Z</time><name>PT7409</name></trkpt>
<trkpt lat="54.587810" lon="-3.261318"><ele>760</ele><time>2019-10-02T12:29:55Z</time><name>PT7410</name></trkpt>
<trkpt lat="54.587801" lon="-3.261310"><ele>760</ele><time>2019-10-02T12:29:56Z</time><name>PT7411</name></trkpt>
<trkpt lat="54.587796" lon="-3.261300"><ele>760</ele><time>2019-10-02T12:29:57Z</time><name>PT7412</name></trkpt>
<trkpt lat="54.587789" lon="-3.261291"><ele>760</ele><time>2019-10-02T12:29:58Z</time><name>PT7413</name></trkpt>
<trkpt lat="54.587784" lon="-3.261281"><ele>760</ele><time>2019-10-02T12:29:59Z</time><name>PT7414</name></trkpt>
<trkpt lat="54.587778" lon="-3.261275"><ele>760</ele><time>2019-10-02T12:30:00Z</time><name>PT7415</name></trkpt>
<trkpt lat="54.587777" lon="-3.261262"><ele>760</ele><time>2019-10-02T12:30:01Z</time><name>PT7416</name></trkpt>
<trkpt lat="54.587772" lon="-3.261254"><ele>760</ele><time>2019-10-02T12:30:02Z</time><name>PT7417</name></trkpt>
<trkpt lat="54.587766" lon="-3.261242"><ele>759</ele><time>2019-10-02T12:30:03Z</time><name>PT7418</name></trkpt>
<trkpt lat="54.587759" lon="-3.261232"><ele>759</ele><time>2019-10-02T12:30:04Z</time><name>PT7419</name></trkpt>
<trkpt lat="54.587751" lon="-3.261224"><ele>759</ele><time>2019-10-02T12:30:05Z</time><name>PT7420</name></trkpt>
<trkpt lat="54.587742" lon="-3.261217"><ele>758</ele><time>2019-10-02T12:30:06Z</time><name>PT7421</name></trkpt>
<trkpt lat="54.587734" lon="-3.261208"><ele>758</ele><time>2019-10-02T12:30:07Z</time><name>PT7422</name></trkpt>
<trkpt lat="54.587725" lon="-3.261197"><ele>758</ele><time>2019-10-02T12:30:08Z</time><name>PT7423</name></trkpt>
<trkpt lat="54.587716" lon="-3.261188"><ele>758</ele><time>2019-10-02T12:30:09Z</time><name>PT7424</name></trkpt>
<trkpt lat="54.587702" lon="-3.261184"><ele>758</ele><time>2019-10-02T12:30:10Z</time><name>PT7425</name></trkpt>
<trkpt lat="54.587690" lon="-3.261171"><ele>758</ele><time>2019-10-02T12:30:11Z</time><name>PT7426</name></trkpt>
<trkpt lat="54.587679" lon="-3.261160"><ele>758</ele><time>2019-10-02T12:30:12Z</time><name>PT7427</name></trkpt>
<trkpt lat="54.587670" lon="-3.261150"><ele>758</ele><time>2019-10-02T12:30:13Z</time><name>PT7428</name></trkpt>
<trkpt lat="54.587660" lon="-3.261140"><ele>758</ele><time>2019-10-02T12:30:14Z</time><name>PT7429</name></trkpt>
<trkpt lat="54.587655" lon="-3.261132"><ele>758</ele><time>2019-10-02T12:30:15Z</time><name>PT7430</name></trkpt>
<trkpt lat="54.587645" lon="-3.261127"><ele>758</ele><time>2019-10-02T12:30:16Z</time><name>PT7431</name></trkpt>
<trkpt lat="54.587636" lon="-3.261121"><ele>757</ele><time>2019-10-02T12:30:17Z</time><name>PT7432</name></trkpt>
<trkpt lat="54.587629" lon="-3.261114"><ele>756</ele><time>2019-10-02T12:30:18Z</time><name>PT7433</name></trkpt>
<trkpt lat="54.587620" lon="-3.261111"><ele>756</ele><time>2019-10-02T12:30:19Z</time><name>PT7434</name></trkpt>
<trkpt lat="54.587610" lon="-3.261106"><ele>755</ele><time>2019-10-02T12:30:20Z</time><name>PT7435</name></trkpt>
<trkpt lat="54.587599" lon="-3.261103"><ele>755</ele><time>2019-10-02T12:30:21Z</time><name>PT7436</name></trkpt>
<trkpt lat="54.587588" lon="-3.261101"><ele>755</ele><time>2019-10-02T12:30:22Z</time><name>PT7437</name></trkpt>
<trkpt lat="54.587579" lon="-3.261096"><ele>755</ele><time>2019-10-02T12:30:23Z</time><name>PT7438</name></trkpt>
<trkpt lat="54.587568" lon="-3.261090"><ele>755</ele><time>2019-10-02T12:30:24Z</time><name>PT7439</name></trkpt>
<trkpt lat="54.587556" lon="-3.261083"><ele>755</ele><time>2019-10-02T12:30:25Z</time><name>PT7440</name></trkpt>
<trkpt lat="54.587549" lon="-3.261075"><ele>754</ele><time>2019-10-02T12:30:26Z</time><name>PT7441</name></trkpt>
<trkpt lat="54.587541" lon="-3.261067"><ele>754</ele><time>2019-10-02T12:30:27Z</time><name>PT7442</name></trkpt>
<trkpt lat="54.587532" lon="-3.261062"><ele>754</ele><time>2019-10-02T12:30:28Z</time><name>PT7443</name></trkpt>
<trkpt lat="54.587520" lon="-3.261055"><ele>754</ele><time>2019-10-02T12:30:29Z</time><name>PT7444</name></trkpt>
<trkpt lat="54.587510" lon="-3.261048"><ele>754</ele><time>2019-10-02T12:30:30Z</time><name>PT7445</name></trkpt>
<trkpt lat="54.587500" lon="-3.261040"><ele>753</ele><time>2019-10-02T12:30:31Z</time><name>PT7446</name></trkpt>
<trkpt lat="54.587487" lon="-3.261031"><ele>754</ele><time>2019-10-02T12:30:32Z</time><name>PT7447</name></trkpt>
<trkpt lat="54.587476" lon="-3.261021"><ele>753</ele><time>2019-10-02T12:30:33Z</time><name>PT7448</name></trkpt>
<trkpt lat="54.587462" lon="-3.261012"><ele>754</ele><time>2019-10-02T12:30:34Z</time><name>PT7449</name></trkpt>
<trkpt lat="54.587451" lon="-3.261001"><ele>754</ele><time>2019-10-02T12:30:35Z</time><name>PT7450</name></trkpt>
<trkpt lat="54.587445" lon="-3.260985"><ele>753</ele><time>2019-10-02T12:30:36Z</time><name>PT7451</name></trkpt>
<trkpt lat="54.587434" lon="-3.260975"><ele>754</ele><time>2019-10-02T12:30:37Z</time><name>PT7452</name></trkpt>
<trkpt lat="54.587428" lon="-3.260967"><ele>753</ele><time>2019-10-02T12:30:38Z</time><name>PT7453</name></trkpt>
<trkpt lat="54.587421" lon="-3.260959"><ele>753</ele><time>2019-10-02T12:30:39Z</time><name>PT7454</name></trkpt>
<trkpt lat="54.587413" lon="-3.260951"><ele>753</ele><time>2019-10-02T12:30:40Z</time><name>PT7455</name></trkpt>
<trkpt lat="54.587407" lon="-3.260940"><ele>753</ele><time>2019-10-02T12:30:41Z</time><name>PT7456</name></trkpt>
<trkpt lat="54.587399" lon="-3.260933"><ele>753</ele><time>2019-10-02T12:30:42Z</time><name>PT7457</name></trkpt>
<trkpt lat="54.587388" lon="-3.260927"><ele>753</ele><time>2019-10-02T12:30:43Z</time><name>PT7458</name></trkpt>
<trkpt lat="54.587381" lon="-3.260920"><ele>752</ele><time>2019-10-02T12:30:44Z</time><name>PT7459</name></trkpt>
<trkpt lat="54.587370" lon="-3.260916"><ele>752</ele><time>2019-10-02T12:30:45Z</time><name>PT7460</name></trkpt>
<trkpt lat="54.587362" lon="-3.260907"><ele>752</ele><time>2019-10-02T12:30:46Z</time><name>PT7461</name></trkpt>
<trkpt lat="54.587355" lon="-3.260899"><ele>752</ele><time>2019-10-02T12:30:47Z</time><name>PT7462</name></trkpt>
<trkpt lat="54.587349" lon="-3.260895"><ele>752</ele><time>2019-10-02T12:30:48Z</time><name>PT7463</name></trkpt>
<trkpt lat="54.587341" lon="-3.260891"><ele>751</ele><time>2019-10-02T12:30:49Z</time><name>PT7464</name></trkpt>
<trkpt lat="54.587336" lon="-3.260884"><ele>751</ele><time>2019-10-02T12:30:50Z</time><name>PT7465</name></trkpt>
<trkpt lat="54.587332" lon="-3.260874"><ele>750</ele><time>2019-10-02T12:30:51Z</time><name>PT7466</name></trkpt>
<trkpt lat="54.587328" lon="-3.260865"><ele>750</ele><time>2019-10-02T12:30:52Z</time><name>PT7467</name></trkpt>
<trkpt lat="54.587322" lon="-3.260859"><ele>750</ele><time>2019-10-02T12:30:53Z</time><name>PT7468</name></trkpt>
<trkpt lat="54.587315" lon="-3.260855"><ele>750</ele><time>2019-10-02T12:30:54Z</time><name>PT7469</name></trkpt>
<trkpt lat="54.587310" lon="-3.260853"><ele>750</ele><time>2019-10-02T12:30:55Z</time><name>PT7470</name></trkpt>
<trkpt lat="54.587304" lon="-3.260853"><ele>750</ele><time>2019-10-02T12:30:56Z</time><name>PT7471</name></trkpt>
<trkpt lat="54.587302" lon="-3.260850"><ele>750</ele><time>2019-10-02T12:30:59Z</time><name>PT7472</name></trkpt>
<trkpt lat="54.587295" lon="-3.260847"><ele>750</ele><time>2019-10-02T12:31:00Z</time><name>PT7473</name></trkpt>
<trkpt lat="54.587288" lon="-3.260844"><ele>750</ele><time>2019-10-02T12:31:01Z</time><name>PT7474</name></trkpt>
<trkpt lat="54.587279" lon="-3.260841"><ele>750</ele><time>2019-10-02T12:31:02Z</time><name>PT7475</name></trkpt>
<trkpt lat="54.587275" lon="-3.260834"><ele>749</ele><time>2019-10-02T12:31:03Z</time><name>PT7476</name></trkpt>
<trkpt lat="54.587273" lon="-3.260825"><ele>749</ele><time>2019-10-02T12:31:04Z</time><name>PT7477</name></trkpt>
<trkpt lat="54.587268" lon="-3.260821"><ele>748</ele><time>2019-10-02T12:31:05Z</time><name>PT7478</name></trkpt>
<trkpt lat="54.587264" lon="-3.260816"><ele>748</ele><time>2019-10-02T12:31:06Z</time><name>PT7479</name></trkpt>
<trkpt lat="54.587260" lon="-3.260811"><ele>748</ele><time>2019-10-02T12:31:07Z</time><name>PT7480</name></trkpt>
<trkpt lat="54.587257" lon="-3.260805"><ele>748</ele><time>2019-10-02T12:31:08Z</time><name>PT7481</name></trkpt>
<trkpt lat="54.587250" lon="-3.260799"><ele>748</ele><time>2019-10-02T12:31:09Z</time><name>PT7482</name></trkpt>
<trkpt lat="54.587246" lon="-3.260793"><ele>747</ele><time>2019-10-02T12:31:10Z</time><name>PT7483</name></trkpt>
<trkpt lat="54.587242" lon="-3.260785"><ele>747</ele><time>2019-10-02T12:31:11Z</time><name>PT7484</name></trkpt>
<trkpt lat="54.587237" lon="-3.260780"><ele>747</ele><time>2019-10-02T12:31:12Z</time><name>PT7485</name></trkpt>
<trkpt lat="54.587231" lon="-3.260775"><ele>746</ele><time>2019-10-02T12:31:13Z</time><name>PT7486</name></trkpt>
<trkpt lat="54.587226" lon="-3.260773"><ele>746</ele><time>2019-10-02T12:31:14Z</time><name>PT7487</name></trkpt>
<trkpt lat="54.587216" lon="-3.260769"><ele>746</ele><time>2019-10-02T12:31:15Z</time><name>PT7488</name></trkpt>
<trkpt lat="54.587214" lon="-3.260763"><ele>745</ele><time>2019-10-02T12:31:16Z</time><name>PT7489</name></trkpt>
<trkpt lat="54.587209" lon="-3.260755"><ele>744</ele><time>2019-10-02T12:31:17Z</time><name>PT7490</name></trkpt>
<trkpt lat="54.587202" lon="-3.260751"><ele>744</ele><time>2019-10-02T12:31:18Z</time><name>PT7491</name></trkpt>
<trkpt lat="54.587195" lon="-3.260747"><ele>744</ele><time>2019-10-02T12:31:19Z</time><name>PT7492</name></trkpt>
<trkpt lat="54.587187" lon="-3.260744"><ele>744</ele><time>2019-10-02T12:31:20Z</time><name>PT7493</name></trkpt>
<trkpt lat="54.587180" lon="-3.260743"><ele>744</ele><time>2019-10-02T12:31:21Z</time><name>PT7494</name></trkpt>
<trkpt lat="54.587173" lon="-3.260741"><ele>744</ele><time>2019-10-02T12:31:22Z</time><name>PT7495</name></trkpt>
<trkpt lat="54.587164" lon="-3.260737"><ele>744</ele><time>2019-10-02T12:31:23Z</time><name>PT7496</name></trkpt>
<trkpt lat="54.587156" lon="-3.260739"><ele>744</ele><time>2019-10-02T12:31:24Z</time><name>PT7497</name></trkpt>
<trkpt lat="54.587144" lon="-3.260742"><ele>744</ele><time>2019-10-02T12:31:25Z</time><name>PT7498</name></trkpt>
<trkpt lat="54.587133" lon="-3.260747"><ele>744</ele><time>2019-10-02T12:31:26Z</time><name>PT7499</name></trkpt>
<trkpt lat="54.587122" lon="-3.260753"><ele>744</ele><time>2019-10-02T12:31:27Z</time><name>PT7500</name></trkpt>
<trkpt lat="54.587112" lon="-3.260754"><ele>744</ele><time>2019-10-02T12:31:28Z</time><name>PT7501</name></trkpt>
<trkpt lat="54.587102" lon="-3.260752"><ele>744</ele><time>2019-10-02T12:31:29Z</time><name>PT7502</name></trkpt>
<trkpt lat="54.587094" lon="-3.260747"><ele>743</ele><time>2019-10-02T12:31:30Z</time><name>PT7503</name></trkpt>
<trkpt lat="54.587085" lon="-3.260743"><ele>743</ele><time>2019-10-02T12:31:31Z</time><name>PT7504</name></trkpt>
<trkpt lat="54.587077" lon="-3.260742"><ele>743</ele><time>2019-10-02T12:31:32Z</time><name>PT7505</name></trkpt>
<trkpt lat="54.587066" lon="-3.260738"><ele>743</ele><time>2019-10-02T12:31:33Z</time><name>PT7506</name></trkpt>
<trkpt lat="54.587056" lon="-3.260735"><ele>742</ele><time>2019-10-02T12:31:34Z</time><name>PT7507</name></trkpt>
<trkpt lat="54.587049" lon="-3.260731"><ele>742</ele><time>2019-10-02T12:31:35Z</time><name>PT7508</name></trkpt>
<trkpt lat="54.587041" lon="-3.260729"><ele>742</ele><time>2019-10-02T12:31:36Z</time><name>PT7509</name></trkpt>
<trkpt lat="54.587031" lon="-3.260723"><ele>742</ele><time>2019-10-02T12:31:37Z</time><name>PT7510</name></trkpt>
<trkpt lat="54.587021" lon="-3.260719"><ele>741</ele><time>2019-10-02T12:31:38Z</time><name>PT7511</name></trkpt>
<trkpt lat="54.587006" lon="-3.260721"><ele>741</ele><time>2019-10-02T12:31:39Z</time><name>PT7512</name></trkpt>
<trkpt lat="54.586994" lon="-3.260713"><ele>741</ele><time>2019-10-02T12:31:40Z</time><name>PT7513</name></trkpt>
<trkpt lat="54.586984" lon="-3.260701"><ele>741</ele><time>2019-10-02T12:31:41Z</time><name>PT7514</name></trkpt>
<trkpt lat="54.586976" lon="-3.260696"><ele>740</ele><time>2019-10-02T12:31:42Z</time><name>PT7515</name></trkpt>
<trkpt lat="54.586968" lon="-3.260691"><ele>740</ele><time>2019-10-02T12:31:43Z</time><name>PT7516</name></trkpt>
<trkpt lat="54.586960" lon="-3.260684"><ele>740</ele><time>2019-10-02T12:31:44Z</time><name>PT7517</name></trkpt>
<trkpt lat="54.586953" lon="-3.260674"><ele>740</ele><time>2019-10-02T12:31:45Z</time><name>PT7518</name></trkpt>
<trkpt lat="54.586943" lon="-3.260664"><ele>740</ele><time>2019-10-02T12:31:46Z</time><name>PT7519</name></trkpt>
<trkpt lat="54.586935" lon="-3.260658"><ele>740</ele><time>2019-10-02T12:31:47Z</time><name>PT7520</name></trkpt>
<trkpt lat="54.586927" lon="-3.260650"><ele>740</ele><time>2019-10-02T12:31:48Z</time><name>PT7521</name></trkpt>
<trkpt lat="54.586916" lon="-3.260638"><ele>740</ele><time>2019-10-02T12:31:49Z</time><name>PT7522</name></trkpt>
<trkpt lat="54.586907" lon="-3.260633"><ele>739</ele><time>2019-10-02T12:31:50Z</time><name>PT7523</name></trkpt>
<trkpt lat="54.586898" lon="-3.260624"><ele>739</ele><time>2019-10-02T12:31:51Z</time><name>PT7524</name></trkpt>
<trkpt lat="54.586883" lon="-3.260617"><ele>739</ele><time>2019-10-02T12:31:52Z</time><name>PT7525</name></trkpt>
<trkpt lat="54.586872" lon="-3.260603"><ele>740</ele><time>2019-10-02T12:31:53Z</time><name>PT7526</name></trkpt>
<trkpt lat="54.586866" lon="-3.260591"><ele>739</ele><time>2019-10-02T12:31:54Z</time><name>PT7527</name></trkpt>
<trkpt lat="54.586862" lon="-3.260578"><ele>739</ele><time>2019-10-02T12:31:55Z</time><name>PT7528</name></trkpt>
<trkpt lat="54.586855" lon="-3.260562"><ele>739</ele><time>2019-10-02T12:31:56Z</time><name>PT7529</name></trkpt>
<trkpt lat="54.586852" lon="-3.260542"><ele>738</ele><time>2019-10-02T12:31:57Z</time><name>PT7530</name></trkpt>
<trkpt lat="54.586845" lon="-3.260531"><ele>738</ele><time>2019-10-02T12:31:58Z</time><name>PT7531</name></trkpt>
<trkpt lat="54.586836" lon="-3.260518"><ele>737</ele><time>2019-10-02T12:31:59Z</time><name>PT7532</name></trkpt>
<trkpt lat="54.586826" lon="-3.260512"><ele>737</ele><time>2019-10-02T12:32:00Z</time><name>PT7533</name></trkpt>
<trkpt lat="54.586820" lon="-3.260511"><ele>738</ele><time>2019-10-02T12:32:01Z</time><name>PT7534</name></trkpt>
<trkpt lat="54.586815" lon="-3.260507"><ele>737</ele><time>2019-10-02T12:32:02Z</time><name>PT7535</name></trkpt>
<trkpt lat="54.586807" lon="-3.260511"><ele>737</ele><time>2019-10-02T12:32:03Z</time><name>PT7536</name></trkpt>
<trkpt lat="54.586794" lon="-3.260511"><ele>737</ele><time>2019-10-02T12:32:04Z</time><name>PT7537</name></trkpt>
<trkpt lat="54.586782" lon="-3.260505"><ele>737</ele><time>2019-10-02T12:32:05Z</time><name>PT7538</name></trkpt>
<trkpt lat="54.586771" lon="-3.260500"><ele>737</ele><time>2019-10-02T12:32:06Z</time><name>PT7539</name></trkpt>
<trkpt lat="54.586763" lon="-3.260494"><ele>737</ele><time>2019-10-02T12:32:07Z</time><name>PT7540</name></trkpt>
<trkpt lat="54.586754" lon="-3.260490"><ele>737</ele><time>2019-10-02T12:32:08Z</time><name>PT7541</name></trkpt>
<trkpt lat="54.586745" lon="-3.260482"><ele>737</ele><time>2019-10-02T12:32:09Z</time><name>PT7542</name></trkpt>
<trkpt lat="54.586736" lon="-3.260471"><ele>737</ele><time>2019-10-02T12:32:10Z</time><name>PT7543</name></trkpt>
<trkpt lat="54.586726" lon="-3.260460"><ele>737</ele><time>2019-10-02T12:32:11Z</time><name>PT7544</name></trkpt>
<trkpt lat="54.586717" lon="-3.260453"><ele>737</ele><time>2019-10-02T12:32:12Z</time><name>PT7545</name></trkpt>
<trkpt lat="54.586706" lon="-3.260445"><ele>737</ele><time>2019-10-02T12:32:13Z</time><name>PT7546</name></trkpt>
<trkpt lat="54.586694" lon="-3.260440"><ele>738</ele><time>2019-10-02T12:32:14Z</time><name>PT7547</name></trkpt>
<trkpt lat="54.586686" lon="-3.260432"><ele>738</ele><time>2019-10-02T12:32:15Z</time><name>PT7548</name></trkpt>
<trkpt lat="54.586677" lon="-3.260422"><ele>738</ele><time>2019-10-02T12:32:16Z</time><name>PT7549</name></trkpt>
<trkpt lat="54.586668" lon="-3.260410"><ele>738</ele><time>2019-10-02T12:32:17Z</time><name>PT7550</name></trkpt>
<trkpt lat="54.586661" lon="-3.260403"><ele>738</ele><time>2019-10-02T12:32:18Z</time><name>PT7551</name></trkpt>
<trkpt lat="54.586654" lon="-3.260400"><ele>738</ele><time>2019-10-02T12:32:19Z</time><name>PT7552</name></trkpt>
<trkpt lat="54.586644" lon="-3.260398"><ele>738</ele><time>2019-10-02T12:32:20Z</time><name>PT7553</name></trkpt>
<trkpt lat="54.586637" lon="-3.260387"><ele>737</ele><time>2019-10-02T12:32:21Z</time><name>PT7554</name></trkpt>
<trkpt lat="54.586629" lon="-3.260372"><ele>737</ele><time>2019-10-02T12:32:22Z</time><name>PT7555</name></trkpt>
<trkpt lat="54.586622" lon="-3.260361"><ele>737</ele><time>2019-10-02T12:32:23Z</time><name>PT7556</name></trkpt>
<trkpt lat="54.586612" lon="-3.260353"><ele>737</ele><time>2019-10-02T12:32:24Z</time><name>PT7557</name></trkpt>
<trkpt lat="54.586603" lon="-3.260348"><ele>737</ele><time>2019-10-02T12:32:25Z</time><name>PT7558</name></trkpt>
<trkpt lat="54.586594" lon="-3.260341"><ele>738</ele><time>2019-10-02T12:32:26Z</time><name>PT7559</name></trkpt>
<trkpt lat="54.586584" lon="-3.260332"><ele>738</ele><time>2019-10-02T12:32:27Z</time><name>PT7560</name></trkpt>
<trkpt lat="54.586573" lon="-3.260324"><ele>738</ele><time>2019-10-02T12:32:28Z</time><name>PT7561</name></trkpt>
<trkpt lat="54.586563" lon="-3.260316"><ele>738</ele><time>2019-10-02T12:32:29Z</time><name>PT7562</name></trkpt>
<trkpt lat="54.586553" lon="-3.260307"><ele>738</ele><time>2019-10-02T12:32:30Z</time><name>PT7563</name></trkpt>
<trkpt lat="54.586543" lon="-3.260297"><ele>738</ele><time>2019-10-02T12:32:31Z</time><name>PT7564</name></trkpt>
<trkpt lat="54.586534" lon="-3.260286"><ele>738</ele><time>2019-10-02T12:32:32Z</time><name>PT7565</name></trkpt>
<trkpt lat="54.586527" lon="-3.260276"><ele>739</ele><time>2019-10-02T12:32:33Z</time><name>PT7566</name></trkpt>
<trkpt lat="54.586520" lon="-3.260270"><ele>739</ele><time>2019-10-02T12:32:34Z</time><name>PT7567</name></trkpt>
<trkpt lat="54.586513" lon="-3.260263"><ele>739</ele><time>2019-10-02T12:32:35Z</time><name>PT7568</name></trkpt>
<trkpt lat="54.586505" lon="-3.260261"><ele>739</ele><time>2019-10-02T12:32:36Z</time><name>PT7569</name></trkpt>
<trkpt lat="54.586495" lon="-3.260256"><ele>739</ele><time>2019-10-02T12:32:37Z</time><name>PT7570</name></trkpt>
<trkpt lat="54.586486" lon="-3.260246"><ele>740</ele><time>2019-10-02T12:32:38Z</time><name>PT7571</name></trkpt>
<trkpt lat="54.586477" lon="-3.260238"><ele>740</ele><time>2019-10-02T12:32:39Z</time><name>PT7572</name></trkpt>
<trkpt lat="54.586471" lon="-3.260233"><ele>740</ele><time>2019-10-02T12:32:40Z</time><name>PT7573</name></trkpt>
<trkpt lat="54.586462" lon="-3.260231"><ele>740</ele><time>2019-10-02T12:32:41Z</time><name>PT7574</name></trkpt>
<trkpt lat="54.586452" lon="-3.260225"><ele>740</ele><time>2019-10-02T12:32:42Z</time><name>PT7575</name></trkpt>
<trkpt lat="54.586444" lon="-3.260220"><ele>741</ele><time>2019-10-02T12:32:43Z</time><name>PT7576</name></trkpt>
<trkpt lat="54.586434" lon="-3.260215"><ele>740</ele><time>2019-10-02T12:32:44Z</time><name>PT7577</name></trkpt>
<trkpt lat="54.586425" lon="-3.260211"><ele>741</ele><time>2019-10-02T12:32:45Z</time><name>PT7578</name></trkpt>
<trkpt lat="54.586417" lon="-3.260202"><ele>741</ele><time>2019-10-02T12:32:46Z</time><name>PT7579</name></trkpt>
<trkpt lat="54.586408" lon="-3.260196"><ele>741</ele><time>2019-10-02T12:32:47Z</time><name>PT7580</name></trkpt>
<trkpt lat="54.586399" lon="-3.260191"><ele>742</ele><time>2019-10-02T12:32:48Z</time><name>PT7581</name></trkpt>
<trkpt lat="54.586389" lon="-3.260187"><ele>742</ele><time>2019-10-02T12:32:49Z</time><name>PT7582</name></trkpt>
<trkpt lat="54.586382" lon="-3.260180"><ele>742</ele><time>2019-10-02T12:32:50Z</time><name>PT7583</name></trkpt>
<trkpt lat="54.586374" lon="-3.260175"><ele>742</ele><time>2019-10-02T12:32:51Z</time><name>PT7584</name></trkpt>
<trkpt lat="54.586368" lon="-3.260169"><ele>743</ele><time>2019-10-02T12:32:52Z</time><name>PT7585</name></trkpt>
<trkpt lat="54.586359" lon="-3.260167"><ele>743</ele><time>2019-10-02T12:32:53Z</time><name>PT7586</name></trkpt>
<trkpt lat="54.586348" lon="-3.260162"><ele>743</ele><time>2019-10-02T12:32:54Z</time><name>PT7587</name></trkpt>
<trkpt lat="54.586339" lon="-3.260158"><ele>743</ele><time>2019-10-02T12:32:55Z</time><name>PT7588</name></trkpt>
<trkpt lat="54.586332" lon="-3.260153"><ele>743</ele><time>2019-10-02T12:32:56Z</time><name>PT7589</name></trkpt>
<trkpt lat="54.586327" lon="-3.260151"><ele>743</ele><time>2019-10-02T12:32:57Z</time><name>PT7590</name></trkpt>
<trkpt lat="54.586320" lon="-3.260150"><ele>743</ele><time>2019-10-02T12:32:58Z</time><name>PT7591</name></trkpt>
<trkpt lat="54.586310" lon="-3.260148"><ele>743</ele><time>2019-10-02T12:32:59Z</time><name>PT7592</name></trkpt>
<trkpt lat="54.586300" lon="-3.260145"><ele>743</ele><time>2019-10-02T12:33:00Z</time><name>PT7593</name></trkpt>
<trkpt lat="54.586290" lon="-3.260137"><ele>743</ele><time>2019-10-02T12:33:01Z</time><name>PT7594</name></trkpt>
<trkpt lat="54.586280" lon="-3.260130"><ele>743</ele><time>2019-10-02T12:33:02Z</time><name>PT7595</name></trkpt>
<trkpt lat="54.586270" lon="-3.260125"><ele>743</ele><time>2019-10-02T12:33:03Z</time><name>PT7596</name></trkpt>
<trkpt lat="54.586261" lon="-3.260122"><ele>743</ele><time>2019-10-02T12:33:04Z</time><name>PT7597</name></trkpt>
<trkpt lat="54.586251" lon="-3.260117"><ele>743</ele><time>2019-10-02T12:33:05Z</time><name>PT7598</name></trkpt>
<trkpt lat="54.586241" lon="-3.260114"><ele>743</ele><time>2019-10-02T12:33:06Z</time><name>PT7599</name></trkpt>
<trkpt lat="54.586235" lon="-3.260115"><ele>743</ele><time>2019-10-02T12:33:07Z</time><name>PT7600</name></trkpt>
<trkpt lat="54.586222" lon="-3.260109"><ele>745</ele><time>2019-10-02T12:33:08Z</time><name>PT7601</name></trkpt>
<trkpt lat="54.586216" lon="-3.260107"><ele>746</ele><time>2019-10-02T12:33:09Z</time><name>PT7602</name></trkpt>
<trkpt lat="54.586206" lon="-3.260111"><ele>746</ele><time>2019-10-02T12:33:10Z</time><name>PT7603</name></trkpt>
<trkpt lat="54.586196" lon="-3.260112"><ele>746</ele><time>2019-10-02T12:33:11Z</time><name>PT7604</name></trkpt>
<trkpt lat="54.586186" lon="-3.260106"><ele>746</ele><time>2019-10-02T12:33:12Z</time><name>PT7605</name></trkpt>
<trkpt lat="54.586176" lon="-3.260098"><ele>746</ele><time>2019-10-02T12:33:13Z</time><name>PT7606</name></trkpt>
<trkpt lat="54.586165" lon="-3.260093"><ele>746</ele><time>2019-10-02T12:33:14Z</time><name>PT7607</name></trkpt>
<trkpt lat="54.586157" lon="-3.260090"><ele>746</ele><time>2019-10-02T12:33:15Z</time><name>PT7608</name></trkpt>
<trkpt lat="54.586148" lon="-3.260088"><ele>746</ele><time>2019-10-02T12:33:16Z</time><name>PT7609</name></trkpt>
<trkpt lat="54.586137" lon="-3.260083"><ele>746</ele><time>2019-10-02T12:33:17Z</time><name>PT7610</name></trkpt>
<trkpt lat="54.586126" lon="-3.260083"><ele>746</ele><time>2019-10-02T12:33:18Z</time><name>PT7611</name></trkpt>
<trkpt lat="54.586118" lon="-3.260084"><ele>746</ele><time>2019-10-02T12:33:19Z</time><name>PT7612</name></trkpt>
<trkpt lat="54.586106" lon="-3.260083"><ele>746</ele><time>2019-10-02T12:33:20Z</time><name>PT7613</name></trkpt>
<trkpt lat="54.586095" lon="-3.260078"><ele>747</ele><time>2019-10-02T12:33:21Z</time><name>PT7614</name></trkpt>
<trkpt lat="54.586088" lon="-3.260075"><ele>746</ele><time>2019-10-02T12:33:22Z</time><name>PT7615</name></trkpt>
<trkpt lat="54.586078" lon="-3.260073"><ele>746</ele><time>2019-10-02T12:33:23Z</time><name>PT7616</name></trkpt>
<trkpt lat="54.586069" lon="-3.260070"><ele>746</ele><time>2019-10-02T12:33:24Z</time><name>PT7617</name></trkpt>
<trkpt lat="54.586057" lon="-3.260067"><ele>746</ele><time>2019-10-02T12:33:25Z</time><name>PT7618</name></trkpt>
<trkpt lat="54.586046" lon="-3.260067"><ele>746</ele><time>2019-10-02T12:33:26Z</time><name>PT7619</name></trkpt>
<trkpt lat="54.586034" lon="-3.260063"><ele>746</ele><time>2019-10-02T12:33:27Z</time><name>PT7620</name></trkpt>
<trkpt lat="54.586024" lon="-3.260062"><ele>746</ele><time>2019-10-02T12:33:28Z</time><name>PT7621</name></trkpt>
<trkpt lat="54.586012" lon="-3.260061"><ele>747</ele><time>2019-10-02T12:33:29Z</time><name>PT7622</name></trkpt>
<trkpt lat="54.586004" lon="-3.260060"><ele>747</ele><time>2019-10-02T12:33:30Z</time><name>PT7623</name></trkpt>
<trkpt lat="54.585994" lon="-3.260059"><ele>747</ele><time>2019-10-02T12:33:31Z</time><name>PT7624</name></trkpt>
<trkpt lat="54.585985" lon="-3.260054"><ele>747</ele><time>2019-10-02T12:33:32Z</time><name>PT7625</name></trkpt>
<trkpt lat="54.585974" lon="-3.260053"><ele>747</ele><time>2019-10-02T12:33:33Z</time><name>PT7626</name></trkpt>
<trkpt lat="54.585965" lon="-3.260048"><ele>747</ele><time>2019-10-02T12:33:34Z</time><name>PT7627</name></trkpt>
<trkpt lat="54.585954" lon="-3.260045"><ele>748</ele><time>2019-10-02T12:33:35Z</time><name>PT7628</name></trkpt>
<trkpt lat="54.585944" lon="-3.260038"><ele>748</ele><time>2019-10-02T12:33:36Z</time><name>PT7629</name></trkpt>
<trkpt lat="54.585935" lon="-3.260029"><ele>747</ele><time>2019-10-02T12:33:37Z</time><name>PT7630</name></trkpt>
<trkpt lat="54.585925" lon="-3.260020"><ele>748</ele><time>2019-10-02T12:33:38Z</time><name>PT7631</name></trkpt>
<trkpt lat="54.585915" lon="-3.260015"><ele>748</ele><time>2019-10-02T12:33:39Z</time><name>PT7632</name></trkpt>
<trkpt lat="54.585904" lon="-3.260009"><ele>748</ele><time>2019-10-02T12:33:40Z</time><name>PT7633</name></trkpt>
<trkpt lat="54.585895" lon="-3.260006"><ele>749</ele><time>2019-10-02T12:33:41Z</time><name>PT7634</name></trkpt>
<trkpt lat="54.585885" lon="-3.260002"><ele>749</ele><time>2019-10-02T12:33:42Z</time><name>PT7635</name></trkpt>
<trkpt lat="54.585873" lon="-3.259999"><ele>749</ele><time>2019-10-02T12:33:43Z</time><name>PT7636</name></trkpt>
<trkpt lat="54.585865" lon="-3.259994"><ele>749</ele><time>2019-10-02T12:33:44Z</time><name>PT7637</name></trkpt>
<trkpt lat="54.585855" lon="-3.259989"><ele>749</ele><time>2019-10-02T12:33:45Z</time><name>PT7638</name></trkpt>
<trkpt lat="54.585845" lon="-3.259987"><ele>749</ele><time>2019-10-02T12:33:46Z</time><name>PT7639</name></trkpt>
<trkpt lat="54.585837" lon="-3.259978"><ele>750</ele><time>2019-10-02T12:33:47Z</time><name>PT7640</name></trkpt>
<trkpt lat="54.585827" lon="-3.259970"><ele>750</ele><time>2019-10-02T12:33:48Z</time><name>PT7641</name></trkpt>
<trkpt lat="54.585819" lon="-3.259963"><ele>750</ele><time>2019-10-02T12:33:49Z</time><name>PT7642</name></trkpt>
<trkpt lat="54.585812" lon="-3.259955"><ele>750</ele><time>2019-10-02T12:33:50Z</time><name>PT7643</name></trkpt>
<trkpt lat="54.585803" lon="-3.259948"><ele>750</ele><time>2019-10-02T12:33:51Z</time><name>PT7644</name></trkpt>
<trkpt lat="54.585797" lon="-3.259941"><ele>750</ele><time>2019-10-02T12:33:52Z</time><name>PT7645</name></trkpt>
<trkpt lat="54.585789" lon="-3.259931"><ele>750</ele><time>2019-10-02T12:33:53Z</time><name>PT7646</name></trkpt>
<trkpt lat="54.585779" lon="-3.259925"><ele>750</ele><time>2019-10-02T12:33:54Z</time><name>PT7647</name></trkpt>
<trkpt lat="54.585769" lon="-3.259916"><ele>750</ele><time>2019-10-02T12:33:55Z</time><name>PT7648</name></trkpt>
<trkpt lat="54.585761" lon="-3.259905"><ele>750</ele><time>2019-10-02T12:33:56Z</time><name>PT7649</name></trkpt>
<trkpt lat="54.585752" lon="-3.259897"><ele>751</ele><time>2019-10-02T12:33:57Z</time><name>PT7650</name></trkpt>
<trkpt lat="54.585742" lon="-3.259888"><ele>751</ele><time>2019-10-02T12:33:58Z</time><name>PT7651</name></trkpt>
<trkpt lat="54.585731" lon="-3.259884"><ele>751</ele><time>2019-10-02T12:33:59Z</time><name>PT7652</name></trkpt>
<trkpt lat="54.585726" lon="-3.259874"><ele>751</ele><time>2019-10-02T12:34:00Z</time><name>PT7653</name></trkpt>
<trkpt lat="54.585718" lon="-3.259863"><ele>751</ele><time>2019-10-02T12:34:01Z</time><name>PT7654</name></trkpt>
<trkpt lat="54.585709" lon="-3.259853"><ele>751</ele><time>2019-10-02T12:34:02Z</time><name>PT7655</name></trkpt>
<trkpt lat="54.585699" lon="-3.259843"><ele>752</ele><time>2019-10-02T12:34:03Z</time><name>PT7656</name></trkpt>
<trkpt lat="54.585693" lon="-3.259834"><ele>752</ele><time>2019-10-02T12:34:04Z</time><name>PT7657</name></trkpt>
<trkpt lat="54.585686" lon="-3.259820"><ele>752</ele><time>2019-10-02T12:34:05Z</time><name>PT7658</name></trkpt>
<trkpt lat="54.585678" lon="-3.259807"><ele>752</ele><time>2019-10-02T12:34:06Z</time><name>PT7659</name></trkpt>
<trkpt lat="54.585671" lon="-3.259801"><ele>752</ele><time>2019-10-02T12:34:07Z</time><name>PT7660</name></trkpt>
<trkpt lat="54.585666" lon="-3.259791"><ele>752</ele><time>2019-10-02T12:34:08Z</time><name>PT7661</name></trkpt>
<trkpt lat="54.585660" lon="-3.259783"><ele>752</ele><time>2019-10-02T12:34:09Z</time><name>PT7662</name></trkpt>
<trkpt lat="54.585655" lon="-3.259774"><ele>752</ele><time>2019-10-02T12:34:10Z</time><name>PT7663</name></trkpt>
<trkpt lat="54.585651" lon="-3.259768"><ele>752</ele><time>2019-10-02T12:34:11Z</time><name>PT7664</name></trkpt>
<trkpt lat="54.585645" lon="-3.259760"><ele>752</ele><time>2019-10-02T12:34:12Z</time><name>PT7665</name></trkpt>
<trkpt lat="54.585636" lon="-3.259755"><ele>753</ele><time>2019-10-02T12:34:13Z</time><name>PT7666</name></trkpt>
<trkpt lat="54.585628" lon="-3.259755"><ele>753</ele><time>2019-10-02T12:34:14Z</time><name>PT7667</name></trkpt>
<trkpt lat="54.585622" lon="-3.259754"><ele>752</ele><time>2019-10-02T12:34:15Z</time><name>PT7668</name></trkpt>
<trkpt lat="54.585619" lon="-3.259754"><ele>752</ele><time>2019-10-02T12:34:16Z</time><name>PT7669</name></trkpt>
<trkpt lat="54.585613" lon="-3.259754"><ele>753</ele><time>2019-10-02T12:34:17Z</time><name>PT7670</name></trkpt>
<trkpt lat="54.585604" lon="-3.259749"><ele>753</ele><time>2019-10-02T12:34:18Z</time><name>PT7671</name></trkpt>
<trkpt lat="54.585596" lon="-3.259739"><ele>753</ele><time>2019-10-02T12:34:19Z</time><name>PT7672</name></trkpt>
<trkpt lat="54.585589" lon="-3.259724"><ele>753</ele><time>2019-10-02T12:34:20Z</time><name>PT7673</name></trkpt>
<trkpt lat="54.585583" lon="-3.259709"><ele>753</ele><time>2019-10-02T12:34:21Z</time><name>PT7674</name></trkpt>
<trkpt lat="54.585574" lon="-3.259696"><ele>753</ele><time>2019-10-02T12:34:22Z</time><name>PT7675</name></trkpt>
<trkpt lat="54.585563" lon="-3.259687"><ele>753</ele><time>2019-10-02T12:34:23Z</time><name>PT7676</name></trkpt>
<trkpt lat="54.585553" lon="-3.259678"><ele>753</ele><time>2019-10-02T12:34:24Z</time><name>PT7677</name></trkpt>
<trkpt lat="54.585545" lon="-3.259667"><ele>754</ele><time>2019-10-02T12:34:25Z</time><name>PT7678</name></trkpt>
<trkpt lat="54.585535" lon="-3.259657"><ele>754</ele><time>2019-10-02T12:34:26Z</time><name>PT7679</name></trkpt>
<trkpt lat="54.585524" lon="-3.259646"><ele>754</ele><time>2019-10-02T12:34:27Z</time><name>PT7680</name></trkpt>
<trkpt lat="54.585516" lon="-3.259636"><ele>755</ele><time>2019-10-02T12:34:28Z</time><name>PT7681</name></trkpt>
<trkpt lat="54.585510" lon="-3.259622"><ele>755</ele><time>2019-10-02T12:34:29Z</time><name>PT7682</name></trkpt>
<trkpt lat="54.585503" lon="-3.259609"><ele>755</ele><time>2019-10-02T12:34:30Z</time><name>PT7683</name></trkpt>
<trkpt lat="54.585495" lon="-3.259595"><ele>755</ele><time>2019-10-02T12:34:31Z</time><name>PT7684</name></trkpt>
<trkpt lat="54.585488" lon="-3.259581"><ele>755</ele><time>2019-10-02T12:34:32Z</time><name>PT7685</name></trkpt>
<trkpt lat="54.585479" lon="-3.259568"><ele>755</ele><time>2019-10-02T12:34:33Z</time><name>PT7686</name></trkpt>
<trkpt lat="54.585470" lon="-3.259555"><ele>755</ele><time>2019-10-02T12:34:34Z</time><name>PT7687</name></trkpt>
<trkpt lat="54.585461" lon="-3.259545"><ele>755</ele><time>2019-10-02T12:34:35Z</time><name>PT7688</name></trkpt>
<trkpt lat="54.585453" lon="-3.259536"><ele>756</ele><time>2019-10-02T12:34:36Z</time><name>PT7689</name></trkpt>
<trkpt lat="54.585442" lon="-3.259526"><ele>756</ele><time>2019-10-02T12:34:37Z</time><name>PT7690</name></trkpt>
<trkpt lat="54.585432" lon="-3.259513"><ele>757</ele><time>2019-10-02T12:34:38Z</time><name>PT7691</name></trkpt>
<trkpt lat="54.585426" lon="-3.259504"><ele>757</ele><time>2019-10-02T12:34:39Z</time><name>PT7692</name></trkpt>
<trkpt lat="54.585422" lon="-3.259489"><ele>757</ele><time>2019-10-02T12:34:40Z</time><name>PT7693</name></trkpt>
<trkpt lat="54.585417" lon="-3.259478"><ele>757</ele><time>2019-10-02T12:34:41Z</time><name>PT7694</name></trkpt>
<trkpt lat="54.585409" lon="-3.259463"><ele>757</ele><time>2019-10-02T12:34:42Z</time><name>PT7695</name></trkpt>
<trkpt lat="54.585403" lon="-3.259451"><ele>756</ele><time>2019-10-02T12:34:43Z</time><name>PT7696</name></trkpt>
<trkpt lat="54.585399" lon="-3.259440"><ele>756</ele><time>2019-10-02T12:34:44Z</time><name>PT7697</name></trkpt>
<trkpt lat="54.585395" lon="-3.259428"><ele>756</ele><time>2019-10-02T12:34:45Z</time><name>PT7698</name></trkpt>
<trkpt lat="54.585390" lon="-3.259417"><ele>756</ele><time>2019-10-02T12:34:46Z</time><name>PT7699</name></trkpt>
<trkpt lat="54.585383" lon="-3.259408"><ele>756</ele><time>2019-10-02T12:34:47Z</time><name>PT7700</name></trkpt>
<trkpt lat="54.585376" lon="-3.259402"><ele>756</ele><time>2019-10-02T12:34:48Z</time><name>PT7701</name></trkpt>
<trkpt lat="54.585368" lon="-3.259399"><ele>756</ele><time>2019-10-02T12:34:49Z</time><name>PT7702</name></trkpt>
<trkpt lat="54.585359" lon="-3.259392"><ele>756</ele><time>2019-10-02T12:34:50Z</time><name>PT7703</name></trkpt>
<trkpt lat="54.585353" lon="-3.259383"><ele>756</ele><time>2019-10-02T12:34:51Z</time><name>PT7704</name></trkpt>
<trkpt lat="54.585347" lon="-3.259374"><ele>755</ele><time>2019-10-02T12:34:52Z</time><name>PT7705</name></trkpt>
<trkpt lat="54.585343" lon="-3.259366"><ele>755</ele><time>2019-10-02T12:34:53Z</time><name>PT7706</name></trkpt>
<trkpt lat="54.585339" lon="-3.259358"><ele>755</ele><time>2019-10-02T12:34:54Z</time><name>PT7707</name></trkpt>
<trkpt lat="54.585335" lon="-3.259351"><ele>755</ele><time>2019-10-02T12:34:55Z</time><name>PT7708</name></trkpt>
<trkpt lat="54.585330" lon="-3.259347"><ele>754</ele><time>2019-10-02T12:34:56Z</time><name>PT7709</name></trkpt>
<trkpt lat="54.585323" lon="-3.259341"><ele>754</ele><time>2019-10-02T12:34:57Z</time><name>PT7710</name></trkpt>
<trkpt lat="54.585317" lon="-3.259334"><ele>754</ele><time>2019-10-02T12:34:58Z</time><name>PT7711</name></trkpt>
<trkpt lat="54.585311" lon="-3.259330"><ele>753</ele><time>2019-10-02T12:34:59Z</time><name>PT7712</name></trkpt>
<trkpt lat="54.585305" lon="-3.259323"><ele>753</ele><time>2019-10-02T12:35:00Z</time><name>PT7713</name></trkpt>
<trkpt lat="54.585298" lon="-3.259319"><ele>753</ele><time>2019-10-02T12:35:01Z</time><name>PT7714</name></trkpt>
<trkpt lat="54.585292" lon="-3.259318"><ele>753</ele><time>2019-10-02T12:35:02Z</time><name>PT7715</name></trkpt>
<trkpt lat="54.585285" lon="-3.259320"><ele>754</ele><time>2019-10-02T12:35:03Z</time><name>PT7716</name></trkpt>
<trkpt lat="54.585279" lon="-3.259320"><ele>754</ele><time>2019-10-02T12:35:04Z</time><name>PT7717</name></trkpt>
<trkpt lat="54.585272" lon="-3.259317"><ele>754</ele><time>2019-10-02T12:35:05Z</time><name>PT7718</name></trkpt>
<trkpt lat="54.585266" lon="-3.259315"><ele>753</ele><time>2019-10-02T12:35:06Z</time><name>PT7719</name></trkpt>
<trkpt lat="54.585260" lon="-3.259317"><ele>753</ele><time>2019-10-02T12:35:07Z</time><name>PT7720</name></trkpt>
<trkpt lat="54.585255" lon="-3.259321"><ele>753</ele><time>2019-10-02T12:35:08Z</time><name>PT7721</name></trkpt>
<trkpt lat="54.585252" lon="-3.259325"><ele>754</ele><time>2019-10-02T12:35:09Z</time><name>PT7722</name></trkpt>
<trkpt lat="54.585248" lon="-3.259329"><ele>754</ele><time>2019-10-02T12:35:10Z</time><name>PT7723</name></trkpt>
<trkpt lat="54.585243" lon="-3.259329"><ele>753</ele><time>2019-10-02T12:35:11Z</time><name>PT7724</name></trkpt>
<trkpt lat="54.585237" lon="-3.259325"><ele>753</ele><time>2019-10-02T12:35:12Z</time><name>PT7725</name></trkpt>
<trkpt lat="54.585233" lon="-3.259317"><ele>753</ele><time>2019-10-02T12:35:13Z</time><name>PT7726</name></trkpt>
<trkpt lat="54.585229" lon="-3.259310"><ele>753</ele><time>2019-10-02T12:35:14Z</time><name>PT7727</name></trkpt>
<trkpt lat="54.585221" lon="-3.259314"><ele>753</ele><time>2019-10-02T12:35:15Z</time><name>PT7728</name></trkpt>
<trkpt lat="54.585212" lon="-3.259316"><ele>753</ele><time>2019-10-02T12:35:16Z</time><name>PT7729</name></trkpt>
<trkpt lat="54.585205" lon="-3.259312"><ele>753</ele><time>2019-10-02T12:35:17Z</time><name>PT7730</name></trkpt>
<trkpt lat="54.585199" lon="-3.259303"><ele>752</ele><time>2019-10-02T12:35:18Z</time><name>PT7731</name></trkpt>
<trkpt lat="54.585195" lon="-3.259298"><ele>752</ele><time>2019-10-02T12:35:19Z</time><name>PT7732</name></trkpt>
<trkpt lat="54.585191" lon="-3.259298"><ele>751</ele><time>2019-10-02T12:35:20Z</time><name>PT7733</name></trkpt>
<trkpt lat="54.585189" lon="-3.259296"><ele>751</ele><time>2019-10-02T12:35:21Z</time><name>PT7734</name></trkpt>
<trkpt lat="54.585185" lon="-3.259294"><ele>751</ele><time>2019-10-02T12:35:22Z</time><name>PT7735</name></trkpt>
<trkpt lat="54.585184" lon="-3.259294"><ele>751</ele><time>2019-10-02T12:35:23Z</time><name>PT7736</name></trkpt>
<trkpt lat="54.585180" lon="-3.259295"><ele>750</ele><time>2019-10-02T12:35:24Z</time><name>PT7737</name></trkpt>
<trkpt lat="54.585175" lon="-3.259295"><ele>750</ele><time>2019-10-02T12:35:25Z</time><name>PT7738</name></trkpt>
<trkpt lat="54.585171" lon="-3.259295"><ele>750</ele><time>2019-10-02T12:35:26Z</time><name>PT7739</name></trkpt>
<trkpt lat="54.585168" lon="-3.259290"><ele>750</ele><time>2019-10-02T12:35:27Z</time><name>PT7740</name></trkpt>
<trkpt lat="54.585165" lon="-3.259287"><ele>749</ele><time>2019-10-02T12:35:28Z</time><name>PT7741</name></trkpt>
<trkpt lat="54.585161" lon="-3.259284"><ele>749</ele><time>2019-10-02T12:35:29Z</time><name>PT7742</name></trkpt>
<trkpt lat="54.585157" lon="-3.259277"><ele>749</ele><time>2019-10-02T12:35:30Z</time><name>PT7743</name></trkpt>
<trkpt lat="54.585154" lon="-3.259270"><ele>749</ele><time>2019-10-02T12:35:31Z</time><name>PT7744</name></trkpt>
<trkpt lat="54.585152" lon="-3.259264"><ele>749</ele><time>2019-10-02T12:35:32Z</time><name>PT7745</name></trkpt>
<trkpt lat="54.585150" lon="-3.259258"><ele>748</ele><time>2019-10-02T12:35:33Z</time><name>PT7746</name></trkpt>
<trkpt lat="54.585149" lon="-3.259254"><ele>748</ele><time>2019-10-02T12:35:34Z</time><name>PT7747</name></trkpt>
<trkpt lat="54.585144" lon="-3.259252"><ele>748</ele><time>2019-10-02T12:35:35Z</time><name>PT7748</name></trkpt>
<trkpt lat="54.585141" lon="-3.259243"><ele>747</ele><time>2019-10-02T12:35:36Z</time><name>PT7749</name></trkpt>
<trkpt lat="54.585129" lon="-3.259245"><ele>746</ele><time>2019-10-02T12:35:37Z</time><name>PT7750</name></trkpt>
<trkpt lat="54.585123" lon="-3.259246"><ele>746</ele><time>2019-10-02T12:35:38Z</time><name>PT7751</name></trkpt>
<trkpt lat="54.585120" lon="-3.259240"><ele>745</ele><time>2019-10-02T12:35:39Z</time><name>PT7752</name></trkpt>
<trkpt lat="54.585117" lon="-3.259234"><ele>745</ele><time>2019-10-02T12:35:40Z</time><name>PT7753</name></trkpt>
<trkpt lat="54.585115" lon="-3.259229"><ele>745</ele><time>2019-10-02T12:35:41Z</time><name>PT7754</name></trkpt>
<trkpt lat="54.585112" lon="-3.259224"><ele>745</ele><time>2019-10-02T12:35:42Z</time><name>PT7755</name></trkpt>
<trkpt lat="54.585110" lon="-3.259222"><ele>745</ele><time>2019-10-02T12:35:43Z</time><name>PT7756</name></trkpt>
<trkpt lat="54.585107" lon="-3.259219"><ele>745</ele><time>2019-10-02T12:35:44Z</time><name>PT7757</name></trkpt>
<trkpt lat="54.585104" lon="-3.259214"><ele>744</ele><time>2019-10-02T12:35:45Z</time><name>PT7758</name></trkpt>
<trkpt lat="54.585102" lon="-3.259209"><ele>744</ele><time>2019-10-02T12:35:46Z</time><name>PT7759</name></trkpt>
<trkpt lat="54.585099" lon="-3.259206"><ele>744</ele><time>2019-10-02T12:35:47Z</time><name>PT7760</name></trkpt>
<trkpt lat="54.585097" lon="-3.259203"><ele>744</ele><time>2019-10-02T12:35:48Z</time><name>PT7761</name></trkpt>
<trkpt lat="54.585091" lon="-3.259198"><ele>744</ele><time>2019-10-02T12:35:49Z</time><name>PT7762</name></trkpt>
<trkpt lat="54.585087" lon="-3.259196"><ele>744</ele><time>2019-10-02T12:35:50Z</time><name>PT7763</name></trkpt>
<trkpt lat="54.585078" lon="-3.259196"><ele>743</ele><time>2019-10-02T12:35:51Z</time><name>PT7764</name></trkpt>
<trkpt lat="54.585073" lon="-3.259199"><ele>743</ele><time>2019-10-02T12:35:52Z</time><name>PT7765</name></trkpt>
<trkpt lat="54.585067" lon="-3.259204"><ele>742</ele><time>2019-10-02T12:35:53Z</time><name>PT7766</name></trkpt>
<trkpt lat="54.585063" lon="-3.259202"><ele>742</ele><time>2019-10-02T12:35:54Z</time><name>PT7767</name></trkpt>
<trkpt lat="54.585059" lon="-3.259203"><ele>742</ele><time>2019-10-02T12:35:55Z</time><name>PT7768</name></trkpt>
<trkpt lat="54.585055" lon="-3.259209"><ele>742</ele><time>2019-10-02T12:35:56Z</time><name>PT7769</name></trkpt>
<trkpt lat="54.585049" lon="-3.259219"><ele>741</ele><time>2019-10-02T12:35:57Z</time><name>PT7770</name></trkpt>
<trkpt lat="54.585044" lon="-3.259226"><ele>741</ele><time>2019-10-02T12:35:58Z</time><name>PT7771</name></trkpt>
<trkpt lat="54.585040" lon="-3.259231"><ele>740</ele><time>2019-10-02T12:35:59Z</time><name>PT7772</name></trkpt>
<trkpt lat="54.585036" lon="-3.259230"><ele>740</ele><time>2019-10-02T12:36:00Z</time><name>PT7773</name></trkpt>
<trkpt lat="54.585032" lon="-3.259227"><ele>740</ele><time>2019-10-02T12:36:01Z</time><name>PT7774</name></trkpt>
<trkpt lat="54.585026" lon="-3.259222"><ele>739</ele><time>2019-10-02T12:36:02Z</time><name>PT7775</name></trkpt>
<trkpt lat="54.585020" lon="-3.259218"><ele>739</ele><time>2019-10-02T12:36:03Z</time><name>PT7776</name></trkpt>
<trkpt lat="54.585017" lon="-3.259215"><ele>739</ele><time>2019-10-02T12:36:04Z</time><name>PT7777</name></trkpt>
<trkpt lat="54.585013" lon="-3.259214"><ele>738</ele><time>2019-10-02T12:36:05Z</time><name>PT7778</name></trkpt>
<trkpt lat="54.585007" lon="-3.259214"><ele>738</ele><time>2019-10-02T12:36:06Z</time><name>PT7779</name></trkpt>
<trkpt lat="54.585002" lon="-3.259215"><ele>738</ele><time>2019-10-02T12:36:07Z</time><name>PT7780</name></trkpt>
<trkpt lat="54.584995" lon="-3.259220"><ele>738</ele><time>2019-10-02T12:36:08Z</time><name>PT7781</name></trkpt>
<trkpt lat="54.584989" lon="-3.259219"><ele>738</ele><time>2019-10-02T12:36:09Z</time><name>PT7782</name></trkpt>
<trkpt lat="54.584986" lon="-3.259211"><ele>737</ele><time>2019-10-02T12:36:10Z</time><name>PT7783</name></trkpt>
<trkpt lat="54.584980" lon="-3.259206"><ele>737</ele><time>2019-10-02T12:36:11Z</time><name>PT7784</name></trkpt>
<trkpt lat="54.584976" lon="-3.259203"><ele>737</ele><time>2019-10-02T12:36:12Z</time><name>PT7785</name></trkpt>
<trkpt lat="54.584972" lon="-3.259203"><ele>737</ele><time>2019-10-02T12:36:13Z</time><name>PT7786</name></trkpt>
<trkpt lat="54.584963" lon="-3.259202"><ele>737</ele><time>2019-10-02T12:36:14Z</time><name>PT7787</name></trkpt>
<trkpt lat="54.584955" lon="-3.259201"><ele>737</ele><time>2019-10-02T12:36:15Z</time><name>PT7788</name></trkpt>
<trkpt lat="54.584949" lon="-3.259196"><ele>736</ele><time>2019-10-02T12:36:16Z</time><name>PT7789</name></trkpt>
<trkpt lat="54.584946" lon="-3.259190"><ele>736</ele><time>2019-10-02T12:36:17Z</time><name>PT7790</name></trkpt>
<trkpt lat="54.584941" lon="-3.259182"><ele>736</ele><time>2019-10-02T12:36:18Z</time><name>PT7791</name></trkpt>
<trkpt lat="54.584936" lon="-3.259176"><ele>736</ele><time>2019-10-02T12:36:19Z</time><name>PT7792</name></trkpt>
<trkpt lat="54.584936" lon="-3.259168"><ele>736</ele><time>2019-10-02T12:36:20Z</time><name>PT7793</name></trkpt>
<trkpt lat="54.584932" lon="-3.259164"><ele>736</ele><time>2019-10-02T12:36:21Z</time><name>PT7794</name></trkpt>
<trkpt lat="54.584928" lon="-3.259156"><ele>735</ele><time>2019-10-02T12:36:22Z</time><name>PT7795</name></trkpt>
<trkpt lat="54.584927" lon="-3.259148"><ele>735</ele><time>2019-10-02T12:36:23Z</time><name>PT7796</name></trkpt>
<trkpt lat="54.584923" lon="-3.259137"><ele>735</ele><time>2019-10-02T12:36:24Z</time><name>PT7797</name></trkpt>
<trkpt lat="54.584915" lon="-3.259135"><ele>734</ele><time>2019-10-02T12:36:25Z</time><name>PT7798</name></trkpt>
<trkpt lat="54.584907" lon="-3.259133"><ele>734</ele><time>2019-10-02T12:36:26Z</time><name>PT7799</name></trkpt>
<trkpt lat="54.584902" lon="-3.259126"><ele>734</ele><time>2019-10-02T12:36:27Z</time><name>PT7800</name></trkpt>
<trkpt lat="54.584900" lon="-3.259117"><ele>733</ele><time>2019-10-02T12:36:28Z</time><name>PT7801</name></trkpt>
<trkpt lat="54.584895" lon="-3.259112"><ele>733</ele><time>2019-10-02T12:36:29Z</time><name>PT7802</name></trkpt>
<trkpt lat="54.584889" lon="-3.259108"><ele>732</ele><time>2019-10-02T12:36:30Z</time><name>PT7803</name></trkpt>
<trkpt lat="54.584882" lon="-3.259105"><ele>732</ele><time>2019-10-02T12:36:31Z</time><name>PT7804</name></trkpt>
<trkpt lat="54.584876" lon="-3.259100"><ele>731</ele><time>2019-10-02T12:36:32Z</time><name>PT7805</name></trkpt>
<trkpt lat="54.584870" lon="-3.259093"><ele>731</ele><time>2019-10-02T12:36:33Z</time><name>PT7806</name></trkpt>
<trkpt lat="54.584868" lon="-3.259083"><ele>731</ele><time>2019-10-02T12:36:34Z</time><name>PT7807</name></trkpt>
<trkpt lat="54.584865" lon="-3.259073"><ele>731</ele><time>2019-10-02T12:36:35Z</time><name>PT7808</name></trkpt>
<trkpt lat="54.584862" lon="-3.259066"><ele>731</ele><time>2019-10-02T12:36:36Z</time><name>PT7809</name></trkpt>
<trkpt lat="54.584853" lon="-3.259066"><ele>731</ele><time>2019-10-02T12:36:37Z</time><name>PT7810</name></trkpt>
<trkpt lat="54.584848" lon="-3.259064"><ele>731</ele><time>2019-10-02T12:36:38Z</time><name>PT7811</name></trkpt>
<trkpt lat="54.584840" lon="-3.259058"><ele>730</ele><time>2019-10-02T12:36:39Z</time><name>PT7812</name></trkpt>
<trkpt lat="54.584832" lon="-3.259056"><ele>729</ele><time>2019-10-02T12:36:40Z</time><name>PT7813</name></trkpt>
<trkpt lat="54.584823" lon="-3.259053"><ele>729</ele><time>2019-10-02T12:36:41Z</time><name>PT7814</name></trkpt>
<trkpt lat="54.584815" lon="-3.259048"><ele>728</ele><time>2019-10-02T12:36:42Z</time><name>PT7815</name></trkpt>
<trkpt lat="54.584807" lon="-3.259044"><ele>728</ele><time>2019-10-02T12:36:43Z</time><name>PT7816</name></trkpt>
<trkpt lat="54.584803" lon="-3.259041"><ele>727</ele><time>2019-10-02T12:36:44Z</time><name>PT7817</name></trkpt>
<trkpt lat="54.584799" lon="-3.259035"><ele>727</ele><time>2019-10-02T12:36:45Z</time><name>PT7818</name></trkpt>
<trkpt lat="54.584792" lon="-3.259030"><ele>726</ele><time>2019-10-02T12:36:46Z</time><name>PT7819</name></trkpt>
<trkpt lat="54.584788" lon="-3.259022"><ele>726</ele><time>2019-10-02T12:36:47Z</time><name>PT7820</name></trkpt>
<trkpt lat="54.584782" lon="-3.259021"><ele>726</ele><time>2019-10-02T12:36:48Z</time><name>PT7821</name></trkpt>
<trkpt lat="54.584774" lon="-3.259016"><ele>726</ele><time>2019-10-02T12:36:49Z</time><name>PT7822</name></trkpt>
<trkpt lat="54.584764" lon="-3.259010"><ele>726</ele><time>2019-10-02T12:36:50Z</time><name>PT7823</name></trkpt>
<trkpt lat="54.584754" lon="-3.259000"><ele>725</ele><time>2019-10-02T12:36:51Z</time><name>PT7824</name></trkpt>
<trkpt lat="54.584747" lon="-3.258992"><ele>725</ele><time>2019-10-02T12:36:52Z</time><name>PT7825</name></trkpt>
<trkpt lat="54.584738" lon="-3.258986"><ele>725</ele><time>2019-10-02T12:36:53Z</time><name>PT7826</name></trkpt>
<trkpt lat="54.584731" lon="-3.258978"><ele>724</ele><time>2019-10-02T12:36:54Z</time><name>PT7827</name></trkpt>
<trkpt lat="54.584725" lon="-3.258973"><ele>723</ele><time>2019-10-02T12:36:55Z</time><name>PT7828</name></trkpt>
<trkpt lat="54.584719" lon="-3.258969"><ele>723</ele><time>2019-10-02T12:36:56Z</time><name>PT7829</name></trkpt>
<trkpt lat="54.584712" lon="-3.258969"><ele>723</ele><time>2019-10-02T12:36:57Z</time><name>PT7830</name></trkpt>
<trkpt lat="54.584703" lon="-3.258970"><ele>723</ele><time>2019-10-02T12:36:58Z</time><name>PT7831</name></trkpt>
<trkpt lat="54.584697" lon="-3.258966"><ele>723</ele><time>2019-10-02T12:36:59Z</time><name>PT7832</name></trkpt>
<trkpt lat="54.584686" lon="-3.258956"><ele>722</ele><time>2019-10-02T12:37:00Z</time><name>PT7833</name></trkpt>
<trkpt lat="54.584677" lon="-3.258947"><ele>721</ele><time>2019-10-02T12:37:01Z</time><name>PT7834</name></trkpt>
<trkpt lat="54.584670" lon="-3.258937"><ele>722</ele><time>2019-10-02T12:37:02Z</time><name>PT7835</name></trkpt>
<trkpt lat="54.584663" lon="-3.258930"><ele>722</ele><time>2019-10-02T12:37:03Z</time><name>PT7836</name></trkpt>
<trkpt lat="54.584655" lon="-3.258924"><ele>722</ele><time>2019-10-02T12:37:04Z</time><name>PT7837</name></trkpt>
<trkpt lat="54.584647" lon="-3.258919"><ele>721</ele><time>2019-10-02T12:37:05Z</time><name>PT7838</name></trkpt>
<trkpt lat="54.584639" lon="-3.258910"><ele>721</ele><time>2019-10-02T12:37:06Z</time><name>PT7839</name></trkpt>
<trkpt lat="54.584633" lon="-3.258907"><ele>721</ele><time>2019-10-02T12:37:07Z</time><name>PT7840</name></trkpt>
<trkpt lat="54.584628" lon="-3.258899"><ele>722</ele><time>2019-10-02T12:37:08Z</time><name>PT7841</name></trkpt>
<trkpt lat="54.584626" lon="-3.258896"><ele>722</ele><time>2019-10-02T12:37:09Z</time><name>PT7842</name></trkpt>
<trkpt lat="54.584619" lon="-3.258895"><ele>721</ele><time>2019-10-02T12:37:10Z</time><name>PT7843</name></trkpt>
<trkpt lat="54.584612" lon="-3.258897"><ele>721</ele><time>2019-10-02T12:37:11Z</time><name>PT7844</name></trkpt>
<trkpt lat="54.584605" lon="-3.258897"><ele>721</ele><time>2019-10-02T12:37:12Z</time><name>PT7845</name></trkpt>
<trkpt lat="54.584595" lon="-3.258892"><ele>720</ele><time>2019-10-02T12:37:13Z</time><name>PT7846</name></trkpt>
<trkpt lat="54.584585" lon="-3.258889"><ele>720</ele><time>2019-10-02T12:37:14Z</time><name>PT7847</name></trkpt>
<trkpt lat="54.584575" lon="-3.258890"><ele>719</ele><time>2019-10-02T12:37:15Z</time><name>PT7848</name></trkpt>
<trkpt lat="54.584563" lon="-3.258890"><ele>719</ele><time>2019-10-02T12:37:16Z</time><name>PT7849</name></trkpt>
<trkpt lat="54.584552" lon="-3.258890"><ele>718</ele><time>2019-10-02T12:37:17Z</time><name>PT7850</name></trkpt>
<trkpt lat="54.584541" lon="-3.258888"><ele>718</ele><time>2019-10-02T12:37:18Z</time><name>PT7851</name></trkpt>
<trkpt lat="54.584532" lon="-3.258887"><ele>718</ele><time>2019-10-02T12:37:19Z</time><name>PT7852</name></trkpt>
<trkpt lat="54.584525" lon="-3.258885"><ele>719</ele><time>2019-10-02T12:37:20Z</time><name>PT7853</name></trkpt>
<trkpt lat="54.584518" lon="-3.258879"><ele>719</ele><time>2019-10-02T12:37:21Z</time><name>PT7854</name></trkpt>
<trkpt lat="54.584510" lon="-3.258875"><ele>719</ele><time>2019-10-02T12:37:22Z</time><name>PT7855</name></trkpt>
<trkpt lat="54.584502" lon="-3.258875"><ele>719</ele><time>2019-10-02T12:37:23Z</time><name>PT7856</name></trkpt>
<trkpt lat="54.584494" lon="-3.258878"><ele>718</ele><time>2019-10-02T12:37:24Z</time><name>PT7857</name></trkpt>
<trkpt lat="54.584489" lon="-3.258871"><ele>718</ele><time>2019-10-02T12:37:25Z</time><name>PT7858</name></trkpt>
<trkpt lat="54.584486" lon="-3.258866"><ele>718</ele><time>2019-10-02T12:37:26Z</time><name>PT7859</name></trkpt>
<trkpt lat="54.584483" lon="-3.258869"><ele>718</ele><time>2019-10-02T12:37:27Z</time><name>PT7860</name></trkpt>
<trkpt lat="54.584483" lon="-3.258872"><ele>718</ele><time>2019-10-02T12:37:28Z</time><name>PT7861</name></trkpt>
<trkpt lat="54.584482" lon="-3.258873"><ele>718</ele><time>2019-10-02T12:37:29Z</time><name>PT7862</name></trkpt>
<trkpt lat="54.584479" lon="-3.258874"><ele>718</ele><time>2019-10-02T12:37:33Z</time><name>PT7863</name></trkpt>
<trkpt lat="54.584467" lon="-3.258879"><ele>718</ele><time>2019-10-02T12:37:34Z</time><name>PT7864</name></trkpt>
<trkpt lat="54.584458" lon="-3.258882"><ele>718</ele><time>2019-10-02T12:37:35Z</time><name>PT7865</name></trkpt>
<trkpt lat="54.584448" lon="-3.258876"><ele>718</ele><time>2019-10-02T12:37:36Z</time><name>PT7866</name></trkpt>
<trkpt lat="54.584432" lon="-3.258873"><ele>718</ele><time>2019-10-02T12:37:37Z</time><name>PT7867</name></trkpt>
<trkpt lat="54.584420" lon="-3.258872"><ele>717</ele><time>2019-10-02T12:37:38Z</time><name>PT7868</name></trkpt>
<trkpt lat="54.584407" lon="-3.258877"><ele>717</ele><time>2019-10-02T12:37:39Z</time><name>PT7869</name></trkpt>
<trkpt lat="54.584396" lon="-3.258876"><ele>717</ele><time>2019-10-02T12:37:40Z</time><name>PT7870</name></trkpt>
<trkpt lat="54.584386" lon="-3.258875"><ele>717</ele><time>2019-10-02T12:37:41Z</time><name>PT7871</name></trkpt>
<trkpt lat="54.584372" lon="-3.258872"><ele>716</ele><time>2019-10-02T12:37:42Z</time><name>PT7872</name></trkpt>
<trkpt lat="54.584360" lon="-3.258870"><ele>716</ele><time>2019-10-02T12:37:43Z</time><name>PT7873</name></trkpt>
<trkpt lat="54.584350" lon="-3.258866"><ele>716</ele><time>2019-10-02T12:37:44Z</time><name>PT7874</name></trkpt>
<trkpt lat="54.584344" lon="-3.258861"><ele>716</ele><time>2019-10-02T12:37:45Z</time><name>PT7875</name></trkpt>
<trkpt lat="54.584339" lon="-3.258857"><ele>716</ele><time>2019-10-02T12:37:46Z</time><name>PT7876</name></trkpt>
<trkpt lat="54.584332" lon="-3.258853"><ele>716</ele><time>2019-10-02T12:37:47Z</time><name>PT7877</name></trkpt>
<trkpt lat="54.584324" lon="-3.258846"><ele>716</ele><time>2019-10-02T12:37:48Z</time><name>PT7878</name></trkpt>
<trkpt lat="54.584317" lon="-3.258839"><ele>716</ele><time>2019-10-02T12:37:49Z</time><name>PT7879</name></trkpt>
<trkpt lat="54.584308" lon="-3.258833"><ele>715</ele><time>2019-10-02T12:37:50Z</time><name>PT7880</name></trkpt>
<trkpt lat="54.584300" lon="-3.258825"><ele>715</ele><time>2019-10-02T12:37:51Z</time><name>PT7881</name></trkpt>
<trkpt lat="54.584292" lon="-3.258820"><ele>715</ele><time>2019-10-02T12:37:52Z</time><name>PT7882</name></trkpt>
<trkpt lat="54.584281" lon="-3.258822"><ele>715</ele><time>2019-10-02T12:37:53Z</time><name>PT7883</name></trkpt>
<trkpt lat="54.584269" lon="-3.258827"><ele>715</ele><time>2019-10-02T12:37:54Z</time><name>PT7884</name></trkpt>
<trkpt lat="54.584258" lon="-3.258833"><ele>714</ele><time>2019-10-02T12:37:55Z</time><name>PT7885</name></trkpt>
<trkpt lat="54.584245" lon="-3.258831"><ele>714</ele><time>2019-10-02T12:37:56Z</time><name>PT7886</name></trkpt>
<trkpt lat="54.584233" lon="-3.258831"><ele>714</ele><time>2019-10-02T12:37:57Z</time><name>PT7887</name></trkpt>
<trkpt lat="54.584222" lon="-3.258830"><ele>713</ele><time>2019-10-02T12:37:58Z</time><name>PT7888</name></trkpt>
<trkpt lat="54.584210" lon="-3.258833"><ele>714</ele><time>2019-10-02T12:37:59Z</time><name>PT7889</name></trkpt>
<trkpt lat="54.584199" lon="-3.258835"><ele>714</ele><time>2019-10-02T12:38:00Z</time><name>PT7890</name></trkpt>
<trkpt lat="54.584190" lon="-3.258831"><ele>714</ele><time>2019-10-02T12:38:01Z</time><name>PT7891</name></trkpt>
<trkpt lat="54.584186" lon="-3.258827"><ele>714</ele><time>2019-10-02T12:38:02Z</time><name>PT7892</name></trkpt>
<trkpt lat="54.584180" lon="-3.258824"><ele>714</ele><time>2019-10-02T12:38:03Z</time><name>PT7893</name></trkpt>
<trkpt lat="54.584173" lon="-3.258822"><ele>714</ele><time>2019-10-02T12:38:04Z</time><name>PT7894</name></trkpt>
<trkpt lat="54.584165" lon="-3.258818"><ele>714</ele><time>2019-10-02T12:38:05Z</time><name>PT7895</name></trkpt>
<trkpt lat="54.584159" lon="-3.258814"><ele>714</ele><time>2019-10-02T12:38:06Z</time><name>PT7896</name></trkpt>
<trkpt lat="54.584153" lon="-3.258808"><ele>714</ele><time>2019-10-02T12:38:07Z</time><name>PT7897</name></trkpt>
<trkpt lat="54.584147" lon="-3.258810"><ele>714</ele><time>2019-10-02T12:38:08Z</time><name>PT7898</name></trkpt>
<trkpt lat="54.584139" lon="-3.258809"><ele>713</ele><time>2019-10-02T12:38:09Z</time><name>PT7899</name></trkpt>
<trkpt lat="54.584129" lon="-3.258812"><ele>713</ele><time>2019-10-02T12:38:10Z</time><name>PT7900</name></trkpt>
<trkpt lat="54.584119" lon="-3.258815"><ele>713</ele><time>2019-10-02T12:38:11Z</time><name>PT7901</name></trkpt>
<trkpt lat="54.584109" lon="-3.258815"><ele>712</ele><time>2019-10-02T12:38:12Z</time><name>PT7902</name></trkpt>
<trkpt lat="54.584097" lon="-3.258815"><ele>712</ele><time>2019-10-02T12:38:13Z</time><name>PT7903</name></trkpt>
<trkpt lat="54.584087" lon="-3.258812"><ele>712</ele><time>2019-10-02T12:38:14Z</time><name>PT7904</name></trkpt>
<trkpt lat="54.584077" lon="-3.258811"><ele>712</ele><time>2019-10-02T12:38:15Z</time><name>PT7905</name></trkpt>
<trkpt lat="54.584065" lon="-3.258810"><ele>712</ele><time>2019-10-02T12:38:16Z</time><name>PT7906</name></trkpt>
<trkpt lat="54.584053" lon="-3.258808"><ele>712</ele><time>2019-10-02T12:38:17Z</time><name>PT7907</name></trkpt>
<trkpt lat="54.584044" lon="-3.258809"><ele>711</ele><time>2019-10-02T12:38:18Z</time><name>PT7908</name></trkpt>
<trkpt lat="54.584034" lon="-3.258809"><ele>711</ele><time>2019-10-02T12:38:19Z</time><name>PT7909</name></trkpt>
<trkpt lat="54.584024" lon="-3.258808"><ele>710</ele><time>2019-10-02T12:38:20Z</time><name>PT7910</name></trkpt>
<trkpt lat="54.584010" lon="-3.258807"><ele>710</ele><time>2019-10-02T12:38:21Z</time><name>PT7911</name></trkpt>
<trkpt lat="54.583999" lon="-3.258805"><ele>710</ele><time>2019-10-02T12:38:22Z</time><name>PT7912</name></trkpt>
<trkpt lat="54.583990" lon="-3.258803"><ele>709</ele><time>2019-10-02T12:38:23Z</time><name>PT7913</name></trkpt>
<trkpt lat="54.583984" lon="-3.258796"><ele>708</ele><time>2019-10-02T12:38:24Z</time><name>PT7914</name></trkpt>
<trkpt lat="54.583978" lon="-3.258787"><ele>708</ele><time>2019-10-02T12:38:25Z</time><name>PT7915</name></trkpt>
<trkpt lat="54.583969" lon="-3.258784"><ele>708</ele><time>2019-10-02T12:38:26Z</time><name>PT7916</name></trkpt>
<trkpt lat="54.583959" lon="-3.258781"><ele>708</ele><time>2019-10-02T12:38:27Z</time><name>PT7917</name></trkpt>
<trkpt lat="54.583951" lon="-3.258779"><ele>708</ele><time>2019-10-02T12:38:28Z</time><name>PT7918</name></trkpt>
<trkpt lat="54.583944" lon="-3.258777"><ele>708</ele><time>2019-10-02T12:38:29Z</time><name>PT7919</name></trkpt>
<trkpt lat="54.583935" lon="-3.258779"><ele>708</ele><time>2019-10-02T12:38:30Z</time><name>PT7920</name></trkpt>
<trkpt lat="54.583927" lon="-3.258780"><ele>708</ele><time>2019-10-02T12:38:31Z</time><name>PT7921</name></trkpt>
<trkpt lat="54.583918" lon="-3.258779"><ele>708</ele><time>2019-10-02T12:38:32Z</time><name>PT7922</name></trkpt>
<trkpt lat="54.583909" lon="-3.258774"><ele>707</ele><time>2019-10-02T12:38:33Z</time><name>PT7923</name></trkpt>
<trkpt lat="54.583903" lon="-3.258761"><ele>707</ele><time>2019-10-02T12:38:34Z</time><name>PT7924</name></trkpt>
<trkpt lat="54.583897" lon="-3.258748"><ele>707</ele><time>2019-10-02T12:38:35Z</time><name>PT7925</name></trkpt>
<trkpt lat="54.583889" lon="-3.258737"><ele>707</ele><time>2019-10-02T12:38:36Z</time><name>PT7926</name></trkpt>
<trkpt lat="54.583883" lon="-3.258727"><ele>707</ele><time>2019-10-02T12:38:37Z</time><name>PT7927</name></trkpt>
<trkpt lat="54.583876" lon="-3.258717"><ele>706</ele><time>2019-10-02T12:38:38Z</time><name>PT7928</name></trkpt>
<trkpt lat="54.583868" lon="-3.258710"><ele>706</ele><time>2019-10-02T12:38:39Z</time><name>PT7929</name></trkpt>
<trkpt lat="54.583861" lon="-3.258708"><ele>706</ele><time>2019-10-02T12:38:40Z</time><name>PT7930</name></trkpt>
<trkpt lat="54.583857" lon="-3.258702"><ele>706</ele><time>2019-10-02T12:38:41Z</time><name>PT7931</name></trkpt>
<trkpt lat="54.583852" lon="-3.258693"><ele>706</ele><time>2019-10-02T12:38:42Z</time><name>PT7932</name></trkpt>
<trkpt lat="54.583847" lon="-3.258683"><ele>706</ele><time>2019-10-02T12:38:43Z</time><name>PT7933</name></trkpt>
<trkpt lat="54.583843" lon="-3.258673"><ele>706</ele><time>2019-10-02T12:38:44Z</time><name>PT7934</name></trkpt>
<trkpt lat="54.583840" lon="-3.258664"><ele>706</ele><time>2019-10-02T12:38:45Z</time><name>PT7935</name></trkpt>
<trkpt lat="54.583833" lon="-3.258658"><ele>706</ele><time>2019-10-02T12:38:46Z</time><name>PT7936</name></trkpt>
<trkpt lat="54.583828" lon="-3.258648"><ele>705</ele><time>2019-10-02T12:38:47Z</time><name>PT7937</name></trkpt>
<trkpt lat="54.583820" lon="-3.258644"><ele>705</ele><time>2019-10-02T12:38:48Z</time><name>PT7938</name></trkpt>
<trkpt lat="54.583812" lon="-3.258644"><ele>705</ele><time>2019-10-02T12:38:49Z</time><name>PT7939</name></trkpt>
<trkpt lat="54.583804" lon="-3.258644"><ele>704</ele><time>2019-10-02T12:38:50Z</time><name>PT7940</name></trkpt>
<trkpt lat="54.583796" lon="-3.258642"><ele>704</ele><time>2019-10-02T12:38:51Z</time><name>PT7941</name></trkpt>
<trkpt lat="54.583787" lon="-3.258640"><ele>704</ele><time>2019-10-02T12:38:52Z</time><name>PT7942</name></trkpt>
<trkpt lat="54.583780" lon="-3.258638"><ele>704</ele><time>2019-10-02T12:38:53Z</time><name>PT7943</name></trkpt>
<trkpt lat="54.583772" lon="-3.258635"><ele>704</ele><time>2019-10-02T12:38:54Z</time><name>PT7944</name></trkpt>
<trkpt lat="54.583768" lon="-3.258630"><ele>703</ele><time>2019-10-02T12:38:55Z</time><name>PT7945</name></trkpt>
<trkpt lat="54.583763" lon="-3.258623"><ele>703</ele><time>2019-10-02T12:38:56Z</time><name>PT7946</name></trkpt>
<trkpt lat="54.583755" lon="-3.258617"><ele>702</ele><time>2019-10-02T12:38:57Z</time><name>PT7947</name></trkpt>
<trkpt lat="54.583745" lon="-3.258613"><ele>702</ele><time>2019-10-02T12:38:58Z</time><name>PT7948</name></trkpt>
<trkpt lat="54.583738" lon="-3.258607"><ele>701</ele><time>2019-10-02T12:38:59Z</time><name>PT7949</name></trkpt>
<trkpt lat="54.583731" lon="-3.258607"><ele>701</ele><time>2019-10-02T12:39:00Z</time><name>PT7950</name></trkpt>
<trkpt lat="54.583725" lon="-3.258608"><ele>701</ele><time>2019-10-02T12:39:01Z</time><name>PT7951</name></trkpt>
<trkpt lat="54.583719" lon="-3.258607"><ele>700</ele><time>2019-10-02T12:39:02Z</time><name>PT7952</name></trkpt>
<trkpt lat="54.583713" lon="-3.258601"><ele>700</ele><time>2019-10-02T12:39:03Z</time><name>PT7953</name></trkpt>
<trkpt lat="54.583705" lon="-3.258597"><ele>699</ele><time>2019-10-02T12:39:04Z</time><name>PT7954</name></trkpt>
<trkpt lat="54.583697" lon="-3.258594"><ele>699</ele><time>2019-10-02T12:39:05Z</time><name>PT7955</name></trkpt>
<trkpt lat="54.583691" lon="-3.258589"><ele>698</ele><time>2019-10-02T12:39:06Z</time><name>PT7956</name></trkpt>
<trkpt lat="54.583686" lon="-3.258580"><ele>698</ele><time>2019-10-02T12:39:07Z</time><name>PT7957</name></trkpt>
<trkpt lat="54.583681" lon="-3.258577"><ele>698</ele><time>2019-10-02T12:39:08Z</time><name>PT7958</name></trkpt>
<trkpt lat="54.583677" lon="-3.258570"><ele>698</ele><time>2019-10-02T12:39:09Z</time><name>PT7959</name></trkpt>
<trkpt lat="54.583674" lon="-3.258567"><ele>697</ele><time>2019-10-02T12:39:10Z</time><name>PT7960</name></trkpt>
<trkpt lat="54.583670" lon="-3.258563"><ele>697</ele><time>2019-10-02T12:39:11Z</time><name>PT7961</name></trkpt>
<trkpt lat="54.583671" lon="-3.258558"><ele>696</ele><time>2019-10-02T12:39:12Z</time><name>PT7962</name></trkpt>
<trkpt lat="54.583667" lon="-3.258552"><ele>696</ele><time>2019-10-02T12:39:13Z</time><name>PT7963</name></trkpt>
<trkpt lat="54.583661" lon="-3.258547"><ele>695</ele><time>2019-10-02T12:39:14Z</time><name>PT7964</name></trkpt>
<trkpt lat="54.583657" lon="-3.258537"><ele>695</ele><time>2019-10-02T12:39:15Z</time><name>PT7965</name></trkpt>
<trkpt lat="54.583650" lon="-3.258529"><ele>695</ele><time>2019-10-02T12:39:16Z</time><name>PT7966</name></trkpt>
<trkpt lat="54.583644" lon="-3.258518"><ele>696</ele><time>2019-10-02T12:39:17Z</time><name>PT7967</name></trkpt>
<trkpt lat="54.583637" lon="-3.258510"><ele>695</ele><time>2019-10-02T12:39:18Z</time><name>PT7968</name></trkpt>
<trkpt lat="54.583633" lon="-3.258504"><ele>695</ele><time>2019-10-02T12:39:19Z</time><name>PT7969</name></trkpt>
<trkpt lat="54.583628" lon="-3.258497"><ele>695</ele><time>2019-10-02T12:39:20Z</time><name>PT7970</name></trkpt>
<trkpt lat="54.583622" lon="-3.258491"><ele>695</ele><time>2019-10-02T12:39:21Z</time><name>PT7971</name></trkpt>
<trkpt lat="54.583617" lon="-3.258485"><ele>694</ele><time>2019-10-02T12:39:22Z</time><name>PT7972</name></trkpt>
<trkpt lat="54.583610" lon="-3.258479"><ele>694</ele><time>2019-10-02T12:39:23Z</time><name>PT7973</name></trkpt>
<trkpt lat="54.583598" lon="-3.258475"><ele>693</ele><time>2019-10-02T12:39:24Z</time><name>PT7974</name></trkpt>
<trkpt lat="54.583586" lon="-3.258464"><ele>693</ele><time>2019-10-02T12:39:25Z</time><name>PT7975</name></trkpt>
<trkpt lat="54.583579" lon="-3.258455"><ele>693</ele><time>2019-10-02T12:39:26Z</time><name>PT7976</name></trkpt>
<trkpt lat="54.583572" lon="-3.258444"><ele>693</ele><time>2019-10-02T12:39:27Z</time><name>PT7977</name></trkpt>
<trkpt lat="54.583565" lon="-3.258434"><ele>693</ele><time>2019-10-02T12:39:28Z</time><name>PT7978</name></trkpt>
<trkpt lat="54.583558" lon="-3.258424"><ele>692</ele><time>2019-10-02T12:39:29Z</time><name>PT7979</name></trkpt>
<trkpt lat="54.583550" lon="-3.258415"><ele>692</ele><time>2019-10-02T12:39:30Z</time><name>PT7980</name></trkpt>
<trkpt lat="54.583543" lon="-3.258405"><ele>692</ele><time>2019-10-02T12:39:31Z</time><name>PT7981</name></trkpt>
<trkpt lat="54.583536" lon="-3.258396"><ele>692</ele><time>2019-10-02T12:39:32Z</time><name>PT7982</name></trkpt>
<trkpt lat="54.583532" lon="-3.258385"><ele>692</ele><time>2019-10-02T12:39:33Z</time><name>PT7983</name></trkpt>
<trkpt lat="54.583522" lon="-3.258379"><ele>691</ele><time>2019-10-02T12:39:34Z</time><name>PT7984</name></trkpt>
<trkpt lat="54.583512" lon="-3.258375"><ele>691</ele><time>2019-10-02T12:39:35Z</time><name>PT7985</name></trkpt>
<trkpt lat="54.583501" lon="-3.258373"><ele>690</ele><time>2019-10-02T12:39:36Z</time><name>PT7986</name></trkpt>
<trkpt lat="54.583490" lon="-3.258374"><ele>690</ele><time>2019-10-02T12:39:37Z</time><name>PT7987</name></trkpt>
<trkpt lat="54.583480" lon="-3.258374"><ele>689</ele><time>2019-10-02T12:39:38Z</time><name>PT7988</name></trkpt>
<trkpt lat="54.583472" lon="-3.258374"><ele>689</ele><time>2019-10-02T12:39:39Z</time><name>PT7989</name></trkpt>
<trkpt lat="54.583465" lon="-3.258370"><ele>689</ele><time>2019-10-02T12:39:40Z</time><name>PT7990</name></trkpt>
<trkpt lat="54.583460" lon="-3.258373"><ele>689</ele><time>2019-10-02T12:39:41Z</time><name>PT7991</name></trkpt>
<trkpt lat="54.583453" lon="-3.258377"><ele>689</ele><time>2019-10-02T12:39:42Z</time><name>PT7992</name></trkpt>
<trkpt lat="54.583448" lon="-3.258382"><ele>688</ele><time>2019-10-02T12:39:43Z</time><name>PT7993</name></trkpt>
<trkpt lat="54.583442" lon="-3.258388"><ele>688</ele><time>2019-10-02T12:39:44Z</time><name>PT7994</name></trkpt>
<trkpt lat="54.583436" lon="-3.258398"><ele>688</ele><time>2019-10-02T12:39:45Z</time><name>PT7995</name></trkpt>
<trkpt lat="54.583427" lon="-3.258401"><ele>688</ele><time>2019-10-02T12:39:46Z</time><name>PT7996</name></trkpt>
<trkpt lat="54.583419" lon="-3.258398"><ele>688</ele><time>2019-10-02T12:39:47Z</time><name>PT7997</name></trkpt>
<trkpt lat="54.583412" lon="-3.258387"><ele>688</ele><time>2019-10-02T12:39:48Z</time><name>PT7998</name></trkpt>
<trkpt lat="54.583405" lon="-3.258375"><ele>687</ele><time>2019-10-02T12:39:49Z</time><name>PT7999</name></trkpt>
<trkpt lat="54.583400" lon="-3.258368"><ele>687</ele><time>2019-10-02T12:39:50Z</time><name>PT8000</name></trkpt>
<trkpt lat="54.583396" lon="-3.258365"><ele>687</ele><time>2019-10-02T12:39:51Z</time><name>PT8001</name></trkpt>
<trkpt lat="54.583390" lon="-3.258360"><ele>686</ele><time>2019-10-02T12:39:52Z</time><name>PT8002</name></trkpt>
<trkpt lat="54.583386" lon="-3.258351"><ele>686</ele><time>2019-10-02T12:39:53Z</time><name>PT8003</name></trkpt>
<trkpt lat="54.583386" lon="-3.258344"><ele>686</ele><time>2019-10-02T12:39:54Z</time><name>PT8004</name></trkpt>
<trkpt lat="54.583384" lon="-3.258338"><ele>686</ele><time>2019-10-02T12:39:55Z</time><name>PT8005</name></trkpt>
<trkpt lat="54.583380" lon="-3.258334"><ele>686</ele><time>2019-10-02T12:39:56Z</time><name>PT8006</name></trkpt>
<trkpt lat="54.583373" lon="-3.258327"><ele>685</ele><time>2019-10-02T12:39:57Z</time><name>PT8007</name></trkpt>
<trkpt lat="54.583371" lon="-3.258322"><ele>685</ele><time>2019-10-02T12:39:58Z</time><name>PT8008</name></trkpt>
<trkpt lat="54.583368" lon="-3.258322"><ele>685</ele><time>2019-10-02T12:39:59Z</time><name>PT8009</name></trkpt>
<trkpt lat="54.583367" lon="-3.258322"><ele>685</ele><time>2019-10-02T12:40:00Z</time><name>PT8010</name></trkpt>
<trkpt lat="54.583365" lon="-3.258321"><ele>685</ele><time>2019-10-02T12:40:01Z</time><name>PT8011</name></trkpt>
<trkpt lat="54.583356" lon="-3.258313"><ele>685</ele><time>2019-10-02T12:40:17Z</time><name>PT8012</name></trkpt>
<trkpt lat="54.583346" lon="-3.258295"><ele>684</ele><time>2019-10-02T12:40:18Z</time><name>PT8013</name></trkpt>
<trkpt lat="54.583336" lon="-3.258293"><ele>684</ele><time>2019-10-02T12:40:19Z</time><name>PT8014</name></trkpt>
<trkpt lat="54.583320" lon="-3.258279"><ele>684</ele><time>2019-10-02T12:40:20Z</time><name>PT8015</name></trkpt>
<trkpt lat="54.583310" lon="-3.258271"><ele>683</ele><time>2019-10-02T12:40:21Z</time><name>PT8016</name></trkpt>
<trkpt lat="54.583301" lon="-3.258264"><ele>683</ele><time>2019-10-02T12:40:22Z</time><name>PT8017</name></trkpt>
<trkpt lat="54.583290" lon="-3.258253"><ele>682</ele><time>2019-10-02T12:40:23Z</time><name>PT8018</name></trkpt>
<trkpt lat="54.583280" lon="-3.258245"><ele>682</ele><time>2019-10-02T12:40:24Z</time><name>PT8019</name></trkpt>
<trkpt lat="54.583271" lon="-3.258234"><ele>682</ele><time>2019-10-02T12:40:25Z</time><name>PT8020</name></trkpt>
<trkpt lat="54.583258" lon="-3.258231"><ele>681</ele><time>2019-10-02T12:40:26Z</time><name>PT8021</name></trkpt>
<trkpt lat="54.583245" lon="-3.258226"><ele>680</ele><time>2019-10-02T12:40:27Z</time><name>PT8022</name></trkpt>
<trkpt lat="54.583235" lon="-3.258213"><ele>680</ele><time>2019-10-02T12:40:28Z</time><name>PT8023</name></trkpt>
<trkpt lat="54.583223" lon="-3.258204"><ele>680</ele><time>2019-10-02T12:40:29Z</time><name>PT8024</name></trkpt>
<trkpt lat="54.583211" lon="-3.258196"><ele>680</ele><time>2019-10-02T12:40:30Z</time><name>PT8025</name></trkpt>
<trkpt lat="54.583201" lon="-3.258203"><ele>680</ele><time>2019-10-02T12:40:31Z</time><name>PT8026</name></trkpt>
<trkpt lat="54.583191" lon="-3.258210"><ele>679</ele><time>2019-10-02T12:40:32Z</time><name>PT8027</name></trkpt>
<trkpt lat="54.583181" lon="-3.258215"><ele>679</ele><time>2019-10-02T12:40:33Z</time><name>PT8028</name></trkpt>
<trkpt lat="54.583173" lon="-3.258217"><ele>679</ele><time>2019-10-02T12:40:34Z</time><name>PT8029</name></trkpt>
<trkpt lat="54.583164" lon="-3.258219"><ele>679</ele><time>2019-10-02T12:40:35Z</time><name>PT8030</name></trkpt>
<trkpt lat="54.583154" lon="-3.258224"><ele>679</ele><time>2019-10-02T12:40:36Z</time><name>PT8031</name></trkpt>
<trkpt lat="54.583145" lon="-3.258229"><ele>678</ele><time>2019-10-02T12:40:37Z</time><name>PT8032</name></trkpt>
<trkpt lat="54.583133" lon="-3.258234"><ele>678</ele><time>2019-10-02T12:40:38Z</time><name>PT8033</name></trkpt>
<trkpt lat="54.583123" lon="-3.258236"><ele>678</ele><time>2019-10-02T12:40:39Z</time><name>PT8034</name></trkpt>
<trkpt lat="54.583114" lon="-3.258240"><ele>677</ele><time>2019-10-02T12:40:40Z</time><name>PT8035</name></trkpt>
<trkpt lat="54.583107" lon="-3.258242"><ele>677</ele><time>2019-10-02T12:40:41Z</time><name>PT8036</name></trkpt>
<trkpt lat="54.583100" lon="-3.258244"><ele>677</ele><time>2019-10-02T12:40:42Z</time><name>PT8037</name></trkpt>
<trkpt lat="54.583092" lon="-3.258244"><ele>676</ele><time>2019-10-02T12:40:43Z</time><name>PT8038</name></trkpt>
<trkpt lat="54.583082" lon="-3.258244"><ele>676</ele><time>2019-10-02T12:40:44Z</time><name>PT8039</name></trkpt>
<trkpt lat="54.583071" lon="-3.258241"><ele>676</ele><time>2019-10-02T12:40:45Z</time><name>PT8040</name></trkpt>
<trkpt lat="54.583064" lon="-3.258240"><ele>676</ele><time>2019-10-02T12:40:46Z</time><name>PT8041</name></trkpt>
<trkpt lat="54.583054" lon="-3.258233"><ele>676</ele><time>2019-10-02T12:40:47Z</time><name>PT8042</name></trkpt>
<trkpt lat="54.583044" lon="-3.258225"><ele>676</ele><time>2019-10-02T12:40:48Z</time><name>PT8043</name></trkpt>
<trkpt lat="54.583031" lon="-3.258215"><ele>675</ele><time>2019-10-02T12:40:49Z</time><name>PT8044</name></trkpt>
<trkpt lat="54.583022" lon="-3.258210"><ele>675</ele><time>2019-10-02T12:40:50Z</time><name>PT8045</name></trkpt>
<trkpt lat="54.583010" lon="-3.258206"><ele>675</ele><time>2019-10-02T12:40:51Z</time><name>PT8046</name></trkpt>
<trkpt lat="54.583001" lon="-3.258196"><ele>674</ele><time>2019-10-02T12:40:52Z</time><name>PT8047</name></trkpt>
<trkpt lat="54.582990" lon="-3.258185"><ele>673</ele><time>2019-10-02T12:40:52Z</time><name>PT8048</name></trkpt>
<trkpt lat="54.582981" lon="-3.258175"><ele>673</ele><time>2019-10-02T12:40:54Z</time><name>PT8049</name></trkpt>
<trkpt lat="54.582971" lon="-3.258167"><ele>672</ele><time>2019-10-02T12:40:55Z</time><name>PT8050</name></trkpt>
<trkpt lat="54.582961" lon="-3.258159"><ele>671</ele><time>2019-10-02T12:40:56Z</time><name>PT8051</name></trkpt>
<trkpt lat="54.582950" lon="-3.258149"><ele>671</ele><time>2019-10-02T12:40:57Z</time><name>PT8052</name></trkpt>
<trkpt lat="54.582944" lon="-3.258138"><ele>671</ele><time>2019-10-02T12:40:58Z</time><name>PT8053</name></trkpt>
<trkpt lat="54.582934" lon="-3.258123"><ele>670</ele><time>2019-10-02T12:40:59Z</time><name>PT8054</name></trkpt>
<trkpt lat="54.582925" lon="-3.258110"><ele>670</ele><time>2019-10-02T12:41:00Z</time><name>PT8055</name></trkpt>
<trkpt lat="54.582919" lon="-3.258100"><ele>669</ele><time>2019-10-02T12:41:01Z</time><name>PT8056</name></trkpt>
<trkpt lat="54.582908" lon="-3.258093"><ele>669</ele><time>2019-10-02T12:41:02Z</time><name>PT8057</name></trkpt>
<trkpt lat="54.582902" lon="-3.258081"><ele>668</ele><time>2019-10-02T12:41:03Z</time><name>PT8058</name></trkpt>
<trkpt lat="54.582893" lon="-3.258072"><ele>668</ele><time>2019-10-02T12:41:04Z</time><name>PT8059</name></trkpt>
<trkpt lat="54.582888" lon="-3.258061"><ele>666</ele><time>2019-10-02T12:41:05Z</time><name>PT8060</name></trkpt>
<trkpt lat="54.582881" lon="-3.258051"><ele>666</ele><time>2019-10-02T12:41:06Z</time><name>PT8061</name></trkpt>
<trkpt lat="54.582874" lon="-3.258041"><ele>666</ele><time>2019-10-02T12:41:07Z</time><name>PT8062</name></trkpt>
<trkpt lat="54.582867" lon="-3.258033"><ele>666</ele><time>2019-10-02T12:41:08Z</time><name>PT8063</name></trkpt>
<trkpt lat="54.582859" lon="-3.258025"><ele>666</ele><time>2019-10-02T12:41:09Z</time><name>PT8064</name></trkpt>
<trkpt lat="54.582847" lon="-3.258023"><ele>665</ele><time>2019-10-02T12:41:10Z</time><name>PT8065</name></trkpt>
<trkpt lat="54.582838" lon="-3.258017"><ele>665</ele><time>2019-10-02T12:41:11Z</time><name>PT8066</name></trkpt>
<trkpt lat="54.582830" lon="-3.258010"><ele>664</ele><time>2019-10-02T12:41:12Z</time><name>PT8067</name></trkpt>
<trkpt lat="54.582822" lon="-3.258003"><ele>664</ele><time>2019-10-02T12:41:13Z</time><name>PT8068</name></trkpt>
<trkpt lat="54.582814" lon="-3.258001"><ele>663</ele><time>2019-10-02T12:41:14Z</time><name>PT8069</name></trkpt>
<trkpt lat="54.582805" lon="-3.258000"><ele>663</ele><time>2019-10-02T12:41:15Z</time><name>PT8070</name></trkpt>
<trkpt lat="54.582798" lon="-3.257998"><ele>663</ele><time>2019-10-02T12:41:16Z</time><name>PT8071</name></trkpt>
<trkpt lat="54.582788" lon="-3.257999"><ele>663</ele><time>2019-10-02T12:41:17Z</time><name>PT8072</name></trkpt>
<trkpt lat="54.582779" lon="-3.257998"><ele>663</ele><time>2019-10-02T12:41:18Z</time><name>PT8073</name></trkpt>
<trkpt lat="54.582770" lon="-3.257993"><ele>662</ele><time>2019-10-02T12:41:19Z</time><name>PT8074</name></trkpt>
<trkpt lat="54.582762" lon="-3.257984"><ele>662</ele><time>2019-10-02T12:41:20Z</time><name>PT8075</name></trkpt>
<trkpt lat="54.582756" lon="-3.257971"><ele>662</ele><time>2019-10-02T12:41:21Z</time><name>PT8076</name></trkpt>
<trkpt lat="54.582750" lon="-3.257959"><ele>661</ele><time>2019-10-02T12:41:22Z</time><name>PT8077</name></trkpt>
<trkpt lat="54.582744" lon="-3.257948"><ele>661</ele><time>2019-10-02T12:41:23Z</time><name>PT8078</name></trkpt>
<trkpt lat="54.582739" lon="-3.257942"><ele>661</ele><time>2019-10-02T12:41:24Z</time><name>PT8079</name></trkpt>
<trkpt lat="54.582732" lon="-3.257933"><ele>661</ele><time>2019-10-02T12:41:25Z</time><name>PT8080</name></trkpt>
<trkpt lat="54.582725" lon="-3.257923"><ele>661</ele><time>2019-10-02T12:41:26Z</time><name>PT8081</name></trkpt>
<trkpt lat="54.582717" lon="-3.257909"><ele>661</ele><time>2019-10-02T12:41:27Z</time><name>PT8082</name></trkpt>
<trkpt lat="54.582711" lon="-3.257893"><ele>661</ele><time>2019-10-02T12:41:28Z</time><name>PT8083</name></trkpt>
<trkpt lat="54.582707" lon="-3.257879"><ele>661</ele><time>2019-10-02T12:41:29Z</time><name>PT8084</name></trkpt>
<trkpt lat="54.582704" lon="-3.257868"><ele>661</ele><time>2019-10-02T12:41:30Z</time><name>PT8085</name></trkpt>
<trkpt lat="54.582700" lon="-3.257854"><ele>661</ele><time>2019-10-02T12:41:31Z</time><name>PT8086</name></trkpt>
<trkpt lat="54.582698" lon="-3.257838"><ele>661</ele><time>2019-10-02T12:41:32Z</time><name>PT8087</name></trkpt>
<trkpt lat="54.582693" lon="-3.257827"><ele>660</ele><time>2019-10-02T12:41:33Z</time><name>PT8088</name></trkpt>
<trkpt lat="54.582687" lon="-3.257819"><ele>660</ele><time>2019-10-02T12:41:34Z</time><name>PT8089</name></trkpt>
<trkpt lat="54.582679" lon="-3.257812"><ele>660</ele><time>2019-10-02T12:41:35Z</time><name>PT8090</name></trkpt>
<trkpt lat="54.582673" lon="-3.257807"><ele>660</ele><time>2019-10-02T12:41:36Z</time><name>PT8091</name></trkpt>
<trkpt lat="54.582668" lon="-3.257801"><ele>660</ele><time>2019-10-02T12:41:37Z</time><name>PT8092</name></trkpt>
<trkpt lat="54.582663" lon="-3.257790"><ele>659</ele><time>2019-10-02T12:41:38Z</time><name>PT8093</name></trkpt>
<trkpt lat="54.582661" lon="-3.257777"><ele>659</ele><time>2019-10-02T12:41:39Z</time><name>PT8094</name></trkpt>
<trkpt lat="54.582657" lon="-3.257766"><ele>659</ele><time>2019-10-02T12:41:40Z</time><name>PT8095</name></trkpt>
<trkpt lat="54.582648" lon="-3.257757"><ele>659</ele><time>2019-10-02T12:41:41Z</time><name>PT8096</name></trkpt>
<trkpt lat="54.582641" lon="-3.257748"><ele>658</ele><time>2019-10-02T12:41:42Z</time><name>PT8097</name></trkpt>
<trkpt lat="54.582635" lon="-3.257741"><ele>658</ele><time>2019-10-02T12:41:43Z</time><name>PT8098</name></trkpt>
<trkpt lat="54.582629" lon="-3.257736"><ele>658</ele><time>2019-10-02T12:41:44Z</time><name>PT8099</name></trkpt>
<trkpt lat="54.582622" lon="-3.257730"><ele>658</ele><time>2019-10-02T12:41:45Z</time><name>PT8100</name></trkpt>
<trkpt lat="54.582616" lon="-3.257720"><ele>658</ele><time>2019-10-02T12:41:46Z</time><name>PT8101</name></trkpt>
<trkpt lat="54.582609" lon="-3.257713"><ele>658</ele><time>2019-10-02T12:41:46Z</time><name>PT8102</name></trkpt>
<trkpt lat="54.582603" lon="-3.257707"><ele>658</ele><time>2019-10-02T12:41:48Z</time><name>PT8103</name></trkpt>
<trkpt lat="54.582597" lon="-3.257703"><ele>658</ele><time>2019-10-02T12:41:49Z</time><name>PT8104</name></trkpt>
<trkpt lat="54.582590" lon="-3.257697"><ele>657</ele><time>2019-10-02T12:41:50Z</time><name>PT8105</name></trkpt>
<trkpt lat="54.582586" lon="-3.257692"><ele>657</ele><time>2019-10-02T12:41:50Z</time><name>PT8106</name></trkpt>
<trkpt lat="54.582578" lon="-3.257689"><ele>657</ele><time>2019-10-02T12:41:52Z</time><name>PT8107</name></trkpt>
<trkpt lat="54.582568" lon="-3.257687"><ele>656</ele><time>2019-10-02T12:41:53Z</time><name>PT8108</name></trkpt>
<trkpt lat="54.582558" lon="-3.257684"><ele>656</ele><time>2019-10-02T12:41:54Z</time><name>PT8109</name></trkpt>
<trkpt lat="54.582550" lon="-3.257676"><ele>656</ele><time>2019-10-02T12:41:55Z</time><name>PT8110</name></trkpt>
<trkpt lat="54.582545" lon="-3.257667"><ele>656</ele><time>2019-10-02T12:41:56Z</time><name>PT8111</name></trkpt>
<trkpt lat="54.582537" lon="-3.257660"><ele>656</ele><time>2019-10-02T12:41:57Z</time><name>PT8112</name></trkpt>
<trkpt lat="54.582530" lon="-3.257653"><ele>656</ele><time>2019-10-02T12:41:58Z</time><name>PT8113</name></trkpt>
<trkpt lat="54.582523" lon="-3.257646"><ele>656</ele><time>2019-10-02T12:41:59Z</time><name>PT8114</name></trkpt>
<trkpt lat="54.582517" lon="-3.257636"><ele>655</ele><time>2019-10-02T12:42:00Z</time><name>PT8115</name></trkpt>
<trkpt lat="54.582507" lon="-3.257634"><ele>655</ele><time>2019-10-02T12:42:01Z</time><name>PT8116</name></trkpt>
<trkpt lat="54.582496" lon="-3.257632"><ele>655</ele><time>2019-10-02T12:42:02Z</time><name>PT8117</name></trkpt>
<trkpt lat="54.582488" lon="-3.257630"><ele>654</ele><time>2019-10-02T12:42:03Z</time><name>PT8118</name></trkpt>
<trkpt lat="54.582480" lon="-3.257628"><ele>654</ele><time>2019-10-02T12:42:04Z</time><name>PT8119</name></trkpt>
<trkpt lat="54.582474" lon="-3.257621"><ele>654</ele><time>2019-10-02T12:42:05Z</time><name>PT8120</name></trkpt>
<trkpt lat="54.582470" lon="-3.257614"><ele>654</ele><time>2019-10-02T12:42:06Z</time><name>PT8121</name></trkpt>
<trkpt lat="54.582469" lon="-3.257604"><ele>655</ele><time>2019-10-02T12:42:07Z</time><name>PT8122</name></trkpt>
<trkpt lat="54.582465" lon="-3.257597"><ele>655</ele><time>2019-10-02T12:42:08Z</time><name>PT8123</name></trkpt>
<trkpt lat="54.582457" lon="-3.257594"><ele>655</ele><time>2019-10-02T12:42:09Z</time><name>PT8124</name></trkpt>
<trkpt lat="54.582447" lon="-3.257594"><ele>655</ele><time>2019-10-02T12:42:10Z</time><name>PT8125</name></trkpt>
<trkpt lat="54.582437" lon="-3.257599"><ele>654</ele><time>2019-10-02T12:42:11Z</time><name>PT8126</name></trkpt>
<trkpt lat="54.582427" lon="-3.257603"><ele>654</ele><time>2019-10-02T12:42:12Z</time><name>PT8127</name></trkpt>
<trkpt lat="54.582419" lon="-3.257603"><ele>654</ele><time>2019-10-02T12:42:13Z</time><name>PT8128</name></trkpt>
<trkpt lat="54.582408" lon="-3.257608"><ele>653</ele><time>2019-10-02T12:42:14Z</time><name>PT8129</name></trkpt>
<trkpt lat="54.582401" lon="-3.257607"><ele>651</ele><time>2019-10-02T12:42:15Z</time><name>PT8130</name></trkpt>
<trkpt lat="54.582392" lon="-3.257609"><ele>651</ele><time>2019-10-02T12:42:16Z</time><name>PT8131</name></trkpt>
<trkpt lat="54.582380" lon="-3.257616"><ele>650</ele><time>2019-10-02T12:42:17Z</time><name>PT8132</name></trkpt>
<trkpt lat="54.582370" lon="-3.257619"><ele>650</ele><time>2019-10-02T12:42:18Z</time><name>PT8133</name></trkpt>
<trkpt lat="54.582361" lon="-3.257617"><ele>650</ele><time>2019-10-02T12:42:19Z</time><name>PT8134</name></trkpt>
<trkpt lat="54.582351" lon="-3.257617"><ele>650</ele><time>2019-10-02T12:42:20Z</time><name>PT8135</name></trkpt>
<trkpt lat="54.582341" lon="-3.257617"><ele>650</ele><time>2019-10-02T12:42:21Z</time><name>PT8136</name></trkpt>
<trkpt lat="54.582331" lon="-3.257613"><ele>650</ele><time>2019-10-02T12:42:22Z</time><name>PT8137</name></trkpt>
<trkpt lat="54.582319" lon="-3.257606"><ele>650</ele><time>2019-10-02T12:42:23Z</time><name>PT8138</name></trkpt>
<trkpt lat="54.582314" lon="-3.257594"><ele>649</ele><time>2019-10-02T12:42:24Z</time><name>PT8139</name></trkpt>
<trkpt lat="54.582312" lon="-3.257577"><ele>649</ele><time>2019-10-02T12:42:25Z</time><name>PT8140</name></trkpt>
<trkpt lat="54.582310" lon="-3.257563"><ele>648</ele><time>2019-10-02T12:42:26Z</time><name>PT8141</name></trkpt>
<trkpt lat="54.582300" lon="-3.257558"><ele>648</ele><time>2019-10-02T12:42:27Z</time><name>PT8142</name></trkpt>
<trkpt lat="54.582290" lon="-3.257558"><ele>648</ele><time>2019-10-02T12:42:28Z</time><name>PT8143</name></trkpt>
<trkpt lat="54.582282" lon="-3.257559"><ele>648</ele><time>2019-10-02T12:42:29Z</time><name>PT8144</name></trkpt>
<trkpt lat="54.582273" lon="-3.257558"><ele>648</ele><time>2019-10-02T12:42:30Z</time><name>PT8145</name></trkpt>
<trkpt lat="54.582263" lon="-3.257552"><ele>648</ele><time>2019-10-02T12:42:31Z</time><name>PT8146</name></trkpt>
<trkpt lat="54.582258" lon="-3.257543"><ele>647</ele><time>2019-10-02T12:42:32Z</time><name>PT8147</name></trkpt>
<trkpt lat="54.582252" lon="-3.257541"><ele>647</ele><time>2019-10-02T12:42:33Z</time><name>PT8148</name></trkpt>
<trkpt lat="54.582243" lon="-3.257539"><ele>647</ele><time>2019-10-02T12:42:34Z</time><name>PT8149</name></trkpt>
<trkpt lat="54.582237" lon="-3.257540"><ele>648</ele><time>2019-10-02T12:42:35Z</time><name>PT8150</name></trkpt>
<trkpt lat="54.582229" lon="-3.257544"><ele>647</ele><time>2019-10-02T12:42:36Z</time><name>PT8151</name></trkpt>
<trkpt lat="54.582220" lon="-3.257547"><ele>647</ele><time>2019-10-02T12:42:37Z</time><name>PT8152</name></trkpt>
<trkpt lat="54.582212" lon="-3.257549"><ele>647</ele><time>2019-10-02T12:42:38Z</time><name>PT8153</name></trkpt>
<trkpt lat="54.582205" lon="-3.257551"><ele>647</ele><time>2019-10-02T12:42:39Z</time><name>PT8154</name></trkpt>
<trkpt lat="54.582201" lon="-3.257549"><ele>647</ele><time>2019-10-02T12:42:40Z</time><name>PT8155</name></trkpt>
<trkpt lat="54.582198" lon="-3.257545"><ele>647</ele><time>2019-10-02T12:42:41Z</time><name>PT8156</name></trkpt>
<trkpt lat="54.582195" lon="-3.257538"><ele>646</ele><time>2019-10-02T12:42:42Z</time><name>PT8157</name></trkpt>
<trkpt lat="54.582192" lon="-3.257534"><ele>646</ele><time>2019-10-02T12:42:43Z</time><name>PT8158</name></trkpt>
<trkpt lat="54.582194" lon="-3.257536"><ele>646</ele><time>2019-10-02T12:42:47Z</time><name>PT8159</name></trkpt>
<trkpt lat="54.582191" lon="-3.257533"><ele>646</ele><time>2019-10-02T12:42:48Z</time><name>PT8160</name></trkpt>
<trkpt lat="54.582184" lon="-3.257529"><ele>646</ele><time>2019-10-02T12:42:49Z</time><name>PT8161</name></trkpt>
<trkpt lat="54.582168" lon="-3.257529"><ele>645</ele><time>2019-10-02T12:42:50Z</time><name>PT8162</name></trkpt>
<trkpt lat="54.582155" lon="-3.257531"><ele>645</ele><time>2019-10-02T12:42:51Z</time><name>PT8163</name></trkpt>
<trkpt lat="54.582148" lon="-3.257532"><ele>645</ele><time>2019-10-02T12:42:52Z</time><name>PT8164</name></trkpt>
<trkpt lat="54.582140" lon="-3.257533"><ele>645</ele><time>2019-10-02T12:42:53Z</time><name>PT8165</name></trkpt>
<trkpt lat="54.582134" lon="-3.257537"><ele>645</ele><time>2019-10-02T12:42:54Z</time><name>PT8166</name></trkpt>
<trkpt lat="54.582132" lon="-3.257541"><ele>645</ele><time>2019-10-02T12:42:54Z</time><name>PT8167</name></trkpt>
<trkpt lat="54.582128" lon="-3.257548"><ele>644</ele><time>2019-10-02T12:42:56Z</time><name>PT8168</name></trkpt>
<trkpt lat="54.582122" lon="-3.257546"><ele>643</ele><time>2019-10-02T12:42:56Z</time><name>PT8169</name></trkpt>
<trkpt lat="54.582116" lon="-3.257538"><ele>643</ele><time>2019-10-02T12:42:58Z</time><name>PT8170</name></trkpt>
<trkpt lat="54.582108" lon="-3.257534"><ele>642</ele><time>2019-10-02T12:42:59Z</time><name>PT8171</name></trkpt>
<trkpt lat="54.582100" lon="-3.257538"><ele>642</ele><time>2019-10-02T12:43:00Z</time><name>PT8172</name></trkpt>
<trkpt lat="54.582093" lon="-3.257535"><ele>642</ele><time>2019-10-02T12:43:01Z</time><name>PT8173</name></trkpt>
<trkpt lat="54.582084" lon="-3.257532"><ele>642</ele><time>2019-10-02T12:43:02Z</time><name>PT8174</name></trkpt>
<trkpt lat="54.582077" lon="-3.257528"><ele>642</ele><time>2019-10-02T12:43:03Z</time><name>PT8175</name></trkpt>
<trkpt lat="54.582066" lon="-3.257529"><ele>641</ele><time>2019-10-02T12:43:04Z</time><name>PT8176</name></trkpt>
<trkpt lat="54.582058" lon="-3.257530"><ele>641</ele><time>2019-10-02T12:43:05Z</time><name>PT8177</name></trkpt>
<trkpt lat="54.582047" lon="-3.257535"><ele>641</ele><time>2019-10-02T12:43:06Z</time><name>PT8178</name></trkpt>
<trkpt lat="54.582038" lon="-3.257538"><ele>641</ele><time>2019-10-02T12:43:07Z</time><name>PT8179</name></trkpt>
<trkpt lat="54.582028" lon="-3.257539"><ele>641</ele><time>2019-10-02T12:43:08Z</time><name>PT8180</name></trkpt>
<trkpt lat="54.582018" lon="-3.257542"><ele>640</ele><time>2019-10-02T12:43:09Z</time><name>PT8181</name></trkpt>
<trkpt lat="54.582010" lon="-3.257543"><ele>639</ele><time>2019-10-02T12:43:10Z</time><name>PT8182</name></trkpt>
<trkpt lat="54.582001" lon="-3.257545"><ele>639</ele><time>2019-10-02T12:43:11Z</time><name>PT8183</name></trkpt>
<trkpt lat="54.581992" lon="-3.257549"><ele>640</ele><time>2019-10-02T12:43:12Z</time><name>PT8184</name></trkpt>
<trkpt lat="54.581986" lon="-3.257547"><ele>639</ele><time>2019-10-02T12:43:13Z</time><name>PT8185</name></trkpt>
<trkpt lat="54.581977" lon="-3.257544"><ele>639</ele><time>2019-10-02T12:43:14Z</time><name>PT8186</name></trkpt>
<trkpt lat="54.581967" lon="-3.257538"><ele>638</ele><time>2019-10-02T12:43:15Z</time><name>PT8187</name></trkpt>
<trkpt lat="54.581957" lon="-3.257532"><ele>639</ele><time>2019-10-02T12:43:16Z</time><name>PT8188</name></trkpt>
<trkpt lat="54.581947" lon="-3.257527"><ele>639</ele><time>2019-10-02T12:43:17Z</time><name>PT8189</name></trkpt>
<trkpt lat="54.581940" lon="-3.257529"><ele>638</ele><time>2019-10-02T12:43:18Z</time><name>PT8190</name></trkpt>
<trkpt lat="54.581932" lon="-3.257528"><ele>638</ele><time>2019-10-02T12:43:19Z</time><name>PT8191</name></trkpt>
<trkpt lat="54.581921" lon="-3.257527"><ele>637</ele><time>2019-10-02T12:43:20Z</time><name>PT8192</name></trkpt>
<trkpt lat="54.581912" lon="-3.257525"><ele>637</ele><time>2019-10-02T12:43:21Z</time><name>PT8193</name></trkpt>
<trkpt lat="54.581901" lon="-3.257525"><ele>637</ele><time>2019-10-02T12:43:22Z</time><name>PT8194</name></trkpt>
<trkpt lat="54.581892" lon="-3.257523"><ele>637</ele><time>2019-10-02T12:43:23Z</time><name>PT8195</name></trkpt>
<trkpt lat="54.581886" lon="-3.257517"><ele>636</ele><time>2019-10-02T12:43:24Z</time><name>PT8196</name></trkpt>
<trkpt lat="54.581878" lon="-3.257509"><ele>636</ele><time>2019-10-02T12:43:25Z</time><name>PT8197</name></trkpt>
<trkpt lat="54.581867" lon="-3.257506"><ele>636</ele><time>2019-10-02T12:43:26Z</time><name>PT8198</name></trkpt>
<trkpt lat="54.581856" lon="-3.257504"><ele>636</ele><time>2019-10-02T12:43:27Z</time><name>PT8199</name></trkpt>
<trkpt lat="54.581846" lon="-3.257501"><ele>636</ele><time>2019-10-02T12:43:28Z</time><name>PT8200</name></trkpt>
<trkpt lat="54.581836" lon="-3.257494"><ele>635</ele><time>2019-10-02T12:43:28Z</time><name>PT8201</name></trkpt>
<trkpt lat="54.581826" lon="-3.257487"><ele>634</ele><time>2019-10-02T12:43:30Z</time><name>PT8202</name></trkpt>
<trkpt lat="54.581815" lon="-3.257486"><ele>634</ele><time>2019-10-02T12:43:31Z</time><name>PT8203</name></trkpt>
<trkpt lat="54.581805" lon="-3.257486"><ele>634</ele><time>2019-10-02T12:43:32Z</time><name>PT8204</name></trkpt>
<trkpt lat="54.581797" lon="-3.257486"><ele>634</ele><time>2019-10-02T12:43:33Z</time><name>PT8205</name></trkpt>
<trkpt lat="54.581789" lon="-3.257483"><ele>634</ele><time>2019-10-02T12:43:34Z</time><name>PT8206</name></trkpt>
<trkpt lat="54.581782" lon="-3.257477"><ele>634</ele><time>2019-10-02T12:43:35Z</time><name>PT8207</name></trkpt>
<trkpt lat="54.581772" lon="-3.257475"><ele>634</ele><time>2019-10-02T12:43:36Z</time><name>PT8208</name></trkpt>
<trkpt lat="54.581764" lon="-3.257471"><ele>634</ele><time>2019-10-02T12:43:37Z</time><name>PT8209</name></trkpt>
<trkpt lat="54.581755" lon="-3.257468"><ele>634</ele><time>2019-10-02T12:43:38Z</time><name>PT8210</name></trkpt>
<trkpt lat="54.581747" lon="-3.257468"><ele>634</ele><time>2019-10-02T12:43:39Z</time><name>PT8211</name></trkpt>
<trkpt lat="54.581739" lon="-3.257471"><ele>634</ele><time>2019-10-02T12:43:40Z</time><name>PT8212</name></trkpt>
<trkpt lat="54.581731" lon="-3.257471"><ele>634</ele><time>2019-10-02T12:43:41Z</time><name>PT8213</name></trkpt>
<trkpt lat="54.581721" lon="-3.257472"><ele>634</ele><time>2019-10-02T12:43:42Z</time><name>PT8214</name></trkpt>
<trkpt lat="54.581708" lon="-3.257475"><ele>633</ele><time>2019-10-02T12:43:43Z</time><name>PT8215</name></trkpt>
<trkpt lat="54.581697" lon="-3.257476"><ele>633</ele><time>2019-10-02T12:43:44Z</time><name>PT8216</name></trkpt>
<trkpt lat="54.581687" lon="-3.257477"><ele>633</ele><time>2019-10-02T12:43:45Z</time><name>PT8217</name></trkpt>
<trkpt lat="54.581679" lon="-3.257479"><ele>633</ele><time>2019-10-02T12:43:46Z</time><name>PT8218</name></trkpt>
<trkpt lat="54.581672" lon="-3.257475"><ele>632</ele><time>2019-10-02T12:43:47Z</time><name>PT8219</name></trkpt>
<trkpt lat="54.581665" lon="-3.257472"><ele>631</ele><time>2019-10-02T12:43:48Z</time><name>PT8220</name></trkpt>
<trkpt lat="54.581658" lon="-3.257467"><ele>631</ele><time>2019-10-02T12:43:49Z</time><name>PT8221</name></trkpt>
<trkpt lat="54.581651" lon="-3.257466"><ele>630</ele><time>2019-10-02T12:43:50Z</time><name>PT8222</name></trkpt>
<trkpt lat="54.581644" lon="-3.257454"><ele>630</ele><time>2019-10-02T12:43:51Z</time><name>PT8223</name></trkpt>
<trkpt lat="54.581636" lon="-3.257448"><ele>630</ele><time>2019-10-02T12:43:52Z</time><name>PT8224</name></trkpt>
<trkpt lat="54.581627" lon="-3.257448"><ele>630</ele><time>2019-10-02T12:43:53Z</time><name>PT8225</name></trkpt>
<trkpt lat="54.581616" lon="-3.257450"><ele>629</ele><time>2019-10-02T12:43:54Z</time><name>PT8226</name></trkpt>
<trkpt lat="54.581607" lon="-3.257446"><ele>629</ele><time>2019-10-02T12:43:55Z</time><name>PT8227</name></trkpt>
<trkpt lat="54.581597" lon="-3.257446"><ele>628</ele><time>2019-10-02T12:43:56Z</time><name>PT8228</name></trkpt>
<trkpt lat="54.581589" lon="-3.257444"><ele>628</ele><time>2019-10-02T12:43:57Z</time><name>PT8229</name></trkpt>
<trkpt lat="54.581579" lon="-3.257442"><ele>629</ele><time>2019-10-02T12:43:58Z</time><name>PT8230</name></trkpt>
<trkpt lat="54.581571" lon="-3.257437"><ele>628</ele><time>2019-10-02T12:43:59Z</time><name>PT8231</name></trkpt>
<trkpt lat="54.581562" lon="-3.257436"><ele>628</ele><time>2019-10-02T12:44:00Z</time><name>PT8232</name></trkpt>
<trkpt lat="54.581551" lon="-3.257431"><ele>628</ele><time>2019-10-02T12:44:01Z</time><name>PT8233</name></trkpt>
<trkpt lat="54.581541" lon="-3.257427"><ele>628</ele><time>2019-10-02T12:44:02Z</time><name>PT8234</name></trkpt>
<trkpt lat="54.581534" lon="-3.257423"><ele>628</ele><time>2019-10-02T12:44:03Z</time><name>PT8235</name></trkpt>
<trkpt lat="54.581527" lon="-3.257419"><ele>628</ele><time>2019-10-02T12:44:04Z</time><name>PT8236</name></trkpt>
<trkpt lat="54.581520" lon="-3.257414"><ele>628</ele><time>2019-10-02T12:44:05Z</time><name>PT8237</name></trkpt>
<trkpt lat="54.581512" lon="-3.257410"><ele>627</ele><time>2019-10-02T12:44:06Z</time><name>PT8238</name></trkpt>
<trkpt lat="54.581505" lon="-3.257405"><ele>627</ele><time>2019-10-02T12:44:07Z</time><name>PT8239</name></trkpt>
<trkpt lat="54.581497" lon="-3.257401"><ele>627</ele><time>2019-10-02T12:44:08Z</time><name>PT8240</name></trkpt>
<trkpt lat="54.581489" lon="-3.257400"><ele>627</ele><time>2019-10-02T12:44:09Z</time><name>PT8241</name></trkpt>
<trkpt lat="54.581478" lon="-3.257402"><ele>626</ele><time>2019-10-02T12:44:10Z</time><name>PT8242</name></trkpt>
<trkpt lat="54.581472" lon="-3.257400"><ele>626</ele><time>2019-10-02T12:44:11Z</time><name>PT8243</name></trkpt>
<trkpt lat="54.581468" lon="-3.257397"><ele>626</ele><time>2019-10-02T12:44:12Z</time><name>PT8244</name></trkpt>
<trkpt lat="54.581462" lon="-3.257395"><ele>626</ele><time>2019-10-02T12:44:13Z</time><name>PT8245</name></trkpt>
<trkpt lat="54.581457" lon="-3.257394"><ele>625</ele><time>2019-10-02T12:44:14Z</time><name>PT8246</name></trkpt>
<trkpt lat="54.581450" lon="-3.257389"><ele>625</ele><time>2019-10-02T12:44:15Z</time><name>PT8247</name></trkpt>
<trkpt lat="54.581443" lon="-3.257382"><ele>625</ele><time>2019-10-02T12:44:16Z</time><name>PT8248</name></trkpt>
<trkpt lat="54.581436" lon="-3.257378"><ele>624</ele><time>2019-10-02T12:44:16Z</time><name>PT8249</name></trkpt>
<trkpt lat="54.581425" lon="-3.257378"><ele>625</ele><time>2019-10-02T12:44:18Z</time><name>PT8250</name></trkpt>
<trkpt lat="54.581417" lon="-3.257380"><ele>624</ele><time>2019-10-02T12:44:19Z</time><name>PT8251</name></trkpt>
<trkpt lat="54.581409" lon="-3.257384"><ele>624</ele><time>2019-10-02T12:44:20Z</time><name>PT8252</name></trkpt>
<trkpt lat="54.581403" lon="-3.257385"><ele>624</ele><time>2019-10-02T12:44:21Z</time><name>PT8253</name></trkpt>
<trkpt lat="54.581392" lon="-3.257388"><ele>624</ele><time>2019-10-02T12:44:22Z</time><name>PT8254</name></trkpt>
<trkpt lat="54.581382" lon="-3.257385"><ele>624</ele><time>2019-10-02T12:44:23Z</time><name>PT8255</name></trkpt>
<trkpt lat="54.581373" lon="-3.257380"><ele>623</ele><time>2019-10-02T12:44:24Z</time><name>PT8256</name></trkpt>
<trkpt lat="54.581363" lon="-3.257379"><ele>622</ele><time>2019-10-02T12:44:25Z</time><name>PT8257</name></trkpt>
<trkpt lat="54.581355" lon="-3.257379"><ele>622</ele><time>2019-10-02T12:44:26Z</time><name>PT8258</name></trkpt>
<trkpt lat="54.581351" lon="-3.257373"><ele>622</ele><time>2019-10-02T12:44:26Z</time><name>PT8259</name></trkpt>
<trkpt lat="54.581346" lon="-3.257367"><ele>621</ele><time>2019-10-02T12:44:28Z</time><name>PT8260</name></trkpt>
<trkpt lat="54.581338" lon="-3.257358"><ele>621</ele><time>2019-10-02T12:44:29Z</time><name>PT8261</name></trkpt>
<trkpt lat="54.581331" lon="-3.257352"><ele>622</ele><time>2019-10-02T12:44:30Z</time><name>PT8262</name></trkpt>
<trkpt lat="54.581328" lon="-3.257344"><ele>621</ele><time>2019-10-02T12:44:31Z</time><name>PT8263</name></trkpt>
<trkpt lat="54.581321" lon="-3.257341"><ele>620</ele><time>2019-10-02T12:44:32Z</time><name>PT8264</name></trkpt>
<trkpt lat="54.581317" lon="-3.257338"><ele>620</ele><time>2019-10-02T12:44:33Z</time><name>PT8265</name></trkpt>
<trkpt lat="54.581309" lon="-3.257340"><ele>619</ele><time>2019-10-02T12:44:34Z</time><name>PT8266</name></trkpt>
<trkpt lat="54.581301" lon="-3.257336"><ele>619</ele><time>2019-10-02T12:44:35Z</time><name>PT8267</name></trkpt>
<trkpt lat="54.581289" lon="-3.257333"><ele>618</ele><time>2019-10-02T12:44:36Z</time><name>PT8268</name></trkpt>
<trkpt lat="54.581277" lon="-3.257330"><ele>617</ele><time>2019-10-02T12:44:37Z</time><name>PT8269</name></trkpt>
<trkpt lat="54.581268" lon="-3.257323"><ele>616</ele><time>2019-10-02T12:44:38Z</time><name>PT8270</name></trkpt>
<trkpt lat="54.581262" lon="-3.257320"><ele>615</ele><time>2019-10-02T12:44:39Z</time><name>PT8271</name></trkpt>
<trkpt lat="54.581254" lon="-3.257312"><ele>615</ele><time>2019-10-02T12:44:40Z</time><name>PT8272</name></trkpt>
<trkpt lat="54.581245" lon="-3.257307"><ele>615</ele><time>2019-10-02T12:44:41Z</time><name>PT8273</name></trkpt>
<trkpt lat="54.581237" lon="-3.257307"><ele>615</ele><time>2019-10-02T12:44:42Z</time><name>PT8274</name></trkpt>
<trkpt lat="54.581232" lon="-3.257306"><ele>615</ele><time>2019-10-02T12:44:43Z</time><name>PT8275</name></trkpt>
<trkpt lat="54.581225" lon="-3.257300"><ele>615</ele><time>2019-10-02T12:44:44Z</time><name>PT8276</name></trkpt>
<trkpt lat="54.581216" lon="-3.257298"><ele>615</ele><time>2019-10-02T12:44:45Z</time><name>PT8277</name></trkpt>
<trkpt lat="54.581207" lon="-3.257290"><ele>615</ele><time>2019-10-02T12:44:46Z</time><name>PT8278</name></trkpt>
<trkpt lat="54.581202" lon="-3.257285"><ele>614</ele><time>2019-10-02T12:44:47Z</time><name>PT8279</name></trkpt>
<trkpt lat="54.581198" lon="-3.257280"><ele>614</ele><time>2019-10-02T12:44:48Z</time><name>PT8280</name></trkpt>
<trkpt lat="54.581189" lon="-3.257277"><ele>613</ele><time>2019-10-02T12:44:49Z</time><name>PT8281</name></trkpt>
<trkpt lat="54.581183" lon="-3.257273"><ele>613</ele><time>2019-10-02T12:44:50Z</time><name>PT8282</name></trkpt>
<trkpt lat="54.581178" lon="-3.257265"><ele>613</ele><time>2019-10-02T12:44:51Z</time><name>PT8283</name></trkpt>
<trkpt lat="54.581176" lon="-3.257254"><ele>613</ele><time>2019-10-02T12:44:52Z</time><name>PT8284</name></trkpt>
<trkpt lat="54.581172" lon="-3.257244"><ele>613</ele><time>2019-10-02T12:44:53Z</time><name>PT8285</name></trkpt>
<trkpt lat="54.581167" lon="-3.257236"><ele>613</ele><time>2019-10-02T12:44:54Z</time><name>PT8286</name></trkpt>
<trkpt lat="54.581160" lon="-3.257224"><ele>614</ele><time>2019-10-02T12:44:55Z</time><name>PT8287</name></trkpt>
<trkpt lat="54.581154" lon="-3.257216"><ele>614</ele><time>2019-10-02T12:44:56Z</time><name>PT8288</name></trkpt>
<trkpt lat="54.581148" lon="-3.257214"><ele>614</ele><time>2019-10-02T12:44:57Z</time><name>PT8289</name></trkpt>
<trkpt lat="54.581138" lon="-3.257215"><ele>613</ele><time>2019-10-02T12:44:58Z</time><name>PT8290</name></trkpt>
<trkpt lat="54.581130" lon="-3.257211"><ele>613</ele><time>2019-10-02T12:44:59Z</time><name>PT8291</name></trkpt>
<trkpt lat="54.581122" lon="-3.257208"><ele>613</ele><time>2019-10-02T12:45:00Z</time><name>PT8292</name></trkpt>
<trkpt lat="54.581116" lon="-3.257210"><ele>613</ele><time>2019-10-02T12:45:01Z</time><name>PT8293</name></trkpt>
<trkpt lat="54.581109" lon="-3.257210"><ele>612</ele><time>2019-10-02T12:45:02Z</time><name>PT8294</name></trkpt>
<trkpt lat="54.581100" lon="-3.257202"><ele>611</ele><time>2019-10-02T12:45:03Z</time><name>PT8295</name></trkpt>
<trkpt lat="54.581090" lon="-3.257192"><ele>611</ele><time>2019-10-02T12:45:04Z</time><name>PT8296</name></trkpt>
<trkpt lat="54.581083" lon="-3.257187"><ele>611</ele><time>2019-10-02T12:45:05Z</time><name>PT8297</name></trkpt>
<trkpt lat="54.581074" lon="-3.257183"><ele>610</ele><time>2019-10-02T12:45:06Z</time><name>PT8298</name></trkpt>
<trkpt lat="54.581065" lon="-3.257179"><ele>610</ele><time>2019-10-02T12:45:07Z</time><name>PT8299</name></trkpt>
<trkpt lat="54.581056" lon="-3.257174"><ele>610</ele><time>2019-10-02T12:45:08Z</time><name>PT8300</name></trkpt>
<trkpt lat="54.581048" lon="-3.257169"><ele>610</ele><time>2019-10-02T12:45:09Z</time><name>PT8301</name></trkpt>
<trkpt lat="54.581038" lon="-3.257164"><ele>610</ele><time>2019-10-02T12:45:10Z</time><name>PT8302</name></trkpt>
<trkpt lat="54.581028" lon="-3.257160"><ele>609</ele><time>2019-10-02T12:45:11Z</time><name>PT8303</name></trkpt>
<trkpt lat="54.581018" lon="-3.257155"><ele>609</ele><time>2019-10-02T12:45:12Z</time><name>PT8304</name></trkpt>
<trkpt lat="54.581009" lon="-3.257153"><ele>608</ele><time>2019-10-02T12:45:13Z</time><name>PT8305</name></trkpt>
<trkpt lat="54.580999" lon="-3.257145"><ele>609</ele><time>2019-10-02T12:45:14Z</time><name>PT8306</name></trkpt>
<trkpt lat="54.580989" lon="-3.257135"><ele>608</ele><time>2019-10-02T12:45:15Z</time><name>PT8307</name></trkpt>
<trkpt lat="54.580980" lon="-3.257131"><ele>608</ele><time>2019-10-02T12:45:16Z</time><name>PT8308</name></trkpt>
<trkpt lat="54.580970" lon="-3.257129"><ele>608</ele><time>2019-10-02T12:45:17Z</time><name>PT8309</name></trkpt>
<trkpt lat="54.580958" lon="-3.257120"><ele>608</ele><time>2019-10-02T12:45:18Z</time><name>PT8310</name></trkpt>
<trkpt lat="54.580946" lon="-3.257110"><ele>608</ele><time>2019-10-02T12:45:19Z</time><name>PT8311</name></trkpt>
<trkpt lat="54.580937" lon="-3.257101"><ele>607</ele><time>2019-10-02T12:45:20Z</time><name>PT8312</name></trkpt>
<trkpt lat="54.580924" lon="-3.257093"><ele>606</ele><time>2019-10-02T12:45:21Z</time><name>PT8313</name></trkpt>
<trkpt lat="54.580914" lon="-3.257084"><ele>606</ele><time>2019-10-02T12:45:22Z</time><name>PT8314</name></trkpt>
<trkpt lat="54.580902" lon="-3.257078"><ele>606</ele><time>2019-10-02T12:45:23Z</time><name>PT8315</name></trkpt>
<trkpt lat="54.580890" lon="-3.257070"><ele>606</ele><time>2019-10-02T12:45:24Z</time><name>PT8316</name></trkpt>
<trkpt lat="54.580879" lon="-3.257065"><ele>606</ele><time>2019-10-02T12:45:25Z</time><name>PT8317</name></trkpt>
<trkpt lat="54.580868" lon="-3.257059"><ele>606</ele><time>2019-10-02T12:45:26Z</time><name>PT8318</name></trkpt>
<trkpt lat="54.580860" lon="-3.257052"><ele>606</ele><time>2019-10-02T12:45:27Z</time><name>PT8319</name></trkpt>
<trkpt lat="54.580850" lon="-3.257041"><ele>607</ele><time>2019-10-02T12:45:28Z</time><name>PT8320</name></trkpt>
<trkpt lat="54.580838" lon="-3.257034"><ele>607</ele><time>2019-10-02T12:45:29Z</time><name>PT8321</name></trkpt>
<trkpt lat="54.580830" lon="-3.257026"><ele>607</ele><time>2019-10-02T12:45:30Z</time><name>PT8322</name></trkpt>
<trkpt lat="54.580813" lon="-3.257023"><ele>607</ele><time>2019-10-02T12:45:31Z</time><name>PT8323</name></trkpt>
<trkpt lat="54.580801" lon="-3.257017"><ele>607</ele><time>2019-10-02T12:45:32Z</time><name>PT8324</name></trkpt>
<trkpt lat="54.580790" lon="-3.257010"><ele>607</ele><time>2019-10-02T12:45:33Z</time><name>PT8325</name></trkpt>
<trkpt lat="54.580778" lon="-3.257002"><ele>607</ele><time>2019-10-02T12:45:34Z</time><name>PT8326</name></trkpt>
<trkpt lat="54.580768" lon="-3.256996"><ele>607</ele><time>2019-10-02T12:45:35Z</time><name>PT8327</name></trkpt>
<trkpt lat="54.580756" lon="-3.256988"><ele>608</ele><time>2019-10-02T12:45:36Z</time><name>PT8328</name></trkpt>
<trkpt lat="54.580742" lon="-3.256981"><ele>607</ele><time>2019-10-02T12:45:37Z</time><name>PT8329</name></trkpt>
<trkpt lat="54.580728" lon="-3.256973"><ele>608</ele><time>2019-10-02T12:45:38Z</time><name>PT8330</name></trkpt>
<trkpt lat="54.580716" lon="-3.256967"><ele>608</ele><time>2019-10-02T12:45:39Z</time><name>PT8331</name></trkpt>
<trkpt lat="54.580705" lon="-3.256961"><ele>607</ele><time>2019-10-02T12:45:40Z</time><name>PT8332</name></trkpt>
<trkpt lat="54.580692" lon="-3.256954"><ele>607</ele><time>2019-10-02T12:45:41Z</time><name>PT8333</name></trkpt>
<trkpt lat="54.580681" lon="-3.256948"><ele>607</ele><time>2019-10-02T12:45:42Z</time><name>PT8334</name></trkpt>
<trkpt lat="54.580667" lon="-3.256956"><ele>608</ele><time>2019-10-02T12:45:42Z</time><name>PT8335</name></trkpt>
<trkpt lat="54.580655" lon="-3.256954"><ele>607</ele><time>2019-10-02T12:45:44Z</time><name>PT8336</name></trkpt>
<trkpt lat="54.580643" lon="-3.256945"><ele>607</ele><time>2019-10-02T12:45:45Z</time><name>PT8337</name></trkpt>
<trkpt lat="54.580634" lon="-3.256938"><ele>607</ele><time>2019-10-02T12:45:46Z</time><name>PT8338</name></trkpt>
<trkpt lat="54.580622" lon="-3.256933"><ele>607</ele><time>2019-10-02T12:45:47Z</time><name>PT8339</name></trkpt>
<trkpt lat="54.580613" lon="-3.256924"><ele>607</ele><time>2019-10-02T12:45:48Z</time><name>PT8340</name></trkpt>
<trkpt lat="54.580603" lon="-3.256915"><ele>607</ele><time>2019-10-02T12:45:49Z</time><name>PT8341</name></trkpt>
<trkpt lat="54.580591" lon="-3.256907"><ele>607</ele><time>2019-10-02T12:45:50Z</time><name>PT8342</name></trkpt>
<trkpt lat="54.580583" lon="-3.256900"><ele>607</ele><time>2019-10-02T12:45:51Z</time><name>PT8343</name></trkpt>
<trkpt lat="54.580571" lon="-3.256891"><ele>607</ele><time>2019-10-02T12:45:52Z</time><name>PT8344</name></trkpt>
<trkpt lat="54.580558" lon="-3.256881"><ele>606</ele><time>2019-10-02T12:45:53Z</time><name>PT8345</name></trkpt>
<trkpt lat="54.580548" lon="-3.256873"><ele>606</ele><time>2019-10-02T12:45:54Z</time><name>PT8346</name></trkpt>
<trkpt lat="54.580537" lon="-3.256866"><ele>605</ele><time>2019-10-02T12:45:55Z</time><name>PT8347</name></trkpt>
<trkpt lat="54.580528" lon="-3.256855"><ele>605</ele><time>2019-10-02T12:45:56Z</time><name>PT8348</name></trkpt>
<trkpt lat="54.580517" lon="-3.256845"><ele>605</ele><time>2019-10-02T12:45:57Z</time><name>PT8349</name></trkpt>
<trkpt lat="54.580503" lon="-3.256840"><ele>606</ele><time>2019-10-02T12:45:58Z</time><name>PT8350</name></trkpt>
<trkpt lat="54.580490" lon="-3.256836"><ele>606</ele><time>2019-10-02T12:45:59Z</time><name>PT8351</name></trkpt>
<trkpt lat="54.580479" lon="-3.256824"><ele>605</ele><time>2019-10-02T12:46:00Z</time><name>PT8352</name></trkpt>
<trkpt lat="54.580467" lon="-3.256814"><ele>605</ele><time>2019-10-02T12:46:01Z</time><name>PT8353</name></trkpt>
<trkpt lat="54.580460" lon="-3.256805"><ele>605</ele><time>2019-10-02T12:46:02Z</time><name>PT8354</name></trkpt>
<trkpt lat="54.580447" lon="-3.256797"><ele>605</ele><time>2019-10-02T12:46:03Z</time><name>PT8355</name></trkpt>
<trkpt lat="54.580434" lon="-3.256787"><ele>605</ele><time>2019-10-02T12:46:04Z</time><name>PT8356</name></trkpt>
<trkpt lat="54.580421" lon="-3.256778"><ele>606</ele><time>2019-10-02T12:46:04Z</time><name>PT8357</name></trkpt>
<trkpt lat="54.580409" lon="-3.256775"><ele>606</ele><time>2019-10-02T12:46:06Z</time><name>PT8358</name></trkpt>
<trkpt lat="54.580395" lon="-3.256770"><ele>606</ele><time>2019-10-02T12:46:07Z</time><name>PT8359</name></trkpt>
<trkpt lat="54.580383" lon="-3.256763"><ele>606</ele><time>2019-10-02T12:46:08Z</time><name>PT8360</name></trkpt>
<trkpt lat="54.580370" lon="-3.256758"><ele>606</ele><time>2019-10-02T12:46:09Z</time><name>PT8361</name></trkpt>
<trkpt lat="54.580359" lon="-3.256753"><ele>606</ele><time>2019-10-02T12:46:10Z</time><name>PT8362</name></trkpt>
<trkpt lat="54.580354" lon="-3.256752"><ele>605</ele><time>2019-10-02T12:46:11Z</time><name>PT8363</name></trkpt>
<trkpt lat="54.580344" lon="-3.256746"><ele>606</ele><time>2019-10-02T12:46:12Z</time><name>PT8364</name></trkpt>
<trkpt lat="54.580331" lon="-3.256742"><ele>606</ele><time>2019-10-02T12:46:13Z</time><name>PT8365</name></trkpt>
<trkpt lat="54.580316" lon="-3.256741"><ele>606</ele><time>2019-10-02T12:46:14Z</time><name>PT8366</name></trkpt>
<trkpt lat="54.580303" lon="-3.256738"><ele>605</ele><time>2019-10-02T12:46:15Z</time><name>PT8367</name></trkpt>
<trkpt lat="54.580290" lon="-3.256739"><ele>606</ele><time>2019-10-02T12:46:16Z</time><name>PT8368</name></trkpt>
<trkpt lat="54.580279" lon="-3.256735"><ele>606</ele><time>2019-10-02T12:46:17Z</time><name>PT8369</name></trkpt>
<trkpt lat="54.580264" lon="-3.256735"><ele>606</ele><time>2019-10-02T12:46:18Z</time><name>PT8370</name></trkpt>
<trkpt lat="54.580251" lon="-3.256736"><ele>606</ele><time>2019-10-02T12:46:19Z</time><name>PT8371</name></trkpt>
<trkpt lat="54.580237" lon="-3.256741"><ele>606</ele><time>2019-10-02T12:46:20Z</time><name>PT8372</name></trkpt>
<trkpt lat="54.580224" lon="-3.256744"><ele>605</ele><time>2019-10-02T12:46:21Z</time><name>PT8373</name></trkpt>
<trkpt lat="54.580212" lon="-3.256746"><ele>605</ele><time>2019-10-02T12:46:22Z</time><name>PT8374</name></trkpt>
<trkpt lat="54.580201" lon="-3.256746"><ele>605</ele><time>2019-10-02T12:46:23Z</time><name>PT8375</name></trkpt>
<trkpt lat="54.580189" lon="-3.256746"><ele>605</ele><time>2019-10-02T12:46:24Z</time><name>PT8376</name></trkpt>
<trkpt lat="54.580176" lon="-3.256746"><ele>605</ele><time>2019-10-02T12:46:25Z</time><name>PT8377</name></trkpt>
<trkpt lat="54.580167" lon="-3.256746"><ele>605</ele><time>2019-10-02T12:46:26Z</time><name>PT8378</name></trkpt>
<trkpt lat="54.580158" lon="-3.256745"><ele>604</ele><time>2019-10-02T12:46:27Z</time><name>PT8379</name></trkpt>
<trkpt lat="54.580149" lon="-3.256740"><ele>604</ele><time>2019-10-02T12:46:28Z</time><name>PT8380</name></trkpt>
<trkpt lat="54.580137" lon="-3.256740"><ele>605</ele><time>2019-10-02T12:46:29Z</time><name>PT8381</name></trkpt>
<trkpt lat="54.580124" lon="-3.256736"><ele>604</ele><time>2019-10-02T12:46:30Z</time><name>PT8382</name></trkpt>
<trkpt lat="54.580113" lon="-3.256728"><ele>604</ele><time>2019-10-02T12:46:31Z</time><name>PT8383</name></trkpt>
<trkpt lat="54.580105" lon="-3.256721"><ele>603</ele><time>2019-10-02T12:46:32Z</time><name>PT8384</name></trkpt>
<trkpt lat="54.580095" lon="-3.256709"><ele>603</ele><time>2019-10-02T12:46:33Z</time><name>PT8385</name></trkpt>
<trkpt lat="54.580085" lon="-3.256700"><ele>602</ele><time>2019-10-02T12:46:34Z</time><name>PT8386</name></trkpt>
<trkpt lat="54.580075" lon="-3.256692"><ele>602</ele><time>2019-10-02T12:46:35Z</time><name>PT8387</name></trkpt>
<trkpt lat="54.580067" lon="-3.256680"><ele>602</ele><time>2019-10-02T12:46:36Z</time><name>PT8388</name></trkpt>
<trkpt lat="54.580058" lon="-3.256673"><ele>601</ele><time>2019-10-02T12:46:37Z</time><name>PT8389</name></trkpt>
<trkpt lat="54.580047" lon="-3.256659"><ele>602</ele><time>2019-10-02T12:46:38Z</time><name>PT8390</name></trkpt>
<trkpt lat="54.580040" lon="-3.256645"><ele>602</ele><time>2019-10-02T12:46:39Z</time><name>PT8391</name></trkpt>
<trkpt lat="54.580030" lon="-3.256634"><ele>602</ele><time>2019-10-02T12:46:40Z</time><name>PT8392</name></trkpt>
<trkpt lat="54.580023" lon="-3.256621"><ele>602</ele><time>2019-10-02T12:46:41Z</time><name>PT8393</name></trkpt>
<trkpt lat="54.580015" lon="-3.256604"><ele>602</ele><time>2019-10-02T12:46:42Z</time><name>PT8394</name></trkpt>
<trkpt lat="54.580011" lon="-3.256590"><ele>602</ele><time>2019-10-02T12:46:43Z</time><name>PT8395</name></trkpt>
<trkpt lat="54.580001" lon="-3.256575"><ele>602</ele><time>2019-10-02T12:46:44Z</time><name>PT8396</name></trkpt>
<trkpt lat="54.579991" lon="-3.256561"><ele>603</ele><time>2019-10-02T12:46:45Z</time><name>PT8397</name></trkpt>
<trkpt lat="54.579983" lon="-3.256545"><ele>603</ele><time>2019-10-02T12:46:46Z</time><name>PT8398</name></trkpt>
<trkpt lat="54.579973" lon="-3.256531"><ele>603</ele><time>2019-10-02T12:46:47Z</time><name>PT8399</name></trkpt>
<trkpt lat="54.579965" lon="-3.256518"><ele>604</ele><time>2019-10-02T12:46:48Z</time><name>PT8400</name></trkpt>
<trkpt lat="54.579955" lon="-3.256505"><ele>604</ele><time>2019-10-02T12:46:49Z</time><name>PT8401</name></trkpt>
<trkpt lat="54.579947" lon="-3.256494"><ele>603</ele><time>2019-10-02T12:46:50Z</time><name>PT8402</name></trkpt>
<trkpt lat="54.579938" lon="-3.256483"><ele>603</ele><time>2019-10-02T12:46:51Z</time><name>PT8403</name></trkpt>
<trkpt lat="54.579928" lon="-3.256474"><ele>603</ele><time>2019-10-02T12:46:52Z</time><name>PT8404</name></trkpt>
<trkpt lat="54.579917" lon="-3.256466"><ele>603</ele><time>2019-10-02T12:46:53Z</time><name>PT8405</name></trkpt>
<trkpt lat="54.579907" lon="-3.256454"><ele>603</ele><time>2019-10-02T12:46:54Z</time><name>PT8406</name></trkpt>
<trkpt lat="54.579899" lon="-3.256447"><ele>603</ele><time>2019-10-02T12:46:55Z</time><name>PT8407</name></trkpt>
<trkpt lat="54.579889" lon="-3.256435"><ele>604</ele><time>2019-10-02T12:46:56Z</time><name>PT8408</name></trkpt>
<trkpt lat="54.579880" lon="-3.256420"><ele>603</ele><time>2019-10-02T12:46:57Z</time><name>PT8409</name></trkpt>
<trkpt lat="54.579870" lon="-3.256415"><ele>602</ele><time>2019-10-02T12:46:58Z</time><name>PT8410</name></trkpt>
<trkpt lat="54.579858" lon="-3.256405"><ele>602</ele><time>2019-10-02T12:46:59Z</time><name>PT8411</name></trkpt>
<trkpt lat="54.579847" lon="-3.256392"><ele>602</ele><time>2019-10-02T12:47:00Z</time><name>PT8412</name></trkpt>
<trkpt lat="54.579838" lon="-3.256383"><ele>601</ele><time>2019-10-02T12:47:01Z</time><name>PT8413</name></trkpt>
<trkpt lat="54.579828" lon="-3.256372"><ele>601</ele><time>2019-10-02T12:47:02Z</time><name>PT8414</name></trkpt>
<trkpt lat="54.579816" lon="-3.256358"><ele>601</ele><time>2019-10-02T12:47:03Z</time><name>PT8415</name></trkpt>
<trkpt lat="54.579806" lon="-3.256350"><ele>602</ele><time>2019-10-02T12:47:04Z</time><name>PT8416</name></trkpt>
<trkpt lat="54.579796" lon="-3.256341"><ele>601</ele><time>2019-10-02T12:47:05Z</time><name>PT8417</name></trkpt>
<trkpt lat="54.579787" lon="-3.256331"><ele>601</ele><time>2019-10-02T12:47:06Z</time><name>PT8418</name></trkpt>
<trkpt lat="54.579775" lon="-3.256325"><ele>602</ele><time>2019-10-02T12:47:07Z</time><name>PT8419</name></trkpt>
<trkpt lat="54.579763" lon="-3.256327"><ele>601</ele><time>2019-10-02T12:47:08Z</time><name>PT8420</name></trkpt>
<trkpt lat="54.579753" lon="-3.256320"><ele>601</ele><time>2019-10-02T12:47:09Z</time><name>PT8421</name></trkpt>
<trkpt lat="54.579743" lon="-3.256311"><ele>601</ele><time>2019-10-02T12:47:10Z</time><name>PT8422</name></trkpt>
<trkpt lat="54.579732" lon="-3.256301"><ele>601</ele><time>2019-10-02T12:47:11Z</time><name>PT8423</name></trkpt>
<trkpt lat="54.579722" lon="-3.256293"><ele>601</ele><time>2019-10-02T12:47:12Z</time><name>PT8424</name></trkpt>
<trkpt lat="54.579711" lon="-3.256288"><ele>601</ele><time>2019-10-02T12:47:13Z</time><name>PT8425</name></trkpt>
<trkpt lat="54.579702" lon="-3.256281"><ele>601</ele><time>2019-10-02T12:47:14Z</time><name>PT8426</name></trkpt>
<trkpt lat="54.579695" lon="-3.256277"><ele>601</ele><time>2019-10-02T12:47:15Z</time><name>PT8427</name></trkpt>
<trkpt lat="54.579686" lon="-3.256271"><ele>601</ele><time>2019-10-02T12:47:16Z</time><name>PT8428</name></trkpt>
<trkpt lat="54.579676" lon="-3.256263"><ele>601</ele><time>2019-10-02T12:47:17Z</time><name>PT8429</name></trkpt>
<trkpt lat="54.579664" lon="-3.256260"><ele>601</ele><time>2019-10-02T12:47:18Z</time><name>PT8430</name></trkpt>
<trkpt lat="54.579651" lon="-3.256254"><ele>601</ele><time>2019-10-02T12:47:19Z</time><name>PT8431</name></trkpt>
<trkpt lat="54.579643" lon="-3.256247"><ele>601</ele><time>2019-10-02T12:47:20Z</time><name>PT8432</name></trkpt>
<trkpt lat="54.579633" lon="-3.256237"><ele>601</ele><time>2019-10-02T12:47:21Z</time><name>PT8433</name></trkpt>
<trkpt lat="54.579624" lon="-3.256233"><ele>601</ele><time>2019-10-02T12:47:22Z</time><name>PT8434</name></trkpt>
<trkpt lat="54.579615" lon="-3.256226"><ele>601</ele><time>2019-10-02T12:47:23Z</time><name>PT8435</name></trkpt>
<trkpt lat="54.579605" lon="-3.256219"><ele>601</ele><time>2019-10-02T12:47:24Z</time><name>PT8436</name></trkpt>
<trkpt lat="54.579598" lon="-3.256215"><ele>601</ele><time>2019-10-02T12:47:25Z</time><name>PT8437</name></trkpt>
<trkpt lat="54.579591" lon="-3.256203"><ele>601</ele><time>2019-10-02T12:47:26Z</time><name>PT8438</name></trkpt>
<trkpt lat="54.579586" lon="-3.256197"><ele>602</ele><time>2019-10-02T12:47:27Z</time><name>PT8439</name></trkpt>
<trkpt lat="54.579579" lon="-3.256188"><ele>601</ele><time>2019-10-02T12:47:28Z</time><name>PT8440</name></trkpt>
<trkpt lat="54.579572" lon="-3.256179"><ele>601</ele><time>2019-10-02T12:47:29Z</time><name>PT8441</name></trkpt>
<trkpt lat="54.579565" lon="-3.256172"><ele>602</ele><time>2019-10-02T12:47:30Z</time><name>PT8442</name></trkpt>
<trkpt lat="54.579558" lon="-3.256165"><ele>602</ele><time>2019-10-02T12:47:30Z</time><name>PT8443</name></trkpt>
<trkpt lat="54.579551" lon="-3.256160"><ele>602</ele><time>2019-10-02T12:47:32Z</time><name>PT8444</name></trkpt>
<trkpt lat="54.579546" lon="-3.256163"><ele>601</ele><time>2019-10-02T12:47:33Z</time><name>PT8445</name></trkpt>
<trkpt lat="54.579541" lon="-3.256161"><ele>602</ele><time>2019-10-02T12:47:34Z</time><name>PT8446</name></trkpt>
<trkpt lat="54.579534" lon="-3.256155"><ele>601</ele><time>2019-10-02T12:47:35Z</time><name>PT8447</name></trkpt>
<trkpt lat="54.579528" lon="-3.256153"><ele>601</ele><time>2019-10-02T12:47:36Z</time><name>PT8448</name></trkpt>
<trkpt lat="54.579522" lon="-3.256154"><ele>602</ele><time>2019-10-02T12:47:37Z</time><name>PT8449</name></trkpt>
<trkpt lat="54.579512" lon="-3.256156"><ele>602</ele><time>2019-10-02T12:47:38Z</time><name>PT8450</name></trkpt>
<trkpt lat="54.579502" lon="-3.256160"><ele>603</ele><time>2019-10-02T12:47:39Z</time><name>PT8451</name></trkpt>
<trkpt lat="54.579491" lon="-3.256160"><ele>602</ele><time>2019-10-02T12:47:40Z</time><name>PT8452</name></trkpt>
<trkpt lat="54.579481" lon="-3.256163"><ele>602</ele><time>2019-10-02T12:47:41Z</time><name>PT8453</name></trkpt>
<trkpt lat="54.579470" lon="-3.256167"><ele>603</ele><time>2019-10-02T12:47:42Z</time><name>PT8454</name></trkpt>
<trkpt lat="54.579460" lon="-3.256174"><ele>603</ele><time>2019-10-02T12:47:43Z</time><name>PT8455</name></trkpt>
<trkpt lat="54.579449" lon="-3.256180"><ele>603</ele><time>2019-10-02T12:47:44Z</time><name>PT8456</name></trkpt>
<trkpt lat="54.579440" lon="-3.256183"><ele>604</ele><time>2019-10-02T12:47:45Z</time><name>PT8457</name></trkpt>
<trkpt lat="54.579432" lon="-3.256186"><ele>604</ele><time>2019-10-02T12:47:46Z</time><name>PT8458</name></trkpt>
<trkpt lat="54.579425" lon="-3.256191"><ele>604</ele><time>2019-10-02T12:47:47Z</time><name>PT8459</name></trkpt>
<trkpt lat="54.579414" lon="-3.256194"><ele>604</ele><time>2019-10-02T12:47:48Z</time><name>PT8460</name></trkpt>
<trkpt lat="54.579404" lon="-3.256200"><ele>605</ele><time>2019-10-02T12:47:49Z</time><name>PT8461</name></trkpt>
<trkpt lat="54.579396" lon="-3.256209"><ele>605</ele><time>2019-10-02T12:47:50Z</time><name>PT8462</name></trkpt>
<trkpt lat="54.579388" lon="-3.256218"><ele>606</ele><time>2019-10-02T12:47:51Z</time><name>PT8463</name></trkpt>
<trkpt lat="54.579378" lon="-3.256217"><ele>605</ele><time>2019-10-02T12:47:52Z</time><name>PT8464</name></trkpt>
<trkpt lat="54.579372" lon="-3.256231"><ele>605</ele><time>2019-10-02T12:47:53Z</time><name>PT8465</name></trkpt>
<trkpt lat="54.579368" lon="-3.256243"><ele>605</ele><time>2019-10-02T12:47:54Z</time><name>PT8466</name></trkpt>
<trkpt lat="54.579361" lon="-3.256258"><ele>605</ele><time>2019-10-02T12:47:54Z</time><name>PT8467</name></trkpt>
<trkpt lat="54.579356" lon="-3.256270"><ele>605</ele><time>2019-10-02T12:47:56Z</time><name>PT8468</name></trkpt>
<trkpt lat="54.579347" lon="-3.256280"><ele>605</ele><time>2019-10-02T12:47:57Z</time><name>PT8469</name></trkpt>
<trkpt lat="54.579341" lon="-3.256287"><ele>605</ele><time>2019-10-02T12:47:58Z</time><name>PT8470</name></trkpt>
<trkpt lat="54.579331" lon="-3.256295"><ele>605</ele><time>2019-10-02T12:47:59Z</time><name>PT8471</name></trkpt>
<trkpt lat="54.579322" lon="-3.256304"><ele>605</ele><time>2019-10-02T12:48:00Z</time><name>PT8472</name></trkpt>
<trkpt lat="54.579313" lon="-3.256314"><ele>606</ele><time>2019-10-02T12:48:01Z</time><name>PT8473</name></trkpt>
<trkpt lat="54.579303" lon="-3.256324"><ele>606</ele><time>2019-10-02T12:48:02Z</time><name>PT8474</name></trkpt>
<trkpt lat="54.579292" lon="-3.256333"><ele>606</ele><time>2019-10-02T12:48:03Z</time><name>PT8475</name></trkpt>
<trkpt lat="54.579282" lon="-3.256342"><ele>606</ele><time>2019-10-02T12:48:04Z</time><name>PT8476</name></trkpt>
<trkpt lat="54.579273" lon="-3.256351"><ele>606</ele><time>2019-10-02T12:48:05Z</time><name>PT8477</name></trkpt>
<trkpt lat="54.579264" lon="-3.256359"><ele>606</ele><time>2019-10-02T12:48:06Z</time><name>PT8478</name></trkpt>
<trkpt lat="54.579259" lon="-3.256373"><ele>607</ele><time>2019-10-02T12:48:07Z</time><name>PT8479</name></trkpt>
<trkpt lat="54.579252" lon="-3.256387"><ele>607</ele><time>2019-10-02T12:48:08Z</time><name>PT8480</name></trkpt>
<trkpt lat="54.579249" lon="-3.256392"><ele>607</ele><time>2019-10-02T12:48:09Z</time><name>PT8481</name></trkpt>
<trkpt lat="54.579246" lon="-3.256400"><ele>607</ele><time>2019-10-02T12:48:10Z</time><name>PT8482</name></trkpt>
<trkpt lat="54.579241" lon="-3.256409"><ele>607</ele><time>2019-10-02T12:48:11Z</time><name>PT8483</name></trkpt>
<trkpt lat="54.579234" lon="-3.256418"><ele>607</ele><time>2019-10-02T12:48:12Z</time><name>PT8484</name></trkpt>
<trkpt lat="54.579227" lon="-3.256427"><ele>607</ele><time>2019-10-02T12:48:13Z</time><name>PT8485</name></trkpt>
<trkpt lat="54.579218" lon="-3.256442"><ele>607</ele><time>2019-10-02T12:48:14Z</time><name>PT8486</name></trkpt>
<trkpt lat="54.579213" lon="-3.256452"><ele>607</ele><time>2019-10-02T12:48:15Z</time><name>PT8487</name></trkpt>
<trkpt lat="54.579204" lon="-3.256461"><ele>607</ele><time>2019-10-02T12:48:16Z</time><name>PT8488</name></trkpt>
<trkpt lat="54.579196" lon="-3.256470"><ele>607</ele><time>2019-10-02T12:48:17Z</time><name>PT8489</name></trkpt>
<trkpt lat="54.579190" lon="-3.256481"><ele>608</ele><time>2019-10-02T12:48:18Z</time><name>PT8490</name></trkpt>
<trkpt lat="54.579183" lon="-3.256489"><ele>607</ele><time>2019-10-02T12:48:19Z</time><name>PT8491</name></trkpt>
<trkpt lat="54.579179" lon="-3.256500"><ele>607</ele><time>2019-10-02T12:48:20Z</time><name>PT8492</name></trkpt>
<trkpt lat="54.579171" lon="-3.256509"><ele>608</ele><time>2019-10-02T12:48:21Z</time><name>PT8493</name></trkpt>
<trkpt lat="54.579165" lon="-3.256518"><ele>608</ele><time>2019-10-02T12:48:22Z</time><name>PT8494</name></trkpt>
<trkpt lat="54.579160" lon="-3.256526"><ele>608</ele><time>2019-10-02T12:48:23Z</time><name>PT8495</name></trkpt>
<trkpt lat="54.579152" lon="-3.256537"><ele>608</ele><time>2019-10-02T12:48:24Z</time><name>PT8496</name></trkpt>
<trkpt lat="54.579142" lon="-3.256548"><ele>609</ele><time>2019-10-02T12:48:25Z</time><name>PT8497</name></trkpt>
<trkpt lat="54.579133" lon="-3.256562"><ele>609</ele><time>2019-10-02T12:48:26Z</time><name>PT8498</name></trkpt>
<trkpt lat="54.579125" lon="-3.256580"><ele>610</ele><time>2019-10-02T12:48:27Z</time><name>PT8499</name></trkpt>
<trkpt lat="54.579119" lon="-3.256593"><ele>610</ele><time>2019-10-02T12:48:28Z</time><name>PT8500</name></trkpt>
<trkpt lat="54.579113" lon="-3.256607"><ele>610</ele><time>2019-10-02T12:48:29Z</time><name>PT8501</name></trkpt>
<trkpt lat="54.579105" lon="-3.256619"><ele>610</ele><time>2019-10-02T12:48:30Z</time><name>PT8502</name></trkpt>
<trkpt lat="54.579094" lon="-3.256626"><ele>610</ele><time>2019-10-02T12:48:31Z</time><name>PT8503</name></trkpt>
<trkpt lat="54.579087" lon="-3.256636"><ele>610</ele><time>2019-10-02T12:48:32Z</time><name>PT8504</name></trkpt>
<trkpt lat="54.579080" lon="-3.256649"><ele>610</ele><time>2019-10-02T12:48:33Z</time><name>PT8505</name></trkpt>
<trkpt lat="54.579074" lon="-3.256660"><ele>610</ele><time>2019-10-02T12:48:34Z</time><name>PT8506</name></trkpt>
<trkpt lat="54.579065" lon="-3.256672"><ele>610</ele><time>2019-10-02T12:48:35Z</time><name>PT8507</name></trkpt>
<trkpt lat="54.579058" lon="-3.256681"><ele>610</ele><time>2019-10-02T12:48:36Z</time><name>PT8508</name></trkpt>
<trkpt lat="54.579050" lon="-3.256688"><ele>610</ele><time>2019-10-02T12:48:37Z</time><name>PT8509</name></trkpt>
<trkpt lat="54.579043" lon="-3.256695"><ele>610</ele><time>2019-10-02T12:48:38Z</time><name>PT8510</name></trkpt>
<trkpt lat="54.579035" lon="-3.256703"><ele>610</ele><time>2019-10-02T12:48:39Z</time><name>PT8511</name></trkpt>
<trkpt lat="54.579029" lon="-3.256709"><ele>610</ele><time>2019-10-02T12:48:40Z</time><name>PT8512</name></trkpt>
<trkpt lat="54.579025" lon="-3.256721"><ele>609</ele><time>2019-10-02T12:48:41Z</time><name>PT8513</name></trkpt>
<trkpt lat="54.579018" lon="-3.256735"><ele>609</ele><time>2019-10-02T12:48:42Z</time><name>PT8514</name></trkpt>
<trkpt lat="54.579011" lon="-3.256742"><ele>609</ele><time>2019-10-02T12:48:43Z</time><name>PT8515</name></trkpt>
<trkpt lat="54.579003" lon="-3.256752"><ele>608</ele><time>2019-10-02T12:48:44Z</time><name>PT8516</name></trkpt>
<trkpt lat="54.578995" lon="-3.256763"><ele>609</ele><time>2019-10-02T12:48:45Z</time><name>PT8517</name></trkpt>
<trkpt lat="54.578986" lon="-3.256773"><ele>608</ele><time>2019-10-02T12:48:46Z</time><name>PT8518</name></trkpt>
<trkpt lat="54.578975" lon="-3.256786"><ele>608</ele><time>2019-10-02T12:48:47Z</time><name>PT8519</name></trkpt>
<trkpt lat="54.578972" lon="-3.256796"><ele>608</ele><time>2019-10-02T12:48:48Z</time><name>PT8520</name></trkpt>
<trkpt lat="54.578967" lon="-3.256810"><ele>608</ele><time>2019-10-02T12:48:49Z</time><name>PT8521</name></trkpt>
<trkpt lat="54.578961" lon="-3.256825"><ele>609</ele><time>2019-10-02T12:48:50Z</time><name>PT8522</name></trkpt>
<trkpt lat="54.578953" lon="-3.256837"><ele>609</ele><time>2019-10-02T12:48:51Z</time><name>PT8523</name></trkpt>
<trkpt lat="54.578944" lon="-3.256848"><ele>609</ele><time>2019-10-02T12:48:52Z</time><name>PT8524</name></trkpt>
<trkpt lat="54.578936" lon="-3.256857"><ele>609</ele><time>2019-10-02T12:48:53Z</time><name>PT8525</name></trkpt>
<trkpt lat="54.578925" lon="-3.256863"><ele>609</ele><time>2019-10-02T12:48:54Z</time><name>PT8526</name></trkpt>
<trkpt lat="54.578915" lon="-3.256867"><ele>609</ele><time>2019-10-02T12:48:55Z</time><name>PT8527</name></trkpt>
<trkpt lat="54.578906" lon="-3.256872"><ele>610</ele><time>2019-10-02T12:48:56Z</time><name>PT8528</name></trkpt>
<trkpt lat="54.578898" lon="-3.256872"><ele>610</ele><time>2019-10-02T12:48:57Z</time><name>PT8529</name></trkpt>
<trkpt lat="54.578889" lon="-3.256873"><ele>610</ele><time>2019-10-02T12:48:58Z</time><name>PT8530</name></trkpt>
<trkpt lat="54.578882" lon="-3.256874"><ele>610</ele><time>2019-10-02T12:48:58Z</time><name>PT8531</name></trkpt>
<trkpt lat="54.578874" lon="-3.256876"><ele>610</ele><time>2019-10-02T12:49:00Z</time><name>PT8532</name></trkpt>
<trkpt lat="54.578866" lon="-3.256872"><ele>611</ele><time>2019-10-02T12:49:01Z</time><name>PT8533</name></trkpt>
<trkpt lat="54.578857" lon="-3.256867"><ele>610</ele><time>2019-10-02T12:49:02Z</time><name>PT8534</name></trkpt>
<trkpt lat="54.578849" lon="-3.256863"><ele>610</ele><time>2019-10-02T12:49:03Z</time><name>PT8535</name></trkpt>
<trkpt lat="54.578842" lon="-3.256862"><ele>610</ele><time>2019-10-02T12:49:04Z</time><name>PT8536</name></trkpt>
<trkpt lat="54.578830" lon="-3.256859"><ele>610</ele><time>2019-10-02T12:49:05Z</time><name>PT8537</name></trkpt>
<trkpt lat="54.578822" lon="-3.256860"><ele>611</ele><time>2019-10-02T12:49:06Z</time><name>PT8538</name></trkpt>
<trkpt lat="54.578819" lon="-3.256856"><ele>612</ele><time>2019-10-02T12:49:06Z</time><name>PT8539</name></trkpt>
<trkpt lat="54.578814" lon="-3.256853"><ele>612</ele><time>2019-10-02T12:49:08Z</time><name>PT8540</name></trkpt>
<trkpt lat="54.578807" lon="-3.256852"><ele>611</ele><time>2019-10-02T12:49:09Z</time><name>PT8541</name></trkpt>
<trkpt lat="54.578803" lon="-3.256845"><ele>611</ele><time>2019-10-02T12:49:10Z</time><name>PT8542</name></trkpt>
<trkpt lat="54.578797" lon="-3.256843"><ele>611</ele><time>2019-10-02T12:49:11Z</time><name>PT8543</name></trkpt>
<trkpt lat="54.578792" lon="-3.256837"><ele>612</ele><time>2019-10-02T12:49:12Z</time><name>PT8544</name></trkpt>
<trkpt lat="54.578785" lon="-3.256834"><ele>612</ele><time>2019-10-02T12:49:13Z</time><name>PT8545</name></trkpt>
<trkpt lat="54.578779" lon="-3.256834"><ele>611</ele><time>2019-10-02T12:49:14Z</time><name>PT8546</name></trkpt>
<trkpt lat="54.578773" lon="-3.256835"><ele>612</ele><time>2019-10-02T12:49:15Z</time><name>PT8547</name></trkpt>
<trkpt lat="54.578766" lon="-3.256836"><ele>612</ele><time>2019-10-02T12:49:16Z</time><name>PT8548</name></trkpt>
<trkpt lat="54.578757" lon="-3.256836"><ele>613</ele><time>2019-10-02T12:49:17Z</time><name>PT8549</name></trkpt>
<trkpt lat="54.578752" lon="-3.256833"><ele>612</ele><time>2019-10-02T12:49:18Z</time><name>PT8550</name></trkpt>
<trkpt lat="54.578748" lon="-3.256829"><ele>613</ele><time>2019-10-02T12:49:18Z</time><name>PT8551</name></trkpt>
<trkpt lat="54.578743" lon="-3.256827"><ele>614</ele><time>2019-10-02T12:49:20Z</time><name>PT8552</name></trkpt>
<trkpt lat="54.578739" lon="-3.256829"><ele>614</ele><time>2019-10-02T12:49:23Z</time><name>PT8553</name></trkpt>
<trkpt lat="54.578731" lon="-3.256825"><ele>614</ele><time>2019-10-02T12:49:24Z</time><name>PT8554</name></trkpt>
<trkpt lat="54.578721" lon="-3.256818"><ele>613</ele><time>2019-10-02T12:49:25Z</time><name>PT8555</name></trkpt>
<trkpt lat="54.578715" lon="-3.256815"><ele>613</ele><time>2019-10-02T12:49:26Z</time><name>PT8556</name></trkpt>
<trkpt lat="54.578707" lon="-3.256809"><ele>613</ele><time>2019-10-02T12:49:27Z</time><name>PT8557</name></trkpt>
<trkpt lat="54.578699" lon="-3.256804"><ele>613</ele><time>2019-10-02T12:49:28Z</time><name>PT8558</name></trkpt>
<trkpt lat="54.578692" lon="-3.256800"><ele>614</ele><time>2019-10-02T12:49:29Z</time><name>PT8559</name></trkpt>
<trkpt lat="54.578691" lon="-3.256794"><ele>614</ele><time>2019-10-02T12:49:30Z</time><name>PT8560</name></trkpt>
<trkpt lat="54.578686" lon="-3.256788"><ele>614</ele><time>2019-10-02T12:49:31Z</time><name>PT8561</name></trkpt>
<trkpt lat="54.578679" lon="-3.256780"><ele>614</ele><time>2019-10-02T12:49:32Z</time><name>PT8562</name></trkpt>
<trkpt lat="54.578674" lon="-3.256778"><ele>614</ele><time>2019-10-02T12:49:33Z</time><name>PT8563</name></trkpt>
<trkpt lat="54.578666" lon="-3.256777"><ele>615</ele><time>2019-10-02T12:49:34Z</time><name>PT8564</name></trkpt>
<trkpt lat="54.578663" lon="-3.256770"><ele>614</ele><time>2019-10-02T12:49:35Z</time><name>PT8565</name></trkpt>
<trkpt lat="54.578657" lon="-3.256771"><ele>615</ele><time>2019-10-02T12:49:36Z</time><name>PT8566</name></trkpt>
<trkpt lat="54.578652" lon="-3.256770"><ele>615</ele><time>2019-10-02T12:49:37Z</time><name>PT8567</name></trkpt>
<trkpt lat="54.578648" lon="-3.256766"><ele>615</ele><time>2019-10-02T12:49:38Z</time><name>PT8568</name></trkpt>
<trkpt lat="54.578643" lon="-3.256761"><ele>615</ele><time>2019-10-02T12:49:39Z</time><name>PT8569</name></trkpt>
<trkpt lat="54.578637" lon="-3.256757"><ele>615</ele><time>2019-10-02T12:49:40Z</time><name>PT8570</name></trkpt>
<trkpt lat="54.578631" lon="-3.256752"><ele>615</ele><time>2019-10-02T12:49:41Z</time><name>PT8571</name></trkpt>
<trkpt lat="54.578624" lon="-3.256745"><ele>615</ele><time>2019-10-02T12:49:42Z</time><name>PT8572</name></trkpt>
<trkpt lat="54.578619" lon="-3.256737"><ele>615</ele><time>2019-10-02T12:49:43Z</time><name>PT8573</name></trkpt>
<trkpt lat="54.578617" lon="-3.256731"><ele>616</ele><time>2019-10-02T12:49:44Z</time><name>PT8574</name></trkpt>
<trkpt lat="54.578614" lon="-3.256722"><ele>616</ele><time>2019-10-02T12:49:45Z</time><name>PT8575</name></trkpt>
<trkpt lat="54.578610" lon="-3.256715"><ele>616</ele><time>2019-10-02T12:49:46Z</time><name>PT8576</name></trkpt>
<trkpt lat="54.578609" lon="-3.256707"><ele>617</ele><time>2019-10-02T12:49:47Z</time><name>PT8577</name></trkpt>
<trkpt lat="54.578607" lon="-3.256702"><ele>617</ele><time>2019-10-02T12:49:48Z</time><name>PT8578</name></trkpt>
<trkpt lat="54.578605" lon="-3.256700"><ele>618</ele><time>2019-10-02T12:49:53Z</time><name>PT8579</name></trkpt>
<trkpt lat="54.578600" lon="-3.256695"><ele>618</ele><time>2019-10-02T12:49:54Z</time><name>PT8580</name></trkpt>
<trkpt lat="54.578596" lon="-3.256685"><ele>619</ele><time>2019-10-02T12:49:54Z</time><name>PT8581</name></trkpt>
<trkpt lat="54.578593" lon="-3.256678"><ele>619</ele><time>2019-10-02T12:49:56Z</time><name>PT8582</name></trkpt>
<trkpt lat="54.578589" lon="-3.256669"><ele>619</ele><time>2019-10-02T12:49:57Z</time><name>PT8583</name></trkpt>
<trkpt lat="54.578587" lon="-3.256667"><ele>619</ele><time>2019-10-02T12:49:58Z</time><name>PT8584</name></trkpt>
<trkpt lat="54.578585" lon="-3.256666"><ele>620</ele><time>2019-10-02T12:49:59Z</time><name>PT8585</name></trkpt>
<trkpt lat="54.578582" lon="-3.256661"><ele>619</ele><time>2019-10-02T12:50:00Z</time><name>PT8586</name></trkpt>
<trkpt lat="54.578581" lon="-3.256655"><ele>619</ele><time>2019-10-02T12:50:02Z</time><name>PT8587</name></trkpt>
<trkpt lat="54.578576" lon="-3.256645"><ele>619</ele><time>2019-10-02T12:50:03Z</time><name>PT8588</name></trkpt>
<trkpt lat="54.578570" lon="-3.256636"><ele>619</ele><time>2019-10-02T12:50:04Z</time><name>PT8589</name></trkpt>
<trkpt lat="54.578566" lon="-3.256626"><ele>618</ele><time>2019-10-02T12:50:04Z</time><name>PT8590</name></trkpt>
<trkpt lat="54.578560" lon="-3.256618"><ele>618</ele><time>2019-10-02T12:50:06Z</time><name>PT8591</name></trkpt>
<trkpt lat="54.578555" lon="-3.256606"><ele>619</ele><time>2019-10-02T12:50:07Z</time><name>PT8592</name></trkpt>
<trkpt lat="54.578553" lon="-3.256602"><ele>619</ele><time>2019-10-02T12:50:08Z</time><name>PT8593</name></trkpt>
<trkpt lat="54.578548" lon="-3.256597"><ele>619</ele><time>2019-10-02T12:50:09Z</time><name>PT8594</name></trkpt>
<trkpt lat="54.578544" lon="-3.256594"><ele>619</ele><time>2019-10-02T12:50:10Z</time><name>PT8595</name></trkpt>
<trkpt lat="54.578543" lon="-3.256592"><ele>619</ele><time>2019-10-02T12:50:13Z</time><name>PT8596</name></trkpt>
<trkpt lat="54.578537" lon="-3.256586"><ele>619</ele><time>2019-10-02T12:50:14Z</time><name>PT8597</name></trkpt>
<trkpt lat="54.578534" lon="-3.256583"><ele>619</ele><time>2019-10-02T12:50:14Z</time><name>PT8598</name></trkpt>
<trkpt lat="54.578533" lon="-3.256580"><ele>619</ele><time>2019-10-02T12:50:21Z</time><name>PT8599</name></trkpt>
<trkpt lat="54.578524" lon="-3.256580"><ele>620</ele><time>2019-10-02T12:50:22Z</time><name>PT8600</name></trkpt>
<trkpt lat="54.578516" lon="-3.256577"><ele>620</ele><time>2019-10-02T12:50:23Z</time><name>PT8601</name></trkpt>
<trkpt lat="54.578511" lon="-3.256570"><ele>620</ele><time>2019-10-02T12:50:24Z</time><name>PT8602</name></trkpt>
<trkpt lat="54.578505" lon="-3.256571"><ele>620</ele><time>2019-10-02T12:50:25Z</time><name>PT8603</name></trkpt>
<trkpt lat="54.578494" lon="-3.256571"><ele>620</ele><time>2019-10-02T12:50:26Z</time><name>PT8604</name></trkpt>
<trkpt lat="54.578487" lon="-3.256573"><ele>620</ele><time>2019-10-02T12:50:27Z</time><name>PT8605</name></trkpt>
<trkpt lat="54.578481" lon="-3.256577"><ele>620</ele><time>2019-10-02T12:50:28Z</time><name>PT8606</name></trkpt>
<trkpt lat="54.578470" lon="-3.256577"><ele>621</ele><time>2019-10-02T12:50:29Z</time><name>PT8607</name></trkpt>
<trkpt lat="54.578461" lon="-3.256574"><ele>622</ele><time>2019-10-02T12:50:30Z</time><name>PT8608</name></trkpt>
<trkpt lat="54.578452" lon="-3.256578"><ele>623</ele><time>2019-10-02T12:50:31Z</time><name>PT8609</name></trkpt>
<trkpt lat="54.578446" lon="-3.256577"><ele>623</ele><time>2019-10-02T12:50:32Z</time><name>PT8610</name></trkpt>
<trkpt lat="54.578439" lon="-3.256574"><ele>623</ele><time>2019-10-02T12:50:33Z</time><name>PT8611</name></trkpt>
<trkpt lat="54.578432" lon="-3.256577"><ele>624</ele><time>2019-10-02T12:50:34Z</time><name>PT8612</name></trkpt>
<trkpt lat="54.578423" lon="-3.256575"><ele>624</ele><time>2019-10-02T12:50:34Z</time><name>PT8613</name></trkpt>
<trkpt lat="54.578414" lon="-3.256575"><ele>624</ele><time>2019-10-02T12:50:36Z</time><name>PT8614</name></trkpt>
<trkpt lat="54.578408" lon="-3.256578"><ele>625</ele><time>2019-10-02T12:50:37Z</time><name>PT8615</name></trkpt>
<trkpt lat="54.578401" lon="-3.256576"><ele>625</ele><time>2019-10-02T12:50:38Z</time><name>PT8616</name></trkpt>
<trkpt lat="54.578394" lon="-3.256572"><ele>625</ele><time>2019-10-02T12:50:39Z</time><name>PT8617</name></trkpt>
<trkpt lat="54.578385" lon="-3.256568"><ele>625</ele><time>2019-10-02T12:50:40Z</time><name>PT8618</name></trkpt>
<trkpt lat="54.578378" lon="-3.256565"><ele>625</ele><time>2019-10-02T12:50:41Z</time><name>PT8619</name></trkpt>
<trkpt lat="54.578371" lon="-3.256560"><ele>626</ele><time>2019-10-02T12:50:42Z</time><name>PT8620</name></trkpt>
<trkpt lat="54.578366" lon="-3.256552"><ele>626</ele><time>2019-10-02T12:50:42Z</time><name>PT8621</name></trkpt>
<trkpt lat="54.578363" lon="-3.256541"><ele>626</ele><time>2019-10-02T12:50:44Z</time><name>PT8622</name></trkpt>
<trkpt lat="54.578357" lon="-3.256532"><ele>626</ele><time>2019-10-02T12:50:45Z</time><name>PT8623</name></trkpt>
<trkpt lat="54.578352" lon="-3.256519"><ele>627</ele><time>2019-10-02T12:50:46Z</time><name>PT8624</name></trkpt>
<trkpt lat="54.578348" lon="-3.256511"><ele>627</ele><time>2019-10-02T12:50:46Z</time><name>PT8625</name></trkpt>
<trkpt lat="54.578341" lon="-3.256507"><ele>627</ele><time>2019-10-02T12:50:48Z</time><name>PT8626</name></trkpt>
<trkpt lat="54.578333" lon="-3.256502"><ele>627</ele><time>2019-10-02T12:50:48Z</time><name>PT8627</name></trkpt>
<trkpt lat="54.578324" lon="-3.256501"><ele>627</ele><time>2019-10-02T12:50:50Z</time><name>PT8628</name></trkpt>
<trkpt lat="54.578311" lon="-3.256504"><ele>628</ele><time>2019-10-02T12:50:51Z</time><name>PT8629</name></trkpt>
<trkpt lat="54.578299" lon="-3.256505"><ele>628</ele><time>2019-10-02T12:50:52Z</time><name>PT8630</name></trkpt>
<trkpt lat="54.578286" lon="-3.256509"><ele>628</ele><time>2019-10-02T12:50:52Z</time><name>PT8631</name></trkpt>
<trkpt lat="54.578278" lon="-3.256510"><ele>628</ele><time>2019-10-02T12:50:54Z</time><name>PT8632</name></trkpt>
<trkpt lat="54.578268" lon="-3.256506"><ele>629</ele><time>2019-10-02T12:50:55Z</time><name>PT8633</name></trkpt>
<trkpt lat="54.578261" lon="-3.256506"><ele>629</ele><time>2019-10-02T12:50:56Z</time><name>PT8634</name></trkpt>
<trkpt lat="54.578253" lon="-3.256507"><ele>630</ele><time>2019-10-02T12:50:56Z</time><name>PT8635</name></trkpt>
<trkpt lat="54.578245" lon="-3.256508"><ele>630</ele><time>2019-10-02T12:50:58Z</time><name>PT8636</name></trkpt>
<trkpt lat="54.578238" lon="-3.256510"><ele>630</ele><time>2019-10-02T12:50:58Z</time><name>PT8637</name></trkpt>
<trkpt lat="54.578229" lon="-3.256514"><ele>630</ele><time>2019-10-02T12:51:00Z</time><name>PT8638</name></trkpt>
<trkpt lat="54.578220" lon="-3.256517"><ele>630</ele><time>2019-10-02T12:51:01Z</time><name>PT8639</name></trkpt>
<trkpt lat="54.578211" lon="-3.256522"><ele>630</ele><time>2019-10-02T12:51:02Z</time><name>PT8640</name></trkpt>
<trkpt lat="54.578202" lon="-3.256525"><ele>630</ele><time>2019-10-02T12:51:03Z</time><name>PT8641</name></trkpt>
<trkpt lat="54.578194" lon="-3.256530"><ele>630</ele><time>2019-10-02T12:51:04Z</time><name>PT8642</name></trkpt>
<trkpt lat="54.578185" lon="-3.256533"><ele>630</ele><time>2019-10-02T12:51:05Z</time><name>PT8643</name></trkpt>
<trkpt lat="54.578178" lon="-3.256538"><ele>630</ele><time>2019-10-02T12:51:06Z</time><name>PT8644</name></trkpt>
<trkpt lat="54.578169" lon="-3.256545"><ele>630</ele><time>2019-10-02T12:51:07Z</time><name>PT8645</name></trkpt>
<trkpt lat="54.578160" lon="-3.256550"><ele>629</ele><time>2019-10-02T12:51:08Z</time><name>PT8646</name></trkpt>
<trkpt lat="54.578152" lon="-3.256555"><ele>629</ele><time>2019-10-02T12:51:08Z</time><name>PT8647</name></trkpt>
<trkpt lat="54.578143" lon="-3.256561"><ele>630</ele><time>2019-10-02T12:51:10Z</time><name>PT8648</name></trkpt>
<trkpt lat="54.578133" lon="-3.256565"><ele>630</ele><time>2019-10-02T12:51:11Z</time><name>PT8649</name></trkpt>
<trkpt lat="54.578124" lon="-3.256569"><ele>629</ele><time>2019-10-02T12:51:12Z</time><name>PT8650</name></trkpt>
<trkpt lat="54.578113" lon="-3.256574"><ele>630</ele><time>2019-10-02T12:51:13Z</time><name>PT8651</name></trkpt>
<trkpt lat="54.578101" lon="-3.256583"><ele>629</ele><time>2019-10-02T12:51:14Z</time><name>PT8652</name></trkpt>
<trkpt lat="54.578092" lon="-3.256591"><ele>630</ele><time>2019-10-02T12:51:15Z</time><name>PT8653</name></trkpt>
<trkpt lat="54.578082" lon="-3.256602"><ele>630</ele><time>2019-10-02T12:51:16Z</time><name>PT8654</name></trkpt>
<trkpt lat="54.578075" lon="-3.256608"><ele>630</ele><time>2019-10-02T12:51:17Z</time><name>PT8655</name></trkpt>
<trkpt lat="54.578065" lon="-3.256613"><ele>631</ele><time>2019-10-02T12:51:18Z</time><name>PT8656</name></trkpt>
<trkpt lat="54.578057" lon="-3.256621"><ele>631</ele><time>2019-10-02T12:51:19Z</time><name>PT8657</name></trkpt>
<trkpt lat="54.578051" lon="-3.256620"><ele>631</ele><time>2019-10-02T12:51:20Z</time><name>PT8658</name></trkpt>
<trkpt lat="54.578045" lon="-3.256622"><ele>631</ele><time>2019-10-02T12:51:21Z</time><name>PT8659</name></trkpt>
<trkpt lat="54.578037" lon="-3.256625"><ele>631</ele><time>2019-10-02T12:51:22Z</time><name>PT8660</name></trkpt>
<trkpt lat="54.578030" lon="-3.256633"><ele>631</ele><time>2019-10-02T12:51:23Z</time><name>PT8661</name></trkpt>
<trkpt lat="54.578019" lon="-3.256643"><ele>632</ele><time>2019-10-02T12:51:24Z</time><name>PT8662</name></trkpt>
<trkpt lat="54.578009" lon="-3.256653"><ele>632</ele><time>2019-10-02T12:51:25Z</time><name>PT8663</name></trkpt>
<trkpt lat="54.577997" lon="-3.256657"><ele>632</ele><time>2019-10-02T12:51:26Z</time><name>PT8664</name></trkpt>
<trkpt lat="54.577989" lon="-3.256658"><ele>631</ele><time>2019-10-02T12:51:27Z</time><name>PT8665</name></trkpt>
<trkpt lat="54.577982" lon="-3.256659"><ele>631</ele><time>2019-10-02T12:51:28Z</time><name>PT8666</name></trkpt>
<trkpt lat="54.577975" lon="-3.256670"><ele>631</ele><time>2019-10-02T12:51:29Z</time><name>PT8667</name></trkpt>
<trkpt lat="54.577967" lon="-3.256682"><ele>631</ele><time>2019-10-02T12:51:30Z</time><name>PT8668</name></trkpt>
<trkpt lat="54.577958" lon="-3.256693"><ele>632</ele><time>2019-10-02T12:51:31Z</time><name>PT8669</name></trkpt>
<trkpt lat="54.577951" lon="-3.256700"><ele>632</ele><time>2019-10-02T12:51:32Z</time><name>PT8670</name></trkpt>
<trkpt lat="54.577942" lon="-3.256710"><ele>632</ele><time>2019-10-02T12:51:33Z</time><name>PT8671</name></trkpt>
<trkpt lat="54.577931" lon="-3.256714"><ele>631</ele><time>2019-10-02T12:51:34Z</time><name>PT8672</name></trkpt>
<trkpt lat="54.577922" lon="-3.256708"><ele>633</ele><time>2019-10-02T12:51:35Z</time><name>PT8673</name></trkpt>
<trkpt lat="54.577916" lon="-3.256726"><ele>633</ele><time>2019-10-02T12:51:36Z</time><name>PT8674</name></trkpt>
<trkpt lat="54.577908" lon="-3.256739"><ele>633</ele><time>2019-10-02T12:51:37Z</time><name>PT8675</name></trkpt>
<trkpt lat="54.577900" lon="-3.256756"><ele>634</ele><time>2019-10-02T12:51:38Z</time><name>PT8676</name></trkpt>
<trkpt lat="54.577895" lon="-3.256766"><ele>634</ele><time>2019-10-02T12:51:39Z</time><name>PT8677</name></trkpt>
<trkpt lat="54.577889" lon="-3.256774"><ele>633</ele><time>2019-10-02T12:51:40Z</time><name>PT8678</name></trkpt>
<trkpt lat="54.577883" lon="-3.256786"><ele>633</ele><time>2019-10-02T12:51:41Z</time><name>PT8679</name></trkpt>
<trkpt lat="54.577877" lon="-3.256794"><ele>633</ele><time>2019-10-02T12:51:42Z</time><name>PT8680</name></trkpt>
<trkpt lat="54.577869" lon="-3.256801"><ele>633</ele><time>2019-10-02T12:51:42Z</time><name>PT8681</name></trkpt>
<trkpt lat="54.577861" lon="-3.256811"><ele>633</ele><time>2019-10-02T12:51:44Z</time><name>PT8682</name></trkpt>
<trkpt lat="54.577851" lon="-3.256821"><ele>633</ele><time>2019-10-02T12:51:45Z</time><name>PT8683</name></trkpt>
<trkpt lat="54.577845" lon="-3.256839"><ele>631</ele><time>2019-10-02T12:51:46Z</time><name>PT8684</name></trkpt>
<trkpt lat="54.577837" lon="-3.256842"><ele>631</ele><time>2019-10-02T12:51:47Z</time><name>PT8685</name></trkpt>
<trkpt lat="54.577830" lon="-3.256849"><ele>632</ele><time>2019-10-02T12:51:48Z</time><name>PT8686</name></trkpt>
<trkpt lat="54.577822" lon="-3.256858"><ele>632</ele><time>2019-10-02T12:51:49Z</time><name>PT8687</name></trkpt>
<trkpt lat="54.577813" lon="-3.256871"><ele>632</ele><time>2019-10-02T12:51:50Z</time><name>PT8688</name></trkpt>
<trkpt lat="54.577804" lon="-3.256886"><ele>631</ele><time>2019-10-02T12:51:50Z</time><name>PT8689</name></trkpt>
<trkpt lat="54.577794" lon="-3.256897"><ele>631</ele><time>2019-10-02T12:51:52Z</time><name>PT8690</name></trkpt>
<trkpt lat="54.577784" lon="-3.256909"><ele>631</ele><time>2019-10-02T12:51:53Z</time><name>PT8691</name></trkpt>
<trkpt lat="54.577775" lon="-3.256920"><ele>631</ele><time>2019-10-02T12:51:54Z</time><name>PT8692</name></trkpt>
<trkpt lat="54.577766" lon="-3.256928"><ele>631</ele><time>2019-10-02T12:51:55Z</time><name>PT8693</name></trkpt>
<trkpt lat="54.577759" lon="-3.256938"><ele>632</ele><time>2019-10-02T12:51:56Z</time><name>PT8694</name></trkpt>
<trkpt lat="54.577750" lon="-3.256954"><ele>632</ele><time>2019-10-02T12:51:56Z</time><name>PT8695</name></trkpt>
<trkpt lat="54.577742" lon="-3.256969"><ele>632</ele><time>2019-10-02T12:51:58Z</time><name>PT8696</name></trkpt>
<trkpt lat="54.577734" lon="-3.256978"><ele>632</ele><time>2019-10-02T12:51:59Z</time><name>PT8697</name></trkpt>
<trkpt lat="54.577724" lon="-3.256983"><ele>633</ele><time>2019-10-02T12:51:59Z</time><name>PT8698</name></trkpt>
<trkpt lat="54.577714" lon="-3.256995"><ele>633</ele><time>2019-10-02T12:52:01Z</time><name>PT8699</name></trkpt>
<trkpt lat="54.577703" lon="-3.257002"><ele>633</ele><time>2019-10-02T12:52:02Z</time><name>PT8700</name></trkpt>
<trkpt lat="54.577694" lon="-3.257008"><ele>633</ele><time>2019-10-02T12:52:02Z</time><name>PT8701</name></trkpt>
<trkpt lat="54.577686" lon="-3.257016"><ele>634</ele><time>2019-10-02T12:52:04Z</time><name>PT8702</name></trkpt>
<trkpt lat="54.577676" lon="-3.257025"><ele>634</ele><time>2019-10-02T12:52:05Z</time><name>PT8703</name></trkpt>
<trkpt lat="54.577671" lon="-3.257038"><ele>634</ele><time>2019-10-02T12:52:06Z</time><name>PT8704</name></trkpt>
<trkpt lat="54.577664" lon="-3.257050"><ele>634</ele><time>2019-10-02T12:52:07Z</time><name>PT8705</name></trkpt>
<trkpt lat="54.577655" lon="-3.257058"><ele>634</ele><time>2019-10-02T12:52:08Z</time><name>PT8706</name></trkpt>
<trkpt lat="54.577647" lon="-3.257067"><ele>634</ele><time>2019-10-02T12:52:09Z</time><name>PT8707</name></trkpt>
<trkpt lat="54.577639" lon="-3.257081"><ele>635</ele><time>2019-10-02T12:52:10Z</time><name>PT8708</name></trkpt>
<trkpt lat="54.577633" lon="-3.257087"><ele>635</ele><time>2019-10-02T12:52:11Z</time><name>PT8709</name></trkpt>
<trkpt lat="54.577625" lon="-3.257098"><ele>635</ele><time>2019-10-02T12:52:12Z</time><name>PT8710</name></trkpt>
<trkpt lat="54.577616" lon="-3.257105"><ele>635</ele><time>2019-10-02T12:52:13Z</time><name>PT8711</name></trkpt>
<trkpt lat="54.577609" lon="-3.257114"><ele>635</ele><time>2019-10-02T12:52:14Z</time><name>PT8712</name></trkpt>
<trkpt lat="54.577598" lon="-3.257127"><ele>635</ele><time>2019-10-02T12:52:15Z</time><name>PT8713</name></trkpt>
<trkpt lat="54.577589" lon="-3.257138"><ele>635</ele><time>2019-10-02T12:52:16Z</time><name>PT8714</name></trkpt>
<trkpt lat="54.577576" lon="-3.257145"><ele>636</ele><time>2019-10-02T12:52:17Z</time><name>PT8715</name></trkpt>
<trkpt lat="54.577566" lon="-3.257149"><ele>636</ele><time>2019-10-02T12:52:18Z</time><name>PT8716</name></trkpt>
<trkpt lat="54.577554" lon="-3.257155"><ele>636</ele><time>2019-10-02T12:52:19Z</time><name>PT8717</name></trkpt>
<trkpt lat="54.577544" lon="-3.257157"><ele>637</ele><time>2019-10-02T12:52:20Z</time><name>PT8718</name></trkpt>
<trkpt lat="54.577536" lon="-3.257164"><ele>637</ele><time>2019-10-02T12:52:21Z</time><name>PT8719</name></trkpt>
<trkpt lat="54.577528" lon="-3.257173"><ele>637</ele><time>2019-10-02T12:52:22Z</time><name>PT8720</name></trkpt>
<trkpt lat="54.577521" lon="-3.257182"><ele>637</ele><time>2019-10-02T12:52:23Z</time><name>PT8721</name></trkpt>
<trkpt lat="54.577513" lon="-3.257193"><ele>637</ele><time>2019-10-02T12:52:24Z</time><name>PT8722</name></trkpt>
<trkpt lat="54.577507" lon="-3.257202"><ele>637</ele><time>2019-10-02T12:52:25Z</time><name>PT8723</name></trkpt>
<trkpt lat="54.577500" lon="-3.257211"><ele>638</ele><time>2019-10-02T12:52:26Z</time><name>PT8724</name></trkpt>
<trkpt lat="54.577493" lon="-3.257221"><ele>638</ele><time>2019-10-02T12:52:27Z</time><name>PT8725</name></trkpt>
<trkpt lat="54.577486" lon="-3.257223"><ele>637</ele><time>2019-10-02T12:52:28Z</time><name>PT8726</name></trkpt>
<trkpt lat="54.577478" lon="-3.257228"><ele>637</ele><time>2019-10-02T12:52:29Z</time><name>PT8727</name></trkpt>
<trkpt lat="54.577470" lon="-3.257233"><ele>637</ele><time>2019-10-02T12:52:30Z</time><name>PT8728</name></trkpt>
<trkpt lat="54.577462" lon="-3.257240"><ele>637</ele><time>2019-10-02T12:52:31Z</time><name>PT8729</name></trkpt>
<trkpt lat="54.577453" lon="-3.257244"><ele>637</ele><time>2019-10-02T12:52:32Z</time><name>PT8730</name></trkpt>
<trkpt lat="54.577444" lon="-3.257254"><ele>638</ele><time>2019-10-02T12:52:33Z</time><name>PT8731</name></trkpt>
<trkpt lat="54.577437" lon="-3.257261"><ele>638</ele><time>2019-10-02T12:52:34Z</time><name>PT8732</name></trkpt>
<trkpt lat="54.577428" lon="-3.257269"><ele>639</ele><time>2019-10-02T12:52:35Z</time><name>PT8733</name></trkpt>
<trkpt lat="54.577418" lon="-3.257280"><ele>638</ele><time>2019-10-02T12:52:36Z</time><name>PT8734</name></trkpt>
<trkpt lat="54.577412" lon="-3.257293"><ele>638</ele><time>2019-10-02T12:52:37Z</time><name>PT8735</name></trkpt>
<trkpt lat="54.577404" lon="-3.257305"><ele>638</ele><time>2019-10-02T12:52:38Z</time><name>PT8736</name></trkpt>
<trkpt lat="54.577397" lon="-3.257315"><ele>638</ele><time>2019-10-02T12:52:39Z</time><name>PT8737</name></trkpt>
<trkpt lat="54.577390" lon="-3.257323"><ele>639</ele><time>2019-10-02T12:52:40Z</time><name>PT8738</name></trkpt>
<trkpt lat="54.577382" lon="-3.257331"><ele>638</ele><time>2019-10-02T12:52:41Z</time><name>PT8739</name></trkpt>
<trkpt lat="54.577372" lon="-3.257338"><ele>639</ele><time>2019-10-02T12:52:42Z</time><name>PT8740</name></trkpt>
<trkpt lat="54.577363" lon="-3.257347"><ele>639</ele><time>2019-10-02T12:52:43Z</time><name>PT8741</name></trkpt>
<trkpt lat="54.577355" lon="-3.257356"><ele>639</ele><time>2019-10-02T12:52:44Z</time><name>PT8742</name></trkpt>
<trkpt lat="54.577345" lon="-3.257367"><ele>639</ele><time>2019-10-02T12:52:45Z</time><name>PT8743</name></trkpt>
<trkpt lat="54.577335" lon="-3.257374"><ele>638</ele><time>2019-10-02T12:52:46Z</time><name>PT8744</name></trkpt>
<trkpt lat="54.577327" lon="-3.257379"><ele>638</ele><time>2019-10-02T12:52:47Z</time><name>PT8745</name></trkpt>
<trkpt lat="54.577319" lon="-3.257388"><ele>638</ele><time>2019-10-02T12:52:48Z</time><name>PT8746</name></trkpt>
<trkpt lat="54.577312" lon="-3.257399"><ele>638</ele><time>2019-10-02T12:52:49Z</time><name>PT8747</name></trkpt>
<trkpt lat="54.577305" lon="-3.257404"><ele>637</ele><time>2019-10-02T12:52:50Z</time><name>PT8748</name></trkpt>
<trkpt lat="54.577296" lon="-3.257414"><ele>638</ele><time>2019-10-02T12:52:51Z</time><name>PT8749</name></trkpt>
<trkpt lat="54.577284" lon="-3.257427"><ele>638</ele><time>2019-10-02T12:52:52Z</time><name>PT8750</name></trkpt>
<trkpt lat="54.577276" lon="-3.257431"><ele>638</ele><time>2019-10-02T12:52:53Z</time><name>PT8751</name></trkpt>
<trkpt lat="54.577267" lon="-3.257437"><ele>638</ele><time>2019-10-02T12:52:54Z</time><name>PT8752</name></trkpt>
<trkpt lat="54.577260" lon="-3.257448"><ele>638</ele><time>2019-10-02T12:52:55Z</time><name>PT8753</name></trkpt>
<trkpt lat="54.577252" lon="-3.257462"><ele>639</ele><time>2019-10-02T12:52:56Z</time><name>PT8754</name></trkpt>
<trkpt lat="54.577242" lon="-3.257480"><ele>639</ele><time>2019-10-02T12:52:57Z</time><name>PT8755</name></trkpt>
<trkpt lat="54.577234" lon="-3.257491"><ele>639</ele><time>2019-10-02T12:52:58Z</time><name>PT8756</name></trkpt>
<trkpt lat="54.577226" lon="-3.257500"><ele>639</ele><time>2019-10-02T12:52:59Z</time><name>PT8757</name></trkpt>
<trkpt lat="54.577219" lon="-3.257506"><ele>639</ele><time>2019-10-02T12:53:00Z</time><name>PT8758</name></trkpt>
<trkpt lat="54.577208" lon="-3.257517"><ele>640</ele><time>2019-10-02T12:53:01Z</time><name>PT8759</name></trkpt>
<trkpt lat="54.577201" lon="-3.257522"><ele>640</ele><time>2019-10-02T12:53:02Z</time><name>PT8760</name></trkpt>
<trkpt lat="54.577191" lon="-3.257526"><ele>640</ele><time>2019-10-02T12:53:03Z</time><name>PT8761</name></trkpt>
<trkpt lat="54.577183" lon="-3.257531"><ele>640</ele><time>2019-10-02T12:53:04Z</time><name>PT8762</name></trkpt>
<trkpt lat="54.577176" lon="-3.257530"><ele>640</ele><time>2019-10-02T12:53:05Z</time><name>PT8763</name></trkpt>
<trkpt lat="54.577166" lon="-3.257529"><ele>640</ele><time>2019-10-02T12:53:06Z</time><name>PT8764</name></trkpt>
<trkpt lat="54.577156" lon="-3.257531"><ele>640</ele><time>2019-10-02T12:53:07Z</time><name>PT8765</name></trkpt>
<trkpt lat="54.577147" lon="-3.257537"><ele>640</ele><time>2019-10-02T12:53:08Z</time><name>PT8766</name></trkpt>
<trkpt lat="54.577139" lon="-3.257543"><ele>640</ele><time>2019-10-02T12:53:09Z</time><name>PT8767</name></trkpt>
<trkpt lat="54.577132" lon="-3.257549"><ele>640</ele><time>2019-10-02T12:53:10Z</time><name>PT8768</name></trkpt>
<trkpt lat="54.577129" lon="-3.257552"><ele>640</ele><time>2019-10-02T12:53:11Z</time><name>PT8769</name></trkpt>
<trkpt lat="54.577128" lon="-3.257555"><ele>640</ele><time>2019-10-02T12:53:12Z</time><name>PT8770</name></trkpt>
<trkpt lat="54.577128" lon="-3.257565"><ele>640</ele><time>2019-10-02T12:53:13Z</time><name>PT8771</name></trkpt>
<trkpt lat="54.577129" lon="-3.257562"><ele>640</ele><time>2019-10-02T12:53:14Z</time><name>PT8772</name></trkpt>
<trkpt lat="54.577128" lon="-3.257559"><ele>640</ele><time>2019-10-02T12:53:15Z</time><name>PT8773</name></trkpt>
<trkpt lat="54.577126" lon="-3.257559"><ele>641</ele><time>2019-10-02T12:53:16Z</time><name>PT8774</name></trkpt>
<trkpt lat="54.577126" lon="-3.257560"><ele>640</ele><time>2019-10-02T12:53:16Z</time><name>PT8775</name></trkpt>
<trkpt lat="54.577125" lon="-3.257560"><ele>640</ele><time>2019-10-02T12:53:18Z</time><name>PT8776</name></trkpt>
<trkpt lat="54.577125" lon="-3.257560"><ele>640</ele><time>2019-10-02T12:53:19Z</time><name>PT8777</name></trkpt>
<trkpt lat="54.577125" lon="-3.257560"><ele>640</ele><time>2019-10-02T12:53:35Z</time><name>PT8778</name></trkpt>
<trkpt lat="54.577125" lon="-3.257563"><ele>640</ele><time>2019-10-02T12:53:35Z</time><name>PT8779</name></trkpt>
<trkpt lat="54.577125" lon="-3.257564"><ele>640</ele><time>2019-10-02T12:53:41Z</time><name>PT8780</name></trkpt>
<trkpt lat="54.577124" lon="-3.257564"><ele>640</ele><time>2019-10-02T12:53:42Z</time><name>PT8781</name></trkpt>
<trkpt lat="54.577123" lon="-3.257566"><ele>640</ele><time>2019-10-02T12:53:48Z</time><name>PT8782</name></trkpt>
<trkpt lat="54.577111" lon="-3.257564"><ele>639</ele><time>2019-10-02T12:53:49Z</time><name>PT8783</name></trkpt>
<trkpt lat="54.577104" lon="-3.257572"><ele>640</ele><time>2019-10-02T12:53:50Z</time><name>PT8784</name></trkpt>
<trkpt lat="54.577095" lon="-3.257582"><ele>640</ele><time>2019-10-02T12:53:51Z</time><name>PT8785</name></trkpt>
<trkpt lat="54.577089" lon="-3.257591"><ele>639</ele><time>2019-10-02T12:53:52Z</time><name>PT8786</name></trkpt>
<trkpt lat="54.577083" lon="-3.257598"><ele>640</ele><time>2019-10-02T12:53:53Z</time><name>PT8787</name></trkpt>
<trkpt lat="54.577078" lon="-3.257604"><ele>640</ele><time>2019-10-02T12:53:54Z</time><name>PT8788</name></trkpt>
<trkpt lat="54.577068" lon="-3.257604"><ele>640</ele><time>2019-10-02T12:53:55Z</time><name>PT8789</name></trkpt>
<trkpt lat="54.577060" lon="-3.257614"><ele>640</ele><time>2019-10-02T12:53:56Z</time><name>PT8790</name></trkpt>
<trkpt lat="54.577053" lon="-3.257621"><ele>640</ele><time>2019-10-02T12:53:57Z</time><name>PT8791</name></trkpt>
<trkpt lat="54.577045" lon="-3.257618"><ele>640</ele><time>2019-10-02T12:53:58Z</time><name>PT8792</name></trkpt>
<trkpt lat="54.577039" lon="-3.257631"><ele>640</ele><time>2019-10-02T12:53:59Z</time><name>PT8793</name></trkpt>
<trkpt lat="54.577033" lon="-3.257639"><ele>640</ele><time>2019-10-02T12:53:59Z</time><name>PT8794</name></trkpt>
<trkpt lat="54.577025" lon="-3.257647"><ele>640</ele><time>2019-10-02T12:54:01Z</time><name>PT8795</name></trkpt>
<trkpt lat="54.577019" lon="-3.257656"><ele>639</ele><time>2019-10-02T12:54:01Z</time><name>PT8796</name></trkpt>
<trkpt lat="54.577012" lon="-3.257665"><ele>640</ele><time>2019-10-02T12:54:03Z</time><name>PT8797</name></trkpt>
<trkpt lat="54.577005" lon="-3.257674"><ele>640</ele><time>2019-10-02T12:54:04Z</time><name>PT8798</name></trkpt>
<trkpt lat="54.576998" lon="-3.257682"><ele>640</ele><time>2019-10-02T12:54:05Z</time><name>PT8799</name></trkpt>
<trkpt lat="54.576989" lon="-3.257687"><ele>640</ele><time>2019-10-02T12:54:05Z</time><name>PT8800</name></trkpt>
<trkpt lat="54.576982" lon="-3.257694"><ele>640</ele><time>2019-10-02T12:54:07Z</time><name>PT8801</name></trkpt>
<trkpt lat="54.576975" lon="-3.257698"><ele>640</ele><time>2019-10-02T12:54:07Z</time><name>PT8802</name></trkpt>
<trkpt lat="54.576967" lon="-3.257707"><ele>641</ele><time>2019-10-02T12:54:09Z</time><name>PT8803</name></trkpt>
<trkpt lat="54.576958" lon="-3.257711"><ele>641</ele><time>2019-10-02T12:54:10Z</time><name>PT8804</name></trkpt>
<trkpt lat="54.576949" lon="-3.257716"><ele>641</ele><time>2019-10-02T12:54:11Z</time><name>PT8805</name></trkpt>
<trkpt lat="54.576942" lon="-3.257724"><ele>641</ele><time>2019-10-02T12:54:12Z</time><name>PT8806</name></trkpt>
<trkpt lat="54.576937" lon="-3.257723"><ele>641</ele><time>2019-10-02T12:54:13Z</time><name>PT8807</name></trkpt>
<trkpt lat="54.576931" lon="-3.257729"><ele>641</ele><time>2019-10-02T12:54:14Z</time><name>PT8808</name></trkpt>
<trkpt lat="54.576925" lon="-3.257739"><ele>641</ele><time>2019-10-02T12:54:15Z</time><name>PT8809</name></trkpt>
<trkpt lat="54.576917" lon="-3.257749"><ele>641</ele><time>2019-10-02T12:54:15Z</time><name>PT8810</name></trkpt>
<trkpt lat="54.576910" lon="-3.257759"><ele>642</ele><time>2019-10-02T12:54:17Z</time><name>PT8811</name></trkpt>
<trkpt lat="54.576904" lon="-3.257760"><ele>641</ele><time>2019-10-02T12:54:18Z</time><name>PT8812</name></trkpt>
<trkpt lat="54.576898" lon="-3.257764"><ele>641</ele><time>2019-10-02T12:54:19Z</time><name>PT8813</name></trkpt>
<trkpt lat="54.576891" lon="-3.257776"><ele>642</ele><time>2019-10-02T12:54:20Z</time><name>PT8814</name></trkpt>
<trkpt lat="54.576884" lon="-3.257786"><ele>642</ele><time>2019-10-02T12:54:21Z</time><name>PT8815</name></trkpt>
<trkpt lat="54.576881" lon="-3.257792"><ele>642</ele><time>2019-10-02T12:54:22Z</time><name>PT8816</name></trkpt>
<trkpt lat="54.576878" lon="-3.257795"><ele>642</ele><time>2019-10-02T12:54:23Z</time><name>PT8817</name></trkpt>
<trkpt lat="54.576870" lon="-3.257806"><ele>642</ele><time>2019-10-02T12:54:24Z</time><name>PT8818</name></trkpt>
<trkpt lat="54.576862" lon="-3.257815"><ele>641</ele><time>2019-10-02T12:54:25Z</time><name>PT8819</name></trkpt>
<trkpt lat="54.576855" lon="-3.257821"><ele>641</ele><time>2019-10-02T12:54:26Z</time><name>PT8820</name></trkpt>
<trkpt lat="54.576848" lon="-3.257826"><ele>641</ele><time>2019-10-02T12:54:27Z</time><name>PT8821</name></trkpt>
<trkpt lat="54.576843" lon="-3.257830"><ele>641</ele><time>2019-10-02T12:54:28Z</time><name>PT8822</name></trkpt>
<trkpt lat="54.576835" lon="-3.257841"><ele>642</ele><time>2019-10-02T12:54:29Z</time><name>PT8823</name></trkpt>
<trkpt lat="54.576827" lon="-3.257852"><ele>642</ele><time>2019-10-02T12:54:30Z</time><name>PT8824</name></trkpt>
<trkpt lat="54.576823" lon="-3.257859"><ele>642</ele><time>2019-10-02T12:54:31Z</time><name>PT8825</name></trkpt>
<trkpt lat="54.576821" lon="-3.257862"><ele>642</ele><time>2019-10-02T12:54:31Z</time><name>PT8826</name></trkpt>
<trkpt lat="54.576815" lon="-3.257869"><ele>641</ele><time>2019-10-02T12:54:33Z</time><name>PT8827</name></trkpt>
<trkpt lat="54.576811" lon="-3.257876"><ele>641</ele><time>2019-10-02T12:54:33Z</time><name>PT8828</name></trkpt>
<trkpt lat="54.576805" lon="-3.257881"><ele>641</ele><time>2019-10-02T12:54:35Z</time><name>PT8829</name></trkpt>
<trkpt lat="54.576799" lon="-3.257889"><ele>642</ele><time>2019-10-02T12:54:35Z</time><name>PT8830</name></trkpt>
<trkpt lat="54.576795" lon="-3.257898"><ele>642</ele><time>2019-10-02T12:54:37Z</time><name>PT8831</name></trkpt>
<trkpt lat="54.576792" lon="-3.257904"><ele>642</ele><time>2019-10-02T12:54:38Z</time><name>PT8832</name></trkpt>
<trkpt lat="54.576792" lon="-3.257908"><ele>642</ele><time>2019-10-02T12:54:39Z</time><name>PT8833</name></trkpt>
<trkpt lat="54.576790" lon="-3.257914"><ele>643</ele><time>2019-10-02T12:54:40Z</time><name>PT8834</name></trkpt>
<trkpt lat="54.576787" lon="-3.257921"><ele>643</ele><time>2019-10-02T12:54:41Z</time><name>PT8835</name></trkpt>
<trkpt lat="54.576787" lon="-3.257919"><ele>643</ele><time>2019-10-02T12:54:51Z</time><name>PT8836</name></trkpt>
<trkpt lat="54.576786" lon="-3.257916"><ele>643</ele><time>2019-10-02T12:54:52Z</time><name>PT8837</name></trkpt>
<trkpt lat="54.576787" lon="-3.257915"><ele>642</ele><time>2019-10-02T12:54:53Z</time><name>PT8838</name></trkpt>
<trkpt lat="54.576790" lon="-3.257913"><ele>642</ele><time>2019-10-02T12:54:54Z</time><name>PT8839</name></trkpt>
<trkpt lat="54.576790" lon="-3.257908"><ele>642</ele><time>2019-10-02T12:54:55Z</time><name>PT8840</name></trkpt>
<trkpt lat="54.576784" lon="-3.257901"><ele>642</ele><time>2019-10-02T12:54:56Z</time><name>PT8841</name></trkpt>
<trkpt lat="54.576780" lon="-3.257886"><ele>643</ele><time>2019-10-02T12:54:57Z</time><name>PT8842</name></trkpt>
<trkpt lat="54.576774" lon="-3.257886"><ele>643</ele><time>2019-10-02T12:54:58Z</time><name>PT8843</name></trkpt>
<trkpt lat="54.576770" lon="-3.257879"><ele>643</ele><time>2019-10-02T12:54:59Z</time><name>PT8844</name></trkpt>
<trkpt lat="54.576767" lon="-3.257874"><ele>643</ele><time>2019-10-02T12:55:00Z</time><name>PT8845</name></trkpt>
<trkpt lat="54.576765" lon="-3.257881"><ele>643</ele><time>2019-10-02T12:55:01Z</time><name>PT8846</name></trkpt>
<trkpt lat="54.576763" lon="-3.257885"><ele>643</ele><time>2019-10-02T12:55:02Z</time><name>PT8847</name></trkpt>
<trkpt lat="54.576763" lon="-3.257882"><ele>643</ele><time>2019-10-02T12:55:03Z</time><name>PT8848</name></trkpt>
<trkpt lat="54.576764" lon="-3.257886"><ele>643</ele><time>2019-10-02T12:55:04Z</time><name>PT8849</name></trkpt>
<trkpt lat="54.576764" lon="-3.257891"><ele>643</ele><time>2019-10-02T12:55:05Z</time><name>PT8850</name></trkpt>
<trkpt lat="54.576763" lon="-3.257899"><ele>643</ele><time>2019-10-02T12:55:06Z</time><name>PT8851</name></trkpt>
<trkpt lat="54.576762" lon="-3.257894"><ele>644</ele><time>2019-10-02T12:56:04Z</time><name>PT8852</name></trkpt>
<trkpt lat="54.576764" lon="-3.257892"><ele>644</ele><time>2019-10-02T12:56:05Z</time><name>PT8853</name></trkpt>
<trkpt lat="54.576765" lon="-3.257893"><ele>644</ele><time>2019-10-02T12:56:06Z</time><name>PT8854</name></trkpt>
<trkpt lat="54.576761" lon="-3.257893"><ele>643</ele><time>2019-10-02T12:56:07Z</time><name>PT8855</name></trkpt>
<trkpt lat="54.576760" lon="-3.257894"><ele>644</ele><time>2019-10-02T12:56:08Z</time><name>PT8856</name></trkpt>
<trkpt lat="54.576759" lon="-3.257896"><ele>644</ele><time>2019-10-02T12:56:09Z</time><name>PT8857</name></trkpt>
<trkpt lat="54.576760" lon="-3.257896"><ele>644</ele><time>2019-10-02T12:56:10Z</time><name>PT8858</name></trkpt>
<trkpt lat="54.576762" lon="-3.257898"><ele>644</ele><time>2019-10-02T12:56:37Z</time><name>PT8859</name></trkpt>
<trkpt lat="54.576758" lon="-3.257904"><ele>644</ele><time>2019-10-02T12:56:37Z</time><name>PT8860</name></trkpt>
<trkpt lat="54.576758" lon="-3.257913"><ele>644</ele><time>2019-10-02T12:56:39Z</time><name>PT8861</name></trkpt>
<trkpt lat="54.576760" lon="-3.257926"><ele>645</ele><time>2019-10-02T12:56:42Z</time><name>PT8862</name></trkpt>
<trkpt lat="54.576760" lon="-3.257934"><ele>645</ele><time>2019-10-02T12:56:43Z</time><name>PT8863</name></trkpt>
<trkpt lat="54.576756" lon="-3.257933"><ele>645</ele><time>2019-10-02T12:56:44Z</time><name>PT8864</name></trkpt>
<trkpt lat="54.576753" lon="-3.257929"><ele>645</ele><time>2019-10-02T12:56:45Z</time><name>PT8865</name></trkpt>
<trkpt lat="54.576752" lon="-3.257928"><ele>645</ele><time>2019-10-02T12:56:46Z</time><name>PT8866</name></trkpt>
<trkpt lat="54.576752" lon="-3.257930"><ele>645</ele><time>2019-10-02T12:56:47Z</time><name>PT8867</name></trkpt>
<trkpt lat="54.576752" lon="-3.257935"><ele>644</ele><time>2019-10-02T12:56:48Z</time><name>PT8868</name></trkpt>
<trkpt lat="54.576749" lon="-3.257936"><ele>643</ele><time>2019-10-02T12:56:49Z</time><name>PT8869</name></trkpt>
<trkpt lat="54.576747" lon="-3.257935"><ele>643</ele><time>2019-10-02T12:56:50Z</time><name>PT8870</name></trkpt>
<trkpt lat="54.576746" lon="-3.257933"><ele>643</ele><time>2019-10-02T12:56:51Z</time><name>PT8871</name></trkpt>
<trkpt lat="54.576740" lon="-3.257944"><ele>643</ele><time>2019-10-02T12:56:54Z</time><name>PT8872</name></trkpt>
<trkpt lat="54.576734" lon="-3.257945"><ele>643</ele><time>2019-10-02T12:56:55Z</time><name>PT8873</name></trkpt>
<trkpt lat="54.576731" lon="-3.257946"><ele>642</ele><time>2019-10-02T12:56:56Z</time><name>PT8874</name></trkpt>
<trkpt lat="54.576729" lon="-3.257974"><ele>643</ele><time>2019-10-02T12:56:59Z</time><name>PT8875</name></trkpt>
<trkpt lat="54.576730" lon="-3.257991"><ele>643</ele><time>2019-10-02T12:57:00Z</time><name>PT8876</name></trkpt>
<trkpt lat="54.576733" lon="-3.257998"><ele>643</ele><time>2019-10-02T12:57:01Z</time><name>PT8877</name></trkpt>
<trkpt lat="54.576733" lon="-3.257997"><ele>643</ele><time>2019-10-02T12:57:07Z</time><name>PT8878</name></trkpt>
<trkpt lat="54.576731" lon="-3.257999"><ele>643</ele><time>2019-10-02T12:57:08Z</time><name>PT8879</name></trkpt>
<trkpt lat="54.576728" lon="-3.258002"><ele>643</ele><time>2019-10-02T12:57:09Z</time><name>PT8880</name></trkpt>
<trkpt lat="54.576725" lon="-3.258004"><ele>643</ele><time>2019-10-02T12:57:10Z</time><name>PT8881</name></trkpt>
<trkpt lat="54.576726" lon="-3.258008"><ele>643</ele><time>2019-10-02T12:57:11Z</time><name>PT8882</name></trkpt>
<trkpt lat="54.576726" lon="-3.258004"><ele>643</ele><time>2019-10-02T12:57:12Z</time><name>PT8883</name></trkpt>
<trkpt lat="54.576726" lon="-3.258000"><ele>643</ele><time>2019-10-02T12:57:13Z</time><name>PT8884</name></trkpt>
<trkpt lat="54.576724" lon="-3.258003"><ele>643</ele><time>2019-10-02T12:57:14Z</time><name>PT8885</name></trkpt>
<trkpt lat="54.576723" lon="-3.258008"><ele>644</ele><time>2019-10-02T12:57:15Z</time><name>PT8886</name></trkpt>
<trkpt lat="54.576723" lon="-3.258004"><ele>644</ele><time>2019-10-02T12:57:16Z</time><name>PT8887</name></trkpt>
<trkpt lat="54.576722" lon="-3.258009"><ele>644</ele><time>2019-10-02T12:57:17Z</time><name>PT8888</name></trkpt>
<trkpt lat="54.576722" lon="-3.258006"><ele>644</ele><time>2019-10-02T12:57:18Z</time><name>PT8889</name></trkpt>
<trkpt lat="54.576724" lon="-3.258001"><ele>644</ele><time>2019-10-02T12:57:19Z</time><name>PT8890</name></trkpt>
<trkpt lat="54.576725" lon="-3.257999"><ele>643</ele><time>2019-10-02T12:57:20Z</time><name>PT8891</name></trkpt>
<trkpt lat="54.576732" lon="-3.258002"><ele>643</ele><time>2019-10-02T12:57:23Z</time><name>PT8892</name></trkpt>
<trkpt lat="54.576735" lon="-3.258005"><ele>643</ele><time>2019-10-02T12:57:24Z</time><name>PT8893</name></trkpt>
<trkpt lat="54.576737" lon="-3.258008"><ele>643</ele><time>2019-10-02T12:57:25Z</time><name>PT8894</name></trkpt>
<trkpt lat="54.576727" lon="-3.258009"><ele>643</ele><time>2019-10-02T12:57:31Z</time><name>PT8895</name></trkpt>
<trkpt lat="54.576723" lon="-3.258011"><ele>643</ele><time>2019-10-02T12:57:32Z</time><name>PT8896</name></trkpt>
<trkpt lat="54.576720" lon="-3.258015"><ele>643</ele><time>2019-10-02T12:57:33Z</time><name>PT8897</name></trkpt>
<trkpt lat="54.576720" lon="-3.258018"><ele>642</ele><time>2019-10-02T12:57:33Z</time><name>PT8898</name></trkpt>
<trkpt lat="54.576719" lon="-3.258016"><ele>642</ele><time>2019-10-02T12:57:43Z</time><name>PT8899</name></trkpt>
<trkpt lat="54.576715" lon="-3.258025"><ele>642</ele><time>2019-10-02T12:57:44Z</time><name>PT8900</name></trkpt>
<trkpt lat="54.576711" lon="-3.258037"><ele>641</ele><time>2019-10-02T12:57:45Z</time><name>PT8901</name></trkpt>
<trkpt lat="54.576711" lon="-3.258054"><ele>642</ele><time>2019-10-02T12:57:46Z</time><name>PT8902</name></trkpt>
<trkpt lat="54.576704" lon="-3.258056"><ele>642</ele><time>2019-10-02T12:57:47Z</time><name>PT8903</name></trkpt>
<trkpt lat="54.576698" lon="-3.258053"><ele>642</ele><time>2019-10-02T12:57:47Z</time><name>PT8904</name></trkpt>
<trkpt lat="54.576690" lon="-3.258050"><ele>643</ele><time>2019-10-02T12:57:49Z</time><name>PT8905</name></trkpt>
<trkpt lat="54.576685" lon="-3.258058"><ele>643</ele><time>2019-10-02T12:57:50Z</time><name>PT8906</name></trkpt>
<trkpt lat="54.576679" lon="-3.258065"><ele>643</ele><time>2019-10-02T12:57:51Z</time><name>PT8907</name></trkpt>
<trkpt lat="54.576669" lon="-3.258072"><ele>643</ele><time>2019-10-02T12:57:52Z</time><name>PT8908</name></trkpt>
<trkpt lat="54.576662" lon="-3.258083"><ele>644</ele><time>2019-10-02T12:57:53Z</time><name>PT8909</name></trkpt>
<trkpt lat="54.576657" lon="-3.258088"><ele>643</ele><time>2019-10-02T12:57:54Z</time><name>PT8910</name></trkpt>
<trkpt lat="54.576649" lon="-3.258091"><ele>644</ele><time>2019-10-02T12:57:55Z</time><name>PT8911</name></trkpt>
<trkpt lat="54.576644" lon="-3.258106"><ele>644</ele><time>2019-10-02T12:57:56Z</time><name>PT8912</name></trkpt>
<trkpt lat="54.576642" lon="-3.258116"><ele>644</ele><time>2019-10-02T12:57:57Z</time><name>PT8913</name></trkpt>
<trkpt lat="54.576637" lon="-3.258124"><ele>644</ele><time>2019-10-02T12:57:57Z</time><name>PT8914</name></trkpt>
<trkpt lat="54.576634" lon="-3.258137"><ele>644</ele><time>2019-10-02T12:57:59Z</time><name>PT8915</name></trkpt>
<trkpt lat="54.576628" lon="-3.258146"><ele>644</ele><time>2019-10-02T12:57:59Z</time><name>PT8916</name></trkpt>
<trkpt lat="54.576623" lon="-3.258151"><ele>644</ele><time>2019-10-02T12:58:01Z</time><name>PT8917</name></trkpt>
<trkpt lat="54.576620" lon="-3.258161"><ele>645</ele><time>2019-10-02T12:58:01Z</time><name>PT8918</name></trkpt>
<trkpt lat="54.576615" lon="-3.258167"><ele>646</ele><time>2019-10-02T12:58:03Z</time><name>PT8919</name></trkpt>
<trkpt lat="54.576608" lon="-3.258178"><ele>646</ele><time>2019-10-02T12:58:04Z</time><name>PT8920</name></trkpt>
<trkpt lat="54.576604" lon="-3.258188"><ele>646</ele><time>2019-10-02T12:58:05Z</time><name>PT8921</name></trkpt>
<trkpt lat="54.576596" lon="-3.258204"><ele>646</ele><time>2019-10-02T12:58:06Z</time><name>PT8922</name></trkpt>
<trkpt lat="54.576591" lon="-3.258214"><ele>646</ele><time>2019-10-02T12:58:07Z</time><name>PT8923</name></trkpt>
<trkpt lat="54.576582" lon="-3.258224"><ele>647</ele><time>2019-10-02T12:58:08Z</time><name>PT8924</name></trkpt>
<trkpt lat="54.576576" lon="-3.258233"><ele>647</ele><time>2019-10-02T12:58:09Z</time><name>PT8925</name></trkpt>
<trkpt lat="54.576568" lon="-3.258242"><ele>647</ele><time>2019-10-02T12:58:10Z</time><name>PT8926</name></trkpt>
<trkpt lat="54.576558" lon="-3.258253"><ele>647</ele><time>2019-10-02T12:58:11Z</time><name>PT8927</name></trkpt>
<trkpt lat="54.576551" lon="-3.258258"><ele>647</ele><time>2019-10-02T12:58:12Z</time><name>PT8928</name></trkpt>
<trkpt lat="54.576544" lon="-3.258262"><ele>647</ele><time>2019-10-02T12:58:13Z</time><name>PT8929</name></trkpt>
<trkpt lat="54.576538" lon="-3.258263"><ele>647</ele><time>2019-10-02T12:58:14Z</time><name>PT8930</name></trkpt>
<trkpt lat="54.576529" lon="-3.258266"><ele>647</ele><time>2019-10-02T12:58:15Z</time><name>PT8931</name></trkpt>
<trkpt lat="54.576523" lon="-3.258269"><ele>647</ele><time>2019-10-02T12:58:16Z</time><name>PT8932</name></trkpt>
<trkpt lat="54.576517" lon="-3.258271"><ele>647</ele><time>2019-10-02T12:58:17Z</time><name>PT8933</name></trkpt>
<trkpt lat="54.576510" lon="-3.258272"><ele>647</ele><time>2019-10-02T12:58:18Z</time><name>PT8934</name></trkpt>
<trkpt lat="54.576505" lon="-3.258272"><ele>647</ele><time>2019-10-02T12:58:19Z</time><name>PT8935</name></trkpt>
<trkpt lat="54.576499" lon="-3.258272"><ele>647</ele><time>2019-10-02T12:58:20Z</time><name>PT8936</name></trkpt>
<trkpt lat="54.576494" lon="-3.258270"><ele>647</ele><time>2019-10-02T12:58:21Z</time><name>PT8937</name></trkpt>
<trkpt lat="54.576488" lon="-3.258271"><ele>647</ele><time>2019-10-02T12:58:22Z</time><name>PT8938</name></trkpt>
<trkpt lat="54.576479" lon="-3.258275"><ele>648</ele><time>2019-10-02T12:58:23Z</time><name>PT8939</name></trkpt>
<trkpt lat="54.576469" lon="-3.258284"><ele>648</ele><time>2019-10-02T12:58:24Z</time><name>PT8940</name></trkpt>
<trkpt lat="54.576464" lon="-3.258290"><ele>648</ele><time>2019-10-02T12:58:25Z</time><name>PT8941</name></trkpt>
<trkpt lat="54.576457" lon="-3.258295"><ele>648</ele><time>2019-10-02T12:58:26Z</time><name>PT8942</name></trkpt>
<trkpt lat="54.576450" lon="-3.258306"><ele>648</ele><time>2019-10-02T12:58:27Z</time><name>PT8943</name></trkpt>
<trkpt lat="54.576441" lon="-3.258314"><ele>648</ele><time>2019-10-02T12:58:28Z</time><name>PT8944</name></trkpt>
<trkpt lat="54.576434" lon="-3.258317"><ele>648</ele><time>2019-10-02T12:58:29Z</time><name>PT8945</name></trkpt>
<trkpt lat="54.576424" lon="-3.258319"><ele>649</ele><time>2019-10-02T12:58:30Z</time><name>PT8946</name></trkpt>
<trkpt lat="54.576414" lon="-3.258324"><ele>649</ele><time>2019-10-02T12:58:31Z</time><name>PT8947</name></trkpt>
<trkpt lat="54.576407" lon="-3.258329"><ele>648</ele><time>2019-10-02T12:58:32Z</time><name>PT8948</name></trkpt>
<trkpt lat="54.576400" lon="-3.258326"><ele>648</ele><time>2019-10-02T12:58:33Z</time><name>PT8949</name></trkpt>
<trkpt lat="54.576393" lon="-3.258329"><ele>648</ele><time>2019-10-02T12:58:34Z</time><name>PT8950</name></trkpt>
<trkpt lat="54.576386" lon="-3.258337"><ele>648</ele><time>2019-10-02T12:58:35Z</time><name>PT8951</name></trkpt>
<trkpt lat="54.576376" lon="-3.258342"><ele>648</ele><time>2019-10-02T12:58:36Z</time><name>PT8952</name></trkpt>
<trkpt lat="54.576367" lon="-3.258347"><ele>649</ele><time>2019-10-02T12:58:37Z</time><name>PT8953</name></trkpt>
<trkpt lat="54.576359" lon="-3.258361"><ele>648</ele><time>2019-10-02T12:58:38Z</time><name>PT8954</name></trkpt>
<trkpt lat="54.576350" lon="-3.258381"><ele>649</ele><time>2019-10-02T12:58:39Z</time><name>PT8955</name></trkpt>
<trkpt lat="54.576342" lon="-3.258391"><ele>649</ele><time>2019-10-02T12:58:40Z</time><name>PT8956</name></trkpt>
<trkpt lat="54.576334" lon="-3.258406"><ele>650</ele><time>2019-10-02T12:58:41Z</time><name>PT8957</name></trkpt>
<trkpt lat="54.576327" lon="-3.258418"><ele>650</ele><time>2019-10-02T12:58:42Z</time><name>PT8958</name></trkpt>
<trkpt lat="54.576319" lon="-3.258427"><ele>650</ele><time>2019-10-02T12:58:43Z</time><name>PT8959</name></trkpt>
<trkpt lat="54.576314" lon="-3.258435"><ele>650</ele><time>2019-10-02T12:58:44Z</time><name>PT8960</name></trkpt>
<trkpt lat="54.576309" lon="-3.258446"><ele>651</ele><time>2019-10-02T12:58:45Z</time><name>PT8961</name></trkpt>
<trkpt lat="54.576301" lon="-3.258458"><ele>651</ele><time>2019-10-02T12:58:46Z</time><name>PT8962</name></trkpt>
<trkpt lat="54.576292" lon="-3.258467"><ele>651</ele><time>2019-10-02T12:58:47Z</time><name>PT8963</name></trkpt>
<trkpt lat="54.576284" lon="-3.258478"><ele>651</ele><time>2019-10-02T12:58:48Z</time><name>PT8964</name></trkpt>
<trkpt lat="54.576279" lon="-3.258491"><ele>651</ele><time>2019-10-02T12:58:49Z</time><name>PT8965</name></trkpt>
<trkpt lat="54.576275" lon="-3.258503"><ele>650</ele><time>2019-10-02T12:58:50Z</time><name>PT8966</name></trkpt>
<trkpt lat="54.576270" lon="-3.258517"><ele>650</ele><time>2019-10-02T12:58:51Z</time><name>PT8967</name></trkpt>
<trkpt lat="54.576265" lon="-3.258533"><ele>650</ele><time>2019-10-02T12:58:52Z</time><name>PT8968</name></trkpt>
<trkpt lat="54.576260" lon="-3.258543"><ele>651</ele><time>2019-10-02T12:58:53Z</time><name>PT8969</name></trkpt>
<trkpt lat="54.576251" lon="-3.258552"><ele>651</ele><time>2019-10-02T12:58:54Z</time><name>PT8970</name></trkpt>
<trkpt lat="54.576243" lon="-3.258560"><ele>651</ele><time>2019-10-02T12:58:55Z</time><name>PT8971</name></trkpt>
<trkpt lat="54.576237" lon="-3.258568"><ele>651</ele><time>2019-10-02T12:58:56Z</time><name>PT8972</name></trkpt>
<trkpt lat="54.576233" lon="-3.258571"><ele>651</ele><time>2019-10-02T12:58:57Z</time><name>PT8973</name></trkpt>
<trkpt lat="54.576228" lon="-3.258578"><ele>651</ele><time>2019-10-02T12:58:58Z</time><name>PT8974</name></trkpt>
<trkpt lat="54.576226" lon="-3.258586"><ele>651</ele><time>2019-10-02T12:58:59Z</time><name>PT8975</name></trkpt>
<trkpt lat="54.576224" lon="-3.258606"><ele>653</ele><time>2019-10-02T12:59:00Z</time><name>PT8976</name></trkpt>
<trkpt lat="54.576219" lon="-3.258616"><ele>653</ele><time>2019-10-02T12:59:01Z</time><name>PT8977</name></trkpt>
<trkpt lat="54.576210" lon="-3.258616"><ele>654</ele><time>2019-10-02T12:59:01Z</time><name>PT8978</name></trkpt>
<trkpt lat="54.576198" lon="-3.258620"><ele>653</ele><time>2019-10-02T12:59:03Z</time><name>PT8979</name></trkpt>
<trkpt lat="54.576192" lon="-3.258621"><ele>653</ele><time>2019-10-02T12:59:04Z</time><name>PT8980</name></trkpt>
<trkpt lat="54.576185" lon="-3.258623"><ele>653</ele><time>2019-10-02T12:59:05Z</time><name>PT8981</name></trkpt>
<trkpt lat="54.576178" lon="-3.258623"><ele>653</ele><time>2019-10-02T12:59:06Z</time><name>PT8982</name></trkpt>
<trkpt lat="54.576175" lon="-3.258623"><ele>653</ele><time>2019-10-02T12:59:07Z</time><name>PT8983</name></trkpt>
<trkpt lat="54.576172" lon="-3.258624"><ele>653</ele><time>2019-10-02T12:59:08Z</time><name>PT8984</name></trkpt>
<trkpt lat="54.576166" lon="-3.258628"><ele>653</ele><time>2019-10-02T12:59:09Z</time><name>PT8985</name></trkpt>
<trkpt lat="54.576159" lon="-3.258632"><ele>653</ele><time>2019-10-02T12:59:10Z</time><name>PT8986</name></trkpt>
<trkpt lat="54.576153" lon="-3.258630"><ele>653</ele><time>2019-10-02T12:59:11Z</time><name>PT8987</name></trkpt>
<trkpt lat="54.576147" lon="-3.258637"><ele>653</ele><time>2019-10-02T12:59:11Z</time><name>PT8988</name></trkpt>
<trkpt lat="54.576142" lon="-3.258642"><ele>653</ele><time>2019-10-02T12:59:13Z</time><name>PT8989</name></trkpt>
<trkpt lat="54.576136" lon="-3.258646"><ele>654</ele><time>2019-10-02T12:59:14Z</time><name>PT8990</name></trkpt>
<trkpt lat="54.576130" lon="-3.258649"><ele>654</ele><time>2019-10-02T12:59:15Z</time><name>PT8991</name></trkpt>
<trkpt lat="54.576124" lon="-3.258652"><ele>653</ele><time>2019-10-02T12:59:16Z</time><name>PT8992</name></trkpt>
<trkpt lat="54.576118" lon="-3.258655"><ele>653</ele><time>2019-10-02T12:59:17Z</time><name>PT8993</name></trkpt>
<trkpt lat="54.576113" lon="-3.258659"><ele>653</ele><time>2019-10-02T12:59:18Z</time><name>PT8994</name></trkpt>
<trkpt lat="54.576107" lon="-3.258662"><ele>653</ele><time>2019-10-02T12:59:19Z</time><name>PT8995</name></trkpt>
<trkpt lat="54.576102" lon="-3.258666"><ele>653</ele><time>2019-10-02T12:59:20Z</time><name>PT8996</name></trkpt>
<trkpt lat="54.576097" lon="-3.258670"><ele>653</ele><time>2019-10-02T12:59:21Z</time><name>PT8997</name></trkpt>
<trkpt lat="54.576093" lon="-3.258677"><ele>653</ele><time>2019-10-02T12:59:22Z</time><name>PT8998</name></trkpt>
<trkpt lat="54.576092" lon="-3.258684"><ele>654</ele><time>2019-10-02T12:59:23Z</time><name>PT8999</name></trkpt>
<trkpt lat="54.576088" lon="-3.258692"><ele>654</ele><time>2019-10-02T12:59:23Z</time><name>PT9000</name></trkpt>
<trkpt lat="54.576083" lon="-3.258701"><ele>655</ele><time>2019-10-02T12:59:25Z</time><name>PT9001</name></trkpt>
<trkpt lat="54.576076" lon="-3.258711"><ele>655</ele><time>2019-10-02T12:59:25Z</time><name>PT9002</name></trkpt>
<trkpt lat="54.576069" lon="-3.258721"><ele>655</ele><time>2019-10-02T12:59:27Z</time><name>PT9003</name></trkpt>
<trkpt lat="54.576063" lon="-3.258726"><ele>655</ele><time>2019-10-02T12:59:28Z</time><name>PT9004</name></trkpt>
<trkpt lat="54.576056" lon="-3.258734"><ele>656</ele><time>2019-10-02T12:59:29Z</time><name>PT9005</name></trkpt>
<trkpt lat="54.576051" lon="-3.258735"><ele>655</ele><time>2019-10-02T12:59:29Z</time><name>PT9006</name></trkpt>
<trkpt lat="54.576046" lon="-3.258734"><ele>656</ele><time>2019-10-02T12:59:31Z</time><name>PT9007</name></trkpt>
<trkpt lat="54.576040" lon="-3.258740"><ele>656</ele><time>2019-10-02T12:59:32Z</time><name>PT9008</name></trkpt>
<trkpt lat="54.576035" lon="-3.258742"><ele>656</ele><time>2019-10-02T12:59:33Z</time><name>PT9009</name></trkpt>
<trkpt lat="54.576030" lon="-3.258747"><ele>656</ele><time>2019-10-02T12:59:33Z</time><name>PT9010</name></trkpt>
<trkpt lat="54.576024" lon="-3.258757"><ele>655</ele><time>2019-10-02T12:59:35Z</time><name>PT9011</name></trkpt>
<trkpt lat="54.576021" lon="-3.258757"><ele>655</ele><time>2019-10-02T12:59:35Z</time><name>PT9012</name></trkpt>
<trkpt lat="54.576018" lon="-3.258759"><ele>655</ele><time>2019-10-02T12:59:37Z</time><name>PT9013</name></trkpt>
<trkpt lat="54.576012" lon="-3.258760"><ele>656</ele><time>2019-10-02T12:59:38Z</time><name>PT9014</name></trkpt>
<trkpt lat="54.576007" lon="-3.258764"><ele>656</ele><time>2019-10-02T12:59:39Z</time><name>PT9015</name></trkpt>
<trkpt lat="54.576001" lon="-3.258762"><ele>656</ele><time>2019-10-02T12:59:39Z</time><name>PT9016</name></trkpt>
<trkpt lat="54.575996" lon="-3.258763"><ele>656</ele><time>2019-10-02T12:59:41Z</time><name>PT9017</name></trkpt>
<trkpt lat="54.575992" lon="-3.258763"><ele>656</ele><time>2019-10-02T12:59:42Z</time><name>PT9018</name></trkpt>
<trkpt lat="54.575984" lon="-3.258765"><ele>656</ele><time>2019-10-02T12:59:43Z</time><name>PT9019</name></trkpt>
<trkpt lat="54.575980" lon="-3.258765"><ele>656</ele><time>2019-10-02T12:59:44Z</time><name>PT9020</name></trkpt>
<trkpt lat="54.575974" lon="-3.258769"><ele>656</ele><time>2019-10-02T12:59:45Z</time><name>PT9021</name></trkpt>
<trkpt lat="54.575970" lon="-3.258767"><ele>657</ele><time>2019-10-02T12:59:46Z</time><name>PT9022</name></trkpt>
<trkpt lat="54.575964" lon="-3.258765"><ele>657</ele><time>2019-10-02T12:59:47Z</time><name>PT9023</name></trkpt>
<trkpt lat="54.575956" lon="-3.258765"><ele>657</ele><time>2019-10-02T12:59:48Z</time><name>PT9024</name></trkpt>
<trkpt lat="54.575953" lon="-3.258763"><ele>657</ele><time>2019-10-02T12:59:49Z</time><name>PT9025</name></trkpt>
<trkpt lat="54.575948" lon="-3.258766"><ele>658</ele><time>2019-10-02T12:59:50Z</time><name>PT9026</name></trkpt>
<trkpt lat="54.575943" lon="-3.258767"><ele>658</ele><time>2019-10-02T12:59:51Z</time><name>PT9027</name></trkpt>
<trkpt lat="54.575937" lon="-3.258772"><ele>658</ele><time>2019-10-02T12:59:52Z</time><name>PT9028</name></trkpt>
<trkpt lat="54.575932" lon="-3.258775"><ele>659</ele><time>2019-10-02T12:59:53Z</time><name>PT9029</name></trkpt>
<trkpt lat="54.575926" lon="-3.258776"><ele>659</ele><time>2019-10-02T12:59:54Z</time><name>PT9030</name></trkpt>
<trkpt lat="54.575921" lon="-3.258776"><ele>659</ele><time>2019-10-02T12:59:55Z</time><name>PT9031</name></trkpt>
<trkpt lat="54.575919" lon="-3.258773"><ele>660</ele><time>2019-10-02T12:59:57Z</time><name>PT9032</name></trkpt>
<trkpt lat="54.575913" lon="-3.258773"><ele>660</ele><time>2019-10-02T12:59:58Z</time><name>PT9033</name></trkpt>
<trkpt lat="54.575908" lon="-3.258766"><ele>660</ele><time>2019-10-02T12:59:59Z</time><name>PT9034</name></trkpt>
<trkpt lat="54.575903" lon="-3.258765"><ele>661</ele><time>2019-10-02T13:00:00Z</time><name>PT9035</name></trkpt>
<trkpt lat="54.575896" lon="-3.258759"><ele>661</ele><time>2019-10-02T13:00:01Z</time><name>PT9036</name></trkpt>
<trkpt lat="54.575890" lon="-3.258763"><ele>661</ele><time>2019-10-02T13:00:01Z</time><name>PT9037</name></trkpt>
<trkpt lat="54.575885" lon="-3.258770"><ele>661</ele><time>2019-10-02T13:00:03Z</time><name>PT9038</name></trkpt>
<trkpt lat="54.575878" lon="-3.258776"><ele>662</ele><time>2019-10-02T13:00:03Z</time><name>PT9039</name></trkpt>
<trkpt lat="54.575871" lon="-3.258786"><ele>662</ele><time>2019-10-02T13:00:05Z</time><name>PT9040</name></trkpt>
<trkpt lat="54.575865" lon="-3.258791"><ele>661</ele><time>2019-10-02T13:00:06Z</time><name>PT9041</name></trkpt>
<trkpt lat="54.575856" lon="-3.258792"><ele>662</ele><time>2019-10-02T13:00:07Z</time><name>PT9042</name></trkpt>
<trkpt lat="54.575850" lon="-3.258796"><ele>662</ele><time>2019-10-02T13:00:08Z</time><name>PT9043</name></trkpt>
<trkpt lat="54.575841" lon="-3.258796"><ele>661</ele><time>2019-10-02T13:00:09Z</time><name>PT9044</name></trkpt>
<trkpt lat="54.575834" lon="-3.258796"><ele>662</ele><time>2019-10-02T13:00:10Z</time><name>PT9045</name></trkpt>
<trkpt lat="54.575832" lon="-3.258800"><ele>661</ele><time>2019-10-02T13:00:11Z</time><name>PT9046</name></trkpt>
<trkpt lat="54.575828" lon="-3.258801"><ele>662</ele><time>2019-10-02T13:00:12Z</time><name>PT9047</name></trkpt>
<trkpt lat="54.575824" lon="-3.258802"><ele>661</ele><time>2019-10-02T13:00:13Z</time><name>PT9048</name></trkpt>
<trkpt lat="54.575821" lon="-3.258802"><ele>661</ele><time>2019-10-02T13:00:13Z</time><name>PT9049</name></trkpt>
<trkpt lat="54.575819" lon="-3.258798"><ele>661</ele><time>2019-10-02T13:00:15Z</time><name>PT9050</name></trkpt>
<trkpt lat="54.575816" lon="-3.258796"><ele>661</ele><time>2019-10-02T13:00:16Z</time><name>PT9051</name></trkpt>
<trkpt lat="54.575809" lon="-3.258796"><ele>661</ele><time>2019-10-02T13:00:17Z</time><name>PT9052</name></trkpt>
<trkpt lat="54.575798" lon="-3.258800"><ele>661</ele><time>2019-10-02T13:00:17Z</time><name>PT9053</name></trkpt>
<trkpt lat="54.575794" lon="-3.258809"><ele>661</ele><time>2019-10-02T13:00:19Z</time><name>PT9054</name></trkpt>
<trkpt lat="54.575785" lon="-3.258820"><ele>660</ele><time>2019-10-02T13:00:19Z</time><name>PT9055</name></trkpt>
<trkpt lat="54.575777" lon="-3.258828"><ele>660</ele><time>2019-10-02T13:00:21Z</time><name>PT9056</name></trkpt>
<trkpt lat="54.575766" lon="-3.258829"><ele>661</ele><time>2019-10-02T13:00:22Z</time><name>PT9057</name></trkpt>
<trkpt lat="54.575758" lon="-3.258838"><ele>661</ele><time>2019-10-02T13:00:23Z</time><name>PT9058</name></trkpt>
<trkpt lat="54.575748" lon="-3.258852"><ele>660</ele><time>2019-10-02T13:00:23Z</time><name>PT9059</name></trkpt>
<trkpt lat="54.575740" lon="-3.258860"><ele>661</ele><time>2019-10-02T13:00:25Z</time><name>PT9060</name></trkpt>
<trkpt lat="54.575729" lon="-3.258869"><ele>660</ele><time>2019-10-02T13:00:25Z</time><name>PT9061</name></trkpt>
<trkpt lat="54.575718" lon="-3.258872"><ele>661</ele><time>2019-10-02T13:00:27Z</time><name>PT9062</name></trkpt>
<trkpt lat="54.575707" lon="-3.258876"><ele>661</ele><time>2019-10-02T13:00:27Z</time><name>PT9063</name></trkpt>
<trkpt lat="54.575698" lon="-3.258877"><ele>661</ele><time>2019-10-02T13:00:29Z</time><name>PT9064</name></trkpt>
<trkpt lat="54.575689" lon="-3.258883"><ele>661</ele><time>2019-10-02T13:00:30Z</time><name>PT9065</name></trkpt>
<trkpt lat="54.575680" lon="-3.258886"><ele>662</ele><time>2019-10-02T13:00:31Z</time><name>PT9066</name></trkpt>
<trkpt lat="54.575670" lon="-3.258893"><ele>662</ele><time>2019-10-02T13:00:31Z</time><name>PT9067</name></trkpt>
<trkpt lat="54.575660" lon="-3.258902"><ele>662</ele><time>2019-10-02T13:00:33Z</time><name>PT9068</name></trkpt>
<trkpt lat="54.575650" lon="-3.258909"><ele>662</ele><time>2019-10-02T13:00:33Z</time><name>PT9069</name></trkpt>
<trkpt lat="54.575640" lon="-3.258908"><ele>663</ele><time>2019-10-02T13:00:35Z</time><name>PT9070</name></trkpt>
<trkpt lat="54.575633" lon="-3.258913"><ele>663</ele><time>2019-10-02T13:00:35Z</time><name>PT9071</name></trkpt>
<trkpt lat="54.575624" lon="-3.258921"><ele>664</ele><time>2019-10-02T13:00:37Z</time><name>PT9072</name></trkpt>
<trkpt lat="54.575615" lon="-3.258926"><ele>664</ele><time>2019-10-02T13:00:38Z</time><name>PT9073</name></trkpt>
<trkpt lat="54.575605" lon="-3.258928"><ele>664</ele><time>2019-10-02T13:00:39Z</time><name>PT9074</name></trkpt>
<trkpt lat="54.575596" lon="-3.258933"><ele>664</ele><time>2019-10-02T13:00:40Z</time><name>PT9075</name></trkpt>
<trkpt lat="54.575586" lon="-3.258940"><ele>664</ele><time>2019-10-02T13:00:41Z</time><name>PT9076</name></trkpt>
<trkpt lat="54.575578" lon="-3.258949"><ele>664</ele><time>2019-10-02T13:00:41Z</time><name>PT9077</name></trkpt>
<trkpt lat="54.575569" lon="-3.258954"><ele>664</ele><time>2019-10-02T13:00:43Z</time><name>PT9078</name></trkpt>
<trkpt lat="54.575560" lon="-3.258960"><ele>664</ele><time>2019-10-02T13:00:44Z</time><name>PT9079</name></trkpt>
<trkpt lat="54.575552" lon="-3.258967"><ele>664</ele><time>2019-10-02T13:00:45Z</time><name>PT9080</name></trkpt>
<trkpt lat="54.575544" lon="-3.258976"><ele>664</ele><time>2019-10-02T13:00:46Z</time><name>PT9081</name></trkpt>
<trkpt lat="54.575535" lon="-3.258983"><ele>663</ele><time>2019-10-02T13:00:47Z</time><name>PT9082</name></trkpt>
<trkpt lat="54.575527" lon="-3.258988"><ele>663</ele><time>2019-10-02T13:00:48Z</time><name>PT9083</name></trkpt>
<trkpt lat="54.575522" lon="-3.258990"><ele>663</ele><time>2019-10-02T13:00:49Z</time><name>PT9084</name></trkpt>
<trkpt lat="54.575515" lon="-3.258994"><ele>663</ele><time>2019-10-02T13:00:50Z</time><name>PT9085</name></trkpt>
<trkpt lat="54.575504" lon="-3.259001"><ele>663</ele><time>2019-10-02T13:00:51Z</time><name>PT9086</name></trkpt>
<trkpt lat="54.575497" lon="-3.259012"><ele>663</ele><time>2019-10-02T13:00:52Z</time><name>PT9087</name></trkpt>
<trkpt lat="54.575489" lon="-3.259022"><ele>663</ele><time>2019-10-02T13:00:53Z</time><name>PT9088</name></trkpt>
<trkpt lat="54.575482" lon="-3.259035"><ele>663</ele><time>2019-10-02T13:00:54Z</time><name>PT9089</name></trkpt>
<trkpt lat="54.575473" lon="-3.259043"><ele>664</ele><time>2019-10-02T13:00:55Z</time><name>PT9090</name></trkpt>
<trkpt lat="54.575465" lon="-3.259053"><ele>664</ele><time>2019-10-02T13:00:56Z</time><name>PT9091</name></trkpt>
<trkpt lat="54.575457" lon="-3.259061"><ele>664</ele><time>2019-10-02T13:00:57Z</time><name>PT9092</name></trkpt>
<trkpt lat="54.575447" lon="-3.259075"><ele>664</ele><time>2019-10-02T13:00:58Z</time><name>PT9093</name></trkpt>
<trkpt lat="54.575437" lon="-3.259086"><ele>664</ele><time>2019-10-02T13:00:59Z</time><name>PT9094</name></trkpt>
<trkpt lat="54.575428" lon="-3.259100"><ele>664</ele><time>2019-10-02T13:01:00Z</time><name>PT9095</name></trkpt>
<trkpt lat="54.575419" lon="-3.259110"><ele>664</ele><time>2019-10-02T13:01:01Z</time><name>PT9096</name></trkpt>
<trkpt lat="54.575412" lon="-3.259119"><ele>664</ele><time>2019-10-02T13:01:02Z</time><name>PT9097</name></trkpt>
<trkpt lat="54.575404" lon="-3.259125"><ele>665</ele><time>2019-10-02T13:01:03Z</time><name>PT9098</name></trkpt>
<trkpt lat="54.575394" lon="-3.259131"><ele>665</ele><time>2019-10-02T13:01:04Z</time><name>PT9099</name></trkpt>
<trkpt lat="54.575384" lon="-3.259136"><ele>665</ele><time>2019-10-02T13:01:05Z</time><name>PT9100</name></trkpt>
<trkpt lat="54.575375" lon="-3.259143"><ele>665</ele><time>2019-10-02T13:01:06Z</time><name>PT9101</name></trkpt>
<trkpt lat="54.575367" lon="-3.259150"><ele>665</ele><time>2019-10-02T13:01:07Z</time><name>PT9102</name></trkpt>
<trkpt lat="54.575361" lon="-3.259159"><ele>665</ele><time>2019-10-02T13:01:08Z</time><name>PT9103</name></trkpt>
<trkpt lat="54.575352" lon="-3.259166"><ele>666</ele><time>2019-10-02T13:01:09Z</time><name>PT9104</name></trkpt>
<trkpt lat="54.575345" lon="-3.259167"><ele>666</ele><time>2019-10-02T13:01:10Z</time><name>PT9105</name></trkpt>
<trkpt lat="54.575336" lon="-3.259173"><ele>666</ele><time>2019-10-02T13:01:11Z</time><name>PT9106</name></trkpt>
<trkpt lat="54.575328" lon="-3.259176"><ele>666</ele><time>2019-10-02T13:01:12Z</time><name>PT9107</name></trkpt>
<trkpt lat="54.575321" lon="-3.259176"><ele>666</ele><time>2019-10-02T13:01:13Z</time><name>PT9108</name></trkpt>
<trkpt lat="54.575313" lon="-3.259178"><ele>666</ele><time>2019-10-02T13:01:14Z</time><name>PT9109</name></trkpt>
<trkpt lat="54.575303" lon="-3.259181"><ele>667</ele><time>2019-10-02T13:01:15Z</time><name>PT9110</name></trkpt>
<trkpt lat="54.575293" lon="-3.259186"><ele>667</ele><time>2019-10-02T13:01:16Z</time><name>PT9111</name></trkpt>
<trkpt lat="54.575284" lon="-3.259193"><ele>667</ele><time>2019-10-02T13:01:17Z</time><name>PT9112</name></trkpt>
<trkpt lat="54.575276" lon="-3.259187"><ele>668</ele><time>2019-10-02T13:01:18Z</time><name>PT9113</name></trkpt>
<trkpt lat="54.575267" lon="-3.259190"><ele>669</ele><time>2019-10-02T13:01:19Z</time><name>PT9114</name></trkpt>
<trkpt lat="54.575259" lon="-3.259194"><ele>669</ele><time>2019-10-02T13:01:20Z</time><name>PT9115</name></trkpt>
<trkpt lat="54.575252" lon="-3.259200"><ele>669</ele><time>2019-10-02T13:01:21Z</time><name>PT9116</name></trkpt>
<trkpt lat="54.575245" lon="-3.259211"><ele>669</ele><time>2019-10-02T13:01:21Z</time><name>PT9117</name></trkpt>
<trkpt lat="54.575237" lon="-3.259218"><ele>669</ele><time>2019-10-02T13:01:23Z</time><name>PT9118</name></trkpt>
<trkpt lat="54.575227" lon="-3.259223"><ele>669</ele><time>2019-10-02T13:01:23Z</time><name>PT9119</name></trkpt>
<trkpt lat="54.575219" lon="-3.259225"><ele>669</ele><time>2019-10-02T13:01:25Z</time><name>PT9120</name></trkpt>
<trkpt lat="54.575211" lon="-3.259227"><ele>670</ele><time>2019-10-02T13:01:25Z</time><name>PT9121</name></trkpt>
<trkpt lat="54.575203" lon="-3.259227"><ele>670</ele><time>2019-10-02T13:01:27Z</time><name>PT9122</name></trkpt>
<trkpt lat="54.575195" lon="-3.259228"><ele>670</ele><time>2019-10-02T13:01:27Z</time><name>PT9123</name></trkpt>
<trkpt lat="54.575185" lon="-3.259235"><ele>671</ele><time>2019-10-02T13:01:29Z</time><name>PT9124</name></trkpt>
<trkpt lat="54.575176" lon="-3.259242"><ele>670</ele><time>2019-10-02T13:01:30Z</time><name>PT9125</name></trkpt>
<trkpt lat="54.575167" lon="-3.259246"><ele>671</ele><time>2019-10-02T13:01:31Z</time><name>PT9126</name></trkpt>
<trkpt lat="54.575158" lon="-3.259250"><ele>671</ele><time>2019-10-02T13:01:31Z</time><name>PT9127</name></trkpt>
<trkpt lat="54.575150" lon="-3.259247"><ele>671</ele><time>2019-10-02T13:01:33Z</time><name>PT9128</name></trkpt>
<trkpt lat="54.575141" lon="-3.259250"><ele>672</ele><time>2019-10-02T13:01:33Z</time><name>PT9129</name></trkpt>
<trkpt lat="54.575133" lon="-3.259253"><ele>672</ele><time>2019-10-02T13:01:35Z</time><name>PT9130</name></trkpt>
<trkpt lat="54.575126" lon="-3.259258"><ele>672</ele><time>2019-10-02T13:01:35Z</time><name>PT9131</name></trkpt>
<trkpt lat="54.575119" lon="-3.259259"><ele>671</ele><time>2019-10-02T13:01:37Z</time><name>PT9132</name></trkpt>
<trkpt lat="54.575109" lon="-3.259261"><ele>671</ele><time>2019-10-02T13:01:38Z</time><name>PT9133</name></trkpt>
<trkpt lat="54.575101" lon="-3.259261"><ele>671</ele><time>2019-10-02T13:01:39Z</time><name>PT9134</name></trkpt>
<trkpt lat="54.575094" lon="-3.259265"><ele>671</ele><time>2019-10-02T13:01:40Z</time><name>PT9135</name></trkpt>
<trkpt lat="54.575086" lon="-3.259267"><ele>671</ele><time>2019-10-02T13:01:41Z</time><name>PT9136</name></trkpt>
<trkpt lat="54.575078" lon="-3.259266"><ele>671</ele><time>2019-10-02T13:01:41Z</time><name>PT9137</name></trkpt>
<trkpt lat="54.575067" lon="-3.259267"><ele>672</ele><time>2019-10-02T13:01:43Z</time><name>PT9138</name></trkpt>
<trkpt lat="54.575059" lon="-3.259268"><ele>672</ele><time>2019-10-02T13:01:44Z</time><name>PT9139</name></trkpt>
<trkpt lat="54.575050" lon="-3.259267"><ele>673</ele><time>2019-10-02T13:01:45Z</time><name>PT9140</name></trkpt>
<trkpt lat="54.575042" lon="-3.259268"><ele>673</ele><time>2019-10-02T13:01:45Z</time><name>PT9141</name></trkpt>
<trkpt lat="54.575034" lon="-3.259272"><ele>673</ele><time>2019-10-02T13:01:47Z</time><name>PT9142</name></trkpt>
<trkpt lat="54.575025" lon="-3.259276"><ele>673</ele><time>2019-10-02T13:01:47Z</time><name>PT9143</name></trkpt>
<trkpt lat="54.575013" lon="-3.259284"><ele>672</ele><time>2019-10-02T13:01:49Z</time><name>PT9144</name></trkpt>
<trkpt lat="54.575004" lon="-3.259287"><ele>673</ele><time>2019-10-02T13:01:49Z</time><name>PT9145</name></trkpt>
<trkpt lat="54.574994" lon="-3.259294"><ele>673</ele><time>2019-10-02T13:01:51Z</time><name>PT9146</name></trkpt>
<trkpt lat="54.574984" lon="-3.259301"><ele>673</ele><time>2019-10-02T13:01:51Z</time><name>PT9147</name></trkpt>
<trkpt lat="54.574975" lon="-3.259311"><ele>673</ele><time>2019-10-02T13:01:53Z</time><name>PT9148</name></trkpt>
<trkpt lat="54.574967" lon="-3.259317"><ele>673</ele><time>2019-10-02T13:01:54Z</time><name>PT9149</name></trkpt>
<trkpt lat="54.574960" lon="-3.259322"><ele>673</ele><time>2019-10-02T13:01:55Z</time><name>PT9150</name></trkpt>
<trkpt lat="54.574953" lon="-3.259327"><ele>673</ele><time>2019-10-02T13:01:56Z</time><name>PT9151</name></trkpt>
<trkpt lat="54.574945" lon="-3.259332"><ele>673</ele><time>2019-10-02T13:01:57Z</time><name>PT9152</name></trkpt>
<trkpt lat="54.574935" lon="-3.259336"><ele>674</ele><time>2019-10-02T13:01:58Z</time><name>PT9153</name></trkpt>
<trkpt lat="54.574926" lon="-3.259345"><ele>673</ele><time>2019-10-02T13:01:59Z</time><name>PT9154</name></trkpt>
<trkpt lat="54.574917" lon="-3.259349"><ele>674</ele><time>2019-10-02T13:02:00Z</time><name>PT9155</name></trkpt>
<trkpt lat="54.574907" lon="-3.259355"><ele>674</ele><time>2019-10-02T13:02:01Z</time><name>PT9156</name></trkpt>
<trkpt lat="54.574899" lon="-3.259355"><ele>674</ele><time>2019-10-02T13:02:02Z</time><name>PT9157</name></trkpt>
<trkpt lat="54.574889" lon="-3.259362"><ele>674</ele><time>2019-10-02T13:02:03Z</time><name>PT9158</name></trkpt>
<trkpt lat="54.574880" lon="-3.259370"><ele>674</ele><time>2019-10-02T13:02:04Z</time><name>PT9159</name></trkpt>
<trkpt lat="54.574873" lon="-3.259375"><ele>674</ele><time>2019-10-02T13:02:05Z</time><name>PT9160</name></trkpt>
<trkpt lat="54.574862" lon="-3.259382"><ele>675</ele><time>2019-10-02T13:02:06Z</time><name>PT9161</name></trkpt>
<trkpt lat="54.574853" lon="-3.259392"><ele>675</ele><time>2019-10-02T13:02:07Z</time><name>PT9162</name></trkpt>
<trkpt lat="54.574845" lon="-3.259397"><ele>675</ele><time>2019-10-02T13:02:08Z</time><name>PT9163</name></trkpt>
<trkpt lat="54.574837" lon="-3.259404"><ele>675</ele><time>2019-10-02T13:02:09Z</time><name>PT9164</name></trkpt>
<trkpt lat="54.574828" lon="-3.259407"><ele>675</ele><time>2019-10-02T13:02:10Z</time><name>PT9165</name></trkpt>
<trkpt lat="54.574820" lon="-3.259411"><ele>675</ele><time>2019-10-02T13:02:11Z</time><name>PT9166</name></trkpt>
<trkpt lat="54.574809" lon="-3.259414"><ele>676</ele><time>2019-10-02T13:02:12Z</time><name>PT9167</name></trkpt>
<trkpt lat="54.574797" lon="-3.259416"><ele>676</ele><time>2019-10-02T13:02:13Z</time><name>PT9168</name></trkpt>
<trkpt lat="54.574787" lon="-3.259421"><ele>676</ele><time>2019-10-02T13:02:14Z</time><name>PT9169</name></trkpt>
<trkpt lat="54.574776" lon="-3.259425"><ele>677</ele><time>2019-10-02T13:02:15Z</time><name>PT9170</name></trkpt>
<trkpt lat="54.574764" lon="-3.259430"><ele>677</ele><time>2019-10-02T13:02:16Z</time><name>PT9171</name></trkpt>
<trkpt lat="54.574755" lon="-3.259432"><ele>677</ele><time>2019-10-02T13:02:17Z</time><name>PT9172</name></trkpt>
<trkpt lat="54.574746" lon="-3.259433"><ele>678</ele><time>2019-10-02T13:02:18Z</time><name>PT9173</name></trkpt>
<trkpt lat="54.574737" lon="-3.259434"><ele>678</ele><time>2019-10-02T13:02:19Z</time><name>PT9174</name></trkpt>
<trkpt lat="54.574728" lon="-3.259438"><ele>679</ele><time>2019-10-02T13:02:20Z</time><name>PT9175</name></trkpt>
<trkpt lat="54.574720" lon="-3.259442"><ele>679</ele><time>2019-10-02T13:02:21Z</time><name>PT9176</name></trkpt>
<trkpt lat="54.574711" lon="-3.259445"><ele>679</ele><time>2019-10-02T13:02:22Z</time><name>PT9177</name></trkpt>
<trkpt lat="54.574705" lon="-3.259447"><ele>679</ele><time>2019-10-02T13:02:23Z</time><name>PT9178</name></trkpt>
<trkpt lat="54.574697" lon="-3.259453"><ele>679</ele><time>2019-10-02T13:02:24Z</time><name>PT9179</name></trkpt>
<trkpt lat="54.574688" lon="-3.259462"><ele>679</ele><time>2019-10-02T13:02:25Z</time><name>PT9180</name></trkpt>
<trkpt lat="54.574680" lon="-3.259470"><ele>679</ele><time>2019-10-02T13:02:26Z</time><name>PT9181</name></trkpt>
<trkpt lat="54.574670" lon="-3.259483"><ele>679</ele><time>2019-10-02T13:02:27Z</time><name>PT9182</name></trkpt>
<trkpt lat="54.574660" lon="-3.259492"><ele>679</ele><time>2019-10-02T13:02:28Z</time><name>PT9183</name></trkpt>
<trkpt lat="54.574650" lon="-3.259497"><ele>679</ele><time>2019-10-02T13:02:29Z</time><name>PT9184</name></trkpt>
<trkpt lat="54.574640" lon="-3.259501"><ele>678</ele><time>2019-10-02T13:02:29Z</time><name>PT9185</name></trkpt>
<trkpt lat="54.574629" lon="-3.259506"><ele>678</ele><time>2019-10-02T13:02:31Z</time><name>PT9186</name></trkpt>
<trkpt lat="54.574620" lon="-3.259507"><ele>678</ele><time>2019-10-02T13:02:32Z</time><name>PT9187</name></trkpt>
<trkpt lat="54.574611" lon="-3.259511"><ele>678</ele><time>2019-10-02T13:02:33Z</time><name>PT9188</name></trkpt>
<trkpt lat="54.574602" lon="-3.259513"><ele>678</ele><time>2019-10-02T13:02:34Z</time><name>PT9189</name></trkpt>
<trkpt lat="54.574591" lon="-3.259512"><ele>679</ele><time>2019-10-02T13:02:35Z</time><name>PT9190</name></trkpt>
<trkpt lat="54.574580" lon="-3.259516"><ele>679</ele><time>2019-10-02T13:02:35Z</time><name>PT9191</name></trkpt>
<trkpt lat="54.574570" lon="-3.259520"><ele>679</ele><time>2019-10-02T13:02:37Z</time><name>PT9192</name></trkpt>
<trkpt lat="54.574561" lon="-3.259522"><ele>679</ele><time>2019-10-02T13:02:37Z</time><name>PT9193</name></trkpt>
<trkpt lat="54.574552" lon="-3.259522"><ele>679</ele><time>2019-10-02T13:02:39Z</time><name>PT9194</name></trkpt>
<trkpt lat="54.574541" lon="-3.259524"><ele>679</ele><time>2019-10-02T13:02:39Z</time><name>PT9195</name></trkpt>
<trkpt lat="54.574530" lon="-3.259526"><ele>679</ele><time>2019-10-02T13:02:41Z</time><name>PT9196</name></trkpt>
<trkpt lat="54.574520" lon="-3.259527"><ele>679</ele><time>2019-10-02T13:02:41Z</time><name>PT9197</name></trkpt>
<trkpt lat="54.574511" lon="-3.259527"><ele>680</ele><time>2019-10-02T13:02:43Z</time><name>PT9198</name></trkpt>
<trkpt lat="54.574501" lon="-3.259533"><ele>680</ele><time>2019-10-02T13:02:44Z</time><name>PT9199</name></trkpt>
<trkpt lat="54.574491" lon="-3.259537"><ele>680</ele><time>2019-10-02T13:02:45Z</time><name>PT9200</name></trkpt>
<trkpt lat="54.574484" lon="-3.259540"><ele>680</ele><time>2019-10-02T13:02:46Z</time><name>PT9201</name></trkpt>
<trkpt lat="54.574478" lon="-3.259538"><ele>679</ele><time>2019-10-02T13:02:47Z</time><name>PT9202</name></trkpt>
<trkpt lat="54.574469" lon="-3.259535"><ele>680</ele><time>2019-10-02T13:02:48Z</time><name>PT9203</name></trkpt>
<trkpt lat="54.574459" lon="-3.259521"><ele>680</ele><time>2019-10-02T13:02:49Z</time><name>PT9204</name></trkpt>
<trkpt lat="54.574449" lon="-3.259522"><ele>680</ele><time>2019-10-02T13:02:50Z</time><name>PT9205</name></trkpt>
<trkpt lat="54.574440" lon="-3.259522"><ele>681</ele><time>2019-10-02T13:02:51Z</time><name>PT9206</name></trkpt>
<trkpt lat="54.574430" lon="-3.259522"><ele>681</ele><time>2019-10-02T13:02:52Z</time><name>PT9207</name></trkpt>
<trkpt lat="54.574421" lon="-3.259526"><ele>681</ele><time>2019-10-02T13:02:53Z</time><name>PT9208</name></trkpt>
<trkpt lat="54.574413" lon="-3.259531"><ele>682</ele><time>2019-10-02T13:02:54Z</time><name>PT9209</name></trkpt>
<trkpt lat="54.574402" lon="-3.259537"><ele>681</ele><time>2019-10-02T13:02:55Z</time><name>PT9210</name></trkpt>
<trkpt lat="54.574393" lon="-3.259538"><ele>682</ele><time>2019-10-02T13:02:56Z</time><name>PT9211</name></trkpt>
<trkpt lat="54.574384" lon="-3.259542"><ele>682</ele><time>2019-10-02T13:02:57Z</time><name>PT9212</name></trkpt>
<trkpt lat="54.574374" lon="-3.259548"><ele>683</ele><time>2019-10-02T13:02:58Z</time><name>PT9213</name></trkpt>
<trkpt lat="54.574365" lon="-3.259554"><ele>683</ele><time>2019-10-02T13:02:59Z</time><name>PT9214</name></trkpt>
<trkpt lat="54.574355" lon="-3.259557"><ele>684</ele><time>2019-10-02T13:03:00Z</time><name>PT9215</name></trkpt>
<trkpt lat="54.574345" lon="-3.259561"><ele>684</ele><time>2019-10-02T13:03:01Z</time><name>PT9216</name></trkpt>
<trkpt lat="54.574332" lon="-3.259562"><ele>684</ele><time>2019-10-02T13:03:02Z</time><name>PT9217</name></trkpt>
<trkpt lat="54.574323" lon="-3.259563"><ele>684</ele><time>2019-10-02T13:03:03Z</time><name>PT9218</name></trkpt>
<trkpt lat="54.574315" lon="-3.259567"><ele>684</ele><time>2019-10-02T13:03:04Z</time><name>PT9219</name></trkpt>
<trkpt lat="54.574305" lon="-3.259572"><ele>684</ele><time>2019-10-02T13:03:05Z</time><name>PT9220</name></trkpt>
<trkpt lat="54.574295" lon="-3.259579"><ele>684</ele><time>2019-10-02T13:03:06Z</time><name>PT9221</name></trkpt>
<trkpt lat="54.574284" lon="-3.259589"><ele>684</ele><time>2019-10-02T13:03:07Z</time><name>PT9222</name></trkpt>
<trkpt lat="54.574277" lon="-3.259594"><ele>685</ele><time>2019-10-02T13:03:08Z</time><name>PT9223</name></trkpt>
<trkpt lat="54.574268" lon="-3.259596"><ele>684</ele><time>2019-10-02T13:03:09Z</time><name>PT9224</name></trkpt>
<trkpt lat="54.574257" lon="-3.259600"><ele>684</ele><time>2019-10-02T13:03:10Z</time><name>PT9225</name></trkpt>
<trkpt lat="54.574248" lon="-3.259598"><ele>684</ele><time>2019-10-02T13:03:11Z</time><name>PT9226</name></trkpt>
<trkpt lat="54.574240" lon="-3.259600"><ele>684</ele><time>2019-10-02T13:03:12Z</time><name>PT9227</name></trkpt>
<trkpt lat="54.574230" lon="-3.259601"><ele>684</ele><time>2019-10-02T13:03:13Z</time><name>PT9228</name></trkpt>
<trkpt lat="54.574220" lon="-3.259604"><ele>684</ele><time>2019-10-02T13:03:13Z</time><name>PT9229</name></trkpt>
<trkpt lat="54.574210" lon="-3.259603"><ele>684</ele><time>2019-10-02T13:03:15Z</time><name>PT9230</name></trkpt>
<trkpt lat="54.574200" lon="-3.259604"><ele>684</ele><time>2019-10-02T13:03:16Z</time><name>PT9231</name></trkpt>
<trkpt lat="54.574193" lon="-3.259603"><ele>684</ele><time>2019-10-02T13:03:17Z</time><name>PT9232</name></trkpt>
<trkpt lat="54.574183" lon="-3.259606"><ele>684</ele><time>2019-10-02T13:03:18Z</time><name>PT9233</name></trkpt>
<trkpt lat="54.574173" lon="-3.259610"><ele>683</ele><time>2019-10-02T13:03:19Z</time><name>PT9234</name></trkpt>
<trkpt lat="54.574164" lon="-3.259613"><ele>683</ele><time>2019-10-02T13:03:20Z</time><name>PT9235</name></trkpt>
<trkpt lat="54.574155" lon="-3.259615"><ele>684</ele><time>2019-10-02T13:03:21Z</time><name>PT9236</name></trkpt>
<trkpt lat="54.574145" lon="-3.259619"><ele>684</ele><time>2019-10-02T13:03:22Z</time><name>PT9237</name></trkpt>
<trkpt lat="54.574135" lon="-3.259626"><ele>683</ele><time>2019-10-02T13:03:23Z</time><name>PT9238</name></trkpt>
<trkpt lat="54.574125" lon="-3.259631"><ele>684</ele><time>2019-10-02T13:03:24Z</time><name>PT9239</name></trkpt>
<trkpt lat="54.574116" lon="-3.259632"><ele>684</ele><time>2019-10-02T13:03:25Z</time><name>PT9240</name></trkpt>
<trkpt lat="54.574106" lon="-3.259632"><ele>684</ele><time>2019-10-02T13:03:26Z</time><name>PT9241</name></trkpt>
<trkpt lat="54.574096" lon="-3.259636"><ele>684</ele><time>2019-10-02T13:03:27Z</time><name>PT9242</name></trkpt>
<trkpt lat="54.574086" lon="-3.259642"><ele>685</ele><time>2019-10-02T13:03:28Z</time><name>PT9243</name></trkpt>
<trkpt lat="54.574077" lon="-3.259648"><ele>685</ele><time>2019-10-02T13:03:29Z</time><name>PT9244</name></trkpt>
<trkpt lat="54.574067" lon="-3.259653"><ele>685</ele><time>2019-10-02T13:03:30Z</time><name>PT9245</name></trkpt>
<trkpt lat="54.574056" lon="-3.259658"><ele>685</ele><time>2019-10-02T13:03:31Z</time><name>PT9246</name></trkpt>
<trkpt lat="54.574045" lon="-3.259661"><ele>685</ele><time>2019-10-02T13:03:32Z</time><name>PT9247</name></trkpt>
<trkpt lat="54.574036" lon="-3.259662"><ele>686</ele><time>2019-10-02T13:03:33Z</time><name>PT9248</name></trkpt>
<trkpt lat="54.574025" lon="-3.259665"><ele>686</ele><time>2019-10-02T13:03:34Z</time><name>PT9249</name></trkpt>
<trkpt lat="54.574018" lon="-3.259667"><ele>686</ele><time>2019-10-02T13:03:35Z</time><name>PT9250</name></trkpt>
<trkpt lat="54.574007" lon="-3.259670"><ele>687</ele><time>2019-10-02T13:03:35Z</time><name>PT9251</name></trkpt>
<trkpt lat="54.573998" lon="-3.259671"><ele>687</ele><time>2019-10-02T13:03:37Z</time><name>PT9252</name></trkpt>
<trkpt lat="54.573988" lon="-3.259675"><ele>687</ele><time>2019-10-02T13:03:38Z</time><name>PT9253</name></trkpt>
<trkpt lat="54.573978" lon="-3.259680"><ele>687</ele><time>2019-10-02T13:03:39Z</time><name>PT9254</name></trkpt>
<trkpt lat="54.573970" lon="-3.259682"><ele>687</ele><time>2019-10-02T13:03:40Z</time><name>PT9255</name></trkpt>
<trkpt lat="54.573961" lon="-3.259681"><ele>687</ele><time>2019-10-02T13:03:41Z</time><name>PT9256</name></trkpt>
<trkpt lat="54.573951" lon="-3.259683"><ele>687</ele><time>2019-10-02T13:03:42Z</time><name>PT9257</name></trkpt>
<trkpt lat="54.573939" lon="-3.259686"><ele>687</ele><time>2019-10-02T13:03:43Z</time><name>PT9258</name></trkpt>
<trkpt lat="54.573926" lon="-3.259691"><ele>688</ele><time>2019-10-02T13:03:44Z</time><name>PT9259</name></trkpt>
<trkpt lat="54.573918" lon="-3.259694"><ele>688</ele><time>2019-10-02T13:03:45Z</time><name>PT9260</name></trkpt>
<trkpt lat="54.573909" lon="-3.259698"><ele>688</ele><time>2019-10-02T13:03:46Z</time><name>PT9261</name></trkpt>
<trkpt lat="54.573901" lon="-3.259694"><ele>688</ele><time>2019-10-02T13:03:47Z</time><name>PT9262</name></trkpt>
<trkpt lat="54.573889" lon="-3.259696"><ele>688</ele><time>2019-10-02T13:03:47Z</time><name>PT9263</name></trkpt>
<trkpt lat="54.573877" lon="-3.259696"><ele>688</ele><time>2019-10-02T13:03:49Z</time><name>PT9264</name></trkpt>
<trkpt lat="54.573869" lon="-3.259692"><ele>689</ele><time>2019-10-02T13:03:49Z</time><name>PT9265</name></trkpt>
<trkpt lat="54.573857" lon="-3.259694"><ele>689</ele><time>2019-10-02T13:03:51Z</time><name>PT9266</name></trkpt>
<trkpt lat="54.573845" lon="-3.259698"><ele>689</ele><time>2019-10-02T13:03:52Z</time><name>PT9267</name></trkpt>
<trkpt lat="54.573835" lon="-3.259698"><ele>690</ele><time>2019-10-02T13:03:53Z</time><name>PT9268</name></trkpt>
<trkpt lat="54.573824" lon="-3.259701"><ele>690</ele><time>2019-10-02T13:03:53Z</time><name>PT9269</name></trkpt>
<trkpt lat="54.573812" lon="-3.259706"><ele>690</ele><time>2019-10-02T13:03:55Z</time><name>PT9270</name></trkpt>
<trkpt lat="54.573802" lon="-3.259708"><ele>690</ele><time>2019-10-02T13:03:55Z</time><name>PT9271</name></trkpt>
<trkpt lat="54.573791" lon="-3.259710"><ele>690</ele><time>2019-10-02T13:03:57Z</time><name>PT9272</name></trkpt>
<trkpt lat="54.573778" lon="-3.259714"><ele>691</ele><time>2019-10-02T13:03:58Z</time><name>PT9273</name></trkpt>
<trkpt lat="54.573766" lon="-3.259721"><ele>691</ele><time>2019-10-02T13:03:59Z</time><name>PT9274</name></trkpt>
<trkpt lat="54.573755" lon="-3.259725"><ele>690</ele><time>2019-10-02T13:03:59Z</time><name>PT9275</name></trkpt>
<trkpt lat="54.573744" lon="-3.259731"><ele>691</ele><time>2019-10-02T13:04:01Z</time><name>PT9276</name></trkpt>
<trkpt lat="54.573734" lon="-3.259734"><ele>691</ele><time>2019-10-02T13:04:01Z</time><name>PT9277</name></trkpt>
<trkpt lat="54.573724" lon="-3.259735"><ele>691</ele><time>2019-10-02T13:04:03Z</time><name>PT9278</name></trkpt>
<trkpt lat="54.573713" lon="-3.259737"><ele>691</ele><time>2019-10-02T13:04:03Z</time><name>PT9279</name></trkpt>
<trkpt lat="54.573702" lon="-3.259741"><ele>691</ele><time>2019-10-02T13:04:05Z</time><name>PT9280</name></trkpt>
<trkpt lat="54.573690" lon="-3.259743"><ele>691</ele><time>2019-10-02T13:04:06Z</time><name>PT9281</name></trkpt>
<trkpt lat="54.573681" lon="-3.259744"><ele>691</ele><time>2019-10-02T13:04:07Z</time><name>PT9282</name></trkpt>
<trkpt lat="54.573670" lon="-3.259748"><ele>691</ele><time>2019-10-02T13:04:07Z</time><name>PT9283</name></trkpt>
<trkpt lat="54.573658" lon="-3.259753"><ele>691</ele><time>2019-10-02T13:04:09Z</time><name>PT9284</name></trkpt>
<trkpt lat="54.573645" lon="-3.259759"><ele>690</ele><time>2019-10-02T13:04:09Z</time><name>PT9285</name></trkpt>
<trkpt lat="54.573633" lon="-3.259766"><ele>690</ele><time>2019-10-02T13:04:11Z</time><name>PT9286</name></trkpt>
<trkpt lat="54.573621" lon="-3.259767"><ele>690</ele><time>2019-10-02T13:04:11Z</time><name>PT9287</name></trkpt>
<trkpt lat="54.573610" lon="-3.259771"><ele>691</ele><time>2019-10-02T13:04:13Z</time><name>PT9288</name></trkpt>
<trkpt lat="54.573598" lon="-3.259775"><ele>691</ele><time>2019-10-02T13:04:14Z</time><name>PT9289</name></trkpt>
<trkpt lat="54.573585" lon="-3.259780"><ele>691</ele><time>2019-10-02T13:04:15Z</time><name>PT9290</name></trkpt>
<trkpt lat="54.573572" lon="-3.259785"><ele>691</ele><time>2019-10-02T13:04:16Z</time><name>PT9291</name></trkpt>
<trkpt lat="54.573561" lon="-3.259788"><ele>691</ele><time>2019-10-02T13:04:17Z</time><name>PT9292</name></trkpt>
<trkpt lat="54.573547" lon="-3.259793"><ele>691</ele><time>2019-10-02T13:04:18Z</time><name>PT9293</name></trkpt>
<trkpt lat="54.573534" lon="-3.259797"><ele>691</ele><time>2019-10-02T13:04:19Z</time><name>PT9294</name></trkpt>
<trkpt lat="54.573524" lon="-3.259798"><ele>691</ele><time>2019-10-02T13:04:20Z</time><name>PT9295</name></trkpt>
<trkpt lat="54.573511" lon="-3.259798"><ele>692</ele><time>2019-10-02T13:04:21Z</time><name>PT9296</name></trkpt>
<trkpt lat="54.573501" lon="-3.259795"><ele>692</ele><time>2019-10-02T13:04:22Z</time><name>PT9297</name></trkpt>
<trkpt lat="54.573489" lon="-3.259798"><ele>692</ele><time>2019-10-02T13:04:23Z</time><name>PT9298</name></trkpt>
<trkpt lat="54.573476" lon="-3.259797"><ele>693</ele><time>2019-10-02T13:04:24Z</time><name>PT9299</name></trkpt>
<trkpt lat="54.573465" lon="-3.259794"><ele>693</ele><time>2019-10-02T13:04:25Z</time><name>PT9300</name></trkpt>
<trkpt lat="54.573455" lon="-3.259791"><ele>693</ele><time>2019-10-02T13:04:26Z</time><name>PT9301</name></trkpt>
<trkpt lat="54.573442" lon="-3.259791"><ele>693</ele><time>2019-10-02T13:04:27Z</time><name>PT9302</name></trkpt>
<trkpt lat="54.573431" lon="-3.259788"><ele>693</ele><time>2019-10-02T13:04:28Z</time><name>PT9303</name></trkpt>
<trkpt lat="54.573416" lon="-3.259793"><ele>693</ele><time>2019-10-02T13:04:29Z</time><name>PT9304</name></trkpt>
<trkpt lat="54.573401" lon="-3.259798"><ele>693</ele><time>2019-10-02T13:04:30Z</time><name>PT9305</name></trkpt>
<trkpt lat="54.573391" lon="-3.259800"><ele>693</ele><time>2019-10-02T13:04:31Z</time><name>PT9306</name></trkpt>
<trkpt lat="54.573380" lon="-3.259802"><ele>692</ele><time>2019-10-02T13:04:31Z</time><name>PT9307</name></trkpt>
<trkpt lat="54.573368" lon="-3.259807"><ele>692</ele><time>2019-10-02T13:04:33Z</time><name>PT9308</name></trkpt>
<trkpt lat="54.573358" lon="-3.259811"><ele>692</ele><time>2019-10-02T13:04:34Z</time><name>PT9309</name></trkpt>
<trkpt lat="54.573346" lon="-3.259817"><ele>692</ele><time>2019-10-02T13:04:35Z</time><name>PT9310</name></trkpt>
<trkpt lat="54.573336" lon="-3.259820"><ele>692</ele><time>2019-10-02T13:04:36Z</time><name>PT9311</name></trkpt>
<trkpt lat="54.573323" lon="-3.259827"><ele>693</ele><time>2019-10-02T13:04:37Z</time><name>PT9312</name></trkpt>
<trkpt lat="54.573313" lon="-3.259830"><ele>693</ele><time>2019-10-02T13:04:38Z</time><name>PT9313</name></trkpt>
<trkpt lat="54.573303" lon="-3.259830"><ele>694</ele><time>2019-10-02T13:04:39Z</time><name>PT9314</name></trkpt>
<trkpt lat="54.573294" lon="-3.259831"><ele>694</ele><time>2019-10-02T13:04:40Z</time><name>PT9315</name></trkpt>
<trkpt lat="54.573283" lon="-3.259832"><ele>694</ele><time>2019-10-02T13:04:41Z</time><name>PT9316</name></trkpt>
<trkpt lat="54.573274" lon="-3.259828"><ele>694</ele><time>2019-10-02T13:04:42Z</time><name>PT9317</name></trkpt>
<trkpt lat="54.573263" lon="-3.259829"><ele>694</ele><time>2019-10-02T13:04:43Z</time><name>PT9318</name></trkpt>
<trkpt lat="54.573252" lon="-3.259825"><ele>694</ele><time>2019-10-02T13:04:44Z</time><name>PT9319</name></trkpt>
<trkpt lat="54.573242" lon="-3.259819"><ele>695</ele><time>2019-10-02T13:04:45Z</time><name>PT9320</name></trkpt>
<trkpt lat="54.573231" lon="-3.259819"><ele>694</ele><time>2019-10-02T13:04:46Z</time><name>PT9321</name></trkpt>
<trkpt lat="54.573221" lon="-3.259819"><ele>695</ele><time>2019-10-02T13:04:47Z</time><name>PT9322</name></trkpt>
<trkpt lat="54.573212" lon="-3.259816"><ele>695</ele><time>2019-10-02T13:04:48Z</time><name>PT9323</name></trkpt>
<trkpt lat="54.573204" lon="-3.259815"><ele>695</ele><time>2019-10-02T13:04:49Z</time><name>PT9324</name></trkpt>
<trkpt lat="54.573194" lon="-3.259811"><ele>695</ele><time>2019-10-02T13:04:50Z</time><name>PT9325</name></trkpt>
<trkpt lat="54.573182" lon="-3.259812"><ele>695</ele><time>2019-10-02T13:04:51Z</time><name>PT9326</name></trkpt>
<trkpt lat="54.573171" lon="-3.259811"><ele>695</ele><time>2019-10-02T13:04:52Z</time><name>PT9327</name></trkpt>
<trkpt lat="54.573160" lon="-3.259813"><ele>695</ele><time>2019-10-02T13:04:53Z</time><name>PT9328</name></trkpt>
<trkpt lat="54.573150" lon="-3.259823"><ele>695</ele><time>2019-10-02T13:04:53Z</time><name>PT9329</name></trkpt>
<trkpt lat="54.573136" lon="-3.259823"><ele>695</ele><time>2019-10-02T13:04:55Z</time><name>PT9330</name></trkpt>
<trkpt lat="54.573126" lon="-3.259822"><ele>695</ele><time>2019-10-02T13:04:55Z</time><name>PT9331</name></trkpt>
<trkpt lat="54.573117" lon="-3.259816"><ele>696</ele><time>2019-10-02T13:04:57Z</time><name>PT9332</name></trkpt>
<trkpt lat="54.573105" lon="-3.259817"><ele>696</ele><time>2019-10-02T13:04:57Z</time><name>PT9333</name></trkpt>
<trkpt lat="54.573095" lon="-3.259816"><ele>696</ele><time>2019-10-02T13:04:59Z</time><name>PT9334</name></trkpt>
<trkpt lat="54.573083" lon="-3.259812"><ele>696</ele><time>2019-10-02T13:04:59Z</time><name>PT9335</name></trkpt>
<trkpt lat="54.573070" lon="-3.259809"><ele>697</ele><time>2019-10-02T13:05:01Z</time><name>PT9336</name></trkpt>
<trkpt lat="54.573056" lon="-3.259814"><ele>697</ele><time>2019-10-02T13:05:01Z</time><name>PT9337</name></trkpt>
<trkpt lat="54.573044" lon="-3.259818"><ele>697</ele><time>2019-10-02T13:05:03Z</time><name>PT9338</name></trkpt>
<trkpt lat="54.573032" lon="-3.259823"><ele>696</ele><time>2019-10-02T13:05:03Z</time><name>PT9339</name></trkpt>
<trkpt lat="54.573021" lon="-3.259821"><ele>696</ele><time>2019-10-02T13:05:05Z</time><name>PT9340</name></trkpt>
<trkpt lat="54.573008" lon="-3.259820"><ele>697</ele><time>2019-10-02T13:05:05Z</time><name>PT9341</name></trkpt>
<trkpt lat="54.572998" lon="-3.259821"><ele>696</ele><time>2019-10-02T13:05:07Z</time><name>PT9342</name></trkpt>
<trkpt lat="54.572986" lon="-3.259824"><ele>696</ele><time>2019-10-02T13:05:07Z</time><name>PT9343</name></trkpt>
<trkpt lat="54.572974" lon="-3.259829"><ele>696</ele><time>2019-10-02T13:05:09Z</time><name>PT9344</name></trkpt>
<trkpt lat="54.572962" lon="-3.259836"><ele>695</ele><time>2019-10-02T13:05:09Z</time><name>PT9345</name></trkpt>
<trkpt lat="54.572950" lon="-3.259838"><ele>696</ele><time>2019-10-02T13:05:11Z</time><name>PT9346</name></trkpt>
<trkpt lat="54.572936" lon="-3.259850"><ele>696</ele><time>2019-10-02T13:05:12Z</time><name>PT9347</name></trkpt>
<trkpt lat="54.572924" lon="-3.259855"><ele>696</ele><time>2019-10-02T13:05:13Z</time><name>PT9348</name></trkpt>
<trkpt lat="54.572916" lon="-3.259863"><ele>695</ele><time>2019-10-02T13:05:13Z</time><name>PT9349</name></trkpt>
<trkpt lat="54.572907" lon="-3.259862"><ele>695</ele><time>2019-10-02T13:05:15Z</time><name>PT9350</name></trkpt>
<trkpt lat="54.572897" lon="-3.259860"><ele>694</ele><time>2019-10-02T13:05:16Z</time><name>PT9351</name></trkpt>
<trkpt lat="54.572887" lon="-3.259857"><ele>694</ele><time>2019-10-02T13:05:17Z</time><name>PT9352</name></trkpt>
<trkpt lat="54.572876" lon="-3.259855"><ele>695</ele><time>2019-10-02T13:05:17Z</time><name>PT9353</name></trkpt>
<trkpt lat="54.572862" lon="-3.259857"><ele>695</ele><time>2019-10-02T13:05:19Z</time><name>PT9354</name></trkpt>
<trkpt lat="54.572850" lon="-3.259858"><ele>695</ele><time>2019-10-02T13:05:19Z</time><name>PT9355</name></trkpt>
<trkpt lat="54.572839" lon="-3.259852"><ele>695</ele><time>2019-10-02T13:05:21Z</time><name>PT9356</name></trkpt>
<trkpt lat="54.572828" lon="-3.259851"><ele>695</ele><time>2019-10-02T13:05:21Z</time><name>PT9357</name></trkpt>
<trkpt lat="54.572810" lon="-3.259856"><ele>696</ele><time>2019-10-02T13:05:23Z</time><name>PT9358</name></trkpt>
<trkpt lat="54.572798" lon="-3.259857"><ele>696</ele><time>2019-10-02T13:05:23Z</time><name>PT9359</name></trkpt>
<trkpt lat="54.572788" lon="-3.259862"><ele>696</ele><time>2019-10-02T13:05:25Z</time><name>PT9360</name></trkpt>
<trkpt lat="54.572780" lon="-3.259857"><ele>696</ele><time>2019-10-02T13:05:25Z</time><name>PT9361</name></trkpt>
<trkpt lat="54.572770" lon="-3.259857"><ele>696</ele><time>2019-10-02T13:05:27Z</time><name>PT9362</name></trkpt>
<trkpt lat="54.572760" lon="-3.259859"><ele>696</ele><time>2019-10-02T13:05:27Z</time><name>PT9363</name></trkpt>
<trkpt lat="54.572750" lon="-3.259857"><ele>696</ele><time>2019-10-02T13:05:29Z</time><name>PT9364</name></trkpt>
<trkpt lat="54.572741" lon="-3.259856"><ele>696</ele><time>2019-10-02T13:05:30Z</time><name>PT9365</name></trkpt>
<trkpt lat="54.572733" lon="-3.259855"><ele>697</ele><time>2019-10-02T13:05:31Z</time><name>PT9366</name></trkpt>
<trkpt lat="54.572724" lon="-3.259855"><ele>697</ele><time>2019-10-02T13:05:31Z</time><name>PT9367</name></trkpt>
<trkpt lat="54.572714" lon="-3.259853"><ele>697</ele><time>2019-10-02T13:05:33Z</time><name>PT9368</name></trkpt>
<trkpt lat="54.572706" lon="-3.259850"><ele>697</ele><time>2019-10-02T13:05:33Z</time><name>PT9369</name></trkpt>
<trkpt lat="54.572700" lon="-3.259847"><ele>697</ele><time>2019-10-02T13:05:35Z</time><name>PT9370</name></trkpt>
<trkpt lat="54.572693" lon="-3.259847"><ele>697</ele><time>2019-10-02T13:05:35Z</time><name>PT9371</name></trkpt>
<trkpt lat="54.572685" lon="-3.259847"><ele>697</ele><time>2019-10-02T13:05:37Z</time><name>PT9372</name></trkpt>
<trkpt lat="54.572676" lon="-3.259847"><ele>698</ele><time>2019-10-02T13:05:38Z</time><name>PT9373</name></trkpt>
<trkpt lat="54.572667" lon="-3.259847"><ele>698</ele><time>2019-10-02T13:05:38Z</time><name>PT9374</name></trkpt>
<trkpt lat="54.572659" lon="-3.259851"><ele>698</ele><time>2019-10-02T13:05:40Z</time><name>PT9375</name></trkpt>
<trkpt lat="54.572651" lon="-3.259855"><ele>698</ele><time>2019-10-02T13:05:40Z</time><name>PT9376</name></trkpt>
<trkpt lat="54.572644" lon="-3.259856"><ele>698</ele><time>2019-10-02T13:05:42Z</time><name>PT9377</name></trkpt>
<trkpt lat="54.572635" lon="-3.259855"><ele>699</ele><time>2019-10-02T13:05:42Z</time><name>PT9378</name></trkpt>
<trkpt lat="54.572625" lon="-3.259851"><ele>699</ele><time>2019-10-02T13:05:44Z</time><name>PT9379</name></trkpt>
<trkpt lat="54.572616" lon="-3.259849"><ele>699</ele><time>2019-10-02T13:05:44Z</time><name>PT9380</name></trkpt>
<trkpt lat="54.572605" lon="-3.259844"><ele>699</ele><time>2019-10-02T13:05:46Z</time><name>PT9381</name></trkpt>
<trkpt lat="54.572595" lon="-3.259840"><ele>699</ele><time>2019-10-02T13:05:46Z</time><name>PT9382</name></trkpt>
<trkpt lat="54.572586" lon="-3.259835"><ele>699</ele><time>2019-10-02T13:05:48Z</time><name>PT9383</name></trkpt>
<trkpt lat="54.572576" lon="-3.259829"><ele>699</ele><time>2019-10-02T13:05:48Z</time><name>PT9384</name></trkpt>
<trkpt lat="54.572565" lon="-3.259828"><ele>699</ele><time>2019-10-02T13:05:50Z</time><name>PT9385</name></trkpt>
<trkpt lat="54.572555" lon="-3.259827"><ele>699</ele><time>2019-10-02T13:05:50Z</time><name>PT9386</name></trkpt>
<trkpt lat="54.572545" lon="-3.259825"><ele>700</ele><time>2019-10-02T13:05:52Z</time><name>PT9387</name></trkpt>
<trkpt lat="54.572536" lon="-3.259820"><ele>700</ele><time>2019-10-02T13:05:52Z</time><name>PT9388</name></trkpt>
<trkpt lat="54.572525" lon="-3.259816"><ele>700</ele><time>2019-10-02T13:05:54Z</time><name>PT9389</name></trkpt>
<trkpt lat="54.572518" lon="-3.259815"><ele>701</ele><time>2019-10-02T13:05:54Z</time><name>PT9390</name></trkpt>
<trkpt lat="54.572509" lon="-3.259816"><ele>701</ele><time>2019-10-02T13:05:56Z</time><name>PT9391</name></trkpt>
<trkpt lat="54.572501" lon="-3.259818"><ele>701</ele><time>2019-10-02T13:05:56Z</time><name>PT9392</name></trkpt>
<trkpt lat="54.572492" lon="-3.259819"><ele>701</ele><time>2019-10-02T13:05:58Z</time><name>PT9393</name></trkpt>
<trkpt lat="54.572483" lon="-3.259829"><ele>699</ele><time>2019-10-02T13:05:58Z</time><name>PT9394</name></trkpt>
<trkpt lat="54.572469" lon="-3.259830"><ele>699</ele><time>2019-10-02T13:06:00Z</time><name>PT9395</name></trkpt>
<trkpt lat="54.572458" lon="-3.259826"><ele>700</ele><time>2019-10-02T13:06:00Z</time><name>PT9396</name></trkpt>
<trkpt lat="54.572447" lon="-3.259827"><ele>700</ele><time>2019-10-02T13:06:02Z</time><name>PT9397</name></trkpt>
<trkpt lat="54.572436" lon="-3.259829"><ele>700</ele><time>2019-10-02T13:06:03Z</time><name>PT9398</name></trkpt>
<trkpt lat="54.572424" lon="-3.259830"><ele>700</ele><time>2019-10-02T13:06:03Z</time><name>PT9399</name></trkpt>
<trkpt lat="54.572411" lon="-3.259840"><ele>699</ele><time>2019-10-02T13:06:05Z</time><name>PT9400</name></trkpt>
<trkpt lat="54.572399" lon="-3.259841"><ele>700</ele><time>2019-10-02T13:06:05Z</time><name>PT9401</name></trkpt>
<trkpt lat="54.572386" lon="-3.259843"><ele>700</ele><time>2019-10-02T13:06:07Z</time><name>PT9402</name></trkpt>
<trkpt lat="54.572375" lon="-3.259844"><ele>700</ele><time>2019-10-02T13:06:08Z</time><name>PT9403</name></trkpt>
<trkpt lat="54.572367" lon="-3.259846"><ele>700</ele><time>2019-10-02T13:06:09Z</time><name>PT9404</name></trkpt>
<trkpt lat="54.572357" lon="-3.259848"><ele>700</ele><time>2019-10-02T13:06:09Z</time><name>PT9405</name></trkpt>
<trkpt lat="54.572342" lon="-3.259849"><ele>699</ele><time>2019-10-02T13:06:11Z</time><name>PT9406</name></trkpt>
<trkpt lat="54.572330" lon="-3.259849"><ele>700</ele><time>2019-10-02T13:06:12Z</time><name>PT9407</name></trkpt>
<trkpt lat="54.572317" lon="-3.259844"><ele>700</ele><time>2019-10-02T13:06:13Z</time><name>PT9408</name></trkpt>
<trkpt lat="54.572308" lon="-3.259838"><ele>700</ele><time>2019-10-02T13:06:14Z</time><name>PT9409</name></trkpt>
<trkpt lat="54.572298" lon="-3.259834"><ele>700</ele><time>2019-10-02T13:06:15Z</time><name>PT9410</name></trkpt>
<trkpt lat="54.572290" lon="-3.259829"><ele>701</ele><time>2019-10-02T13:06:16Z</time><name>PT9411</name></trkpt>
<trkpt lat="54.572282" lon="-3.259828"><ele>701</ele><time>2019-10-02T13:06:17Z</time><name>PT9412</name></trkpt>
<trkpt lat="54.572273" lon="-3.259825"><ele>701</ele><time>2019-10-02T13:06:18Z</time><name>PT9413</name></trkpt>
<trkpt lat="54.572261" lon="-3.259813"><ele>702</ele><time>2019-10-02T13:06:19Z</time><name>PT9414</name></trkpt>
<trkpt lat="54.572254" lon="-3.259817"><ele>701</ele><time>2019-10-02T13:06:20Z</time><name>PT9415</name></trkpt>
<trkpt lat="54.572246" lon="-3.259813"><ele>701</ele><time>2019-10-02T13:06:21Z</time><name>PT9416</name></trkpt>
<trkpt lat="54.572240" lon="-3.259815"><ele>701</ele><time>2019-10-02T13:06:22Z</time><name>PT9417</name></trkpt>
<trkpt lat="54.572233" lon="-3.259813"><ele>701</ele><time>2019-10-02T13:06:23Z</time><name>PT9418</name></trkpt>
<trkpt lat="54.572225" lon="-3.259815"><ele>701</ele><time>2019-10-02T13:06:24Z</time><name>PT9419</name></trkpt>
<trkpt lat="54.572216" lon="-3.259815"><ele>702</ele><time>2019-10-02T13:06:25Z</time><name>PT9420</name></trkpt>
<trkpt lat="54.572204" lon="-3.259821"><ele>701</ele><time>2019-10-02T13:06:26Z</time><name>PT9421</name></trkpt>
<trkpt lat="54.572195" lon="-3.259827"><ele>700</ele><time>2019-10-02T13:06:27Z</time><name>PT9422</name></trkpt>
<trkpt lat="54.572189" lon="-3.259829"><ele>700</ele><time>2019-10-02T13:06:28Z</time><name>PT9423</name></trkpt>
<trkpt lat="54.572181" lon="-3.259831"><ele>700</ele><time>2019-10-02T13:06:29Z</time><name>PT9424</name></trkpt>
<trkpt lat="54.572171" lon="-3.259833"><ele>699</ele><time>2019-10-02T13:06:30Z</time><name>PT9425</name></trkpt>
<trkpt lat="54.572160" lon="-3.259850"><ele>699</ele><time>2019-10-02T13:06:31Z</time><name>PT9426</name></trkpt>
<trkpt lat="54.572152" lon="-3.259849"><ele>698</ele><time>2019-10-02T13:06:32Z</time><name>PT9427</name></trkpt>
<trkpt lat="54.572144" lon="-3.259851"><ele>698</ele><time>2019-10-02T13:06:33Z</time><name>PT9428</name></trkpt>
<trkpt lat="54.572136" lon="-3.259853"><ele>698</ele><time>2019-10-02T13:06:34Z</time><name>PT9429</name></trkpt>
<trkpt lat="54.572128" lon="-3.259856"><ele>698</ele><time>2019-10-02T13:06:35Z</time><name>PT9430</name></trkpt>
<trkpt lat="54.572116" lon="-3.259863"><ele>698</ele><time>2019-10-02T13:06:36Z</time><name>PT9431</name></trkpt>
<trkpt lat="54.572107" lon="-3.259864"><ele>698</ele><time>2019-10-02T13:06:37Z</time><name>PT9432</name></trkpt>
<trkpt lat="54.572098" lon="-3.259862"><ele>698</ele><time>2019-10-02T13:06:38Z</time><name>PT9433</name></trkpt>
<trkpt lat="54.572087" lon="-3.259857"><ele>698</ele><time>2019-10-02T13:06:39Z</time><name>PT9434</name></trkpt>
<trkpt lat="54.572078" lon="-3.259859"><ele>698</ele><time>2019-10-02T13:06:40Z</time><name>PT9435</name></trkpt>
<trkpt lat="54.572069" lon="-3.259860"><ele>698</ele><time>2019-10-02T13:06:41Z</time><name>PT9436</name></trkpt>
<trkpt lat="54.572061" lon="-3.259863"><ele>698</ele><time>2019-10-02T13:06:41Z</time><name>PT9437</name></trkpt>
<trkpt lat="54.572052" lon="-3.259867"><ele>698</ele><time>2019-10-02T13:06:43Z</time><name>PT9438</name></trkpt>
<trkpt lat="54.572042" lon="-3.259867"><ele>699</ele><time>2019-10-02T13:06:44Z</time><name>PT9439</name></trkpt>
<trkpt lat="54.572033" lon="-3.259867"><ele>699</ele><time>2019-10-02T13:06:45Z</time><name>PT9440</name></trkpt>
<trkpt lat="54.572025" lon="-3.259864"><ele>700</ele><time>2019-10-02T13:06:45Z</time><name>PT9441</name></trkpt>
<trkpt lat="54.572017" lon="-3.259868"><ele>701</ele><time>2019-10-02T13:06:47Z</time><name>PT9442</name></trkpt>
<trkpt lat="54.572007" lon="-3.259876"><ele>701</ele><time>2019-10-02T13:06:47Z</time><name>PT9443</name></trkpt>
<trkpt lat="54.571997" lon="-3.259883"><ele>702</ele><time>2019-10-02T13:06:49Z</time><name>PT9444</name></trkpt>
<trkpt lat="54.571991" lon="-3.259879"><ele>703</ele><time>2019-10-02T13:06:49Z</time><name>PT9445</name></trkpt>
<trkpt lat="54.571982" lon="-3.259887"><ele>703</ele><time>2019-10-02T13:06:51Z</time><name>PT9446</name></trkpt>
<trkpt lat="54.571971" lon="-3.259892"><ele>703</ele><time>2019-10-02T13:06:51Z</time><name>PT9447</name></trkpt>
<trkpt lat="54.571960" lon="-3.259891"><ele>703</ele><time>2019-10-02T13:06:53Z</time><name>PT9448</name></trkpt>
<trkpt lat="54.571954" lon="-3.259887"><ele>704</ele><time>2019-10-02T13:06:53Z</time><name>PT9449</name></trkpt>
<trkpt lat="54.571943" lon="-3.259893"><ele>704</ele><time>2019-10-02T13:06:55Z</time><name>PT9450</name></trkpt>
<trkpt lat="54.571940" lon="-3.259892"><ele>704</ele><time>2019-10-02T13:06:55Z</time><name>PT9451</name></trkpt>
<trkpt lat="54.571939" lon="-3.259893"><ele>704</ele><time>2019-10-02T13:06:57Z</time><name>PT9452</name></trkpt>
<trkpt lat="54.571936" lon="-3.259892"><ele>703</ele><time>2019-10-02T13:06:57Z</time><name>PT9453</name></trkpt>
<trkpt lat="54.571929" lon="-3.259895"><ele>703</ele><time>2019-10-02T13:06:59Z</time><name>PT9454</name></trkpt>
<trkpt lat="54.571919" lon="-3.259890"><ele>703</ele><time>2019-10-02T13:07:01Z</time><name>PT9455</name></trkpt>
<trkpt lat="54.571909" lon="-3.259884"><ele>702</ele><time>2019-10-02T13:07:01Z</time><name>PT9456</name></trkpt>
<trkpt lat="54.571900" lon="-3.259878"><ele>702</ele><time>2019-10-02T13:07:03Z</time><name>PT9457</name></trkpt>
<trkpt lat="54.571889" lon="-3.259875"><ele>702</ele><time>2019-10-02T13:07:03Z</time><name>PT9458</name></trkpt>
<trkpt lat="54.571876" lon="-3.259866"><ele>703</ele><time>2019-10-02T13:07:05Z</time><name>PT9459</name></trkpt>
<trkpt lat="54.571863" lon="-3.259864"><ele>702</ele><time>2019-10-02T13:07:05Z</time><name>PT9460</name></trkpt>
<trkpt lat="54.571854" lon="-3.259864"><ele>702</ele><time>2019-10-02T13:07:07Z</time><name>PT9461</name></trkpt>
<trkpt lat="54.571837" lon="-3.259872"><ele>702</ele><time>2019-10-02T13:07:07Z</time><name>PT9462</name></trkpt>
<trkpt lat="54.571826" lon="-3.259872"><ele>702</ele><time>2019-10-02T13:07:09Z</time><name>PT9463</name></trkpt>
<trkpt lat="54.571817" lon="-3.259873"><ele>702</ele><time>2019-10-02T13:07:09Z</time><name>PT9464</name></trkpt>
<trkpt lat="54.571809" lon="-3.259876"><ele>702</ele><time>2019-10-02T13:07:11Z</time><name>PT9465</name></trkpt>
<trkpt lat="54.571796" lon="-3.259881"><ele>703</ele><time>2019-10-02T13:07:11Z</time><name>PT9466</name></trkpt>
<trkpt lat="54.571788" lon="-3.259882"><ele>703</ele><time>2019-10-02T13:07:13Z</time><name>PT9467</name></trkpt>
<trkpt lat="54.571782" lon="-3.259878"><ele>703</ele><time>2019-10-02T13:07:13Z</time><name>PT9468</name></trkpt>
<trkpt lat="54.571773" lon="-3.259879"><ele>703</ele><time>2019-10-02T13:07:15Z</time><name>PT9469</name></trkpt>
<trkpt lat="54.571762" lon="-3.259884"><ele>704</ele><time>2019-10-02T13:07:15Z</time><name>PT9470</name></trkpt>
<trkpt lat="54.571754" lon="-3.259882"><ele>704</ele><time>2019-10-02T13:07:17Z</time><name>PT9471</name></trkpt>
<trkpt lat="54.571745" lon="-3.259887"><ele>704</ele><time>2019-10-02T13:07:18Z</time><name>PT9472</name></trkpt>
<trkpt lat="54.571737" lon="-3.259889"><ele>704</ele><time>2019-10-02T13:07:19Z</time><name>PT9473</name></trkpt>
<trkpt lat="54.571725" lon="-3.259895"><ele>705</ele><time>2019-10-02T13:07:19Z</time><name>PT9474</name></trkpt>
<trkpt lat="54.571712" lon="-3.259903"><ele>705</ele><time>2019-10-02T13:07:21Z</time><name>PT9475</name></trkpt>
<trkpt lat="54.571696" lon="-3.259906"><ele>705</ele><time>2019-10-02T13:07:22Z</time><name>PT9476</name></trkpt>
<trkpt lat="54.571683" lon="-3.259906"><ele>705</ele><time>2019-10-02T13:07:23Z</time><name>PT9477</name></trkpt>
<trkpt lat="54.571674" lon="-3.259907"><ele>704</ele><time>2019-10-02T13:07:24Z</time><name>PT9478</name></trkpt>
<trkpt lat="54.571660" lon="-3.259896"><ele>706</ele><time>2019-10-02T13:07:25Z</time><name>PT9479</name></trkpt>
<trkpt lat="54.571650" lon="-3.259889"><ele>707</ele><time>2019-10-02T13:07:26Z</time><name>PT9480</name></trkpt>
<trkpt lat="54.571639" lon="-3.259891"><ele>707</ele><time>2019-10-02T13:07:27Z</time><name>PT9481</name></trkpt>
<trkpt lat="54.571630" lon="-3.259893"><ele>707</ele><time>2019-10-02T13:07:28Z</time><name>PT9482</name></trkpt>
<trkpt lat="54.571623" lon="-3.259902"><ele>708</ele><time>2019-10-02T13:07:29Z</time><name>PT9483</name></trkpt>
<trkpt lat="54.571614" lon="-3.259908"><ele>707</ele><time>2019-10-02T13:07:30Z</time><name>PT9484</name></trkpt>
<trkpt lat="54.571603" lon="-3.259910"><ele>708</ele><time>2019-10-02T13:07:31Z</time><name>PT9485</name></trkpt>
<trkpt lat="54.571591" lon="-3.259916"><ele>708</ele><time>2019-10-02T13:07:32Z</time><name>PT9486</name></trkpt>
<trkpt lat="54.571580" lon="-3.259924"><ele>707</ele><time>2019-10-02T13:07:33Z</time><name>PT9487</name></trkpt>
<trkpt lat="54.571569" lon="-3.259930"><ele>707</ele><time>2019-10-02T13:07:34Z</time><name>PT9488</name></trkpt>
<trkpt lat="54.571559" lon="-3.259933"><ele>707</ele><time>2019-10-02T13:07:35Z</time><name>PT9489</name></trkpt>
<trkpt lat="54.571547" lon="-3.259934"><ele>707</ele><time>2019-10-02T13:07:36Z</time><name>PT9490</name></trkpt>
<trkpt lat="54.571535" lon="-3.259934"><ele>708</ele><time>2019-10-02T13:07:37Z</time><name>PT9491</name></trkpt>
<trkpt lat="54.571524" lon="-3.259936"><ele>708</ele><time>2019-10-02T13:07:38Z</time><name>PT9492</name></trkpt>
<trkpt lat="54.571511" lon="-3.259936"><ele>708</ele><time>2019-10-02T13:07:39Z</time><name>PT9493</name></trkpt>
<trkpt lat="54.571504" lon="-3.259939"><ele>707</ele><time>2019-10-02T13:07:40Z</time><name>PT9494</name></trkpt>
<trkpt lat="54.571494" lon="-3.259941"><ele>707</ele><time>2019-10-02T13:07:41Z</time><name>PT9495</name></trkpt>
<trkpt lat="54.571484" lon="-3.259950"><ele>707</ele><time>2019-10-02T13:07:42Z</time><name>PT9496</name></trkpt>
<trkpt lat="54.571474" lon="-3.259960"><ele>708</ele><time>2019-10-02T13:07:43Z</time><name>PT9497</name></trkpt>
<trkpt lat="54.571465" lon="-3.259959"><ele>708</ele><time>2019-10-02T13:07:44Z</time><name>PT9498</name></trkpt>
<trkpt lat="54.571455" lon="-3.259960"><ele>708</ele><time>2019-10-02T13:07:45Z</time><name>PT9499</name></trkpt>
<trkpt lat="54.571446" lon="-3.259962"><ele>708</ele><time>2019-10-02T13:07:46Z</time><name>PT9500</name></trkpt>
<trkpt lat="54.571438" lon="-3.259959"><ele>708</ele><time>2019-10-02T13:07:47Z</time><name>PT9501</name></trkpt>
<trkpt lat="54.571428" lon="-3.259953"><ele>709</ele><time>2019-10-02T13:07:48Z</time><name>PT9502</name></trkpt>
<trkpt lat="54.571417" lon="-3.259953"><ele>708</ele><time>2019-10-02T13:07:49Z</time><name>PT9503</name></trkpt>
<trkpt lat="54.571406" lon="-3.259952"><ele>709</ele><time>2019-10-02T13:07:49Z</time><name>PT9504</name></trkpt>
<trkpt lat="54.571394" lon="-3.259956"><ele>708</ele><time>2019-10-02T13:07:51Z</time><name>PT9505</name></trkpt>
<trkpt lat="54.571382" lon="-3.259960"><ele>708</ele><time>2019-10-02T13:07:51Z</time><name>PT9506</name></trkpt>
<trkpt lat="54.571373" lon="-3.259961"><ele>708</ele><time>2019-10-02T13:07:53Z</time><name>PT9507</name></trkpt>
<trkpt lat="54.571362" lon="-3.259957"><ele>707</ele><time>2019-10-02T13:07:54Z</time><name>PT9508</name></trkpt>
<trkpt lat="54.571352" lon="-3.259956"><ele>708</ele><time>2019-10-02T13:07:55Z</time><name>PT9509</name></trkpt>
<trkpt lat="54.571343" lon="-3.259956"><ele>708</ele><time>2019-10-02T13:07:56Z</time><name>PT9510</name></trkpt>
<trkpt lat="54.571335" lon="-3.259955"><ele>708</ele><time>2019-10-02T13:07:57Z</time><name>PT9511</name></trkpt>
<trkpt lat="54.571327" lon="-3.259954"><ele>707</ele><time>2019-10-02T13:07:57Z</time><name>PT9512</name></trkpt>
<trkpt lat="54.571317" lon="-3.259954"><ele>708</ele><time>2019-10-02T13:07:59Z</time><name>PT9513</name></trkpt>
<trkpt lat="54.571306" lon="-3.259960"><ele>708</ele><time>2019-10-02T13:07:59Z</time><name>PT9514</name></trkpt>
<trkpt lat="54.571296" lon="-3.259962"><ele>708</ele><time>2019-10-02T13:08:01Z</time><name>PT9515</name></trkpt>
<trkpt lat="54.571287" lon="-3.259967"><ele>707</ele><time>2019-10-02T13:08:01Z</time><name>PT9516</name></trkpt>
<trkpt lat="54.571278" lon="-3.259968"><ele>708</ele><time>2019-10-02T13:08:03Z</time><name>PT9517</name></trkpt>
<trkpt lat="54.571271" lon="-3.259972"><ele>707</ele><time>2019-10-02T13:08:03Z</time><name>PT9518</name></trkpt>
<trkpt lat="54.571258" lon="-3.259974"><ele>707</ele><time>2019-10-02T13:08:05Z</time><name>PT9519</name></trkpt>
<trkpt lat="54.571245" lon="-3.259975"><ele>707</ele><time>2019-10-02T13:08:05Z</time><name>PT9520</name></trkpt>
<trkpt lat="54.571234" lon="-3.259982"><ele>707</ele><time>2019-10-02T13:08:07Z</time><name>PT9521</name></trkpt>
<trkpt lat="54.571224" lon="-3.259979"><ele>707</ele><time>2019-10-02T13:08:08Z</time><name>PT9522</name></trkpt>
<trkpt lat="54.571214" lon="-3.259980"><ele>707</ele><time>2019-10-02T13:08:09Z</time><name>PT9523</name></trkpt>
<trkpt lat="54.571202" lon="-3.259982"><ele>707</ele><time>2019-10-02T13:08:10Z</time><name>PT9524</name></trkpt>
<trkpt lat="54.571194" lon="-3.259990"><ele>707</ele><time>2019-10-02T13:08:11Z</time><name>PT9525</name></trkpt>
<trkpt lat="54.571185" lon="-3.259991"><ele>707</ele><time>2019-10-02T13:08:11Z</time><name>PT9526</name></trkpt>
<trkpt lat="54.571179" lon="-3.259995"><ele>707</ele><time>2019-10-02T13:08:13Z</time><name>PT9527</name></trkpt>
<trkpt lat="54.571170" lon="-3.259996"><ele>707</ele><time>2019-10-02T13:08:14Z</time><name>PT9528</name></trkpt>
<trkpt lat="54.571163" lon="-3.259998"><ele>707</ele><time>2019-10-02T13:08:15Z</time><name>PT9529</name></trkpt>
<trkpt lat="54.571155" lon="-3.260002"><ele>707</ele><time>2019-10-02T13:08:16Z</time><name>PT9530</name></trkpt>
<trkpt lat="54.571145" lon="-3.260013"><ele>707</ele><time>2019-10-02T13:08:17Z</time><name>PT9531</name></trkpt>
<trkpt lat="54.571137" lon="-3.260016"><ele>707</ele><time>2019-10-02T13:08:17Z</time><name>PT9532</name></trkpt>
<trkpt lat="54.571124" lon="-3.260029"><ele>707</ele><time>2019-10-02T13:08:19Z</time><name>PT9533</name></trkpt>
<trkpt lat="54.571114" lon="-3.260030"><ele>707</ele><time>2019-10-02T13:08:19Z</time><name>PT9534</name></trkpt>
<trkpt lat="54.571105" lon="-3.260034"><ele>707</ele><time>2019-10-02T13:08:21Z</time><name>PT9535</name></trkpt>
<trkpt lat="54.571097" lon="-3.260036"><ele>707</ele><time>2019-10-02T13:08:22Z</time><name>PT9536</name></trkpt>
<trkpt lat="54.571086" lon="-3.260043"><ele>707</ele><time>2019-10-02T13:08:23Z</time><name>PT9537</name></trkpt>
<trkpt lat="54.571075" lon="-3.260040"><ele>707</ele><time>2019-10-02T13:08:24Z</time><name>PT9538</name></trkpt>
<trkpt lat="54.571065" lon="-3.260041"><ele>707</ele><time>2019-10-02T13:08:25Z</time><name>PT9539</name></trkpt>
<trkpt lat="54.571052" lon="-3.260039"><ele>708</ele><time>2019-10-02T13:08:26Z</time><name>PT9540</name></trkpt>
<trkpt lat="54.571042" lon="-3.260035"><ele>708</ele><time>2019-10-02T13:08:27Z</time><name>PT9541</name></trkpt>
<trkpt lat="54.571033" lon="-3.260031"><ele>709</ele><time>2019-10-02T13:08:28Z</time><name>PT9542</name></trkpt>
<trkpt lat="54.571022" lon="-3.260034"><ele>709</ele><time>2019-10-02T13:08:29Z</time><name>PT9543</name></trkpt>
<trkpt lat="54.571012" lon="-3.260036"><ele>709</ele><time>2019-10-02T13:08:29Z</time><name>PT9544</name></trkpt>
<trkpt lat="54.571000" lon="-3.260038"><ele>709</ele><time>2019-10-02T13:08:31Z</time><name>PT9545</name></trkpt>
<trkpt lat="54.570990" lon="-3.260040"><ele>709</ele><time>2019-10-02T13:08:32Z</time><name>PT9546</name></trkpt>
<trkpt lat="54.570980" lon="-3.260044"><ele>710</ele><time>2019-10-02T13:08:33Z</time><name>PT9547</name></trkpt>
<trkpt lat="54.570970" lon="-3.260044"><ele>710</ele><time>2019-10-02T13:08:34Z</time><name>PT9548</name></trkpt>
<trkpt lat="54.570959" lon="-3.260046"><ele>710</ele><time>2019-10-02T13:08:35Z</time><name>PT9549</name></trkpt>
<trkpt lat="54.570949" lon="-3.260048"><ele>711</ele><time>2019-10-02T13:08:36Z</time><name>PT9550</name></trkpt>
<trkpt lat="54.570941" lon="-3.260053"><ele>711</ele><time>2019-10-02T13:08:37Z</time><name>PT9551</name></trkpt>
<trkpt lat="54.570930" lon="-3.260070"><ele>710</ele><time>2019-10-02T13:08:37Z</time><name>PT9552</name></trkpt>
<trkpt lat="54.570921" lon="-3.260076"><ele>710</ele><time>2019-10-02T13:08:39Z</time><name>PT9553</name></trkpt>
<trkpt lat="54.570912" lon="-3.260080"><ele>710</ele><time>2019-10-02T13:08:40Z</time><name>PT9554</name></trkpt>
<trkpt lat="54.570905" lon="-3.260078"><ele>710</ele><time>2019-10-02T13:08:41Z</time><name>PT9555</name></trkpt>
<trkpt lat="54.570899" lon="-3.260074"><ele>710</ele><time>2019-10-02T13:08:41Z</time><name>PT9556</name></trkpt>
<trkpt lat="54.570890" lon="-3.260081"><ele>710</ele><time>2019-10-02T13:08:43Z</time><name>PT9557</name></trkpt>
<trkpt lat="54.570879" lon="-3.260082"><ele>710</ele><time>2019-10-02T13:08:44Z</time><name>PT9558</name></trkpt>
<trkpt lat="54.570871" lon="-3.260082"><ele>710</ele><time>2019-10-02T13:08:45Z</time><name>PT9559</name></trkpt>
<trkpt lat="54.570858" lon="-3.260074"><ele>711</ele><time>2019-10-02T13:08:46Z</time><name>PT9560</name></trkpt>
<trkpt lat="54.570844" lon="-3.260080"><ele>712</ele><time>2019-10-02T13:08:47Z</time><name>PT9561</name></trkpt>
<trkpt lat="54.570830" lon="-3.260080"><ele>714</ele><time>2019-10-02T13:08:48Z</time><name>PT9562</name></trkpt>
<trkpt lat="54.570820" lon="-3.260080"><ele>715</ele><time>2019-10-02T13:08:49Z</time><name>PT9563</name></trkpt>
<trkpt lat="54.570807" lon="-3.260091"><ele>716</ele><time>2019-10-02T13:08:50Z</time><name>PT9564</name></trkpt>
<trkpt lat="54.570796" lon="-3.260100"><ele>717</ele><time>2019-10-02T13:08:51Z</time><name>PT9565</name></trkpt>
<trkpt lat="54.570786" lon="-3.260102"><ele>718</ele><time>2019-10-02T13:08:51Z</time><name>PT9566</name></trkpt>
<trkpt lat="54.570777" lon="-3.260108"><ele>718</ele><time>2019-10-02T13:08:53Z</time><name>PT9567</name></trkpt>
<trkpt lat="54.570768" lon="-3.260113"><ele>719</ele><time>2019-10-02T13:08:53Z</time><name>PT9568</name></trkpt>
<trkpt lat="54.570762" lon="-3.260121"><ele>719</ele><time>2019-10-02T13:08:55Z</time><name>PT9569</name></trkpt>
<trkpt lat="54.570756" lon="-3.260130"><ele>719</ele><time>2019-10-02T13:08:56Z</time><name>PT9570</name></trkpt>
<trkpt lat="54.570751" lon="-3.260137"><ele>719</ele><time>2019-10-02T13:08:57Z</time><name>PT9571</name></trkpt>
<trkpt lat="54.570744" lon="-3.260145"><ele>719</ele><time>2019-10-02T13:08:58Z</time><name>PT9572</name></trkpt>
<trkpt lat="54.570738" lon="-3.260157"><ele>719</ele><time>2019-10-02T13:08:59Z</time><name>PT9573</name></trkpt>
<trkpt lat="54.570732" lon="-3.260168"><ele>720</ele><time>2019-10-02T13:08:59Z</time><name>PT9574</name></trkpt>
<trkpt lat="54.570725" lon="-3.260176"><ele>720</ele><time>2019-10-02T13:09:01Z</time><name>PT9575</name></trkpt>
<trkpt lat="54.570719" lon="-3.260184"><ele>720</ele><time>2019-10-02T13:09:01Z</time><name>PT9576</name></trkpt>
<trkpt lat="54.570712" lon="-3.260189"><ele>721</ele><time>2019-10-02T13:09:03Z</time><name>PT9577</name></trkpt>
<trkpt lat="54.570705" lon="-3.260199"><ele>721</ele><time>2019-10-02T13:09:04Z</time><name>PT9578</name></trkpt>
<trkpt lat="54.570698" lon="-3.260207"><ele>721</ele><time>2019-10-02T13:09:05Z</time><name>PT9579</name></trkpt>
<trkpt lat="54.570690" lon="-3.260210"><ele>721</ele><time>2019-10-02T13:09:06Z</time><name>PT9580</name></trkpt>
<trkpt lat="54.570682" lon="-3.260213"><ele>722</ele><time>2019-10-02T13:09:07Z</time><name>PT9581</name></trkpt>
<trkpt lat="54.570674" lon="-3.260214"><ele>722</ele><time>2019-10-02T13:09:07Z</time><name>PT9582</name></trkpt>
<trkpt lat="54.570666" lon="-3.260215"><ele>722</ele><time>2019-10-02T13:09:09Z</time><name>PT9583</name></trkpt>
<trkpt lat="54.570658" lon="-3.260215"><ele>722</ele><time>2019-10-02T13:09:09Z</time><name>PT9584</name></trkpt>
<trkpt lat="54.570651" lon="-3.260216"><ele>723</ele><time>2019-10-02T13:09:11Z</time><name>PT9585</name></trkpt>
<trkpt lat="54.570643" lon="-3.260217"><ele>723</ele><time>2019-10-02T13:09:12Z</time><name>PT9586</name></trkpt>
<trkpt lat="54.570634" lon="-3.260216"><ele>723</ele><time>2019-10-02T13:09:13Z</time><name>PT9587</name></trkpt>
<trkpt lat="54.570626" lon="-3.260214"><ele>723</ele><time>2019-10-02T13:09:14Z</time><name>PT9588</name></trkpt>
<trkpt lat="54.570616" lon="-3.260214"><ele>723</ele><time>2019-10-02T13:09:15Z</time><name>PT9589</name></trkpt>
<trkpt lat="54.570606" lon="-3.260216"><ele>724</ele><time>2019-10-02T13:09:15Z</time><name>PT9590</name></trkpt>
<trkpt lat="54.570597" lon="-3.260218"><ele>724</ele><time>2019-10-02T13:09:17Z</time><name>PT9591</name></trkpt>
<trkpt lat="54.570588" lon="-3.260216"><ele>724</ele><time>2019-10-02T13:09:18Z</time><name>PT9592</name></trkpt>
<trkpt lat="54.570579" lon="-3.260216"><ele>724</ele><time>2019-10-02T13:09:19Z</time><name>PT9593</name></trkpt>
<trkpt lat="54.570569" lon="-3.260214"><ele>724</ele><time>2019-10-02T13:09:20Z</time><name>PT9594</name></trkpt>
<trkpt lat="54.570561" lon="-3.260216"><ele>724</ele><time>2019-10-02T13:09:21Z</time><name>PT9595</name></trkpt>
<trkpt lat="54.570552" lon="-3.260220"><ele>724</ele><time>2019-10-02T13:09:22Z</time><name>PT9596</name></trkpt>
<trkpt lat="54.570542" lon="-3.260225"><ele>725</ele><time>2019-10-02T13:09:23Z</time><name>PT9597</name></trkpt>
<trkpt lat="54.570532" lon="-3.260229"><ele>725</ele><time>2019-10-02T13:09:23Z</time><name>PT9598</name></trkpt>
<trkpt lat="54.570522" lon="-3.260233"><ele>725</ele><time>2019-10-02T13:09:25Z</time><name>PT9599</name></trkpt>
<trkpt lat="54.570514" lon="-3.260242"><ele>725</ele><time>2019-10-02T13:09:25Z</time><name>PT9600</name></trkpt>
<trkpt lat="54.570507" lon="-3.260255"><ele>725</ele><time>2019-10-02T13:09:27Z</time><name>PT9601</name></trkpt>
<trkpt lat="54.570501" lon="-3.260267"><ele>725</ele><time>2019-10-02T13:09:27Z</time><name>PT9602</name></trkpt>
<trkpt lat="54.570494" lon="-3.260275"><ele>726</ele><time>2019-10-02T13:09:29Z</time><name>PT9603</name></trkpt>
<trkpt lat="54.570486" lon="-3.260283"><ele>726</ele><time>2019-10-02T13:09:30Z</time><name>PT9604</name></trkpt>
<trkpt lat="54.570479" lon="-3.260295"><ele>727</ele><time>2019-10-02T13:09:31Z</time><name>PT9605</name></trkpt>
<trkpt lat="54.570473" lon="-3.260304"><ele>727</ele><time>2019-10-02T13:09:32Z</time><name>PT9606</name></trkpt>
<trkpt lat="54.570465" lon="-3.260313"><ele>726</ele><time>2019-10-02T13:09:33Z</time><name>PT9607</name></trkpt>
<trkpt lat="54.570455" lon="-3.260321"><ele>726</ele><time>2019-10-02T13:09:33Z</time><name>PT9608</name></trkpt>
<trkpt lat="54.570447" lon="-3.260328"><ele>726</ele><time>2019-10-02T13:09:35Z</time><name>PT9609</name></trkpt>
<trkpt lat="54.570441" lon="-3.260333"><ele>727</ele><time>2019-10-02T13:09:35Z</time><name>PT9610</name></trkpt>
<trkpt lat="54.570432" lon="-3.260341"><ele>727</ele><time>2019-10-02T13:09:37Z</time><name>PT9611</name></trkpt>
<trkpt lat="54.570427" lon="-3.260342"><ele>727</ele><time>2019-10-02T13:09:37Z</time><name>PT9612</name></trkpt>
<trkpt lat="54.570415" lon="-3.260345"><ele>728</ele><time>2019-10-02T13:09:39Z</time><name>PT9613</name></trkpt>
<trkpt lat="54.570403" lon="-3.260350"><ele>727</ele><time>2019-10-02T13:09:39Z</time><name>PT9614</name></trkpt>
<trkpt lat="54.570389" lon="-3.260358"><ele>727</ele><time>2019-10-02T13:09:41Z</time><name>PT9615</name></trkpt>
<trkpt lat="54.570380" lon="-3.260366"><ele>726</ele><time>2019-10-02T13:09:41Z</time><name>PT9616</name></trkpt>
<trkpt lat="54.570369" lon="-3.260372"><ele>727</ele><time>2019-10-02T13:09:43Z</time><name>PT9617</name></trkpt>
<trkpt lat="54.570359" lon="-3.260377"><ele>727</ele><time>2019-10-02T13:09:44Z</time><name>PT9618</name></trkpt>
<trkpt lat="54.570348" lon="-3.260383"><ele>727</ele><time>2019-10-02T13:09:45Z</time><name>PT9619</name></trkpt>
<trkpt lat="54.570333" lon="-3.260381"><ele>727</ele><time>2019-10-02T13:09:45Z</time><name>PT9620</name></trkpt>
<trkpt lat="54.570325" lon="-3.260381"><ele>727</ele><time>2019-10-02T13:09:47Z</time><name>PT9621</name></trkpt>
<trkpt lat="54.570311" lon="-3.260386"><ele>727</ele><time>2019-10-02T13:09:48Z</time><name>PT9622</name></trkpt>
<trkpt lat="54.570300" lon="-3.260388"><ele>727</ele><time>2019-10-02T13:09:49Z</time><name>PT9623</name></trkpt>
<trkpt lat="54.570290" lon="-3.260389"><ele>727</ele><time>2019-10-02T13:09:49Z</time><name>PT9624</name></trkpt>
<trkpt lat="54.570278" lon="-3.260392"><ele>727</ele><time>2019-10-02T13:09:51Z</time><name>PT9625</name></trkpt>
<trkpt lat="54.570266" lon="-3.260392"><ele>727</ele><time>2019-10-02T13:09:52Z</time><name>PT9626</name></trkpt>
<trkpt lat="54.570257" lon="-3.260393"><ele>727</ele><time>2019-10-02T13:09:53Z</time><name>PT9627</name></trkpt>
<trkpt lat="54.570245" lon="-3.260395"><ele>727</ele><time>2019-10-02T13:09:54Z</time><name>PT9628</name></trkpt>
<trkpt lat="54.570235" lon="-3.260399"><ele>727</ele><time>2019-10-02T13:09:55Z</time><name>PT9629</name></trkpt>
<trkpt lat="54.570223" lon="-3.260401"><ele>726</ele><time>2019-10-02T13:09:56Z</time><name>PT9630</name></trkpt>
<trkpt lat="54.570212" lon="-3.260400"><ele>726</ele><time>2019-10-02T13:09:57Z</time><name>PT9631</name></trkpt>
<trkpt lat="54.570202" lon="-3.260398"><ele>726</ele><time>2019-10-02T13:09:58Z</time><name>PT9632</name></trkpt>
<trkpt lat="54.570193" lon="-3.260393"><ele>726</ele><time>2019-10-02T13:09:59Z</time><name>PT9633</name></trkpt>
<trkpt lat="54.570181" lon="-3.260389"><ele>726</ele><time>2019-10-02T13:10:00Z</time><name>PT9634</name></trkpt>
<trkpt lat="54.570174" lon="-3.260379"><ele>725</ele><time>2019-10-02T13:10:01Z</time><name>PT9635</name></trkpt>
<trkpt lat="54.570166" lon="-3.260359"><ele>725</ele><time>2019-10-02T13:10:02Z</time><name>PT9636</name></trkpt>
<trkpt lat="54.570160" lon="-3.260343"><ele>725</ele><time>2019-10-02T13:10:03Z</time><name>PT9637</name></trkpt>
<trkpt lat="54.570157" lon="-3.260328"><ele>725</ele><time>2019-10-02T13:10:03Z</time><name>PT9638</name></trkpt>
<trkpt lat="54.570157" lon="-3.260311"><ele>726</ele><time>2019-10-02T13:10:05Z</time><name>PT9639</name></trkpt>
<trkpt lat="54.570154" lon="-3.260294"><ele>725</ele><time>2019-10-02T13:10:06Z</time><name>PT9640</name></trkpt>
<trkpt lat="54.570153" lon="-3.260278"><ele>726</ele><time>2019-10-02T13:10:07Z</time><name>PT9641</name></trkpt>
<trkpt lat="54.570156" lon="-3.260270"><ele>726</ele><time>2019-10-02T13:10:08Z</time><name>PT9642</name></trkpt>
<trkpt lat="54.570158" lon="-3.260250"><ele>726</ele><time>2019-10-02T13:10:09Z</time><name>PT9643</name></trkpt>
<trkpt lat="54.570158" lon="-3.260238"><ele>726</ele><time>2019-10-02T13:10:10Z</time><name>PT9644</name></trkpt>
<trkpt lat="54.570158" lon="-3.260230"><ele>726</ele><time>2019-10-02T13:10:11Z</time><name>PT9645</name></trkpt>
<trkpt lat="54.570157" lon="-3.260220"><ele>725</ele><time>2019-10-02T13:10:12Z</time><name>PT9646</name></trkpt>
<trkpt lat="54.570157" lon="-3.260212"><ele>726</ele><time>2019-10-02T13:10:13Z</time><name>PT9647</name></trkpt>
<trkpt lat="54.570155" lon="-3.260199"><ele>726</ele><time>2019-10-02T13:10:14Z</time><name>PT9648</name></trkpt>
<trkpt lat="54.570154" lon="-3.260186"><ele>726</ele><time>2019-10-02T13:10:15Z</time><name>PT9649</name></trkpt>
<trkpt lat="54.570157" lon="-3.260171"><ele>726</ele><time>2019-10-02T13:10:16Z</time><name>PT9650</name></trkpt>
<trkpt lat="54.570158" lon="-3.260158"><ele>726</ele><time>2019-10-02T13:10:17Z</time><name>PT9651</name></trkpt>
<trkpt lat="54.570155" lon="-3.260149"><ele>726</ele><time>2019-10-02T13:10:18Z</time><name>PT9652</name></trkpt>
<trkpt lat="54.570152" lon="-3.260136"><ele>726</ele><time>2019-10-02T13:10:19Z</time><name>PT9653</name></trkpt>
<trkpt lat="54.570152" lon="-3.260122"><ele>726</ele><time>2019-10-02T13:10:20Z</time><name>PT9654</name></trkpt>
<trkpt lat="54.570153" lon="-3.260107"><ele>726</ele><time>2019-10-02T13:10:21Z</time><name>PT9655</name></trkpt>
<trkpt lat="54.570155" lon="-3.260094"><ele>726</ele><time>2019-10-02T13:10:22Z</time><name>PT9656</name></trkpt>
<trkpt lat="54.570156" lon="-3.260078"><ele>726</ele><time>2019-10-02T13:10:23Z</time><name>PT9657</name></trkpt>
<trkpt lat="54.570156" lon="-3.260065"><ele>727</ele><time>2019-10-02T13:10:24Z</time><name>PT9658</name></trkpt>
<trkpt lat="54.570158" lon="-3.260053"><ele>727</ele><time>2019-10-02T13:10:25Z</time><name>PT9659</name></trkpt>
<trkpt lat="54.570158" lon="-3.260037"><ele>727</ele><time>2019-10-02T13:10:26Z</time><name>PT9660</name></trkpt>
<trkpt lat="54.570155" lon="-3.260024"><ele>727</ele><time>2019-10-02T13:10:27Z</time><name>PT9661</name></trkpt>
<trkpt lat="54.570150" lon="-3.260016"><ele>726</ele><time>2019-10-02T13:10:27Z</time><name>PT9662</name></trkpt>
<trkpt lat="54.570149" lon="-3.259999"><ele>726</ele><time>2019-10-02T13:10:29Z</time><name>PT9663</name></trkpt>
<trkpt lat="54.570147" lon="-3.259983"><ele>726</ele><time>2019-10-02T13:10:29Z</time><name>PT9664</name></trkpt>
<trkpt lat="54.570144" lon="-3.259967"><ele>726</ele><time>2019-10-02T13:10:31Z</time><name>PT9665</name></trkpt>
<trkpt lat="54.570139" lon="-3.259951"><ele>726</ele><time>2019-10-02T13:10:32Z</time><name>PT9666</name></trkpt>
<trkpt lat="54.570137" lon="-3.259937"><ele>726</ele><time>2019-10-02T13:10:33Z</time><name>PT9667</name></trkpt>
<trkpt lat="54.570134" lon="-3.259923"><ele>726</ele><time>2019-10-02T13:10:33Z</time><name>PT9668</name></trkpt>
<trkpt lat="54.570132" lon="-3.259908"><ele>726</ele><time>2019-10-02T13:10:35Z</time><name>PT9669</name></trkpt>
<trkpt lat="54.570129" lon="-3.259896"><ele>726</ele><time>2019-10-02T13:10:35Z</time><name>PT9670</name></trkpt>
<trkpt lat="54.570126" lon="-3.259881"><ele>726</ele><time>2019-10-02T13:10:37Z</time><name>PT9671</name></trkpt>
<trkpt lat="54.570123" lon="-3.259865"><ele>726</ele><time>2019-10-02T13:10:37Z</time><name>PT9672</name></trkpt>
<trkpt lat="54.570121" lon="-3.259851"><ele>726</ele><time>2019-10-02T13:10:39Z</time><name>PT9673</name></trkpt>
<trkpt lat="54.570116" lon="-3.259836"><ele>726</ele><time>2019-10-02T13:10:39Z</time><name>PT9674</name></trkpt>
<trkpt lat="54.570114" lon="-3.259821"><ele>726</ele><time>2019-10-02T13:10:41Z</time><name>PT9675</name></trkpt>
<trkpt lat="54.570111" lon="-3.259804"><ele>726</ele><time>2019-10-02T13:10:41Z</time><name>PT9676</name></trkpt>
<trkpt lat="54.570109" lon="-3.259790"><ele>726</ele><time>2019-10-02T13:10:43Z</time><name>PT9677</name></trkpt>
<trkpt lat="54.570105" lon="-3.259776"><ele>726</ele><time>2019-10-02T13:10:43Z</time><name>PT9678</name></trkpt>
<trkpt lat="54.570098" lon="-3.259767"><ele>726</ele><time>2019-10-02T13:10:45Z</time><name>PT9679</name></trkpt>
<trkpt lat="54.570095" lon="-3.259752"><ele>726</ele><time>2019-10-02T13:10:45Z</time><name>PT9680</name></trkpt>
<trkpt lat="54.570093" lon="-3.259739"><ele>726</ele><time>2019-10-02T13:10:47Z</time><name>PT9681</name></trkpt>
<trkpt lat="54.570090" lon="-3.259728"><ele>726</ele><time>2019-10-02T13:10:47Z</time><name>PT9682</name></trkpt>
<trkpt lat="54.570090" lon="-3.259709"><ele>727</ele><time>2019-10-02T13:10:49Z</time><name>PT9683</name></trkpt>
<trkpt lat="54.570090" lon="-3.259691"><ele>727</ele><time>2019-10-02T13:10:50Z</time><name>PT9684</name></trkpt>
<trkpt lat="54.570089" lon="-3.259677"><ele>727</ele><time>2019-10-02T13:10:51Z</time><name>PT9685</name></trkpt>
<trkpt lat="54.570088" lon="-3.259664"><ele>727</ele><time>2019-10-02T13:10:51Z</time><name>PT9686</name></trkpt>
<trkpt lat="54.570087" lon="-3.259653"><ele>727</ele><time>2019-10-02T13:10:53Z</time><name>PT9687</name></trkpt>
<trkpt lat="54.570087" lon="-3.259639"><ele>727</ele><time>2019-10-02T13:10:53Z</time><name>PT9688</name></trkpt>
<trkpt lat="54.570088" lon="-3.259629"><ele>727</ele><time>2019-10-02T13:10:55Z</time><name>PT9689</name></trkpt>
<trkpt lat="54.570089" lon="-3.259616"><ele>727</ele><time>2019-10-02T13:10:56Z</time><name>PT9690</name></trkpt>
<trkpt lat="54.570091" lon="-3.259600"><ele>727</ele><time>2019-10-02T13:10:57Z</time><name>PT9691</name></trkpt>
<trkpt lat="54.570094" lon="-3.259584"><ele>728</ele><time>2019-10-02T13:10:58Z</time><name>PT9692</name></trkpt>
<trkpt lat="54.570096" lon="-3.259567"><ele>728</ele><time>2019-10-02T13:10:59Z</time><name>PT9693</name></trkpt>
<trkpt lat="54.570097" lon="-3.259549"><ele>728</ele><time>2019-10-02T13:11:00Z</time><name>PT9694</name></trkpt>
<trkpt lat="54.570096" lon="-3.259536"><ele>728</ele><time>2019-10-02T13:11:01Z</time><name>PT9695</name></trkpt>
<trkpt lat="54.570094" lon="-3.259521"><ele>728</ele><time>2019-10-02T13:11:02Z</time><name>PT9696</name></trkpt>
<trkpt lat="54.570093" lon="-3.259509"><ele>728</ele><time>2019-10-02T13:11:03Z</time><name>PT9697</name></trkpt>
<trkpt lat="54.570090" lon="-3.259492"><ele>728</ele><time>2019-10-02T13:11:03Z</time><name>PT9698</name></trkpt>
<trkpt lat="54.570088" lon="-3.259475"><ele>728</ele><time>2019-10-02T13:11:05Z</time><name>PT9699</name></trkpt>
<trkpt lat="54.570087" lon="-3.259458"><ele>728</ele><time>2019-10-02T13:11:05Z</time><name>PT9700</name></trkpt>
<trkpt lat="54.570085" lon="-3.259442"><ele>729</ele><time>2019-10-02T13:11:07Z</time><name>PT9701</name></trkpt>
<trkpt lat="54.570081" lon="-3.259426"><ele>728</ele><time>2019-10-02T13:11:08Z</time><name>PT9702</name></trkpt>
<trkpt lat="54.570077" lon="-3.259410"><ele>728</ele><time>2019-10-02T13:11:09Z</time><name>PT9703</name></trkpt>
<trkpt lat="54.570072" lon="-3.259395"><ele>728</ele><time>2019-10-02T13:11:10Z</time><name>PT9704</name></trkpt>
<trkpt lat="54.570069" lon="-3.259378"><ele>728</ele><time>2019-10-02T13:11:11Z</time><name>PT9705</name></trkpt>
<trkpt lat="54.570067" lon="-3.259367"><ele>728</ele><time>2019-10-02T13:11:12Z</time><name>PT9706</name></trkpt>
<trkpt lat="54.570067" lon="-3.259351"><ele>729</ele><time>2019-10-02T13:11:13Z</time><name>PT9707</name></trkpt>
<trkpt lat="54.570067" lon="-3.259335"><ele>729</ele><time>2019-10-02T13:11:14Z</time><name>PT9708</name></trkpt>
<trkpt lat="54.570064" lon="-3.259316"><ele>729</ele><time>2019-10-02T13:11:15Z</time><name>PT9709</name></trkpt>
<trkpt lat="54.570063" lon="-3.259301"><ele>729</ele><time>2019-10-02T13:11:16Z</time><name>PT9710</name></trkpt>
<trkpt lat="54.570064" lon="-3.259286"><ele>729</ele><time>2019-10-02T13:11:17Z</time><name>PT9711</name></trkpt>
<trkpt lat="54.570065" lon="-3.259269"><ele>729</ele><time>2019-10-02T13:11:18Z</time><name>PT9712</name></trkpt>
<trkpt lat="54.570065" lon="-3.259254"><ele>729</ele><time>2019-10-02T13:11:19Z</time><name>PT9713</name></trkpt>
<trkpt lat="54.570065" lon="-3.259244"><ele>730</ele><time>2019-10-02T13:11:20Z</time><name>PT9714</name></trkpt>
<trkpt lat="54.570067" lon="-3.259231"><ele>730</ele><time>2019-10-02T13:11:21Z</time><name>PT9715</name></trkpt>
<trkpt lat="54.570070" lon="-3.259213"><ele>729</ele><time>2019-10-02T13:11:22Z</time><name>PT9716</name></trkpt>
<trkpt lat="54.570073" lon="-3.259197"><ele>730</ele><time>2019-10-02T13:11:23Z</time><name>PT9717</name></trkpt>
<trkpt lat="54.570077" lon="-3.259181"><ele>730</ele><time>2019-10-02T13:11:24Z</time><name>PT9718</name></trkpt>
<trkpt lat="54.570079" lon="-3.259167"><ele>730</ele><time>2019-10-02T13:11:25Z</time><name>PT9719</name></trkpt>
<trkpt lat="54.570084" lon="-3.259152"><ele>731</ele><time>2019-10-02T13:11:26Z</time><name>PT9720</name></trkpt>
<trkpt lat="54.570085" lon="-3.259136"><ele>731</ele><time>2019-10-02T13:11:27Z</time><name>PT9721</name></trkpt>
<trkpt lat="54.570089" lon="-3.259118"><ele>732</ele><time>2019-10-02T13:11:28Z</time><name>PT9722</name></trkpt>
<trkpt lat="54.570091" lon="-3.259103"><ele>732</ele><time>2019-10-02T13:11:29Z</time><name>PT9723</name></trkpt>
<trkpt lat="54.570093" lon="-3.259084"><ele>733</ele><time>2019-10-02T13:11:29Z</time><name>PT9724</name></trkpt>
<trkpt lat="54.570093" lon="-3.259070"><ele>733</ele><time>2019-10-02T13:11:31Z</time><name>PT9725</name></trkpt>
<trkpt lat="54.570094" lon="-3.259058"><ele>732</ele><time>2019-10-02T13:11:31Z</time><name>PT9726</name></trkpt>
<trkpt lat="54.570094" lon="-3.259047"><ele>732</ele><time>2019-10-02T13:11:33Z</time><name>PT9727</name></trkpt>
<trkpt lat="54.570094" lon="-3.259033"><ele>732</ele><time>2019-10-02T13:11:33Z</time><name>PT9728</name></trkpt>
<trkpt lat="54.570095" lon="-3.259022"><ele>732</ele><time>2019-10-02T13:11:35Z</time><name>PT9729</name></trkpt>
<trkpt lat="54.570095" lon="-3.259004"><ele>733</ele><time>2019-10-02T13:11:35Z</time><name>PT9730</name></trkpt>
<trkpt lat="54.570096" lon="-3.258990"><ele>732</ele><time>2019-10-02T13:11:37Z</time><name>PT9731</name></trkpt>
<trkpt lat="54.570097" lon="-3.258974"><ele>733</ele><time>2019-10-02T13:11:37Z</time><name>PT9732</name></trkpt>
<trkpt lat="54.570096" lon="-3.258956"><ele>732</ele><time>2019-10-02T13:11:39Z</time><name>PT9733</name></trkpt>
<trkpt lat="54.570095" lon="-3.258945"><ele>732</ele><time>2019-10-02T13:11:39Z</time><name>PT9734</name></trkpt>
<trkpt lat="54.570096" lon="-3.258932"><ele>732</ele><time>2019-10-02T13:11:41Z</time><name>PT9735</name></trkpt>
<trkpt lat="54.570099" lon="-3.258918"><ele>732</ele><time>2019-10-02T13:11:41Z</time><name>PT9736</name></trkpt>
<trkpt lat="54.570100" lon="-3.258906"><ele>732</ele><time>2019-10-02T13:11:43Z</time><name>PT9737</name></trkpt>
<trkpt lat="54.570101" lon="-3.258894"><ele>733</ele><time>2019-10-02T13:11:43Z</time><name>PT9738</name></trkpt>
<trkpt lat="54.570102" lon="-3.258882"><ele>733</ele><time>2019-10-02T13:11:45Z</time><name>PT9739</name></trkpt>
<trkpt lat="54.570103" lon="-3.258870"><ele>733</ele><time>2019-10-02T13:11:45Z</time><name>PT9740</name></trkpt>
<trkpt lat="54.570102" lon="-3.258858"><ele>733</ele><time>2019-10-02T13:11:47Z</time><name>PT9741</name></trkpt>
<trkpt lat="54.570103" lon="-3.258844"><ele>733</ele><time>2019-10-02T13:11:47Z</time><name>PT9742</name></trkpt>
<trkpt lat="54.570105" lon="-3.258830"><ele>733</ele><time>2019-10-02T13:11:49Z</time><name>PT9743</name></trkpt>
<trkpt lat="54.570106" lon="-3.258813"><ele>733</ele><time>2019-10-02T13:11:49Z</time><name>PT9744</name></trkpt>
<trkpt lat="54.570107" lon="-3.258800"><ele>733</ele><time>2019-10-02T13:11:51Z</time><name>PT9745</name></trkpt>
<trkpt lat="54.570109" lon="-3.258785"><ele>734</ele><time>2019-10-02T13:11:51Z</time><name>PT9746</name></trkpt>
<trkpt lat="54.570110" lon="-3.258772"><ele>734</ele><time>2019-10-02T13:11:53Z</time><name>PT9747</name></trkpt>
<trkpt lat="54.570113" lon="-3.258757"><ele>734</ele><time>2019-10-02T13:11:53Z</time><name>PT9748</name></trkpt>
<trkpt lat="54.570115" lon="-3.258741"><ele>735</ele><time>2019-10-02T13:11:55Z</time><name>PT9749</name></trkpt>
<trkpt lat="54.570117" lon="-3.258728"><ele>735</ele><time>2019-10-02T13:11:56Z</time><name>PT9750</name></trkpt>
<trkpt lat="54.570117" lon="-3.258713"><ele>735</ele><time>2019-10-02T13:11:57Z</time><name>PT9751</name></trkpt>
<trkpt lat="54.570119" lon="-3.258699"><ele>735</ele><time>2019-10-02T13:11:57Z</time><name>PT9752</name></trkpt>
<trkpt lat="54.570121" lon="-3.258685"><ele>735</ele><time>2019-10-02T13:11:59Z</time><name>PT9753</name></trkpt>
<trkpt lat="54.570125" lon="-3.258669"><ele>736</ele><time>2019-10-02T13:11:59Z</time><name>PT9754</name></trkpt>
<trkpt lat="54.570129" lon="-3.258651"><ele>736</ele><time>2019-10-02T13:12:01Z</time><name>PT9755</name></trkpt>
<trkpt lat="54.570130" lon="-3.258637"><ele>736</ele><time>2019-10-02T13:12:02Z</time><name>PT9756</name></trkpt>
<trkpt lat="54.570132" lon="-3.258622"><ele>736</ele><time>2019-10-02T13:12:03Z</time><name>PT9757</name></trkpt>
<trkpt lat="54.570135" lon="-3.258607"><ele>736</ele><time>2019-10-02T13:12:04Z</time><name>PT9758</name></trkpt>
<trkpt lat="54.570135" lon="-3.258592"><ele>736</ele><time>2019-10-02T13:12:05Z</time><name>PT9759</name></trkpt>
<trkpt lat="54.570136" lon="-3.258576"><ele>736</ele><time>2019-10-02T13:12:06Z</time><name>PT9760</name></trkpt>
<trkpt lat="54.570138" lon="-3.258561"><ele>737</ele><time>2019-10-02T13:12:07Z</time><name>PT9761</name></trkpt>
<trkpt lat="54.570142" lon="-3.258550"><ele>737</ele><time>2019-10-02T13:12:08Z</time><name>PT9762</name></trkpt>
<trkpt lat="54.570143" lon="-3.258539"><ele>737</ele><time>2019-10-02T13:12:09Z</time><name>PT9763</name></trkpt>
<trkpt lat="54.570143" lon="-3.258522"><ele>737</ele><time>2019-10-02T13:12:09Z</time><name>PT9764</name></trkpt>
<trkpt lat="54.570142" lon="-3.258509"><ele>738</ele><time>2019-10-02T13:12:11Z</time><name>PT9765</name></trkpt>
<trkpt lat="54.570139" lon="-3.258499"><ele>736</ele><time>2019-10-02T13:12:12Z</time><name>PT9766</name></trkpt>
<trkpt lat="54.570138" lon="-3.258486"><ele>737</ele><time>2019-10-02T13:12:13Z</time><name>PT9767</name></trkpt>
<trkpt lat="54.570137" lon="-3.258472"><ele>737</ele><time>2019-10-02T13:12:14Z</time><name>PT9768</name></trkpt>
<trkpt lat="54.570136" lon="-3.258461"><ele>737</ele><time>2019-10-02T13:12:15Z</time><name>PT9769</name></trkpt>
<trkpt lat="54.570137" lon="-3.258447"><ele>737</ele><time>2019-10-02T13:12:16Z</time><name>PT9770</name></trkpt>
<trkpt lat="54.570140" lon="-3.258434"><ele>737</ele><time>2019-10-02T13:12:17Z</time><name>PT9771</name></trkpt>
<trkpt lat="54.570145" lon="-3.258414"><ele>737</ele><time>2019-10-02T13:12:18Z</time><name>PT9772</name></trkpt>
<trkpt lat="54.570147" lon="-3.258406"><ele>737</ele><time>2019-10-02T13:12:19Z</time><name>PT9773</name></trkpt>
<trkpt lat="54.570151" lon="-3.258392"><ele>737</ele><time>2019-10-02T13:12:20Z</time><name>PT9774</name></trkpt>
<trkpt lat="54.570155" lon="-3.258377"><ele>737</ele><time>2019-10-02T13:12:21Z</time><name>PT9775</name></trkpt>
<trkpt lat="54.570159" lon="-3.258363"><ele>737</ele><time>2019-10-02T13:12:22Z</time><name>PT9776</name></trkpt>
<trkpt lat="54.570163" lon="-3.258346"><ele>737</ele><time>2019-10-02T13:12:23Z</time><name>PT9777</name></trkpt>
<trkpt lat="54.570167" lon="-3.258332"><ele>737</ele><time>2019-10-02T13:12:24Z</time><name>PT9778</name></trkpt>
<trkpt lat="54.570172" lon="-3.258319"><ele>737</ele><time>2019-10-02T13:12:25Z</time><name>PT9779</name></trkpt>
<trkpt lat="54.570176" lon="-3.258307"><ele>737</ele><time>2019-10-02T13:12:26Z</time><name>PT9780</name></trkpt>
<trkpt lat="54.570180" lon="-3.258296"><ele>737</ele><time>2019-10-02T13:12:27Z</time><name>PT9781</name></trkpt>
<trkpt lat="54.570184" lon="-3.258283"><ele>737</ele><time>2019-10-02T13:12:28Z</time><name>PT9782</name></trkpt>
<trkpt lat="54.570189" lon="-3.258270"><ele>737</ele><time>2019-10-02T13:12:29Z</time><name>PT9783</name></trkpt>
<trkpt lat="54.570193" lon="-3.258255"><ele>738</ele><time>2019-10-02T13:12:30Z</time><name>PT9784</name></trkpt>
<trkpt lat="54.570194" lon="-3.258244"><ele>737</ele><time>2019-10-02T13:12:31Z</time><name>PT9785</name></trkpt>
<trkpt lat="54.570197" lon="-3.258227"><ele>738</ele><time>2019-10-02T13:12:32Z</time><name>PT9786</name></trkpt>
<trkpt lat="54.570200" lon="-3.258214"><ele>738</ele><time>2019-10-02T13:12:33Z</time><name>PT9787</name></trkpt>
<trkpt lat="54.570202" lon="-3.258203"><ele>738</ele><time>2019-10-02T13:12:34Z</time><name>PT9788</name></trkpt>
<trkpt lat="54.570203" lon="-3.258194"><ele>738</ele><time>2019-10-02T13:12:35Z</time><name>PT9789</name></trkpt>
<trkpt lat="54.570205" lon="-3.258183"><ele>738</ele><time>2019-10-02T13:12:36Z</time><name>PT9790</name></trkpt>
<trkpt lat="54.570205" lon="-3.258171"><ele>738</ele><time>2019-10-02T13:12:37Z</time><name>PT9791</name></trkpt>
<trkpt lat="54.570204" lon="-3.258159"><ele>738</ele><time>2019-10-02T13:12:37Z</time><name>PT9792</name></trkpt>
<trkpt lat="54.570203" lon="-3.258140"><ele>738</ele><time>2019-10-02T13:12:39Z</time><name>PT9793</name></trkpt>
<trkpt lat="54.570202" lon="-3.258124"><ele>738</ele><time>2019-10-02T13:12:40Z</time><name>PT9794</name></trkpt>
<trkpt lat="54.570201" lon="-3.258106"><ele>739</ele><time>2019-10-02T13:12:41Z</time><name>PT9795</name></trkpt>
<trkpt lat="54.570200" lon="-3.258092"><ele>739</ele><time>2019-10-02T13:12:41Z</time><name>PT9796</name></trkpt>
<trkpt lat="54.570201" lon="-3.258079"><ele>739</ele><time>2019-10-02T13:12:43Z</time><name>PT9797</name></trkpt>
<trkpt lat="54.570197" lon="-3.258066"><ele>740</ele><time>2019-10-02T13:12:43Z</time><name>PT9798</name></trkpt>
<trkpt lat="54.570196" lon="-3.258053"><ele>739</ele><time>2019-10-02T13:12:45Z</time><name>PT9799</name></trkpt>
<trkpt lat="54.570196" lon="-3.258037"><ele>739</ele><time>2019-10-02T13:12:45Z</time><name>PT9800</name></trkpt>
<trkpt lat="54.570197" lon="-3.258022"><ele>740</ele><time>2019-10-02T13:12:47Z</time><name>PT9801</name></trkpt>
<trkpt lat="54.570199" lon="-3.258005"><ele>740</ele><time>2019-10-02T13:12:47Z</time><name>PT9802</name></trkpt>
<trkpt lat="54.570200" lon="-3.257993"><ele>740</ele><time>2019-10-02T13:12:49Z</time><name>PT9803</name></trkpt>
<trkpt lat="54.570202" lon="-3.257978"><ele>741</ele><time>2019-10-02T13:12:49Z</time><name>PT9804</name></trkpt>
<trkpt lat="54.570206" lon="-3.257961"><ele>742</ele><time>2019-10-02T13:12:51Z</time><name>PT9805</name></trkpt>
<trkpt lat="54.570210" lon="-3.257952"><ele>742</ele><time>2019-10-02T13:12:51Z</time><name>PT9806</name></trkpt>
<trkpt lat="54.570211" lon="-3.257937"><ele>742</ele><time>2019-10-02T13:12:53Z</time><name>PT9807</name></trkpt>
<trkpt lat="54.570211" lon="-3.257921"><ele>742</ele><time>2019-10-02T13:12:53Z</time><name>PT9808</name></trkpt>
<trkpt lat="54.570212" lon="-3.257905"><ele>743</ele><time>2019-10-02T13:12:55Z</time><name>PT9809</name></trkpt>
<trkpt lat="54.570214" lon="-3.257892"><ele>743</ele><time>2019-10-02T13:12:55Z</time><name>PT9810</name></trkpt>
<trkpt lat="54.570215" lon="-3.257879"><ele>743</ele><time>2019-10-02T13:12:57Z</time><name>PT9811</name></trkpt>
<trkpt lat="54.570215" lon="-3.257864"><ele>743</ele><time>2019-10-02T13:12:58Z</time><name>PT9812</name></trkpt>
<trkpt lat="54.570216" lon="-3.257849"><ele>743</ele><time>2019-10-02T13:12:59Z</time><name>PT9813</name></trkpt>
<trkpt lat="54.570218" lon="-3.257834"><ele>743</ele><time>2019-10-02T13:12:59Z</time><name>PT9814</name></trkpt>
<trkpt lat="54.570218" lon="-3.257817"><ele>743</ele><time>2019-10-02T13:13:01Z</time><name>PT9815</name></trkpt>
<trkpt lat="54.570219" lon="-3.257795"><ele>744</ele><time>2019-10-02T13:13:01Z</time><name>PT9816</name></trkpt>
<trkpt lat="54.570221" lon="-3.257779"><ele>744</ele><time>2019-10-02T13:13:03Z</time><name>PT9817</name></trkpt>
<trkpt lat="54.570222" lon="-3.257768"><ele>744</ele><time>2019-10-02T13:13:03Z</time><name>PT9818</name></trkpt>
<trkpt lat="54.570225" lon="-3.257752"><ele>744</ele><time>2019-10-02T13:13:05Z</time><name>PT9819</name></trkpt>
<trkpt lat="54.570228" lon="-3.257738"><ele>744</ele><time>2019-10-02T13:13:05Z</time><name>PT9820</name></trkpt>
<trkpt lat="54.570230" lon="-3.257724"><ele>743</ele><time>2019-10-02T13:13:07Z</time><name>PT9821</name></trkpt>
<trkpt lat="54.570233" lon="-3.257707"><ele>744</ele><time>2019-10-02T13:13:07Z</time><name>PT9822</name></trkpt>
<trkpt lat="54.570235" lon="-3.257689"><ele>744</ele><time>2019-10-02T13:13:09Z</time><name>PT9823</name></trkpt>
<trkpt lat="54.570239" lon="-3.257673"><ele>744</ele><time>2019-10-02T13:13:09Z</time><name>PT9824</name></trkpt>
<trkpt lat="54.570243" lon="-3.257658"><ele>744</ele><time>2019-10-02T13:13:11Z</time><name>PT9825</name></trkpt>
<trkpt lat="54.570247" lon="-3.257650"><ele>744</ele><time>2019-10-02T13:13:11Z</time><name>PT9826</name></trkpt>
<trkpt lat="54.570252" lon="-3.257637"><ele>744</ele><time>2019-10-02T13:13:13Z</time><name>PT9827</name></trkpt>
<trkpt lat="54.570256" lon="-3.257621"><ele>745</ele><time>2019-10-02T13:13:13Z</time><name>PT9828</name></trkpt>
<trkpt lat="54.570260" lon="-3.257604"><ele>745</ele><time>2019-10-02T13:13:15Z</time><name>PT9829</name></trkpt>
<trkpt lat="54.570264" lon="-3.257591"><ele>745</ele><time>2019-10-02T13:13:15Z</time><name>PT9830</name></trkpt>
<trkpt lat="54.570270" lon="-3.257575"><ele>745</ele><time>2019-10-02T13:13:17Z</time><name>PT9831</name></trkpt>
<trkpt lat="54.570274" lon="-3.257563"><ele>745</ele><time>2019-10-02T13:13:17Z</time><name>PT9832</name></trkpt>
<trkpt lat="54.570279" lon="-3.257552"><ele>745</ele><time>2019-10-02T13:13:19Z</time><name>PT9833</name></trkpt>
<trkpt lat="54.570284" lon="-3.257541"><ele>745</ele><time>2019-10-02T13:13:19Z</time><name>PT9834</name></trkpt>
<trkpt lat="54.570291" lon="-3.257530"><ele>745</ele><time>2019-10-02T13:13:21Z</time><name>PT9835</name></trkpt>
<trkpt lat="54.570297" lon="-3.257519"><ele>746</ele><time>2019-10-02T13:13:21Z</time><name>PT9836</name></trkpt>
<trkpt lat="54.570304" lon="-3.257506"><ele>745</ele><time>2019-10-02T13:13:23Z</time><name>PT9837</name></trkpt>
<trkpt lat="54.570310" lon="-3.257492"><ele>746</ele><time>2019-10-02T13:13:23Z</time><name>PT9838</name></trkpt>
<trkpt lat="54.570314" lon="-3.257480"><ele>745</ele><time>2019-10-02T13:13:25Z</time><name>PT9839</name></trkpt>
<trkpt lat="54.570318" lon="-3.257467"><ele>746</ele><time>2019-10-02T13:13:25Z</time><name>PT9840</name></trkpt>
<trkpt lat="54.570324" lon="-3.257454"><ele>746</ele><time>2019-10-02T13:13:27Z</time><name>PT9841</name></trkpt>
<trkpt lat="54.570327" lon="-3.257432"><ele>746</ele><time>2019-10-02T13:13:27Z</time><name>PT9842</name></trkpt>
<trkpt lat="54.570331" lon="-3.257414"><ele>746</ele><time>2019-10-02T13:13:29Z</time><name>PT9843</name></trkpt>
<trkpt lat="54.570336" lon="-3.257404"><ele>746</ele><time>2019-10-02T13:13:30Z</time><name>PT9844</name></trkpt>
<trkpt lat="54.570341" lon="-3.257393"><ele>746</ele><time>2019-10-02T13:13:31Z</time><name>PT9845</name></trkpt>
<trkpt lat="54.570345" lon="-3.257383"><ele>746</ele><time>2019-10-02T13:13:32Z</time><name>PT9846</name></trkpt>
<trkpt lat="54.570350" lon="-3.257369"><ele>747</ele><time>2019-10-02T13:13:33Z</time><name>PT9847</name></trkpt>
<trkpt lat="54.570354" lon="-3.257353"><ele>747</ele><time>2019-10-02T13:13:33Z</time><name>PT9848</name></trkpt>
<trkpt lat="54.570357" lon="-3.257338"><ele>746</ele><time>2019-10-02T13:13:35Z</time><name>PT9849</name></trkpt>
<trkpt lat="54.570363" lon="-3.257323"><ele>747</ele><time>2019-10-02T13:13:35Z</time><name>PT9850</name></trkpt>
<trkpt lat="54.570367" lon="-3.257305"><ele>747</ele><time>2019-10-02T13:13:37Z</time><name>PT9851</name></trkpt>
<trkpt lat="54.570370" lon="-3.257291"><ele>747</ele><time>2019-10-02T13:13:37Z</time><name>PT9852</name></trkpt>
<trkpt lat="54.570374" lon="-3.257279"><ele>747</ele><time>2019-10-02T13:13:39Z</time><name>PT9853</name></trkpt>
<trkpt lat="54.570376" lon="-3.257265"><ele>747</ele><time>2019-10-02T13:13:40Z</time><name>PT9854</name></trkpt>
<trkpt lat="54.570381" lon="-3.257251"><ele>748</ele><time>2019-10-02T13:13:41Z</time><name>PT9855</name></trkpt>
<trkpt lat="54.570388" lon="-3.257242"><ele>748</ele><time>2019-10-02T13:13:41Z</time><name>PT9856</name></trkpt>
<trkpt lat="54.570390" lon="-3.257227"><ele>748</ele><time>2019-10-02T13:13:43Z</time><name>PT9857</name></trkpt>
<trkpt lat="54.570393" lon="-3.257212"><ele>748</ele><time>2019-10-02T13:13:43Z</time><name>PT9858</name></trkpt>
<trkpt lat="54.570396" lon="-3.257202"><ele>748</ele><time>2019-10-02T13:13:45Z</time><name>PT9859</name></trkpt>
<trkpt lat="54.570400" lon="-3.257193"><ele>749</ele><time>2019-10-02T13:13:45Z</time><name>PT9860</name></trkpt>
<trkpt lat="54.570403" lon="-3.257181"><ele>749</ele><time>2019-10-02T13:13:47Z</time><name>PT9861</name></trkpt>
<trkpt lat="54.570408" lon="-3.257168"><ele>748</ele><time>2019-10-02T13:13:47Z</time><name>PT9862</name></trkpt>
<trkpt lat="54.570412" lon="-3.257154"><ele>748</ele><time>2019-10-02T13:13:49Z</time><name>PT9863</name></trkpt>
<trkpt lat="54.570415" lon="-3.257148"><ele>748</ele><time>2019-10-02T13:13:49Z</time><name>PT9864</name></trkpt>
<trkpt lat="54.570418" lon="-3.257128"><ele>748</ele><time>2019-10-02T13:13:51Z</time><name>PT9865</name></trkpt>
<trkpt lat="54.570422" lon="-3.257111"><ele>749</ele><time>2019-10-02T13:13:51Z</time><name>PT9866</name></trkpt>
<trkpt lat="54.570427" lon="-3.257095"><ele>749</ele><time>2019-10-02T13:13:53Z</time><name>PT9867</name></trkpt>
<trkpt lat="54.570431" lon="-3.257083"><ele>749</ele><time>2019-10-02T13:13:54Z</time><name>PT9868</name></trkpt>
<trkpt lat="54.570434" lon="-3.257069"><ele>749</ele><time>2019-10-02T13:13:55Z</time><name>PT9869</name></trkpt>
<trkpt lat="54.570436" lon="-3.257053"><ele>749</ele><time>2019-10-02T13:13:56Z</time><name>PT9870</name></trkpt>
<trkpt lat="54.570438" lon="-3.257040"><ele>749</ele><time>2019-10-02T13:13:57Z</time><name>PT9871</name></trkpt>
<trkpt lat="54.570441" lon="-3.257022"><ele>750</ele><time>2019-10-02T13:13:57Z</time><name>PT9872</name></trkpt>
<trkpt lat="54.570445" lon="-3.257009"><ele>749</ele><time>2019-10-02T13:13:59Z</time><name>PT9873</name></trkpt>
<trkpt lat="54.570449" lon="-3.257001"><ele>749</ele><time>2019-10-02T13:14:00Z</time><name>PT9874</name></trkpt>
<trkpt lat="54.570454" lon="-3.256991"><ele>749</ele><time>2019-10-02T13:14:01Z</time><name>PT9875</name></trkpt>
<trkpt lat="54.570456" lon="-3.256979"><ele>748</ele><time>2019-10-02T13:14:02Z</time><name>PT9876</name></trkpt>
<trkpt lat="54.570458" lon="-3.256964"><ele>749</ele><time>2019-10-02T13:14:03Z</time><name>PT9877</name></trkpt>
<trkpt lat="54.570462" lon="-3.256946"><ele>749</ele><time>2019-10-02T13:14:04Z</time><name>PT9878</name></trkpt>
<trkpt lat="54.570466" lon="-3.256932"><ele>750</ele><time>2019-10-02T13:14:05Z</time><name>PT9879</name></trkpt>
<trkpt lat="54.570470" lon="-3.256917"><ele>750</ele><time>2019-10-02T13:14:06Z</time><name>PT9880</name></trkpt>
<trkpt lat="54.570474" lon="-3.256903"><ele>750</ele><time>2019-10-02T13:14:07Z</time><name>PT9881</name></trkpt>
<trkpt lat="54.570475" lon="-3.256900"><ele>750</ele><time>2019-10-02T13:14:08Z</time><name>PT9882</name></trkpt>
<trkpt lat="54.570477" lon="-3.256894"><ele>749</ele><time>2019-10-02T13:14:09Z</time><name>PT9883</name></trkpt>
<trkpt lat="54.570480" lon="-3.256879"><ele>749</ele><time>2019-10-02T13:14:10Z</time><name>PT9884</name></trkpt>
<trkpt lat="54.570483" lon="-3.256864"><ele>750</ele><time>2019-10-02T13:14:11Z</time><name>PT9885</name></trkpt>
<trkpt lat="54.570487" lon="-3.256854"><ele>749</ele><time>2019-10-02T13:14:12Z</time><name>PT9886</name></trkpt>
<trkpt lat="54.570492" lon="-3.256844"><ele>750</ele><time>2019-10-02T13:14:13Z</time><name>PT9887</name></trkpt>
<trkpt lat="54.570496" lon="-3.256836"><ele>750</ele><time>2019-10-02T13:14:14Z</time><name>PT9888</name></trkpt>
<trkpt lat="54.570500" lon="-3.256822"><ele>750</ele><time>2019-10-02T13:14:15Z</time><name>PT9889</name></trkpt>
<trkpt lat="54.570505" lon="-3.256807"><ele>751</ele><time>2019-10-02T13:14:16Z</time><name>PT9890</name></trkpt>
<trkpt lat="54.570509" lon="-3.256796"><ele>751</ele><time>2019-10-02T13:14:17Z</time><name>PT9891</name></trkpt>
<trkpt lat="54.570513" lon="-3.256781"><ele>751</ele><time>2019-10-02T13:14:17Z</time><name>PT9892</name></trkpt>
<trkpt lat="54.570512" lon="-3.256765"><ele>751</ele><time>2019-10-02T13:14:19Z</time><name>PT9893</name></trkpt>
<trkpt lat="54.570514" lon="-3.256751"><ele>751</ele><time>2019-10-02T13:14:19Z</time><name>PT9894</name></trkpt>
<trkpt lat="54.570516" lon="-3.256741"><ele>752</ele><time>2019-10-02T13:14:21Z</time><name>PT9895</name></trkpt>
<trkpt lat="54.570517" lon="-3.256730"><ele>751</ele><time>2019-10-02T13:14:21Z</time><name>PT9896</name></trkpt>
<trkpt lat="54.570519" lon="-3.256714"><ele>752</ele><time>2019-10-02T13:14:23Z</time><name>PT9897</name></trkpt>
<trkpt lat="54.570522" lon="-3.256701"><ele>752</ele><time>2019-10-02T13:14:24Z</time><name>PT9898</name></trkpt>
<trkpt lat="54.570525" lon="-3.256687"><ele>752</ele><time>2019-10-02T13:14:25Z</time><name>PT9899</name></trkpt>
<trkpt lat="54.570530" lon="-3.256675"><ele>753</ele><time>2019-10-02T13:14:26Z</time><name>PT9900</name></trkpt>
<trkpt lat="54.570532" lon="-3.256664"><ele>753</ele><time>2019-10-02T13:14:27Z</time><name>PT9901</name></trkpt>
<trkpt lat="54.570532" lon="-3.256650"><ele>753</ele><time>2019-10-02T13:14:27Z</time><name>PT9902</name></trkpt>
<trkpt lat="54.570535" lon="-3.256637"><ele>753</ele><time>2019-10-02T13:14:29Z</time><name>PT9903</name></trkpt>
<trkpt lat="54.570538" lon="-3.256623"><ele>753</ele><time>2019-10-02T13:14:29Z</time><name>PT9904</name></trkpt>
<trkpt lat="54.570539" lon="-3.256607"><ele>754</ele><time>2019-10-02T13:14:31Z</time><name>PT9905</name></trkpt>
<trkpt lat="54.570539" lon="-3.256591"><ele>754</ele><time>2019-10-02T13:14:31Z</time><name>PT9906</name></trkpt>
<trkpt lat="54.570540" lon="-3.256578"><ele>754</ele><time>2019-10-02T13:14:33Z</time><name>PT9907</name></trkpt>
<trkpt lat="54.570541" lon="-3.256566"><ele>754</ele><time>2019-10-02T13:14:33Z</time><name>PT9908</name></trkpt>
<trkpt lat="54.570545" lon="-3.256551"><ele>754</ele><time>2019-10-02T13:14:35Z</time><name>PT9909</name></trkpt>
<trkpt lat="54.570550" lon="-3.256540"><ele>754</ele><time>2019-10-02T13:14:36Z</time><name>PT9910</name></trkpt>
<trkpt lat="54.570555" lon="-3.256523"><ele>754</ele><time>2019-10-02T13:14:37Z</time><name>PT9911</name></trkpt>
<trkpt lat="54.570559" lon="-3.256512"><ele>754</ele><time>2019-10-02T13:14:37Z</time><name>PT9912</name></trkpt>
<trkpt lat="54.570563" lon="-3.256501"><ele>755</ele><time>2019-10-02T13:14:39Z</time><name>PT9913</name></trkpt>
<trkpt lat="54.570567" lon="-3.256490"><ele>755</ele><time>2019-10-02T13:14:39Z</time><name>PT9914</name></trkpt>
<trkpt lat="54.570570" lon="-3.256479"><ele>755</ele><time>2019-10-02T13:14:41Z</time><name>PT9915</name></trkpt>
<trkpt lat="54.570575" lon="-3.256468"><ele>755</ele><time>2019-10-02T13:14:41Z</time><name>PT9916</name></trkpt>
<trkpt lat="54.570578" lon="-3.256456"><ele>755</ele><time>2019-10-02T13:14:43Z</time><name>PT9917</name></trkpt>
<trkpt lat="54.570580" lon="-3.256447"><ele>755</ele><time>2019-10-02T13:14:43Z</time><name>PT9918</name></trkpt>
<trkpt lat="54.570583" lon="-3.256438"><ele>755</ele><time>2019-10-02T13:14:45Z</time><name>PT9919</name></trkpt>
<trkpt lat="54.570587" lon="-3.256428"><ele>755</ele><time>2019-10-02T13:14:45Z</time><name>PT9920</name></trkpt>
<trkpt lat="54.570589" lon="-3.256419"><ele>756</ele><time>2019-10-02T13:14:47Z</time><name>PT9921</name></trkpt>
<trkpt lat="54.570589" lon="-3.256405"><ele>756</ele><time>2019-10-02T13:14:47Z</time><name>PT9922</name></trkpt>
<trkpt lat="54.570591" lon="-3.256397"><ele>756</ele><time>2019-10-02T13:14:49Z</time><name>PT9923</name></trkpt>
<trkpt lat="54.570595" lon="-3.256386"><ele>756</ele><time>2019-10-02T13:14:49Z</time><name>PT9924</name></trkpt>
<trkpt lat="54.570597" lon="-3.256370"><ele>756</ele><time>2019-10-02T13:14:51Z</time><name>PT9925</name></trkpt>
<trkpt lat="54.570599" lon="-3.256357"><ele>757</ele><time>2019-10-02T13:14:52Z</time><name>PT9926</name></trkpt>
<trkpt lat="54.570603" lon="-3.256344"><ele>757</ele><time>2019-10-02T13:14:53Z</time><name>PT9927</name></trkpt>
<trkpt lat="54.570606" lon="-3.256332"><ele>757</ele><time>2019-10-02T13:14:53Z</time><name>PT9928</name></trkpt>
<trkpt lat="54.570609" lon="-3.256317"><ele>757</ele><time>2019-10-02T13:14:55Z</time><name>PT9929</name></trkpt>
<trkpt lat="54.570610" lon="-3.256303"><ele>758</ele><time>2019-10-02T13:14:55Z</time><name>PT9930</name></trkpt>
<trkpt lat="54.570611" lon="-3.256289"><ele>758</ele><time>2019-10-02T13:14:57Z</time><name>PT9931</name></trkpt>
<trkpt lat="54.570615" lon="-3.256274"><ele>758</ele><time>2019-10-02T13:14:57Z</time><name>PT9932</name></trkpt>
<trkpt lat="54.570616" lon="-3.256256"><ele>758</ele><time>2019-10-02T13:14:59Z</time><name>PT9933</name></trkpt>
<trkpt lat="54.570619" lon="-3.256244"><ele>759</ele><time>2019-10-02T13:14:59Z</time><name>PT9934</name></trkpt>
<trkpt lat="54.570622" lon="-3.256237"><ele>759</ele><time>2019-10-02T13:15:01Z</time><name>PT9935</name></trkpt>
<trkpt lat="54.570623" lon="-3.256219"><ele>759</ele><time>2019-10-02T13:15:01Z</time><name>PT9936</name></trkpt>
<trkpt lat="54.570626" lon="-3.256203"><ele>760</ele><time>2019-10-02T13:15:03Z</time><name>PT9937</name></trkpt>
<trkpt lat="54.570632" lon="-3.256189"><ele>760</ele><time>2019-10-02T13:15:04Z</time><name>PT9938</name></trkpt>
<trkpt lat="54.570636" lon="-3.256173"><ele>760</ele><time>2019-10-02T13:15:05Z</time><name>PT9939</name></trkpt>
<trkpt lat="54.570639" lon="-3.256159"><ele>760</ele><time>2019-10-02T13:15:06Z</time><name>PT9940</name></trkpt>
<trkpt lat="54.570643" lon="-3.256148"><ele>761</ele><time>2019-10-02T13:15:07Z</time><name>PT9941</name></trkpt>
<trkpt lat="54.570649" lon="-3.256138"><ele>761</ele><time>2019-10-02T13:15:08Z</time><name>PT9942</name></trkpt>
<trkpt lat="54.570653" lon="-3.256127"><ele>760</ele><time>2019-10-02T13:15:09Z</time><name>PT9943</name></trkpt>
<trkpt lat="54.570655" lon="-3.256114"><ele>761</ele><time>2019-10-02T13:15:10Z</time><name>PT9944</name></trkpt>
<trkpt lat="54.570657" lon="-3.256103"><ele>761</ele><time>2019-10-02T13:15:11Z</time><name>PT9945</name></trkpt>
<trkpt lat="54.570657" lon="-3.256093"><ele>761</ele><time>2019-10-02T13:15:11Z</time><name>PT9946</name></trkpt>
<trkpt lat="54.570659" lon="-3.256076"><ele>761</ele><time>2019-10-02T13:15:13Z</time><name>PT9947</name></trkpt>
<trkpt lat="54.570662" lon="-3.256061"><ele>761</ele><time>2019-10-02T13:15:14Z</time><name>PT9948</name></trkpt>
<trkpt lat="54.570664" lon="-3.256050"><ele>762</ele><time>2019-10-02T13:15:15Z</time><name>PT9949</name></trkpt>
<trkpt lat="54.570666" lon="-3.256038"><ele>762</ele><time>2019-10-02T13:15:16Z</time><name>PT9950</name></trkpt>
<trkpt lat="54.570668" lon="-3.256024"><ele>762</ele><time>2019-10-02T13:15:17Z</time><name>PT9951</name></trkpt>
<trkpt lat="54.570669" lon="-3.256013"><ele>763</ele><time>2019-10-02T13:15:18Z</time><name>PT9952</name></trkpt>
<trkpt lat="54.570671" lon="-3.255999"><ele>763</ele><time>2019-10-02T13:15:19Z</time><name>PT9953</name></trkpt>
<trkpt lat="54.570674" lon="-3.255988"><ele>763</ele><time>2019-10-02T13:15:20Z</time><name>PT9954</name></trkpt>
<trkpt lat="54.570674" lon="-3.255974"><ele>763</ele><time>2019-10-02T13:15:21Z</time><name>PT9955</name></trkpt>
<trkpt lat="54.570675" lon="-3.255960"><ele>763</ele><time>2019-10-02T13:15:21Z</time><name>PT9956</name></trkpt>
<trkpt lat="54.570676" lon="-3.255951"><ele>764</ele><time>2019-10-02T13:15:23Z</time><name>PT9957</name></trkpt>
<trkpt lat="54.570677" lon="-3.255940"><ele>764</ele><time>2019-10-02T13:15:24Z</time><name>PT9958</name></trkpt>
<trkpt lat="54.570676" lon="-3.255930"><ele>764</ele><time>2019-10-02T13:15:25Z</time><name>PT9959</name></trkpt>
<trkpt lat="54.570677" lon="-3.255919"><ele>764</ele><time>2019-10-02T13:15:26Z</time><name>PT9960</name></trkpt>
<trkpt lat="54.570678" lon="-3.255907"><ele>765</ele><time>2019-10-02T13:15:27Z</time><name>PT9961</name></trkpt>
<trkpt lat="54.570678" lon="-3.255895"><ele>765</ele><time>2019-10-02T13:15:28Z</time><name>PT9962</name></trkpt>
<trkpt lat="54.570678" lon="-3.255883"><ele>765</ele><time>2019-10-02T13:15:29Z</time><name>PT9963</name></trkpt>
<trkpt lat="54.570680" lon="-3.255867"><ele>766</ele><time>2019-10-02T13:15:30Z</time><name>PT9964</name></trkpt>
<trkpt lat="54.570683" lon="-3.255855"><ele>767</ele><time>2019-10-02T13:15:31Z</time><name>PT9965</name></trkpt>
<trkpt lat="54.570686" lon="-3.255844"><ele>767</ele><time>2019-10-02T13:15:32Z</time><name>PT9966</name></trkpt>
<trkpt lat="54.570690" lon="-3.255834"><ele>767</ele><time>2019-10-02T13:15:33Z</time><name>PT9967</name></trkpt>
<trkpt lat="54.570695" lon="-3.255821"><ele>768</ele><time>2019-10-02T13:15:34Z</time><name>PT9968</name></trkpt>
<trkpt lat="54.570697" lon="-3.255810"><ele>768</ele><time>2019-10-02T13:15:35Z</time><name>PT9969</name></trkpt>
<trkpt lat="54.570698" lon="-3.255800"><ele>768</ele><time>2019-10-02T13:15:36Z</time><name>PT9970</name></trkpt>
<trkpt lat="54.570700" lon="-3.255794"><ele>768</ele><time>2019-10-02T13:15:37Z</time><name>PT9971</name></trkpt>
<trkpt lat="54.570703" lon="-3.255787"><ele>768</ele><time>2019-10-02T13:15:38Z</time><name>PT9972</name></trkpt>
<trkpt lat="54.570704" lon="-3.255772"><ele>769</ele><time>2019-10-02T13:15:39Z</time><name>PT9973</name></trkpt>
<trkpt lat="54.570703" lon="-3.255765"><ele>769</ele><time>2019-10-02T13:15:39Z</time><name>PT9974</name></trkpt>
<trkpt lat="54.570704" lon="-3.255755"><ele>769</ele><time>2019-10-02T13:15:41Z</time><name>PT9975</name></trkpt>
<trkpt lat="54.570706" lon="-3.255745"><ele>769</ele><time>2019-10-02T13:15:41Z</time><name>PT9976</name></trkpt>
<trkpt lat="54.570711" lon="-3.255731"><ele>769</ele><time>2019-10-02T13:15:43Z</time><name>PT9977</name></trkpt>
<trkpt lat="54.570716" lon="-3.255722"><ele>770</ele><time>2019-10-02T13:15:44Z</time><name>PT9978</name></trkpt>
<trkpt lat="54.570721" lon="-3.255714"><ele>770</ele><time>2019-10-02T13:15:45Z</time><name>PT9979</name></trkpt>
<trkpt lat="54.570726" lon="-3.255706"><ele>770</ele><time>2019-10-02T13:15:46Z</time><name>PT9980</name></trkpt>
<trkpt lat="54.570731" lon="-3.255698"><ele>770</ele><time>2019-10-02T13:15:47Z</time><name>PT9981</name></trkpt>
<trkpt lat="54.570735" lon="-3.255690"><ele>770</ele><time>2019-10-02T13:15:47Z</time><name>PT9982</name></trkpt>
<trkpt lat="54.570738" lon="-3.255679"><ele>770</ele><time>2019-10-02T13:15:49Z</time><name>PT9983</name></trkpt>
<trkpt lat="54.570740" lon="-3.255669"><ele>770</ele><time>2019-10-02T13:15:49Z</time><name>PT9984</name></trkpt>
<trkpt lat="54.570741" lon="-3.255660"><ele>770</ele><time>2019-10-02T13:15:51Z</time><name>PT9985</name></trkpt>
<trkpt lat="54.570744" lon="-3.255651"><ele>770</ele><time>2019-10-02T13:15:51Z</time><name>PT9986</name></trkpt>
<trkpt lat="54.570746" lon="-3.255641"><ele>770</ele><time>2019-10-02T13:15:53Z</time><name>PT9987</name></trkpt>
<trkpt lat="54.570747" lon="-3.255629"><ele>769</ele><time>2019-10-02T13:15:53Z</time><name>PT9988</name></trkpt>
<trkpt lat="54.570748" lon="-3.255617"><ele>770</ele><time>2019-10-02T13:15:55Z</time><name>PT9989</name></trkpt>
<trkpt lat="54.570749" lon="-3.255611"><ele>770</ele><time>2019-10-02T13:15:55Z</time><name>PT9990</name></trkpt>
<trkpt lat="54.570752" lon="-3.255604"><ele>770</ele><time>2019-10-02T13:15:57Z</time><name>PT9991</name></trkpt>
<trkpt lat="54.570756" lon="-3.255596"><ele>770</ele><time>2019-10-02T13:15:57Z</time><name>PT9992</name></trkpt>
<trkpt lat="54.570760" lon="-3.255583"><ele>770</ele><time>2019-10-02T13:15:59Z</time><name>PT9993</name></trkpt>
<trkpt lat="54.570762" lon="-3.255575"><ele>770</ele><time>2019-10-02T13:15:59Z</time><name>PT9994</name></trkpt>
<trkpt lat="54.570762" lon="-3.255568"><ele>770</ele><time>2019-10-02T13:16:01Z</time><name>PT9995</name></trkpt>
<trkpt lat="54.570764" lon="-3.255555"><ele>771</ele><time>2019-10-02T13:16:01Z</time><name>PT9996</name></trkpt>
<trkpt lat="54.570764" lon="-3.255544"><ele>771</ele><time>2019-10-02T13:16:03Z</time><name>PT9997</name></trkpt>
<trkpt lat="54.570764" lon="-3.255535"><ele>771</ele><time>2019-10-02T13:16:04Z</time><name>PT9998</name></trkpt>
<trkpt lat="54.570764" lon="-3.255528"><ele>771</ele><time>2019-10-02T13:16:05Z</time><name>PT9999</name></trkpt>
<trkpt lat="54.570763" lon="-3.255516"><ele>771</ele><time>2019-10-02T13:16:05Z</time><name>PT10000</name></trkpt>
<trkpt lat="54.570762" lon="-3.255511"><ele>771</ele><time>2019-10-02T13:16:07Z</time><name>PT10001</name></trkpt>
<trkpt lat="54.570763" lon="-3.255504"><ele>772</ele><time>2019-10-02T13:16:07Z</time><name>PT10002</name></trkpt>
<trkpt lat="54.570764" lon="-3.255494"><ele>772</ele><time>2019-10-02T13:16:09Z</time><name>PT10003</name></trkpt>
<trkpt lat="54.570770" lon="-3.255469"><ele>772</ele><time>2019-10-02T13:16:28Z</time><name>PT10004</name></trkpt>
<trkpt lat="54.570784" lon="-3.255434"><ele>772</ele><time>2019-10-02T13:16:29Z</time><name>PT10005</name></trkpt>
<trkpt lat="54.570788" lon="-3.255415"><ele>773</ele><time>2019-10-02T13:16:30Z</time><name>PT10006</name></trkpt>
<trkpt lat="54.570787" lon="-3.255406"><ele>773</ele><time>2019-10-02T13:16:31Z</time><name>PT10007</name></trkpt>
<trkpt lat="54.570790" lon="-3.255393"><ele>773</ele><time>2019-10-02T13:16:32Z</time><name>PT10008</name></trkpt>
<trkpt lat="54.570793" lon="-3.255377"><ele>773</ele><time>2019-10-02T13:16:33Z</time><name>PT10009</name></trkpt>
<trkpt lat="54.570802" lon="-3.255357"><ele>773</ele><time>2019-10-02T13:16:34Z</time><name>PT10010</name></trkpt>
<trkpt lat="54.570804" lon="-3.255348"><ele>774</ele><time>2019-10-02T13:16:35Z</time><name>PT10011</name></trkpt>
<trkpt lat="54.570807" lon="-3.255340"><ele>774</ele><time>2019-10-02T13:16:36Z</time><name>PT10012</name></trkpt>
<trkpt lat="54.570808" lon="-3.255330"><ele>775</ele><time>2019-10-02T13:16:37Z</time><name>PT10013</name></trkpt>
<trkpt lat="54.570811" lon="-3.255318"><ele>775</ele><time>2019-10-02T13:16:38Z</time><name>PT10014</name></trkpt>
<trkpt lat="54.570813" lon="-3.255310"><ele>775</ele><time>2019-10-02T13:16:39Z</time><name>PT10015</name></trkpt>
<trkpt lat="54.570814" lon="-3.255293"><ele>775</ele><time>2019-10-02T13:16:40Z</time><name>PT10016</name></trkpt>
<trkpt lat="54.570815" lon="-3.255282"><ele>775</ele><time>2019-10-02T13:16:41Z</time><name>PT10017</name></trkpt>
<trkpt lat="54.570813" lon="-3.255272"><ele>775</ele><time>2019-10-02T13:16:41Z</time><name>PT10018</name></trkpt>
<trkpt lat="54.570813" lon="-3.255258"><ele>776</ele><time>2019-10-02T13:16:43Z</time><name>PT10019</name></trkpt>
<trkpt lat="54.570811" lon="-3.255243"><ele>776</ele><time>2019-10-02T13:16:43Z</time><name>PT10020</name></trkpt>
<trkpt lat="54.570813" lon="-3.255228"><ele>776</ele><time>2019-10-02T13:16:45Z</time><name>PT10021</name></trkpt>
<trkpt lat="54.570814" lon="-3.255214"><ele>776</ele><time>2019-10-02T13:16:46Z</time><name>PT10022</name></trkpt>
<trkpt lat="54.570813" lon="-3.255199"><ele>776</ele><time>2019-10-02T13:16:47Z</time><name>PT10023</name></trkpt>
<trkpt lat="54.570812" lon="-3.255183"><ele>776</ele><time>2019-10-02T13:16:48Z</time><name>PT10024</name></trkpt>
<trkpt lat="54.570814" lon="-3.255167"><ele>776</ele><time>2019-10-02T13:16:49Z</time><name>PT10025</name></trkpt>
<trkpt lat="54.570816" lon="-3.255147"><ele>776</ele><time>2019-10-02T13:16:49Z</time><name>PT10026</name></trkpt>
<trkpt lat="54.570815" lon="-3.255135"><ele>776</ele><time>2019-10-02T13:16:51Z</time><name>PT10027</name></trkpt>
<trkpt lat="54.570815" lon="-3.255123"><ele>777</ele><time>2019-10-02T13:16:51Z</time><name>PT10028</name></trkpt>
<trkpt lat="54.570813" lon="-3.255110"><ele>777</ele><time>2019-10-02T13:16:53Z</time><name>PT10029</name></trkpt>
<trkpt lat="54.570815" lon="-3.255093"><ele>777</ele><time>2019-10-02T13:16:53Z</time><name>PT10030</name></trkpt>
<trkpt lat="54.570816" lon="-3.255080"><ele>777</ele><time>2019-10-02T13:16:55Z</time><name>PT10031</name></trkpt>
<trkpt lat="54.570817" lon="-3.255066"><ele>778</ele><time>2019-10-02T13:16:55Z</time><name>PT10032</name></trkpt>
<trkpt lat="54.570817" lon="-3.255052"><ele>778</ele><time>2019-10-02T13:16:57Z</time><name>PT10033</name></trkpt>
<trkpt lat="54.570817" lon="-3.255036"><ele>778</ele><time>2019-10-02T13:16:57Z</time><name>PT10034</name></trkpt>
<trkpt lat="54.570818" lon="-3.255026"><ele>778</ele><time>2019-10-02T13:16:59Z</time><name>PT10035</name></trkpt>
<trkpt lat="54.570820" lon="-3.255016"><ele>778</ele><time>2019-10-02T13:16:59Z</time><name>PT10036</name></trkpt>
<trkpt lat="54.570821" lon="-3.255004"><ele>778</ele><time>2019-10-02T13:17:01Z</time><name>PT10037</name></trkpt>
<trkpt lat="54.570821" lon="-3.254985"><ele>778</ele><time>2019-10-02T13:17:02Z</time><name>PT10038</name></trkpt>
<trkpt lat="54.570823" lon="-3.254972"><ele>778</ele><time>2019-10-02T13:17:03Z</time><name>PT10039</name></trkpt>
<trkpt lat="54.570826" lon="-3.254960"><ele>779</ele><time>2019-10-02T13:17:04Z</time><name>PT10040</name></trkpt>
<trkpt lat="54.570830" lon="-3.254948"><ele>779</ele><time>2019-10-02T13:17:05Z</time><name>PT10041</name></trkpt>
<trkpt lat="54.570834" lon="-3.254937"><ele>780</ele><time>2019-10-02T13:17:06Z</time><name>PT10042</name></trkpt>
<trkpt lat="54.570837" lon="-3.254927"><ele>780</ele><time>2019-10-02T13:17:07Z</time><name>PT10043</name></trkpt>
<trkpt lat="54.570840" lon="-3.254915"><ele>780</ele><time>2019-10-02T13:17:08Z</time><name>PT10044</name></trkpt>
<trkpt lat="54.570844" lon="-3.254900"><ele>780</ele><time>2019-10-02T13:17:09Z</time><name>PT10045</name></trkpt>
<trkpt lat="54.570848" lon="-3.254892"><ele>780</ele><time>2019-10-02T13:17:10Z</time><name>PT10046</name></trkpt>
<trkpt lat="54.570851" lon="-3.254882"><ele>781</ele><time>2019-10-02T13:17:11Z</time><name>PT10047</name></trkpt>
<trkpt lat="54.570854" lon="-3.254872"><ele>781</ele><time>2019-10-02T13:17:12Z</time><name>PT10048</name></trkpt>
<trkpt lat="54.570856" lon="-3.254863"><ele>781</ele><time>2019-10-02T13:17:13Z</time><name>PT10049</name></trkpt>
<trkpt lat="54.570858" lon="-3.254855"><ele>781</ele><time>2019-10-02T13:17:14Z</time><name>PT10050</name></trkpt>
<trkpt lat="54.570861" lon="-3.254845"><ele>782</ele><time>2019-10-02T13:17:15Z</time><name>PT10051</name></trkpt>
<trkpt lat="54.570863" lon="-3.254836"><ele>782</ele><time>2019-10-02T13:17:16Z</time><name>PT10052</name></trkpt>
<trkpt lat="54.570866" lon="-3.254827"><ele>782</ele><time>2019-10-02T13:17:17Z</time><name>PT10053</name></trkpt>
<trkpt lat="54.570868" lon="-3.254816"><ele>782</ele><time>2019-10-02T13:17:18Z</time><name>PT10054</name></trkpt>
<trkpt lat="54.570869" lon="-3.254806"><ele>782</ele><time>2019-10-02T13:17:19Z</time><name>PT10055</name></trkpt>
<trkpt lat="54.570870" lon="-3.254798"><ele>782</ele><time>2019-10-02T13:17:19Z</time><name>PT10056</name></trkpt>
<trkpt lat="54.570872" lon="-3.254787"><ele>782</ele><time>2019-10-02T13:17:21Z</time><name>PT10057</name></trkpt>
<trkpt lat="54.570875" lon="-3.254777"><ele>783</ele><time>2019-10-02T13:17:21Z</time><name>PT10058</name></trkpt>
<trkpt lat="54.570878" lon="-3.254768"><ele>783</ele><time>2019-10-02T13:17:23Z</time><name>PT10059</name></trkpt>
<trkpt lat="54.570880" lon="-3.254755"><ele>783</ele><time>2019-10-02T13:17:23Z</time><name>PT10060</name></trkpt>
<trkpt lat="54.570882" lon="-3.254744"><ele>784</ele><time>2019-10-02T13:17:25Z</time><name>PT10061</name></trkpt>
<trkpt lat="54.570885" lon="-3.254735"><ele>784</ele><time>2019-10-02T13:17:25Z</time><name>PT10062</name></trkpt>
<trkpt lat="54.570890" lon="-3.254724"><ele>784</ele><time>2019-10-02T13:17:27Z</time><name>PT10063</name></trkpt>
<trkpt lat="54.570895" lon="-3.254715"><ele>784</ele><time>2019-10-02T13:17:27Z</time><name>PT10064</name></trkpt>
<trkpt lat="54.570900" lon="-3.254704"><ele>784</ele><time>2019-10-02T13:17:29Z</time><name>PT10065</name></trkpt>
<trkpt lat="54.570905" lon="-3.254688"><ele>785</ele><time>2019-10-02T13:17:29Z</time><name>PT10066</name></trkpt>
<trkpt lat="54.570909" lon="-3.254678"><ele>785</ele><time>2019-10-02T13:17:31Z</time><name>PT10067</name></trkpt>
<trkpt lat="54.570914" lon="-3.254676"><ele>785</ele><time>2019-10-02T13:17:31Z</time><name>PT10068</name></trkpt>
<trkpt lat="54.570920" lon="-3.254669"><ele>786</ele><time>2019-10-02T13:17:33Z</time><name>PT10069</name></trkpt>
<trkpt lat="54.570925" lon="-3.254663"><ele>786</ele><time>2019-10-02T13:17:33Z</time><name>PT10070</name></trkpt>
<trkpt lat="54.570929" lon="-3.254653"><ele>786</ele><time>2019-10-02T13:17:35Z</time><name>PT10071</name></trkpt>
<trkpt lat="54.570935" lon="-3.254643"><ele>786</ele><time>2019-10-02T13:17:36Z</time><name>PT10072</name></trkpt>
<trkpt lat="54.570939" lon="-3.254629"><ele>786</ele><time>2019-10-02T13:17:37Z</time><name>PT10073</name></trkpt>
<trkpt lat="54.570943" lon="-3.254618"><ele>786</ele><time>2019-10-02T13:17:37Z</time><name>PT10074</name></trkpt>
<trkpt lat="54.570948" lon="-3.254609"><ele>787</ele><time>2019-10-02T13:17:39Z</time><name>PT10075</name></trkpt>
<trkpt lat="54.570952" lon="-3.254597"><ele>787</ele><time>2019-10-02T13:17:39Z</time><name>PT10076</name></trkpt>
<trkpt lat="54.570957" lon="-3.254585"><ele>787</ele><time>2019-10-02T13:17:41Z</time><name>PT10077</name></trkpt>
<trkpt lat="54.570962" lon="-3.254573"><ele>787</ele><time>2019-10-02T13:17:41Z</time><name>PT10078</name></trkpt>
<trkpt lat="54.570964" lon="-3.254562"><ele>787</ele><time>2019-10-02T13:17:43Z</time><name>PT10079</name></trkpt>
<trkpt lat="54.570967" lon="-3.254549"><ele>788</ele><time>2019-10-02T13:17:43Z</time><name>PT10080</name></trkpt>
<trkpt lat="54.570971" lon="-3.254536"><ele>788</ele><time>2019-10-02T13:17:45Z</time><name>PT10081</name></trkpt>
<trkpt lat="54.570973" lon="-3.254527"><ele>788</ele><time>2019-10-02T13:17:45Z</time><name>PT10082</name></trkpt>
<trkpt lat="54.570976" lon="-3.254517"><ele>788</ele><time>2019-10-02T13:17:47Z</time><name>PT10083</name></trkpt>
<trkpt lat="54.570978" lon="-3.254506"><ele>789</ele><time>2019-10-02T13:17:47Z</time><name>PT10084</name></trkpt>
<trkpt lat="54.570980" lon="-3.254494"><ele>789</ele><time>2019-10-02T13:17:49Z</time><name>PT10085</name></trkpt>
<trkpt lat="54.570984" lon="-3.254480"><ele>789</ele><time>2019-10-02T13:17:49Z</time><name>PT10086</name></trkpt>
<trkpt lat="54.570986" lon="-3.254465"><ele>790</ele><time>2019-10-02T13:17:51Z</time><name>PT10087</name></trkpt>
<trkpt lat="54.570987" lon="-3.254452"><ele>790</ele><time>2019-10-02T13:17:51Z</time><name>PT10088</name></trkpt>
<trkpt lat="54.570990" lon="-3.254442"><ele>790</ele><time>2019-10-02T13:17:53Z</time><name>PT10089</name></trkpt>
<trkpt lat="54.570993" lon="-3.254434"><ele>790</ele><time>2019-10-02T13:17:53Z</time><name>PT10090</name></trkpt>
<trkpt lat="54.570996" lon="-3.254422"><ele>790</ele><time>2019-10-02T13:17:55Z</time><name>PT10091</name></trkpt>
<trkpt lat="54.571000" lon="-3.254415"><ele>790</ele><time>2019-10-02T13:17:55Z</time><name>PT10092</name></trkpt>
<trkpt lat="54.571004" lon="-3.254407"><ele>791</ele><time>2019-10-02T13:17:57Z</time><name>PT10093</name></trkpt>
<trkpt lat="54.571006" lon="-3.254392"><ele>790</ele><time>2019-10-02T13:17:57Z</time><name>PT10094</name></trkpt>
<trkpt lat="54.571005" lon="-3.254378"><ele>791</ele><time>2019-10-02T13:17:59Z</time><name>PT10095</name></trkpt>
<trkpt lat="54.571005" lon="-3.254369"><ele>790</ele><time>2019-10-02T13:17:59Z</time><name>PT10096</name></trkpt>
<trkpt lat="54.571005" lon="-3.254358"><ele>791</ele><time>2019-10-02T13:18:01Z</time><name>PT10097</name></trkpt>
<trkpt lat="54.571006" lon="-3.254347"><ele>790</ele><time>2019-10-02T13:18:02Z</time><name>PT10098</name></trkpt>
<trkpt lat="54.571006" lon="-3.254337"><ele>791</ele><time>2019-10-02T13:18:03Z</time><name>PT10099</name></trkpt>
<trkpt lat="54.571006" lon="-3.254328"><ele>791</ele><time>2019-10-02T13:18:03Z</time><name>PT10100</name></trkpt>
<trkpt lat="54.571006" lon="-3.254318"><ele>791</ele><time>2019-10-02T13:18:05Z</time><name>PT10101</name></trkpt>
<trkpt lat="54.571008" lon="-3.254307"><ele>792</ele><time>2019-10-02T13:18:05Z</time><name>PT10102</name></trkpt>
<trkpt lat="54.571011" lon="-3.254297"><ele>792</ele><time>2019-10-02T13:18:07Z</time><name>PT10103</name></trkpt>
<trkpt lat="54.571013" lon="-3.254287"><ele>792</ele><time>2019-10-02T13:18:07Z</time><name>PT10104</name></trkpt>
<trkpt lat="54.571014" lon="-3.254274"><ele>792</ele><time>2019-10-02T13:18:09Z</time><name>PT10105</name></trkpt>
<trkpt lat="54.571018" lon="-3.254265"><ele>793</ele><time>2019-10-02T13:18:09Z</time><name>PT10106</name></trkpt>
<trkpt lat="54.571022" lon="-3.254259"><ele>793</ele><time>2019-10-02T13:18:11Z</time><name>PT10107</name></trkpt>
<trkpt lat="54.571024" lon="-3.254247"><ele>794</ele><time>2019-10-02T13:18:12Z</time><name>PT10108</name></trkpt>
<trkpt lat="54.571026" lon="-3.254236"><ele>794</ele><time>2019-10-02T13:18:13Z</time><name>PT10109</name></trkpt>
<trkpt lat="54.571027" lon="-3.254225"><ele>794</ele><time>2019-10-02T13:18:13Z</time><name>PT10110</name></trkpt>
<trkpt lat="54.571028" lon="-3.254216"><ele>794</ele><time>2019-10-02T13:18:15Z</time><name>PT10111</name></trkpt>
<trkpt lat="54.571028" lon="-3.254201"><ele>794</ele><time>2019-10-02T13:18:15Z</time><name>PT10112</name></trkpt>
<trkpt lat="54.571028" lon="-3.254190"><ele>794</ele><time>2019-10-02T13:18:17Z</time><name>PT10113</name></trkpt>
<trkpt lat="54.571029" lon="-3.254174"><ele>795</ele><time>2019-10-02T13:18:17Z</time><name>PT10114</name></trkpt>
<trkpt lat="54.571029" lon="-3.254161"><ele>795</ele><time>2019-10-02T13:18:19Z</time><name>PT10115</name></trkpt>
<trkpt lat="54.571031" lon="-3.254149"><ele>795</ele><time>2019-10-02T13:18:20Z</time><name>PT10116</name></trkpt>
<trkpt lat="54.571034" lon="-3.254139"><ele>795</ele><time>2019-10-02T13:18:21Z</time><name>PT10117</name></trkpt>
<trkpt lat="54.571037" lon="-3.254130"><ele>795</ele><time>2019-10-02T13:18:22Z</time><name>PT10118</name></trkpt>
<trkpt lat="54.571039" lon="-3.254114"><ele>795</ele><time>2019-10-02T13:18:23Z</time><name>PT10119</name></trkpt>
<trkpt lat="54.571041" lon="-3.254102"><ele>795</ele><time>2019-10-02T13:18:23Z</time><name>PT10120</name></trkpt>
<trkpt lat="54.571044" lon="-3.254088"><ele>796</ele><time>2019-10-02T13:18:25Z</time><name>PT10121</name></trkpt>
<trkpt lat="54.571049" lon="-3.254075"><ele>796</ele><time>2019-10-02T13:18:26Z</time><name>PT10122</name></trkpt>
<trkpt lat="54.571052" lon="-3.254063"><ele>796</ele><time>2019-10-02T13:18:27Z</time><name>PT10123</name></trkpt>
<trkpt lat="54.571055" lon="-3.254057"><ele>796</ele><time>2019-10-02T13:18:28Z</time><name>PT10124</name></trkpt>
<trkpt lat="54.571057" lon="-3.254051"><ele>796</ele><time>2019-10-02T13:18:29Z</time><name>PT10125</name></trkpt>
<trkpt lat="54.571061" lon="-3.254037"><ele>797</ele><time>2019-10-02T13:18:30Z</time><name>PT10126</name></trkpt>
<trkpt lat="54.571065" lon="-3.254024"><ele>797</ele><time>2019-10-02T13:18:31Z</time><name>PT10127</name></trkpt>
<trkpt lat="54.571068" lon="-3.254013"><ele>797</ele><time>2019-10-02T13:18:32Z</time><name>PT10128</name></trkpt>
<trkpt lat="54.571072" lon="-3.253999"><ele>798</ele><time>2019-10-02T13:18:33Z</time><name>PT10129</name></trkpt>
<trkpt lat="54.571074" lon="-3.253985"><ele>798</ele><time>2019-10-02T13:18:34Z</time><name>PT10130</name></trkpt>
<trkpt lat="54.571076" lon="-3.253974"><ele>798</ele><time>2019-10-02T13:18:35Z</time><name>PT10131</name></trkpt>
<trkpt lat="54.571076" lon="-3.253964"><ele>798</ele><time>2019-10-02T13:18:36Z</time><name>PT10132</name></trkpt>
<trkpt lat="54.571076" lon="-3.253947"><ele>798</ele><time>2019-10-02T13:18:37Z</time><name>PT10133</name></trkpt>
<trkpt lat="54.571077" lon="-3.253934"><ele>799</ele><time>2019-10-02T13:18:38Z</time><name>PT10134</name></trkpt>
<trkpt lat="54.571079" lon="-3.253923"><ele>799</ele><time>2019-10-02T13:18:39Z</time><name>PT10135</name></trkpt>
<trkpt lat="54.571079" lon="-3.253906"><ele>799</ele><time>2019-10-02T13:18:40Z</time><name>PT10136</name></trkpt>
<trkpt lat="54.571079" lon="-3.253898"><ele>800</ele><time>2019-10-02T13:18:41Z</time><name>PT10137</name></trkpt>
<trkpt lat="54.571079" lon="-3.253894"><ele>800</ele><time>2019-10-02T13:18:42Z</time><name>PT10138</name></trkpt>
<trkpt lat="54.571078" lon="-3.253886"><ele>800</ele><time>2019-10-02T13:18:43Z</time><name>PT10139</name></trkpt>
<trkpt lat="54.571077" lon="-3.253886"><ele>800</ele><time>2019-10-02T13:18:44Z</time><name>PT10140</name></trkpt>
<trkpt lat="54.571078" lon="-3.253882"><ele>800</ele><time>2019-10-02T13:18:54Z</time><name>PT10141</name></trkpt>
<trkpt lat="54.571080" lon="-3.253869"><ele>800</ele><time>2019-10-02T13:18:55Z</time><name>PT10142</name></trkpt>
<trkpt lat="54.571080" lon="-3.253860"><ele>800</ele><time>2019-10-02T13:18:55Z</time><name>PT10143</name></trkpt>
<trkpt lat="54.571080" lon="-3.253850"><ele>800</ele><time>2019-10-02T13:18:57Z</time><name>PT10144</name></trkpt>
<trkpt lat="54.571079" lon="-3.253840"><ele>801</ele><time>2019-10-02T13:18:58Z</time><name>PT10145</name></trkpt>
<trkpt lat="54.571080" lon="-3.253824"><ele>801</ele><time>2019-10-02T13:18:59Z</time><name>PT10146</name></trkpt>
<trkpt lat="54.571084" lon="-3.253808"><ele>801</ele><time>2019-10-02T13:18:59Z</time><name>PT10147</name></trkpt>
<trkpt lat="54.571088" lon="-3.253796"><ele>801</ele><time>2019-10-02T13:19:01Z</time><name>PT10148</name></trkpt>
<trkpt lat="54.571093" lon="-3.253785"><ele>801</ele><time>2019-10-02T13:19:01Z</time><name>PT10149</name></trkpt>
<trkpt lat="54.571102" lon="-3.253772"><ele>801</ele><time>2019-10-02T13:19:03Z</time><name>PT10150</name></trkpt>
<trkpt lat="54.571108" lon="-3.253763"><ele>801</ele><time>2019-10-02T13:19:03Z</time><name>PT10151</name></trkpt>
<trkpt lat="54.571113" lon="-3.253753"><ele>801</ele><time>2019-10-02T13:19:05Z</time><name>PT10152</name></trkpt>
<trkpt lat="54.571117" lon="-3.253742"><ele>801</ele><time>2019-10-02T13:19:05Z</time><name>PT10153</name></trkpt>
<trkpt lat="54.571121" lon="-3.253726"><ele>802</ele><time>2019-10-02T13:19:07Z</time><name>PT10154</name></trkpt>
<trkpt lat="54.571122" lon="-3.253712"><ele>802</ele><time>2019-10-02T13:19:07Z</time><name>PT10155</name></trkpt>
<trkpt lat="54.571125" lon="-3.253697"><ele>802</ele><time>2019-10-02T13:19:09Z</time><name>PT10156</name></trkpt>
<trkpt lat="54.571129" lon="-3.253681"><ele>802</ele><time>2019-10-02T13:19:09Z</time><name>PT10157</name></trkpt>
<trkpt lat="54.571133" lon="-3.253665"><ele>802</ele><time>2019-10-02T13:19:11Z</time><name>PT10158</name></trkpt>
<trkpt lat="54.571135" lon="-3.253645"><ele>802</ele><time>2019-10-02T13:19:11Z</time><name>PT10159</name></trkpt>
<trkpt lat="54.571137" lon="-3.253630"><ele>803</ele><time>2019-10-02T13:19:13Z</time><name>PT10160</name></trkpt>
<trkpt lat="54.571140" lon="-3.253614"><ele>803</ele><time>2019-10-02T13:19:13Z</time><name>PT10161</name></trkpt>
<trkpt lat="54.571142" lon="-3.253599"><ele>803</ele><time>2019-10-02T13:19:15Z</time><name>PT10162</name></trkpt>
<trkpt lat="54.571142" lon="-3.253583"><ele>804</ele><time>2019-10-02T13:19:15Z</time><name>PT10163</name></trkpt>
<trkpt lat="54.571144" lon="-3.253574"><ele>803</ele><time>2019-10-02T13:19:17Z</time><name>PT10164</name></trkpt>
<trkpt lat="54.571146" lon="-3.253559"><ele>804</ele><time>2019-10-02T13:19:17Z</time><name>PT10165</name></trkpt>
<trkpt lat="54.571148" lon="-3.253541"><ele>804</ele><time>2019-10-02T13:19:19Z</time><name>PT10166</name></trkpt>
<trkpt lat="54.571150" lon="-3.253525"><ele>804</ele><time>2019-10-02T13:19:19Z</time><name>PT10167</name></trkpt>
<trkpt lat="54.571152" lon="-3.253512"><ele>804</ele><time>2019-10-02T13:19:21Z</time><name>PT10168</name></trkpt>
<trkpt lat="54.571156" lon="-3.253498"><ele>805</ele><time>2019-10-02T13:19:21Z</time><name>PT10169</name></trkpt>
<trkpt lat="54.571159" lon="-3.253484"><ele>805</ele><time>2019-10-02T13:19:23Z</time><name>PT10170</name></trkpt>
<trkpt lat="54.571161" lon="-3.253469"><ele>805</ele><time>2019-10-02T13:19:24Z</time><name>PT10171</name></trkpt>
<trkpt lat="54.571163" lon="-3.253459"><ele>805</ele><time>2019-10-02T13:19:25Z</time><name>PT10172</name></trkpt>
<trkpt lat="54.571165" lon="-3.253443"><ele>805</ele><time>2019-10-02T13:19:25Z</time><name>PT10173</name></trkpt>
<trkpt lat="54.571166" lon="-3.253426"><ele>805</ele><time>2019-10-02T13:19:27Z</time><name>PT10174</name></trkpt>
<trkpt lat="54.571167" lon="-3.253410"><ele>805</ele><time>2019-10-02T13:19:27Z</time><name>PT10175</name></trkpt>
<trkpt lat="54.571169" lon="-3.253397"><ele>805</ele><time>2019-10-02T13:19:29Z</time><name>PT10176</name></trkpt>
<trkpt lat="54.571172" lon="-3.253384"><ele>806</ele><time>2019-10-02T13:19:30Z</time><name>PT10177</name></trkpt>
<trkpt lat="54.571173" lon="-3.253369"><ele>805</ele><time>2019-10-02T13:19:31Z</time><name>PT10178</name></trkpt>
<trkpt lat="54.571174" lon="-3.253354"><ele>805</ele><time>2019-10-02T13:19:32Z</time><name>PT10179</name></trkpt>
<trkpt lat="54.571176" lon="-3.253343"><ele>806</ele><time>2019-10-02T13:19:33Z</time><name>PT10180</name></trkpt>
<trkpt lat="54.571178" lon="-3.253331"><ele>806</ele><time>2019-10-02T13:19:34Z</time><name>PT10181</name></trkpt>
<trkpt lat="54.571179" lon="-3.253318"><ele>806</ele><time>2019-10-02T13:19:35Z</time><name>PT10182</name></trkpt>
<trkpt lat="54.571178" lon="-3.253302"><ele>806</ele><time>2019-10-02T13:19:36Z</time><name>PT10183</name></trkpt>
<trkpt lat="54.571180" lon="-3.253289"><ele>806</ele><time>2019-10-02T13:19:37Z</time><name>PT10184</name></trkpt>
<trkpt lat="54.571181" lon="-3.253275"><ele>806</ele><time>2019-10-02T13:19:38Z</time><name>PT10185</name></trkpt>
<trkpt lat="54.571183" lon="-3.253260"><ele>806</ele><time>2019-10-02T13:19:39Z</time><name>PT10186</name></trkpt>
<trkpt lat="54.571184" lon="-3.253244"><ele>806</ele><time>2019-10-02T13:19:40Z</time><name>PT10187</name></trkpt>
<trkpt lat="54.571184" lon="-3.253231"><ele>806</ele><time>2019-10-02T13:19:41Z</time><name>PT10188</name></trkpt>
<trkpt lat="54.571185" lon="-3.253218"><ele>806</ele><time>2019-10-02T13:19:42Z</time><name>PT10189</name></trkpt>
<trkpt lat="54.571187" lon="-3.253203"><ele>806</ele><time>2019-10-02T13:19:43Z</time><name>PT10190</name></trkpt>
<trkpt lat="54.571187" lon="-3.253189"><ele>807</ele><time>2019-10-02T13:19:44Z</time><name>PT10191</name></trkpt>
<trkpt lat="54.571187" lon="-3.253175"><ele>807</ele><time>2019-10-02T13:19:45Z</time><name>PT10192</name></trkpt>
<trkpt lat="54.571188" lon="-3.253163"><ele>807</ele><time>2019-10-02T13:19:46Z</time><name>PT10193</name></trkpt>
<trkpt lat="54.571186" lon="-3.253149"><ele>807</ele><time>2019-10-02T13:19:47Z</time><name>PT10194</name></trkpt>
<trkpt lat="54.571187" lon="-3.253147"><ele>807</ele><time>2019-10-02T13:19:48Z</time><name>PT10195</name></trkpt>
<trkpt lat="54.571188" lon="-3.253149"><ele>807</ele><time>2019-10-02T13:19:49Z</time><name>PT10196</name></trkpt>
<trkpt lat="54.571185" lon="-3.253145"><ele>807</ele><time>2019-10-02T13:19:50Z</time><name>PT10197</name></trkpt>
<trkpt lat="54.571183" lon="-3.253140"><ele>807</ele><time>2019-10-02T13:19:51Z</time><name>PT10198</name></trkpt>
<trkpt lat="54.571183" lon="-3.253127"><ele>807</ele><time>2019-10-02T13:19:52Z</time><name>PT10199</name></trkpt>
<trkpt lat="54.571184" lon="-3.253118"><ele>807</ele><time>2019-10-02T13:19:53Z</time><name>PT10200</name></trkpt>
<trkpt lat="54.571183" lon="-3.253102"><ele>807</ele><time>2019-10-02T13:19:54Z</time><name>PT10201</name></trkpt>
<trkpt lat="54.571182" lon="-3.253090"><ele>807</ele><time>2019-10-02T13:19:55Z</time><name>PT10202</name></trkpt>
<trkpt lat="54.571181" lon="-3.253076"><ele>808</ele><time>2019-10-02T13:19:56Z</time><name>PT10203</name></trkpt>
<trkpt lat="54.571181" lon="-3.253068"><ele>807</ele><time>2019-10-02T13:19:57Z</time><name>PT10204</name></trkpt>
<trkpt lat="54.571181" lon="-3.253055"><ele>807</ele><time>2019-10-02T13:19:58Z</time><name>PT10205</name></trkpt>
<trkpt lat="54.571180" lon="-3.253042"><ele>807</ele><time>2019-10-02T13:19:59Z</time><name>PT10206</name></trkpt>
<trkpt lat="54.571179" lon="-3.253028"><ele>808</ele><time>2019-10-02T13:20:00Z</time><name>PT10207</name></trkpt>
<trkpt lat="54.571181" lon="-3.253015"><ele>808</ele><time>2019-10-02T13:20:01Z</time><name>PT10208</name></trkpt>
<trkpt lat="54.571181" lon="-3.253000"><ele>808</ele><time>2019-10-02T13:20:01Z</time><name>PT10209</name></trkpt>
<trkpt lat="54.571180" lon="-3.252978"><ele>809</ele><time>2019-10-02T13:20:03Z</time><name>PT10210</name></trkpt>
<trkpt lat="54.571178" lon="-3.252960"><ele>809</ele><time>2019-10-02T13:20:03Z</time><name>PT10211</name></trkpt>
<trkpt lat="54.571177" lon="-3.252946"><ele>808</ele><time>2019-10-02T13:20:05Z</time><name>PT10212</name></trkpt>
<trkpt lat="54.571177" lon="-3.252927"><ele>809</ele><time>2019-10-02T13:20:05Z</time><name>PT10213</name></trkpt>
<trkpt lat="54.571175" lon="-3.252908"><ele>809</ele><time>2019-10-02T13:20:07Z</time><name>PT10214</name></trkpt>
<trkpt lat="54.571175" lon="-3.252892"><ele>809</ele><time>2019-10-02T13:20:07Z</time><name>PT10215</name></trkpt>
<trkpt lat="54.571175" lon="-3.252876"><ele>809</ele><time>2019-10-02T13:20:09Z</time><name>PT10216</name></trkpt>
<trkpt lat="54.571176" lon="-3.252861"><ele>809</ele><time>2019-10-02T13:20:09Z</time><name>PT10217</name></trkpt>
<trkpt lat="54.571176" lon="-3.252851"><ele>809</ele><time>2019-10-02T13:20:11Z</time><name>PT10218</name></trkpt>
<trkpt lat="54.571175" lon="-3.252834"><ele>810</ele><time>2019-10-02T13:20:11Z</time><name>PT10219</name></trkpt>
<trkpt lat="54.571174" lon="-3.252821"><ele>810</ele><time>2019-10-02T13:20:13Z</time><name>PT10220</name></trkpt>
<trkpt lat="54.571173" lon="-3.252809"><ele>810</ele><time>2019-10-02T13:20:13Z</time><name>PT10221</name></trkpt>
<trkpt lat="54.571172" lon="-3.252796"><ele>810</ele><time>2019-10-02T13:20:15Z</time><name>PT10222</name></trkpt>
<trkpt lat="54.571169" lon="-3.252782"><ele>810</ele><time>2019-10-02T13:20:15Z</time><name>PT10223</name></trkpt>
<trkpt lat="54.571167" lon="-3.252768"><ele>811</ele><time>2019-10-02T13:20:17Z</time><name>PT10224</name></trkpt>
<trkpt lat="54.571166" lon="-3.252754"><ele>811</ele><time>2019-10-02T13:20:17Z</time><name>PT10225</name></trkpt>
<trkpt lat="54.571166" lon="-3.252737"><ele>812</ele><time>2019-10-02T13:20:19Z</time><name>PT10226</name></trkpt>
<trkpt lat="54.571165" lon="-3.252720"><ele>812</ele><time>2019-10-02T13:20:19Z</time><name>PT10227</name></trkpt>
<trkpt lat="54.571165" lon="-3.252707"><ele>812</ele><time>2019-10-02T13:20:21Z</time><name>PT10228</name></trkpt>
<trkpt lat="54.571164" lon="-3.252696"><ele>812</ele><time>2019-10-02T13:20:21Z</time><name>PT10229</name></trkpt>
<trkpt lat="54.571163" lon="-3.252681"><ele>813</ele><time>2019-10-02T13:20:23Z</time><name>PT10230</name></trkpt>
<trkpt lat="54.571163" lon="-3.252665"><ele>813</ele><time>2019-10-02T13:20:23Z</time><name>PT10231</name></trkpt>
<trkpt lat="54.571162" lon="-3.252647"><ele>814</ele><time>2019-10-02T13:20:25Z</time><name>PT10232</name></trkpt>
<trkpt lat="54.571163" lon="-3.252635"><ele>814</ele><time>2019-10-02T13:20:25Z</time><name>PT10233</name></trkpt>
<trkpt lat="54.571163" lon="-3.252623"><ele>814</ele><time>2019-10-02T13:20:27Z</time><name>PT10234</name></trkpt>
<trkpt lat="54.571164" lon="-3.252611"><ele>815</ele><time>2019-10-02T13:20:27Z</time><name>PT10235</name></trkpt>
<trkpt lat="54.571163" lon="-3.252600"><ele>815</ele><time>2019-10-02T13:20:29Z</time><name>PT10236</name></trkpt>
<trkpt lat="54.571163" lon="-3.252588"><ele>815</ele><time>2019-10-02T13:20:29Z</time><name>PT10237</name></trkpt>
<trkpt lat="54.571162" lon="-3.252579"><ele>815</ele><time>2019-10-02T13:20:31Z</time><name>PT10238</name></trkpt>
<trkpt lat="54.571162" lon="-3.252570"><ele>815</ele><time>2019-10-02T13:20:31Z</time><name>PT10239</name></trkpt>
<trkpt lat="54.571161" lon="-3.252559"><ele>815</ele><time>2019-10-02T13:20:33Z</time><name>PT10240</name></trkpt>
<trkpt lat="54.571160" lon="-3.252547"><ele>815</ele><time>2019-10-02T13:20:33Z</time><name>PT10241</name></trkpt>
<trkpt lat="54.571158" lon="-3.252529"><ele>816</ele><time>2019-10-02T13:20:35Z</time><name>PT10242</name></trkpt>
<trkpt lat="54.571156" lon="-3.252515"><ele>816</ele><time>2019-10-02T13:20:35Z</time><name>PT10243</name></trkpt>
<trkpt lat="54.571155" lon="-3.252497"><ele>816</ele><time>2019-10-02T13:20:37Z</time><name>PT10244</name></trkpt>
<trkpt lat="54.571155" lon="-3.252485"><ele>816</ele><time>2019-10-02T13:20:37Z</time><name>PT10245</name></trkpt>
<trkpt lat="54.571158" lon="-3.252465"><ele>817</ele><time>2019-10-02T13:20:39Z</time><name>PT10246</name></trkpt>
<trkpt lat="54.571161" lon="-3.252457"><ele>817</ele><time>2019-10-02T13:20:39Z</time><name>PT10247</name></trkpt>
<trkpt lat="54.571165" lon="-3.252447"><ele>817</ele><time>2019-10-02T13:20:41Z</time><name>PT10248</name></trkpt>
<trkpt lat="54.571167" lon="-3.252435"><ele>817</ele><time>2019-10-02T13:20:41Z</time><name>PT10249</name></trkpt>
<trkpt lat="54.571170" lon="-3.252422"><ele>818</ele><time>2019-10-02T13:20:43Z</time><name>PT10250</name></trkpt>
<trkpt lat="54.571170" lon="-3.252410"><ele>817</ele><time>2019-10-02T13:20:43Z</time><name>PT10251</name></trkpt>
<trkpt lat="54.571170" lon="-3.252398"><ele>818</ele><time>2019-10-02T13:20:45Z</time><name>PT10252</name></trkpt>
<trkpt lat="54.571173" lon="-3.252390"><ele>818</ele><time>2019-10-02T13:20:45Z</time><name>PT10253</name></trkpt>
<trkpt lat="54.571176" lon="-3.252378"><ele>818</ele><time>2019-10-02T13:20:47Z</time><name>PT10254</name></trkpt>
<trkpt lat="54.571177" lon="-3.252368"><ele>818</ele><time>2019-10-02T13:20:47Z</time><name>PT10255</name></trkpt>
<trkpt lat="54.571181" lon="-3.252359"><ele>819</ele><time>2019-10-02T13:20:49Z</time><name>PT10256</name></trkpt>
<trkpt lat="54.571186" lon="-3.252349"><ele>819</ele><time>2019-10-02T13:20:49Z</time><name>PT10257</name></trkpt>
<trkpt lat="54.571193" lon="-3.252338"><ele>819</ele><time>2019-10-02T13:20:51Z</time><name>PT10258</name></trkpt>
<trkpt lat="54.571198" lon="-3.252330"><ele>819</ele><time>2019-10-02T13:20:51Z</time><name>PT10259</name></trkpt>
<trkpt lat="54.571201" lon="-3.252325"><ele>819</ele><time>2019-10-02T13:20:53Z</time><name>PT10260</name></trkpt>
<trkpt lat="54.571205" lon="-3.252313"><ele>819</ele><time>2019-10-02T13:20:53Z</time><name>PT10261</name></trkpt>
<trkpt lat="54.571210" lon="-3.252300"><ele>820</ele><time>2019-10-02T13:20:55Z</time><name>PT10262</name></trkpt>
<trkpt lat="54.571213" lon="-3.252287"><ele>820</ele><time>2019-10-02T13:20:55Z</time><name>PT10263</name></trkpt>
<trkpt lat="54.571216" lon="-3.252269"><ele>820</ele><time>2019-10-02T13:20:57Z</time><name>PT10264</name></trkpt>
<trkpt lat="54.571221" lon="-3.252257"><ele>821</ele><time>2019-10-02T13:20:57Z</time><name>PT10265</name></trkpt>
<trkpt lat="54.571226" lon="-3.252248"><ele>820</ele><time>2019-10-02T13:20:59Z</time><name>PT10266</name></trkpt>
<trkpt lat="54.571231" lon="-3.252236"><ele>820</ele><time>2019-10-02T13:21:00Z</time><name>PT10267</name></trkpt>
<trkpt lat="54.571235" lon="-3.252222"><ele>821</ele><time>2019-10-02T13:21:01Z</time><name>PT10268</name></trkpt>
<trkpt lat="54.571239" lon="-3.252208"><ele>821</ele><time>2019-10-02T13:21:01Z</time><name>PT10269</name></trkpt>
<trkpt lat="54.571243" lon="-3.252197"><ele>821</ele><time>2019-10-02T13:21:03Z</time><name>PT10270</name></trkpt>
<trkpt lat="54.571246" lon="-3.252187"><ele>821</ele><time>2019-10-02T13:21:03Z</time><name>PT10271</name></trkpt>
<trkpt lat="54.571251" lon="-3.252168"><ele>822</ele><time>2019-10-02T13:21:05Z</time><name>PT10272</name></trkpt>
<trkpt lat="54.571253" lon="-3.252156"><ele>822</ele><time>2019-10-02T13:21:05Z</time><name>PT10273</name></trkpt>
<trkpt lat="54.571258" lon="-3.252144"><ele>822</ele><time>2019-10-02T13:21:07Z</time><name>PT10274</name></trkpt>
<trkpt lat="54.571263" lon="-3.252130"><ele>822</ele><time>2019-10-02T13:21:07Z</time><name>PT10275</name></trkpt>
<trkpt lat="54.571266" lon="-3.252114"><ele>823</ele><time>2019-10-02T13:21:09Z</time><name>PT10276</name></trkpt>
<trkpt lat="54.571267" lon="-3.252100"><ele>823</ele><time>2019-10-02T13:21:10Z</time><name>PT10277</name></trkpt>
<trkpt lat="54.571270" lon="-3.252086"><ele>823</ele><time>2019-10-02T13:21:11Z</time><name>PT10278</name></trkpt>
<trkpt lat="54.571275" lon="-3.252075"><ele>824</ele><time>2019-10-02T13:21:12Z</time><name>PT10279</name></trkpt>
<trkpt lat="54.571280" lon="-3.252061"><ele>824</ele><time>2019-10-02T13:21:13Z</time><name>PT10280</name></trkpt>
<trkpt lat="54.571285" lon="-3.252049"><ele>825</ele><time>2019-10-02T13:21:14Z</time><name>PT10281</name></trkpt>
<trkpt lat="54.571289" lon="-3.252034"><ele>825</ele><time>2019-10-02T13:21:15Z</time><name>PT10282</name></trkpt>
<trkpt lat="54.571294" lon="-3.252021"><ele>825</ele><time>2019-10-02T13:21:16Z</time><name>PT10283</name></trkpt>
<trkpt lat="54.571299" lon="-3.252005"><ele>825</ele><time>2019-10-02T13:21:17Z</time><name>PT10284</name></trkpt>
<trkpt lat="54.571303" lon="-3.251992"><ele>826</ele><time>2019-10-02T13:21:17Z</time><name>PT10285</name></trkpt>
<trkpt lat="54.571307" lon="-3.251979"><ele>826</ele><time>2019-10-02T13:21:19Z</time><name>PT10286</name></trkpt>
<trkpt lat="54.571312" lon="-3.251968"><ele>826</ele><time>2019-10-02T13:21:20Z</time><name>PT10287</name></trkpt>
<trkpt lat="54.571317" lon="-3.251956"><ele>826</ele><time>2019-10-02T13:21:21Z</time><name>PT10288</name></trkpt>
<trkpt lat="54.571323" lon="-3.251943"><ele>826</ele><time>2019-10-02T13:21:22Z</time><name>PT10289</name></trkpt>
<trkpt lat="54.571329" lon="-3.251932"><ele>826</ele><time>2019-10-02T13:21:23Z</time><name>PT10290</name></trkpt>
<trkpt lat="54.571335" lon="-3.251921"><ele>826</ele><time>2019-10-02T13:21:24Z</time><name>PT10291</name></trkpt>
<trkpt lat="54.571342" lon="-3.251909"><ele>827</ele><time>2019-10-02T13:21:25Z</time><name>PT10292</name></trkpt>
<trkpt lat="54.571348" lon="-3.251895"><ele>827</ele><time>2019-10-02T13:21:26Z</time><name>PT10293</name></trkpt>
<trkpt lat="54.571354" lon="-3.251886"><ele>827</ele><time>2019-10-02T13:21:27Z</time><name>PT10294</name></trkpt>
<trkpt lat="54.571360" lon="-3.251870"><ele>827</ele><time>2019-10-02T13:21:28Z</time><name>PT10295</name></trkpt>
<trkpt lat="54.571367" lon="-3.251858"><ele>827</ele><time>2019-10-02T13:21:29Z</time><name>PT10296</name></trkpt>
<trkpt lat="54.571373" lon="-3.251844"><ele>827</ele><time>2019-10-02T13:21:30Z</time><name>PT10297</name></trkpt>
<trkpt lat="54.571377" lon="-3.251833"><ele>827</ele><time>2019-10-02T13:21:31Z</time><name>PT10298</name></trkpt>
<trkpt lat="54.571382" lon="-3.251819"><ele>827</ele><time>2019-10-02T13:21:32Z</time><name>PT10299</name></trkpt>
<trkpt lat="54.571389" lon="-3.251808"><ele>828</ele><time>2019-10-02T13:21:33Z</time><name>PT10300</name></trkpt>
<trkpt lat="54.571394" lon="-3.251797"><ele>828</ele><time>2019-10-02T13:21:33Z</time><name>PT10301</name></trkpt>
<trkpt lat="54.571398" lon="-3.251789"><ele>828</ele><time>2019-10-02T13:21:35Z</time><name>PT10302</name></trkpt>
<trkpt lat="54.571402" lon="-3.251779"><ele>828</ele><time>2019-10-02T13:21:35Z</time><name>PT10303</name></trkpt>
<trkpt lat="54.571408" lon="-3.251774"><ele>828</ele><time>2019-10-02T13:21:37Z</time><name>PT10304</name></trkpt>
<trkpt lat="54.571410" lon="-3.251763"><ele>828</ele><time>2019-10-02T13:21:38Z</time><name>PT10305</name></trkpt>
<trkpt lat="54.571411" lon="-3.251740"><ele>829</ele><time>2019-10-02T13:21:39Z</time><name>PT10306</name></trkpt>
<trkpt lat="54.571414" lon="-3.251726"><ele>829</ele><time>2019-10-02T13:21:39Z</time><name>PT10307</name></trkpt>
<trkpt lat="54.571418" lon="-3.251716"><ele>829</ele><time>2019-10-02T13:21:41Z</time><name>PT10308</name></trkpt>
<trkpt lat="54.571423" lon="-3.251704"><ele>829</ele><time>2019-10-02T13:21:41Z</time><name>PT10309</name></trkpt>
<trkpt lat="54.571428" lon="-3.251692"><ele>829</ele><time>2019-10-02T13:21:43Z</time><name>PT10310</name></trkpt>
<trkpt lat="54.571431" lon="-3.251676"><ele>829</ele><time>2019-10-02T13:21:43Z</time><name>PT10311</name></trkpt>
<trkpt lat="54.571435" lon="-3.251665"><ele>829</ele><time>2019-10-02T13:21:45Z</time><name>PT10312</name></trkpt>
<trkpt lat="54.571439" lon="-3.251652"><ele>829</ele><time>2019-10-02T13:21:45Z</time><name>PT10313</name></trkpt>
<trkpt lat="54.571444" lon="-3.251636"><ele>830</ele><time>2019-10-02T13:21:47Z</time><name>PT10314</name></trkpt>
<trkpt lat="54.571449" lon="-3.251620"><ele>830</ele><time>2019-10-02T13:21:47Z</time><name>PT10315</name></trkpt>
<trkpt lat="54.571453" lon="-3.251609"><ele>830</ele><time>2019-10-02T13:21:49Z</time><name>PT10316</name></trkpt>
<trkpt lat="54.571458" lon="-3.251597"><ele>830</ele><time>2019-10-02T13:21:49Z</time><name>PT10317</name></trkpt>
<trkpt lat="54.571464" lon="-3.251582"><ele>831</ele><time>2019-10-02T13:21:51Z</time><name>PT10318</name></trkpt>
<trkpt lat="54.571471" lon="-3.251564"><ele>831</ele><time>2019-10-02T13:21:51Z</time><name>PT10319</name></trkpt>
<trkpt lat="54.571476" lon="-3.251551"><ele>831</ele><time>2019-10-02T13:21:53Z</time><name>PT10320</name></trkpt>
<trkpt lat="54.571481" lon="-3.251539"><ele>831</ele><time>2019-10-02T13:21:53Z</time><name>PT10321</name></trkpt>
<trkpt lat="54.571488" lon="-3.251523"><ele>831</ele><time>2019-10-02T13:21:55Z</time><name>PT10322</name></trkpt>
<trkpt lat="54.571493" lon="-3.251510"><ele>831</ele><time>2019-10-02T13:21:56Z</time><name>PT10323</name></trkpt>
<trkpt lat="54.571499" lon="-3.251494"><ele>831</ele><time>2019-10-02T13:21:57Z</time><name>PT10324</name></trkpt>
<trkpt lat="54.571504" lon="-3.251479"><ele>831</ele><time>2019-10-02T13:21:57Z</time><name>PT10325</name></trkpt>
<trkpt lat="54.571510" lon="-3.251463"><ele>831</ele><time>2019-10-02T13:21:59Z</time><name>PT10326</name></trkpt>
<trkpt lat="54.571517" lon="-3.251448"><ele>832</ele><time>2019-10-02T13:22:00Z</time><name>PT10327</name></trkpt>
<trkpt lat="54.571522" lon="-3.251435"><ele>832</ele><time>2019-10-02T13:22:01Z</time><name>PT10328</name></trkpt>
<trkpt lat="54.571527" lon="-3.251421"><ele>832</ele><time>2019-10-02T13:22:02Z</time><name>PT10329</name></trkpt>
<trkpt lat="54.571531" lon="-3.251406"><ele>832</ele><time>2019-10-02T13:22:03Z</time><name>PT10330</name></trkpt>
<trkpt lat="54.571537" lon="-3.251390"><ele>832</ele><time>2019-10-02T13:22:04Z</time><name>PT10331</name></trkpt>
<trkpt lat="54.571542" lon="-3.251376"><ele>833</ele><time>2019-10-02T13:22:05Z</time><name>PT10332</name></trkpt>
<trkpt lat="54.571548" lon="-3.251361"><ele>833</ele><time>2019-10-02T13:22:05Z</time><name>PT10333</name></trkpt>
<trkpt lat="54.571554" lon="-3.251349"><ele>833</ele><time>2019-10-02T13:22:07Z</time><name>PT10334</name></trkpt>
<trkpt lat="54.571559" lon="-3.251341"><ele>833</ele><time>2019-10-02T13:22:08Z</time><name>PT10335</name></trkpt>
<trkpt lat="54.571563" lon="-3.251329"><ele>833</ele><time>2019-10-02T13:22:09Z</time><name>PT10336</name></trkpt>
<trkpt lat="54.571568" lon="-3.251315"><ele>834</ele><time>2019-10-02T13:22:10Z</time><name>PT10337</name></trkpt>
<trkpt lat="54.571573" lon="-3.251302"><ele>834</ele><time>2019-10-02T13:22:11Z</time><name>PT10338</name></trkpt>
<trkpt lat="54.571576" lon="-3.251290"><ele>834</ele><time>2019-10-02T13:22:12Z</time><name>PT10339</name></trkpt>
<trkpt lat="54.571582" lon="-3.251280"><ele>834</ele><time>2019-10-02T13:22:13Z</time><name>PT10340</name></trkpt>
<trkpt lat="54.571588" lon="-3.251268"><ele>834</ele><time>2019-10-02T13:22:14Z</time><name>PT10341</name></trkpt>
<trkpt lat="54.571593" lon="-3.251255"><ele>834</ele><time>2019-10-02T13:22:15Z</time><name>PT10342</name></trkpt>
<trkpt lat="54.571598" lon="-3.251242"><ele>834</ele><time>2019-10-02T13:22:16Z</time><name>PT10343</name></trkpt>
<trkpt lat="54.571605" lon="-3.251228"><ele>834</ele><time>2019-10-02T13:22:17Z</time><name>PT10344</name></trkpt>
<trkpt lat="54.571612" lon="-3.251214"><ele>834</ele><time>2019-10-02T13:22:18Z</time><name>PT10345</name></trkpt>
<trkpt lat="54.571617" lon="-3.251205"><ele>834</ele><time>2019-10-02T13:22:19Z</time><name>PT10346</name></trkpt>
<trkpt lat="54.571622" lon="-3.251192"><ele>835</ele><time>2019-10-02T13:22:20Z</time><name>PT10347</name></trkpt>
<trkpt lat="54.571625" lon="-3.251181"><ele>834</ele><time>2019-10-02T13:22:21Z</time><name>PT10348</name></trkpt>
<trkpt lat="54.571631" lon="-3.251167"><ele>834</ele><time>2019-10-02T13:22:22Z</time><name>PT10349</name></trkpt>
<trkpt lat="54.571636" lon="-3.251152"><ele>835</ele><time>2019-10-02T13:22:23Z</time><name>PT10350</name></trkpt>
<trkpt lat="54.571642" lon="-3.251134"><ele>835</ele><time>2019-10-02T13:22:24Z</time><name>PT10351</name></trkpt>
<trkpt lat="54.571648" lon="-3.251120"><ele>835</ele><time>2019-10-02T13:22:25Z</time><name>PT10352</name></trkpt>
<trkpt lat="54.571655" lon="-3.251110"><ele>835</ele><time>2019-10-02T13:22:26Z</time><name>PT10353</name></trkpt>
<trkpt lat="54.571661" lon="-3.251098"><ele>835</ele><time>2019-10-02T13:22:27Z</time><name>PT10354</name></trkpt>
<trkpt lat="54.571668" lon="-3.251084"><ele>835</ele><time>2019-10-02T13:22:28Z</time><name>PT10355</name></trkpt>
<trkpt lat="54.571675" lon="-3.251069"><ele>836</ele><time>2019-10-02T13:22:29Z</time><name>PT10356</name></trkpt>
<trkpt lat="54.571683" lon="-3.251053"><ele>836</ele><time>2019-10-02T13:22:30Z</time><name>PT10357</name></trkpt>
<trkpt lat="54.571690" lon="-3.251042"><ele>836</ele><time>2019-10-02T13:22:31Z</time><name>PT10358</name></trkpt>
<trkpt lat="54.571697" lon="-3.251029"><ele>837</ele><time>2019-10-02T13:22:32Z</time><name>PT10359</name></trkpt>
<trkpt lat="54.571703" lon="-3.251014"><ele>836</ele><time>2019-10-02T13:22:33Z</time><name>PT10360</name></trkpt>
<trkpt lat="54.571710" lon="-3.250998"><ele>837</ele><time>2019-10-02T13:22:33Z</time><name>PT10361</name></trkpt>
<trkpt lat="54.571719" lon="-3.250985"><ele>837</ele><time>2019-10-02T13:22:35Z</time><name>PT10362</name></trkpt>
<trkpt lat="54.571726" lon="-3.250971"><ele>837</ele><time>2019-10-02T13:22:35Z</time><name>PT10363</name></trkpt>
<trkpt lat="54.571733" lon="-3.250954"><ele>837</ele><time>2019-10-02T13:22:37Z</time><name>PT10364</name></trkpt>
<trkpt lat="54.571738" lon="-3.250938"><ele>838</ele><time>2019-10-02T13:22:37Z</time><name>PT10365</name></trkpt>
<trkpt lat="54.571744" lon="-3.250928"><ele>838</ele><time>2019-10-02T13:22:39Z</time><name>PT10366</name></trkpt>
<trkpt lat="54.571752" lon="-3.250914"><ele>838</ele><time>2019-10-02T13:22:39Z</time><name>PT10367</name></trkpt>
<trkpt lat="54.571759" lon="-3.250901"><ele>838</ele><time>2019-10-02T13:22:41Z</time><name>PT10368</name></trkpt>
<trkpt lat="54.571766" lon="-3.250887"><ele>838</ele><time>2019-10-02T13:22:41Z</time><name>PT10369</name></trkpt>
<trkpt lat="54.571772" lon="-3.250876"><ele>838</ele><time>2019-10-02T13:22:43Z</time><name>PT10370</name></trkpt>
<trkpt lat="54.571778" lon="-3.250869"><ele>838</ele><time>2019-10-02T13:22:43Z</time><name>PT10371</name></trkpt>
<trkpt lat="54.571785" lon="-3.250859"><ele>838</ele><time>2019-10-02T13:22:45Z</time><name>PT10372</name></trkpt>
<trkpt lat="54.571791" lon="-3.250846"><ele>838</ele><time>2019-10-02T13:22:46Z</time><name>PT10373</name></trkpt>
<trkpt lat="54.571797" lon="-3.250832"><ele>839</ele><time>2019-10-02T13:22:47Z</time><name>PT10374</name></trkpt>
<trkpt lat="54.571802" lon="-3.250821"><ele>839</ele><time>2019-10-02T13:22:47Z</time><name>PT10375</name></trkpt>
<trkpt lat="54.571808" lon="-3.250810"><ele>839</ele><time>2019-10-02T13:22:49Z</time><name>PT10376</name></trkpt>
<trkpt lat="54.571813" lon="-3.250798"><ele>839</ele><time>2019-10-02T13:22:49Z</time><name>PT10377</name></trkpt>
<trkpt lat="54.571819" lon="-3.250778"><ele>839</ele><time>2019-10-02T13:22:51Z</time><name>PT10378</name></trkpt>
<trkpt lat="54.571825" lon="-3.250763"><ele>839</ele><time>2019-10-02T13:22:51Z</time><name>PT10379</name></trkpt>
<trkpt lat="54.571832" lon="-3.250750"><ele>839</ele><time>2019-10-02T13:22:53Z</time><name>PT10380</name></trkpt>
<trkpt lat="54.571839" lon="-3.250738"><ele>839</ele><time>2019-10-02T13:22:53Z</time><name>PT10381</name></trkpt>
<trkpt lat="54.571845" lon="-3.250723"><ele>839</ele><time>2019-10-02T13:22:55Z</time><name>PT10382</name></trkpt>
<trkpt lat="54.571851" lon="-3.250710"><ele>838</ele><time>2019-10-02T13:22:55Z</time><name>PT10383</name></trkpt>
<trkpt lat="54.571855" lon="-3.250694"><ele>839</ele><time>2019-10-02T13:22:57Z</time><name>PT10384</name></trkpt>
<trkpt lat="54.571861" lon="-3.250679"><ele>839</ele><time>2019-10-02T13:22:57Z</time><name>PT10385</name></trkpt>
<trkpt lat="54.571866" lon="-3.250664"><ele>839</ele><time>2019-10-02T13:22:59Z</time><name>PT10386</name></trkpt>
<trkpt lat="54.571873" lon="-3.250650"><ele>839</ele><time>2019-10-02T13:22:59Z</time><name>PT10387</name></trkpt>
<trkpt lat="54.571880" lon="-3.250635"><ele>839</ele><time>2019-10-02T13:23:01Z</time><name>PT10388</name></trkpt>
<trkpt lat="54.571889" lon="-3.250619"><ele>840</ele><time>2019-10-02T13:23:01Z</time><name>PT10389</name></trkpt>
<trkpt lat="54.571898" lon="-3.250601"><ele>840</ele><time>2019-10-02T13:23:03Z</time><name>PT10390</name></trkpt>
<trkpt lat="54.571906" lon="-3.250586"><ele>840</ele><time>2019-10-02T13:23:03Z</time><name>PT10391</name></trkpt>
<trkpt lat="54.571915" lon="-3.250570"><ele>840</ele><time>2019-10-02T13:23:05Z</time><name>PT10392</name></trkpt>
<trkpt lat="54.571923" lon="-3.250557"><ele>840</ele><time>2019-10-02T13:23:05Z</time><name>PT10393</name></trkpt>
<trkpt lat="54.571929" lon="-3.250542"><ele>840</ele><time>2019-10-02T13:23:07Z</time><name>PT10394</name></trkpt>
<trkpt lat="54.571936" lon="-3.250526"><ele>840</ele><time>2019-10-02T13:23:07Z</time><name>PT10395</name></trkpt>
<trkpt lat="54.571942" lon="-3.250512"><ele>840</ele><time>2019-10-02T13:23:09Z</time><name>PT10396</name></trkpt>
<trkpt lat="54.571948" lon="-3.250496"><ele>840</ele><time>2019-10-02T13:23:09Z</time><name>PT10397</name></trkpt>
<trkpt lat="54.571954" lon="-3.250479"><ele>840</ele><time>2019-10-02T13:23:11Z</time><name>PT10398</name></trkpt>
<trkpt lat="54.571962" lon="-3.250467"><ele>840</ele><time>2019-10-02T13:23:12Z</time><name>PT10399</name></trkpt>
<trkpt lat="54.571970" lon="-3.250452"><ele>840</ele><time>2019-10-02T13:23:13Z</time><name>PT10400</name></trkpt>
<trkpt lat="54.571978" lon="-3.250439"><ele>840</ele><time>2019-10-02T13:23:13Z</time><name>PT10401</name></trkpt>
<trkpt lat="54.571985" lon="-3.250424"><ele>840</ele><time>2019-10-02T13:23:15Z</time><name>PT10402</name></trkpt>
<trkpt lat="54.571992" lon="-3.250415"><ele>840</ele><time>2019-10-02T13:23:15Z</time><name>PT10403</name></trkpt>
<trkpt lat="54.571997" lon="-3.250401"><ele>840</ele><time>2019-10-02T13:23:17Z</time><name>PT10404</name></trkpt>
<trkpt lat="54.572003" lon="-3.250387"><ele>840</ele><time>2019-10-02T13:23:17Z</time><name>PT10405</name></trkpt>
<trkpt lat="54.572009" lon="-3.250374"><ele>840</ele><time>2019-10-02T13:23:19Z</time><name>PT10406</name></trkpt>
<trkpt lat="54.572015" lon="-3.250364"><ele>840</ele><time>2019-10-02T13:23:19Z</time><name>PT10407</name></trkpt>
<trkpt lat="54.572024" lon="-3.250353"><ele>840</ele><time>2019-10-02T13:23:21Z</time><name>PT10408</name></trkpt>
<trkpt lat="54.572032" lon="-3.250349"><ele>840</ele><time>2019-10-02T13:23:21Z</time><name>PT10409</name></trkpt>
<trkpt lat="54.572040" lon="-3.250346"><ele>840</ele><time>2019-10-02T13:23:23Z</time><name>PT10410</name></trkpt>
<trkpt lat="54.572046" lon="-3.250339"><ele>840</ele><time>2019-10-02T13:23:23Z</time><name>PT10411</name></trkpt>
<trkpt lat="54.572051" lon="-3.250330"><ele>840</ele><time>2019-10-02T13:23:25Z</time><name>PT10412</name></trkpt>
<trkpt lat="54.572055" lon="-3.250322"><ele>840</ele><time>2019-10-02T13:23:25Z</time><name>PT10413</name></trkpt>
<trkpt lat="54.572061" lon="-3.250313"><ele>840</ele><time>2019-10-02T13:23:27Z</time><name>PT10414</name></trkpt>
<trkpt lat="54.572066" lon="-3.250308"><ele>840</ele><time>2019-10-02T13:23:27Z</time><name>PT10415</name></trkpt>
<trkpt lat="54.572070" lon="-3.250299"><ele>840</ele><time>2019-10-02T13:23:29Z</time><name>PT10416</name></trkpt>
<trkpt lat="54.572073" lon="-3.250295"><ele>840</ele><time>2019-10-02T13:23:29Z</time><name>PT10417</name></trkpt>
<trkpt lat="54.572078" lon="-3.250293"><ele>840</ele><time>2019-10-02T13:23:31Z</time><name>PT10418</name></trkpt>
<trkpt lat="54.572077" lon="-3.250296"><ele>840</ele><time>2019-10-02T13:23:31Z</time><name>PT10419</name></trkpt>
<trkpt lat="54.572076" lon="-3.250301"><ele>840</ele><time>2019-10-02T13:23:33Z</time><name>PT10420</name></trkpt>
<trkpt lat="54.572072" lon="-3.250307"><ele>840</ele><time>2019-10-02T13:23:33Z</time><name>PT10421</name></trkpt>
<trkpt lat="54.572069" lon="-3.250311"><ele>840</ele><time>2019-10-02T13:23:35Z</time><name>PT10422</name></trkpt>
<trkpt lat="54.572063" lon="-3.250311"><ele>840</ele><time>2019-10-02T13:23:35Z</time><name>PT10423</name></trkpt>
<trkpt lat="54.572057" lon="-3.250310"><ele>840</ele><time>2019-10-02T13:23:37Z</time><name>PT10424</name></trkpt>
<trkpt lat="54.572053" lon="-3.250313"><ele>840</ele><time>2019-10-02T13:23:37Z</time><name>PT10425</name></trkpt>
<trkpt lat="54.572051" lon="-3.250311"><ele>841</ele><time>2019-10-02T13:23:39Z</time><name>PT10426</name></trkpt>
<trkpt lat="54.572056" lon="-3.250305"><ele>841</ele><time>2019-10-02T13:23:40Z</time><name>PT10427</name></trkpt>
<trkpt lat="54.572058" lon="-3.250296"><ele>842</ele><time>2019-10-02T13:23:41Z</time><name>PT10428</name></trkpt>
<trkpt lat="54.572061" lon="-3.250285"><ele>842</ele><time>2019-10-02T13:23:42Z</time><name>PT10429</name></trkpt>
<trkpt lat="54.572065" lon="-3.250274"><ele>841</ele><time>2019-10-02T13:23:43Z</time><name>PT10430</name></trkpt>
<trkpt lat="54.572070" lon="-3.250265"><ele>841</ele><time>2019-10-02T13:23:44Z</time><name>PT10431</name></trkpt>
<trkpt lat="54.572073" lon="-3.250258"><ele>840</ele><time>2019-10-02T13:23:45Z</time><name>PT10432</name></trkpt>
<trkpt lat="54.572078" lon="-3.250248"><ele>840</ele><time>2019-10-02T13:23:46Z</time><name>PT10433</name></trkpt>
<trkpt lat="54.572080" lon="-3.250243"><ele>841</ele><time>2019-10-02T13:23:47Z</time><name>PT10434</name></trkpt>
<trkpt lat="54.572079" lon="-3.250251"><ele>840</ele><time>2019-10-02T13:23:48Z</time><name>PT10435</name></trkpt>
<trkpt lat="54.572079" lon="-3.250256"><ele>840</ele><time>2019-10-02T13:23:49Z</time><name>PT10436</name></trkpt>
<trkpt lat="54.572079" lon="-3.250257"><ele>840</ele><time>2019-10-02T13:23:50Z</time><name>PT10437</name></trkpt>
<trkpt lat="54.572080" lon="-3.250260"><ele>840</ele><time>2019-10-02T13:23:51Z</time><name>PT10438</name></trkpt>
<trkpt lat="54.572078" lon="-3.250265"><ele>840</ele><time>2019-10-02T13:23:56Z</time><name>PT10439</name></trkpt>
<trkpt lat="54.572075" lon="-3.250265"><ele>840</ele><time>2019-10-02T13:23:57Z</time><name>PT10440</name></trkpt>
<trkpt lat="54.572076" lon="-3.250262"><ele>840</ele><time>2019-10-02T13:23:58Z</time><name>PT10441</name></trkpt>
<trkpt lat="54.572078" lon="-3.250259"><ele>841</ele><time>2019-10-02T13:24:23Z</time><name>PT10442</name></trkpt>
<trkpt lat="54.572079" lon="-3.250263"><ele>841</ele><time>2019-10-02T13:24:23Z</time><name>PT10443</name></trkpt>
<trkpt lat="54.572078" lon="-3.250265"><ele>841</ele><time>2019-10-02T13:24:25Z</time><name>PT10444</name></trkpt>
<trkpt lat="54.572078" lon="-3.250266"><ele>841</ele><time>2019-10-02T13:24:27Z</time><name>PT10445</name></trkpt>
<trkpt lat="54.572079" lon="-3.250268"><ele>841</ele><time>2019-10-02T13:24:27Z</time><name>PT10446</name></trkpt>
<trkpt lat="54.572080" lon="-3.250263"><ele>841</ele><time>2019-10-02T13:24:37Z</time><name>PT10447</name></trkpt>
<trkpt lat="54.572081" lon="-3.250274"><ele>841</ele><time>2019-10-02T13:24:39Z</time><name>PT10448</name></trkpt>
<trkpt lat="54.572081" lon="-3.250286"><ele>841</ele><time>2019-10-02T13:24:39Z</time><name>PT10449</name></trkpt>
<trkpt lat="54.572082" lon="-3.250303"><ele>841</ele><time>2019-10-02T13:24:41Z</time><name>PT10450</name></trkpt>
<trkpt lat="54.572082" lon="-3.250313"><ele>841</ele><time>2019-10-02T13:24:41Z</time><name>PT10451</name></trkpt>
<trkpt lat="54.572082" lon="-3.250317"><ele>841</ele><time>2019-10-02T13:24:43Z</time><name>PT10452</name></trkpt>
<trkpt lat="54.572080" lon="-3.250313"><ele>841</ele><time>2019-10-02T13:24:43Z</time><name>PT10453</name></trkpt>
<trkpt lat="54.572080" lon="-3.250311"><ele>841</ele><time>2019-10-02T13:24:45Z</time><name>PT10454</name></trkpt>
<trkpt lat="54.572077" lon="-3.250312"><ele>841</ele><time>2019-10-02T13:24:53Z</time><name>PT10455</name></trkpt>
<trkpt lat="54.572069" lon="-3.250317"><ele>841</ele><time>2019-10-02T13:24:53Z</time><name>PT10456</name></trkpt>
<trkpt lat="54.572059" lon="-3.250314"><ele>841</ele><time>2019-10-02T13:24:55Z</time><name>PT10457</name></trkpt>
<trkpt lat="54.572051" lon="-3.250311"><ele>841</ele><time>2019-10-02T13:24:55Z</time><name>PT10458</name></trkpt>
<trkpt lat="54.572045" lon="-3.250306"><ele>842</ele><time>2019-10-02T13:24:57Z</time><name>PT10459</name></trkpt>
<trkpt lat="54.572043" lon="-3.250300"><ele>842</ele><time>2019-10-02T13:24:57Z</time><name>PT10460</name></trkpt>
<trkpt lat="54.572040" lon="-3.250293"><ele>842</ele><time>2019-10-02T13:24:59Z</time><name>PT10461</name></trkpt>
<trkpt lat="54.572043" lon="-3.250287"><ele>842</ele><time>2019-10-02T13:25:01Z</time><name>PT10462</name></trkpt>
<trkpt lat="54.572044" lon="-3.250288"><ele>842</ele><time>2019-10-02T13:25:03Z</time><name>PT10463</name></trkpt>
<trkpt lat="54.572046" lon="-3.250287"><ele>842</ele><time>2019-10-02T13:25:03Z</time><name>PT10464</name></trkpt>
<trkpt lat="54.572044" lon="-3.250290"><ele>841</ele><time>2019-10-02T13:25:05Z</time><name>PT10465</name></trkpt>
<trkpt lat="54.572044" lon="-3.250289"><ele>842</ele><time>2019-10-02T13:25:07Z</time><name>PT10466</name></trkpt>
<trkpt lat="54.572047" lon="-3.250289"><ele>842</ele><time>2019-10-02T13:25:07Z</time><name>PT10467</name></trkpt>
<trkpt lat="54.572051" lon="-3.250287"><ele>843</ele><time>2019-10-02T13:25:09Z</time><name>PT10468</name></trkpt>
<trkpt lat="54.572045" lon="-3.250289"><ele>842</ele><time>2019-10-02T13:25:09Z</time><name>PT10469</name></trkpt>
<trkpt lat="54.572043" lon="-3.250286"><ele>842</ele><time>2019-10-02T13:25:11Z</time><name>PT10470</name></trkpt>
<trkpt lat="54.572048" lon="-3.250288"><ele>843</ele><time>2019-10-02T13:25:11Z</time><name>PT10471</name></trkpt>
<trkpt lat="54.572052" lon="-3.250289"><ele>842</ele><time>2019-10-02T13:25:13Z</time><name>PT10472</name></trkpt>
<trkpt lat="54.572053" lon="-3.250292"><ele>842</ele><time>2019-10-02T13:25:13Z</time><name>PT10473</name></trkpt>
<trkpt lat="54.572050" lon="-3.250289"><ele>841</ele><time>2019-10-02T13:25:15Z</time><name>PT10474</name></trkpt>
<trkpt lat="54.572051" lon="-3.250283"><ele>841</ele><time>2019-10-02T13:25:15Z</time><name>PT10475</name></trkpt>
<trkpt lat="54.572052" lon="-3.250283"><ele>841</ele><time>2019-10-02T13:25:17Z</time><name>PT10476</name></trkpt>
<trkpt lat="54.572043" lon="-3.250287"><ele>840</ele><time>2019-10-02T13:25:17Z</time><name>PT10477</name></trkpt>
<trkpt lat="54.572042" lon="-3.250285"><ele>840</ele><time>2019-10-02T13:25:19Z</time><name>PT10478</name></trkpt>
<trkpt lat="54.572045" lon="-3.250280"><ele>840</ele><time>2019-10-02T13:25:19Z</time><name>PT10479</name></trkpt>
<trkpt lat="54.572048" lon="-3.250279"><ele>841</ele><time>2019-10-02T13:25:21Z</time><name>PT10480</name></trkpt>
<trkpt lat="54.572050" lon="-3.250278"><ele>841</ele><time>2019-10-02T13:25:22Z</time><name>PT10481</name></trkpt>
<trkpt lat="54.572053" lon="-3.250276"><ele>842</ele><time>2019-10-02T13:25:23Z</time><name>PT10482</name></trkpt>
<trkpt lat="54.572055" lon="-3.250274"><ele>842</ele><time>2019-10-02T13:25:24Z</time><name>PT10483</name></trkpt>
<trkpt lat="54.572056" lon="-3.250272"><ele>842</ele><time>2019-10-02T13:25:25Z</time><name>PT10484</name></trkpt>
<trkpt lat="54.572057" lon="-3.250276"><ele>842</ele><time>2019-10-02T13:25:32Z</time><name>PT10485</name></trkpt>
<trkpt lat="54.572055" lon="-3.250276"><ele>842</ele><time>2019-10-02T13:25:33Z</time><name>PT10486</name></trkpt>
<trkpt lat="54.572052" lon="-3.250281"><ele>842</ele><time>2019-10-02T13:25:34Z</time><name>PT10487</name></trkpt>
<trkpt lat="54.572052" lon="-3.250281"><ele>842</ele><time>2019-10-02T13:25:35Z</time><name>PT10488</name></trkpt>
<trkpt lat="54.572058" lon="-3.250280"><ele>843</ele><time>2019-10-02T13:25:38Z</time><name>PT10489</name></trkpt>
<trkpt lat="54.572061" lon="-3.250277"><ele>842</ele><time>2019-10-02T13:25:39Z</time><name>PT10490</name></trkpt>
<trkpt lat="54.572065" lon="-3.250265"><ele>842</ele><time>2019-10-02T13:25:40Z</time><name>PT10491</name></trkpt>
<trkpt lat="54.572065" lon="-3.250264"><ele>842</ele><time>2019-10-02T13:25:41Z</time><name>PT10492</name></trkpt>
<trkpt lat="54.572066" lon="-3.250264"><ele>841</ele><time>2019-10-02T13:25:41Z</time><name>PT10493</name></trkpt>
<trkpt lat="54.572071" lon="-3.250260"><ele>841</ele><time>2019-10-02T13:25:46Z</time><name>PT10494</name></trkpt>
<trkpt lat="54.572072" lon="-3.250262"><ele>840</ele><time>2019-10-02T13:25:47Z</time><name>PT10495</name></trkpt>
<trkpt lat="54.572072" lon="-3.250269"><ele>840</ele><time>2019-10-02T13:26:13Z</time><name>PT10496</name></trkpt>
<trkpt lat="54.572071" lon="-3.250270"><ele>840</ele><time>2019-10-02T13:26:15Z</time><name>PT10497</name></trkpt>
<trkpt lat="54.572071" lon="-3.250271"><ele>840</ele><time>2019-10-02T13:26:16Z</time><name>PT10498</name></trkpt>
<trkpt lat="54.572069" lon="-3.250274"><ele>839</ele><time>2019-10-02T13:26:17Z</time><name>PT10499</name></trkpt>
<trkpt lat="54.572068" lon="-3.250271"><ele>840</ele><time>2019-10-02T13:26:31Z</time><name>PT10500</name></trkpt>
<trkpt lat="54.572067" lon="-3.250265"><ele>840</ele><time>2019-10-02T13:26:31Z</time><name>PT10501</name></trkpt>
<trkpt lat="54.572062" lon="-3.250257"><ele>840</ele><time>2019-10-02T13:26:33Z</time><name>PT10502</name></trkpt>
<trkpt lat="54.572056" lon="-3.250248"><ele>840</ele><time>2019-10-02T13:26:33Z</time><name>PT10503</name></trkpt>
<trkpt lat="54.572049" lon="-3.250237"><ele>840</ele><time>2019-10-02T13:26:35Z</time><name>PT10504</name></trkpt>
<trkpt lat="54.572040" lon="-3.250226"><ele>840</ele><time>2019-10-02T13:26:35Z</time><name>PT10505</name></trkpt>
<trkpt lat="54.572031" lon="-3.250214"><ele>840</ele><time>2019-10-02T13:26:37Z</time><name>PT10506</name></trkpt>
<trkpt lat="54.572023" lon="-3.250201"><ele>840</ele><time>2019-10-02T13:26:37Z</time><name>PT10507</name></trkpt>
<trkpt lat="54.572015" lon="-3.250188"><ele>840</ele><time>2019-10-02T13:26:39Z</time><name>PT10508</name></trkpt>
<trkpt lat="54.572010" lon="-3.250177"><ele>840</ele><time>2019-10-02T13:26:39Z</time><name>PT10509</name></trkpt>
<trkpt lat="54.572002" lon="-3.250164"><ele>840</ele><time>2019-10-02T13:26:41Z</time><name>PT10510</name></trkpt>
<trkpt lat="54.571995" lon="-3.250153"><ele>840</ele><time>2019-10-02T13:26:41Z</time><name>PT10511</name></trkpt>
<trkpt lat="54.571986" lon="-3.250138"><ele>840</ele><time>2019-10-02T13:26:43Z</time><name>PT10512</name></trkpt>
<trkpt lat="54.571978" lon="-3.250123"><ele>840</ele><time>2019-10-02T13:26:43Z</time><name>PT10513</name></trkpt>
<trkpt lat="54.571971" lon="-3.250104"><ele>839</ele><time>2019-10-02T13:26:45Z</time><name>PT10514</name></trkpt>
<trkpt lat="54.571956" lon="-3.250086"><ele>840</ele><time>2019-10-02T13:26:45Z</time><name>PT10515</name></trkpt>
<trkpt lat="54.571949" lon="-3.250074"><ele>840</ele><time>2019-10-02T13:26:47Z</time><name>PT10516</name></trkpt>
<trkpt lat="54.571942" lon="-3.250063"><ele>840</ele><time>2019-10-02T13:26:47Z</time><name>PT10517</name></trkpt>
<trkpt lat="54.571933" lon="-3.250049"><ele>840</ele><time>2019-10-02T13:26:49Z</time><name>PT10518</name></trkpt>
<trkpt lat="54.571926" lon="-3.250038"><ele>840</ele><time>2019-10-02T13:26:50Z</time><name>PT10519</name></trkpt>
<trkpt lat="54.571920" lon="-3.250021"><ele>841</ele><time>2019-10-02T13:26:51Z</time><name>PT10520</name></trkpt>
<trkpt lat="54.571910" lon="-3.250007"><ele>841</ele><time>2019-10-02T13:26:52Z</time><name>PT10521</name></trkpt>
<trkpt lat="54.571901" lon="-3.249993"><ele>841</ele><time>2019-10-02T13:26:53Z</time><name>PT10522</name></trkpt>
<trkpt lat="54.571893" lon="-3.249981"><ele>840</ele><time>2019-10-02T13:26:54Z</time><name>PT10523</name></trkpt>
<trkpt lat="54.571885" lon="-3.249967"><ele>841</ele><time>2019-10-02T13:26:55Z</time><name>PT10524</name></trkpt>
<trkpt lat="54.571878" lon="-3.249952"><ele>840</ele><time>2019-10-02T13:26:56Z</time><name>PT10525</name></trkpt>
<trkpt lat="54.571869" lon="-3.249940"><ele>840</ele><time>2019-10-02T13:26:57Z</time><name>PT10526</name></trkpt>
<trkpt lat="54.571860" lon="-3.249927"><ele>840</ele><time>2019-10-02T13:26:58Z</time><name>PT10527</name></trkpt>
<trkpt lat="54.571852" lon="-3.249913"><ele>840</ele><time>2019-10-02T13:26:59Z</time><name>PT10528</name></trkpt>
<trkpt lat="54.571845" lon="-3.249898"><ele>840</ele><time>2019-10-02T13:27:00Z</time><name>PT10529</name></trkpt>
<trkpt lat="54.571837" lon="-3.249884"><ele>840</ele><time>2019-10-02T13:27:01Z</time><name>PT10530</name></trkpt>
<trkpt lat="54.571828" lon="-3.249871"><ele>840</ele><time>2019-10-02T13:27:02Z</time><name>PT10531</name></trkpt>
<trkpt lat="54.571824" lon="-3.249860"><ele>840</ele><time>2019-10-02T13:27:03Z</time><name>PT10532</name></trkpt>
<trkpt lat="54.571819" lon="-3.249848"><ele>840</ele><time>2019-10-02T13:27:04Z</time><name>PT10533</name></trkpt>
<trkpt lat="54.571815" lon="-3.249835"><ele>840</ele><time>2019-10-02T13:27:05Z</time><name>PT10534</name></trkpt>
<trkpt lat="54.571809" lon="-3.249822"><ele>840</ele><time>2019-10-02T13:27:06Z</time><name>PT10535</name></trkpt>
<trkpt lat="54.571804" lon="-3.249811"><ele>840</ele><time>2019-10-02T13:27:07Z</time><name>PT10536</name></trkpt>
<trkpt lat="54.571798" lon="-3.249801"><ele>840</ele><time>2019-10-02T13:27:08Z</time><name>PT10537</name></trkpt>
<trkpt lat="54.571797" lon="-3.249790"><ele>840</ele><time>2019-10-02T13:27:09Z</time><name>PT10538</name></trkpt>
<trkpt lat="54.571796" lon="-3.249780"><ele>840</ele><time>2019-10-02T13:27:10Z</time><name>PT10539</name></trkpt>
<trkpt lat="54.571796" lon="-3.249771"><ele>840</ele><time>2019-10-02T13:27:11Z</time><name>PT10540</name></trkpt>
<trkpt lat="54.571797" lon="-3.249764"><ele>840</ele><time>2019-10-02T13:27:12Z</time><name>PT10541</name></trkpt>
<trkpt lat="54.571797" lon="-3.249757"><ele>840</ele><time>2019-10-02T13:27:13Z</time><name>PT10542</name></trkpt>
<trkpt lat="54.571797" lon="-3.249745"><ele>840</ele><time>2019-10-02T13:27:13Z</time><name>PT10543</name></trkpt>
<trkpt lat="54.571798" lon="-3.249734"><ele>840</ele><time>2019-10-02T13:27:15Z</time><name>PT10544</name></trkpt>
<trkpt lat="54.571800" lon="-3.249727"><ele>840</ele><time>2019-10-02T13:27:15Z</time><name>PT10545</name></trkpt>
<trkpt lat="54.571801" lon="-3.249725"><ele>840</ele><time>2019-10-02T13:27:17Z</time><name>PT10546</name></trkpt>
<trkpt lat="54.571801" lon="-3.249725"><ele>840</ele><time>2019-10-02T13:27:17Z</time><name>PT10547</name></trkpt>
<trkpt lat="54.571801" lon="-3.249724"><ele>840</ele><time>2019-10-02T13:27:19Z</time><name>PT10548</name></trkpt>
<trkpt lat="54.571798" lon="-3.249726"><ele>840</ele><time>2019-10-02T13:27:27Z</time><name>PT10549</name></trkpt>
<trkpt lat="54.571798" lon="-3.249726"><ele>840</ele><time>2019-10-02T13:27:29Z</time><name>PT10550</name></trkpt>
<trkpt lat="54.571799" lon="-3.249725"><ele>840</ele><time>2019-10-02T13:27:29Z</time><name>PT10551</name></trkpt>
<trkpt lat="54.571800" lon="-3.249725"><ele>840</ele><time>2019-10-02T13:27:31Z</time><name>PT10552</name></trkpt>
<trkpt lat="54.571800" lon="-3.249725"><ele>840</ele><time>2019-10-02T13:27:31Z</time><name>PT10553</name></trkpt>
<trkpt lat="54.571802" lon="-3.249720"><ele>840</ele><time>2019-10-02T13:27:39Z</time><name>PT10554</name></trkpt>
<trkpt lat="54.571800" lon="-3.249729"><ele>840</ele><time>2019-10-02T13:27:41Z</time><name>PT10555</name></trkpt>
<trkpt lat="54.571800" lon="-3.249734"><ele>840</ele><time>2019-10-02T13:27:42Z</time><name>PT10556</name></trkpt>
<trkpt lat="54.571799" lon="-3.249737"><ele>840</ele><time>2019-10-02T13:27:43Z</time><name>PT10557</name></trkpt>
<trkpt lat="54.571799" lon="-3.249735"><ele>840</ele><time>2019-10-02T13:27:43Z</time><name>PT10558</name></trkpt>
<trkpt lat="54.571801" lon="-3.249732"><ele>840</ele><time>2019-10-02T13:27:45Z</time><name>PT10559</name></trkpt>
<trkpt lat="54.571803" lon="-3.249728"><ele>840</ele><time>2019-10-02T13:27:45Z</time><name>PT10560</name></trkpt>
<trkpt lat="54.571804" lon="-3.249722"><ele>840</ele><time>2019-10-02T13:27:47Z</time><name>PT10561</name></trkpt>
<trkpt lat="54.571804" lon="-3.249719"><ele>841</ele><time>2019-10-02T13:27:48Z</time><name>PT10562</name></trkpt>
<trkpt lat="54.571800" lon="-3.249714"><ele>841</ele><time>2019-10-02T13:27:55Z</time><name>PT10563</name></trkpt>
<trkpt lat="54.571787" lon="-3.249713"><ele>842</ele><time>2019-10-02T13:27:56Z</time><name>PT10564</name></trkpt>
<trkpt lat="54.571775" lon="-3.249710"><ele>842</ele><time>2019-10-02T13:27:57Z</time><name>PT10565</name></trkpt>
<trkpt lat="54.571767" lon="-3.249702"><ele>841</ele><time>2019-10-02T13:27:58Z</time><name>PT10566</name></trkpt>
<trkpt lat="54.571760" lon="-3.249692"><ele>841</ele><time>2019-10-02T13:27:59Z</time><name>PT10567</name></trkpt>
<trkpt lat="54.571749" lon="-3.249684"><ele>841</ele><time>2019-10-02T13:28:00Z</time><name>PT10568</name></trkpt>
<trkpt lat="54.571739" lon="-3.249677"><ele>841</ele><time>2019-10-02T13:28:01Z</time><name>PT10569</name></trkpt>
<trkpt lat="54.571727" lon="-3.249669"><ele>841</ele><time>2019-10-02T13:28:02Z</time><name>PT10570</name></trkpt>
<trkpt lat="54.571716" lon="-3.249655"><ele>841</ele><time>2019-10-02T13:28:03Z</time><name>PT10571</name></trkpt>
<trkpt lat="54.571707" lon="-3.249640"><ele>840</ele><time>2019-10-02T13:28:04Z</time><name>PT10572</name></trkpt>
<trkpt lat="54.571700" lon="-3.249631"><ele>840</ele><time>2019-10-02T13:28:05Z</time><name>PT10573</name></trkpt>
<trkpt lat="54.571693" lon="-3.249614"><ele>840</ele><time>2019-10-02T13:28:06Z</time><name>PT10574</name></trkpt>
<trkpt lat="54.571685" lon="-3.249598"><ele>841</ele><time>2019-10-02T13:28:07Z</time><name>PT10575</name></trkpt>
<trkpt lat="54.571678" lon="-3.249579"><ele>841</ele><time>2019-10-02T13:28:08Z</time><name>PT10576</name></trkpt>
<trkpt lat="54.571671" lon="-3.249562"><ele>841</ele><time>2019-10-02T13:28:09Z</time><name>PT10577</name></trkpt>
<trkpt lat="54.571661" lon="-3.249545"><ele>840</ele><time>2019-10-02T13:28:10Z</time><name>PT10578</name></trkpt>
<trkpt lat="54.571654" lon="-3.249531"><ele>840</ele><time>2019-10-02T13:28:11Z</time><name>PT10579</name></trkpt>
<trkpt lat="54.571650" lon="-3.249517"><ele>840</ele><time>2019-10-02T13:28:12Z</time><name>PT10580</name></trkpt>
<trkpt lat="54.571642" lon="-3.249503"><ele>840</ele><time>2019-10-02T13:28:13Z</time><name>PT10581</name></trkpt>
<trkpt lat="54.571635" lon="-3.249486"><ele>839</ele><time>2019-10-02T13:28:14Z</time><name>PT10582</name></trkpt>
<trkpt lat="54.571629" lon="-3.249466"><ele>839</ele><time>2019-10-02T13:28:15Z</time><name>PT10583</name></trkpt>
<trkpt lat="54.571625" lon="-3.249448"><ele>839</ele><time>2019-10-02T13:28:16Z</time><name>PT10584</name></trkpt>
<trkpt lat="54.571620" lon="-3.249429"><ele>839</ele><time>2019-10-02T13:28:17Z</time><name>PT10585</name></trkpt>
<trkpt lat="54.571612" lon="-3.249411"><ele>839</ele><time>2019-10-02T13:28:17Z</time><name>PT10586</name></trkpt>
<trkpt lat="54.571605" lon="-3.249394"><ele>838</ele><time>2019-10-02T13:28:19Z</time><name>PT10587</name></trkpt>
<trkpt lat="54.571600" lon="-3.249379"><ele>838</ele><time>2019-10-02T13:28:19Z</time><name>PT10588</name></trkpt>
<trkpt lat="54.571597" lon="-3.249364"><ele>838</ele><time>2019-10-02T13:28:21Z</time><name>PT10589</name></trkpt>
<trkpt lat="54.571594" lon="-3.249348"><ele>838</ele><time>2019-10-02T13:28:21Z</time><name>PT10590</name></trkpt>
<trkpt lat="54.571591" lon="-3.249330"><ele>838</ele><time>2019-10-02T13:28:23Z</time><name>PT10591</name></trkpt>
<trkpt lat="54.571587" lon="-3.249313"><ele>838</ele><time>2019-10-02T13:28:23Z</time><name>PT10592</name></trkpt>
<trkpt lat="54.571582" lon="-3.249299"><ele>838</ele><time>2019-10-02T13:28:25Z</time><name>PT10593</name></trkpt>
<trkpt lat="54.571576" lon="-3.249288"><ele>838</ele><time>2019-10-02T13:28:25Z</time><name>PT10594</name></trkpt>
<trkpt lat="54.571570" lon="-3.249274"><ele>837</ele><time>2019-10-02T13:28:27Z</time><name>PT10595</name></trkpt>
<trkpt lat="54.571564" lon="-3.249258"><ele>837</ele><time>2019-10-02T13:28:27Z</time><name>PT10596</name></trkpt>
<trkpt lat="54.571559" lon="-3.249243"><ele>837</ele><time>2019-10-02T13:28:29Z</time><name>PT10597</name></trkpt>
<trkpt lat="54.571556" lon="-3.249229"><ele>837</ele><time>2019-10-02T13:28:29Z</time><name>PT10598</name></trkpt>
<trkpt lat="54.571557" lon="-3.249213"><ele>836</ele><time>2019-10-02T13:28:31Z</time><name>PT10599</name></trkpt>
<trkpt lat="54.571560" lon="-3.249199"><ele>836</ele><time>2019-10-02T13:28:31Z</time><name>PT10600</name></trkpt>
<trkpt lat="54.571562" lon="-3.249188"><ele>836</ele><time>2019-10-02T13:28:33Z</time><name>PT10601</name></trkpt>
<trkpt lat="54.571560" lon="-3.249176"><ele>836</ele><time>2019-10-02T13:28:33Z</time><name>PT10602</name></trkpt>
<trkpt lat="54.571557" lon="-3.249164"><ele>836</ele><time>2019-10-02T13:28:35Z</time><name>PT10603</name></trkpt>
<trkpt lat="54.571555" lon="-3.249150"><ele>835</ele><time>2019-10-02T13:28:35Z</time><name>PT10604</name></trkpt>
<trkpt lat="54.571552" lon="-3.249133"><ele>835</ele><time>2019-10-02T13:28:37Z</time><name>PT10605</name></trkpt>
<trkpt lat="54.571549" lon="-3.249116"><ele>835</ele><time>2019-10-02T13:28:37Z</time><name>PT10606</name></trkpt>
<trkpt lat="54.571548" lon="-3.249096"><ele>835</ele><time>2019-10-02T13:28:39Z</time><name>PT10607</name></trkpt>
<trkpt lat="54.571548" lon="-3.249076"><ele>835</ele><time>2019-10-02T13:28:39Z</time><name>PT10608</name></trkpt>
<trkpt lat="54.571547" lon="-3.249059"><ele>835</ele><time>2019-10-02T13:28:41Z</time><name>PT10609</name></trkpt>
<trkpt lat="54.571546" lon="-3.249039"><ele>835</ele><time>2019-10-02T13:28:41Z</time><name>PT10610</name></trkpt>
<trkpt lat="54.571543" lon="-3.249017"><ele>834</ele><time>2019-10-02T13:28:43Z</time><name>PT10611</name></trkpt>
<trkpt lat="54.571540" lon="-3.248997"><ele>834</ele><time>2019-10-02T13:28:43Z</time><name>PT10612</name></trkpt>
<trkpt lat="54.571537" lon="-3.248982"><ele>834</ele><time>2019-10-02T13:28:45Z</time><name>PT10613</name></trkpt>
<trkpt lat="54.571533" lon="-3.248966"><ele>834</ele><time>2019-10-02T13:28:45Z</time><name>PT10614</name></trkpt>
<trkpt lat="54.571528" lon="-3.248953"><ele>833</ele><time>2019-10-02T13:28:47Z</time><name>PT10615</name></trkpt>
<trkpt lat="54.571522" lon="-3.248947"><ele>833</ele><time>2019-10-02T13:28:47Z</time><name>PT10616</name></trkpt>
<trkpt lat="54.571515" lon="-3.248942"><ele>833</ele><time>2019-10-02T13:28:49Z</time><name>PT10617</name></trkpt>
<trkpt lat="54.571508" lon="-3.248939"><ele>833</ele><time>2019-10-02T13:28:50Z</time><name>PT10618</name></trkpt>
<trkpt lat="54.571501" lon="-3.248939"><ele>832</ele><time>2019-10-02T13:28:51Z</time><name>PT10619</name></trkpt>
<trkpt lat="54.571495" lon="-3.248941"><ele>832</ele><time>2019-10-02T13:28:52Z</time><name>PT10620</name></trkpt>
<trkpt lat="54.571487" lon="-3.248946"><ele>832</ele><time>2019-10-02T13:28:53Z</time><name>PT10621</name></trkpt>
<trkpt lat="54.571480" lon="-3.248951"><ele>832</ele><time>2019-10-02T13:28:54Z</time><name>PT10622</name></trkpt>
<trkpt lat="54.571474" lon="-3.248955"><ele>832</ele><time>2019-10-02T13:28:55Z</time><name>PT10623</name></trkpt>
<trkpt lat="54.571468" lon="-3.248961"><ele>832</ele><time>2019-10-02T13:28:56Z</time><name>PT10624</name></trkpt>
<trkpt lat="54.571464" lon="-3.248967"><ele>831</ele><time>2019-10-02T13:28:57Z</time><name>PT10625</name></trkpt>
<trkpt lat="54.571460" lon="-3.248975"><ele>831</ele><time>2019-10-02T13:28:57Z</time><name>PT10626</name></trkpt>
<trkpt lat="54.571455" lon="-3.248980"><ele>831</ele><time>2019-10-02T13:28:59Z</time><name>PT10627</name></trkpt>
<trkpt lat="54.571452" lon="-3.248991"><ele>831</ele><time>2019-10-02T13:29:00Z</time><name>PT10628</name></trkpt>
<trkpt lat="54.571447" lon="-3.249009"><ele>831</ele><time>2019-10-02T13:29:01Z</time><name>PT10629</name></trkpt>
<trkpt lat="54.571443" lon="-3.249021"><ele>831</ele><time>2019-10-02T13:29:02Z</time><name>PT10630</name></trkpt>
<trkpt lat="54.571439" lon="-3.249032"><ele>831</ele><time>2019-10-02T13:29:03Z</time><name>PT10631</name></trkpt>
<trkpt lat="54.571437" lon="-3.249041"><ele>831</ele><time>2019-10-02T13:29:04Z</time><name>PT10632</name></trkpt>
<trkpt lat="54.571433" lon="-3.249049"><ele>831</ele><time>2019-10-02T13:29:05Z</time><name>PT10633</name></trkpt>
<trkpt lat="54.571427" lon="-3.249060"><ele>831</ele><time>2019-10-02T13:29:06Z</time><name>PT10634</name></trkpt>
<trkpt lat="54.571422" lon="-3.249073"><ele>831</ele><time>2019-10-02T13:29:07Z</time><name>PT10635</name></trkpt>
<trkpt lat="54.571419" lon="-3.249084"><ele>831</ele><time>2019-10-02T13:29:08Z</time><name>PT10636</name></trkpt>
<trkpt lat="54.571414" lon="-3.249092"><ele>831</ele><time>2019-10-02T13:29:09Z</time><name>PT10637</name></trkpt>
<trkpt lat="54.571407" lon="-3.249101"><ele>831</ele><time>2019-10-02T13:29:10Z</time><name>PT10638</name></trkpt>
<trkpt lat="54.571402" lon="-3.249111"><ele>831</ele><time>2019-10-02T13:29:11Z</time><name>PT10639</name></trkpt>
<trkpt lat="54.571399" lon="-3.249121"><ele>830</ele><time>2019-10-02T13:29:12Z</time><name>PT10640</name></trkpt>
<trkpt lat="54.571395" lon="-3.249132"><ele>830</ele><time>2019-10-02T13:29:13Z</time><name>PT10641</name></trkpt>
<trkpt lat="54.571391" lon="-3.249145"><ele>830</ele><time>2019-10-02T13:29:13Z</time><name>PT10642</name></trkpt>
<trkpt lat="54.571388" lon="-3.249157"><ele>830</ele><time>2019-10-02T13:29:15Z</time><name>PT10643</name></trkpt>
<trkpt lat="54.571382" lon="-3.249166"><ele>830</ele><time>2019-10-02T13:29:15Z</time><name>PT10644</name></trkpt>
<trkpt lat="54.571376" lon="-3.249178"><ele>830</ele><time>2019-10-02T13:29:17Z</time><name>PT10645</name></trkpt>
<trkpt lat="54.571370" lon="-3.249189"><ele>830</ele><time>2019-10-02T13:29:17Z</time><name>PT10646</name></trkpt>
<trkpt lat="54.571366" lon="-3.249195"><ele>830</ele><time>2019-10-02T13:29:19Z</time><name>PT10647</name></trkpt>
<trkpt lat="54.571360" lon="-3.249203"><ele>830</ele><time>2019-10-02T13:29:19Z</time><name>PT10648</name></trkpt>
<trkpt lat="54.571355" lon="-3.249213"><ele>830</ele><time>2019-10-02T13:29:21Z</time><name>PT10649</name></trkpt>
<trkpt lat="54.571351" lon="-3.249223"><ele>830</ele><time>2019-10-02T13:29:21Z</time><name>PT10650</name></trkpt>
<trkpt lat="54.571346" lon="-3.249231"><ele>830</ele><time>2019-10-02T13:29:23Z</time><name>PT10651</name></trkpt>
<trkpt lat="54.571342" lon="-3.249242"><ele>830</ele><time>2019-10-02T13:29:23Z</time><name>PT10652</name></trkpt>
<trkpt lat="54.571337" lon="-3.249250"><ele>829</ele><time>2019-10-02T13:29:25Z</time><name>PT10653</name></trkpt>
<trkpt lat="54.571331" lon="-3.249257"><ele>830</ele><time>2019-10-02T13:29:25Z</time><name>PT10654</name></trkpt>
<trkpt lat="54.571328" lon="-3.249263"><ele>829</ele><time>2019-10-02T13:29:27Z</time><name>PT10655</name></trkpt>
<trkpt lat="54.571323" lon="-3.249266"><ele>829</ele><time>2019-10-02T13:29:27Z</time><name>PT10656</name></trkpt>
<trkpt lat="54.571321" lon="-3.249268"><ele>829</ele><time>2019-10-02T13:29:29Z</time><name>PT10657</name></trkpt>
<trkpt lat="54.571321" lon="-3.249268"><ele>828</ele><time>2019-10-02T13:29:29Z</time><name>PT10658</name></trkpt>
<trkpt lat="54.571320" lon="-3.249271"><ele>828</ele><time>2019-10-02T13:29:31Z</time><name>PT10659</name></trkpt>
<trkpt lat="54.571320" lon="-3.249276"><ele>828</ele><time>2019-10-02T13:29:31Z</time><name>PT10660</name></trkpt>
<trkpt lat="54.571319" lon="-3.249284"><ele>828</ele><time>2019-10-02T13:29:33Z</time><name>PT10661</name></trkpt>
<trkpt lat="54.571320" lon="-3.249288"><ele>828</ele><time>2019-10-02T13:29:33Z</time><name>PT10662</name></trkpt>
<trkpt lat="54.571319" lon="-3.249290"><ele>828</ele><time>2019-10-02T13:29:35Z</time><name>PT10663</name></trkpt>
<trkpt lat="54.571319" lon="-3.249293"><ele>828</ele><time>2019-10-02T13:29:35Z</time><name>PT10664</name></trkpt>
<trkpt lat="54.571318" lon="-3.249294"><ele>828</ele><time>2019-10-02T13:29:37Z</time><name>PT10665</name></trkpt>
<trkpt lat="54.571321" lon="-3.249302"><ele>829</ele><time>2019-10-02T13:29:44Z</time><name>PT10666</name></trkpt>
<trkpt lat="54.571318" lon="-3.249305"><ele>829</ele><time>2019-10-02T13:29:45Z</time><name>PT10667</name></trkpt>
<trkpt lat="54.571315" lon="-3.249309"><ele>829</ele><time>2019-10-02T13:29:45Z</time><name>PT10668</name></trkpt>
<trkpt lat="54.571316" lon="-3.249313"><ele>829</ele><time>2019-10-02T13:29:47Z</time><name>PT10669</name></trkpt>
<trkpt lat="54.571317" lon="-3.249315"><ele>829</ele><time>2019-10-02T13:29:48Z</time><name>PT10670</name></trkpt>
<trkpt lat="54.571315" lon="-3.249316"><ele>828</ele><time>2019-10-02T13:29:49Z</time><name>PT10671</name></trkpt>
<trkpt lat="54.571313" lon="-3.249322"><ele>829</ele><time>2019-10-02T13:29:49Z</time><name>PT10672</name></trkpt>
<trkpt lat="54.571312" lon="-3.249323"><ele>829</ele><time>2019-10-02T13:29:51Z</time><name>PT10673</name></trkpt>
<trkpt lat="54.571311" lon="-3.249325"><ele>829</ele><time>2019-10-02T13:29:53Z</time><name>PT10674</name></trkpt>
<trkpt lat="54.571312" lon="-3.249324"><ele>829</ele><time>2019-10-02T13:29:53Z</time><name>PT10675</name></trkpt>
<trkpt lat="54.571313" lon="-3.249324"><ele>829</ele><time>2019-10-02T13:29:55Z</time><name>PT10676</name></trkpt>
<trkpt lat="54.571316" lon="-3.249332"><ele>828</ele><time>2019-10-02T13:30:05Z</time><name>PT10677</name></trkpt>
<trkpt lat="54.571315" lon="-3.249330"><ele>828</ele><time>2019-10-02T13:30:07Z</time><name>PT10678</name></trkpt>
<trkpt lat="54.571318" lon="-3.249332"><ele>828</ele><time>2019-10-02T13:30:08Z</time><name>PT10679</name></trkpt>
<trkpt lat="54.571316" lon="-3.249328"><ele>828</ele><time>2019-10-02T13:30:09Z</time><name>PT10680</name></trkpt>
<trkpt lat="54.571316" lon="-3.249328"><ele>828</ele><time>2019-10-02T13:30:09Z</time><name>PT10681</name></trkpt>
<trkpt lat="54.571312" lon="-3.249332"><ele>828</ele><time>2019-10-02T13:30:11Z</time><name>PT10682</name></trkpt>
<trkpt lat="54.571311" lon="-3.249330"><ele>828</ele><time>2019-10-02T13:30:11Z</time><name>PT10683</name></trkpt>
<trkpt lat="54.571310" lon="-3.249327"><ele>828</ele><time>2019-10-02T13:30:13Z</time><name>PT10684</name></trkpt>
<trkpt lat="54.571308" lon="-3.249326"><ele>828</ele><time>2019-10-02T13:30:13Z</time><name>PT10685</name></trkpt>
<trkpt lat="54.571304" lon="-3.249324"><ele>829</ele><time>2019-10-02T13:30:15Z</time><name>PT10686</name></trkpt>
<trkpt lat="54.571306" lon="-3.249317"><ele>828</ele><time>2019-10-02T13:30:17Z</time><name>PT10687</name></trkpt>
<trkpt lat="54.571309" lon="-3.249319"><ele>828</ele><time>2019-10-02T13:30:18Z</time><name>PT10688</name></trkpt>
<trkpt lat="54.571309" lon="-3.249320"><ele>829</ele><time>2019-10-02T13:30:19Z</time><name>PT10689</name></trkpt>
<trkpt lat="54.571303" lon="-3.249303"><ele>829</ele><time>2019-10-02T13:30:20Z</time><name>PT10690</name></trkpt>
<trkpt lat="54.571307" lon="-3.249320"><ele>828</ele><time>2019-10-02T13:30:21Z</time><name>PT10691</name></trkpt>
<trkpt lat="54.571307" lon="-3.249325"><ele>828</ele><time>2019-10-02T13:30:22Z</time><name>PT10692</name></trkpt>
<trkpt lat="54.571305" lon="-3.249327"><ele>829</ele><time>2019-10-02T13:30:23Z</time><name>PT10693</name></trkpt>
<trkpt lat="54.571306" lon="-3.249329"><ele>829</ele><time>2019-10-02T13:30:24Z</time><name>PT10694</name></trkpt>
<trkpt lat="54.571304" lon="-3.249329"><ele>829</ele><time>2019-10-02T13:33:17Z</time><name>PT10695</name></trkpt>
<trkpt lat="54.571306" lon="-3.249331"><ele>828</ele><time>2019-10-02T13:33:17Z</time><name>PT10696</name></trkpt>
<trkpt lat="54.571309" lon="-3.249333"><ele>828</ele><time>2019-10-02T13:33:19Z</time><name>PT10697</name></trkpt>
<trkpt lat="54.571309" lon="-3.249333"><ele>828</ele><time>2019-10-02T13:33:19Z</time><name>PT10698</name></trkpt>
<trkpt lat="54.571307" lon="-3.249334"><ele>828</ele><time>2019-10-02T13:33:21Z</time><name>PT10699</name></trkpt>
<trkpt lat="54.571306" lon="-3.249333"><ele>828</ele><time>2019-10-02T13:33:21Z</time><name>PT10700</name></trkpt>
<trkpt lat="54.571304" lon="-3.249340"><ele>829</ele><time>2019-10-02T13:34:56Z</time><name>PT10701</name></trkpt>
<trkpt lat="54.571308" lon="-3.249347"><ele>829</ele><time>2019-10-02T13:34:57Z</time><name>PT10702</name></trkpt>
<trkpt lat="54.571310" lon="-3.249350"><ele>828</ele><time>2019-10-02T13:34:57Z</time><name>PT10703</name></trkpt>
<trkpt lat="54.571311" lon="-3.249348"><ele>828</ele><time>2019-10-02T13:34:59Z</time><name>PT10704</name></trkpt>
<trkpt lat="54.571314" lon="-3.249346"><ele>828</ele><time>2019-10-02T13:35:41Z</time><name>PT10705</name></trkpt>
<trkpt lat="54.571313" lon="-3.249347"><ele>828</ele><time>2019-10-02T13:35:41Z</time><name>PT10706</name></trkpt>
<trkpt lat="54.571312" lon="-3.249346"><ele>829</ele><time>2019-10-02T13:35:43Z</time><name>PT10707</name></trkpt>
<trkpt lat="54.571312" lon="-3.249348"><ele>829</ele><time>2019-10-02T13:35:43Z</time><name>PT10708</name></trkpt>
<trkpt lat="54.571312" lon="-3.249344"><ele>829</ele><time>2019-10-02T13:38:07Z</time><name>PT10709</name></trkpt>
<trkpt lat="54.571313" lon="-3.249343"><ele>829</ele><time>2019-10-02T13:38:09Z</time><name>PT10710</name></trkpt>
<trkpt lat="54.571311" lon="-3.249345"><ele>829</ele><time>2019-10-02T13:38:09Z</time><name>PT10711</name></trkpt>
<trkpt lat="54.571310" lon="-3.249346"><ele>829</ele><time>2019-10-02T13:38:11Z</time><name>PT10712</name></trkpt>
<trkpt lat="54.571310" lon="-3.249350"><ele>829</ele><time>2019-10-02T13:38:11Z</time><name>PT10713</name></trkpt>
<trkpt lat="54.571308" lon="-3.249350"><ele>828</ele><time>2019-10-02T13:38:13Z</time><name>PT10714</name></trkpt>
<trkpt lat="54.571303" lon="-3.249347"><ele>828</ele><time>2019-10-02T13:38:13Z</time><name>PT10715</name></trkpt>
<trkpt lat="54.571304" lon="-3.249345"><ele>827</ele><time>2019-10-02T13:38:15Z</time><name>PT10716</name></trkpt>
<trkpt lat="54.571305" lon="-3.249346"><ele>827</ele><time>2019-10-02T13:38:16Z</time><name>PT10717</name></trkpt>
<trkpt lat="54.571306" lon="-3.249345"><ele>827</ele><time>2019-10-02T13:38:16Z</time><name>PT10718</name></trkpt>
<trkpt lat="54.571306" lon="-3.249345"><ele>827</ele><time>2019-10-02T13:39:10Z</time><name>PT10719</name></trkpt>
<trkpt lat="54.571306" lon="-3.249340"><ele>827</ele><time>2019-10-02T13:39:10Z</time><name>PT10720</name></trkpt>
<trkpt lat="54.571310" lon="-3.249339"><ele>827</ele><time>2019-10-02T13:39:12Z</time><name>PT10721</name></trkpt>
<trkpt lat="54.571311" lon="-3.249342"><ele>827</ele><time>2019-10-02T13:39:12Z</time><name>PT10722</name></trkpt>
<trkpt lat="54.571311" lon="-3.249343"><ele>827</ele><time>2019-10-02T13:39:14Z</time><name>PT10723</name></trkpt>
<trkpt lat="54.571309" lon="-3.249343"><ele>827</ele><time>2019-10-02T13:39:14Z</time><name>PT10724</name></trkpt>
<trkpt lat="54.571309" lon="-3.249343"><ele>827</ele><time>2019-10-02T13:39:16Z</time><name>PT10725</name></trkpt>
<trkpt lat="54.571307" lon="-3.249339"><ele>827</ele><time>2019-10-02T13:39:16Z</time><name>PT10726</name></trkpt>
<trkpt lat="54.571307" lon="-3.249339"><ele>827</ele><time>2019-10-02T13:39:18Z</time><name>PT10727</name></trkpt>
<trkpt lat="54.571307" lon="-3.249341"><ele>828</ele><time>2019-10-02T13:39:18Z</time><name>PT10728</name></trkpt>
<trkpt lat="54.571306" lon="-3.249341"><ele>828</ele><time>2019-10-02T13:39:20Z</time><name>PT10729</name></trkpt>
<trkpt lat="54.571304" lon="-3.249336"><ele>828</ele><time>2019-10-02T13:39:21Z</time><name>PT10730</name></trkpt>
<trkpt lat="54.571304" lon="-3.249338"><ele>828</ele><time>2019-10-02T13:39:22Z</time><name>PT10731</name></trkpt>
<trkpt lat="54.571306" lon="-3.249342"><ele>828</ele><time>2019-10-02T13:39:23Z</time><name>PT10732</name></trkpt>
<trkpt lat="54.571308" lon="-3.249345"><ele>828</ele><time>2019-10-02T13:39:24Z</time><name>PT10733</name></trkpt>
<trkpt lat="54.571305" lon="-3.249345"><ele>828</ele><time>2019-10-02T13:39:49Z</time><name>PT10734</name></trkpt>
<trkpt lat="54.571306" lon="-3.249340"><ele>828</ele><time>2019-10-02T13:39:50Z</time><name>PT10735</name></trkpt>
<trkpt lat="54.571307" lon="-3.249339"><ele>828</ele><time>2019-10-02T13:39:50Z</time><name>PT10736</name></trkpt>
<trkpt lat="54.571309" lon="-3.249340"><ele>828</ele><time>2019-10-02T13:39:52Z</time><name>PT10737</name></trkpt>
<trkpt lat="54.571308" lon="-3.249341"><ele>828</ele><time>2019-10-02T13:39:52Z</time><name>PT10738</name></trkpt>
<trkpt lat="54.571310" lon="-3.249340"><ele>828</ele><time>2019-10-02T13:39:54Z</time><name>PT10739</name></trkpt>
<trkpt lat="54.571313" lon="-3.249341"><ele>828</ele><time>2019-10-02T13:39:54Z</time><name>PT10740</name></trkpt>
<trkpt lat="54.571315" lon="-3.249342"><ele>828</ele><time>2019-10-02T13:39:56Z</time><name>PT10741</name></trkpt>
<trkpt lat="54.571311" lon="-3.249340"><ele>828</ele><time>2019-10-02T13:40:04Z</time><name>PT10742</name></trkpt>
<trkpt lat="54.571310" lon="-3.249341"><ele>828</ele><time>2019-10-02T13:40:06Z</time><name>PT10743</name></trkpt>
<trkpt lat="54.571308" lon="-3.249347"><ele>828</ele><time>2019-10-02T13:40:06Z</time><name>PT10744</name></trkpt>
<trkpt lat="54.571309" lon="-3.249348"><ele>828</ele><time>2019-10-02T13:40:59Z</time><name>PT10745</name></trkpt>
<trkpt lat="54.571310" lon="-3.249356"><ele>827</ele><time>2019-10-02T13:41:00Z</time><name>PT10746</name></trkpt>
<trkpt lat="54.571311" lon="-3.249356"><ele>827</ele><time>2019-10-02T13:41:01Z</time><name>PT10747</name></trkpt>
<trkpt lat="54.571310" lon="-3.249354"><ele>827</ele><time>2019-10-02T13:41:02Z</time><name>PT10748</name></trkpt>
<trkpt lat="54.571310" lon="-3.249354"><ele>827</ele><time>2019-10-02T13:41:03Z</time><name>PT10749</name></trkpt>
<trkpt lat="54.571309" lon="-3.249355"><ele>827</ele><time>2019-10-02T13:41:15Z</time><name>PT10750</name></trkpt>
<trkpt lat="54.571308" lon="-3.249360"><ele>827</ele><time>2019-10-02T13:41:16Z</time><name>PT10751</name></trkpt>
<trkpt lat="54.571310" lon="-3.249363"><ele>827</ele><time>2019-10-02T13:41:28Z</time><name>PT10752</name></trkpt>
<trkpt lat="54.571319" lon="-3.249352"><ele>827</ele><time>2019-10-02T13:41:28Z</time><name>PT10753</name></trkpt>
<trkpt lat="54.571322" lon="-3.249346"><ele>827</ele><time>2019-10-02T13:41:30Z</time><name>PT10754</name></trkpt>
<trkpt lat="54.571325" lon="-3.249344"><ele>827</ele><time>2019-10-02T13:41:30Z</time><name>PT10755</name></trkpt>
<trkpt lat="54.571325" lon="-3.249350"><ele>827</ele><time>2019-10-02T13:42:10Z</time><name>PT10756</name></trkpt>
<trkpt lat="54.571324" lon="-3.249352"><ele>827</ele><time>2019-10-02T13:42:12Z</time><name>PT10757</name></trkpt>
<trkpt lat="54.571324" lon="-3.249353"><ele>827</ele><time>2019-10-02T13:42:12Z</time><name>PT10758</name></trkpt>
<trkpt lat="54.571325" lon="-3.249350"><ele>827</ele><time>2019-10-02T13:44:52Z</time><name>PT10759</name></trkpt>
<trkpt lat="54.571324" lon="-3.249355"><ele>827</ele><time>2019-10-02T13:44:54Z</time><name>PT10760</name></trkpt>
<trkpt lat="54.571326" lon="-3.249354"><ele>827</ele><time>2019-10-02T13:44:54Z</time><name>PT10761</name></trkpt>
<trkpt lat="54.571323" lon="-3.249358"><ele>827</ele><time>2019-10-02T13:44:56Z</time><name>PT10762</name></trkpt>
<trkpt lat="54.571323" lon="-3.249359"><ele>827</ele><time>2019-10-02T13:44:57Z</time><name>PT10763</name></trkpt>
<trkpt lat="54.571322" lon="-3.249362"><ele>827</ele><time>2019-10-02T13:44:58Z</time><name>PT10764</name></trkpt>
<trkpt lat="54.571321" lon="-3.249367"><ele>828</ele><time>2019-10-02T13:44:59Z</time><name>PT10765</name></trkpt>
<trkpt lat="54.571322" lon="-3.249366"><ele>828</ele><time>2019-10-02T13:45:02Z</time><name>PT10766</name></trkpt>
<trkpt lat="54.571320" lon="-3.249370"><ele>827</ele><time>2019-10-02T13:45:03Z</time><name>PT10767</name></trkpt>
<trkpt lat="54.571317" lon="-3.249365"><ele>827</ele><time>2019-10-02T13:45:04Z</time><name>PT10768</name></trkpt>
<trkpt lat="54.571316" lon="-3.249367"><ele>827</ele><time>2019-10-02T13:45:04Z</time><name>PT10769</name></trkpt>
<trkpt lat="54.571314" lon="-3.249361"><ele>827</ele><time>2019-10-02T13:45:06Z</time><name>PT10770</name></trkpt>
<trkpt lat="54.571316" lon="-3.249367"><ele>827</ele><time>2019-10-02T13:45:07Z</time><name>PT10771</name></trkpt>
<trkpt lat="54.571317" lon="-3.249364"><ele>827</ele><time>2019-10-02T13:45:08Z</time><name>PT10772</name></trkpt>
<trkpt lat="54.571316" lon="-3.249369"><ele>826</ele><time>2019-10-02T13:45:09Z</time><name>PT10773</name></trkpt>
<trkpt lat="54.571314" lon="-3.249362"><ele>827</ele><time>2019-10-02T13:45:10Z</time><name>PT10774</name></trkpt>
<trkpt lat="54.571313" lon="-3.249363"><ele>827</ele><time>2019-10-02T13:45:10Z</time><name>PT10775</name></trkpt>
<trkpt lat="54.571314" lon="-3.249375"><ele>826</ele><time>2019-10-02T13:45:12Z</time><name>PT10776</name></trkpt>
<trkpt lat="54.571315" lon="-3.249373"><ele>826</ele><time>2019-10-02T13:45:12Z</time><name>PT10777</name></trkpt>
<trkpt lat="54.571318" lon="-3.249381"><ele>826</ele><time>2019-10-02T13:45:14Z</time><name>PT10778</name></trkpt>
<trkpt lat="54.571319" lon="-3.249388"><ele>825</ele><time>2019-10-02T13:45:14Z</time><name>PT10779</name></trkpt>
<trkpt lat="54.571324" lon="-3.249408"><ele>824</ele><time>2019-10-02T13:45:16Z</time><name>PT10780</name></trkpt>
<trkpt lat="54.571326" lon="-3.249414"><ele>824</ele><time>2019-10-02T13:45:16Z</time><name>PT10781</name></trkpt>
<trkpt lat="54.571325" lon="-3.249410"><ele>825</ele><time>2019-10-02T13:45:18Z</time><name>PT10782</name></trkpt>
<trkpt lat="54.571325" lon="-3.249412"><ele>825</ele><time>2019-10-02T13:45:18Z</time><name>PT10783</name></trkpt>
<trkpt lat="54.571325" lon="-3.249413"><ele>825</ele><time>2019-10-02T13:45:20Z</time><name>PT10784</name></trkpt>
<trkpt lat="54.571323" lon="-3.249414"><ele>824</ele><time>2019-10-02T13:45:20Z</time><name>PT10785</name></trkpt>
<trkpt lat="54.571325" lon="-3.249401"><ele>825</ele><time>2019-10-02T13:45:22Z</time><name>PT10786</name></trkpt>
<trkpt lat="54.571322" lon="-3.249393"><ele>826</ele><time>2019-10-02T13:45:22Z</time><name>PT10787</name></trkpt>
<trkpt lat="54.571319" lon="-3.249387"><ele>826</ele><time>2019-10-02T13:45:24Z</time><name>PT10788</name></trkpt>
<trkpt lat="54.571320" lon="-3.249381"><ele>826</ele><time>2019-10-02T13:46:04Z</time><name>PT10789</name></trkpt>
<trkpt lat="54.571317" lon="-3.249381"><ele>826</ele><time>2019-10-02T13:46:06Z</time><name>PT10790</name></trkpt>
<trkpt lat="54.571318" lon="-3.249375"><ele>826</ele><time>2019-10-02T13:46:06Z</time><name>PT10791</name></trkpt>
<trkpt lat="54.571319" lon="-3.249372"><ele>826</ele><time>2019-10-02T13:46:08Z</time><name>PT10792</name></trkpt>
<trkpt lat="54.571318" lon="-3.249368"><ele>826</ele><time>2019-10-02T13:46:09Z</time><name>PT10793</name></trkpt>
<trkpt lat="54.571321" lon="-3.249360"><ele>826</ele><time>2019-10-02T13:46:10Z</time><name>PT10794</name></trkpt>
<trkpt lat="54.571323" lon="-3.249362"><ele>826</ele><time>2019-10-02T13:46:10Z</time><name>PT10795</name></trkpt>
<trkpt lat="54.571323" lon="-3.249362"><ele>825</ele><time>2019-10-02T13:46:12Z</time><name>PT10796</name></trkpt>
<trkpt lat="54.571323" lon="-3.249357"><ele>825</ele><time>2019-10-02T13:46:13Z</time><name>PT10797</name></trkpt>
<trkpt lat="54.571327" lon="-3.249362"><ele>825</ele><time>2019-10-02T13:46:14Z</time><name>PT10798</name></trkpt>
<trkpt lat="54.571324" lon="-3.249360"><ele>825</ele><time>2019-10-02T13:46:15Z</time><name>PT10799</name></trkpt>
<trkpt lat="54.571318" lon="-3.249369"><ele>825</ele><time>2019-10-02T13:46:24Z</time><name>PT10800</name></trkpt>
<trkpt lat="54.571319" lon="-3.249375"><ele>825</ele><time>2019-10-02T13:46:25Z</time><name>PT10801</name></trkpt>
<trkpt lat="54.571322" lon="-3.249377"><ele>825</ele><time>2019-10-02T13:46:26Z</time><name>PT10802</name></trkpt>
<trkpt lat="54.571320" lon="-3.249377"><ele>825</ele><time>2019-10-02T13:46:26Z</time><name>PT10803</name></trkpt>
<trkpt lat="54.571319" lon="-3.249376"><ele>825</ele><time>2019-10-02T13:46:28Z</time><name>PT10804</name></trkpt>
<trkpt lat="54.571319" lon="-3.249375"><ele>825</ele><time>2019-10-02T13:46:29Z</time><name>PT10805</name></trkpt>
<trkpt lat="54.571319" lon="-3.249384"><ele>825</ele><time>2019-10-02T13:46:30Z</time><name>PT10806</name></trkpt>
<trkpt lat="54.571318" lon="-3.249382"><ele>825</ele><time>2019-10-02T13:46:31Z</time><name>PT10807</name></trkpt>
<trkpt lat="54.571319" lon="-3.249386"><ele>825</ele><time>2019-10-02T13:46:32Z</time><name>PT10808</name></trkpt>
<trkpt lat="54.571318" lon="-3.249381"><ele>825</ele><time>2019-10-02T13:46:34Z</time><name>PT10809</name></trkpt>
<trkpt lat="54.571320" lon="-3.249379"><ele>825</ele><time>2019-10-02T13:46:35Z</time><name>PT10810</name></trkpt>
<trkpt lat="54.571316" lon="-3.249380"><ele>825</ele><time>2019-10-02T13:46:45Z</time><name>PT10811</name></trkpt>
<trkpt lat="54.571313" lon="-3.249380"><ele>825</ele><time>2019-10-02T13:46:45Z</time><name>PT10812</name></trkpt>
<trkpt lat="54.571315" lon="-3.249383"><ele>824</ele><time>2019-10-02T13:46:47Z</time><name>PT10813</name></trkpt>
<trkpt lat="54.571319" lon="-3.249388"><ele>824</ele><time>2019-10-02T13:46:47Z</time><name>PT10814</name></trkpt>
<trkpt lat="54.571319" lon="-3.249386"><ele>824</ele><time>2019-10-02T13:46:49Z</time><name>PT10815</name></trkpt>
<trkpt lat="54.571322" lon="-3.249387"><ele>824</ele><time>2019-10-02T13:46:49Z</time><name>PT10816</name></trkpt>
<trkpt lat="54.571320" lon="-3.249384"><ele>824</ele><time>2019-10-02T13:48:55Z</time><name>PT10817</name></trkpt>
<trkpt lat="54.571321" lon="-3.249383"><ele>824</ele><time>2019-10-02T13:48:55Z</time><name>PT10818</name></trkpt>
<trkpt lat="54.571321" lon="-3.249382"><ele>824</ele><time>2019-10-02T13:48:57Z</time><name>PT10819</name></trkpt>
<trkpt lat="54.571322" lon="-3.249385"><ele>824</ele><time>2019-10-02T13:49:19Z</time><name>PT10820</name></trkpt>
<trkpt lat="54.571322" lon="-3.249383"><ele>824</ele><time>2019-10-02T13:49:20Z</time><name>PT10821</name></trkpt>
<trkpt lat="54.571323" lon="-3.249379"><ele>824</ele><time>2019-10-02T13:49:21Z</time><name>PT10822</name></trkpt>
<trkpt lat="54.571324" lon="-3.249378"><ele>824</ele><time>2019-10-02T13:49:25Z</time><name>PT10823</name></trkpt>
<trkpt lat="54.571323" lon="-3.249376"><ele>824</ele><time>2019-10-02T13:49:26Z</time><name>PT10824</name></trkpt>
<trkpt lat="54.571321" lon="-3.249371"><ele>825</ele><time>2019-10-02T13:49:27Z</time><name>PT10825</name></trkpt>
<trkpt lat="54.571315" lon="-3.249371"><ele>826</ele><time>2019-10-02T13:49:28Z</time><name>PT10826</name></trkpt>
<trkpt lat="54.571316" lon="-3.249374"><ele>826</ele><time>2019-10-02T13:49:57Z</time><name>PT10827</name></trkpt>
<trkpt lat="54.571314" lon="-3.249374"><ele>825</ele><time>2019-10-02T13:49:57Z</time><name>PT10828</name></trkpt>
<trkpt lat="54.571318" lon="-3.249363"><ele>825</ele><time>2019-10-02T13:49:59Z</time><name>PT10829</name></trkpt>
<trkpt lat="54.571320" lon="-3.249362"><ele>825</ele><time>2019-10-02T13:49:59Z</time><name>PT10830</name></trkpt>
<trkpt lat="54.571322" lon="-3.249361"><ele>825</ele><time>2019-10-02T13:50:01Z</time><name>PT10831</name></trkpt>
<trkpt lat="54.571323" lon="-3.249361"><ele>825</ele><time>2019-10-02T13:50:01Z</time><name>PT10832</name></trkpt>
<trkpt lat="54.571321" lon="-3.249359"><ele>826</ele><time>2019-10-02T13:50:03Z</time><name>PT10833</name></trkpt>
<trkpt lat="54.571322" lon="-3.249355"><ele>826</ele><time>2019-10-02T13:50:03Z</time><name>PT10834</name></trkpt>
<trkpt lat="54.571316" lon="-3.249355"><ele>827</ele><time>2019-10-02T13:50:05Z</time><name>PT10835</name></trkpt>
<trkpt lat="54.571314" lon="-3.249356"><ele>827</ele><time>2019-10-02T13:50:05Z</time><name>PT10836</name></trkpt>
<trkpt lat="54.571316" lon="-3.249359"><ele>827</ele><time>2019-10-02T13:50:07Z</time><name>PT10837</name></trkpt>
<trkpt lat="54.571318" lon="-3.249363"><ele>826</ele><time>2019-10-02T13:50:07Z</time><name>PT10838</name></trkpt>
<trkpt lat="54.571319" lon="-3.249364"><ele>827</ele><time>2019-10-02T13:50:09Z</time><name>PT10839</name></trkpt>
<trkpt lat="54.571319" lon="-3.249367"><ele>826</ele><time>2019-10-02T13:50:09Z</time><name>PT10840</name></trkpt>
<trkpt lat="54.571318" lon="-3.249362"><ele>827</ele><time>2019-10-02T13:50:17Z</time><name>PT10841</name></trkpt>
<trkpt lat="54.571323" lon="-3.249356"><ele>826</ele><time>2019-10-02T13:50:19Z</time><name>PT10842</name></trkpt>
<trkpt lat="54.571326" lon="-3.249357"><ele>826</ele><time>2019-10-02T13:50:19Z</time><name>PT10843</name></trkpt>
<trkpt lat="54.571322" lon="-3.249363"><ele>826</ele><time>2019-10-02T13:50:23Z</time><name>PT10844</name></trkpt>
<trkpt lat="54.571324" lon="-3.249363"><ele>826</ele><time>2019-10-02T13:50:23Z</time><name>PT10845</name></trkpt>
<trkpt lat="54.571323" lon="-3.249371"><ele>827</ele><time>2019-10-02T13:50:25Z</time><name>PT10846</name></trkpt>
<trkpt lat="54.571324" lon="-3.249373"><ele>827</ele><time>2019-10-02T13:50:26Z</time><name>PT10847</name></trkpt>
<trkpt lat="54.571331" lon="-3.249381"><ele>827</ele><time>2019-10-02T13:50:27Z</time><name>PT10848</name></trkpt>
<trkpt lat="54.571340" lon="-3.249382"><ele>828</ele><time>2019-10-02T13:50:27Z</time><name>PT10849</name></trkpt>
<trkpt lat="54.571345" lon="-3.249383"><ele>827</ele><time>2019-10-02T13:50:29Z</time><name>PT10850</name></trkpt>
<trkpt lat="54.571350" lon="-3.249378"><ele>828</ele><time>2019-10-02T13:50:29Z</time><name>PT10851</name></trkpt>
<trkpt lat="54.571353" lon="-3.249374"><ele>828</ele><time>2019-10-02T13:50:31Z</time><name>PT10852</name></trkpt>
<trkpt lat="54.571355" lon="-3.249367"><ele>828</ele><time>2019-10-02T13:50:31Z</time><name>PT10853</name></trkpt>
<trkpt lat="54.571356" lon="-3.249365"><ele>828</ele><time>2019-10-02T13:50:33Z</time><name>PT10854</name></trkpt>
<trkpt lat="54.571351" lon="-3.249360"><ele>828</ele><time>2019-10-02T13:50:33Z</time><name>PT10855</name></trkpt>
<trkpt lat="54.571352" lon="-3.249351"><ele>828</ele><time>2019-10-02T13:50:35Z</time><name>PT10856</name></trkpt>
<trkpt lat="54.571354" lon="-3.249340"><ele>828</ele><time>2019-10-02T13:50:35Z</time><name>PT10857</name></trkpt>
<trkpt lat="54.571356" lon="-3.249333"><ele>828</ele><time>2019-10-02T13:50:37Z</time><name>PT10858</name></trkpt>
<trkpt lat="54.571357" lon="-3.249327"><ele>828</ele><time>2019-10-02T13:50:37Z</time><name>PT10859</name></trkpt>
<trkpt lat="54.571359" lon="-3.249327"><ele>829</ele><time>2019-10-02T13:50:39Z</time><name>PT10860</name></trkpt>
<trkpt lat="54.571362" lon="-3.249330"><ele>829</ele><time>2019-10-02T13:50:39Z</time><name>PT10861</name></trkpt>
<trkpt lat="54.571363" lon="-3.249329"><ele>829</ele><time>2019-10-02T13:50:43Z</time><name>PT10862</name></trkpt>
<trkpt lat="54.571369" lon="-3.249327"><ele>829</ele><time>2019-10-02T13:50:45Z</time><name>PT10863</name></trkpt>
<trkpt lat="54.571372" lon="-3.249322"><ele>830</ele><time>2019-10-02T13:50:46Z</time><name>PT10864</name></trkpt>
<trkpt lat="54.571373" lon="-3.249313"><ele>830</ele><time>2019-10-02T13:50:47Z</time><name>PT10865</name></trkpt>
<trkpt lat="54.571375" lon="-3.249302"><ele>830</ele><time>2019-10-02T13:50:48Z</time><name>PT10866</name></trkpt>
<trkpt lat="54.571375" lon="-3.249296"><ele>830</ele><time>2019-10-02T13:50:49Z</time><name>PT10867</name></trkpt>
<trkpt lat="54.571375" lon="-3.249294"><ele>830</ele><time>2019-10-02T13:50:50Z</time><name>PT10868</name></trkpt>
<trkpt lat="54.571375" lon="-3.249292"><ele>830</ele><time>2019-10-02T13:50:51Z</time><name>PT10869</name></trkpt>
<trkpt lat="54.571375" lon="-3.249289"><ele>830</ele><time>2019-10-02T13:51:02Z</time><name>PT10870</name></trkpt>
<trkpt lat="54.571375" lon="-3.249285"><ele>830</ele><time>2019-10-02T13:51:03Z</time><name>PT10871</name></trkpt>
<trkpt lat="54.571374" lon="-3.249287"><ele>830</ele><time>2019-10-02T13:51:04Z</time><name>PT10872</name></trkpt>
<trkpt lat="54.571374" lon="-3.249289"><ele>829</ele><time>2019-10-02T13:51:05Z</time><name>PT10873</name></trkpt>
<trkpt lat="54.571373" lon="-3.249295"><ele>829</ele><time>2019-10-02T13:51:06Z</time><name>PT10874</name></trkpt>
<trkpt lat="54.571374" lon="-3.249301"><ele>828</ele><time>2019-10-02T13:51:07Z</time><name>PT10875</name></trkpt>
<trkpt lat="54.571377" lon="-3.249302"><ele>827</ele><time>2019-10-02T13:51:08Z</time><name>PT10876</name></trkpt>
<trkpt lat="54.571373" lon="-3.249310"><ele>827</ele><time>2019-10-02T13:51:09Z</time><name>PT10877</name></trkpt>
<trkpt lat="54.571372" lon="-3.249317"><ele>827</ele><time>2019-10-02T13:51:10Z</time><name>PT10878</name></trkpt>
<trkpt lat="54.571374" lon="-3.249314"><ele>827</ele><time>2019-10-02T13:51:11Z</time><name>PT10879</name></trkpt>
<trkpt lat="54.571376" lon="-3.249319"><ele>826</ele><time>2019-10-02T13:51:11Z</time><name>PT10880</name></trkpt>
<trkpt lat="54.571377" lon="-3.249331"><ele>827</ele><time>2019-10-02T13:51:13Z</time><name>PT10881</name></trkpt>
<trkpt lat="54.571374" lon="-3.249337"><ele>827</ele><time>2019-10-02T13:51:13Z</time><name>PT10882</name></trkpt>
<trkpt lat="54.571374" lon="-3.249340"><ele>826</ele><time>2019-10-02T13:51:15Z</time><name>PT10883</name></trkpt>
<trkpt lat="54.571376" lon="-3.249337"><ele>826</ele><time>2019-10-02T13:51:15Z</time><name>PT10884</name></trkpt>
<trkpt lat="54.571375" lon="-3.249336"><ele>826</ele><time>2019-10-02T13:51:17Z</time><name>PT10885</name></trkpt>
<trkpt lat="54.571376" lon="-3.249331"><ele>826</ele><time>2019-10-02T13:51:17Z</time><name>PT10886</name></trkpt>
<trkpt lat="54.571375" lon="-3.249325"><ele>827</ele><time>2019-10-02T13:51:19Z</time><name>PT10887</name></trkpt>
<trkpt lat="54.571370" lon="-3.249324"><ele>828</ele><time>2019-10-02T13:51:19Z</time><name>PT10888</name></trkpt>
<trkpt lat="54.571369" lon="-3.249322"><ele>827</ele><time>2019-10-02T13:51:21Z</time><name>PT10889</name></trkpt>
<trkpt lat="54.571374" lon="-3.249331"><ele>827</ele><time>2019-10-02T13:51:21Z</time><name>PT10890</name></trkpt>
<trkpt lat="54.571374" lon="-3.249334"><ele>827</ele><time>2019-10-02T13:51:23Z</time><name>PT10891</name></trkpt>
<trkpt lat="54.571374" lon="-3.249332"><ele>827</ele><time>2019-10-02T13:51:23Z</time><name>PT10892</name></trkpt>
<trkpt lat="54.571373" lon="-3.249325"><ele>828</ele><time>2019-10-02T13:51:25Z</time><name>PT10893</name></trkpt>
<trkpt lat="54.571373" lon="-3.249317"><ele>829</ele><time>2019-10-02T13:51:25Z</time><name>PT10894</name></trkpt>
<trkpt lat="54.571374" lon="-3.249318"><ele>829</ele><time>2019-10-02T13:51:27Z</time><name>PT10895</name></trkpt>
<trkpt lat="54.571380" lon="-3.249308"><ele>829</ele><time>2019-10-02T13:51:27Z</time><name>PT10896</name></trkpt>
<trkpt lat="54.571382" lon="-3.249301"><ele>829</ele><time>2019-10-02T13:51:29Z</time><name>PT10897</name></trkpt>
<trkpt lat="54.571376" lon="-3.249292"><ele>829</ele><time>2019-10-02T13:51:29Z</time><name>PT10898</name></trkpt>
<trkpt lat="54.571373" lon="-3.249292"><ele>829</ele><time>2019-10-02T13:51:31Z</time><name>PT10899</name></trkpt>
<trkpt lat="54.571372" lon="-3.249298"><ele>829</ele><time>2019-10-02T13:51:31Z</time><name>PT10900</name></trkpt>
<trkpt lat="54.571374" lon="-3.249296"><ele>828</ele><time>2019-10-02T13:51:33Z</time><name>PT10901</name></trkpt>
<trkpt lat="54.571377" lon="-3.249294"><ele>829</ele><time>2019-10-02T13:51:33Z</time><name>PT10902</name></trkpt>
<trkpt lat="54.571381" lon="-3.249291"><ele>829</ele><time>2019-10-02T13:51:35Z</time><name>PT10903</name></trkpt>
<trkpt lat="54.571381" lon="-3.249281"><ele>830</ele><time>2019-10-02T13:51:35Z</time><name>PT10904</name></trkpt>
<trkpt lat="54.571384" lon="-3.249267"><ele>830</ele><time>2019-10-02T13:51:37Z</time><name>PT10905</name></trkpt>
<trkpt lat="54.571390" lon="-3.249251"><ele>830</ele><time>2019-10-02T13:51:39Z</time><name>PT10906</name></trkpt>
<trkpt lat="54.571394" lon="-3.249249"><ele>829</ele><time>2019-10-02T13:51:39Z</time><name>PT10907</name></trkpt>
<trkpt lat="54.571393" lon="-3.249247"><ele>829</ele><time>2019-10-02T13:51:41Z</time><name>PT10908</name></trkpt>
<trkpt lat="54.571393" lon="-3.249242"><ele>829</ele><time>2019-10-02T13:51:41Z</time><name>PT10909</name></trkpt>
<trkpt lat="54.571392" lon="-3.249242"><ele>830</ele><time>2019-10-02T13:51:43Z</time><name>PT10910</name></trkpt>
<trkpt lat="54.571392" lon="-3.249243"><ele>829</ele><time>2019-10-02T13:51:43Z</time><name>PT10911</name></trkpt>
<trkpt lat="54.571387" lon="-3.249250"><ele>828</ele><time>2019-10-02T13:51:51Z</time><name>PT10912</name></trkpt>
<trkpt lat="54.571386" lon="-3.249252"><ele>828</ele><time>2019-10-02T13:51:51Z</time><name>PT10913</name></trkpt>
<trkpt lat="54.571386" lon="-3.249258"><ele>828</ele><time>2019-10-02T13:51:53Z</time><name>PT10914</name></trkpt>
<trkpt lat="54.571381" lon="-3.249259"><ele>829</ele><time>2019-10-02T13:51:54Z</time><name>PT10915</name></trkpt>
<trkpt lat="54.571377" lon="-3.249267"><ele>829</ele><time>2019-10-02T13:51:55Z</time><name>PT10916</name></trkpt>
<trkpt lat="54.571375" lon="-3.249268"><ele>829</ele><time>2019-10-02T13:51:55Z</time><name>PT10917</name></trkpt>
<trkpt lat="54.571375" lon="-3.249264"><ele>829</ele><time>2019-10-02T13:51:57Z</time><name>PT10918</name></trkpt>
<trkpt lat="54.571376" lon="-3.249271"><ele>828</ele><time>2019-10-02T13:51:58Z</time><name>PT10919</name></trkpt>
<trkpt lat="54.571375" lon="-3.249274"><ele>828</ele><time>2019-10-02T13:51:59Z</time><name>PT10920</name></trkpt>
<trkpt lat="54.571372" lon="-3.249275"><ele>827</ele><time>2019-10-02T13:52:00Z</time><name>PT10921</name></trkpt>
<trkpt lat="54.571376" lon="-3.249272"><ele>827</ele><time>2019-10-02T13:52:01Z</time><name>PT10922</name></trkpt>
<trkpt lat="54.571376" lon="-3.249272"><ele>827</ele><time>2019-10-02T13:52:02Z</time><name>PT10923</name></trkpt>
<trkpt lat="54.571379" lon="-3.249272"><ele>828</ele><time>2019-10-02T13:52:03Z</time><name>PT10924</name></trkpt>
<trkpt lat="54.571377" lon="-3.249274"><ele>828</ele><time>2019-10-02T13:52:04Z</time><name>PT10925</name></trkpt>
<trkpt lat="54.571375" lon="-3.249276"><ele>828</ele><time>2019-10-02T13:52:05Z</time><name>PT10926</name></trkpt>
<trkpt lat="54.571372" lon="-3.249280"><ele>828</ele><time>2019-10-02T13:52:06Z</time><name>PT10927</name></trkpt>
<trkpt lat="54.571369" lon="-3.249282"><ele>828</ele><time>2019-10-02T13:52:07Z</time><name>PT10928</name></trkpt>
<trkpt lat="54.571373" lon="-3.249284"><ele>828</ele><time>2019-10-02T13:52:34Z</time><name>PT10929</name></trkpt>
<trkpt lat="54.571371" lon="-3.249285"><ele>828</ele><time>2019-10-02T13:52:34Z</time><name>PT10930</name></trkpt>
<trkpt lat="54.571369" lon="-3.249280"><ele>828</ele><time>2019-10-02T13:52:36Z</time><name>PT10931</name></trkpt>
<trkpt lat="54.571363" lon="-3.249267"><ele>828</ele><time>2019-10-02T13:52:36Z</time><name>PT10932</name></trkpt>
<trkpt lat="54.571356" lon="-3.249268"><ele>830</ele><time>2019-10-02T13:52:38Z</time><name>PT10933</name></trkpt>
<trkpt lat="54.571362" lon="-3.249266"><ele>831</ele><time>2019-10-02T13:52:38Z</time><name>PT10934</name></trkpt>
<trkpt lat="54.571359" lon="-3.249263"><ele>830</ele><time>2019-10-02T13:52:40Z</time><name>PT10935</name></trkpt>
<trkpt lat="54.571367" lon="-3.249246"><ele>831</ele><time>2019-10-02T13:52:40Z</time><name>PT10936</name></trkpt>
<trkpt lat="54.571374" lon="-3.249240"><ele>831</ele><time>2019-10-02T13:52:42Z</time><name>PT10937</name></trkpt>
<trkpt lat="54.571380" lon="-3.249226"><ele>831</ele><time>2019-10-02T13:52:42Z</time><name>PT10938</name></trkpt>
<trkpt lat="54.571384" lon="-3.249214"><ele>832</ele><time>2019-10-02T13:52:44Z</time><name>PT10939</name></trkpt>
<trkpt lat="54.571389" lon="-3.249198"><ele>831</ele><time>2019-10-02T13:52:44Z</time><name>PT10940</name></trkpt>
<trkpt lat="54.571397" lon="-3.249181"><ele>831</ele><time>2019-10-02T13:52:46Z</time><name>PT10941</name></trkpt>
<trkpt lat="54.571406" lon="-3.249171"><ele>831</ele><time>2019-10-02T13:52:46Z</time><name>PT10942</name></trkpt>
<trkpt lat="54.571412" lon="-3.249162"><ele>831</ele><time>2019-10-02T13:52:48Z</time><name>PT10943</name></trkpt>
<trkpt lat="54.571418" lon="-3.249154"><ele>831</ele><time>2019-10-02T13:52:48Z</time><name>PT10944</name></trkpt>
<trkpt lat="54.571427" lon="-3.249144"><ele>831</ele><time>2019-10-02T13:52:50Z</time><name>PT10945</name></trkpt>
<trkpt lat="54.571436" lon="-3.249134"><ele>831</ele><time>2019-10-02T13:52:50Z</time><name>PT10946</name></trkpt>
<trkpt lat="54.571441" lon="-3.249123"><ele>831</ele><time>2019-10-02T13:52:52Z</time><name>PT10947</name></trkpt>
<trkpt lat="54.571447" lon="-3.249109"><ele>832</ele><time>2019-10-02T13:52:52Z</time><name>PT10948</name></trkpt>
<trkpt lat="54.571451" lon="-3.249098"><ele>832</ele><time>2019-10-02T13:52:54Z</time><name>PT10949</name></trkpt>
<trkpt lat="54.571450" lon="-3.249092"><ele>832</ele><time>2019-10-02T13:52:54Z</time><name>PT10950</name></trkpt>
<trkpt lat="54.571450" lon="-3.249081"><ele>831</ele><time>2019-10-02T13:52:56Z</time><name>PT10951</name></trkpt>
<trkpt lat="54.571453" lon="-3.249068"><ele>831</ele><time>2019-10-02T13:52:56Z</time><name>PT10952</name></trkpt>
<trkpt lat="54.571456" lon="-3.249052"><ele>831</ele><time>2019-10-02T13:52:58Z</time><name>PT10953</name></trkpt>
<trkpt lat="54.571460" lon="-3.249035"><ele>831</ele><time>2019-10-02T13:52:58Z</time><name>PT10954</name></trkpt>
<trkpt lat="54.571464" lon="-3.249017"><ele>831</ele><time>2019-10-02T13:53:00Z</time><name>PT10955</name></trkpt>
<trkpt lat="54.571469" lon="-3.249001"><ele>831</ele><time>2019-10-02T13:53:00Z</time><name>PT10956</name></trkpt>
<trkpt lat="54.571474" lon="-3.248987"><ele>831</ele><time>2019-10-02T13:53:02Z</time><name>PT10957</name></trkpt>
<trkpt lat="54.571480" lon="-3.248976"><ele>831</ele><time>2019-10-02T13:53:03Z</time><name>PT10958</name></trkpt>
<trkpt lat="54.571485" lon="-3.248962"><ele>831</ele><time>2019-10-02T13:53:04Z</time><name>PT10959</name></trkpt>
<trkpt lat="54.571489" lon="-3.248947"><ele>830</ele><time>2019-10-02T13:53:05Z</time><name>PT10960</name></trkpt>
<trkpt lat="54.571492" lon="-3.248938"><ele>830</ele><time>2019-10-02T13:53:06Z</time><name>PT10961</name></trkpt>
<trkpt lat="54.571497" lon="-3.248931"><ele>830</ele><time>2019-10-02T13:53:07Z</time><name>PT10962</name></trkpt>
<trkpt lat="54.571497" lon="-3.248916"><ele>830</ele><time>2019-10-02T13:53:08Z</time><name>PT10963</name></trkpt>
<trkpt lat="54.571498" lon="-3.248900"><ele>830</ele><time>2019-10-02T13:53:08Z</time><name>PT10964</name></trkpt>
<trkpt lat="54.571501" lon="-3.248885"><ele>830</ele><time>2019-10-02T13:53:10Z</time><name>PT10965</name></trkpt>
<trkpt lat="54.571501" lon="-3.248869"><ele>830</ele><time>2019-10-02T13:53:10Z</time><name>PT10966</name></trkpt>
<trkpt lat="54.571503" lon="-3.248874"><ele>830</ele><time>2019-10-02T13:53:12Z</time><name>PT10967</name></trkpt>
<trkpt lat="54.571505" lon="-3.248873"><ele>831</ele><time>2019-10-02T13:53:12Z</time><name>PT10968</name></trkpt>
<trkpt lat="54.571506" lon="-3.248879"><ele>832</ele><time>2019-10-02T13:53:14Z</time><name>PT10969</name></trkpt>
<trkpt lat="54.571504" lon="-3.248878"><ele>832</ele><time>2019-10-02T13:53:14Z</time><name>PT10970</name></trkpt>
<trkpt lat="54.571502" lon="-3.248870"><ele>831</ele><time>2019-10-02T13:53:16Z</time><name>PT10971</name></trkpt>
<trkpt lat="54.571500" lon="-3.248860"><ele>831</ele><time>2019-10-02T13:53:16Z</time><name>PT10972</name></trkpt>
<trkpt lat="54.571502" lon="-3.248853"><ele>831</ele><time>2019-10-02T13:53:18Z</time><name>PT10973</name></trkpt>
<trkpt lat="54.571503" lon="-3.248841"><ele>831</ele><time>2019-10-02T13:53:18Z</time><name>PT10974</name></trkpt>
<trkpt lat="54.571503" lon="-3.248833"><ele>831</ele><time>2019-10-02T13:53:20Z</time><name>PT10975</name></trkpt>
<trkpt lat="54.571508" lon="-3.248826"><ele>831</ele><time>2019-10-02T13:53:20Z</time><name>PT10976</name></trkpt>
<trkpt lat="54.571511" lon="-3.248821"><ele>831</ele><time>2019-10-02T13:53:22Z</time><name>PT10977</name></trkpt>
<trkpt lat="54.571511" lon="-3.248813"><ele>829</ele><time>2019-10-02T13:53:22Z</time><name>PT10978</name></trkpt>
<trkpt lat="54.571513" lon="-3.248803"><ele>829</ele><time>2019-10-02T13:53:24Z</time><name>PT10979</name></trkpt>
<trkpt lat="54.571513" lon="-3.248793"><ele>829</ele><time>2019-10-02T13:53:24Z</time><name>PT10980</name></trkpt>
<trkpt lat="54.571514" lon="-3.248783"><ele>828</ele><time>2019-10-02T13:53:26Z</time><name>PT10981</name></trkpt>
<trkpt lat="54.571514" lon="-3.248771"><ele>828</ele><time>2019-10-02T13:53:26Z</time><name>PT10982</name></trkpt>
<trkpt lat="54.571517" lon="-3.248767"><ele>828</ele><time>2019-10-02T13:53:28Z</time><name>PT10983</name></trkpt>
<trkpt lat="54.571515" lon="-3.248755"><ele>828</ele><time>2019-10-02T13:53:28Z</time><name>PT10984</name></trkpt>
<trkpt lat="54.571514" lon="-3.248741"><ele>828</ele><time>2019-10-02T13:53:30Z</time><name>PT10985</name></trkpt>
<trkpt lat="54.571512" lon="-3.248728"><ele>828</ele><time>2019-10-02T13:53:30Z</time><name>PT10986</name></trkpt>
<trkpt lat="54.571510" lon="-3.248719"><ele>827</ele><time>2019-10-02T13:53:32Z</time><name>PT10987</name></trkpt>
<trkpt lat="54.571506" lon="-3.248714"><ele>827</ele><time>2019-10-02T13:53:32Z</time><name>PT10988</name></trkpt>
<trkpt lat="54.571501" lon="-3.248705"><ele>827</ele><time>2019-10-02T13:53:34Z</time><name>PT10989</name></trkpt>
<trkpt lat="54.571497" lon="-3.248694"><ele>827</ele><time>2019-10-02T13:53:34Z</time><name>PT10990</name></trkpt>
<trkpt lat="54.571493" lon="-3.248684"><ele>826</ele><time>2019-10-02T13:53:36Z</time><name>PT10991</name></trkpt>
<trkpt lat="54.571489" lon="-3.248678"><ele>826</ele><time>2019-10-02T13:53:36Z</time><name>PT10992</name></trkpt>
<trkpt lat="54.571486" lon="-3.248669"><ele>826</ele><time>2019-10-02T13:53:38Z</time><name>PT10993</name></trkpt>
<trkpt lat="54.571483" lon="-3.248662"><ele>826</ele><time>2019-10-02T13:53:38Z</time><name>PT10994</name></trkpt>
<trkpt lat="54.571480" lon="-3.248651"><ele>826</ele><time>2019-10-02T13:53:40Z</time><name>PT10995</name></trkpt>
<trkpt lat="54.571479" lon="-3.248639"><ele>825</ele><time>2019-10-02T13:53:40Z</time><name>PT10996</name></trkpt>
<trkpt lat="54.571481" lon="-3.248623"><ele>825</ele><time>2019-10-02T13:53:42Z</time><name>PT10997</name></trkpt>
<trkpt lat="54.571482" lon="-3.248613"><ele>825</ele><time>2019-10-02T13:53:42Z</time><name>PT10998</name></trkpt>
<trkpt lat="54.571483" lon="-3.248603"><ele>825</ele><time>2019-10-02T13:53:44Z</time><name>PT10999</name></trkpt>
<trkpt lat="54.571483" lon="-3.248590"><ele>825</ele><time>2019-10-02T13:53:44Z</time><name>PT11000</name></trkpt>
<trkpt lat="54.571481" lon="-3.248579"><ele>825</ele><time>2019-10-02T13:53:46Z</time><name>PT11001</name></trkpt>
<trkpt lat="54.571480" lon="-3.248569"><ele>824</ele><time>2019-10-02T13:53:47Z</time><name>PT11002</name></trkpt>
<trkpt lat="54.571479" lon="-3.248560"><ele>824</ele><time>2019-10-02T13:53:48Z</time><name>PT11003</name></trkpt>
<trkpt lat="54.571481" lon="-3.248550"><ele>824</ele><time>2019-10-02T13:53:48Z</time><name>PT11004</name></trkpt>
<trkpt lat="54.571481" lon="-3.248542"><ele>824</ele><time>2019-10-02T13:53:50Z</time><name>PT11005</name></trkpt>
<trkpt lat="54.571479" lon="-3.248536"><ele>824</ele><time>2019-10-02T13:53:50Z</time><name>PT11006</name></trkpt>
<trkpt lat="54.571475" lon="-3.248534"><ele>824</ele><time>2019-10-02T13:53:52Z</time><name>PT11007</name></trkpt>
<trkpt lat="54.571469" lon="-3.248530"><ele>823</ele><time>2019-10-02T13:53:52Z</time><name>PT11008</name></trkpt>
<trkpt lat="54.571465" lon="-3.248523"><ele>823</ele><time>2019-10-02T13:53:54Z</time><name>PT11009</name></trkpt>
<trkpt lat="54.571463" lon="-3.248512"><ele>823</ele><time>2019-10-02T13:53:54Z</time><name>PT11010</name></trkpt>
<trkpt lat="54.571461" lon="-3.248508"><ele>823</ele><time>2019-10-02T13:53:56Z</time><name>PT11011</name></trkpt>
<trkpt lat="54.571460" lon="-3.248502"><ele>823</ele><time>2019-10-02T13:53:56Z</time><name>PT11012</name></trkpt>
<trkpt lat="54.571459" lon="-3.248496"><ele>823</ele><time>2019-10-02T13:53:58Z</time><name>PT11013</name></trkpt>
<trkpt lat="54.571459" lon="-3.248487"><ele>823</ele><time>2019-10-02T13:53:58Z</time><name>PT11014</name></trkpt>
<trkpt lat="54.571460" lon="-3.248476"><ele>823</ele><time>2019-10-02T13:54:00Z</time><name>PT11015</name></trkpt>
<trkpt lat="54.571460" lon="-3.248467"><ele>823</ele><time>2019-10-02T13:54:00Z</time><name>PT11016</name></trkpt>
<trkpt lat="54.571457" lon="-3.248458"><ele>823</ele><time>2019-10-02T13:54:02Z</time><name>PT11017</name></trkpt>
<trkpt lat="54.571452" lon="-3.248451"><ele>823</ele><time>2019-10-02T13:54:02Z</time><name>PT11018</name></trkpt>
<trkpt lat="54.571448" lon="-3.248442"><ele>822</ele><time>2019-10-02T13:54:04Z</time><name>PT11019</name></trkpt>
<trkpt lat="54.571446" lon="-3.248432"><ele>822</ele><time>2019-10-02T13:54:04Z</time><name>PT11020</name></trkpt>
<trkpt lat="54.571444" lon="-3.248420"><ele>822</ele><time>2019-10-02T13:54:06Z</time><name>PT11021</name></trkpt>
<trkpt lat="54.571444" lon="-3.248405"><ele>822</ele><time>2019-10-02T13:54:06Z</time><name>PT11022</name></trkpt>
<trkpt lat="54.571445" lon="-3.248392"><ele>822</ele><time>2019-10-02T13:54:08Z</time><name>PT11023</name></trkpt>
<trkpt lat="54.571444" lon="-3.248382"><ele>821</ele><time>2019-10-02T13:54:08Z</time><name>PT11024</name></trkpt>
<trkpt lat="54.571440" lon="-3.248374"><ele>821</ele><time>2019-10-02T13:54:10Z</time><name>PT11025</name></trkpt>
<trkpt lat="54.571437" lon="-3.248366"><ele>821</ele><time>2019-10-02T13:54:11Z</time><name>PT11026</name></trkpt>
<trkpt lat="54.571435" lon="-3.248359"><ele>821</ele><time>2019-10-02T13:54:12Z</time><name>PT11027</name></trkpt>
<trkpt lat="54.571431" lon="-3.248351"><ele>821</ele><time>2019-10-02T13:54:13Z</time><name>PT11028</name></trkpt>
<trkpt lat="54.571430" lon="-3.248341"><ele>820</ele><time>2019-10-02T13:54:14Z</time><name>PT11029</name></trkpt>
<trkpt lat="54.571431" lon="-3.248330"><ele>820</ele><time>2019-10-02T13:54:15Z</time><name>PT11030</name></trkpt>
<trkpt lat="54.571432" lon="-3.248320"><ele>820</ele><time>2019-10-02T13:54:16Z</time><name>PT11031</name></trkpt>
<trkpt lat="54.571431" lon="-3.248309"><ele>819</ele><time>2019-10-02T13:54:17Z</time><name>PT11032</name></trkpt>
<trkpt lat="54.571427" lon="-3.248303"><ele>819</ele><time>2019-10-02T13:54:18Z</time><name>PT11033</name></trkpt>
<trkpt lat="54.571422" lon="-3.248294"><ele>819</ele><time>2019-10-02T13:54:19Z</time><name>PT11034</name></trkpt>
<trkpt lat="54.571419" lon="-3.248285"><ele>819</ele><time>2019-10-02T13:54:20Z</time><name>PT11035</name></trkpt>
<trkpt lat="54.571419" lon="-3.248273"><ele>818</ele><time>2019-10-02T13:54:21Z</time><name>PT11036</name></trkpt>
<trkpt lat="54.571421" lon="-3.248260"><ele>818</ele><time>2019-10-02T13:54:22Z</time><name>PT11037</name></trkpt>
<trkpt lat="54.571422" lon="-3.248252"><ele>817</ele><time>2019-10-02T13:54:23Z</time><name>PT11038</name></trkpt>
<trkpt lat="54.571421" lon="-3.248241"><ele>817</ele><time>2019-10-02T13:54:24Z</time><name>PT11039</name></trkpt>
<trkpt lat="54.571421" lon="-3.248229"><ele>817</ele><time>2019-10-02T13:54:25Z</time><name>PT11040</name></trkpt>
<trkpt lat="54.571421" lon="-3.248219"><ele>817</ele><time>2019-10-02T13:54:26Z</time><name>PT11041</name></trkpt>
<trkpt lat="54.571419" lon="-3.248210"><ele>816</ele><time>2019-10-02T13:54:27Z</time><name>PT11042</name></trkpt>
<trkpt lat="54.571418" lon="-3.248195"><ele>816</ele><time>2019-10-02T13:54:28Z</time><name>PT11043</name></trkpt>
<trkpt lat="54.571418" lon="-3.248186"><ele>816</ele><time>2019-10-02T13:54:29Z</time><name>PT11044</name></trkpt>
<trkpt lat="54.571416" lon="-3.248181"><ele>816</ele><time>2019-10-02T13:54:30Z</time><name>PT11045</name></trkpt>
<trkpt lat="54.571411" lon="-3.248172"><ele>816</ele><time>2019-10-02T13:54:31Z</time><name>PT11046</name></trkpt>
<trkpt lat="54.571406" lon="-3.248163"><ele>815</ele><time>2019-10-02T13:54:32Z</time><name>PT11047</name></trkpt>
<trkpt lat="54.571405" lon="-3.248154"><ele>815</ele><time>2019-10-02T13:54:33Z</time><name>PT11048</name></trkpt>
<trkpt lat="54.571403" lon="-3.248142"><ele>815</ele><time>2019-10-02T13:54:34Z</time><name>PT11049</name></trkpt>
<trkpt lat="54.571401" lon="-3.248131"><ele>815</ele><time>2019-10-02T13:54:35Z</time><name>PT11050</name></trkpt>
<trkpt lat="54.571401" lon="-3.248120"><ele>815</ele><time>2019-10-02T13:54:36Z</time><name>PT11051</name></trkpt>
<trkpt lat="54.571402" lon="-3.248109"><ele>814</ele><time>2019-10-02T13:54:37Z</time><name>PT11052</name></trkpt>
<trkpt lat="54.571401" lon="-3.248098"><ele>814</ele><time>2019-10-02T13:54:38Z</time><name>PT11053</name></trkpt>
<trkpt lat="54.571401" lon="-3.248087"><ele>814</ele><time>2019-10-02T13:54:39Z</time><name>PT11054</name></trkpt>
<trkpt lat="54.571399" lon="-3.248077"><ele>814</ele><time>2019-10-02T13:54:40Z</time><name>PT11055</name></trkpt>
<trkpt lat="54.571395" lon="-3.248069"><ele>813</ele><time>2019-10-02T13:54:40Z</time><name>PT11056</name></trkpt>
<trkpt lat="54.571393" lon="-3.248063"><ele>814</ele><time>2019-10-02T13:54:42Z</time><name>PT11057</name></trkpt>
<trkpt lat="54.571392" lon="-3.248065"><ele>813</ele><time>2019-10-02T13:54:44Z</time><name>PT11058</name></trkpt>
<trkpt lat="54.571387" lon="-3.248055"><ele>813</ele><time>2019-10-02T13:54:44Z</time><name>PT11059</name></trkpt>
<trkpt lat="54.571382" lon="-3.248046"><ele>813</ele><time>2019-10-02T13:54:46Z</time><name>PT11060</name></trkpt>
<trkpt lat="54.571380" lon="-3.248041"><ele>813</ele><time>2019-10-02T13:54:46Z</time><name>PT11061</name></trkpt>
<trkpt lat="54.571377" lon="-3.248029"><ele>813</ele><time>2019-10-02T13:54:48Z</time><name>PT11062</name></trkpt>
<trkpt lat="54.571373" lon="-3.248017"><ele>812</ele><time>2019-10-02T13:54:48Z</time><name>PT11063</name></trkpt>
<trkpt lat="54.571372" lon="-3.248006"><ele>812</ele><time>2019-10-02T13:54:50Z</time><name>PT11064</name></trkpt>
<trkpt lat="54.571372" lon="-3.247996"><ele>812</ele><time>2019-10-02T13:54:50Z</time><name>PT11065</name></trkpt>
<trkpt lat="54.571372" lon="-3.247985"><ele>812</ele><time>2019-10-02T13:54:52Z</time><name>PT11066</name></trkpt>
<trkpt lat="54.571369" lon="-3.247975"><ele>811</ele><time>2019-10-02T13:54:52Z</time><name>PT11067</name></trkpt>
<trkpt lat="54.571369" lon="-3.247962"><ele>811</ele><time>2019-10-02T13:54:54Z</time><name>PT11068</name></trkpt>
<trkpt lat="54.571369" lon="-3.247952"><ele>811</ele><time>2019-10-02T13:54:54Z</time><name>PT11069</name></trkpt>
<trkpt lat="54.571368" lon="-3.247944"><ele>811</ele><time>2019-10-02T13:54:56Z</time><name>PT11070</name></trkpt>
<trkpt lat="54.571366" lon="-3.247934"><ele>811</ele><time>2019-10-02T13:54:56Z</time><name>PT11071</name></trkpt>
<trkpt lat="54.571363" lon="-3.247925"><ele>810</ele><time>2019-10-02T13:54:58Z</time><name>PT11072</name></trkpt>
<trkpt lat="54.571360" lon="-3.247917"><ele>810</ele><time>2019-10-02T13:54:58Z</time><name>PT11073</name></trkpt>
<trkpt lat="54.571352" lon="-3.247910"><ele>810</ele><time>2019-10-02T13:55:00Z</time><name>PT11074</name></trkpt>
<trkpt lat="54.571344" lon="-3.247905"><ele>809</ele><time>2019-10-02T13:55:00Z</time><name>PT11075</name></trkpt>
<trkpt lat="54.571335" lon="-3.247900"><ele>809</ele><time>2019-10-02T13:55:02Z</time><name>PT11076</name></trkpt>
<trkpt lat="54.571327" lon="-3.247892"><ele>809</ele><time>2019-10-02T13:55:02Z</time><name>PT11077</name></trkpt>
<trkpt lat="54.571325" lon="-3.247887"><ele>809</ele><time>2019-10-02T13:55:04Z</time><name>PT11078</name></trkpt>
<trkpt lat="54.571324" lon="-3.247882"><ele>809</ele><time>2019-10-02T13:55:04Z</time><name>PT11079</name></trkpt>
<trkpt lat="54.571318" lon="-3.247877"><ele>809</ele><time>2019-10-02T13:55:06Z</time><name>PT11080</name></trkpt>
<trkpt lat="54.571317" lon="-3.247871"><ele>809</ele><time>2019-10-02T13:55:06Z</time><name>PT11081</name></trkpt>
<trkpt lat="54.571319" lon="-3.247864"><ele>809</ele><time>2019-10-02T13:55:08Z</time><name>PT11082</name></trkpt>
<trkpt lat="54.571319" lon="-3.247858"><ele>809</ele><time>2019-10-02T13:55:08Z</time><name>PT11083</name></trkpt>
<trkpt lat="54.571318" lon="-3.247854"><ele>809</ele><time>2019-10-02T13:55:10Z</time><name>PT11084</name></trkpt>
<trkpt lat="54.571317" lon="-3.247853"><ele>809</ele><time>2019-10-02T13:55:10Z</time><name>PT11085</name></trkpt>
<trkpt lat="54.571314" lon="-3.247851"><ele>809</ele><time>2019-10-02T13:55:12Z</time><name>PT11086</name></trkpt>
<trkpt lat="54.571314" lon="-3.247851"><ele>809</ele><time>2019-10-02T13:55:12Z</time><name>PT11087</name></trkpt>
<trkpt lat="54.571315" lon="-3.247851"><ele>809</ele><time>2019-10-02T13:55:14Z</time><name>PT11088</name></trkpt>
<trkpt lat="54.571314" lon="-3.247848"><ele>809</ele><time>2019-10-02T13:55:14Z</time><name>PT11089</name></trkpt>
<trkpt lat="54.571311" lon="-3.247846"><ele>809</ele><time>2019-10-02T13:55:16Z</time><name>PT11090</name></trkpt>
<trkpt lat="54.571308" lon="-3.247847"><ele>809</ele><time>2019-10-02T13:55:16Z</time><name>PT11091</name></trkpt>
<trkpt lat="54.571307" lon="-3.247843"><ele>809</ele><time>2019-10-02T13:55:18Z</time><name>PT11092</name></trkpt>
<trkpt lat="54.571308" lon="-3.247836"><ele>809</ele><time>2019-10-02T13:55:18Z</time><name>PT11093</name></trkpt>
<trkpt lat="54.571306" lon="-3.247833"><ele>809</ele><time>2019-10-02T13:55:20Z</time><name>PT11094</name></trkpt>
<trkpt lat="54.571304" lon="-3.247832"><ele>809</ele><time>2019-10-02T13:55:20Z</time><name>PT11095</name></trkpt>
<trkpt lat="54.571302" lon="-3.247835"><ele>808</ele><time>2019-10-02T13:55:22Z</time><name>PT11096</name></trkpt>
<trkpt lat="54.571298" lon="-3.247834"><ele>808</ele><time>2019-10-02T13:55:22Z</time><name>PT11097</name></trkpt>
<trkpt lat="54.571297" lon="-3.247832"><ele>808</ele><time>2019-10-02T13:55:24Z</time><name>PT11098</name></trkpt>
<trkpt lat="54.571296" lon="-3.247829"><ele>808</ele><time>2019-10-02T13:55:24Z</time><name>PT11099</name></trkpt>
<trkpt lat="54.571296" lon="-3.247831"><ele>808</ele><time>2019-10-02T13:55:26Z</time><name>PT11100</name></trkpt>
<trkpt lat="54.571292" lon="-3.247829"><ele>808</ele><time>2019-10-02T13:55:27Z</time><name>PT11101</name></trkpt>
<trkpt lat="54.571288" lon="-3.247827"><ele>807</ele><time>2019-10-02T13:55:28Z</time><name>PT11102</name></trkpt>
<trkpt lat="54.571286" lon="-3.247821"><ele>807</ele><time>2019-10-02T13:55:29Z</time><name>PT11103</name></trkpt>
<trkpt lat="54.571286" lon="-3.247809"><ele>806</ele><time>2019-10-02T13:55:30Z</time><name>PT11104</name></trkpt>
<trkpt lat="54.571287" lon="-3.247792"><ele>807</ele><time>2019-10-02T13:55:31Z</time><name>PT11105</name></trkpt>
<trkpt lat="54.571291" lon="-3.247781"><ele>806</ele><time>2019-10-02T13:55:32Z</time><name>PT11106</name></trkpt>
<trkpt lat="54.571295" lon="-3.247772"><ele>806</ele><time>2019-10-02T13:55:33Z</time><name>PT11107</name></trkpt>
<trkpt lat="54.571299" lon="-3.247766"><ele>805</ele><time>2019-10-02T13:55:34Z</time><name>PT11108</name></trkpt>
<trkpt lat="54.571301" lon="-3.247762"><ele>805</ele><time>2019-10-02T13:55:35Z</time><name>PT11109</name></trkpt>
<trkpt lat="54.571301" lon="-3.247754"><ele>805</ele><time>2019-10-02T13:55:36Z</time><name>PT11110</name></trkpt>
<trkpt lat="54.571301" lon="-3.247747"><ele>805</ele><time>2019-10-02T13:55:37Z</time><name>PT11111</name></trkpt>
<trkpt lat="54.571303" lon="-3.247741"><ele>805</ele><time>2019-10-02T13:55:38Z</time><name>PT11112</name></trkpt>
<trkpt lat="54.571304" lon="-3.247737"><ele>805</ele><time>2019-10-02T13:55:38Z</time><name>PT11113</name></trkpt>
<trkpt lat="54.571305" lon="-3.247721"><ele>804</ele><time>2019-10-02T13:55:40Z</time><name>PT11114</name></trkpt>
<trkpt lat="54.571305" lon="-3.247710"><ele>804</ele><time>2019-10-02T13:55:41Z</time><name>PT11115</name></trkpt>
<trkpt lat="54.571307" lon="-3.247709"><ele>804</ele><time>2019-10-02T13:55:42Z</time><name>PT11116</name></trkpt>
<trkpt lat="54.571310" lon="-3.247705"><ele>803</ele><time>2019-10-02T13:55:43Z</time><name>PT11117</name></trkpt>
<trkpt lat="54.571310" lon="-3.247699"><ele>803</ele><time>2019-10-02T13:55:44Z</time><name>PT11118</name></trkpt>
<trkpt lat="54.571313" lon="-3.247695"><ele>803</ele><time>2019-10-02T13:55:45Z</time><name>PT11119</name></trkpt>
<trkpt lat="54.571314" lon="-3.247688"><ele>803</ele><time>2019-10-02T13:55:46Z</time><name>PT11120</name></trkpt>
<trkpt lat="54.571314" lon="-3.247677"><ele>803</ele><time>2019-10-02T13:55:47Z</time><name>PT11121</name></trkpt>
<trkpt lat="54.571317" lon="-3.247672"><ele>802</ele><time>2019-10-02T13:55:48Z</time><name>PT11122</name></trkpt>
<trkpt lat="54.571321" lon="-3.247669"><ele>802</ele><time>2019-10-02T13:55:48Z</time><name>PT11123</name></trkpt>
<trkpt lat="54.571323" lon="-3.247667"><ele>802</ele><time>2019-10-02T13:55:50Z</time><name>PT11124</name></trkpt>
<trkpt lat="54.571321" lon="-3.247662"><ele>801</ele><time>2019-10-02T13:55:50Z</time><name>PT11125</name></trkpt>
<trkpt lat="54.571319" lon="-3.247653"><ele>801</ele><time>2019-10-02T13:55:52Z</time><name>PT11126</name></trkpt>
<trkpt lat="54.571316" lon="-3.247641"><ele>800</ele><time>2019-10-02T13:55:52Z</time><name>PT11127</name></trkpt>
<trkpt lat="54.571314" lon="-3.247628"><ele>800</ele><time>2019-10-02T13:55:54Z</time><name>PT11128</name></trkpt>
<trkpt lat="54.571312" lon="-3.247615"><ele>800</ele><time>2019-10-02T13:55:54Z</time><name>PT11129</name></trkpt>
<trkpt lat="54.571309" lon="-3.247600"><ele>800</ele><time>2019-10-02T13:55:56Z</time><name>PT11130</name></trkpt>
<trkpt lat="54.571304" lon="-3.247588"><ele>800</ele><time>2019-10-02T13:55:56Z</time><name>PT11131</name></trkpt>
<trkpt lat="54.571297" lon="-3.247576"><ele>800</ele><time>2019-10-02T13:55:58Z</time><name>PT11132</name></trkpt>
<trkpt lat="54.571289" lon="-3.247564"><ele>799</ele><time>2019-10-02T13:55:58Z</time><name>PT11133</name></trkpt>
<trkpt lat="54.571283" lon="-3.247557"><ele>799</ele><time>2019-10-02T13:56:00Z</time><name>PT11134</name></trkpt>
<trkpt lat="54.571274" lon="-3.247550"><ele>799</ele><time>2019-10-02T13:56:00Z</time><name>PT11135</name></trkpt>
<trkpt lat="54.571267" lon="-3.247545"><ele>799</ele><time>2019-10-02T13:56:02Z</time><name>PT11136</name></trkpt>
<trkpt lat="54.571264" lon="-3.247536"><ele>798</ele><time>2019-10-02T13:56:02Z</time><name>PT11137</name></trkpt>
<trkpt lat="54.571266" lon="-3.247529"><ele>798</ele><time>2019-10-02T13:56:04Z</time><name>PT11138</name></trkpt>
<trkpt lat="54.571269" lon="-3.247524"><ele>798</ele><time>2019-10-02T13:56:04Z</time><name>PT11139</name></trkpt>
<trkpt lat="54.571268" lon="-3.247519"><ele>798</ele><time>2019-10-02T13:56:06Z</time><name>PT11140</name></trkpt>
<trkpt lat="54.571265" lon="-3.247517"><ele>797</ele><time>2019-10-02T13:56:06Z</time><name>PT11141</name></trkpt>
<trkpt lat="54.571262" lon="-3.247511"><ele>797</ele><time>2019-10-02T13:56:08Z</time><name>PT11142</name></trkpt>
<trkpt lat="54.571262" lon="-3.247511"><ele>797</ele><time>2019-10-02T13:56:08Z</time><name>PT11143</name></trkpt>
<trkpt lat="54.571258" lon="-3.247513"><ele>797</ele><time>2019-10-02T13:56:10Z</time><name>PT11144</name></trkpt>
<trkpt lat="54.571255" lon="-3.247511"><ele>797</ele><time>2019-10-02T13:56:10Z</time><name>PT11145</name></trkpt>
<trkpt lat="54.571252" lon="-3.247507"><ele>796</ele><time>2019-10-02T13:56:12Z</time><name>PT11146</name></trkpt>
<trkpt lat="54.571248" lon="-3.247502"><ele>796</ele><time>2019-10-02T13:56:12Z</time><name>PT11147</name></trkpt>
<trkpt lat="54.571245" lon="-3.247494"><ele>796</ele><time>2019-10-02T13:56:14Z</time><name>PT11148</name></trkpt>
<trkpt lat="54.571247" lon="-3.247485"><ele>796</ele><time>2019-10-02T13:56:14Z</time><name>PT11149</name></trkpt>
<trkpt lat="54.571251" lon="-3.247481"><ele>795</ele><time>2019-10-02T13:56:16Z</time><name>PT11150</name></trkpt>
<trkpt lat="54.571249" lon="-3.247472"><ele>795</ele><time>2019-10-02T13:56:16Z</time><name>PT11151</name></trkpt>
<trkpt lat="54.571249" lon="-3.247459"><ele>795</ele><time>2019-10-02T13:56:18Z</time><name>PT11152</name></trkpt>
<trkpt lat="54.571248" lon="-3.247447"><ele>795</ele><time>2019-10-02T13:56:18Z</time><name>PT11153</name></trkpt>
<trkpt lat="54.571245" lon="-3.247439"><ele>795</ele><time>2019-10-02T13:56:20Z</time><name>PT11154</name></trkpt>
<trkpt lat="54.571245" lon="-3.247427"><ele>794</ele><time>2019-10-02T13:56:21Z</time><name>PT11155</name></trkpt>
<trkpt lat="54.571244" lon="-3.247416"><ele>794</ele><time>2019-10-02T13:56:22Z</time><name>PT11156</name></trkpt>
<trkpt lat="54.571244" lon="-3.247403"><ele>794</ele><time>2019-10-02T13:56:22Z</time><name>PT11157</name></trkpt>
<trkpt lat="54.571245" lon="-3.247391"><ele>794</ele><time>2019-10-02T13:56:24Z</time><name>PT11158</name></trkpt>
<trkpt lat="54.571247" lon="-3.247381"><ele>793</ele><time>2019-10-02T13:56:24Z</time><name>PT11159</name></trkpt>
<trkpt lat="54.571249" lon="-3.247371"><ele>793</ele><time>2019-10-02T13:56:26Z</time><name>PT11160</name></trkpt>
<trkpt lat="54.571250" lon="-3.247363"><ele>793</ele><time>2019-10-02T13:56:27Z</time><name>PT11161</name></trkpt>
<trkpt lat="54.571251" lon="-3.247352"><ele>793</ele><time>2019-10-02T13:56:28Z</time><name>PT11162</name></trkpt>
<trkpt lat="54.571252" lon="-3.247345"><ele>792</ele><time>2019-10-02T13:56:28Z</time><name>PT11163</name></trkpt>
<trkpt lat="54.571251" lon="-3.247335"><ele>792</ele><time>2019-10-02T13:56:30Z</time><name>PT11164</name></trkpt>
<trkpt lat="54.571250" lon="-3.247321"><ele>792</ele><time>2019-10-02T13:56:30Z</time><name>PT11165</name></trkpt>
<trkpt lat="54.571249" lon="-3.247309"><ele>791</ele><time>2019-10-02T13:56:32Z</time><name>PT11166</name></trkpt>
<trkpt lat="54.571250" lon="-3.247296"><ele>791</ele><time>2019-10-02T13:56:32Z</time><name>PT11167</name></trkpt>
<trkpt lat="54.571249" lon="-3.247283"><ele>790</ele><time>2019-10-02T13:56:34Z</time><name>PT11168</name></trkpt>
<trkpt lat="54.571247" lon="-3.247269"><ele>790</ele><time>2019-10-02T13:56:34Z</time><name>PT11169</name></trkpt>
<trkpt lat="54.571245" lon="-3.247255"><ele>790</ele><time>2019-10-02T13:56:36Z</time><name>PT11170</name></trkpt>
<trkpt lat="54.571244" lon="-3.247242"><ele>789</ele><time>2019-10-02T13:56:36Z</time><name>PT11171</name></trkpt>
<trkpt lat="54.571244" lon="-3.247225"><ele>789</ele><time>2019-10-02T13:56:38Z</time><name>PT11172</name></trkpt>
<trkpt lat="54.571245" lon="-3.247211"><ele>789</ele><time>2019-10-02T13:56:38Z</time><name>PT11173</name></trkpt>
<trkpt lat="54.571246" lon="-3.247199"><ele>789</ele><time>2019-10-02T13:56:40Z</time><name>PT11174</name></trkpt>
<trkpt lat="54.571245" lon="-3.247186"><ele>788</ele><time>2019-10-02T13:56:40Z</time><name>PT11175</name></trkpt>
<trkpt lat="54.571245" lon="-3.247169"><ele>788</ele><time>2019-10-02T13:56:42Z</time><name>PT11176</name></trkpt>
<trkpt lat="54.571246" lon="-3.247153"><ele>788</ele><time>2019-10-02T13:56:42Z</time><name>PT11177</name></trkpt>
<trkpt lat="54.571245" lon="-3.247136"><ele>787</ele><time>2019-10-02T13:56:44Z</time><name>PT11178</name></trkpt>
<trkpt lat="54.571245" lon="-3.247122"><ele>787</ele><time>2019-10-02T13:56:44Z</time><name>PT11179</name></trkpt>
<trkpt lat="54.571244" lon="-3.247107"><ele>787</ele><time>2019-10-02T13:56:46Z</time><name>PT11180</name></trkpt>
<trkpt lat="54.571241" lon="-3.247091"><ele>787</ele><time>2019-10-02T13:56:46Z</time><name>PT11181</name></trkpt>
<trkpt lat="54.571239" lon="-3.247076"><ele>786</ele><time>2019-10-02T13:56:48Z</time><name>PT11182</name></trkpt>
<trkpt lat="54.571237" lon="-3.247062"><ele>786</ele><time>2019-10-02T13:56:48Z</time><name>PT11183</name></trkpt>
<trkpt lat="54.571235" lon="-3.247050"><ele>785</ele><time>2019-10-02T13:56:50Z</time><name>PT11184</name></trkpt>
<trkpt lat="54.571233" lon="-3.247035"><ele>785</ele><time>2019-10-02T13:56:50Z</time><name>PT11185</name></trkpt>
<trkpt lat="54.571231" lon="-3.247017"><ele>785</ele><time>2019-10-02T13:56:52Z</time><name>PT11186</name></trkpt>
<trkpt lat="54.571229" lon="-3.247002"><ele>785</ele><time>2019-10-02T13:56:53Z</time><name>PT11187</name></trkpt>
<trkpt lat="54.571227" lon="-3.246985"><ele>784</ele><time>2019-10-02T13:56:54Z</time><name>PT11188</name></trkpt>
<trkpt lat="54.571226" lon="-3.246968"><ele>784</ele><time>2019-10-02T13:56:55Z</time><name>PT11189</name></trkpt>
<trkpt lat="54.571225" lon="-3.246950"><ele>784</ele><time>2019-10-02T13:56:56Z</time><name>PT11190</name></trkpt>
<trkpt lat="54.571223" lon="-3.246934"><ele>783</ele><time>2019-10-02T13:56:57Z</time><name>PT11191</name></trkpt>
<trkpt lat="54.571219" lon="-3.246920"><ele>783</ele><time>2019-10-02T13:56:58Z</time><name>PT11192</name></trkpt>
<trkpt lat="54.571213" lon="-3.246908"><ele>783</ele><time>2019-10-02T13:56:59Z</time><name>PT11193</name></trkpt>
<trkpt lat="54.571209" lon="-3.246890"><ele>783</ele><time>2019-10-02T13:57:00Z</time><name>PT11194</name></trkpt>
<trkpt lat="54.571207" lon="-3.246872"><ele>783</ele><time>2019-10-02T13:57:00Z</time><name>PT11195</name></trkpt>
<trkpt lat="54.571203" lon="-3.246858"><ele>783</ele><time>2019-10-02T13:57:02Z</time><name>PT11196</name></trkpt>
<trkpt lat="54.571199" lon="-3.246844"><ele>782</ele><time>2019-10-02T13:57:02Z</time><name>PT11197</name></trkpt>
<trkpt lat="54.571198" lon="-3.246832"><ele>782</ele><time>2019-10-02T13:57:04Z</time><name>PT11198</name></trkpt>
<trkpt lat="54.571197" lon="-3.246821"><ele>782</ele><time>2019-10-02T13:57:04Z</time><name>PT11199</name></trkpt>
<trkpt lat="54.571194" lon="-3.246811"><ele>782</ele><time>2019-10-02T13:57:06Z</time><name>PT11200</name></trkpt>
<trkpt lat="54.571191" lon="-3.246805"><ele>781</ele><time>2019-10-02T13:57:06Z</time><name>PT11201</name></trkpt>
<trkpt lat="54.571186" lon="-3.246796"><ele>781</ele><time>2019-10-02T13:57:08Z</time><name>PT11202</name></trkpt>
<trkpt lat="54.571183" lon="-3.246782"><ele>781</ele><time>2019-10-02T13:57:08Z</time><name>PT11203</name></trkpt>
<trkpt lat="54.571182" lon="-3.246770"><ele>781</ele><time>2019-10-02T13:57:10Z</time><name>PT11204</name></trkpt>
<trkpt lat="54.571183" lon="-3.246758"><ele>780</ele><time>2019-10-02T13:57:10Z</time><name>PT11205</name></trkpt>
<trkpt lat="54.571182" lon="-3.246749"><ele>780</ele><time>2019-10-02T13:57:12Z</time><name>PT11206</name></trkpt>
<trkpt lat="54.571180" lon="-3.246740"><ele>780</ele><time>2019-10-02T13:57:12Z</time><name>PT11207</name></trkpt>
<trkpt lat="54.571182" lon="-3.246734"><ele>780</ele><time>2019-10-02T13:57:14Z</time><name>PT11208</name></trkpt>
<trkpt lat="54.571184" lon="-3.246728"><ele>780</ele><time>2019-10-02T13:57:14Z</time><name>PT11209</name></trkpt>
<trkpt lat="54.571183" lon="-3.246719"><ele>779</ele><time>2019-10-02T13:57:16Z</time><name>PT11210</name></trkpt>
<trkpt lat="54.571181" lon="-3.246710"><ele>779</ele><time>2019-10-02T13:57:16Z</time><name>PT11211</name></trkpt>
<trkpt lat="54.571181" lon="-3.246701"><ele>779</ele><time>2019-10-02T13:57:18Z</time><name>PT11212</name></trkpt>
<trkpt lat="54.571179" lon="-3.246693"><ele>779</ele><time>2019-10-02T13:57:18Z</time><name>PT11213</name></trkpt>
<trkpt lat="54.571177" lon="-3.246687"><ele>779</ele><time>2019-10-02T13:57:20Z</time><name>PT11214</name></trkpt>
<trkpt lat="54.571174" lon="-3.246676"><ele>779</ele><time>2019-10-02T13:57:20Z</time><name>PT11215</name></trkpt>
<trkpt lat="54.571171" lon="-3.246667"><ele>779</ele><time>2019-10-02T13:57:22Z</time><name>PT11216</name></trkpt>
<trkpt lat="54.571167" lon="-3.246660"><ele>779</ele><time>2019-10-02T13:57:22Z</time><name>PT11217</name></trkpt>
<trkpt lat="54.571164" lon="-3.246654"><ele>779</ele><time>2019-10-02T13:57:24Z</time><name>PT11218</name></trkpt>
<trkpt lat="54.571163" lon="-3.246650"><ele>778</ele><time>2019-10-02T13:57:24Z</time><name>PT11219</name></trkpt>
<trkpt lat="54.571160" lon="-3.246639"><ele>778</ele><time>2019-10-02T13:57:26Z</time><name>PT11220</name></trkpt>
<trkpt lat="54.571159" lon="-3.246631"><ele>778</ele><time>2019-10-02T13:57:26Z</time><name>PT11221</name></trkpt>
<trkpt lat="54.571159" lon="-3.246627"><ele>778</ele><time>2019-10-02T13:57:28Z</time><name>PT11222</name></trkpt>
<trkpt lat="54.571159" lon="-3.246622"><ele>778</ele><time>2019-10-02T13:57:28Z</time><name>PT11223</name></trkpt>
<trkpt lat="54.571160" lon="-3.246620"><ele>777</ele><time>2019-10-02T13:57:31Z</time><name>PT11224</name></trkpt>
<trkpt lat="54.571162" lon="-3.246616"><ele>776</ele><time>2019-10-02T13:57:32Z</time><name>PT11225</name></trkpt>
<trkpt lat="54.571167" lon="-3.246609"><ele>776</ele><time>2019-10-02T13:57:33Z</time><name>PT11226</name></trkpt>
<trkpt lat="54.571169" lon="-3.246602"><ele>776</ele><time>2019-10-02T13:57:34Z</time><name>PT11227</name></trkpt>
<trkpt lat="54.571171" lon="-3.246589"><ele>775</ele><time>2019-10-02T13:57:35Z</time><name>PT11228</name></trkpt>
<trkpt lat="54.571174" lon="-3.246575"><ele>775</ele><time>2019-10-02T13:57:36Z</time><name>PT11229</name></trkpt>
<trkpt lat="54.571179" lon="-3.246561"><ele>775</ele><time>2019-10-02T13:57:37Z</time><name>PT11230</name></trkpt>
<trkpt lat="54.571183" lon="-3.246550"><ele>774</ele><time>2019-10-02T13:57:38Z</time><name>PT11231</name></trkpt>
<trkpt lat="54.571186" lon="-3.246540"><ele>774</ele><time>2019-10-02T13:57:39Z</time><name>PT11232</name></trkpt>
<trkpt lat="54.571187" lon="-3.246529"><ele>774</ele><time>2019-10-02T13:57:40Z</time><name>PT11233</name></trkpt>
<trkpt lat="54.571186" lon="-3.246523"><ele>773</ele><time>2019-10-02T13:57:40Z</time><name>PT11234</name></trkpt>
<trkpt lat="54.571188" lon="-3.246515"><ele>773</ele><time>2019-10-02T13:57:46Z</time><name>PT11235</name></trkpt>
<trkpt lat="54.571181" lon="-3.246497"><ele>773</ele><time>2019-10-02T13:57:48Z</time><name>PT11236</name></trkpt>
<trkpt lat="54.571178" lon="-3.246478"><ele>772</ele><time>2019-10-02T13:57:48Z</time><name>PT11237</name></trkpt>
<trkpt lat="54.571180" lon="-3.246460"><ele>772</ele><time>2019-10-02T13:57:50Z</time><name>PT11238</name></trkpt>
<trkpt lat="54.571183" lon="-3.246447"><ele>772</ele><time>2019-10-02T13:57:50Z</time><name>PT11239</name></trkpt>
<trkpt lat="54.571187" lon="-3.246435"><ele>772</ele><time>2019-10-02T13:57:52Z</time><name>PT11240</name></trkpt>
<trkpt lat="54.571190" lon="-3.246420"><ele>772</ele><time>2019-10-02T13:57:52Z</time><name>PT11241</name></trkpt>
<trkpt lat="54.571189" lon="-3.246400"><ele>772</ele><time>2019-10-02T13:57:54Z</time><name>PT11242</name></trkpt>
<trkpt lat="54.571190" lon="-3.246387"><ele>772</ele><time>2019-10-02T13:57:54Z</time><name>PT11243</name></trkpt>
<trkpt lat="54.571188" lon="-3.246373"><ele>771</ele><time>2019-10-02T13:57:56Z</time><name>PT11244</name></trkpt>
<trkpt lat="54.571185" lon="-3.246359"><ele>771</ele><time>2019-10-02T13:57:56Z</time><name>PT11245</name></trkpt>
<trkpt lat="54.571181" lon="-3.246348"><ele>771</ele><time>2019-10-02T13:57:58Z</time><name>PT11246</name></trkpt>
<trkpt lat="54.571180" lon="-3.246341"><ele>771</ele><time>2019-10-02T13:57:58Z</time><name>PT11247</name></trkpt>
<trkpt lat="54.571180" lon="-3.246330"><ele>770</ele><time>2019-10-02T13:58:00Z</time><name>PT11248</name></trkpt>
<trkpt lat="54.571177" lon="-3.246317"><ele>770</ele><time>2019-10-02T13:58:00Z</time><name>PT11249</name></trkpt>
<trkpt lat="54.571173" lon="-3.246301"><ele>770</ele><time>2019-10-02T13:58:02Z</time><name>PT11250</name></trkpt>
<trkpt lat="54.571171" lon="-3.246285"><ele>770</ele><time>2019-10-02T13:58:02Z</time><name>PT11251</name></trkpt>
<trkpt lat="54.571168" lon="-3.246269"><ele>769</ele><time>2019-10-02T13:58:04Z</time><name>PT11252</name></trkpt>
<trkpt lat="54.571165" lon="-3.246260"><ele>769</ele><time>2019-10-02T13:58:04Z</time><name>PT11253</name></trkpt>
<trkpt lat="54.571161" lon="-3.246248"><ele>769</ele><time>2019-10-02T13:58:06Z</time><name>PT11254</name></trkpt>
<trkpt lat="54.571158" lon="-3.246238"><ele>769</ele><time>2019-10-02T13:58:06Z</time><name>PT11255</name></trkpt>
<trkpt lat="54.571155" lon="-3.246223"><ele>769</ele><time>2019-10-02T13:58:08Z</time><name>PT11256</name></trkpt>
<trkpt lat="54.571150" lon="-3.246209"><ele>769</ele><time>2019-10-02T13:58:08Z</time><name>PT11257</name></trkpt>
<trkpt lat="54.571144" lon="-3.246197"><ele>769</ele><time>2019-10-02T13:58:10Z</time><name>PT11258</name></trkpt>
<trkpt lat="54.571142" lon="-3.246184"><ele>768</ele><time>2019-10-02T13:58:10Z</time><name>PT11259</name></trkpt>
<trkpt lat="54.571139" lon="-3.246169"><ele>768</ele><time>2019-10-02T13:58:12Z</time><name>PT11260</name></trkpt>
<trkpt lat="54.571138" lon="-3.246155"><ele>768</ele><time>2019-10-02T13:58:12Z</time><name>PT11261</name></trkpt>
<trkpt lat="54.571135" lon="-3.246138"><ele>768</ele><time>2019-10-02T13:58:14Z</time><name>PT11262</name></trkpt>
<trkpt lat="54.571133" lon="-3.246125"><ele>768</ele><time>2019-10-02T13:58:14Z</time><name>PT11263</name></trkpt>
<trkpt lat="54.571131" lon="-3.246105"><ele>768</ele><time>2019-10-02T13:58:16Z</time><name>PT11264</name></trkpt>
<trkpt lat="54.571131" lon="-3.246083"><ele>767</ele><time>2019-10-02T13:58:16Z</time><name>PT11265</name></trkpt>
<trkpt lat="54.571129" lon="-3.246063"><ele>767</ele><time>2019-10-02T13:58:18Z</time><name>PT11266</name></trkpt>
<trkpt lat="54.571127" lon="-3.246045"><ele>767</ele><time>2019-10-02T13:58:18Z</time><name>PT11267</name></trkpt>
<trkpt lat="54.571127" lon="-3.246030"><ele>767</ele><time>2019-10-02T13:58:20Z</time><name>PT11268</name></trkpt>
<trkpt lat="54.571127" lon="-3.246012"><ele>767</ele><time>2019-10-02T13:58:20Z</time><name>PT11269</name></trkpt>
<trkpt lat="54.571127" lon="-3.245996"><ele>766</ele><time>2019-10-02T13:58:22Z</time><name>PT11270</name></trkpt>
<trkpt lat="54.571125" lon="-3.245980"><ele>766</ele><time>2019-10-02T13:58:23Z</time><name>PT11271</name></trkpt>
<trkpt lat="54.571124" lon="-3.245956"><ele>766</ele><time>2019-10-02T13:58:24Z</time><name>PT11272</name></trkpt>
<trkpt lat="54.571125" lon="-3.245936"><ele>766</ele><time>2019-10-02T13:58:24Z</time><name>PT11273</name></trkpt>
<trkpt lat="54.571125" lon="-3.245916"><ele>766</ele><time>2019-10-02T13:58:26Z</time><name>PT11274</name></trkpt>
<trkpt lat="54.571123" lon="-3.245895"><ele>766</ele><time>2019-10-02T13:58:26Z</time><name>PT11275</name></trkpt>
<trkpt lat="54.571121" lon="-3.245872"><ele>765</ele><time>2019-10-02T13:58:28Z</time><name>PT11276</name></trkpt>
<trkpt lat="54.571118" lon="-3.245859"><ele>764</ele><time>2019-10-02T13:58:29Z</time><name>PT11277</name></trkpt>
<trkpt lat="54.571117" lon="-3.245842"><ele>764</ele><time>2019-10-02T13:58:30Z</time><name>PT11278</name></trkpt>
<trkpt lat="54.571115" lon="-3.245821"><ele>764</ele><time>2019-10-02T13:58:31Z</time><name>PT11279</name></trkpt>
<trkpt lat="54.571113" lon="-3.245806"><ele>763</ele><time>2019-10-02T13:58:32Z</time><name>PT11280</name></trkpt>
<trkpt lat="54.571114" lon="-3.245792"><ele>763</ele><time>2019-10-02T13:58:33Z</time><name>PT11281</name></trkpt>
<trkpt lat="54.571115" lon="-3.245777"><ele>763</ele><time>2019-10-02T13:58:34Z</time><name>PT11282</name></trkpt>
<trkpt lat="54.571116" lon="-3.245767"><ele>764</ele><time>2019-10-02T13:58:34Z</time><name>PT11283</name></trkpt>
<trkpt lat="54.571116" lon="-3.245759"><ele>764</ele><time>2019-10-02T13:58:36Z</time><name>PT11284</name></trkpt>
<trkpt lat="54.571113" lon="-3.245750"><ele>764</ele><time>2019-10-02T13:58:36Z</time><name>PT11285</name></trkpt>
<trkpt lat="54.571110" lon="-3.245741"><ele>764</ele><time>2019-10-02T13:58:38Z</time><name>PT11286</name></trkpt>
<trkpt lat="54.571111" lon="-3.245728"><ele>764</ele><time>2019-10-02T13:58:38Z</time><name>PT11287</name></trkpt>
<trkpt lat="54.571114" lon="-3.245718"><ele>763</ele><time>2019-10-02T13:58:40Z</time><name>PT11288</name></trkpt>
<trkpt lat="54.571114" lon="-3.245707"><ele>764</ele><time>2019-10-02T13:58:40Z</time><name>PT11289</name></trkpt>
<trkpt lat="54.571116" lon="-3.245699"><ele>763</ele><time>2019-10-02T13:58:42Z</time><name>PT11290</name></trkpt>
<trkpt lat="54.571117" lon="-3.245691"><ele>763</ele><time>2019-10-02T13:58:42Z</time><name>PT11291</name></trkpt>
<trkpt lat="54.571120" lon="-3.245692"><ele>764</ele><time>2019-10-02T13:58:44Z</time><name>PT11292</name></trkpt>
<trkpt lat="54.571123" lon="-3.245679"><ele>763</ele><time>2019-10-02T13:58:46Z</time><name>PT11293</name></trkpt>
<trkpt lat="54.571122" lon="-3.245666"><ele>763</ele><time>2019-10-02T13:58:46Z</time><name>PT11294</name></trkpt>
<trkpt lat="54.571121" lon="-3.245657"><ele>763</ele><time>2019-10-02T13:58:48Z</time><name>PT11295</name></trkpt>
<trkpt lat="54.571123" lon="-3.245645"><ele>763</ele><time>2019-10-02T13:58:48Z</time><name>PT11296</name></trkpt>
<trkpt lat="54.571123" lon="-3.245640"><ele>763</ele><time>2019-10-02T13:58:50Z</time><name>PT11297</name></trkpt>
<trkpt lat="54.571121" lon="-3.245626"><ele>762</ele><time>2019-10-02T13:58:50Z</time><name>PT11298</name></trkpt>
<trkpt lat="54.571118" lon="-3.245606"><ele>762</ele><time>2019-10-02T13:58:52Z</time><name>PT11299</name></trkpt>
<trkpt lat="54.571116" lon="-3.245591"><ele>762</ele><time>2019-10-02T13:58:52Z</time><name>PT11300</name></trkpt>
<trkpt lat="54.571114" lon="-3.245576"><ele>762</ele><time>2019-10-02T13:58:54Z</time><name>PT11301</name></trkpt>
<trkpt lat="54.571114" lon="-3.245560"><ele>761</ele><time>2019-10-02T13:58:54Z</time><name>PT11302</name></trkpt>
<trkpt lat="54.571111" lon="-3.245546"><ele>761</ele><time>2019-10-02T13:58:56Z</time><name>PT11303</name></trkpt>
<trkpt lat="54.571109" lon="-3.245530"><ele>761</ele><time>2019-10-02T13:58:56Z</time><name>PT11304</name></trkpt>
<trkpt lat="54.571109" lon="-3.245515"><ele>761</ele><time>2019-10-02T13:58:58Z</time><name>PT11305</name></trkpt>
<trkpt lat="54.571109" lon="-3.245500"><ele>760</ele><time>2019-10-02T13:58:58Z</time><name>PT11306</name></trkpt>
<trkpt lat="54.571108" lon="-3.245484"><ele>760</ele><time>2019-10-02T13:59:00Z</time><name>PT11307</name></trkpt>
<trkpt lat="54.571107" lon="-3.245472"><ele>760</ele><time>2019-10-02T13:59:00Z</time><name>PT11308</name></trkpt>
<trkpt lat="54.571106" lon="-3.245453"><ele>760</ele><time>2019-10-02T13:59:02Z</time><name>PT11309</name></trkpt>
<trkpt lat="54.571103" lon="-3.245433"><ele>760</ele><time>2019-10-02T13:59:02Z</time><name>PT11310</name></trkpt>
<trkpt lat="54.571102" lon="-3.245418"><ele>759</ele><time>2019-10-02T13:59:04Z</time><name>PT11311</name></trkpt>
<trkpt lat="54.571101" lon="-3.245400"><ele>759</ele><time>2019-10-02T13:59:04Z</time><name>PT11312</name></trkpt>
<trkpt lat="54.571099" lon="-3.245379"><ele>759</ele><time>2019-10-02T13:59:06Z</time><name>PT11313</name></trkpt>
<trkpt lat="54.571096" lon="-3.245363"><ele>759</ele><time>2019-10-02T13:59:06Z</time><name>PT11314</name></trkpt>
<trkpt lat="54.571097" lon="-3.245356"><ele>759</ele><time>2019-10-02T13:59:08Z</time><name>PT11315</name></trkpt>
<trkpt lat="54.571097" lon="-3.245345"><ele>759</ele><time>2019-10-02T13:59:08Z</time><name>PT11316</name></trkpt>
<trkpt lat="54.571100" lon="-3.245339"><ele>759</ele><time>2019-10-02T13:59:10Z</time><name>PT11317</name></trkpt>
<trkpt lat="54.571101" lon="-3.245338"><ele>759</ele><time>2019-10-02T13:59:10Z</time><name>PT11318</name></trkpt>
<trkpt lat="54.571103" lon="-3.245333"><ele>759</ele><time>2019-10-02T13:59:12Z</time><name>PT11319</name></trkpt>
<trkpt lat="54.571112" lon="-3.245323"><ele>759</ele><time>2019-10-02T13:59:12Z</time><name>PT11320</name></trkpt>
<trkpt lat="54.571117" lon="-3.245317"><ele>759</ele><time>2019-10-02T13:59:14Z</time><name>PT11321</name></trkpt>
<trkpt lat="54.571120" lon="-3.245311"><ele>759</ele><time>2019-10-02T13:59:14Z</time><name>PT11322</name></trkpt>
<trkpt lat="54.571123" lon="-3.245312"><ele>759</ele><time>2019-10-02T13:59:16Z</time><name>PT11323</name></trkpt>
<trkpt lat="54.571126" lon="-3.245311"><ele>759</ele><time>2019-10-02T13:59:16Z</time><name>PT11324</name></trkpt>
<trkpt lat="54.571124" lon="-3.245309"><ele>759</ele><time>2019-10-02T13:59:18Z</time><name>PT11325</name></trkpt>
<trkpt lat="54.571122" lon="-3.245307"><ele>759</ele><time>2019-10-02T13:59:19Z</time><name>PT11326</name></trkpt>
<trkpt lat="54.571120" lon="-3.245303"><ele>759</ele><time>2019-10-02T13:59:20Z</time><name>PT11327</name></trkpt>
<trkpt lat="54.571119" lon="-3.245299"><ele>759</ele><time>2019-10-02T13:59:20Z</time><name>PT11328</name></trkpt>
<trkpt lat="54.571115" lon="-3.245295"><ele>759</ele><time>2019-10-02T13:59:22Z</time><name>PT11329</name></trkpt>
<trkpt lat="54.571113" lon="-3.245291"><ele>759</ele><time>2019-10-02T13:59:22Z</time><name>PT11330</name></trkpt>
<trkpt lat="54.571109" lon="-3.245288"><ele>759</ele><time>2019-10-02T13:59:24Z</time><name>PT11331</name></trkpt>
<trkpt lat="54.571108" lon="-3.245286"><ele>759</ele><time>2019-10-02T13:59:24Z</time><name>PT11332</name></trkpt>
<trkpt lat="54.571105" lon="-3.245284"><ele>759</ele><time>2019-10-02T13:59:26Z</time><name>PT11333</name></trkpt>
<trkpt lat="54.571105" lon="-3.245285"><ele>759</ele><time>2019-10-02T13:59:26Z</time><name>PT11334</name></trkpt>
<trkpt lat="54.571103" lon="-3.245288"><ele>759</ele><time>2019-10-02T13:59:29Z</time><name>PT11335</name></trkpt>
<trkpt lat="54.571099" lon="-3.245289"><ele>759</ele><time>2019-10-02T13:59:30Z</time><name>PT11336</name></trkpt>
<trkpt lat="54.571096" lon="-3.245296"><ele>759</ele><time>2019-10-02T13:59:36Z</time><name>PT11337</name></trkpt>
<trkpt lat="54.571092" lon="-3.245290"><ele>759</ele><time>2019-10-02T13:59:38Z</time><name>PT11338</name></trkpt>
<trkpt lat="54.571088" lon="-3.245288"><ele>759</ele><time>2019-10-02T13:59:38Z</time><name>PT11339</name></trkpt>
<trkpt lat="54.571088" lon="-3.245285"><ele>758</ele><time>2019-10-02T13:59:40Z</time><name>PT11340</name></trkpt>
<trkpt lat="54.571083" lon="-3.245284"><ele>758</ele><time>2019-10-02T13:59:40Z</time><name>PT11341</name></trkpt>
<trkpt lat="54.571081" lon="-3.245287"><ele>758</ele><time>2019-10-02T13:59:42Z</time><name>PT11342</name></trkpt>
<trkpt lat="54.571078" lon="-3.245283"><ele>758</ele><time>2019-10-02T13:59:43Z</time><name>PT11343</name></trkpt>
<trkpt lat="54.571077" lon="-3.245282"><ele>757</ele><time>2019-10-02T13:59:44Z</time><name>PT11344</name></trkpt>
<trkpt lat="54.571069" lon="-3.245285"><ele>757</ele><time>2019-10-02T13:59:54Z</time><name>PT11345</name></trkpt>
<trkpt lat="54.571065" lon="-3.245288"><ele>757</ele><time>2019-10-02T13:59:54Z</time><name>PT11346</name></trkpt>
<trkpt lat="54.571059" lon="-3.245290"><ele>757</ele><time>2019-10-02T13:59:56Z</time><name>PT11347</name></trkpt>
<trkpt lat="54.571050" lon="-3.245282"><ele>756</ele><time>2019-10-02T14:00:02Z</time><name>PT11348</name></trkpt>
<trkpt lat="54.571045" lon="-3.245284"><ele>756</ele><time>2019-10-02T14:00:03Z</time><name>PT11349</name></trkpt>
<trkpt lat="54.571042" lon="-3.245280"><ele>755</ele><time>2019-10-02T14:00:04Z</time><name>PT11350</name></trkpt>
<trkpt lat="54.571040" lon="-3.245286"><ele>755</ele><time>2019-10-02T14:00:04Z</time><name>PT11351</name></trkpt>
<trkpt lat="54.571028" lon="-3.245287"><ele>754</ele><time>2019-10-02T14:00:06Z</time><name>PT11352</name></trkpt>
<trkpt lat="54.571024" lon="-3.245278"><ele>754</ele><time>2019-10-02T14:00:06Z</time><name>PT11353</name></trkpt>
<trkpt lat="54.571016" lon="-3.245278"><ele>753</ele><time>2019-10-02T14:00:08Z</time><name>PT11354</name></trkpt>
<trkpt lat="54.571016" lon="-3.245271"><ele>752</ele><time>2019-10-02T14:00:08Z</time><name>PT11355</name></trkpt>
<trkpt lat="54.571014" lon="-3.245271"><ele>752</ele><time>2019-10-02T14:00:10Z</time><name>PT11356</name></trkpt>
<trkpt lat="54.571021" lon="-3.245264"><ele>752</ele><time>2019-10-02T14:00:10Z</time><name>PT11357</name></trkpt>
<trkpt lat="54.571021" lon="-3.245246"><ele>751</ele><time>2019-10-02T14:00:12Z</time><name>PT11358</name></trkpt>
<trkpt lat="54.571028" lon="-3.245235"><ele>751</ele><time>2019-10-02T14:00:12Z</time><name>PT11359</name></trkpt>
<trkpt lat="54.571030" lon="-3.245225"><ele>751</ele><time>2019-10-02T14:00:14Z</time><name>PT11360</name></trkpt>
<trkpt lat="54.571033" lon="-3.245217"><ele>751</ele><time>2019-10-02T14:00:14Z</time><name>PT11361</name></trkpt>
<trkpt lat="54.571032" lon="-3.245205"><ele>751</ele><time>2019-10-02T14:00:16Z</time><name>PT11362</name></trkpt>
<trkpt lat="54.571031" lon="-3.245190"><ele>750</ele><time>2019-10-02T14:00:16Z</time><name>PT11363</name></trkpt>
<trkpt lat="54.571030" lon="-3.245173"><ele>750</ele><time>2019-10-02T14:00:18Z</time><name>PT11364</name></trkpt>
<trkpt lat="54.571029" lon="-3.245158"><ele>750</ele><time>2019-10-02T14:00:18Z</time><name>PT11365</name></trkpt>
<trkpt lat="54.571029" lon="-3.245144"><ele>750</ele><time>2019-10-02T14:00:20Z</time><name>PT11366</name></trkpt>
<trkpt lat="54.571029" lon="-3.245133"><ele>750</ele><time>2019-10-02T14:00:20Z</time><name>PT11367</name></trkpt>
<trkpt lat="54.571027" lon="-3.245124"><ele>749</ele><time>2019-10-02T14:00:22Z</time><name>PT11368</name></trkpt>
<trkpt lat="54.571028" lon="-3.245119"><ele>749</ele><time>2019-10-02T14:00:22Z</time><name>PT11369</name></trkpt>
<trkpt lat="54.571028" lon="-3.245113"><ele>749</ele><time>2019-10-02T14:00:24Z</time><name>PT11370</name></trkpt>
<trkpt lat="54.571024" lon="-3.245104"><ele>749</ele><time>2019-10-02T14:00:24Z</time><name>PT11371</name></trkpt>
<trkpt lat="54.571025" lon="-3.245092"><ele>748</ele><time>2019-10-02T14:00:26Z</time><name>PT11372</name></trkpt>
<trkpt lat="54.571026" lon="-3.245081"><ele>748</ele><time>2019-10-02T14:00:26Z</time><name>PT11373</name></trkpt>
<trkpt lat="54.571027" lon="-3.245068"><ele>748</ele><time>2019-10-02T14:00:28Z</time><name>PT11374</name></trkpt>
<trkpt lat="54.571025" lon="-3.245059"><ele>748</ele><time>2019-10-02T14:00:28Z</time><name>PT11375</name></trkpt>
<trkpt lat="54.571022" lon="-3.245053"><ele>747</ele><time>2019-10-02T14:00:30Z</time><name>PT11376</name></trkpt>
<trkpt lat="54.571022" lon="-3.245048"><ele>747</ele><time>2019-10-02T14:00:30Z</time><name>PT11377</name></trkpt>
<trkpt lat="54.571021" lon="-3.245042"><ele>747</ele><time>2019-10-02T14:00:32Z</time><name>PT11378</name></trkpt>
<trkpt lat="54.571021" lon="-3.245036"><ele>746</ele><time>2019-10-02T14:00:32Z</time><name>PT11379</name></trkpt>
<trkpt lat="54.571024" lon="-3.245027"><ele>746</ele><time>2019-10-02T14:00:34Z</time><name>PT11380</name></trkpt>
<trkpt lat="54.571023" lon="-3.245020"><ele>746</ele><time>2019-10-02T14:00:34Z</time><name>PT11381</name></trkpt>
<trkpt lat="54.571026" lon="-3.245008"><ele>746</ele><time>2019-10-02T14:00:36Z</time><name>PT11382</name></trkpt>
<trkpt lat="54.571027" lon="-3.244996"><ele>746</ele><time>2019-10-02T14:00:36Z</time><name>PT11383</name></trkpt>
<trkpt lat="54.571028" lon="-3.244984"><ele>746</ele><time>2019-10-02T14:00:38Z</time><name>PT11384</name></trkpt>
<trkpt lat="54.571029" lon="-3.244971"><ele>746</ele><time>2019-10-02T14:00:38Z</time><name>PT11385</name></trkpt>
<trkpt lat="54.571028" lon="-3.244960"><ele>745</ele><time>2019-10-02T14:00:40Z</time><name>PT11386</name></trkpt>
<trkpt lat="54.571028" lon="-3.244950"><ele>745</ele><time>2019-10-02T14:00:40Z</time><name>PT11387</name></trkpt>
<trkpt lat="54.571029" lon="-3.244939"><ele>745</ele><time>2019-10-02T14:00:42Z</time><name>PT11388</name></trkpt>
<trkpt lat="54.571029" lon="-3.244925"><ele>745</ele><time>2019-10-02T14:00:42Z</time><name>PT11389</name></trkpt>
<trkpt lat="54.571029" lon="-3.244912"><ele>745</ele><time>2019-10-02T14:00:44Z</time><name>PT11390</name></trkpt>
<trkpt lat="54.571030" lon="-3.244894"><ele>744</ele><time>2019-10-02T14:00:44Z</time><name>PT11391</name></trkpt>
<trkpt lat="54.571031" lon="-3.244877"><ele>744</ele><time>2019-10-02T14:00:46Z</time><name>PT11392</name></trkpt>
<trkpt lat="54.571034" lon="-3.244865"><ele>744</ele><time>2019-10-02T14:00:46Z</time><name>PT11393</name></trkpt>
<trkpt lat="54.571036" lon="-3.244850"><ele>743</ele><time>2019-10-02T14:00:48Z</time><name>PT11394</name></trkpt>
<trkpt lat="54.571039" lon="-3.244843"><ele>743</ele><time>2019-10-02T14:00:49Z</time><name>PT11395</name></trkpt>
<trkpt lat="54.571040" lon="-3.244834"><ele>743</ele><time>2019-10-02T14:00:50Z</time><name>PT11396</name></trkpt>
<trkpt lat="54.571040" lon="-3.244822"><ele>743</ele><time>2019-10-02T14:00:51Z</time><name>PT11397</name></trkpt>
<trkpt lat="54.571038" lon="-3.244800"><ele>742</ele><time>2019-10-02T14:00:52Z</time><name>PT11398</name></trkpt>
<trkpt lat="54.571037" lon="-3.244782"><ele>742</ele><time>2019-10-02T14:00:52Z</time><name>PT11399</name></trkpt>
<trkpt lat="54.571037" lon="-3.244761"><ele>742</ele><time>2019-10-02T14:00:54Z</time><name>PT11400</name></trkpt>
<trkpt lat="54.571035" lon="-3.244743"><ele>742</ele><time>2019-10-02T14:00:55Z</time><name>PT11401</name></trkpt>
<trkpt lat="54.571032" lon="-3.244727"><ele>742</ele><time>2019-10-02T14:00:56Z</time><name>PT11402</name></trkpt>
<trkpt lat="54.571030" lon="-3.244716"><ele>742</ele><time>2019-10-02T14:00:57Z</time><name>PT11403</name></trkpt>
<trkpt lat="54.571029" lon="-3.244699"><ele>741</ele><time>2019-10-02T14:00:58Z</time><name>PT11404</name></trkpt>
<trkpt lat="54.571028" lon="-3.244681"><ele>742</ele><time>2019-10-02T14:00:59Z</time><name>PT11405</name></trkpt>
<trkpt lat="54.571025" lon="-3.244662"><ele>741</ele><time>2019-10-02T14:01:00Z</time><name>PT11406</name></trkpt>
<trkpt lat="54.571022" lon="-3.244643"><ele>742</ele><time>2019-10-02T14:01:01Z</time><name>PT11407</name></trkpt>
<trkpt lat="54.571021" lon="-3.244629"><ele>742</ele><time>2019-10-02T14:01:02Z</time><name>PT11408</name></trkpt>
<trkpt lat="54.571021" lon="-3.244615"><ele>741</ele><time>2019-10-02T14:01:03Z</time><name>PT11409</name></trkpt>
<trkpt lat="54.571018" lon="-3.244598"><ele>741</ele><time>2019-10-02T14:01:04Z</time><name>PT11410</name></trkpt>
<trkpt lat="54.571016" lon="-3.244587"><ele>741</ele><time>2019-10-02T14:01:05Z</time><name>PT11411</name></trkpt>
<trkpt lat="54.571017" lon="-3.244577"><ele>741</ele><time>2019-10-02T14:01:06Z</time><name>PT11412</name></trkpt>
<trkpt lat="54.571015" lon="-3.244561"><ele>741</ele><time>2019-10-02T14:01:07Z</time><name>PT11413</name></trkpt>
<trkpt lat="54.571014" lon="-3.244544"><ele>741</ele><time>2019-10-02T14:01:08Z</time><name>PT11414</name></trkpt>
<trkpt lat="54.571013" lon="-3.244530"><ele>741</ele><time>2019-10-02T14:01:08Z</time><name>PT11415</name></trkpt>
<trkpt lat="54.571014" lon="-3.244509"><ele>741</ele><time>2019-10-02T14:01:10Z</time><name>PT11416</name></trkpt>
<trkpt lat="54.571014" lon="-3.244493"><ele>742</ele><time>2019-10-02T14:01:11Z</time><name>PT11417</name></trkpt>
<trkpt lat="54.571015" lon="-3.244480"><ele>742</ele><time>2019-10-02T14:01:12Z</time><name>PT11418</name></trkpt>
<trkpt lat="54.571015" lon="-3.244471"><ele>742</ele><time>2019-10-02T14:01:13Z</time><name>PT11419</name></trkpt>
<trkpt lat="54.571013" lon="-3.244462"><ele>742</ele><time>2019-10-02T14:01:14Z</time><name>PT11420</name></trkpt>
<trkpt lat="54.571012" lon="-3.244453"><ele>743</ele><time>2019-10-02T14:01:14Z</time><name>PT11421</name></trkpt>
<trkpt lat="54.571011" lon="-3.244452"><ele>743</ele><time>2019-10-02T14:01:16Z</time><name>PT11422</name></trkpt>
<trkpt lat="54.571010" lon="-3.244446"><ele>743</ele><time>2019-10-02T14:01:16Z</time><name>PT11423</name></trkpt>
<trkpt lat="54.571009" lon="-3.244441"><ele>743</ele><time>2019-10-02T14:01:18Z</time><name>PT11424</name></trkpt>
<trkpt lat="54.571009" lon="-3.244435"><ele>743</ele><time>2019-10-02T14:01:18Z</time><name>PT11425</name></trkpt>
<trkpt lat="54.571008" lon="-3.244418"><ele>743</ele><time>2019-10-02T14:01:20Z</time><name>PT11426</name></trkpt>
<trkpt lat="54.571012" lon="-3.244407"><ele>743</ele><time>2019-10-02T14:01:20Z</time><name>PT11427</name></trkpt>
<trkpt lat="54.571014" lon="-3.244398"><ele>742</ele><time>2019-10-02T14:01:22Z</time><name>PT11428</name></trkpt>
<trkpt lat="54.571019" lon="-3.244388"><ele>743</ele><time>2019-10-02T14:01:22Z</time><name>PT11429</name></trkpt>
<trkpt lat="54.571021" lon="-3.244372"><ele>742</ele><time>2019-10-02T14:01:24Z</time><name>PT11430</name></trkpt>
<trkpt lat="54.571023" lon="-3.244355"><ele>742</ele><time>2019-10-02T14:01:24Z</time><name>PT11431</name></trkpt>
<trkpt lat="54.571026" lon="-3.244340"><ele>742</ele><time>2019-10-02T14:01:26Z</time><name>PT11432</name></trkpt>
<trkpt lat="54.571029" lon="-3.244326"><ele>742</ele><time>2019-10-02T14:01:26Z</time><name>PT11433</name></trkpt>
<trkpt lat="54.571030" lon="-3.244312"><ele>742</ele><time>2019-10-02T14:01:28Z</time><name>PT11434</name></trkpt>
<trkpt lat="54.571029" lon="-3.244293"><ele>743</ele><time>2019-10-02T14:01:28Z</time><name>PT11435</name></trkpt>
<trkpt lat="54.571030" lon="-3.244277"><ele>743</ele><time>2019-10-02T14:01:30Z</time><name>PT11436</name></trkpt>
<trkpt lat="54.571032" lon="-3.244266"><ele>743</ele><time>2019-10-02T14:01:30Z</time><name>PT11437</name></trkpt>
<trkpt lat="54.571030" lon="-3.244250"><ele>743</ele><time>2019-10-02T14:01:32Z</time><name>PT11438</name></trkpt>
<trkpt lat="54.571025" lon="-3.244235"><ele>742</ele><time>2019-10-02T14:01:32Z</time><name>PT11439</name></trkpt>
<trkpt lat="54.571022" lon="-3.244218"><ele>742</ele><time>2019-10-02T14:01:34Z</time><name>PT11440</name></trkpt>
<trkpt lat="54.571022" lon="-3.244207"><ele>742</ele><time>2019-10-02T14:01:34Z</time><name>PT11441</name></trkpt>
<trkpt lat="54.571022" lon="-3.244184"><ele>742</ele><time>2019-10-02T14:01:36Z</time><name>PT11442</name></trkpt>
<trkpt lat="54.571021" lon="-3.244162"><ele>741</ele><time>2019-10-02T14:01:36Z</time><name>PT11443</name></trkpt>
<trkpt lat="54.571021" lon="-3.244145"><ele>741</ele><time>2019-10-02T14:01:38Z</time><name>PT11444</name></trkpt>
<trkpt lat="54.571030" lon="-3.244128"><ele>742</ele><time>2019-10-02T14:01:38Z</time><name>PT11445</name></trkpt>
<trkpt lat="54.571035" lon="-3.244110"><ele>743</ele><time>2019-10-02T14:01:40Z</time><name>PT11446</name></trkpt>
<trkpt lat="54.571037" lon="-3.244099"><ele>743</ele><time>2019-10-02T14:01:41Z</time><name>PT11447</name></trkpt>
<trkpt lat="54.571038" lon="-3.244088"><ele>743</ele><time>2019-10-02T14:01:42Z</time><name>PT11448</name></trkpt>
<trkpt lat="54.571038" lon="-3.244077"><ele>743</ele><time>2019-10-02T14:01:43Z</time><name>PT11449</name></trkpt>
<trkpt lat="54.571038" lon="-3.244063"><ele>744</ele><time>2019-10-02T14:01:44Z</time><name>PT11450</name></trkpt>
<trkpt lat="54.571039" lon="-3.244046"><ele>744</ele><time>2019-10-02T14:01:45Z</time><name>PT11451</name></trkpt>
<trkpt lat="54.571040" lon="-3.244031"><ele>745</ele><time>2019-10-02T14:01:46Z</time><name>PT11452</name></trkpt>
<trkpt lat="54.571039" lon="-3.244019"><ele>745</ele><time>2019-10-02T14:01:47Z</time><name>PT11453</name></trkpt>
<trkpt lat="54.571040" lon="-3.244007"><ele>745</ele><time>2019-10-02T14:01:48Z</time><name>PT11454</name></trkpt>
<trkpt lat="54.571039" lon="-3.243993"><ele>745</ele><time>2019-10-02T14:01:48Z</time><name>PT11455</name></trkpt>
<trkpt lat="54.571039" lon="-3.243974"><ele>745</ele><time>2019-10-02T14:01:50Z</time><name>PT11456</name></trkpt>
<trkpt lat="54.571038" lon="-3.243956"><ele>745</ele><time>2019-10-02T14:01:51Z</time><name>PT11457</name></trkpt>
<trkpt lat="54.571039" lon="-3.243938"><ele>745</ele><time>2019-10-02T14:01:52Z</time><name>PT11458</name></trkpt>
<trkpt lat="54.571039" lon="-3.243922"><ele>745</ele><time>2019-10-02T14:01:53Z</time><name>PT11459</name></trkpt>
<trkpt lat="54.571038" lon="-3.243907"><ele>746</ele><time>2019-10-02T14:01:54Z</time><name>PT11460</name></trkpt>
<trkpt lat="54.571037" lon="-3.243891"><ele>746</ele><time>2019-10-02T14:01:55Z</time><name>PT11461</name></trkpt>
<trkpt lat="54.571037" lon="-3.243871"><ele>746</ele><time>2019-10-02T14:01:56Z</time><name>PT11462</name></trkpt>
<trkpt lat="54.571039" lon="-3.243849"><ele>746</ele><time>2019-10-02T14:01:57Z</time><name>PT11463</name></trkpt>
<trkpt lat="54.571040" lon="-3.243829"><ele>746</ele><time>2019-10-02T14:01:58Z</time><name>PT11464</name></trkpt>
<trkpt lat="54.571042" lon="-3.243808"><ele>746</ele><time>2019-10-02T14:01:59Z</time><name>PT11465</name></trkpt>
<trkpt lat="54.571042" lon="-3.243788"><ele>746</ele><time>2019-10-02T14:02:00Z</time><name>PT11466</name></trkpt>
<trkpt lat="54.571042" lon="-3.243764"><ele>746</ele><time>2019-10-02T14:02:01Z</time><name>PT11467</name></trkpt>
<trkpt lat="54.571043" lon="-3.243747"><ele>747</ele><time>2019-10-02T14:02:02Z</time><name>PT11468</name></trkpt>
<trkpt lat="54.571044" lon="-3.243735"><ele>747</ele><time>2019-10-02T14:02:03Z</time><name>PT11469</name></trkpt>
<trkpt lat="54.571047" lon="-3.243716"><ele>747</ele><time>2019-10-02T14:02:04Z</time><name>PT11470</name></trkpt>
<trkpt lat="54.571049" lon="-3.243698"><ele>747</ele><time>2019-10-02T14:02:05Z</time><name>PT11471</name></trkpt>
<trkpt lat="54.571052" lon="-3.243680"><ele>747</ele><time>2019-10-02T14:02:06Z</time><name>PT11472</name></trkpt>
<trkpt lat="54.571054" lon="-3.243665"><ele>747</ele><time>2019-10-02T14:02:06Z</time><name>PT11473</name></trkpt>
<trkpt lat="54.571055" lon="-3.243645"><ele>747</ele><time>2019-10-02T14:02:08Z</time><name>PT11474</name></trkpt>
<trkpt lat="54.571058" lon="-3.243630"><ele>747</ele><time>2019-10-02T14:02:08Z</time><name>PT11475</name></trkpt>
<trkpt lat="54.571060" lon="-3.243619"><ele>747</ele><time>2019-10-02T14:02:10Z</time><name>PT11476</name></trkpt>
<trkpt lat="54.571063" lon="-3.243607"><ele>747</ele><time>2019-10-02T14:02:10Z</time><name>PT11477</name></trkpt>
<trkpt lat="54.571066" lon="-3.243590"><ele>747</ele><time>2019-10-02T14:02:12Z</time><name>PT11478</name></trkpt>
<trkpt lat="54.571065" lon="-3.243571"><ele>747</ele><time>2019-10-02T14:02:12Z</time><name>PT11479</name></trkpt>
<trkpt lat="54.571064" lon="-3.243557"><ele>747</ele><time>2019-10-02T14:02:14Z</time><name>PT11480</name></trkpt>
<trkpt lat="54.571062" lon="-3.243542"><ele>747</ele><time>2019-10-02T14:02:14Z</time><name>PT11481</name></trkpt>
<trkpt lat="54.571062" lon="-3.243530"><ele>747</ele><time>2019-10-02T14:02:16Z</time><name>PT11482</name></trkpt>
<trkpt lat="54.571063" lon="-3.243517"><ele>747</ele><time>2019-10-02T14:02:16Z</time><name>PT11483</name></trkpt>
<trkpt lat="54.571066" lon="-3.243505"><ele>747</ele><time>2019-10-02T14:02:18Z</time><name>PT11484</name></trkpt>
<trkpt lat="54.571067" lon="-3.243492"><ele>748</ele><time>2019-10-02T14:02:18Z</time><name>PT11485</name></trkpt>
<trkpt lat="54.571066" lon="-3.243481"><ele>748</ele><time>2019-10-02T14:02:20Z</time><name>PT11486</name></trkpt>
<trkpt lat="54.571064" lon="-3.243471"><ele>748</ele><time>2019-10-02T14:02:20Z</time><name>PT11487</name></trkpt>
<trkpt lat="54.571063" lon="-3.243462"><ele>748</ele><time>2019-10-02T14:02:22Z</time><name>PT11488</name></trkpt>
<trkpt lat="54.571063" lon="-3.243452"><ele>749</ele><time>2019-10-02T14:02:22Z</time><name>PT11489</name></trkpt>
<trkpt lat="54.571062" lon="-3.243444"><ele>749</ele><time>2019-10-02T14:02:24Z</time><name>PT11490</name></trkpt>
<trkpt lat="54.571064" lon="-3.243436"><ele>749</ele><time>2019-10-02T14:02:24Z</time><name>PT11491</name></trkpt>
<trkpt lat="54.571067" lon="-3.243430"><ele>749</ele><time>2019-10-02T14:02:26Z</time><name>PT11492</name></trkpt>
<trkpt lat="54.571067" lon="-3.243421"><ele>750</ele><time>2019-10-02T14:02:27Z</time><name>PT11493</name></trkpt>
<trkpt lat="54.571068" lon="-3.243413"><ele>749</ele><time>2019-10-02T14:02:28Z</time><name>PT11494</name></trkpt>
<trkpt lat="54.571070" lon="-3.243411"><ele>749</ele><time>2019-10-02T14:02:29Z</time><name>PT11495</name></trkpt>
<trkpt lat="54.571069" lon="-3.243405"><ele>749</ele><time>2019-10-02T14:02:30Z</time><name>PT11496</name></trkpt>
<trkpt lat="54.571072" lon="-3.243394"><ele>750</ele><time>2019-10-02T14:02:31Z</time><name>PT11497</name></trkpt>
<trkpt lat="54.571072" lon="-3.243381"><ele>750</ele><time>2019-10-02T14:02:32Z</time><name>PT11498</name></trkpt>
<trkpt lat="54.571073" lon="-3.243374"><ele>751</ele><time>2019-10-02T14:02:33Z</time><name>PT11499</name></trkpt>
<trkpt lat="54.571075" lon="-3.243369"><ele>751</ele><time>2019-10-02T14:02:34Z</time><name>PT11500</name></trkpt>
<trkpt lat="54.571076" lon="-3.243361"><ele>750</ele><time>2019-10-02T14:02:35Z</time><name>PT11501</name></trkpt>
<trkpt lat="54.571077" lon="-3.243348"><ele>750</ele><time>2019-10-02T14:02:36Z</time><name>PT11502</name></trkpt>
<trkpt lat="54.571079" lon="-3.243339"><ele>750</ele><time>2019-10-02T14:02:37Z</time><name>PT11503</name></trkpt>
<trkpt lat="54.571079" lon="-3.243334"><ele>750</ele><time>2019-10-02T14:02:38Z</time><name>PT11504</name></trkpt>
<trkpt lat="54.571079" lon="-3.243326"><ele>750</ele><time>2019-10-02T14:02:39Z</time><name>PT11505</name></trkpt>
<trkpt lat="54.571076" lon="-3.243323"><ele>751</ele><time>2019-10-02T14:02:40Z</time><name>PT11506</name></trkpt>
<trkpt lat="54.571072" lon="-3.243322"><ele>751</ele><time>2019-10-02T14:02:41Z</time><name>PT11507</name></trkpt>
<trkpt lat="54.571067" lon="-3.243321"><ele>751</ele><time>2019-10-02T14:02:42Z</time><name>PT11508</name></trkpt>
<trkpt lat="54.571069" lon="-3.243319"><ele>751</ele><time>2019-10-02T14:02:45Z</time><name>PT11509</name></trkpt>
<trkpt lat="54.571070" lon="-3.243312"><ele>752</ele><time>2019-10-02T14:02:46Z</time><name>PT11510</name></trkpt>
<trkpt lat="54.571071" lon="-3.243304"><ele>752</ele><time>2019-10-02T14:02:47Z</time><name>PT11511</name></trkpt>
<trkpt lat="54.571069" lon="-3.243296"><ele>752</ele><time>2019-10-02T14:02:48Z</time><name>PT11512</name></trkpt>
<trkpt lat="54.571067" lon="-3.243286"><ele>752</ele><time>2019-10-02T14:02:48Z</time><name>PT11513</name></trkpt>
<trkpt lat="54.571068" lon="-3.243281"><ele>753</ele><time>2019-10-02T14:02:50Z</time><name>PT11514</name></trkpt>
<trkpt lat="54.571067" lon="-3.243277"><ele>752</ele><time>2019-10-02T14:02:50Z</time><name>PT11515</name></trkpt>
<trkpt lat="54.571058" lon="-3.243263"><ele>753</ele><time>2019-10-02T14:02:52Z</time><name>PT11516</name></trkpt>
<trkpt lat="54.571060" lon="-3.243253"><ele>754</ele><time>2019-10-02T14:02:54Z</time><name>PT11517</name></trkpt>
<trkpt lat="54.571062" lon="-3.243248"><ele>754</ele><time>2019-10-02T14:02:54Z</time><name>PT11518</name></trkpt>
<trkpt lat="54.571062" lon="-3.243236"><ele>755</ele><time>2019-10-02T14:03:04Z</time><name>PT11519</name></trkpt>
<trkpt lat="54.571061" lon="-3.243225"><ele>755</ele><time>2019-10-02T14:03:04Z</time><name>PT11520</name></trkpt>
<trkpt lat="54.571063" lon="-3.243216"><ele>755</ele><time>2019-10-02T14:03:06Z</time><name>PT11521</name></trkpt>
<trkpt lat="54.571068" lon="-3.243205"><ele>756</ele><time>2019-10-02T14:03:06Z</time><name>PT11522</name></trkpt>
<trkpt lat="54.571070" lon="-3.243197"><ele>756</ele><time>2019-10-02T14:03:08Z</time><name>PT11523</name></trkpt>
<trkpt lat="54.571073" lon="-3.243192"><ele>756</ele><time>2019-10-02T14:03:08Z</time><name>PT11524</name></trkpt>
<trkpt lat="54.571076" lon="-3.243189"><ele>756</ele><time>2019-10-02T14:03:10Z</time><name>PT11525</name></trkpt>
<trkpt lat="54.571075" lon="-3.243191"><ele>756</ele><time>2019-10-02T14:03:10Z</time><name>PT11526</name></trkpt>
<trkpt lat="54.571076" lon="-3.243190"><ele>756</ele><time>2019-10-02T14:03:12Z</time><name>PT11527</name></trkpt>
<trkpt lat="54.571078" lon="-3.243188"><ele>756</ele><time>2019-10-02T14:03:12Z</time><name>PT11528</name></trkpt>
<trkpt lat="54.571078" lon="-3.243186"><ele>756</ele><time>2019-10-02T14:03:14Z</time><name>PT11529</name></trkpt>
<trkpt lat="54.571076" lon="-3.243187"><ele>756</ele><time>2019-10-02T14:03:16Z</time><name>PT11530</name></trkpt>
<trkpt lat="54.571073" lon="-3.243181"><ele>756</ele><time>2019-10-02T14:03:16Z</time><name>PT11531</name></trkpt>
<trkpt lat="54.571072" lon="-3.243177"><ele>756</ele><time>2019-10-02T14:03:18Z</time><name>PT11532</name></trkpt>
<trkpt lat="54.571074" lon="-3.243175"><ele>756</ele><time>2019-10-02T14:03:18Z</time><name>PT11533</name></trkpt>
<trkpt lat="54.571072" lon="-3.243171"><ele>756</ele><time>2019-10-02T14:03:20Z</time><name>PT11534</name></trkpt>
<trkpt lat="54.571074" lon="-3.243172"><ele>757</ele><time>2019-10-02T14:03:20Z</time><name>PT11535</name></trkpt>
<trkpt lat="54.571072" lon="-3.243157"><ele>756</ele><time>2019-10-02T14:03:22Z</time><name>PT11536</name></trkpt>
<trkpt lat="54.571072" lon="-3.243152"><ele>756</ele><time>2019-10-02T14:03:35Z</time><name>PT11537</name></trkpt>
<trkpt lat="54.571074" lon="-3.243148"><ele>756</ele><time>2019-10-02T14:03:36Z</time><name>PT11538</name></trkpt>
<trkpt lat="54.571067" lon="-3.243146"><ele>756</ele><time>2019-10-02T14:03:36Z</time><name>PT11539</name></trkpt>
<trkpt lat="54.571064" lon="-3.243138"><ele>756</ele><time>2019-10-02T14:03:38Z</time><name>PT11540</name></trkpt>
<trkpt lat="54.571064" lon="-3.243131"><ele>756</ele><time>2019-10-02T14:03:38Z</time><name>PT11541</name></trkpt>
<trkpt lat="54.571070" lon="-3.243112"><ele>756</ele><time>2019-10-02T14:03:40Z</time><name>PT11542</name></trkpt>
<trkpt lat="54.571076" lon="-3.243110"><ele>757</ele><time>2019-10-02T14:03:40Z</time><name>PT11543</name></trkpt>
<trkpt lat="54.571081" lon="-3.243093"><ele>758</ele><time>2019-10-02T14:03:42Z</time><name>PT11544</name></trkpt>
<trkpt lat="54.571080" lon="-3.243073"><ele>758</ele><time>2019-10-02T14:03:42Z</time><name>PT11545</name></trkpt>
<trkpt lat="54.571081" lon="-3.243060"><ele>758</ele><time>2019-10-02T14:03:44Z</time><name>PT11546</name></trkpt>
<trkpt lat="54.571086" lon="-3.243049"><ele>758</ele><time>2019-10-02T14:03:44Z</time><name>PT11547</name></trkpt>
<trkpt lat="54.571087" lon="-3.243034"><ele>758</ele><time>2019-10-02T14:03:46Z</time><name>PT11548</name></trkpt>
<trkpt lat="54.571086" lon="-3.243018"><ele>758</ele><time>2019-10-02T14:03:47Z</time><name>PT11549</name></trkpt>
<trkpt lat="54.571087" lon="-3.243003"><ele>758</ele><time>2019-10-02T14:03:48Z</time><name>PT11550</name></trkpt>
<trkpt lat="54.571089" lon="-3.242986"><ele>759</ele><time>2019-10-02T14:03:48Z</time><name>PT11551</name></trkpt>
<trkpt lat="54.571093" lon="-3.242968"><ele>759</ele><time>2019-10-02T14:03:50Z</time><name>PT11552</name></trkpt>
<trkpt lat="54.571096" lon="-3.242954"><ele>759</ele><time>2019-10-02T14:03:51Z</time><name>PT11553</name></trkpt>
<trkpt lat="54.571098" lon="-3.242934"><ele>759</ele><time>2019-10-02T14:03:52Z</time><name>PT11554</name></trkpt>
<trkpt lat="54.571100" lon="-3.242921"><ele>759</ele><time>2019-10-02T14:03:52Z</time><name>PT11555</name></trkpt>
<trkpt lat="54.571105" lon="-3.242909"><ele>759</ele><time>2019-10-02T14:03:54Z</time><name>PT11556</name></trkpt>
<trkpt lat="54.571110" lon="-3.242897"><ele>759</ele><time>2019-10-02T14:03:55Z</time><name>PT11557</name></trkpt>
<trkpt lat="54.571115" lon="-3.242885"><ele>759</ele><time>2019-10-02T14:03:56Z</time><name>PT11558</name></trkpt>
<trkpt lat="54.571119" lon="-3.242871"><ele>759</ele><time>2019-10-02T14:03:57Z</time><name>PT11559</name></trkpt>
<trkpt lat="54.571122" lon="-3.242858"><ele>759</ele><time>2019-10-02T14:03:58Z</time><name>PT11560</name></trkpt>
<trkpt lat="54.571123" lon="-3.242843"><ele>760</ele><time>2019-10-02T14:03:59Z</time><name>PT11561</name></trkpt>
<trkpt lat="54.571125" lon="-3.242828"><ele>760</ele><time>2019-10-02T14:04:00Z</time><name>PT11562</name></trkpt>
<trkpt lat="54.571129" lon="-3.242816"><ele>761</ele><time>2019-10-02T14:04:01Z</time><name>PT11563</name></trkpt>
<trkpt lat="54.571134" lon="-3.242801"><ele>761</ele><time>2019-10-02T14:04:02Z</time><name>PT11564</name></trkpt>
<trkpt lat="54.571136" lon="-3.242786"><ele>761</ele><time>2019-10-02T14:04:03Z</time><name>PT11565</name></trkpt>
<trkpt lat="54.571137" lon="-3.242775"><ele>761</ele><time>2019-10-02T14:04:04Z</time><name>PT11566</name></trkpt>
<trkpt lat="54.571139" lon="-3.242764"><ele>761</ele><time>2019-10-02T14:04:04Z</time><name>PT11567</name></trkpt>
<trkpt lat="54.571140" lon="-3.242753"><ele>761</ele><time>2019-10-02T14:04:06Z</time><name>PT11568</name></trkpt>
<trkpt lat="54.571142" lon="-3.242743"><ele>761</ele><time>2019-10-02T14:04:06Z</time><name>PT11569</name></trkpt>
<trkpt lat="54.571140" lon="-3.242735"><ele>761</ele><time>2019-10-02T14:04:08Z</time><name>PT11570</name></trkpt>
<trkpt lat="54.571139" lon="-3.242725"><ele>762</ele><time>2019-10-02T14:04:08Z</time><name>PT11571</name></trkpt>
<trkpt lat="54.571143" lon="-3.242712"><ele>763</ele><time>2019-10-02T14:04:10Z</time><name>PT11572</name></trkpt>
<trkpt lat="54.571144" lon="-3.242703"><ele>762</ele><time>2019-10-02T14:04:10Z</time><name>PT11573</name></trkpt>
<trkpt lat="54.571146" lon="-3.242690"><ele>762</ele><time>2019-10-02T14:04:12Z</time><name>PT11574</name></trkpt>
<trkpt lat="54.571151" lon="-3.242678"><ele>762</ele><time>2019-10-02T14:04:12Z</time><name>PT11575</name></trkpt>
<trkpt lat="54.571156" lon="-3.242668"><ele>763</ele><time>2019-10-02T14:04:14Z</time><name>PT11576</name></trkpt>
<trkpt lat="54.571158" lon="-3.242653"><ele>763</ele><time>2019-10-02T14:04:14Z</time><name>PT11577</name></trkpt>
<trkpt lat="54.571160" lon="-3.242642"><ele>763</ele><time>2019-10-02T14:04:16Z</time><name>PT11578</name></trkpt>
<trkpt lat="54.571163" lon="-3.242631"><ele>763</ele><time>2019-10-02T14:04:16Z</time><name>PT11579</name></trkpt>
<trkpt lat="54.571165" lon="-3.242621"><ele>764</ele><time>2019-10-02T14:04:18Z</time><name>PT11580</name></trkpt>
<trkpt lat="54.571169" lon="-3.242611"><ele>764</ele><time>2019-10-02T14:04:18Z</time><name>PT11581</name></trkpt>
<trkpt lat="54.571171" lon="-3.242598"><ele>764</ele><time>2019-10-02T14:04:20Z</time><name>PT11582</name></trkpt>
<trkpt lat="54.571173" lon="-3.242586"><ele>764</ele><time>2019-10-02T14:04:20Z</time><name>PT11583</name></trkpt>
<trkpt lat="54.571173" lon="-3.242570"><ele>764</ele><time>2019-10-02T14:04:22Z</time><name>PT11584</name></trkpt>
<trkpt lat="54.571173" lon="-3.242563"><ele>764</ele><time>2019-10-02T14:04:22Z</time><name>PT11585</name></trkpt>
<trkpt lat="54.571174" lon="-3.242555"><ele>765</ele><time>2019-10-02T14:04:24Z</time><name>PT11586</name></trkpt>
<trkpt lat="54.571176" lon="-3.242543"><ele>765</ele><time>2019-10-02T14:04:24Z</time><name>PT11587</name></trkpt>
<trkpt lat="54.571178" lon="-3.242531"><ele>765</ele><time>2019-10-02T14:04:26Z</time><name>PT11588</name></trkpt>
<trkpt lat="54.571181" lon="-3.242517"><ele>766</ele><time>2019-10-02T14:04:26Z</time><name>PT11589</name></trkpt>
<trkpt lat="54.571182" lon="-3.242504"><ele>765</ele><time>2019-10-02T14:04:28Z</time><name>PT11590</name></trkpt>
<trkpt lat="54.571180" lon="-3.242492"><ele>765</ele><time>2019-10-02T14:04:28Z</time><name>PT11591</name></trkpt>
<trkpt lat="54.571181" lon="-3.242475"><ele>766</ele><time>2019-10-02T14:04:30Z</time><name>PT11592</name></trkpt>
<trkpt lat="54.571184" lon="-3.242458"><ele>767</ele><time>2019-10-02T14:04:30Z</time><name>PT11593</name></trkpt>
<trkpt lat="54.571185" lon="-3.242441"><ele>767</ele><time>2019-10-02T14:04:32Z</time><name>PT11594</name></trkpt>
<trkpt lat="54.571183" lon="-3.242426"><ele>767</ele><time>2019-10-02T14:04:32Z</time><name>PT11595</name></trkpt>
<trkpt lat="54.571181" lon="-3.242413"><ele>768</ele><time>2019-10-02T14:04:34Z</time><name>PT11596</name></trkpt>
<trkpt lat="54.571180" lon="-3.242396"><ele>768</ele><time>2019-10-02T14:04:34Z</time><name>PT11597</name></trkpt>
<trkpt lat="54.571180" lon="-3.242381"><ele>768</ele><time>2019-10-02T14:04:36Z</time><name>PT11598</name></trkpt>
<trkpt lat="54.571182" lon="-3.242365"><ele>769</ele><time>2019-10-02T14:04:36Z</time><name>PT11599</name></trkpt>
<trkpt lat="54.571182" lon="-3.242353"><ele>769</ele><time>2019-10-02T14:04:38Z</time><name>PT11600</name></trkpt>
<trkpt lat="54.571181" lon="-3.242345"><ele>769</ele><time>2019-10-02T14:04:38Z</time><name>PT11601</name></trkpt>
<trkpt lat="54.571181" lon="-3.242333"><ele>769</ele><time>2019-10-02T14:04:40Z</time><name>PT11602</name></trkpt>
<trkpt lat="54.571177" lon="-3.242327"><ele>769</ele><time>2019-10-02T14:04:40Z</time><name>PT11603</name></trkpt>
<trkpt lat="54.571176" lon="-3.242323"><ele>770</ele><time>2019-10-02T14:04:42Z</time><name>PT11604</name></trkpt>
<trkpt lat="54.571178" lon="-3.242316"><ele>770</ele><time>2019-10-02T14:04:42Z</time><name>PT11605</name></trkpt>
<trkpt lat="54.571179" lon="-3.242312"><ele>770</ele><time>2019-10-02T14:04:44Z</time><name>PT11606</name></trkpt>
<trkpt lat="54.571180" lon="-3.242310"><ele>770</ele><time>2019-10-02T14:04:44Z</time><name>PT11607</name></trkpt>
<trkpt lat="54.571179" lon="-3.242308"><ele>770</ele><time>2019-10-02T14:04:46Z</time><name>PT11608</name></trkpt>
<trkpt lat="54.571181" lon="-3.242294"><ele>770</ele><time>2019-10-02T14:04:52Z</time><name>PT11609</name></trkpt>
<trkpt lat="54.571181" lon="-3.242285"><ele>770</ele><time>2019-10-02T14:04:53Z</time><name>PT11610</name></trkpt>
<trkpt lat="54.571180" lon="-3.242282"><ele>771</ele><time>2019-10-02T14:04:54Z</time><name>PT11611</name></trkpt>
<trkpt lat="54.571177" lon="-3.242277"><ele>771</ele><time>2019-10-02T14:04:54Z</time><name>PT11612</name></trkpt>
<trkpt lat="54.571173" lon="-3.242279"><ele>771</ele><time>2019-10-02T14:04:56Z</time><name>PT11613</name></trkpt>
<trkpt lat="54.571170" lon="-3.242276"><ele>771</ele><time>2019-10-02T14:04:57Z</time><name>PT11614</name></trkpt>
<trkpt lat="54.571169" lon="-3.242273"><ele>772</ele><time>2019-10-02T14:04:58Z</time><name>PT11615</name></trkpt>
<trkpt lat="54.571167" lon="-3.242275"><ele>772</ele><time>2019-10-02T14:04:59Z</time><name>PT11616</name></trkpt>
<trkpt lat="54.571166" lon="-3.242281"><ele>772</ele><time>2019-10-02T14:05:00Z</time><name>PT11617</name></trkpt>
<trkpt lat="54.571165" lon="-3.242286"><ele>772</ele><time>2019-10-02T14:05:01Z</time><name>PT11618</name></trkpt>
<trkpt lat="54.571165" lon="-3.242278"><ele>772</ele><time>2019-10-02T14:05:08Z</time><name>PT11619</name></trkpt>
<trkpt lat="54.571165" lon="-3.242257"><ele>772</ele><time>2019-10-02T14:05:09Z</time><name>PT11620</name></trkpt>
<trkpt lat="54.571168" lon="-3.242241"><ele>772</ele><time>2019-10-02T14:05:10Z</time><name>PT11621</name></trkpt>
<trkpt lat="54.571170" lon="-3.242226"><ele>772</ele><time>2019-10-02T14:05:10Z</time><name>PT11622</name></trkpt>
<trkpt lat="54.571171" lon="-3.242205"><ele>772</ele><time>2019-10-02T14:05:12Z</time><name>PT11623</name></trkpt>
<trkpt lat="54.571173" lon="-3.242183"><ele>772</ele><time>2019-10-02T14:05:12Z</time><name>PT11624</name></trkpt>
<trkpt lat="54.571179" lon="-3.242169"><ele>772</ele><time>2019-10-02T14:05:14Z</time><name>PT11625</name></trkpt>
<trkpt lat="54.571181" lon="-3.242153"><ele>772</ele><time>2019-10-02T14:05:14Z</time><name>PT11626</name></trkpt>
<trkpt lat="54.571182" lon="-3.242131"><ele>772</ele><time>2019-10-02T14:05:16Z</time><name>PT11627</name></trkpt>
<trkpt lat="54.571186" lon="-3.242113"><ele>773</ele><time>2019-10-02T14:05:16Z</time><name>PT11628</name></trkpt>
<trkpt lat="54.571188" lon="-3.242094"><ele>773</ele><time>2019-10-02T14:05:18Z</time><name>PT11629</name></trkpt>
<trkpt lat="54.571190" lon="-3.242079"><ele>774</ele><time>2019-10-02T14:05:18Z</time><name>PT11630</name></trkpt>
<trkpt lat="54.571189" lon="-3.242063"><ele>774</ele><time>2019-10-02T14:05:20Z</time><name>PT11631</name></trkpt>
<trkpt lat="54.571190" lon="-3.242048"><ele>774</ele><time>2019-10-02T14:05:20Z</time><name>PT11632</name></trkpt>
<trkpt lat="54.571191" lon="-3.242029"><ele>775</ele><time>2019-10-02T14:05:22Z</time><name>PT11633</name></trkpt>
<trkpt lat="54.571194" lon="-3.242009"><ele>775</ele><time>2019-10-02T14:05:22Z</time><name>PT11634</name></trkpt>
<trkpt lat="54.571199" lon="-3.241992"><ele>775</ele><time>2019-10-02T14:05:24Z</time><name>PT11635</name></trkpt>
<trkpt lat="54.571208" lon="-3.241980"><ele>776</ele><time>2019-10-02T14:05:24Z</time><name>PT11636</name></trkpt>
<trkpt lat="54.571215" lon="-3.241966"><ele>776</ele><time>2019-10-02T14:05:26Z</time><name>PT11637</name></trkpt>
<trkpt lat="54.571224" lon="-3.241950"><ele>776</ele><time>2019-10-02T14:05:26Z</time><name>PT11638</name></trkpt>
<trkpt lat="54.571231" lon="-3.241937"><ele>776</ele><time>2019-10-02T14:05:28Z</time><name>PT11639</name></trkpt>
<trkpt lat="54.571242" lon="-3.241924"><ele>777</ele><time>2019-10-02T14:05:28Z</time><name>PT11640</name></trkpt>
<trkpt lat="54.571248" lon="-3.241906"><ele>777</ele><time>2019-10-02T14:05:30Z</time><name>PT11641</name></trkpt>
<trkpt lat="54.571255" lon="-3.241895"><ele>777</ele><time>2019-10-02T14:05:30Z</time><name>PT11642</name></trkpt>
<trkpt lat="54.571260" lon="-3.241881"><ele>778</ele><time>2019-10-02T14:05:32Z</time><name>PT11643</name></trkpt>
<trkpt lat="54.571266" lon="-3.241866"><ele>778</ele><time>2019-10-02T14:05:32Z</time><name>PT11644</name></trkpt>
<trkpt lat="54.571275" lon="-3.241854"><ele>778</ele><time>2019-10-02T14:05:34Z</time><name>PT11645</name></trkpt>
<trkpt lat="54.571283" lon="-3.241836"><ele>778</ele><time>2019-10-02T14:05:34Z</time><name>PT11646</name></trkpt>
<trkpt lat="54.571290" lon="-3.241823"><ele>778</ele><time>2019-10-02T14:05:36Z</time><name>PT11647</name></trkpt>
<trkpt lat="54.571294" lon="-3.241802"><ele>777</ele><time>2019-10-02T14:05:36Z</time><name>PT11648</name></trkpt>
<trkpt lat="54.571299" lon="-3.241786"><ele>776</ele><time>2019-10-02T14:05:38Z</time><name>PT11649</name></trkpt>
<trkpt lat="54.571305" lon="-3.241772"><ele>775</ele><time>2019-10-02T14:05:38Z</time><name>PT11650</name></trkpt>
<trkpt lat="54.571316" lon="-3.241763"><ele>775</ele><time>2019-10-02T14:05:40Z</time><name>PT11651</name></trkpt>
<trkpt lat="54.571323" lon="-3.241749"><ele>776</ele><time>2019-10-02T14:05:40Z</time><name>PT11652</name></trkpt>
<trkpt lat="54.571328" lon="-3.241733"><ele>776</ele><time>2019-10-02T14:05:42Z</time><name>PT11653</name></trkpt>
<trkpt lat="54.571335" lon="-3.241718"><ele>775</ele><time>2019-10-02T14:05:42Z</time><name>PT11654</name></trkpt>
<trkpt lat="54.571342" lon="-3.241709"><ele>775</ele><time>2019-10-02T14:05:44Z</time><name>PT11655</name></trkpt>
<trkpt lat="54.571345" lon="-3.241698"><ele>775</ele><time>2019-10-02T14:05:44Z</time><name>PT11656</name></trkpt>
<trkpt lat="54.571351" lon="-3.241692"><ele>775</ele><time>2019-10-02T14:05:46Z</time><name>PT11657</name></trkpt>
<trkpt lat="54.571352" lon="-3.241688"><ele>775</ele><time>2019-10-02T14:05:46Z</time><name>PT11658</name></trkpt>
<trkpt lat="54.571355" lon="-3.241683"><ele>775</ele><time>2019-10-02T14:05:48Z</time><name>PT11659</name></trkpt>
<trkpt lat="54.571360" lon="-3.241678"><ele>774</ele><time>2019-10-02T14:05:49Z</time><name>PT11660</name></trkpt>
<trkpt lat="54.571365" lon="-3.241672"><ele>774</ele><time>2019-10-02T14:05:50Z</time><name>PT11661</name></trkpt>
<trkpt lat="54.571371" lon="-3.241669"><ele>774</ele><time>2019-10-02T14:05:51Z</time><name>PT11662</name></trkpt>
<trkpt lat="54.571377" lon="-3.241668"><ele>774</ele><time>2019-10-02T14:05:52Z</time><name>PT11663</name></trkpt>
<trkpt lat="54.571382" lon="-3.241661"><ele>774</ele><time>2019-10-02T14:05:53Z</time><name>PT11664</name></trkpt>
<trkpt lat="54.571389" lon="-3.241658"><ele>774</ele><time>2019-10-02T14:05:54Z</time><name>PT11665</name></trkpt>
<trkpt lat="54.571389" lon="-3.241652"><ele>774</ele><time>2019-10-02T14:05:55Z</time><name>PT11666</name></trkpt>
<trkpt lat="54.571388" lon="-3.241646"><ele>774</ele><time>2019-10-02T14:05:56Z</time><name>PT11667</name></trkpt>
<trkpt lat="54.571389" lon="-3.241644"><ele>774</ele><time>2019-10-02T14:05:57Z</time><name>PT11668</name></trkpt>
<trkpt lat="54.571388" lon="-3.241650"><ele>774</ele><time>2019-10-02T14:05:58Z</time><name>PT11669</name></trkpt>
<trkpt lat="54.571388" lon="-3.241649"><ele>774</ele><time>2019-10-02T14:05:59Z</time><name>PT11670</name></trkpt>
<trkpt lat="54.571389" lon="-3.241638"><ele>774</ele><time>2019-10-02T14:06:00Z</time><name>PT11671</name></trkpt>
<trkpt lat="54.571391" lon="-3.241639"><ele>774</ele><time>2019-10-02T14:06:00Z</time><name>PT11672</name></trkpt>
<trkpt lat="54.571396" lon="-3.241650"><ele>774</ele><time>2019-10-02T14:06:02Z</time><name>PT11673</name></trkpt>
<trkpt lat="54.571399" lon="-3.241665"><ele>775</ele><time>2019-10-02T14:06:03Z</time><name>PT11674</name></trkpt>
<trkpt lat="54.571398" lon="-3.241674"><ele>775</ele><time>2019-10-02T14:06:04Z</time><name>PT11675</name></trkpt>
<trkpt lat="54.571397" lon="-3.241672"><ele>774</ele><time>2019-10-02T14:06:04Z</time><name>PT11676</name></trkpt>
<trkpt lat="54.571397" lon="-3.241671"><ele>774</ele><time>2019-10-02T14:06:06Z</time><name>PT11677</name></trkpt>
<trkpt lat="54.571396" lon="-3.241670"><ele>774</ele><time>2019-10-02T14:06:06Z</time><name>PT11678</name></trkpt>
<trkpt lat="54.571395" lon="-3.241669"><ele>774</ele><time>2019-10-02T14:06:08Z</time><name>PT11679</name></trkpt>
<trkpt lat="54.571393" lon="-3.241668"><ele>774</ele><time>2019-10-02T14:06:08Z</time><name>PT11680</name></trkpt>
<trkpt lat="54.571393" lon="-3.241665"><ele>775</ele><time>2019-10-02T14:06:10Z</time><name>PT11681</name></trkpt>
<trkpt lat="54.571389" lon="-3.241660"><ele>775</ele><time>2019-10-02T14:06:14Z</time><name>PT11682</name></trkpt>
<trkpt lat="54.571388" lon="-3.241658"><ele>775</ele><time>2019-10-02T14:06:14Z</time><name>PT11683</name></trkpt>
<trkpt lat="54.571386" lon="-3.241659"><ele>775</ele><time>2019-10-02T14:06:16Z</time><name>PT11684</name></trkpt>
<trkpt lat="54.571386" lon="-3.241661"><ele>775</ele><time>2019-10-02T14:06:18Z</time><name>PT11685</name></trkpt>
<trkpt lat="54.571388" lon="-3.241662"><ele>775</ele><time>2019-10-02T14:06:18Z</time><name>PT11686</name></trkpt>
<trkpt lat="54.571382" lon="-3.241667"><ele>775</ele><time>2019-10-02T14:06:20Z</time><name>PT11687</name></trkpt>
<trkpt lat="54.571384" lon="-3.241669"><ele>775</ele><time>2019-10-02T14:06:20Z</time><name>PT11688</name></trkpt>
<trkpt lat="54.571384" lon="-3.241669"><ele>775</ele><time>2019-10-02T14:06:22Z</time><name>PT11689</name></trkpt>
<trkpt lat="54.571387" lon="-3.241677"><ele>774</ele><time>2019-10-02T14:06:22Z</time><name>PT11690</name></trkpt>
<trkpt lat="54.571391" lon="-3.241685"><ele>774</ele><time>2019-10-02T14:06:24Z</time><name>PT11691</name></trkpt>
<trkpt lat="54.571396" lon="-3.241695"><ele>774</ele><time>2019-10-02T14:06:25Z</time><name>PT11692</name></trkpt>
<trkpt lat="54.571407" lon="-3.241702"><ele>774</ele><time>2019-10-02T14:06:26Z</time><name>PT11693</name></trkpt>
<trkpt lat="54.571412" lon="-3.241712"><ele>774</ele><time>2019-10-02T14:06:27Z</time><name>PT11694</name></trkpt>
<trkpt lat="54.571418" lon="-3.241724"><ele>774</ele><time>2019-10-02T14:06:28Z</time><name>PT11695</name></trkpt>
<trkpt lat="54.571422" lon="-3.241734"><ele>773</ele><time>2019-10-02T14:06:29Z</time><name>PT11696</name></trkpt>
<trkpt lat="54.571429" lon="-3.241742"><ele>773</ele><time>2019-10-02T14:06:30Z</time><name>PT11697</name></trkpt>
<trkpt lat="54.571433" lon="-3.241747"><ele>773</ele><time>2019-10-02T14:06:30Z</time><name>PT11698</name></trkpt>
<trkpt lat="54.571435" lon="-3.241755"><ele>772</ele><time>2019-10-02T14:06:32Z</time><name>PT11699</name></trkpt>
<trkpt lat="54.571438" lon="-3.241768"><ele>771</ele><time>2019-10-02T14:06:32Z</time><name>PT11700</name></trkpt>
<trkpt lat="54.571439" lon="-3.241780"><ele>771</ele><time>2019-10-02T14:06:34Z</time><name>PT11701</name></trkpt>
<trkpt lat="54.571444" lon="-3.241787"><ele>771</ele><time>2019-10-02T14:06:35Z</time><name>PT11702</name></trkpt>
<trkpt lat="54.571446" lon="-3.241794"><ele>771</ele><time>2019-10-02T14:06:36Z</time><name>PT11703</name></trkpt>
<trkpt lat="54.571447" lon="-3.241797"><ele>772</ele><time>2019-10-02T14:06:37Z</time><name>PT11704</name></trkpt>
<trkpt lat="54.571447" lon="-3.241795"><ele>771</ele><time>2019-10-02T14:06:38Z</time><name>PT11705</name></trkpt>
<trkpt lat="54.571447" lon="-3.241799"><ele>771</ele><time>2019-10-02T14:06:39Z</time><name>PT11706</name></trkpt>
<trkpt lat="54.571447" lon="-3.241798"><ele>772</ele><time>2019-10-02T14:06:40Z</time><name>PT11707</name></trkpt>
<trkpt lat="54.571445" lon="-3.241800"><ele>771</ele><time>2019-10-02T14:06:40Z</time><name>PT11708</name></trkpt>
<trkpt lat="54.571444" lon="-3.241799"><ele>771</ele><time>2019-10-02T14:06:42Z</time><name>PT11709</name></trkpt>
<trkpt lat="54.571444" lon="-3.241800"><ele>771</ele><time>2019-10-02T14:06:43Z</time><name>PT11710</name></trkpt>
<trkpt lat="54.571445" lon="-3.241804"><ele>772</ele><time>2019-10-02T14:06:44Z</time><name>PT11711</name></trkpt>
<trkpt lat="54.571447" lon="-3.241811"><ele>772</ele><time>2019-10-02T14:06:45Z</time><name>PT11712</name></trkpt>
<trkpt lat="54.571449" lon="-3.241815"><ele>772</ele><time>2019-10-02T14:06:46Z</time><name>PT11713</name></trkpt>
<trkpt lat="54.571449" lon="-3.241824"><ele>772</ele><time>2019-10-02T14:06:47Z</time><name>PT11714</name></trkpt>
<trkpt lat="54.571452" lon="-3.241828"><ele>772</ele><time>2019-10-02T14:06:48Z</time><name>PT11715</name></trkpt>
<trkpt lat="54.571453" lon="-3.241823"><ele>771</ele><time>2019-10-02T14:06:48Z</time><name>PT11716</name></trkpt>
<trkpt lat="54.571455" lon="-3.241822"><ele>771</ele><time>2019-10-02T14:06:50Z</time><name>PT11717</name></trkpt>
<trkpt lat="54.571452" lon="-3.241817"><ele>771</ele><time>2019-10-02T14:06:50Z</time><name>PT11718</name></trkpt>
<trkpt lat="54.571447" lon="-3.241813"><ele>771</ele><time>2019-10-02T14:06:52Z</time><name>PT11719</name></trkpt>
<trkpt lat="54.571443" lon="-3.241804"><ele>772</ele><time>2019-10-02T14:06:52Z</time><name>PT11720</name></trkpt>
<trkpt lat="54.571439" lon="-3.241799"><ele>772</ele><time>2019-10-02T14:06:54Z</time><name>PT11721</name></trkpt>
<trkpt lat="54.571434" lon="-3.241791"><ele>772</ele><time>2019-10-02T14:06:54Z</time><name>PT11722</name></trkpt>
<trkpt lat="54.571428" lon="-3.241771"><ele>771</ele><time>2019-10-02T14:06:56Z</time><name>PT11723</name></trkpt>
<trkpt lat="54.571425" lon="-3.241751"><ele>772</ele><time>2019-10-02T14:06:56Z</time><name>PT11724</name></trkpt>
<trkpt lat="54.571419" lon="-3.241736"><ele>773</ele><time>2019-10-02T14:06:58Z</time><name>PT11725</name></trkpt>
<trkpt lat="54.571411" lon="-3.241720"><ele>773</ele><time>2019-10-02T14:06:58Z</time><name>PT11726</name></trkpt>
<trkpt lat="54.571403" lon="-3.241702"><ele>773</ele><time>2019-10-02T14:07:00Z</time><name>PT11727</name></trkpt>
<trkpt lat="54.571396" lon="-3.241690"><ele>773</ele><time>2019-10-02T14:07:00Z</time><name>PT11728</name></trkpt>
<trkpt lat="54.571389" lon="-3.241675"><ele>773</ele><time>2019-10-02T14:07:02Z</time><name>PT11729</name></trkpt>
<trkpt lat="54.571385" lon="-3.241668"><ele>773</ele><time>2019-10-02T14:07:02Z</time><name>PT11730</name></trkpt>
<trkpt lat="54.571380" lon="-3.241652"><ele>774</ele><time>2019-10-02T14:07:04Z</time><name>PT11731</name></trkpt>
<trkpt lat="54.571374" lon="-3.241639"><ele>774</ele><time>2019-10-02T14:07:04Z</time><name>PT11732</name></trkpt>
<trkpt lat="54.571368" lon="-3.241631"><ele>774</ele><time>2019-10-02T14:07:06Z</time><name>PT11733</name></trkpt>
<trkpt lat="54.571364" lon="-3.241616"><ele>774</ele><time>2019-10-02T14:07:06Z</time><name>PT11734</name></trkpt>
<trkpt lat="54.571359" lon="-3.241609"><ele>774</ele><time>2019-10-02T14:07:08Z</time><name>PT11735</name></trkpt>
<trkpt lat="54.571352" lon="-3.241594"><ele>774</ele><time>2019-10-02T14:07:08Z</time><name>PT11736</name></trkpt>
<trkpt lat="54.571345" lon="-3.241581"><ele>774</ele><time>2019-10-02T14:07:10Z</time><name>PT11737</name></trkpt>
<trkpt lat="54.571334" lon="-3.241575"><ele>774</ele><time>2019-10-02T14:07:10Z</time><name>PT11738</name></trkpt>
<trkpt lat="54.571326" lon="-3.241566"><ele>773</ele><time>2019-10-02T14:07:12Z</time><name>PT11739</name></trkpt>
<trkpt lat="54.571319" lon="-3.241550"><ele>772</ele><time>2019-10-02T14:07:12Z</time><name>PT11740</name></trkpt>
<trkpt lat="54.571311" lon="-3.241542"><ele>772</ele><time>2019-10-02T14:07:14Z</time><name>PT11741</name></trkpt>
<trkpt lat="54.571304" lon="-3.241533"><ele>772</ele><time>2019-10-02T14:07:14Z</time><name>PT11742</name></trkpt>
<trkpt lat="54.571297" lon="-3.241518"><ele>771</ele><time>2019-10-02T14:07:16Z</time><name>PT11743</name></trkpt>
<trkpt lat="54.571290" lon="-3.241508"><ele>771</ele><time>2019-10-02T14:07:16Z</time><name>PT11744</name></trkpt>
<trkpt lat="54.571281" lon="-3.241498"><ele>771</ele><time>2019-10-02T14:07:18Z</time><name>PT11745</name></trkpt>
<trkpt lat="54.571273" lon="-3.241481"><ele>771</ele><time>2019-10-02T14:07:18Z</time><name>PT11746</name></trkpt>
<trkpt lat="54.571268" lon="-3.241464"><ele>771</ele><time>2019-10-02T14:07:20Z</time><name>PT11747</name></trkpt>
<trkpt lat="54.571263" lon="-3.241445"><ele>771</ele><time>2019-10-02T14:07:20Z</time><name>PT11748</name></trkpt>
<trkpt lat="54.571256" lon="-3.241426"><ele>771</ele><time>2019-10-02T14:07:22Z</time><name>PT11749</name></trkpt>
<trkpt lat="54.571247" lon="-3.241410"><ele>771</ele><time>2019-10-02T14:07:22Z</time><name>PT11750</name></trkpt>
<trkpt lat="54.571242" lon="-3.241388"><ele>771</ele><time>2019-10-02T14:07:24Z</time><name>PT11751</name></trkpt>
<trkpt lat="54.571240" lon="-3.241367"><ele>771</ele><time>2019-10-02T14:07:24Z</time><name>PT11752</name></trkpt>
<trkpt lat="54.571235" lon="-3.241346"><ele>771</ele><time>2019-10-02T14:07:26Z</time><name>PT11753</name></trkpt>
<trkpt lat="54.571233" lon="-3.241319"><ele>771</ele><time>2019-10-02T14:07:26Z</time><name>PT11754</name></trkpt>
<trkpt lat="54.571233" lon="-3.241294"><ele>771</ele><time>2019-10-02T14:07:28Z</time><name>PT11755</name></trkpt>
<trkpt lat="54.571235" lon="-3.241275"><ele>771</ele><time>2019-10-02T14:07:28Z</time><name>PT11756</name></trkpt>
<trkpt lat="54.571239" lon="-3.241266"><ele>770</ele><time>2019-10-02T14:07:30Z</time><name>PT11757</name></trkpt>
<trkpt lat="54.571245" lon="-3.241249"><ele>770</ele><time>2019-10-02T14:07:30Z</time><name>PT11758</name></trkpt>
<trkpt lat="54.571250" lon="-3.241234"><ele>770</ele><time>2019-10-02T14:07:32Z</time><name>PT11759</name></trkpt>
<trkpt lat="54.571254" lon="-3.241220"><ele>770</ele><time>2019-10-02T14:07:32Z</time><name>PT11760</name></trkpt>
<trkpt lat="54.571257" lon="-3.241200"><ele>769</ele><time>2019-10-02T14:07:34Z</time><name>PT11761</name></trkpt>
<trkpt lat="54.571262" lon="-3.241180"><ele>769</ele><time>2019-10-02T14:07:35Z</time><name>PT11762</name></trkpt>
<trkpt lat="54.571267" lon="-3.241166"><ele>769</ele><time>2019-10-02T14:07:36Z</time><name>PT11763</name></trkpt>
<trkpt lat="54.571273" lon="-3.241157"><ele>769</ele><time>2019-10-02T14:07:36Z</time><name>PT11764</name></trkpt>
<trkpt lat="54.571275" lon="-3.241143"><ele>769</ele><time>2019-10-02T14:07:38Z</time><name>PT11765</name></trkpt>
<trkpt lat="54.571276" lon="-3.241127"><ele>769</ele><time>2019-10-02T14:07:38Z</time><name>PT11766</name></trkpt>
<trkpt lat="54.571276" lon="-3.241105"><ele>769</ele><time>2019-10-02T14:07:40Z</time><name>PT11767</name></trkpt>
<trkpt lat="54.571277" lon="-3.241085"><ele>769</ele><time>2019-10-02T14:07:40Z</time><name>PT11768</name></trkpt>
<trkpt lat="54.571280" lon="-3.241072"><ele>769</ele><time>2019-10-02T14:07:42Z</time><name>PT11769</name></trkpt>
<trkpt lat="54.571285" lon="-3.241057"><ele>768</ele><time>2019-10-02T14:07:42Z</time><name>PT11770</name></trkpt>
<trkpt lat="54.571292" lon="-3.241045"><ele>769</ele><time>2019-10-02T14:07:44Z</time><name>PT11771</name></trkpt>
<trkpt lat="54.571297" lon="-3.241032"><ele>769</ele><time>2019-10-02T14:07:44Z</time><name>PT11772</name></trkpt>
<trkpt lat="54.571304" lon="-3.241012"><ele>769</ele><time>2019-10-02T14:07:46Z</time><name>PT11773</name></trkpt>
<trkpt lat="54.571308" lon="-3.240997"><ele>769</ele><time>2019-10-02T14:07:46Z</time><name>PT11774</name></trkpt>
<trkpt lat="54.571309" lon="-3.240980"><ele>769</ele><time>2019-10-02T14:07:48Z</time><name>PT11775</name></trkpt>
<trkpt lat="54.571311" lon="-3.240960"><ele>769</ele><time>2019-10-02T14:07:48Z</time><name>PT11776</name></trkpt>
<trkpt lat="54.571313" lon="-3.240942"><ele>768</ele><time>2019-10-02T14:07:50Z</time><name>PT11777</name></trkpt>
<trkpt lat="54.571316" lon="-3.240928"><ele>768</ele><time>2019-10-02T14:07:50Z</time><name>PT11778</name></trkpt>
<trkpt lat="54.571322" lon="-3.240911"><ele>768</ele><time>2019-10-02T14:07:52Z</time><name>PT11779</name></trkpt>
<trkpt lat="54.571327" lon="-3.240896"><ele>768</ele><time>2019-10-02T14:07:52Z</time><name>PT11780</name></trkpt>
<trkpt lat="54.571333" lon="-3.240883"><ele>768</ele><time>2019-10-02T14:07:54Z</time><name>PT11781</name></trkpt>
<trkpt lat="54.571340" lon="-3.240871"><ele>768</ele><time>2019-10-02T14:07:54Z</time><name>PT11782</name></trkpt>
<trkpt lat="54.571346" lon="-3.240860"><ele>767</ele><time>2019-10-02T14:07:56Z</time><name>PT11783</name></trkpt>
<trkpt lat="54.571352" lon="-3.240845"><ele>768</ele><time>2019-10-02T14:07:57Z</time><name>PT11784</name></trkpt>
<trkpt lat="54.571356" lon="-3.240826"><ele>767</ele><time>2019-10-02T14:07:58Z</time><name>PT11785</name></trkpt>
<trkpt lat="54.571360" lon="-3.240804"><ele>767</ele><time>2019-10-02T14:07:59Z</time><name>PT11786</name></trkpt>
<trkpt lat="54.571364" lon="-3.240790"><ele>767</ele><time>2019-10-02T14:08:00Z</time><name>PT11787</name></trkpt>
<trkpt lat="54.571370" lon="-3.240783"><ele>767</ele><time>2019-10-02T14:08:01Z</time><name>PT11788</name></trkpt>
<trkpt lat="54.571375" lon="-3.240772"><ele>767</ele><time>2019-10-02T14:08:02Z</time><name>PT11789</name></trkpt>
<trkpt lat="54.571380" lon="-3.240761"><ele>766</ele><time>2019-10-02T14:08:03Z</time><name>PT11790</name></trkpt>
<trkpt lat="54.571384" lon="-3.240746"><ele>766</ele><time>2019-10-02T14:08:04Z</time><name>PT11791</name></trkpt>
<trkpt lat="54.571388" lon="-3.240728"><ele>766</ele><time>2019-10-02T14:08:05Z</time><name>PT11792</name></trkpt>
<trkpt lat="54.571392" lon="-3.240712"><ele>765</ele><time>2019-10-02T14:08:06Z</time><name>PT11793</name></trkpt>
<trkpt lat="54.571395" lon="-3.240696"><ele>765</ele><time>2019-10-02T14:08:07Z</time><name>PT11794</name></trkpt>
<trkpt lat="54.571401" lon="-3.240683"><ele>765</ele><time>2019-10-02T14:08:08Z</time><name>PT11795</name></trkpt>
<trkpt lat="54.571408" lon="-3.240673"><ele>764</ele><time>2019-10-02T14:08:09Z</time><name>PT11796</name></trkpt>
<trkpt lat="54.571415" lon="-3.240657"><ele>764</ele><time>2019-10-02T14:08:10Z</time><name>PT11797</name></trkpt>
<trkpt lat="54.571421" lon="-3.240639"><ele>764</ele><time>2019-10-02T14:08:11Z</time><name>PT11798</name></trkpt>
<trkpt lat="54.571427" lon="-3.240622"><ele>764</ele><time>2019-10-02T14:08:12Z</time><name>PT11799</name></trkpt>
<trkpt lat="54.571431" lon="-3.240606"><ele>764</ele><time>2019-10-02T14:08:13Z</time><name>PT11800</name></trkpt>
<trkpt lat="54.571436" lon="-3.240586"><ele>763</ele><time>2019-10-02T14:08:14Z</time><name>PT11801</name></trkpt>
<trkpt lat="54.571442" lon="-3.240569"><ele>763</ele><time>2019-10-02T14:08:15Z</time><name>PT11802</name></trkpt>
<trkpt lat="54.571447" lon="-3.240553"><ele>763</ele><time>2019-10-02T14:08:16Z</time><name>PT11803</name></trkpt>
<trkpt lat="54.571452" lon="-3.240535"><ele>762</ele><time>2019-10-02T14:08:17Z</time><name>PT11804</name></trkpt>
<trkpt lat="54.571458" lon="-3.240514"><ele>763</ele><time>2019-10-02T14:08:18Z</time><name>PT11805</name></trkpt>
<trkpt lat="54.571464" lon="-3.240497"><ele>762</ele><time>2019-10-02T14:08:18Z</time><name>PT11806</name></trkpt>
<trkpt lat="54.571468" lon="-3.240485"><ele>762</ele><time>2019-10-02T14:08:20Z</time><name>PT11807</name></trkpt>
<trkpt lat="54.571472" lon="-3.240470"><ele>762</ele><time>2019-10-02T14:08:20Z</time><name>PT11808</name></trkpt>
<trkpt lat="54.571476" lon="-3.240449"><ele>762</ele><time>2019-10-02T14:08:22Z</time><name>PT11809</name></trkpt>
<trkpt lat="54.571482" lon="-3.240435"><ele>762</ele><time>2019-10-02T14:08:22Z</time><name>PT11810</name></trkpt>
<trkpt lat="54.571487" lon="-3.240420"><ele>761</ele><time>2019-10-02T14:08:24Z</time><name>PT11811</name></trkpt>
<trkpt lat="54.571491" lon="-3.240398"><ele>761</ele><time>2019-10-02T14:08:24Z</time><name>PT11812</name></trkpt>
<trkpt lat="54.571494" lon="-3.240375"><ele>762</ele><time>2019-10-02T14:08:26Z</time><name>PT11813</name></trkpt>
<trkpt lat="54.571496" lon="-3.240356"><ele>761</ele><time>2019-10-02T14:08:26Z</time><name>PT11814</name></trkpt>
<trkpt lat="54.571502" lon="-3.240341"><ele>761</ele><time>2019-10-02T14:08:28Z</time><name>PT11815</name></trkpt>
<trkpt lat="54.571505" lon="-3.240330"><ele>761</ele><time>2019-10-02T14:08:28Z</time><name>PT11816</name></trkpt>
<trkpt lat="54.571506" lon="-3.240321"><ele>762</ele><time>2019-10-02T14:08:30Z</time><name>PT11817</name></trkpt>
<trkpt lat="54.571506" lon="-3.240313"><ele>762</ele><time>2019-10-02T14:08:30Z</time><name>PT11818</name></trkpt>
<trkpt lat="54.571506" lon="-3.240305"><ele>761</ele><time>2019-10-02T14:08:32Z</time><name>PT11819</name></trkpt>
<trkpt lat="54.571511" lon="-3.240298"><ele>761</ele><time>2019-10-02T14:08:34Z</time><name>PT11820</name></trkpt>
<trkpt lat="54.571520" lon="-3.240277"><ele>761</ele><time>2019-10-02T14:08:34Z</time><name>PT11821</name></trkpt>
<trkpt lat="54.571527" lon="-3.240261"><ele>761</ele><time>2019-10-02T14:08:36Z</time><name>PT11822</name></trkpt>
<trkpt lat="54.571533" lon="-3.240251"><ele>761</ele><time>2019-10-02T14:08:36Z</time><name>PT11823</name></trkpt>
<trkpt lat="54.571538" lon="-3.240238"><ele>761</ele><time>2019-10-02T14:08:38Z</time><name>PT11824</name></trkpt>
<trkpt lat="54.571543" lon="-3.240228"><ele>761</ele><time>2019-10-02T14:08:38Z</time><name>PT11825</name></trkpt>
<trkpt lat="54.571551" lon="-3.240214"><ele>761</ele><time>2019-10-02T14:08:40Z</time><name>PT11826</name></trkpt>
<trkpt lat="54.571558" lon="-3.240199"><ele>760</ele><time>2019-10-02T14:08:40Z</time><name>PT11827</name></trkpt>
<trkpt lat="54.571564" lon="-3.240183"><ele>760</ele><time>2019-10-02T14:08:42Z</time><name>PT11828</name></trkpt>
<trkpt lat="54.571571" lon="-3.240173"><ele>761</ele><time>2019-10-02T14:08:42Z</time><name>PT11829</name></trkpt>
<trkpt lat="54.571575" lon="-3.240169"><ele>761</ele><time>2019-10-02T14:08:44Z</time><name>PT11830</name></trkpt>
<trkpt lat="54.571576" lon="-3.240167"><ele>761</ele><time>2019-10-02T14:08:44Z</time><name>PT11831</name></trkpt>
<trkpt lat="54.571577" lon="-3.240158"><ele>761</ele><time>2019-10-02T14:08:46Z</time><name>PT11832</name></trkpt>
<trkpt lat="54.571581" lon="-3.240148"><ele>761</ele><time>2019-10-02T14:08:46Z</time><name>PT11833</name></trkpt>
<trkpt lat="54.571589" lon="-3.240137"><ele>760</ele><time>2019-10-02T14:08:48Z</time><name>PT11834</name></trkpt>
<trkpt lat="54.571597" lon="-3.240127"><ele>760</ele><time>2019-10-02T14:08:48Z</time><name>PT11835</name></trkpt>
<trkpt lat="54.571603" lon="-3.240122"><ele>760</ele><time>2019-10-02T14:08:50Z</time><name>PT11836</name></trkpt>
<trkpt lat="54.571608" lon="-3.240109"><ele>760</ele><time>2019-10-02T14:08:50Z</time><name>PT11837</name></trkpt>
<trkpt lat="54.571615" lon="-3.240093"><ele>760</ele><time>2019-10-02T14:08:52Z</time><name>PT11838</name></trkpt>
<trkpt lat="54.571620" lon="-3.240075"><ele>759</ele><time>2019-10-02T14:08:52Z</time><name>PT11839</name></trkpt>
<trkpt lat="54.571626" lon="-3.240063"><ele>759</ele><time>2019-10-02T14:08:54Z</time><name>PT11840</name></trkpt>
<trkpt lat="54.571636" lon="-3.240052"><ele>759</ele><time>2019-10-02T14:08:54Z</time><name>PT11841</name></trkpt>
<trkpt lat="54.571642" lon="-3.240038"><ele>759</ele><time>2019-10-02T14:08:56Z</time><name>PT11842</name></trkpt>
<trkpt lat="54.571650" lon="-3.240027"><ele>758</ele><time>2019-10-02T14:08:56Z</time><name>PT11843</name></trkpt>
<trkpt lat="54.571656" lon="-3.240017"><ele>758</ele><time>2019-10-02T14:08:58Z</time><name>PT11844</name></trkpt>
<trkpt lat="54.571662" lon="-3.240003"><ele>758</ele><time>2019-10-02T14:08:58Z</time><name>PT11845</name></trkpt>
<trkpt lat="54.571670" lon="-3.239989"><ele>758</ele><time>2019-10-02T14:09:00Z</time><name>PT11846</name></trkpt>
<trkpt lat="54.571678" lon="-3.239976"><ele>758</ele><time>2019-10-02T14:09:00Z</time><name>PT11847</name></trkpt>
<trkpt lat="54.571686" lon="-3.239968"><ele>757</ele><time>2019-10-02T14:09:02Z</time><name>PT11848</name></trkpt>
<trkpt lat="54.571692" lon="-3.239949"><ele>757</ele><time>2019-10-02T14:09:02Z</time><name>PT11849</name></trkpt>
<trkpt lat="54.571698" lon="-3.239937"><ele>757</ele><time>2019-10-02T14:09:04Z</time><name>PT11850</name></trkpt>
<trkpt lat="54.571705" lon="-3.239932"><ele>757</ele><time>2019-10-02T14:09:04Z</time><name>PT11851</name></trkpt>
<trkpt lat="54.571713" lon="-3.239924"><ele>757</ele><time>2019-10-02T14:09:06Z</time><name>PT11852</name></trkpt>
<trkpt lat="54.571720" lon="-3.239910"><ele>757</ele><time>2019-10-02T14:09:06Z</time><name>PT11853</name></trkpt>
<trkpt lat="54.571728" lon="-3.239897"><ele>756</ele><time>2019-10-02T14:09:08Z</time><name>PT11854</name></trkpt>
<trkpt lat="54.571735" lon="-3.239887"><ele>756</ele><time>2019-10-02T14:09:08Z</time><name>PT11855</name></trkpt>
<trkpt lat="54.571740" lon="-3.239873"><ele>756</ele><time>2019-10-02T14:09:10Z</time><name>PT11856</name></trkpt>
<trkpt lat="54.571748" lon="-3.239863"><ele>756</ele><time>2019-10-02T14:09:10Z</time><name>PT11857</name></trkpt>
<trkpt lat="54.571755" lon="-3.239854"><ele>756</ele><time>2019-10-02T14:09:12Z</time><name>PT11858</name></trkpt>
<trkpt lat="54.571763" lon="-3.239843"><ele>755</ele><time>2019-10-02T14:09:12Z</time><name>PT11859</name></trkpt>
<trkpt lat="54.571770" lon="-3.239834"><ele>755</ele><time>2019-10-02T14:09:14Z</time><name>PT11860</name></trkpt>
<trkpt lat="54.571776" lon="-3.239821"><ele>755</ele><time>2019-10-02T14:09:14Z</time><name>PT11861</name></trkpt>
<trkpt lat="54.571782" lon="-3.239812"><ele>755</ele><time>2019-10-02T14:09:16Z</time><name>PT11862</name></trkpt>
<trkpt lat="54.571789" lon="-3.239808"><ele>755</ele><time>2019-10-02T14:09:16Z</time><name>PT11863</name></trkpt>
<trkpt lat="54.571796" lon="-3.239803"><ele>755</ele><time>2019-10-02T14:09:18Z</time><name>PT11864</name></trkpt>
<trkpt lat="54.571801" lon="-3.239797"><ele>755</ele><time>2019-10-02T14:09:18Z</time><name>PT11865</name></trkpt>
<trkpt lat="54.571807" lon="-3.239787"><ele>754</ele><time>2019-10-02T14:09:20Z</time><name>PT11866</name></trkpt>
<trkpt lat="54.571814" lon="-3.239777"><ele>754</ele><time>2019-10-02T14:09:20Z</time><name>PT11867</name></trkpt>
<trkpt lat="54.571821" lon="-3.239760"><ele>754</ele><time>2019-10-02T14:09:22Z</time><name>PT11868</name></trkpt>
<trkpt lat="54.571829" lon="-3.239753"><ele>753</ele><time>2019-10-02T14:09:22Z</time><name>PT11869</name></trkpt>
<trkpt lat="54.571836" lon="-3.239741"><ele>753</ele><time>2019-10-02T14:09:24Z</time><name>PT11870</name></trkpt>
<trkpt lat="54.571842" lon="-3.239731"><ele>753</ele><time>2019-10-02T14:09:24Z</time><name>PT11871</name></trkpt>
<trkpt lat="54.571850" lon="-3.239725"><ele>752</ele><time>2019-10-02T14:09:26Z</time><name>PT11872</name></trkpt>
<trkpt lat="54.571857" lon="-3.239712"><ele>752</ele><time>2019-10-02T14:09:26Z</time><name>PT11873</name></trkpt>
<trkpt lat="54.571864" lon="-3.239705"><ele>752</ele><time>2019-10-02T14:09:28Z</time><name>PT11874</name></trkpt>
<trkpt lat="54.571871" lon="-3.239692"><ele>752</ele><time>2019-10-02T14:09:29Z</time><name>PT11875</name></trkpt>
<trkpt lat="54.571878" lon="-3.239680"><ele>752</ele><time>2019-10-02T14:09:30Z</time><name>PT11876</name></trkpt>
<trkpt lat="54.571883" lon="-3.239666"><ele>752</ele><time>2019-10-02T14:09:31Z</time><name>PT11877</name></trkpt>
<trkpt lat="54.571890" lon="-3.239653"><ele>751</ele><time>2019-10-02T14:09:32Z</time><name>PT11878</name></trkpt>
<trkpt lat="54.571895" lon="-3.239639"><ele>751</ele><time>2019-10-02T14:09:32Z</time><name>PT11879</name></trkpt>
<trkpt lat="54.571901" lon="-3.239626"><ele>751</ele><time>2019-10-02T14:09:34Z</time><name>PT11880</name></trkpt>
<trkpt lat="54.571911" lon="-3.239614"><ele>752</ele><time>2019-10-02T14:09:35Z</time><name>PT11881</name></trkpt>
<trkpt lat="54.571921" lon="-3.239602"><ele>752</ele><time>2019-10-02T14:09:36Z</time><name>PT11882</name></trkpt>
<trkpt lat="54.571932" lon="-3.239601"><ele>751</ele><time>2019-10-02T14:09:37Z</time><name>PT11883</name></trkpt>
<trkpt lat="54.571941" lon="-3.239594"><ele>751</ele><time>2019-10-02T14:09:38Z</time><name>PT11884</name></trkpt>
<trkpt lat="54.571951" lon="-3.239589"><ele>751</ele><time>2019-10-02T14:09:39Z</time><name>PT11885</name></trkpt>
<trkpt lat="54.571961" lon="-3.239579"><ele>752</ele><time>2019-10-02T14:09:40Z</time><name>PT11886</name></trkpt>
<trkpt lat="54.571971" lon="-3.239573"><ele>752</ele><time>2019-10-02T14:09:41Z</time><name>PT11887</name></trkpt>
<trkpt lat="54.571981" lon="-3.239565"><ele>752</ele><time>2019-10-02T14:09:42Z</time><name>PT11888</name></trkpt>
<trkpt lat="54.571993" lon="-3.239558"><ele>751</ele><time>2019-10-02T14:09:42Z</time><name>PT11889</name></trkpt>
<trkpt lat="54.572006" lon="-3.239551"><ele>751</ele><time>2019-10-02T14:09:44Z</time><name>PT11890</name></trkpt>
<trkpt lat="54.572018" lon="-3.239545"><ele>752</ele><time>2019-10-02T14:09:44Z</time><name>PT11891</name></trkpt>
<trkpt lat="54.572028" lon="-3.239536"><ele>752</ele><time>2019-10-02T14:09:46Z</time><name>PT11892</name></trkpt>
<trkpt lat="54.572038" lon="-3.239525"><ele>752</ele><time>2019-10-02T14:09:46Z</time><name>PT11893</name></trkpt>
<trkpt lat="54.572048" lon="-3.239515"><ele>752</ele><time>2019-10-02T14:09:48Z</time><name>PT11894</name></trkpt>
<trkpt lat="54.572059" lon="-3.239509"><ele>752</ele><time>2019-10-02T14:09:48Z</time><name>PT11895</name></trkpt>
<trkpt lat="54.572068" lon="-3.239498"><ele>752</ele><time>2019-10-02T14:09:50Z</time><name>PT11896</name></trkpt>
<trkpt lat="54.572078" lon="-3.239494"><ele>752</ele><time>2019-10-02T14:09:50Z</time><name>PT11897</name></trkpt>
<trkpt lat="54.572087" lon="-3.239482"><ele>752</ele><time>2019-10-02T14:09:52Z</time><name>PT11898</name></trkpt>
<trkpt lat="54.572097" lon="-3.239473"><ele>751</ele><time>2019-10-02T14:09:52Z</time><name>PT11899</name></trkpt>
<trkpt lat="54.572106" lon="-3.239465"><ele>752</ele><time>2019-10-02T14:09:54Z</time><name>PT11900</name></trkpt>
<trkpt lat="54.572116" lon="-3.239454"><ele>752</ele><time>2019-10-02T14:09:54Z</time><name>PT11901</name></trkpt>
<trkpt lat="54.572125" lon="-3.239439"><ele>751</ele><time>2019-10-02T14:09:56Z</time><name>PT11902</name></trkpt>
<trkpt lat="54.572134" lon="-3.239427"><ele>751</ele><time>2019-10-02T14:09:56Z</time><name>PT11903</name></trkpt>
<trkpt lat="54.572142" lon="-3.239417"><ele>750</ele><time>2019-10-02T14:09:58Z</time><name>PT11904</name></trkpt>
<trkpt lat="54.572149" lon="-3.239410"><ele>750</ele><time>2019-10-02T14:09:58Z</time><name>PT11905</name></trkpt>
<trkpt lat="54.572157" lon="-3.239404"><ele>750</ele><time>2019-10-02T14:10:00Z</time><name>PT11906</name></trkpt>
<trkpt lat="54.572166" lon="-3.239402"><ele>749</ele><time>2019-10-02T14:10:00Z</time><name>PT11907</name></trkpt>
<trkpt lat="54.572176" lon="-3.239395"><ele>749</ele><time>2019-10-02T14:10:02Z</time><name>PT11908</name></trkpt>
<trkpt lat="54.572184" lon="-3.239384"><ele>749</ele><time>2019-10-02T14:10:02Z</time><name>PT11909</name></trkpt>
<trkpt lat="54.572192" lon="-3.239376"><ele>749</ele><time>2019-10-02T14:10:04Z</time><name>PT11910</name></trkpt>
<trkpt lat="54.572199" lon="-3.239369"><ele>748</ele><time>2019-10-02T14:10:04Z</time><name>PT11911</name></trkpt>
<trkpt lat="54.572208" lon="-3.239359"><ele>748</ele><time>2019-10-02T14:10:06Z</time><name>PT11912</name></trkpt>
<trkpt lat="54.572215" lon="-3.239349"><ele>747</ele><time>2019-10-02T14:10:06Z</time><name>PT11913</name></trkpt>
<trkpt lat="54.572223" lon="-3.239338"><ele>747</ele><time>2019-10-02T14:10:08Z</time><name>PT11914</name></trkpt>
<trkpt lat="54.572230" lon="-3.239332"><ele>747</ele><time>2019-10-02T14:10:08Z</time><name>PT11915</name></trkpt>
<trkpt lat="54.572238" lon="-3.239322"><ele>746</ele><time>2019-10-02T14:10:10Z</time><name>PT11916</name></trkpt>
<trkpt lat="54.572246" lon="-3.239314"><ele>746</ele><time>2019-10-02T14:10:10Z</time><name>PT11917</name></trkpt>
<trkpt lat="54.572255" lon="-3.239307"><ele>746</ele><time>2019-10-02T14:10:12Z</time><name>PT11918</name></trkpt>
<trkpt lat="54.572263" lon="-3.239302"><ele>746</ele><time>2019-10-02T14:10:12Z</time><name>PT11919</name></trkpt>
<trkpt lat="54.572271" lon="-3.239300"><ele>746</ele><time>2019-10-02T14:10:14Z</time><name>PT11920</name></trkpt>
<trkpt lat="54.572278" lon="-3.239293"><ele>745</ele><time>2019-10-02T14:10:14Z</time><name>PT11921</name></trkpt>
<trkpt lat="54.572284" lon="-3.239279"><ele>745</ele><time>2019-10-02T14:10:16Z</time><name>PT11922</name></trkpt>
<trkpt lat="54.572290" lon="-3.239265"><ele>745</ele><time>2019-10-02T14:10:16Z</time><name>PT11923</name></trkpt>
<trkpt lat="54.572300" lon="-3.239257"><ele>745</ele><time>2019-10-02T14:10:18Z</time><name>PT11924</name></trkpt>
<trkpt lat="54.572308" lon="-3.239249"><ele>744</ele><time>2019-10-02T14:10:18Z</time><name>PT11925</name></trkpt>
<trkpt lat="54.572317" lon="-3.239243"><ele>744</ele><time>2019-10-02T14:10:20Z</time><name>PT11926</name></trkpt>
<trkpt lat="54.572324" lon="-3.239236"><ele>744</ele><time>2019-10-02T14:10:20Z</time><name>PT11927</name></trkpt>
<trkpt lat="54.572331" lon="-3.239227"><ele>744</ele><time>2019-10-02T14:10:22Z</time><name>PT11928</name></trkpt>
<trkpt lat="54.572340" lon="-3.239220"><ele>744</ele><time>2019-10-02T14:10:22Z</time><name>PT11929</name></trkpt>
<trkpt lat="54.572348" lon="-3.239212"><ele>744</ele><time>2019-10-02T14:10:24Z</time><name>PT11930</name></trkpt>
<trkpt lat="54.572356" lon="-3.239206"><ele>744</ele><time>2019-10-02T14:10:24Z</time><name>PT11931</name></trkpt>
<trkpt lat="54.572366" lon="-3.239199"><ele>744</ele><time>2019-10-02T14:10:26Z</time><name>PT11932</name></trkpt>
<trkpt lat="54.572375" lon="-3.239192"><ele>744</ele><time>2019-10-02T14:10:26Z</time><name>PT11933</name></trkpt>
<trkpt lat="54.572384" lon="-3.239182"><ele>744</ele><time>2019-10-02T14:10:28Z</time><name>PT11934</name></trkpt>
<trkpt lat="54.572393" lon="-3.239173"><ele>744</ele><time>2019-10-02T14:10:29Z</time><name>PT11935</name></trkpt>
<trkpt lat="54.572401" lon="-3.239164"><ele>744</ele><time>2019-10-02T14:10:30Z</time><name>PT11936</name></trkpt>
<trkpt lat="54.572411" lon="-3.239153"><ele>744</ele><time>2019-10-02T14:10:30Z</time><name>PT11937</name></trkpt>
<trkpt lat="54.572418" lon="-3.239140"><ele>743</ele><time>2019-10-02T14:10:32Z</time><name>PT11938</name></trkpt>
<trkpt lat="54.572427" lon="-3.239129"><ele>743</ele><time>2019-10-02T14:10:33Z</time><name>PT11939</name></trkpt>
<trkpt lat="54.572436" lon="-3.239126"><ele>743</ele><time>2019-10-02T14:10:34Z</time><name>PT11940</name></trkpt>
<trkpt lat="54.572444" lon="-3.239120"><ele>742</ele><time>2019-10-02T14:10:35Z</time><name>PT11941</name></trkpt>
<trkpt lat="54.572452" lon="-3.239110"><ele>742</ele><time>2019-10-02T14:10:36Z</time><name>PT11942</name></trkpt>
<trkpt lat="54.572459" lon="-3.239100"><ele>741</ele><time>2019-10-02T14:10:37Z</time><name>PT11943</name></trkpt>
<trkpt lat="54.572465" lon="-3.239092"><ele>741</ele><time>2019-10-02T14:10:38Z</time><name>PT11944</name></trkpt>
<trkpt lat="54.572472" lon="-3.239083"><ele>741</ele><time>2019-10-02T14:10:39Z</time><name>PT11945</name></trkpt>
<trkpt lat="54.572477" lon="-3.239073"><ele>741</ele><time>2019-10-02T14:10:40Z</time><name>PT11946</name></trkpt>
<trkpt lat="54.572482" lon="-3.239061"><ele>740</ele><time>2019-10-02T14:10:41Z</time><name>PT11947</name></trkpt>
<trkpt lat="54.572486" lon="-3.239050"><ele>740</ele><time>2019-10-02T14:10:42Z</time><name>PT11948</name></trkpt>
<trkpt lat="54.572490" lon="-3.239039"><ele>740</ele><time>2019-10-02T14:10:43Z</time><name>PT11949</name></trkpt>
<trkpt lat="54.572495" lon="-3.239027"><ele>740</ele><time>2019-10-02T14:10:44Z</time><name>PT11950</name></trkpt>
<trkpt lat="54.572498" lon="-3.239019"><ele>740</ele><time>2019-10-02T14:10:45Z</time><name>PT11951</name></trkpt>
<trkpt lat="54.572498" lon="-3.239010"><ele>740</ele><time>2019-10-02T14:10:46Z</time><name>PT11952</name></trkpt>
<trkpt lat="54.572498" lon="-3.239007"><ele>739</ele><time>2019-10-02T14:10:47Z</time><name>PT11953</name></trkpt>
<trkpt lat="54.572497" lon="-3.239007"><ele>739</ele><time>2019-10-02T14:10:48Z</time><name>PT11954</name></trkpt>
<trkpt lat="54.572496" lon="-3.239005"><ele>739</ele><time>2019-10-02T14:10:49Z</time><name>PT11955</name></trkpt>
<trkpt lat="54.572496" lon="-3.239000"><ele>739</ele><time>2019-10-02T14:10:50Z</time><name>PT11956</name></trkpt>
<trkpt lat="54.572495" lon="-3.238991"><ele>739</ele><time>2019-10-02T14:10:51Z</time><name>PT11957</name></trkpt>
<trkpt lat="54.572490" lon="-3.238983"><ele>739</ele><time>2019-10-02T14:10:52Z</time><name>PT11958</name></trkpt>
<trkpt lat="54.572488" lon="-3.238972"><ele>738</ele><time>2019-10-02T14:10:52Z</time><name>PT11959</name></trkpt>
<trkpt lat="54.572486" lon="-3.238959"><ele>738</ele><time>2019-10-02T14:10:54Z</time><name>PT11960</name></trkpt>
<trkpt lat="54.572482" lon="-3.238946"><ele>738</ele><time>2019-10-02T14:10:54Z</time><name>PT11961</name></trkpt>
<trkpt lat="54.572477" lon="-3.238931"><ele>738</ele><time>2019-10-02T14:10:56Z</time><name>PT11962</name></trkpt>
<trkpt lat="54.572473" lon="-3.238919"><ele>737</ele><time>2019-10-02T14:10:56Z</time><name>PT11963</name></trkpt>
<trkpt lat="54.572467" lon="-3.238905"><ele>737</ele><time>2019-10-02T14:10:58Z</time><name>PT11964</name></trkpt>
<trkpt lat="54.572461" lon="-3.238897"><ele>737</ele><time>2019-10-02T14:10:58Z</time><name>PT11965</name></trkpt>
<trkpt lat="54.572454" lon="-3.238887"><ele>736</ele><time>2019-10-02T14:11:00Z</time><name>PT11966</name></trkpt>
<trkpt lat="54.572448" lon="-3.238876"><ele>736</ele><time>2019-10-02T14:11:00Z</time><name>PT11967</name></trkpt>
<trkpt lat="54.572443" lon="-3.238865"><ele>735</ele><time>2019-10-02T14:11:02Z</time><name>PT11968</name></trkpt>
<trkpt lat="54.572437" lon="-3.238853"><ele>734</ele><time>2019-10-02T14:11:02Z</time><name>PT11969</name></trkpt>
<trkpt lat="54.572430" lon="-3.238839"><ele>734</ele><time>2019-10-02T14:11:04Z</time><name>PT11970</name></trkpt>
<trkpt lat="54.572423" lon="-3.238828"><ele>734</ele><time>2019-10-02T14:11:04Z</time><name>PT11971</name></trkpt>
<trkpt lat="54.572415" lon="-3.238819"><ele>734</ele><time>2019-10-02T14:11:06Z</time><name>PT11972</name></trkpt>
<trkpt lat="54.572407" lon="-3.238812"><ele>734</ele><time>2019-10-02T14:11:06Z</time><name>PT11973</name></trkpt>
<trkpt lat="54.572398" lon="-3.238804"><ele>734</ele><time>2019-10-02T14:11:08Z</time><name>PT11974</name></trkpt>
<trkpt lat="54.572393" lon="-3.238791"><ele>734</ele><time>2019-10-02T14:11:08Z</time><name>PT11975</name></trkpt>
<trkpt lat="54.572386" lon="-3.238783"><ele>734</ele><time>2019-10-02T14:11:10Z</time><name>PT11976</name></trkpt>
<trkpt lat="54.572380" lon="-3.238774"><ele>735</ele><time>2019-10-02T14:11:10Z</time><name>PT11977</name></trkpt>
<trkpt lat="54.572375" lon="-3.238767"><ele>735</ele><time>2019-10-02T14:11:12Z</time><name>PT11978</name></trkpt>
<trkpt lat="54.572370" lon="-3.238761"><ele>735</ele><time>2019-10-02T14:11:12Z</time><name>PT11979</name></trkpt>
<trkpt lat="54.572364" lon="-3.238747"><ele>735</ele><time>2019-10-02T14:11:14Z</time><name>PT11980</name></trkpt>
<trkpt lat="54.572355" lon="-3.238742"><ele>734</ele><time>2019-10-02T14:11:14Z</time><name>PT11981</name></trkpt>
<trkpt lat="54.572349" lon="-3.238736"><ele>734</ele><time>2019-10-02T14:11:16Z</time><name>PT11982</name></trkpt>
<trkpt lat="54.572344" lon="-3.238729"><ele>734</ele><time>2019-10-02T14:11:16Z</time><name>PT11983</name></trkpt>
<trkpt lat="54.572339" lon="-3.238722"><ele>733</ele><time>2019-10-02T14:11:18Z</time><name>PT11984</name></trkpt>
<trkpt lat="54.572334" lon="-3.238711"><ele>733</ele><time>2019-10-02T14:11:18Z</time><name>PT11985</name></trkpt>
<trkpt lat="54.572329" lon="-3.238700"><ele>732</ele><time>2019-10-02T14:11:20Z</time><name>PT11986</name></trkpt>
<trkpt lat="54.572323" lon="-3.238692"><ele>732</ele><time>2019-10-02T14:11:20Z</time><name>PT11987</name></trkpt>
<trkpt lat="54.572317" lon="-3.238682"><ele>732</ele><time>2019-10-02T14:11:22Z</time><name>PT11988</name></trkpt>
<trkpt lat="54.572313" lon="-3.238676"><ele>732</ele><time>2019-10-02T14:11:22Z</time><name>PT11989</name></trkpt>
<trkpt lat="54.572310" lon="-3.238670"><ele>732</ele><time>2019-10-02T14:11:24Z</time><name>PT11990</name></trkpt>
<trkpt lat="54.572306" lon="-3.238667"><ele>731</ele><time>2019-10-02T14:11:24Z</time><name>PT11991</name></trkpt>
<trkpt lat="54.572302" lon="-3.238663"><ele>731</ele><time>2019-10-02T14:11:26Z</time><name>PT11992</name></trkpt>
<trkpt lat="54.572297" lon="-3.238653"><ele>731</ele><time>2019-10-02T14:11:26Z</time><name>PT11993</name></trkpt>
<trkpt lat="54.572294" lon="-3.238643"><ele>730</ele><time>2019-10-02T14:11:28Z</time><name>PT11994</name></trkpt>
<trkpt lat="54.572294" lon="-3.238630"><ele>730</ele><time>2019-10-02T14:11:28Z</time><name>PT11995</name></trkpt>
<trkpt lat="54.572297" lon="-3.238623"><ele>730</ele><time>2019-10-02T14:11:30Z</time><name>PT11996</name></trkpt>
<trkpt lat="54.572304" lon="-3.238618"><ele>730</ele><time>2019-10-02T14:11:31Z</time><name>PT11997</name></trkpt>
<trkpt lat="54.572308" lon="-3.238613"><ele>729</ele><time>2019-10-02T14:11:32Z</time><name>PT11998</name></trkpt>
<trkpt lat="54.572310" lon="-3.238606"><ele>729</ele><time>2019-10-02T14:11:33Z</time><name>PT11999</name></trkpt>
<trkpt lat="54.572317" lon="-3.238601"><ele>729</ele><time>2019-10-02T14:11:34Z</time><name>PT12000</name></trkpt>
<trkpt lat="54.572326" lon="-3.238598"><ele>729</ele><time>2019-10-02T14:11:35Z</time><name>PT12001</name></trkpt>
<trkpt lat="54.572336" lon="-3.238590"><ele>728</ele><time>2019-10-02T14:11:36Z</time><name>PT12002</name></trkpt>
<trkpt lat="54.572344" lon="-3.238581"><ele>728</ele><time>2019-10-02T14:11:37Z</time><name>PT12003</name></trkpt>
<trkpt lat="54.572353" lon="-3.238573"><ele>728</ele><time>2019-10-02T14:11:38Z</time><name>PT12004</name></trkpt>
<trkpt lat="54.572364" lon="-3.238564"><ele>727</ele><time>2019-10-02T14:11:39Z</time><name>PT12005</name></trkpt>
<trkpt lat="54.572372" lon="-3.238553"><ele>726</ele><time>2019-10-02T14:11:40Z</time><name>PT12006</name></trkpt>
<trkpt lat="54.572382" lon="-3.238550"><ele>726</ele><time>2019-10-02T14:11:41Z</time><name>PT12007</name></trkpt>
<trkpt lat="54.572390" lon="-3.238545"><ele>726</ele><time>2019-10-02T14:11:42Z</time><name>PT12008</name></trkpt>
<trkpt lat="54.572401" lon="-3.238538"><ele>726</ele><time>2019-10-02T14:11:42Z</time><name>PT12009</name></trkpt>
<trkpt lat="54.572412" lon="-3.238533"><ele>725</ele><time>2019-10-02T14:11:44Z</time><name>PT12010</name></trkpt>
<trkpt lat="54.572420" lon="-3.238526"><ele>725</ele><time>2019-10-02T14:11:44Z</time><name>PT12011</name></trkpt>
<trkpt lat="54.572430" lon="-3.238512"><ele>725</ele><time>2019-10-02T14:11:46Z</time><name>PT12012</name></trkpt>
<trkpt lat="54.572436" lon="-3.238495"><ele>725</ele><time>2019-10-02T14:11:46Z</time><name>PT12013</name></trkpt>
<trkpt lat="54.572445" lon="-3.238488"><ele>724</ele><time>2019-10-02T14:11:48Z</time><name>PT12014</name></trkpt>
<trkpt lat="54.572456" lon="-3.238482"><ele>724</ele><time>2019-10-02T14:11:48Z</time><name>PT12015</name></trkpt>
<trkpt lat="54.572466" lon="-3.238474"><ele>724</ele><time>2019-10-02T14:11:50Z</time><name>PT12016</name></trkpt>
<trkpt lat="54.572473" lon="-3.238460"><ele>724</ele><time>2019-10-02T14:11:50Z</time><name>PT12017</name></trkpt>
<trkpt lat="54.572477" lon="-3.238448"><ele>724</ele><time>2019-10-02T14:11:52Z</time><name>PT12018</name></trkpt>
<trkpt lat="54.572486" lon="-3.238438"><ele>724</ele><time>2019-10-02T14:11:52Z</time><name>PT12019</name></trkpt>
<trkpt lat="54.572495" lon="-3.238426"><ele>724</ele><time>2019-10-02T14:11:54Z</time><name>PT12020</name></trkpt>
<trkpt lat="54.572506" lon="-3.238415"><ele>723</ele><time>2019-10-02T14:11:54Z</time><name>PT12021</name></trkpt>
<trkpt lat="54.572513" lon="-3.238404"><ele>723</ele><time>2019-10-02T14:11:56Z</time><name>PT12022</name></trkpt>
<trkpt lat="54.572521" lon="-3.238395"><ele>723</ele><time>2019-10-02T14:11:56Z</time><name>PT12023</name></trkpt>
<trkpt lat="54.572530" lon="-3.238384"><ele>723</ele><time>2019-10-02T14:11:58Z</time><name>PT12024</name></trkpt>
<trkpt lat="54.572538" lon="-3.238369"><ele>722</ele><time>2019-10-02T14:11:58Z</time><name>PT12025</name></trkpt>
<trkpt lat="54.572549" lon="-3.238354"><ele>722</ele><time>2019-10-02T14:12:00Z</time><name>PT12026</name></trkpt>
<trkpt lat="54.572560" lon="-3.238344"><ele>722</ele><time>2019-10-02T14:12:00Z</time><name>PT12027</name></trkpt>
<trkpt lat="54.572569" lon="-3.238330"><ele>721</ele><time>2019-10-02T14:12:02Z</time><name>PT12028</name></trkpt>
<trkpt lat="54.572577" lon="-3.238320"><ele>721</ele><time>2019-10-02T14:12:02Z</time><name>PT12029</name></trkpt>
<trkpt lat="54.572583" lon="-3.238302"><ele>720</ele><time>2019-10-02T14:12:04Z</time><name>PT12030</name></trkpt>
<trkpt lat="54.572591" lon="-3.238287"><ele>720</ele><time>2019-10-02T14:12:04Z</time><name>PT12031</name></trkpt>
<trkpt lat="54.572598" lon="-3.238268"><ele>720</ele><time>2019-10-02T14:12:06Z</time><name>PT12032</name></trkpt>
<trkpt lat="54.572603" lon="-3.238256"><ele>720</ele><time>2019-10-02T14:12:06Z</time><name>PT12033</name></trkpt>
<trkpt lat="54.572610" lon="-3.238244"><ele>720</ele><time>2019-10-02T14:12:08Z</time><name>PT12034</name></trkpt>
<trkpt lat="54.572615" lon="-3.238231"><ele>720</ele><time>2019-10-02T14:12:08Z</time><name>PT12035</name></trkpt>
<trkpt lat="54.572624" lon="-3.238222"><ele>720</ele><time>2019-10-02T14:12:10Z</time><name>PT12036</name></trkpt>
<trkpt lat="54.572632" lon="-3.238207"><ele>720</ele><time>2019-10-02T14:12:10Z</time><name>PT12037</name></trkpt>
<trkpt lat="54.572639" lon="-3.238193"><ele>720</ele><time>2019-10-02T14:12:12Z</time><name>PT12038</name></trkpt>
<trkpt lat="54.572641" lon="-3.238183"><ele>720</ele><time>2019-10-02T14:12:12Z</time><name>PT12039</name></trkpt>
<trkpt lat="54.572642" lon="-3.238169"><ele>720</ele><time>2019-10-02T14:12:14Z</time><name>PT12040</name></trkpt>
<trkpt lat="54.572641" lon="-3.238154"><ele>720</ele><time>2019-10-02T14:12:14Z</time><name>PT12041</name></trkpt>
<trkpt lat="54.572634" lon="-3.238142"><ele>720</ele><time>2019-10-02T14:12:16Z</time><name>PT12042</name></trkpt>
<trkpt lat="54.572626" lon="-3.238125"><ele>720</ele><time>2019-10-02T14:12:16Z</time><name>PT12043</name></trkpt>
<trkpt lat="54.572619" lon="-3.238111"><ele>719</ele><time>2019-10-02T14:12:18Z</time><name>PT12044</name></trkpt>
<trkpt lat="54.572612" lon="-3.238099"><ele>719</ele><time>2019-10-02T14:12:18Z</time><name>PT12045</name></trkpt>
<trkpt lat="54.572603" lon="-3.238090"><ele>719</ele><time>2019-10-02T14:12:20Z</time><name>PT12046</name></trkpt>
<trkpt lat="54.572596" lon="-3.238076"><ele>718</ele><time>2019-10-02T14:12:20Z</time><name>PT12047</name></trkpt>
<trkpt lat="54.572590" lon="-3.238063"><ele>718</ele><time>2019-10-02T14:12:22Z</time><name>PT12048</name></trkpt>
<trkpt lat="54.572589" lon="-3.238051"><ele>718</ele><time>2019-10-02T14:12:22Z</time><name>PT12049</name></trkpt>
<trkpt lat="54.572584" lon="-3.238038"><ele>718</ele><time>2019-10-02T14:12:24Z</time><name>PT12050</name></trkpt>
<trkpt lat="54.572582" lon="-3.238029"><ele>717</ele><time>2019-10-02T14:12:24Z</time><name>PT12051</name></trkpt>
<trkpt lat="54.572579" lon="-3.238021"><ele>717</ele><time>2019-10-02T14:12:26Z</time><name>PT12052</name></trkpt>
<trkpt lat="54.572574" lon="-3.238013"><ele>717</ele><time>2019-10-02T14:12:26Z</time><name>PT12053</name></trkpt>
<trkpt lat="54.572568" lon="-3.238007"><ele>717</ele><time>2019-10-02T14:12:28Z</time><name>PT12054</name></trkpt>
<trkpt lat="54.572559" lon="-3.237999"><ele>717</ele><time>2019-10-02T14:12:28Z</time><name>PT12055</name></trkpt>
<trkpt lat="54.572552" lon="-3.237989"><ele>716</ele><time>2019-10-02T14:12:30Z</time><name>PT12056</name></trkpt>
<trkpt lat="54.572543" lon="-3.237979"><ele>716</ele><time>2019-10-02T14:12:30Z</time><name>PT12057</name></trkpt>
<trkpt lat="54.572533" lon="-3.237971"><ele>716</ele><time>2019-10-02T14:12:32Z</time><name>PT12058</name></trkpt>
<trkpt lat="54.572526" lon="-3.237964"><ele>716</ele><time>2019-10-02T14:12:32Z</time><name>PT12059</name></trkpt>
<trkpt lat="54.572519" lon="-3.237956"><ele>716</ele><time>2019-10-02T14:12:34Z</time><name>PT12060</name></trkpt>
<trkpt lat="54.572514" lon="-3.237945"><ele>715</ele><time>2019-10-02T14:12:34Z</time><name>PT12061</name></trkpt>
<trkpt lat="54.572509" lon="-3.237932"><ele>715</ele><time>2019-10-02T14:12:36Z</time><name>PT12062</name></trkpt>
<trkpt lat="54.572506" lon="-3.237921"><ele>715</ele><time>2019-10-02T14:12:36Z</time><name>PT12063</name></trkpt>
<trkpt lat="54.572503" lon="-3.237912"><ele>714</ele><time>2019-10-02T14:12:38Z</time><name>PT12064</name></trkpt>
<trkpt lat="54.572503" lon="-3.237899"><ele>714</ele><time>2019-10-02T14:12:38Z</time><name>PT12065</name></trkpt>
<trkpt lat="54.572505" lon="-3.237884"><ele>714</ele><time>2019-10-02T14:12:40Z</time><name>PT12066</name></trkpt>
<trkpt lat="54.572509" lon="-3.237871"><ele>713</ele><time>2019-10-02T14:12:40Z</time><name>PT12067</name></trkpt>
<trkpt lat="54.572514" lon="-3.237859"><ele>714</ele><time>2019-10-02T14:12:42Z</time><name>PT12068</name></trkpt>
<trkpt lat="54.572522" lon="-3.237855"><ele>713</ele><time>2019-10-02T14:12:42Z</time><name>PT12069</name></trkpt>
<trkpt lat="54.572529" lon="-3.237847"><ele>713</ele><time>2019-10-02T14:12:44Z</time><name>PT12070</name></trkpt>
<trkpt lat="54.572537" lon="-3.237836"><ele>713</ele><time>2019-10-02T14:12:44Z</time><name>PT12071</name></trkpt>
<trkpt lat="54.572544" lon="-3.237827"><ele>713</ele><time>2019-10-02T14:12:46Z</time><name>PT12072</name></trkpt>
<trkpt lat="54.572549" lon="-3.237815"><ele>713</ele><time>2019-10-02T14:12:46Z</time><name>PT12073</name></trkpt>
<trkpt lat="54.572553" lon="-3.237809"><ele>713</ele><time>2019-10-02T14:12:48Z</time><name>PT12074</name></trkpt>
<trkpt lat="54.572558" lon="-3.237797"><ele>713</ele><time>2019-10-02T14:12:48Z</time><name>PT12075</name></trkpt>
<trkpt lat="54.572566" lon="-3.237789"><ele>713</ele><time>2019-10-02T14:12:50Z</time><name>PT12076</name></trkpt>
<trkpt lat="54.572572" lon="-3.237784"><ele>712</ele><time>2019-10-02T14:12:50Z</time><name>PT12077</name></trkpt>
<trkpt lat="54.572579" lon="-3.237779"><ele>711</ele><time>2019-10-02T14:12:52Z</time><name>PT12078</name></trkpt>
<trkpt lat="54.572586" lon="-3.237768"><ele>711</ele><time>2019-10-02T14:12:52Z</time><name>PT12079</name></trkpt>
<trkpt lat="54.572593" lon="-3.237752"><ele>711</ele><time>2019-10-02T14:12:54Z</time><name>PT12080</name></trkpt>
<trkpt lat="54.572600" lon="-3.237739"><ele>711</ele><time>2019-10-02T14:12:54Z</time><name>PT12081</name></trkpt>
<trkpt lat="54.572607" lon="-3.237727"><ele>711</ele><time>2019-10-02T14:12:56Z</time><name>PT12082</name></trkpt>
<trkpt lat="54.572616" lon="-3.237712"><ele>711</ele><time>2019-10-02T14:12:56Z</time><name>PT12083</name></trkpt>
<trkpt lat="54.572624" lon="-3.237699"><ele>711</ele><time>2019-10-02T14:12:58Z</time><name>PT12084</name></trkpt>
<trkpt lat="54.572631" lon="-3.237688"><ele>710</ele><time>2019-10-02T14:12:58Z</time><name>PT12085</name></trkpt>
<trkpt lat="54.572640" lon="-3.237678"><ele>710</ele><time>2019-10-02T14:13:00Z</time><name>PT12086</name></trkpt>
<trkpt lat="54.572648" lon="-3.237665"><ele>710</ele><time>2019-10-02T14:13:00Z</time><name>PT12087</name></trkpt>
<trkpt lat="54.572655" lon="-3.237650"><ele>710</ele><time>2019-10-02T14:13:02Z</time><name>PT12088</name></trkpt>
<trkpt lat="54.572663" lon="-3.237639"><ele>709</ele><time>2019-10-02T14:13:02Z</time><name>PT12089</name></trkpt>
<trkpt lat="54.572670" lon="-3.237627"><ele>709</ele><time>2019-10-02T14:13:04Z</time><name>PT12090</name></trkpt>
<trkpt lat="54.572680" lon="-3.237612"><ele>709</ele><time>2019-10-02T14:13:04Z</time><name>PT12091</name></trkpt>
<trkpt lat="54.572689" lon="-3.237601"><ele>708</ele><time>2019-10-02T14:13:06Z</time><name>PT12092</name></trkpt>
<trkpt lat="54.572697" lon="-3.237588"><ele>708</ele><time>2019-10-02T14:13:06Z</time><name>PT12093</name></trkpt>
<trkpt lat="54.572705" lon="-3.237579"><ele>707</ele><time>2019-10-02T14:13:08Z</time><name>PT12094</name></trkpt>
<trkpt lat="54.572713" lon="-3.237569"><ele>707</ele><time>2019-10-02T14:13:08Z</time><name>PT12095</name></trkpt>
<trkpt lat="54.572722" lon="-3.237558"><ele>707</ele><time>2019-10-02T14:13:10Z</time><name>PT12096</name></trkpt>
<trkpt lat="54.572731" lon="-3.237552"><ele>706</ele><time>2019-10-02T14:13:10Z</time><name>PT12097</name></trkpt>
<trkpt lat="54.572739" lon="-3.237540"><ele>706</ele><time>2019-10-02T14:13:12Z</time><name>PT12098</name></trkpt>
<trkpt lat="54.572747" lon="-3.237525"><ele>706</ele><time>2019-10-02T14:13:12Z</time><name>PT12099</name></trkpt>
<trkpt lat="54.572754" lon="-3.237512"><ele>706</ele><time>2019-10-02T14:13:14Z</time><name>PT12100</name></trkpt>
<trkpt lat="54.572760" lon="-3.237499"><ele>705</ele><time>2019-10-02T14:13:14Z</time><name>PT12101</name></trkpt>
<trkpt lat="54.572768" lon="-3.237486"><ele>705</ele><time>2019-10-02T14:13:16Z</time><name>PT12102</name></trkpt>
<trkpt lat="54.572780" lon="-3.237475"><ele>706</ele><time>2019-10-02T14:13:16Z</time><name>PT12103</name></trkpt>
<trkpt lat="54.572789" lon="-3.237468"><ele>706</ele><time>2019-10-02T14:13:18Z</time><name>PT12104</name></trkpt>
<trkpt lat="54.572794" lon="-3.237456"><ele>705</ele><time>2019-10-02T14:13:18Z</time><name>PT12105</name></trkpt>
<trkpt lat="54.572800" lon="-3.237440"><ele>705</ele><time>2019-10-02T14:13:20Z</time><name>PT12106</name></trkpt>
<trkpt lat="54.572807" lon="-3.237424"><ele>704</ele><time>2019-10-02T14:13:20Z</time><name>PT12107</name></trkpt>
<trkpt lat="54.572814" lon="-3.237406"><ele>704</ele><time>2019-10-02T14:13:22Z</time><name>PT12108</name></trkpt>
<trkpt lat="54.572821" lon="-3.237391"><ele>703</ele><time>2019-10-02T14:13:22Z</time><name>PT12109</name></trkpt>
<trkpt lat="54.572825" lon="-3.237373"><ele>703</ele><time>2019-10-02T14:13:24Z</time><name>PT12110</name></trkpt>
<trkpt lat="54.572830" lon="-3.237358"><ele>703</ele><time>2019-10-02T14:13:24Z</time><name>PT12111</name></trkpt>
<trkpt lat="54.572838" lon="-3.237348"><ele>703</ele><time>2019-10-02T14:13:26Z</time><name>PT12112</name></trkpt>
<trkpt lat="54.572844" lon="-3.237336"><ele>703</ele><time>2019-10-02T14:13:26Z</time><name>PT12113</name></trkpt>
<trkpt lat="54.572851" lon="-3.237322"><ele>703</ele><time>2019-10-02T14:13:28Z</time><name>PT12114</name></trkpt>
<trkpt lat="54.572859" lon="-3.237310"><ele>703</ele><time>2019-10-02T14:13:28Z</time><name>PT12115</name></trkpt>
<trkpt lat="54.572863" lon="-3.237295"><ele>702</ele><time>2019-10-02T14:13:30Z</time><name>PT12116</name></trkpt>
<trkpt lat="54.572868" lon="-3.237281"><ele>702</ele><time>2019-10-02T14:13:30Z</time><name>PT12117</name></trkpt>
<trkpt lat="54.572873" lon="-3.237266"><ele>702</ele><time>2019-10-02T14:13:32Z</time><name>PT12118</name></trkpt>
<trkpt lat="54.572876" lon="-3.237248"><ele>702</ele><time>2019-10-02T14:13:32Z</time><name>PT12119</name></trkpt>
<trkpt lat="54.572878" lon="-3.237237"><ele>701</ele><time>2019-10-02T14:13:34Z</time><name>PT12120</name></trkpt>
<trkpt lat="54.572880" lon="-3.237223"><ele>701</ele><time>2019-10-02T14:13:34Z</time><name>PT12121</name></trkpt>
<trkpt lat="54.572881" lon="-3.237210"><ele>701</ele><time>2019-10-02T14:13:36Z</time><name>PT12122</name></trkpt>
<trkpt lat="54.572882" lon="-3.237197"><ele>701</ele><time>2019-10-02T14:13:36Z</time><name>PT12123</name></trkpt>
<trkpt lat="54.572882" lon="-3.237182"><ele>701</ele><time>2019-10-02T14:13:38Z</time><name>PT12124</name></trkpt>
<trkpt lat="54.572880" lon="-3.237167"><ele>701</ele><time>2019-10-02T14:13:38Z</time><name>PT12125</name></trkpt>
<trkpt lat="54.572877" lon="-3.237153"><ele>701</ele><time>2019-10-02T14:13:40Z</time><name>PT12126</name></trkpt>
<trkpt lat="54.572871" lon="-3.237142"><ele>700</ele><time>2019-10-02T14:13:40Z</time><name>PT12127</name></trkpt>
<trkpt lat="54.572864" lon="-3.237136"><ele>700</ele><time>2019-10-02T14:13:42Z</time><name>PT12128</name></trkpt>
<trkpt lat="54.572856" lon="-3.237131"><ele>700</ele><time>2019-10-02T14:13:42Z</time><name>PT12129</name></trkpt>
<trkpt lat="54.572849" lon="-3.237122"><ele>700</ele><time>2019-10-02T14:13:44Z</time><name>PT12130</name></trkpt>
<trkpt lat="54.572843" lon="-3.237108"><ele>700</ele><time>2019-10-02T14:13:44Z</time><name>PT12131</name></trkpt>
<trkpt lat="54.572834" lon="-3.237098"><ele>699</ele><time>2019-10-02T14:13:46Z</time><name>PT12132</name></trkpt>
<trkpt lat="54.572826" lon="-3.237087"><ele>699</ele><time>2019-10-02T14:13:46Z</time><name>PT12133</name></trkpt>
<trkpt lat="54.572818" lon="-3.237081"><ele>699</ele><time>2019-10-02T14:13:48Z</time><name>PT12134</name></trkpt>
<trkpt lat="54.572812" lon="-3.237070"><ele>698</ele><time>2019-10-02T14:13:48Z</time><name>PT12135</name></trkpt>
<trkpt lat="54.572803" lon="-3.237060"><ele>698</ele><time>2019-10-02T14:13:50Z</time><name>PT12136</name></trkpt>
<trkpt lat="54.572796" lon="-3.237048"><ele>699</ele><time>2019-10-02T14:13:50Z</time><name>PT12137</name></trkpt>
<trkpt lat="54.572788" lon="-3.237039"><ele>698</ele><time>2019-10-02T14:13:52Z</time><name>PT12138</name></trkpt>
<trkpt lat="54.572780" lon="-3.237031"><ele>698</ele><time>2019-10-02T14:13:53Z</time><name>PT12139</name></trkpt>
<trkpt lat="54.572773" lon="-3.237020"><ele>698</ele><time>2019-10-02T14:13:54Z</time><name>PT12140</name></trkpt>
<trkpt lat="54.572769" lon="-3.237006"><ele>697</ele><time>2019-10-02T14:13:55Z</time><name>PT12141</name></trkpt>
<trkpt lat="54.572762" lon="-3.236991"><ele>698</ele><time>2019-10-02T14:13:56Z</time><name>PT12142</name></trkpt>
<trkpt lat="54.572757" lon="-3.236979"><ele>698</ele><time>2019-10-02T14:13:57Z</time><name>PT12143</name></trkpt>
<trkpt lat="54.572751" lon="-3.236973"><ele>698</ele><time>2019-10-02T14:13:58Z</time><name>PT12144</name></trkpt>
<trkpt lat="54.572744" lon="-3.236964"><ele>698</ele><time>2019-10-02T14:13:59Z</time><name>PT12145</name></trkpt>
<trkpt lat="54.572738" lon="-3.236957"><ele>698</ele><time>2019-10-02T14:14:00Z</time><name>PT12146</name></trkpt>
<trkpt lat="54.572732" lon="-3.236949"><ele>697</ele><time>2019-10-02T14:14:01Z</time><name>PT12147</name></trkpt>
<trkpt lat="54.572725" lon="-3.236937"><ele>697</ele><time>2019-10-02T14:14:02Z</time><name>PT12148</name></trkpt>
<trkpt lat="54.572719" lon="-3.236923"><ele>696</ele><time>2019-10-02T14:14:03Z</time><name>PT12149</name></trkpt>
<trkpt lat="54.572713" lon="-3.236911"><ele>696</ele><time>2019-10-02T14:14:04Z</time><name>PT12150</name></trkpt>
<trkpt lat="54.572710" lon="-3.236895"><ele>695</ele><time>2019-10-02T14:14:05Z</time><name>PT12151</name></trkpt>
<trkpt lat="54.572707" lon="-3.236882"><ele>695</ele><time>2019-10-02T14:14:06Z</time><name>PT12152</name></trkpt>
<trkpt lat="54.572706" lon="-3.236870"><ele>694</ele><time>2019-10-02T14:14:07Z</time><name>PT12153</name></trkpt>
<trkpt lat="54.572706" lon="-3.236856"><ele>694</ele><time>2019-10-02T14:14:08Z</time><name>PT12154</name></trkpt>
<trkpt lat="54.572709" lon="-3.236842"><ele>694</ele><time>2019-10-02T14:14:09Z</time><name>PT12155</name></trkpt>
<trkpt lat="54.572713" lon="-3.236833"><ele>694</ele><time>2019-10-02T14:14:10Z</time><name>PT12156</name></trkpt>
<trkpt lat="54.572719" lon="-3.236824"><ele>694</ele><time>2019-10-02T14:14:11Z</time><name>PT12157</name></trkpt>
<trkpt lat="54.572724" lon="-3.236811"><ele>693</ele><time>2019-10-02T14:14:12Z</time><name>PT12158</name></trkpt>
<trkpt lat="54.572728" lon="-3.236801"><ele>694</ele><time>2019-10-02T14:14:12Z</time><name>PT12159</name></trkpt>
<trkpt lat="54.572732" lon="-3.236788"><ele>694</ele><time>2019-10-02T14:14:14Z</time><name>PT12160</name></trkpt>
<trkpt lat="54.572742" lon="-3.236775"><ele>693</ele><time>2019-10-02T14:14:14Z</time><name>PT12161</name></trkpt>
<trkpt lat="54.572753" lon="-3.236761"><ele>692</ele><time>2019-10-02T14:14:16Z</time><name>PT12162</name></trkpt>
<trkpt lat="54.572761" lon="-3.236748"><ele>692</ele><time>2019-10-02T14:14:16Z</time><name>PT12163</name></trkpt>
<trkpt lat="54.572770" lon="-3.236736"><ele>692</ele><time>2019-10-02T14:14:18Z</time><name>PT12164</name></trkpt>
<trkpt lat="54.572777" lon="-3.236724"><ele>692</ele><time>2019-10-02T14:14:18Z</time><name>PT12165</name></trkpt>
<trkpt lat="54.572785" lon="-3.236713"><ele>691</ele><time>2019-10-02T14:14:20Z</time><name>PT12166</name></trkpt>
<trkpt lat="54.572793" lon="-3.236704"><ele>691</ele><time>2019-10-02T14:14:20Z</time><name>PT12167</name></trkpt>
<trkpt lat="54.572801" lon="-3.236690"><ele>691</ele><time>2019-10-02T14:14:22Z</time><name>PT12168</name></trkpt>
<trkpt lat="54.572809" lon="-3.236678"><ele>691</ele><time>2019-10-02T14:14:22Z</time><name>PT12169</name></trkpt>
<trkpt lat="54.572816" lon="-3.236664"><ele>691</ele><time>2019-10-02T14:14:24Z</time><name>PT12170</name></trkpt>
<trkpt lat="54.572823" lon="-3.236645"><ele>691</ele><time>2019-10-02T14:14:24Z</time><name>PT12171</name></trkpt>
<trkpt lat="54.572832" lon="-3.236630"><ele>691</ele><time>2019-10-02T14:14:26Z</time><name>PT12172</name></trkpt>
<trkpt lat="54.572841" lon="-3.236618"><ele>691</ele><time>2019-10-02T14:14:26Z</time><name>PT12173</name></trkpt>
<trkpt lat="54.572848" lon="-3.236609"><ele>691</ele><time>2019-10-02T14:14:28Z</time><name>PT12174</name></trkpt>
<trkpt lat="54.572856" lon="-3.236601"><ele>691</ele><time>2019-10-02T14:14:28Z</time><name>PT12175</name></trkpt>
<trkpt lat="54.572868" lon="-3.236596"><ele>691</ele><time>2019-10-02T14:14:30Z</time><name>PT12176</name></trkpt>
<trkpt lat="54.572878" lon="-3.236587"><ele>691</ele><time>2019-10-02T14:14:30Z</time><name>PT12177</name></trkpt>
<trkpt lat="54.572885" lon="-3.236576"><ele>691</ele><time>2019-10-02T14:14:32Z</time><name>PT12178</name></trkpt>
<trkpt lat="54.572894" lon="-3.236565"><ele>690</ele><time>2019-10-02T14:14:32Z</time><name>PT12179</name></trkpt>
<trkpt lat="54.572904" lon="-3.236560"><ele>690</ele><time>2019-10-02T14:14:34Z</time><name>PT12180</name></trkpt>
<trkpt lat="54.572913" lon="-3.236548"><ele>689</ele><time>2019-10-02T14:14:34Z</time><name>PT12181</name></trkpt>
<trkpt lat="54.572922" lon="-3.236540"><ele>689</ele><time>2019-10-02T14:14:36Z</time><name>PT12182</name></trkpt>
<trkpt lat="54.572933" lon="-3.236534"><ele>689</ele><time>2019-10-02T14:14:36Z</time><name>PT12183</name></trkpt>
<trkpt lat="54.572942" lon="-3.236523"><ele>689</ele><time>2019-10-02T14:14:38Z</time><name>PT12184</name></trkpt>
<trkpt lat="54.572951" lon="-3.236513"><ele>689</ele><time>2019-10-02T14:14:38Z</time><name>PT12185</name></trkpt>
<trkpt lat="54.572960" lon="-3.236500"><ele>689</ele><time>2019-10-02T14:14:40Z</time><name>PT12186</name></trkpt>
<trkpt lat="54.572969" lon="-3.236486"><ele>689</ele><time>2019-10-02T14:14:40Z</time><name>PT12187</name></trkpt>
<trkpt lat="54.572978" lon="-3.236475"><ele>687</ele><time>2019-10-02T14:14:42Z</time><name>PT12188</name></trkpt>
<trkpt lat="54.572985" lon="-3.236463"><ele>687</ele><time>2019-10-02T14:14:42Z</time><name>PT12189</name></trkpt>
<trkpt lat="54.572992" lon="-3.236450"><ele>687</ele><time>2019-10-02T14:14:44Z</time><name>PT12190</name></trkpt>
<trkpt lat="54.573000" lon="-3.236435"><ele>687</ele><time>2019-10-02T14:14:44Z</time><name>PT12191</name></trkpt>
<trkpt lat="54.573009" lon="-3.236426"><ele>687</ele><time>2019-10-02T14:14:46Z</time><name>PT12192</name></trkpt>
<trkpt lat="54.573017" lon="-3.236418"><ele>686</ele><time>2019-10-02T14:14:46Z</time><name>PT12193</name></trkpt>
<trkpt lat="54.573023" lon="-3.236405"><ele>686</ele><time>2019-10-02T14:14:48Z</time><name>PT12194</name></trkpt>
<trkpt lat="54.573027" lon="-3.236395"><ele>686</ele><time>2019-10-02T14:14:48Z</time><name>PT12195</name></trkpt>
<trkpt lat="54.573032" lon="-3.236382"><ele>685</ele><time>2019-10-02T14:14:50Z</time><name>PT12196</name></trkpt>
<trkpt lat="54.573035" lon="-3.236365"><ele>685</ele><time>2019-10-02T14:14:50Z</time><name>PT12197</name></trkpt>
<trkpt lat="54.573033" lon="-3.236346"><ele>685</ele><time>2019-10-02T14:14:52Z</time><name>PT12198</name></trkpt>
<trkpt lat="54.573028" lon="-3.236331"><ele>685</ele><time>2019-10-02T14:14:52Z</time><name>PT12199</name></trkpt>
<trkpt lat="54.573021" lon="-3.236319"><ele>685</ele><time>2019-10-02T14:14:54Z</time><name>PT12200</name></trkpt>
<trkpt lat="54.573015" lon="-3.236308"><ele>684</ele><time>2019-10-02T14:14:54Z</time><name>PT12201</name></trkpt>
<trkpt lat="54.573010" lon="-3.236294"><ele>684</ele><time>2019-10-02T14:14:56Z</time><name>PT12202</name></trkpt>
<trkpt lat="54.573004" lon="-3.236283"><ele>684</ele><time>2019-10-02T14:14:56Z</time><name>PT12203</name></trkpt>
<trkpt lat="54.572999" lon="-3.236271"><ele>683</ele><time>2019-10-02T14:14:58Z</time><name>PT12204</name></trkpt>
<trkpt lat="54.572992" lon="-3.236259"><ele>683</ele><time>2019-10-02T14:14:58Z</time><name>PT12205</name></trkpt>
<trkpt lat="54.572986" lon="-3.236243"><ele>683</ele><time>2019-10-02T14:15:00Z</time><name>PT12206</name></trkpt>
<trkpt lat="54.572979" lon="-3.236230"><ele>683</ele><time>2019-10-02T14:15:01Z</time><name>PT12207</name></trkpt>
<trkpt lat="54.572971" lon="-3.236216"><ele>683</ele><time>2019-10-02T14:15:02Z</time><name>PT12208</name></trkpt>
<trkpt lat="54.572963" lon="-3.236204"><ele>682</ele><time>2019-10-02T14:15:03Z</time><name>PT12209</name></trkpt>
<trkpt lat="54.572957" lon="-3.236193"><ele>682</ele><time>2019-10-02T14:15:04Z</time><name>PT12210</name></trkpt>
<trkpt lat="54.572953" lon="-3.236177"><ele>682</ele><time>2019-10-02T14:15:05Z</time><name>PT12211</name></trkpt>
<trkpt lat="54.572948" lon="-3.236164"><ele>682</ele><time>2019-10-02T14:15:06Z</time><name>PT12212</name></trkpt>
<trkpt lat="54.572944" lon="-3.236155"><ele>682</ele><time>2019-10-02T14:15:07Z</time><name>PT12213</name></trkpt>
<trkpt lat="54.572939" lon="-3.236146"><ele>682</ele><time>2019-10-02T14:15:08Z</time><name>PT12214</name></trkpt>
<trkpt lat="54.572935" lon="-3.236134"><ele>682</ele><time>2019-10-02T14:15:09Z</time><name>PT12215</name></trkpt>
<trkpt lat="54.572933" lon="-3.236120"><ele>682</ele><time>2019-10-02T14:15:10Z</time><name>PT12216</name></trkpt>
<trkpt lat="54.572927" lon="-3.236108"><ele>682</ele><time>2019-10-02T14:15:11Z</time><name>PT12217</name></trkpt>
<trkpt lat="54.572921" lon="-3.236094"><ele>681</ele><time>2019-10-02T14:15:12Z</time><name>PT12218</name></trkpt>
<trkpt lat="54.572917" lon="-3.236078"><ele>681</ele><time>2019-10-02T14:15:13Z</time><name>PT12219</name></trkpt>
<trkpt lat="54.572912" lon="-3.236065"><ele>681</ele><time>2019-10-02T14:15:14Z</time><name>PT12220</name></trkpt>
<trkpt lat="54.572904" lon="-3.236053"><ele>681</ele><time>2019-10-02T14:15:14Z</time><name>PT12221</name></trkpt>
<trkpt lat="54.572897" lon="-3.236036"><ele>681</ele><time>2019-10-02T14:15:16Z</time><name>PT12222</name></trkpt>
<trkpt lat="54.572891" lon="-3.236018"><ele>681</ele><time>2019-10-02T14:15:16Z</time><name>PT12223</name></trkpt>
<trkpt lat="54.572891" lon="-3.236003"><ele>681</ele><time>2019-10-02T14:15:18Z</time><name>PT12224</name></trkpt>
<trkpt lat="54.572894" lon="-3.235987"><ele>680</ele><time>2019-10-02T14:15:18Z</time><name>PT12225</name></trkpt>
<trkpt lat="54.572899" lon="-3.235975"><ele>680</ele><time>2019-10-02T14:15:20Z</time><name>PT12226</name></trkpt>
<trkpt lat="54.572908" lon="-3.235964"><ele>680</ele><time>2019-10-02T14:15:20Z</time><name>PT12227</name></trkpt>
<trkpt lat="54.572915" lon="-3.235957"><ele>679</ele><time>2019-10-02T14:15:22Z</time><name>PT12228</name></trkpt>
<trkpt lat="54.572925" lon="-3.235948"><ele>679</ele><time>2019-10-02T14:15:22Z</time><name>PT12229</name></trkpt>
<trkpt lat="54.572938" lon="-3.235937"><ele>678</ele><time>2019-10-02T14:15:24Z</time><name>PT12230</name></trkpt>
<trkpt lat="54.572945" lon="-3.235922"><ele>679</ele><time>2019-10-02T14:15:24Z</time><name>PT12231</name></trkpt>
<trkpt lat="54.572954" lon="-3.235910"><ele>678</ele><time>2019-10-02T14:15:26Z</time><name>PT12232</name></trkpt>
<trkpt lat="54.572965" lon="-3.235899"><ele>678</ele><time>2019-10-02T14:15:26Z</time><name>PT12233</name></trkpt>
<trkpt lat="54.572973" lon="-3.235884"><ele>678</ele><time>2019-10-02T14:15:28Z</time><name>PT12234</name></trkpt>
<trkpt lat="54.572980" lon="-3.235877"><ele>678</ele><time>2019-10-02T14:15:28Z</time><name>PT12235</name></trkpt>
<trkpt lat="54.572988" lon="-3.235869"><ele>677</ele><time>2019-10-02T14:15:30Z</time><name>PT12236</name></trkpt>
<trkpt lat="54.572997" lon="-3.235856"><ele>677</ele><time>2019-10-02T14:15:30Z</time><name>PT12237</name></trkpt>
<trkpt lat="54.573004" lon="-3.235845"><ele>677</ele><time>2019-10-02T14:15:32Z</time><name>PT12238</name></trkpt>
<trkpt lat="54.573013" lon="-3.235837"><ele>677</ele><time>2019-10-02T14:15:32Z</time><name>PT12239</name></trkpt>
<trkpt lat="54.573021" lon="-3.235827"><ele>677</ele><time>2019-10-02T14:15:34Z</time><name>PT12240</name></trkpt>
<trkpt lat="54.573030" lon="-3.235811"><ele>677</ele><time>2019-10-02T14:15:34Z</time><name>PT12241</name></trkpt>
<trkpt lat="54.573037" lon="-3.235798"><ele>676</ele><time>2019-10-02T14:15:36Z</time><name>PT12242</name></trkpt>
<trkpt lat="54.573044" lon="-3.235784"><ele>676</ele><time>2019-10-02T14:15:36Z</time><name>PT12243</name></trkpt>
<trkpt lat="54.573053" lon="-3.235773"><ele>676</ele><time>2019-10-02T14:15:38Z</time><name>PT12244</name></trkpt>
<trkpt lat="54.573062" lon="-3.235764"><ele>676</ele><time>2019-10-02T14:15:38Z</time><name>PT12245</name></trkpt>
<trkpt lat="54.573070" lon="-3.235756"><ele>676</ele><time>2019-10-02T14:15:40Z</time><name>PT12246</name></trkpt>
<trkpt lat="54.573078" lon="-3.235747"><ele>676</ele><time>2019-10-02T14:15:40Z</time><name>PT12247</name></trkpt>
<trkpt lat="54.573086" lon="-3.235738"><ele>675</ele><time>2019-10-02T14:15:42Z</time><name>PT12248</name></trkpt>
<trkpt lat="54.573093" lon="-3.235732"><ele>675</ele><time>2019-10-02T14:15:42Z</time><name>PT12249</name></trkpt>
<trkpt lat="54.573099" lon="-3.235721"><ele>674</ele><time>2019-10-02T14:15:44Z</time><name>PT12250</name></trkpt>
<trkpt lat="54.573105" lon="-3.235712"><ele>673</ele><time>2019-10-02T14:15:44Z</time><name>PT12251</name></trkpt>
<trkpt lat="54.573111" lon="-3.235702"><ele>673</ele><time>2019-10-02T14:15:46Z</time><name>PT12252</name></trkpt>
<trkpt lat="54.573115" lon="-3.235688"><ele>672</ele><time>2019-10-02T14:15:46Z</time><name>PT12253</name></trkpt>
<trkpt lat="54.573118" lon="-3.235675"><ele>672</ele><time>2019-10-02T14:15:48Z</time><name>PT12254</name></trkpt>
<trkpt lat="54.573120" lon="-3.235662"><ele>672</ele><time>2019-10-02T14:15:48Z</time><name>PT12255</name></trkpt>
<trkpt lat="54.573115" lon="-3.235643"><ele>672</ele><time>2019-10-02T14:15:50Z</time><name>PT12256</name></trkpt>
<trkpt lat="54.573109" lon="-3.235635"><ele>671</ele><time>2019-10-02T14:15:50Z</time><name>PT12257</name></trkpt>
<trkpt lat="54.573103" lon="-3.235625"><ele>671</ele><time>2019-10-02T14:15:52Z</time><name>PT12258</name></trkpt>
<trkpt lat="54.573099" lon="-3.235616"><ele>671</ele><time>2019-10-02T14:15:52Z</time><name>PT12259</name></trkpt>
<trkpt lat="54.573094" lon="-3.235606"><ele>671</ele><time>2019-10-02T14:15:54Z</time><name>PT12260</name></trkpt>
<trkpt lat="54.573089" lon="-3.235599"><ele>671</ele><time>2019-10-02T14:15:54Z</time><name>PT12261</name></trkpt>
<trkpt lat="54.573084" lon="-3.235594"><ele>670</ele><time>2019-10-02T14:15:56Z</time><name>PT12262</name></trkpt>
<trkpt lat="54.573078" lon="-3.235588"><ele>670</ele><time>2019-10-02T14:15:56Z</time><name>PT12263</name></trkpt>
<trkpt lat="54.573071" lon="-3.235578"><ele>671</ele><time>2019-10-02T14:15:58Z</time><name>PT12264</name></trkpt>
<trkpt lat="54.573066" lon="-3.235570"><ele>670</ele><time>2019-10-02T14:15:58Z</time><name>PT12265</name></trkpt>
<trkpt lat="54.573060" lon="-3.235561"><ele>670</ele><time>2019-10-02T14:16:00Z</time><name>PT12266</name></trkpt>
<trkpt lat="54.573053" lon="-3.235549"><ele>669</ele><time>2019-10-02T14:16:00Z</time><name>PT12267</name></trkpt>
<trkpt lat="54.573046" lon="-3.235542"><ele>669</ele><time>2019-10-02T14:16:02Z</time><name>PT12268</name></trkpt>
<trkpt lat="54.573040" lon="-3.235533"><ele>669</ele><time>2019-10-02T14:16:02Z</time><name>PT12269</name></trkpt>
<trkpt lat="54.573035" lon="-3.235526"><ele>668</ele><time>2019-10-02T14:16:04Z</time><name>PT12270</name></trkpt>
<trkpt lat="54.573028" lon="-3.235515"><ele>668</ele><time>2019-10-02T14:16:04Z</time><name>PT12271</name></trkpt>
<trkpt lat="54.573021" lon="-3.235505"><ele>668</ele><time>2019-10-02T14:16:06Z</time><name>PT12272</name></trkpt>
<trkpt lat="54.573014" lon="-3.235495"><ele>668</ele><time>2019-10-02T14:16:06Z</time><name>PT12273</name></trkpt>
<trkpt lat="54.573007" lon="-3.235485"><ele>668</ele><time>2019-10-02T14:16:08Z</time><name>PT12274</name></trkpt>
<trkpt lat="54.573000" lon="-3.235474"><ele>668</ele><time>2019-10-02T14:16:08Z</time><name>PT12275</name></trkpt>
<trkpt lat="54.572992" lon="-3.235462"><ele>668</ele><time>2019-10-02T14:16:10Z</time><name>PT12276</name></trkpt>
<trkpt lat="54.572985" lon="-3.235455"><ele>668</ele><time>2019-10-02T14:16:10Z</time><name>PT12277</name></trkpt>
<trkpt lat="54.572980" lon="-3.235445"><ele>668</ele><time>2019-10-02T14:16:12Z</time><name>PT12278</name></trkpt>
<trkpt lat="54.572975" lon="-3.235439"><ele>668</ele><time>2019-10-02T14:16:12Z</time><name>PT12279</name></trkpt>
<trkpt lat="54.572968" lon="-3.235433"><ele>668</ele><time>2019-10-02T14:16:14Z</time><name>PT12280</name></trkpt>
<trkpt lat="54.572962" lon="-3.235425"><ele>668</ele><time>2019-10-02T14:16:15Z</time><name>PT12281</name></trkpt>
<trkpt lat="54.572957" lon="-3.235415"><ele>668</ele><time>2019-10-02T14:16:16Z</time><name>PT12282</name></trkpt>
<trkpt lat="54.572952" lon="-3.235405"><ele>668</ele><time>2019-10-02T14:16:17Z</time><name>PT12283</name></trkpt>
<trkpt lat="54.572946" lon="-3.235397"><ele>666</ele><time>2019-10-02T14:16:18Z</time><name>PT12284</name></trkpt>
<trkpt lat="54.572940" lon="-3.235391"><ele>666</ele><time>2019-10-02T14:16:19Z</time><name>PT12285</name></trkpt>
<trkpt lat="54.572934" lon="-3.235379"><ele>665</ele><time>2019-10-02T14:16:20Z</time><name>PT12286</name></trkpt>
<trkpt lat="54.572929" lon="-3.235364"><ele>665</ele><time>2019-10-02T14:16:21Z</time><name>PT12287</name></trkpt>
<trkpt lat="54.572927" lon="-3.235349"><ele>665</ele><time>2019-10-02T14:16:22Z</time><name>PT12288</name></trkpt>
<trkpt lat="54.572928" lon="-3.235337"><ele>664</ele><time>2019-10-02T14:16:23Z</time><name>PT12289</name></trkpt>
<trkpt lat="54.572929" lon="-3.235324"><ele>664</ele><time>2019-10-02T14:16:24Z</time><name>PT12290</name></trkpt>
<trkpt lat="54.572934" lon="-3.235308"><ele>663</ele><time>2019-10-02T14:16:25Z</time><name>PT12291</name></trkpt>
<trkpt lat="54.572938" lon="-3.235298"><ele>663</ele><time>2019-10-02T14:16:26Z</time><name>PT12292</name></trkpt>
<trkpt lat="54.572941" lon="-3.235287"><ele>663</ele><time>2019-10-02T14:16:27Z</time><name>PT12293</name></trkpt>
<trkpt lat="54.572943" lon="-3.235276"><ele>663</ele><time>2019-10-02T14:16:28Z</time><name>PT12294</name></trkpt>
<trkpt lat="54.572948" lon="-3.235267"><ele>663</ele><time>2019-10-02T14:16:29Z</time><name>PT12295</name></trkpt>
<trkpt lat="54.572953" lon="-3.235257"><ele>662</ele><time>2019-10-02T14:16:30Z</time><name>PT12296</name></trkpt>
<trkpt lat="54.572957" lon="-3.235248"><ele>662</ele><time>2019-10-02T14:16:31Z</time><name>PT12297</name></trkpt>
<trkpt lat="54.572962" lon="-3.235239"><ele>662</ele><time>2019-10-02T14:16:32Z</time><name>PT12298</name></trkpt>
<trkpt lat="54.572969" lon="-3.235229"><ele>662</ele><time>2019-10-02T14:16:33Z</time><name>PT12299</name></trkpt>
<trkpt lat="54.572976" lon="-3.235222"><ele>661</ele><time>2019-10-02T14:16:34Z</time><name>PT12300</name></trkpt>
<trkpt lat="54.572980" lon="-3.235209"><ele>661</ele><time>2019-10-02T14:16:35Z</time><name>PT12301</name></trkpt>
<trkpt lat="54.572985" lon="-3.235197"><ele>661</ele><time>2019-10-02T14:16:36Z</time><name>PT12302</name></trkpt>
<trkpt lat="54.572996" lon="-3.235183"><ele>660</ele><time>2019-10-02T14:16:36Z</time><name>PT12303</name></trkpt>
<trkpt lat="54.573003" lon="-3.235175"><ele>659</ele><time>2019-10-02T14:16:38Z</time><name>PT12304</name></trkpt>
<trkpt lat="54.573010" lon="-3.235168"><ele>658</ele><time>2019-10-02T14:16:38Z</time><name>PT12305</name></trkpt>
<trkpt lat="54.573016" lon="-3.235166"><ele>657</ele><time>2019-10-02T14:16:40Z</time><name>PT12306</name></trkpt>
<trkpt lat="54.573025" lon="-3.235153"><ele>657</ele><time>2019-10-02T14:16:40Z</time><name>PT12307</name></trkpt>
<trkpt lat="54.573033" lon="-3.235138"><ele>657</ele><time>2019-10-02T14:16:42Z</time><name>PT12308</name></trkpt>
<trkpt lat="54.573041" lon="-3.235125"><ele>657</ele><time>2019-10-02T14:16:42Z</time><name>PT12309</name></trkpt>
<trkpt lat="54.573048" lon="-3.235109"><ele>657</ele><time>2019-10-02T14:16:44Z</time><name>PT12310</name></trkpt>
<trkpt lat="54.573055" lon="-3.235096"><ele>657</ele><time>2019-10-02T14:16:44Z</time><name>PT12311</name></trkpt>
<trkpt lat="54.573064" lon="-3.235081"><ele>657</ele><time>2019-10-02T14:16:46Z</time><name>PT12312</name></trkpt>
<trkpt lat="54.573072" lon="-3.235069"><ele>657</ele><time>2019-10-02T14:16:46Z</time><name>PT12313</name></trkpt>
<trkpt lat="54.573080" lon="-3.235060"><ele>657</ele><time>2019-10-02T14:16:48Z</time><name>PT12314</name></trkpt>
<trkpt lat="54.573088" lon="-3.235049"><ele>656</ele><time>2019-10-02T14:16:48Z</time><name>PT12315</name></trkpt>
<trkpt lat="54.573096" lon="-3.235039"><ele>656</ele><time>2019-10-02T14:16:50Z</time><name>PT12316</name></trkpt>
<trkpt lat="54.573106" lon="-3.235025"><ele>656</ele><time>2019-10-02T14:16:50Z</time><name>PT12317</name></trkpt>
<trkpt lat="54.573113" lon="-3.235011"><ele>656</ele><time>2019-10-02T14:16:52Z</time><name>PT12318</name></trkpt>
<trkpt lat="54.573119" lon="-3.234997"><ele>655</ele><time>2019-10-02T14:16:52Z</time><name>PT12319</name></trkpt>
<trkpt lat="54.573124" lon="-3.234981"><ele>655</ele><time>2019-10-02T14:16:54Z</time><name>PT12320</name></trkpt>
<trkpt lat="54.573128" lon="-3.234969"><ele>654</ele><time>2019-10-02T14:16:54Z</time><name>PT12321</name></trkpt>
<trkpt lat="54.573130" lon="-3.234957"><ele>654</ele><time>2019-10-02T14:16:56Z</time><name>PT12322</name></trkpt>
<trkpt lat="54.573132" lon="-3.234948"><ele>654</ele><time>2019-10-02T14:16:56Z</time><name>PT12323</name></trkpt>
<trkpt lat="54.573132" lon="-3.234937"><ele>654</ele><time>2019-10-02T14:16:58Z</time><name>PT12324</name></trkpt>
<trkpt lat="54.573128" lon="-3.234925"><ele>655</ele><time>2019-10-02T14:16:58Z</time><name>PT12325</name></trkpt>
<trkpt lat="54.573122" lon="-3.234913"><ele>655</ele><time>2019-10-02T14:17:00Z</time><name>PT12326</name></trkpt>
<trkpt lat="54.573116" lon="-3.234902"><ele>655</ele><time>2019-10-02T14:17:00Z</time><name>PT12327</name></trkpt>
<trkpt lat="54.573111" lon="-3.234894"><ele>654</ele><time>2019-10-02T14:17:02Z</time><name>PT12328</name></trkpt>
<trkpt lat="54.573104" lon="-3.234889"><ele>654</ele><time>2019-10-02T14:17:02Z</time><name>PT12329</name></trkpt>
<trkpt lat="54.573095" lon="-3.234883"><ele>654</ele><time>2019-10-02T14:17:04Z</time><name>PT12330</name></trkpt>
<trkpt lat="54.573086" lon="-3.234876"><ele>653</ele><time>2019-10-02T14:17:04Z</time><name>PT12331</name></trkpt>
<trkpt lat="54.573076" lon="-3.234868"><ele>653</ele><time>2019-10-02T14:17:06Z</time><name>PT12332</name></trkpt>
<trkpt lat="54.573070" lon="-3.234858"><ele>653</ele><time>2019-10-02T14:17:06Z</time><name>PT12333</name></trkpt>
<trkpt lat="54.573065" lon="-3.234851"><ele>652</ele><time>2019-10-02T14:17:08Z</time><name>PT12334</name></trkpt>
<trkpt lat="54.573059" lon="-3.234846"><ele>652</ele><time>2019-10-02T14:17:08Z</time><name>PT12335</name></trkpt>
<trkpt lat="54.573054" lon="-3.234837"><ele>652</ele><time>2019-10-02T14:17:10Z</time><name>PT12336</name></trkpt>
<trkpt lat="54.573049" lon="-3.234827"><ele>652</ele><time>2019-10-02T14:17:10Z</time><name>PT12337</name></trkpt>
<trkpt lat="54.573042" lon="-3.234819"><ele>652</ele><time>2019-10-02T14:17:12Z</time><name>PT12338</name></trkpt>
<trkpt lat="54.573034" lon="-3.234812"><ele>652</ele><time>2019-10-02T14:17:12Z</time><name>PT12339</name></trkpt>
<trkpt lat="54.573029" lon="-3.234804"><ele>652</ele><time>2019-10-02T14:17:14Z</time><name>PT12340</name></trkpt>
<trkpt lat="54.573025" lon="-3.234796"><ele>651</ele><time>2019-10-02T14:17:14Z</time><name>PT12341</name></trkpt>
<trkpt lat="54.573019" lon="-3.234785"><ele>651</ele><time>2019-10-02T14:17:16Z</time><name>PT12342</name></trkpt>
<trkpt lat="54.573015" lon="-3.234773"><ele>651</ele><time>2019-10-02T14:17:16Z</time><name>PT12343</name></trkpt>
<trkpt lat="54.573011" lon="-3.234761"><ele>651</ele><time>2019-10-02T14:17:18Z</time><name>PT12344</name></trkpt>
<trkpt lat="54.573006" lon="-3.234750"><ele>651</ele><time>2019-10-02T14:17:18Z</time><name>PT12345</name></trkpt>
<trkpt lat="54.573001" lon="-3.234736"><ele>650</ele><time>2019-10-02T14:17:20Z</time><name>PT12346</name></trkpt>
<trkpt lat="54.572998" lon="-3.234725"><ele>650</ele><time>2019-10-02T14:17:20Z</time><name>PT12347</name></trkpt>
<trkpt lat="54.572996" lon="-3.234714"><ele>650</ele><time>2019-10-02T14:17:22Z</time><name>PT12348</name></trkpt>
<trkpt lat="54.572995" lon="-3.234706"><ele>650</ele><time>2019-10-02T14:17:22Z</time><name>PT12349</name></trkpt>
<trkpt lat="54.572996" lon="-3.234694"><ele>650</ele><time>2019-10-02T14:17:24Z</time><name>PT12350</name></trkpt>
<trkpt lat="54.572997" lon="-3.234680"><ele>649</ele><time>2019-10-02T14:17:24Z</time><name>PT12351</name></trkpt>
<trkpt lat="54.573001" lon="-3.234663"><ele>649</ele><time>2019-10-02T14:17:26Z</time><name>PT12352</name></trkpt>
<trkpt lat="54.573004" lon="-3.234652"><ele>649</ele><time>2019-10-02T14:17:26Z</time><name>PT12353</name></trkpt>
<trkpt lat="54.573008" lon="-3.234642"><ele>649</ele><time>2019-10-02T14:17:28Z</time><name>PT12354</name></trkpt>
<trkpt lat="54.573014" lon="-3.234632"><ele>649</ele><time>2019-10-02T14:17:28Z</time><name>PT12355</name></trkpt>
<trkpt lat="54.573020" lon="-3.234622"><ele>648</ele><time>2019-10-02T14:17:30Z</time><name>PT12356</name></trkpt>
<trkpt lat="54.573026" lon="-3.234613"><ele>648</ele><time>2019-10-02T14:17:30Z</time><name>PT12357</name></trkpt>
<trkpt lat="54.573031" lon="-3.234602"><ele>648</ele><time>2019-10-02T14:17:32Z</time><name>PT12358</name></trkpt>
<trkpt lat="54.573036" lon="-3.234591"><ele>648</ele><time>2019-10-02T14:17:32Z</time><name>PT12359</name></trkpt>
<trkpt lat="54.573047" lon="-3.234579"><ele>647</ele><time>2019-10-02T14:17:34Z</time><name>PT12360</name></trkpt>
<trkpt lat="54.573056" lon="-3.234566"><ele>647</ele><time>2019-10-02T14:17:34Z</time><name>PT12361</name></trkpt>
<trkpt lat="54.573065" lon="-3.234551"><ele>646</ele><time>2019-10-02T14:17:36Z</time><name>PT12362</name></trkpt>
<trkpt lat="54.573074" lon="-3.234539"><ele>646</ele><time>2019-10-02T14:17:36Z</time><name>PT12363</name></trkpt>
<trkpt lat="54.573080" lon="-3.234530"><ele>646</ele><time>2019-10-02T14:17:38Z</time><name>PT12364</name></trkpt>
<trkpt lat="54.573087" lon="-3.234521"><ele>646</ele><time>2019-10-02T14:17:38Z</time><name>PT12365</name></trkpt>
<trkpt lat="54.573096" lon="-3.234513"><ele>645</ele><time>2019-10-02T14:17:40Z</time><name>PT12366</name></trkpt>
<trkpt lat="54.573103" lon="-3.234504"><ele>645</ele><time>2019-10-02T14:17:40Z</time><name>PT12367</name></trkpt>
<trkpt lat="54.573111" lon="-3.234490"><ele>645</ele><time>2019-10-02T14:17:42Z</time><name>PT12368</name></trkpt>
<trkpt lat="54.573121" lon="-3.234478"><ele>645</ele><time>2019-10-02T14:17:42Z</time><name>PT12369</name></trkpt>
<trkpt lat="54.573130" lon="-3.234466"><ele>645</ele><time>2019-10-02T14:17:44Z</time><name>PT12370</name></trkpt>
<trkpt lat="54.573138" lon="-3.234458"><ele>645</ele><time>2019-10-02T14:17:45Z</time><name>PT12371</name></trkpt>
<trkpt lat="54.573146" lon="-3.234453"><ele>645</ele><time>2019-10-02T14:17:46Z</time><name>PT12372</name></trkpt>
<trkpt lat="54.573155" lon="-3.234447"><ele>644</ele><time>2019-10-02T14:17:47Z</time><name>PT12373</name></trkpt>
<trkpt lat="54.573165" lon="-3.234438"><ele>644</ele><time>2019-10-02T14:17:48Z</time><name>PT12374</name></trkpt>
<trkpt lat="54.573172" lon="-3.234428"><ele>644</ele><time>2019-10-02T14:17:49Z</time><name>PT12375</name></trkpt>
<trkpt lat="54.573179" lon="-3.234417"><ele>644</ele><time>2019-10-02T14:17:50Z</time><name>PT12376</name></trkpt>
<trkpt lat="54.573187" lon="-3.234404"><ele>644</ele><time>2019-10-02T14:17:51Z</time><name>PT12377</name></trkpt>
<trkpt lat="54.573193" lon="-3.234392"><ele>644</ele><time>2019-10-02T14:17:52Z</time><name>PT12378</name></trkpt>
<trkpt lat="54.573198" lon="-3.234379"><ele>644</ele><time>2019-10-02T14:17:52Z</time><name>PT12379</name></trkpt>
<trkpt lat="54.573205" lon="-3.234370"><ele>644</ele><time>2019-10-02T14:17:54Z</time><name>PT12380</name></trkpt>
<trkpt lat="54.573212" lon="-3.234354"><ele>644</ele><time>2019-10-02T14:17:55Z</time><name>PT12381</name></trkpt>
<trkpt lat="54.573218" lon="-3.234341"><ele>644</ele><time>2019-10-02T14:17:56Z</time><name>PT12382</name></trkpt>
<trkpt lat="54.573218" lon="-3.234324"><ele>643</ele><time>2019-10-02T14:17:57Z</time><name>PT12383</name></trkpt>
<trkpt lat="54.573220" lon="-3.234306"><ele>643</ele><time>2019-10-02T14:17:58Z</time><name>PT12384</name></trkpt>
<trkpt lat="54.573223" lon="-3.234287"><ele>643</ele><time>2019-10-02T14:17:59Z</time><name>PT12385</name></trkpt>
<trkpt lat="54.573227" lon="-3.234271"><ele>643</ele><time>2019-10-02T14:18:00Z</time><name>PT12386</name></trkpt>
<trkpt lat="54.573230" lon="-3.234258"><ele>642</ele><time>2019-10-02T14:18:01Z</time><name>PT12387</name></trkpt>
<trkpt lat="54.573232" lon="-3.234245"><ele>642</ele><time>2019-10-02T14:18:02Z</time><name>PT12388</name></trkpt>
<trkpt lat="54.573233" lon="-3.234235"><ele>642</ele><time>2019-10-02T14:18:02Z</time><name>PT12389</name></trkpt>
<trkpt lat="54.573238" lon="-3.234226"><ele>641</ele><time>2019-10-02T14:18:04Z</time><name>PT12390</name></trkpt>
<trkpt lat="54.573241" lon="-3.234209"><ele>641</ele><time>2019-10-02T14:18:04Z</time><name>PT12391</name></trkpt>
<trkpt lat="54.573242" lon="-3.234193"><ele>641</ele><time>2019-10-02T14:18:06Z</time><name>PT12392</name></trkpt>
<trkpt lat="54.573243" lon="-3.234176"><ele>641</ele><time>2019-10-02T14:18:06Z</time><name>PT12393</name></trkpt>
<trkpt lat="54.573243" lon="-3.234157"><ele>640</ele><time>2019-10-02T14:18:08Z</time><name>PT12394</name></trkpt>
<trkpt lat="54.573243" lon="-3.234134"><ele>640</ele><time>2019-10-02T14:18:08Z</time><name>PT12395</name></trkpt>
<trkpt lat="54.573243" lon="-3.234116"><ele>640</ele><time>2019-10-02T14:18:10Z</time><name>PT12396</name></trkpt>
<trkpt lat="54.573243" lon="-3.234097"><ele>639</ele><time>2019-10-02T14:18:10Z</time><name>PT12397</name></trkpt>
<trkpt lat="54.573241" lon="-3.234079"><ele>639</ele><time>2019-10-02T14:18:12Z</time><name>PT12398</name></trkpt>
<trkpt lat="54.573238" lon="-3.234060"><ele>639</ele><time>2019-10-02T14:18:12Z</time><name>PT12399</name></trkpt>
<trkpt lat="54.573236" lon="-3.234043"><ele>639</ele><time>2019-10-02T14:18:14Z</time><name>PT12400</name></trkpt>
<trkpt lat="54.573234" lon="-3.234025"><ele>639</ele><time>2019-10-02T14:18:14Z</time><name>PT12401</name></trkpt>
<trkpt lat="54.573230" lon="-3.234009"><ele>638</ele><time>2019-10-02T14:18:16Z</time><name>PT12402</name></trkpt>
<trkpt lat="54.573225" lon="-3.233996"><ele>639</ele><time>2019-10-02T14:18:16Z</time><name>PT12403</name></trkpt>
<trkpt lat="54.573222" lon="-3.233980"><ele>639</ele><time>2019-10-02T14:18:18Z</time><name>PT12404</name></trkpt>
<trkpt lat="54.573217" lon="-3.233966"><ele>639</ele><time>2019-10-02T14:18:18Z</time><name>PT12405</name></trkpt>
<trkpt lat="54.573210" lon="-3.233951"><ele>638</ele><time>2019-10-02T14:18:20Z</time><name>PT12406</name></trkpt>
<trkpt lat="54.573203" lon="-3.233937"><ele>638</ele><time>2019-10-02T14:18:20Z</time><name>PT12407</name></trkpt>
<trkpt lat="54.573196" lon="-3.233921"><ele>637</ele><time>2019-10-02T14:18:22Z</time><name>PT12408</name></trkpt>
<trkpt lat="54.573192" lon="-3.233908"><ele>637</ele><time>2019-10-02T14:18:22Z</time><name>PT12409</name></trkpt>
<trkpt lat="54.573187" lon="-3.233894"><ele>637</ele><time>2019-10-02T14:18:24Z</time><name>PT12410</name></trkpt>
<trkpt lat="54.573182" lon="-3.233879"><ele>636</ele><time>2019-10-02T14:18:24Z</time><name>PT12411</name></trkpt>
<trkpt lat="54.573176" lon="-3.233862"><ele>636</ele><time>2019-10-02T14:18:26Z</time><name>PT12412</name></trkpt>
<trkpt lat="54.573173" lon="-3.233849"><ele>635</ele><time>2019-10-02T14:18:26Z</time><name>PT12413</name></trkpt>
<trkpt lat="54.573170" lon="-3.233836"><ele>635</ele><time>2019-10-02T14:18:28Z</time><name>PT12414</name></trkpt>
<trkpt lat="54.573170" lon="-3.233820"><ele>634</ele><time>2019-10-02T14:18:28Z</time><name>PT12415</name></trkpt>
<trkpt lat="54.573166" lon="-3.233805"><ele>634</ele><time>2019-10-02T14:18:30Z</time><name>PT12416</name></trkpt>
<trkpt lat="54.573161" lon="-3.233787"><ele>634</ele><time>2019-10-02T14:18:30Z</time><name>PT12417</name></trkpt>
<trkpt lat="54.573156" lon="-3.233766"><ele>634</ele><time>2019-10-02T14:18:32Z</time><name>PT12418</name></trkpt>
<trkpt lat="54.573151" lon="-3.233745"><ele>633</ele><time>2019-10-02T14:18:32Z</time><name>PT12419</name></trkpt>
<trkpt lat="54.573148" lon="-3.233722"><ele>634</ele><time>2019-10-02T14:18:34Z</time><name>PT12420</name></trkpt>
<trkpt lat="54.573145" lon="-3.233708"><ele>633</ele><time>2019-10-02T14:18:34Z</time><name>PT12421</name></trkpt>
<trkpt lat="54.573144" lon="-3.233692"><ele>633</ele><time>2019-10-02T14:18:36Z</time><name>PT12422</name></trkpt>
<trkpt lat="54.573147" lon="-3.233677"><ele>632</ele><time>2019-10-02T14:18:36Z</time><name>PT12423</name></trkpt>
<trkpt lat="54.573154" lon="-3.233664"><ele>632</ele><time>2019-10-02T14:18:38Z</time><name>PT12424</name></trkpt>
<trkpt lat="54.573159" lon="-3.233651"><ele>631</ele><time>2019-10-02T14:18:38Z</time><name>PT12425</name></trkpt>
<trkpt lat="54.573166" lon="-3.233637"><ele>631</ele><time>2019-10-02T14:18:40Z</time><name>PT12426</name></trkpt>
<trkpt lat="54.573174" lon="-3.233626"><ele>630</ele><time>2019-10-02T14:18:40Z</time><name>PT12427</name></trkpt>
<trkpt lat="54.573181" lon="-3.233605"><ele>631</ele><time>2019-10-02T14:18:42Z</time><name>PT12428</name></trkpt>
<trkpt lat="54.573188" lon="-3.233584"><ele>631</ele><time>2019-10-02T14:18:42Z</time><name>PT12429</name></trkpt>
<trkpt lat="54.573196" lon="-3.233569"><ele>630</ele><time>2019-10-02T14:18:44Z</time><name>PT12430</name></trkpt>
<trkpt lat="54.573201" lon="-3.233555"><ele>630</ele><time>2019-10-02T14:18:44Z</time><name>PT12431</name></trkpt>
<trkpt lat="54.573207" lon="-3.233544"><ele>630</ele><time>2019-10-02T14:18:46Z</time><name>PT12432</name></trkpt>
<trkpt lat="54.573215" lon="-3.233537"><ele>629</ele><time>2019-10-02T14:18:46Z</time><name>PT12433</name></trkpt>
<trkpt lat="54.573221" lon="-3.233524"><ele>629</ele><time>2019-10-02T14:18:48Z</time><name>PT12434</name></trkpt>
<trkpt lat="54.573229" lon="-3.233512"><ele>629</ele><time>2019-10-02T14:18:48Z</time><name>PT12435</name></trkpt>
<trkpt lat="54.573233" lon="-3.233499"><ele>629</ele><time>2019-10-02T14:18:50Z</time><name>PT12436</name></trkpt>
<trkpt lat="54.573237" lon="-3.233485"><ele>629</ele><time>2019-10-02T14:18:50Z</time><name>PT12437</name></trkpt>
<trkpt lat="54.573240" lon="-3.233471"><ele>629</ele><time>2019-10-02T14:18:52Z</time><name>PT12438</name></trkpt>
<trkpt lat="54.573240" lon="-3.233458"><ele>629</ele><time>2019-10-02T14:18:53Z</time><name>PT12439</name></trkpt>
<trkpt lat="54.573237" lon="-3.233446"><ele>629</ele><time>2019-10-02T14:18:54Z</time><name>PT12440</name></trkpt>
<trkpt lat="54.573233" lon="-3.233436"><ele>629</ele><time>2019-10-02T14:18:54Z</time><name>PT12441</name></trkpt>
<trkpt lat="54.573224" lon="-3.233421"><ele>629</ele><time>2019-10-02T14:18:56Z</time><name>PT12442</name></trkpt>
<trkpt lat="54.573218" lon="-3.233407"><ele>629</ele><time>2019-10-02T14:18:56Z</time><name>PT12443</name></trkpt>
<trkpt lat="54.573213" lon="-3.233393"><ele>628</ele><time>2019-10-02T14:18:58Z</time><name>PT12444</name></trkpt>
<trkpt lat="54.573209" lon="-3.233378"><ele>628</ele><time>2019-10-02T14:18:58Z</time><name>PT12445</name></trkpt>
<trkpt lat="54.573203" lon="-3.233368"><ele>629</ele><time>2019-10-02T14:19:00Z</time><name>PT12446</name></trkpt>
<trkpt lat="54.573197" lon="-3.233362"><ele>629</ele><time>2019-10-02T14:19:00Z</time><name>PT12447</name></trkpt>
<trkpt lat="54.573190" lon="-3.233348"><ele>629</ele><time>2019-10-02T14:19:02Z</time><name>PT12448</name></trkpt>
<trkpt lat="54.573184" lon="-3.233334"><ele>628</ele><time>2019-10-02T14:19:02Z</time><name>PT12449</name></trkpt>
<trkpt lat="54.573178" lon="-3.233314"><ele>629</ele><time>2019-10-02T14:19:04Z</time><name>PT12450</name></trkpt>
<trkpt lat="54.573172" lon="-3.233306"><ele>628</ele><time>2019-10-02T14:19:04Z</time><name>PT12451</name></trkpt>
<trkpt lat="54.573167" lon="-3.233296"><ele>628</ele><time>2019-10-02T14:19:06Z</time><name>PT12452</name></trkpt>
<trkpt lat="54.573164" lon="-3.233282"><ele>628</ele><time>2019-10-02T14:19:06Z</time><name>PT12453</name></trkpt>
<trkpt lat="54.573164" lon="-3.233266"><ele>628</ele><time>2019-10-02T14:19:08Z</time><name>PT12454</name></trkpt>
<trkpt lat="54.573163" lon="-3.233248"><ele>628</ele><time>2019-10-02T14:19:08Z</time><name>PT12455</name></trkpt>
<trkpt lat="54.573163" lon="-3.233230"><ele>627</ele><time>2019-10-02T14:19:10Z</time><name>PT12456</name></trkpt>
<trkpt lat="54.573167" lon="-3.233217"><ele>627</ele><time>2019-10-02T14:19:10Z</time><name>PT12457</name></trkpt>
<trkpt lat="54.573169" lon="-3.233209"><ele>628</ele><time>2019-10-02T14:19:12Z</time><name>PT12458</name></trkpt>
<trkpt lat="54.573174" lon="-3.233197"><ele>628</ele><time>2019-10-02T14:19:13Z</time><name>PT12459</name></trkpt>
<trkpt lat="54.573180" lon="-3.233187"><ele>627</ele><time>2019-10-02T14:19:14Z</time><name>PT12460</name></trkpt>
<trkpt lat="54.573187" lon="-3.233174"><ele>627</ele><time>2019-10-02T14:19:14Z</time><name>PT12461</name></trkpt>
<trkpt lat="54.573193" lon="-3.233158"><ele>626</ele><time>2019-10-02T14:19:16Z</time><name>PT12462</name></trkpt>
<trkpt lat="54.573199" lon="-3.233147"><ele>626</ele><time>2019-10-02T14:19:16Z</time><name>PT12463</name></trkpt>
<trkpt lat="54.573206" lon="-3.233139"><ele>626</ele><time>2019-10-02T14:19:18Z</time><name>PT12464</name></trkpt>
<trkpt lat="54.573213" lon="-3.233128"><ele>625</ele><time>2019-10-02T14:19:18Z</time><name>PT12465</name></trkpt>
<trkpt lat="54.573223" lon="-3.233117"><ele>625</ele><time>2019-10-02T14:19:20Z</time><name>PT12466</name></trkpt>
<trkpt lat="54.573232" lon="-3.233110"><ele>625</ele><time>2019-10-02T14:19:20Z</time><name>PT12467</name></trkpt>
<trkpt lat="54.573239" lon="-3.233099"><ele>624</ele><time>2019-10-02T14:19:22Z</time><name>PT12468</name></trkpt>
<trkpt lat="54.573248" lon="-3.233087"><ele>623</ele><time>2019-10-02T14:19:22Z</time><name>PT12469</name></trkpt>
<trkpt lat="54.573255" lon="-3.233071"><ele>623</ele><time>2019-10-02T14:19:24Z</time><name>PT12470</name></trkpt>
<trkpt lat="54.573262" lon="-3.233058"><ele>623</ele><time>2019-10-02T14:19:25Z</time><name>PT12471</name></trkpt>
<trkpt lat="54.573269" lon="-3.233049"><ele>622</ele><time>2019-10-02T14:19:26Z</time><name>PT12472</name></trkpt>
<trkpt lat="54.573273" lon="-3.233036"><ele>622</ele><time>2019-10-02T14:19:27Z</time><name>PT12473</name></trkpt>
<trkpt lat="54.573273" lon="-3.233017"><ele>622</ele><time>2019-10-02T14:19:28Z</time><name>PT12474</name></trkpt>
<trkpt lat="54.573273" lon="-3.232999"><ele>621</ele><time>2019-10-02T14:19:29Z</time><name>PT12475</name></trkpt>
<trkpt lat="54.573273" lon="-3.232986"><ele>621</ele><time>2019-10-02T14:19:30Z</time><name>PT12476</name></trkpt>
<trkpt lat="54.573268" lon="-3.232974"><ele>621</ele><time>2019-10-02T14:19:31Z</time><name>PT12477</name></trkpt>
<trkpt lat="54.573263" lon="-3.232959"><ele>621</ele><time>2019-10-02T14:19:32Z</time><name>PT12478</name></trkpt>
<trkpt lat="54.573257" lon="-3.232945"><ele>621</ele><time>2019-10-02T14:19:33Z</time><name>PT12479</name></trkpt>
<trkpt lat="54.573249" lon="-3.232932"><ele>620</ele><time>2019-10-02T14:19:34Z</time><name>PT12480</name></trkpt>
<trkpt lat="54.573242" lon="-3.232912"><ele>620</ele><time>2019-10-02T14:19:35Z</time><name>PT12481</name></trkpt>
<trkpt lat="54.573234" lon="-3.232892"><ele>620</ele><time>2019-10-02T14:19:36Z</time><name>PT12482</name></trkpt>
<trkpt lat="54.573230" lon="-3.232873"><ele>619</ele><time>2019-10-02T14:19:37Z</time><name>PT12483</name></trkpt>
<trkpt lat="54.573225" lon="-3.232861"><ele>619</ele><time>2019-10-02T14:19:38Z</time><name>PT12484</name></trkpt>
<trkpt lat="54.573225" lon="-3.232843"><ele>619</ele><time>2019-10-02T14:19:39Z</time><name>PT12485</name></trkpt>
<trkpt lat="54.573221" lon="-3.232822"><ele>620</ele><time>2019-10-02T14:19:40Z</time><name>PT12486</name></trkpt>
<trkpt lat="54.573217" lon="-3.232805"><ele>619</ele><time>2019-10-02T14:19:41Z</time><name>PT12487</name></trkpt>
<trkpt lat="54.573214" lon="-3.232785"><ele>619</ele><time>2019-10-02T14:19:42Z</time><name>PT12488</name></trkpt>
<trkpt lat="54.573210" lon="-3.232764"><ele>619</ele><time>2019-10-02T14:19:43Z</time><name>PT12489</name></trkpt>
<trkpt lat="54.573204" lon="-3.232744"><ele>619</ele><time>2019-10-02T14:19:44Z</time><name>PT12490</name></trkpt>
<trkpt lat="54.573198" lon="-3.232724"><ele>620</ele><time>2019-10-02T14:19:45Z</time><name>PT12491</name></trkpt>
<trkpt lat="54.573193" lon="-3.232707"><ele>619</ele><time>2019-10-02T14:19:46Z</time><name>PT12492</name></trkpt>
<trkpt lat="54.573193" lon="-3.232696"><ele>619</ele><time>2019-10-02T14:19:46Z</time><name>PT12493</name></trkpt>
<trkpt lat="54.573189" lon="-3.232677"><ele>618</ele><time>2019-10-02T14:19:48Z</time><name>PT12494</name></trkpt>
<trkpt lat="54.573188" lon="-3.232656"><ele>619</ele><time>2019-10-02T14:19:48Z</time><name>PT12495</name></trkpt>
<trkpt lat="54.573184" lon="-3.232636"><ele>618</ele><time>2019-10-02T14:19:50Z</time><name>PT12496</name></trkpt>
<trkpt lat="54.573183" lon="-3.232616"><ele>618</ele><time>2019-10-02T14:19:50Z</time><name>PT12497</name></trkpt>
<trkpt lat="54.573184" lon="-3.232592"><ele>618</ele><time>2019-10-02T14:19:52Z</time><name>PT12498</name></trkpt>
<trkpt lat="54.573186" lon="-3.232569"><ele>618</ele><time>2019-10-02T14:19:52Z</time><name>PT12499</name></trkpt>
<trkpt lat="54.573188" lon="-3.232548"><ele>618</ele><time>2019-10-02T14:19:54Z</time><name>PT12500</name></trkpt>
<trkpt lat="54.573191" lon="-3.232530"><ele>618</ele><time>2019-10-02T14:19:54Z</time><name>PT12501</name></trkpt>
<trkpt lat="54.573194" lon="-3.232521"><ele>618</ele><time>2019-10-02T14:19:56Z</time><name>PT12502</name></trkpt>
<trkpt lat="54.573197" lon="-3.232508"><ele>618</ele><time>2019-10-02T14:19:56Z</time><name>PT12503</name></trkpt>
<trkpt lat="54.573200" lon="-3.232485"><ele>617</ele><time>2019-10-02T14:19:58Z</time><name>PT12504</name></trkpt>
<trkpt lat="54.573201" lon="-3.232464"><ele>617</ele><time>2019-10-02T14:19:58Z</time><name>PT12505</name></trkpt>
<trkpt lat="54.573203" lon="-3.232444"><ele>617</ele><time>2019-10-02T14:20:00Z</time><name>PT12506</name></trkpt>
<trkpt lat="54.573207" lon="-3.232421"><ele>617</ele><time>2019-10-02T14:20:00Z</time><name>PT12507</name></trkpt>
<trkpt lat="54.573207" lon="-3.232400"><ele>617</ele><time>2019-10-02T14:20:02Z</time><name>PT12508</name></trkpt>
<trkpt lat="54.573207" lon="-3.232380"><ele>617</ele><time>2019-10-02T14:20:02Z</time><name>PT12509</name></trkpt>
<trkpt lat="54.573207" lon="-3.232357"><ele>616</ele><time>2019-10-02T14:20:04Z</time><name>PT12510</name></trkpt>
<trkpt lat="54.573209" lon="-3.232339"><ele>616</ele><time>2019-10-02T14:20:04Z</time><name>PT12511</name></trkpt>
<trkpt lat="54.573211" lon="-3.232326"><ele>616</ele><time>2019-10-02T14:20:06Z</time><name>PT12512</name></trkpt>
<trkpt lat="54.573216" lon="-3.232311"><ele>617</ele><time>2019-10-02T14:20:06Z</time><name>PT12513</name></trkpt>
<trkpt lat="54.573221" lon="-3.232294"><ele>617</ele><time>2019-10-02T14:20:08Z</time><name>PT12514</name></trkpt>
<trkpt lat="54.573227" lon="-3.232277"><ele>617</ele><time>2019-10-02T14:20:08Z</time><name>PT12515</name></trkpt>
<trkpt lat="54.573232" lon="-3.232263"><ele>618</ele><time>2019-10-02T14:20:10Z</time><name>PT12516</name></trkpt>
<trkpt lat="54.573236" lon="-3.232247"><ele>619</ele><time>2019-10-02T14:20:10Z</time><name>PT12517</name></trkpt>
<trkpt lat="54.573242" lon="-3.232231"><ele>619</ele><time>2019-10-02T14:20:12Z</time><name>PT12518</name></trkpt>
<trkpt lat="54.573247" lon="-3.232217"><ele>619</ele><time>2019-10-02T14:20:12Z</time><name>PT12519</name></trkpt>
<trkpt lat="54.573252" lon="-3.232204"><ele>618</ele><time>2019-10-02T14:20:14Z</time><name>PT12520</name></trkpt>
<trkpt lat="54.573255" lon="-3.232188"><ele>619</ele><time>2019-10-02T14:20:14Z</time><name>PT12521</name></trkpt>
<trkpt lat="54.573259" lon="-3.232178"><ele>619</ele><time>2019-10-02T14:20:16Z</time><name>PT12522</name></trkpt>
<trkpt lat="54.573263" lon="-3.232165"><ele>620</ele><time>2019-10-02T14:20:16Z</time><name>PT12523</name></trkpt>
<trkpt lat="54.573265" lon="-3.232152"><ele>619</ele><time>2019-10-02T14:20:18Z</time><name>PT12524</name></trkpt>
<trkpt lat="54.573270" lon="-3.232140"><ele>619</ele><time>2019-10-02T14:20:18Z</time><name>PT12525</name></trkpt>
<trkpt lat="54.573274" lon="-3.232131"><ele>619</ele><time>2019-10-02T14:20:20Z</time><name>PT12526</name></trkpt>
<trkpt lat="54.573278" lon="-3.232118"><ele>620</ele><time>2019-10-02T14:20:20Z</time><name>PT12527</name></trkpt>
<trkpt lat="54.573280" lon="-3.232104"><ele>619</ele><time>2019-10-02T14:20:22Z</time><name>PT12528</name></trkpt>
<trkpt lat="54.573284" lon="-3.232092"><ele>620</ele><time>2019-10-02T14:20:22Z</time><name>PT12529</name></trkpt>
<trkpt lat="54.573287" lon="-3.232078"><ele>620</ele><time>2019-10-02T14:20:24Z</time><name>PT12530</name></trkpt>
<trkpt lat="54.573293" lon="-3.232063"><ele>620</ele><time>2019-10-02T14:20:24Z</time><name>PT12531</name></trkpt>
<trkpt lat="54.573297" lon="-3.232050"><ele>620</ele><time>2019-10-02T14:20:26Z</time><name>PT12532</name></trkpt>
<trkpt lat="54.573301" lon="-3.232041"><ele>621</ele><time>2019-10-02T14:20:26Z</time><name>PT12533</name></trkpt>
<trkpt lat="54.573302" lon="-3.232027"><ele>621</ele><time>2019-10-02T14:20:28Z</time><name>PT12534</name></trkpt>
<trkpt lat="54.573305" lon="-3.232014"><ele>621</ele><time>2019-10-02T14:20:28Z</time><name>PT12535</name></trkpt>
<trkpt lat="54.573308" lon="-3.232004"><ele>622</ele><time>2019-10-02T14:20:30Z</time><name>PT12536</name></trkpt>
<trkpt lat="54.573311" lon="-3.231991"><ele>622</ele><time>2019-10-02T14:20:30Z</time><name>PT12537</name></trkpt>
<trkpt lat="54.573315" lon="-3.231977"><ele>623</ele><time>2019-10-02T14:20:32Z</time><name>PT12538</name></trkpt>
<trkpt lat="54.573319" lon="-3.231963"><ele>622</ele><time>2019-10-02T14:20:32Z</time><name>PT12539</name></trkpt>
<trkpt lat="54.573322" lon="-3.231953"><ele>623</ele><time>2019-10-02T14:20:34Z</time><name>PT12540</name></trkpt>
<trkpt lat="54.573325" lon="-3.231940"><ele>623</ele><time>2019-10-02T14:20:34Z</time><name>PT12541</name></trkpt>
<trkpt lat="54.573324" lon="-3.231926"><ele>623</ele><time>2019-10-02T14:20:36Z</time><name>PT12542</name></trkpt>
<trkpt lat="54.573322" lon="-3.231912"><ele>623</ele><time>2019-10-02T14:20:36Z</time><name>PT12543</name></trkpt>
<trkpt lat="54.573321" lon="-3.231900"><ele>624</ele><time>2019-10-02T14:20:38Z</time><name>PT12544</name></trkpt>
<trkpt lat="54.573318" lon="-3.231889"><ele>624</ele><time>2019-10-02T14:20:38Z</time><name>PT12545</name></trkpt>
<trkpt lat="54.573314" lon="-3.231876"><ele>624</ele><time>2019-10-02T14:20:40Z</time><name>PT12546</name></trkpt>
<trkpt lat="54.573308" lon="-3.231864"><ele>625</ele><time>2019-10-02T14:20:40Z</time><name>PT12547</name></trkpt>
<trkpt lat="54.573305" lon="-3.231851"><ele>625</ele><time>2019-10-02T14:20:42Z</time><name>PT12548</name></trkpt>
<trkpt lat="54.573299" lon="-3.231838"><ele>625</ele><time>2019-10-02T14:20:42Z</time><name>PT12549</name></trkpt>
<trkpt lat="54.573294" lon="-3.231828"><ele>625</ele><time>2019-10-02T14:20:44Z</time><name>PT12550</name></trkpt>
<trkpt lat="54.573291" lon="-3.231816"><ele>625</ele><time>2019-10-02T14:20:45Z</time><name>PT12551</name></trkpt>
<trkpt lat="54.573288" lon="-3.231804"><ele>625</ele><time>2019-10-02T14:20:46Z</time><name>PT12552</name></trkpt>
<trkpt lat="54.573284" lon="-3.231795"><ele>625</ele><time>2019-10-02T14:20:46Z</time><name>PT12553</name></trkpt>
<trkpt lat="54.573278" lon="-3.231786"><ele>625</ele><time>2019-10-02T14:20:48Z</time><name>PT12554</name></trkpt>
<trkpt lat="54.573271" lon="-3.231774"><ele>626</ele><time>2019-10-02T14:20:48Z</time><name>PT12555</name></trkpt>
<trkpt lat="54.573265" lon="-3.231766"><ele>626</ele><time>2019-10-02T14:20:50Z</time><name>PT12556</name></trkpt>
<trkpt lat="54.573259" lon="-3.231755"><ele>627</ele><time>2019-10-02T14:20:50Z</time><name>PT12557</name></trkpt>
<trkpt lat="54.573251" lon="-3.231743"><ele>627</ele><time>2019-10-02T14:20:52Z</time><name>PT12558</name></trkpt>
<trkpt lat="54.573245" lon="-3.231729"><ele>628</ele><time>2019-10-02T14:20:52Z</time><name>PT12559</name></trkpt>
<trkpt lat="54.573243" lon="-3.231717"><ele>628</ele><time>2019-10-02T14:20:54Z</time><name>PT12560</name></trkpt>
<trkpt lat="54.573238" lon="-3.231707"><ele>628</ele><time>2019-10-02T14:20:54Z</time><name>PT12561</name></trkpt>
<trkpt lat="54.573232" lon="-3.231698"><ele>628</ele><time>2019-10-02T14:20:56Z</time><name>PT12562</name></trkpt>
<trkpt lat="54.573229" lon="-3.231686"><ele>628</ele><time>2019-10-02T14:20:56Z</time><name>PT12563</name></trkpt>
<trkpt lat="54.573229" lon="-3.231674"><ele>628</ele><time>2019-10-02T14:20:58Z</time><name>PT12564</name></trkpt>
<trkpt lat="54.573228" lon="-3.231662"><ele>628</ele><time>2019-10-02T14:20:58Z</time><name>PT12565</name></trkpt>
<trkpt lat="54.573232" lon="-3.231652"><ele>629</ele><time>2019-10-02T14:21:00Z</time><name>PT12566</name></trkpt>
<trkpt lat="54.573236" lon="-3.231644"><ele>630</ele><time>2019-10-02T14:21:00Z</time><name>PT12567</name></trkpt>
<trkpt lat="54.573238" lon="-3.231634"><ele>631</ele><time>2019-10-02T14:21:02Z</time><name>PT12568</name></trkpt>
<trkpt lat="54.573244" lon="-3.231626"><ele>630</ele><time>2019-10-02T14:21:02Z</time><name>PT12569</name></trkpt>
<trkpt lat="54.573252" lon="-3.231619"><ele>631</ele><time>2019-10-02T14:21:04Z</time><name>PT12570</name></trkpt>
<trkpt lat="54.573257" lon="-3.231612"><ele>631</ele><time>2019-10-02T14:21:04Z</time><name>PT12571</name></trkpt>
<trkpt lat="54.573264" lon="-3.231606"><ele>631</ele><time>2019-10-02T14:21:06Z</time><name>PT12572</name></trkpt>
<trkpt lat="54.573270" lon="-3.231600"><ele>632</ele><time>2019-10-02T14:21:06Z</time><name>PT12573</name></trkpt>
<trkpt lat="54.573277" lon="-3.231593"><ele>632</ele><time>2019-10-02T14:21:08Z</time><name>PT12574</name></trkpt>
<trkpt lat="54.573284" lon="-3.231587"><ele>632</ele><time>2019-10-02T14:21:08Z</time><name>PT12575</name></trkpt>
<trkpt lat="54.573292" lon="-3.231576"><ele>632</ele><time>2019-10-02T14:21:10Z</time><name>PT12576</name></trkpt>
<trkpt lat="54.573299" lon="-3.231566"><ele>632</ele><time>2019-10-02T14:21:10Z</time><name>PT12577</name></trkpt>
<trkpt lat="54.573302" lon="-3.231558"><ele>633</ele><time>2019-10-02T14:21:12Z</time><name>PT12578</name></trkpt>
<trkpt lat="54.573308" lon="-3.231550"><ele>633</ele><time>2019-10-02T14:21:12Z</time><name>PT12579</name></trkpt>
<trkpt lat="54.573313" lon="-3.231542"><ele>633</ele><time>2019-10-02T14:21:14Z</time><name>PT12580</name></trkpt>
<trkpt lat="54.573318" lon="-3.231534"><ele>633</ele><time>2019-10-02T14:21:14Z</time><name>PT12581</name></trkpt>
<trkpt lat="54.573324" lon="-3.231526"><ele>633</ele><time>2019-10-02T14:21:16Z</time><name>PT12582</name></trkpt>
<trkpt lat="54.573329" lon="-3.231515"><ele>633</ele><time>2019-10-02T14:21:16Z</time><name>PT12583</name></trkpt>
<trkpt lat="54.573337" lon="-3.231504"><ele>633</ele><time>2019-10-02T14:21:18Z</time><name>PT12584</name></trkpt>
<trkpt lat="54.573342" lon="-3.231496"><ele>633</ele><time>2019-10-02T14:21:18Z</time><name>PT12585</name></trkpt>
<trkpt lat="54.573347" lon="-3.231486"><ele>633</ele><time>2019-10-02T14:21:20Z</time><name>PT12586</name></trkpt>
<trkpt lat="54.573353" lon="-3.231473"><ele>633</ele><time>2019-10-02T14:21:20Z</time><name>PT12587</name></trkpt>
<trkpt lat="54.573359" lon="-3.231468"><ele>634</ele><time>2019-10-02T14:21:22Z</time><name>PT12588</name></trkpt>
<trkpt lat="54.573364" lon="-3.231459"><ele>634</ele><time>2019-10-02T14:21:22Z</time><name>PT12589</name></trkpt>
<trkpt lat="54.573368" lon="-3.231450"><ele>634</ele><time>2019-10-02T14:21:24Z</time><name>PT12590</name></trkpt>
<trkpt lat="54.573374" lon="-3.231441"><ele>634</ele><time>2019-10-02T14:21:24Z</time><name>PT12591</name></trkpt>
<trkpt lat="54.573372" lon="-3.231442"><ele>631</ele><time>2019-10-02T14:21:26Z</time><name>PT12592</name></trkpt>
<trkpt lat="54.573378" lon="-3.231434"><ele>631</ele><time>2019-10-02T14:21:26Z</time><name>PT12593</name></trkpt>
<trkpt lat="54.573383" lon="-3.231424"><ele>630</ele><time>2019-10-02T14:21:28Z</time><name>PT12594</name></trkpt>
<trkpt lat="54.573389" lon="-3.231414"><ele>631</ele><time>2019-10-02T14:21:28Z</time><name>PT12595</name></trkpt>
<trkpt lat="54.573394" lon="-3.231405"><ele>631</ele><time>2019-10-02T14:21:30Z</time><name>PT12596</name></trkpt>
<trkpt lat="54.573400" lon="-3.231393"><ele>631</ele><time>2019-10-02T14:21:31Z</time><name>PT12597</name></trkpt>
<trkpt lat="54.573407" lon="-3.231384"><ele>631</ele><time>2019-10-02T14:21:32Z</time><name>PT12598</name></trkpt>
<trkpt lat="54.573412" lon="-3.231372"><ele>631</ele><time>2019-10-02T14:21:33Z</time><name>PT12599</name></trkpt>
<trkpt lat="54.573417" lon="-3.231364"><ele>632</ele><time>2019-10-02T14:21:34Z</time><name>PT12600</name></trkpt>
<trkpt lat="54.573423" lon="-3.231356"><ele>632</ele><time>2019-10-02T14:21:34Z</time><name>PT12601</name></trkpt>
<trkpt lat="54.573430" lon="-3.231349"><ele>632</ele><time>2019-10-02T14:21:36Z</time><name>PT12602</name></trkpt>
<trkpt lat="54.573436" lon="-3.231340"><ele>634</ele><time>2019-10-02T14:21:37Z</time><name>PT12603</name></trkpt>
<trkpt lat="54.573441" lon="-3.231332"><ele>634</ele><time>2019-10-02T14:21:38Z</time><name>PT12604</name></trkpt>
<trkpt lat="54.573443" lon="-3.231325"><ele>633</ele><time>2019-10-02T14:21:38Z</time><name>PT12605</name></trkpt>
<trkpt lat="54.573448" lon="-3.231316"><ele>634</ele><time>2019-10-02T14:21:40Z</time><name>PT12606</name></trkpt>
<trkpt lat="54.573452" lon="-3.231307"><ele>634</ele><time>2019-10-02T14:21:40Z</time><name>PT12607</name></trkpt>
<trkpt lat="54.573457" lon="-3.231299"><ele>634</ele><time>2019-10-02T14:21:42Z</time><name>PT12608</name></trkpt>
<trkpt lat="54.573461" lon="-3.231293"><ele>634</ele><time>2019-10-02T14:21:42Z</time><name>PT12609</name></trkpt>
<trkpt lat="54.573464" lon="-3.231281"><ele>634</ele><time>2019-10-02T14:21:44Z</time><name>PT12610</name></trkpt>
<trkpt lat="54.573470" lon="-3.231273"><ele>635</ele><time>2019-10-02T14:21:44Z</time><name>PT12611</name></trkpt>
<trkpt lat="54.573473" lon="-3.231265"><ele>634</ele><time>2019-10-02T14:21:46Z</time><name>PT12612</name></trkpt>
<trkpt lat="54.573475" lon="-3.231258"><ele>635</ele><time>2019-10-02T14:21:46Z</time><name>PT12613</name></trkpt>
<trkpt lat="54.573480" lon="-3.231251"><ele>635</ele><time>2019-10-02T14:21:48Z</time><name>PT12614</name></trkpt>
<trkpt lat="54.573481" lon="-3.231240"><ele>635</ele><time>2019-10-02T14:21:48Z</time><name>PT12615</name></trkpt>
<trkpt lat="54.573482" lon="-3.231227"><ele>635</ele><time>2019-10-02T14:21:50Z</time><name>PT12616</name></trkpt>
<trkpt lat="54.573483" lon="-3.231217"><ele>635</ele><time>2019-10-02T14:21:50Z</time><name>PT12617</name></trkpt>
<trkpt lat="54.573484" lon="-3.231207"><ele>635</ele><time>2019-10-02T14:21:52Z</time><name>PT12618</name></trkpt>
<trkpt lat="54.573482" lon="-3.231194"><ele>635</ele><time>2019-10-02T14:21:53Z</time><name>PT12619</name></trkpt>
<trkpt lat="54.573479" lon="-3.231181"><ele>636</ele><time>2019-10-02T14:21:54Z</time><name>PT12620</name></trkpt>
<trkpt lat="54.573476" lon="-3.231169"><ele>636</ele><time>2019-10-02T14:21:55Z</time><name>PT12621</name></trkpt>
<trkpt lat="54.573475" lon="-3.231159"><ele>636</ele><time>2019-10-02T14:21:56Z</time><name>PT12622</name></trkpt>
<trkpt lat="54.573472" lon="-3.231149"><ele>636</ele><time>2019-10-02T14:21:57Z</time><name>PT12623</name></trkpt>
<trkpt lat="54.573471" lon="-3.231139"><ele>637</ele><time>2019-10-02T14:21:58Z</time><name>PT12624</name></trkpt>
<trkpt lat="54.573469" lon="-3.231131"><ele>636</ele><time>2019-10-02T14:21:59Z</time><name>PT12625</name></trkpt>
<trkpt lat="54.573465" lon="-3.231123"><ele>637</ele><time>2019-10-02T14:22:00Z</time><name>PT12626</name></trkpt>
<trkpt lat="54.573461" lon="-3.231111"><ele>637</ele><time>2019-10-02T14:22:01Z</time><name>PT12627</name></trkpt>
<trkpt lat="54.573457" lon="-3.231094"><ele>638</ele><time>2019-10-02T14:22:02Z</time><name>PT12628</name></trkpt>
<trkpt lat="54.573456" lon="-3.231083"><ele>638</ele><time>2019-10-02T14:22:02Z</time><name>PT12629</name></trkpt>
<trkpt lat="54.573455" lon="-3.231067"><ele>639</ele><time>2019-10-02T14:22:04Z</time><name>PT12630</name></trkpt>
<trkpt lat="54.573457" lon="-3.231057"><ele>639</ele><time>2019-10-02T14:22:05Z</time><name>PT12631</name></trkpt>
<trkpt lat="54.573460" lon="-3.231048"><ele>639</ele><time>2019-10-02T14:22:06Z</time><name>PT12632</name></trkpt>
<trkpt lat="54.573464" lon="-3.231033"><ele>639</ele><time>2019-10-02T14:22:07Z</time><name>PT12633</name></trkpt>
<trkpt lat="54.573469" lon="-3.231022"><ele>639</ele><time>2019-10-02T14:22:08Z</time><name>PT12634</name></trkpt>
<trkpt lat="54.573474" lon="-3.231012"><ele>639</ele><time>2019-10-02T14:22:09Z</time><name>PT12635</name></trkpt>
<trkpt lat="54.573480" lon="-3.231003"><ele>639</ele><time>2019-10-02T14:22:10Z</time><name>PT12636</name></trkpt>
<trkpt lat="54.573486" lon="-3.230989"><ele>640</ele><time>2019-10-02T14:22:11Z</time><name>PT12637</name></trkpt>
<trkpt lat="54.573493" lon="-3.230980"><ele>640</ele><time>2019-10-02T14:22:12Z</time><name>PT12638</name></trkpt>
<trkpt lat="54.573499" lon="-3.230974"><ele>640</ele><time>2019-10-02T14:22:13Z</time><name>PT12639</name></trkpt>
<trkpt lat="54.573505" lon="-3.230968"><ele>641</ele><time>2019-10-02T14:22:14Z</time><name>PT12640</name></trkpt>
<trkpt lat="54.573509" lon="-3.230959"><ele>641</ele><time>2019-10-02T14:22:15Z</time><name>PT12641</name></trkpt>
<trkpt lat="54.573514" lon="-3.230951"><ele>641</ele><time>2019-10-02T14:22:16Z</time><name>PT12642</name></trkpt>
<trkpt lat="54.573518" lon="-3.230942"><ele>641</ele><time>2019-10-02T14:22:16Z</time><name>PT12643</name></trkpt>
<trkpt lat="54.573524" lon="-3.230935"><ele>641</ele><time>2019-10-02T14:22:18Z</time><name>PT12644</name></trkpt>
<trkpt lat="54.573530" lon="-3.230925"><ele>641</ele><time>2019-10-02T14:22:18Z</time><name>PT12645</name></trkpt>
<trkpt lat="54.573538" lon="-3.230916"><ele>641</ele><time>2019-10-02T14:22:20Z</time><name>PT12646</name></trkpt>
<trkpt lat="54.573544" lon="-3.230909"><ele>642</ele><time>2019-10-02T14:22:20Z</time><name>PT12647</name></trkpt>
<trkpt lat="54.573549" lon="-3.230904"><ele>642</ele><time>2019-10-02T14:22:22Z</time><name>PT12648</name></trkpt>
<trkpt lat="54.573552" lon="-3.230895"><ele>642</ele><time>2019-10-02T14:22:22Z</time><name>PT12649</name></trkpt>
<trkpt lat="54.573553" lon="-3.230894"><ele>642</ele><time>2019-10-02T14:22:24Z</time><name>PT12650</name></trkpt>
<trkpt lat="54.573555" lon="-3.230892"><ele>642</ele><time>2019-10-02T14:22:24Z</time><name>PT12651</name></trkpt>
<trkpt lat="54.573558" lon="-3.230891"><ele>642</ele><time>2019-10-02T14:22:26Z</time><name>PT12652</name></trkpt>
<trkpt lat="54.573560" lon="-3.230892"><ele>643</ele><time>2019-10-02T14:22:26Z</time><name>PT12653</name></trkpt>
<trkpt lat="54.573561" lon="-3.230893"><ele>643</ele><time>2019-10-02T14:22:28Z</time><name>PT12654</name></trkpt>
<trkpt lat="54.573560" lon="-3.230888"><ele>643</ele><time>2019-10-02T14:22:32Z</time><name>PT12655</name></trkpt>
<trkpt lat="54.573565" lon="-3.230876"><ele>644</ele><time>2019-10-02T14:22:32Z</time><name>PT12656</name></trkpt>
<trkpt lat="54.573566" lon="-3.230866"><ele>644</ele><time>2019-10-02T14:22:34Z</time><name>PT12657</name></trkpt>
<trkpt lat="54.573571" lon="-3.230859"><ele>644</ele><time>2019-10-02T14:22:34Z</time><name>PT12658</name></trkpt>
<trkpt lat="54.573574" lon="-3.230852"><ele>644</ele><time>2019-10-02T14:22:36Z</time><name>PT12659</name></trkpt>
<trkpt lat="54.573575" lon="-3.230847"><ele>644</ele><time>2019-10-02T14:22:36Z</time><name>PT12660</name></trkpt>
<trkpt lat="54.573579" lon="-3.230841"><ele>644</ele><time>2019-10-02T14:22:38Z</time><name>PT12661</name></trkpt>
<trkpt lat="54.573586" lon="-3.230831"><ele>645</ele><time>2019-10-02T14:22:38Z</time><name>PT12662</name></trkpt>
<trkpt lat="54.573588" lon="-3.230824"><ele>644</ele><time>2019-10-02T14:22:40Z</time><name>PT12663</name></trkpt>
<trkpt lat="54.573591" lon="-3.230815"><ele>645</ele><time>2019-10-02T14:22:40Z</time><name>PT12664</name></trkpt>
<trkpt lat="54.573595" lon="-3.230800"><ele>645</ele><time>2019-10-02T14:22:42Z</time><name>PT12665</name></trkpt>
<trkpt lat="54.573597" lon="-3.230787"><ele>645</ele><time>2019-10-02T14:22:42Z</time><name>PT12666</name></trkpt>
<trkpt lat="54.573600" lon="-3.230773"><ele>645</ele><time>2019-10-02T14:22:44Z</time><name>PT12667</name></trkpt>
<trkpt lat="54.573602" lon="-3.230759"><ele>645</ele><time>2019-10-02T14:22:44Z</time><name>PT12668</name></trkpt>
<trkpt lat="54.573603" lon="-3.230746"><ele>646</ele><time>2019-10-02T14:22:46Z</time><name>PT12669</name></trkpt>
<trkpt lat="54.573601" lon="-3.230731"><ele>646</ele><time>2019-10-02T14:22:46Z</time><name>PT12670</name></trkpt>
<trkpt lat="54.573601" lon="-3.230713"><ele>645</ele><time>2019-10-02T14:22:48Z</time><name>PT12671</name></trkpt>
<trkpt lat="54.573601" lon="-3.230696"><ele>645</ele><time>2019-10-02T14:22:48Z</time><name>PT12672</name></trkpt>
<trkpt lat="54.573601" lon="-3.230677"><ele>645</ele><time>2019-10-02T14:22:50Z</time><name>PT12673</name></trkpt>
<trkpt lat="54.573600" lon="-3.230655"><ele>645</ele><time>2019-10-02T14:22:50Z</time><name>PT12674</name></trkpt>
<trkpt lat="54.573601" lon="-3.230640"><ele>645</ele><time>2019-10-02T14:22:52Z</time><name>PT12675</name></trkpt>
<trkpt lat="54.573604" lon="-3.230616"><ele>645</ele><time>2019-10-02T14:22:52Z</time><name>PT12676</name></trkpt>
<trkpt lat="54.573607" lon="-3.230597"><ele>645</ele><time>2019-10-02T14:22:54Z</time><name>PT12677</name></trkpt>
<trkpt lat="54.573609" lon="-3.230577"><ele>646</ele><time>2019-10-02T14:22:55Z</time><name>PT12678</name></trkpt>
<trkpt lat="54.573613" lon="-3.230560"><ele>646</ele><time>2019-10-02T14:22:56Z</time><name>PT12679</name></trkpt>
<trkpt lat="54.573616" lon="-3.230545"><ele>646</ele><time>2019-10-02T14:22:56Z</time><name>PT12680</name></trkpt>
<trkpt lat="54.573618" lon="-3.230528"><ele>646</ele><time>2019-10-02T14:22:58Z</time><name>PT12681</name></trkpt>
<trkpt lat="54.573622" lon="-3.230513"><ele>646</ele><time>2019-10-02T14:22:58Z</time><name>PT12682</name></trkpt>
<trkpt lat="54.573625" lon="-3.230497"><ele>646</ele><time>2019-10-02T14:23:00Z</time><name>PT12683</name></trkpt>
<trkpt lat="54.573629" lon="-3.230486"><ele>647</ele><time>2019-10-02T14:23:01Z</time><name>PT12684</name></trkpt>
<trkpt lat="54.573633" lon="-3.230474"><ele>647</ele><time>2019-10-02T14:23:02Z</time><name>PT12685</name></trkpt>
<trkpt lat="54.573632" lon="-3.230460"><ele>647</ele><time>2019-10-02T14:23:03Z</time><name>PT12686</name></trkpt>
<trkpt lat="54.573631" lon="-3.230441"><ele>647</ele><time>2019-10-02T14:23:04Z</time><name>PT12687</name></trkpt>
<trkpt lat="54.573631" lon="-3.230429"><ele>647</ele><time>2019-10-02T14:23:05Z</time><name>PT12688</name></trkpt>
<trkpt lat="54.573631" lon="-3.230412"><ele>647</ele><time>2019-10-02T14:23:06Z</time><name>PT12689</name></trkpt>
<trkpt lat="54.573631" lon="-3.230396"><ele>648</ele><time>2019-10-02T14:23:07Z</time><name>PT12690</name></trkpt>
<trkpt lat="54.573632" lon="-3.230386"><ele>648</ele><time>2019-10-02T14:23:08Z</time><name>PT12691</name></trkpt>
<trkpt lat="54.573634" lon="-3.230375"><ele>647</ele><time>2019-10-02T14:23:09Z</time><name>PT12692</name></trkpt>
<trkpt lat="54.573637" lon="-3.230361"><ele>648</ele><time>2019-10-02T14:23:10Z</time><name>PT12693</name></trkpt>
<trkpt lat="54.573641" lon="-3.230354"><ele>648</ele><time>2019-10-02T14:23:11Z</time><name>PT12694</name></trkpt>
<trkpt lat="54.573647" lon="-3.230346"><ele>648</ele><time>2019-10-02T14:23:12Z</time><name>PT12695</name></trkpt>
<trkpt lat="54.573650" lon="-3.230333"><ele>648</ele><time>2019-10-02T14:23:13Z</time><name>PT12696</name></trkpt>
<trkpt lat="54.573653" lon="-3.230323"><ele>648</ele><time>2019-10-02T14:23:14Z</time><name>PT12697</name></trkpt>
<trkpt lat="54.573657" lon="-3.230309"><ele>648</ele><time>2019-10-02T14:23:15Z</time><name>PT12698</name></trkpt>
<trkpt lat="54.573659" lon="-3.230303"><ele>648</ele><time>2019-10-02T14:23:16Z</time><name>PT12699</name></trkpt>
<trkpt lat="54.573661" lon="-3.230293"><ele>648</ele><time>2019-10-02T14:23:17Z</time><name>PT12700</name></trkpt>
<trkpt lat="54.573663" lon="-3.230284"><ele>649</ele><time>2019-10-02T14:23:18Z</time><name>PT12701</name></trkpt>
<trkpt lat="54.573665" lon="-3.230269"><ele>649</ele><time>2019-10-02T14:23:19Z</time><name>PT12702</name></trkpt>
<trkpt lat="54.573667" lon="-3.230259"><ele>649</ele><time>2019-10-02T14:23:20Z</time><name>PT12703</name></trkpt>
<trkpt lat="54.573669" lon="-3.230247"><ele>649</ele><time>2019-10-02T14:23:20Z</time><name>PT12704</name></trkpt>
<trkpt lat="54.573671" lon="-3.230234"><ele>649</ele><time>2019-10-02T14:23:22Z</time><name>PT12705</name></trkpt>
<trkpt lat="54.573674" lon="-3.230220"><ele>649</ele><time>2019-10-02T14:23:22Z</time><name>PT12706</name></trkpt>
<trkpt lat="54.573678" lon="-3.230208"><ele>649</ele><time>2019-10-02T14:23:24Z</time><name>PT12707</name></trkpt>
<trkpt lat="54.573680" lon="-3.230195"><ele>650</ele><time>2019-10-02T14:23:24Z</time><name>PT12708</name></trkpt>
<trkpt lat="54.573683" lon="-3.230188"><ele>650</ele><time>2019-10-02T14:23:26Z</time><name>PT12709</name></trkpt>
<trkpt lat="54.573686" lon="-3.230175"><ele>650</ele><time>2019-10-02T14:23:26Z</time><name>PT12710</name></trkpt>
<trkpt lat="54.573690" lon="-3.230165"><ele>651</ele><time>2019-10-02T14:23:28Z</time><name>PT12711</name></trkpt>
<trkpt lat="54.573694" lon="-3.230151"><ele>651</ele><time>2019-10-02T14:23:28Z</time><name>PT12712</name></trkpt>
<trkpt lat="54.573698" lon="-3.230146"><ele>650</ele><time>2019-10-02T14:23:30Z</time><name>PT12713</name></trkpt>
<trkpt lat="54.573701" lon="-3.230132"><ele>651</ele><time>2019-10-02T14:23:30Z</time><name>PT12714</name></trkpt>
<trkpt lat="54.573703" lon="-3.230115"><ele>652</ele><time>2019-10-02T14:23:32Z</time><name>PT12715</name></trkpt>
<trkpt lat="54.573704" lon="-3.230100"><ele>652</ele><time>2019-10-02T14:23:32Z</time><name>PT12716</name></trkpt>
<trkpt lat="54.573705" lon="-3.230090"><ele>652</ele><time>2019-10-02T14:23:34Z</time><name>PT12717</name></trkpt>
<trkpt lat="54.573709" lon="-3.230084"><ele>652</ele><time>2019-10-02T14:23:34Z</time><name>PT12718</name></trkpt>
<trkpt lat="54.573709" lon="-3.230075"><ele>653</ele><time>2019-10-02T14:23:36Z</time><name>PT12719</name></trkpt>
<trkpt lat="54.573707" lon="-3.230066"><ele>653</ele><time>2019-10-02T14:23:36Z</time><name>PT12720</name></trkpt>
<trkpt lat="54.573708" lon="-3.230053"><ele>654</ele><time>2019-10-02T14:23:38Z</time><name>PT12721</name></trkpt>
<trkpt lat="54.573709" lon="-3.230041"><ele>653</ele><time>2019-10-02T14:23:38Z</time><name>PT12722</name></trkpt>
<trkpt lat="54.573711" lon="-3.230031"><ele>654</ele><time>2019-10-02T14:23:40Z</time><name>PT12723</name></trkpt>
<trkpt lat="54.573713" lon="-3.230018"><ele>654</ele><time>2019-10-02T14:23:40Z</time><name>PT12724</name></trkpt>
<trkpt lat="54.573715" lon="-3.230005"><ele>655</ele><time>2019-10-02T14:23:42Z</time><name>PT12725</name></trkpt>
<trkpt lat="54.573717" lon="-3.229989"><ele>655</ele><time>2019-10-02T14:23:42Z</time><name>PT12726</name></trkpt>
<trkpt lat="54.573719" lon="-3.229975"><ele>655</ele><time>2019-10-02T14:23:44Z</time><name>PT12727</name></trkpt>
<trkpt lat="54.573723" lon="-3.229960"><ele>655</ele><time>2019-10-02T14:23:44Z</time><name>PT12728</name></trkpt>
<trkpt lat="54.573725" lon="-3.229946"><ele>655</ele><time>2019-10-02T14:23:46Z</time><name>PT12729</name></trkpt>
<trkpt lat="54.573728" lon="-3.229932"><ele>656</ele><time>2019-10-02T14:23:46Z</time><name>PT12730</name></trkpt>
<trkpt lat="54.573732" lon="-3.229918"><ele>656</ele><time>2019-10-02T14:23:48Z</time><name>PT12731</name></trkpt>
<trkpt lat="54.573736" lon="-3.229907"><ele>656</ele><time>2019-10-02T14:23:48Z</time><name>PT12732</name></trkpt>
<trkpt lat="54.573739" lon="-3.229891"><ele>656</ele><time>2019-10-02T14:23:50Z</time><name>PT12733</name></trkpt>
<trkpt lat="54.573743" lon="-3.229878"><ele>657</ele><time>2019-10-02T14:23:50Z</time><name>PT12734</name></trkpt>
<trkpt lat="54.573746" lon="-3.229866"><ele>657</ele><time>2019-10-02T14:23:52Z</time><name>PT12735</name></trkpt>
<trkpt lat="54.573750" lon="-3.229856"><ele>657</ele><time>2019-10-02T14:23:52Z</time><name>PT12736</name></trkpt>
<trkpt lat="54.573751" lon="-3.229845"><ele>656</ele><time>2019-10-02T14:23:54Z</time><name>PT12737</name></trkpt>
<trkpt lat="54.573753" lon="-3.229833"><ele>657</ele><time>2019-10-02T14:23:54Z</time><name>PT12738</name></trkpt>
<trkpt lat="54.573757" lon="-3.229821"><ele>657</ele><time>2019-10-02T14:23:56Z</time><name>PT12739</name></trkpt>
<trkpt lat="54.573758" lon="-3.229807"><ele>656</ele><time>2019-10-02T14:23:56Z</time><name>PT12740</name></trkpt>
<trkpt lat="54.573761" lon="-3.229791"><ele>656</ele><time>2019-10-02T14:23:58Z</time><name>PT12741</name></trkpt>
<trkpt lat="54.573765" lon="-3.229783"><ele>656</ele><time>2019-10-02T14:23:58Z</time><name>PT12742</name></trkpt>
<trkpt lat="54.573767" lon="-3.229772"><ele>656</ele><time>2019-10-02T14:24:00Z</time><name>PT12743</name></trkpt>
<trkpt lat="54.573772" lon="-3.229755"><ele>655</ele><time>2019-10-02T14:24:00Z</time><name>PT12744</name></trkpt>
<trkpt lat="54.573776" lon="-3.229742"><ele>656</ele><time>2019-10-02T14:24:02Z</time><name>PT12745</name></trkpt>
<trkpt lat="54.573779" lon="-3.229729"><ele>655</ele><time>2019-10-02T14:24:02Z</time><name>PT12746</name></trkpt>
<trkpt lat="54.573785" lon="-3.229714"><ele>656</ele><time>2019-10-02T14:24:04Z</time><name>PT12747</name></trkpt>
<trkpt lat="54.573790" lon="-3.229695"><ele>656</ele><time>2019-10-02T14:24:04Z</time><name>PT12748</name></trkpt>
<trkpt lat="54.573794" lon="-3.229682"><ele>656</ele><time>2019-10-02T14:24:06Z</time><name>PT12749</name></trkpt>
<trkpt lat="54.573797" lon="-3.229669"><ele>656</ele><time>2019-10-02T14:24:06Z</time><name>PT12750</name></trkpt>
<trkpt lat="54.573800" lon="-3.229654"><ele>656</ele><time>2019-10-02T14:24:08Z</time><name>PT12751</name></trkpt>
<trkpt lat="54.573804" lon="-3.229636"><ele>657</ele><time>2019-10-02T14:24:08Z</time><name>PT12752</name></trkpt>
<trkpt lat="54.573805" lon="-3.229621"><ele>656</ele><time>2019-10-02T14:24:10Z</time><name>PT12753</name></trkpt>
<trkpt lat="54.573809" lon="-3.229605"><ele>657</ele><time>2019-10-02T14:24:10Z</time><name>PT12754</name></trkpt>
<trkpt lat="54.573812" lon="-3.229587"><ele>657</ele><time>2019-10-02T14:24:12Z</time><name>PT12755</name></trkpt>
<trkpt lat="54.573816" lon="-3.229572"><ele>657</ele><time>2019-10-02T14:24:12Z</time><name>PT12756</name></trkpt>
<trkpt lat="54.573818" lon="-3.229558"><ele>657</ele><time>2019-10-02T14:24:14Z</time><name>PT12757</name></trkpt>
<trkpt lat="54.573824" lon="-3.229544"><ele>657</ele><time>2019-10-02T14:24:14Z</time><name>PT12758</name></trkpt>
<trkpt lat="54.573829" lon="-3.229530"><ele>657</ele><time>2019-10-02T14:24:16Z</time><name>PT12759</name></trkpt>
<trkpt lat="54.573835" lon="-3.229516"><ele>658</ele><time>2019-10-02T14:24:16Z</time><name>PT12760</name></trkpt>
<trkpt lat="54.573840" lon="-3.229501"><ele>658</ele><time>2019-10-02T14:24:18Z</time><name>PT12761</name></trkpt>
<trkpt lat="54.573847" lon="-3.229490"><ele>658</ele><time>2019-10-02T14:24:18Z</time><name>PT12762</name></trkpt>
<trkpt lat="54.573853" lon="-3.229475"><ele>658</ele><time>2019-10-02T14:24:20Z</time><name>PT12763</name></trkpt>
<trkpt lat="54.573857" lon="-3.229466"><ele>659</ele><time>2019-10-02T14:24:20Z</time><name>PT12764</name></trkpt>
<trkpt lat="54.573861" lon="-3.229456"><ele>658</ele><time>2019-10-02T14:24:22Z</time><name>PT12765</name></trkpt>
<trkpt lat="54.573867" lon="-3.229442"><ele>659</ele><time>2019-10-02T14:24:23Z</time><name>PT12766</name></trkpt>
<trkpt lat="54.573871" lon="-3.229428"><ele>659</ele><time>2019-10-02T14:24:24Z</time><name>PT12767</name></trkpt>
<trkpt lat="54.573874" lon="-3.229416"><ele>659</ele><time>2019-10-02T14:24:25Z</time><name>PT12768</name></trkpt>
<trkpt lat="54.573879" lon="-3.229403"><ele>659</ele><time>2019-10-02T14:24:26Z</time><name>PT12769</name></trkpt>
<trkpt lat="54.573884" lon="-3.229389"><ele>660</ele><time>2019-10-02T14:24:27Z</time><name>PT12770</name></trkpt>
<trkpt lat="54.573890" lon="-3.229376"><ele>660</ele><time>2019-10-02T14:24:28Z</time><name>PT12771</name></trkpt>
<trkpt lat="54.573896" lon="-3.229366"><ele>660</ele><time>2019-10-02T14:24:29Z</time><name>PT12772</name></trkpt>
<trkpt lat="54.573900" lon="-3.229355"><ele>661</ele><time>2019-10-02T14:24:30Z</time><name>PT12773</name></trkpt>
<trkpt lat="54.573905" lon="-3.229341"><ele>661</ele><time>2019-10-02T14:24:31Z</time><name>PT12774</name></trkpt>
<trkpt lat="54.573910" lon="-3.229328"><ele>661</ele><time>2019-10-02T14:24:32Z</time><name>PT12775</name></trkpt>
<trkpt lat="54.573917" lon="-3.229317"><ele>662</ele><time>2019-10-02T14:24:33Z</time><name>PT12776</name></trkpt>
<trkpt lat="54.573921" lon="-3.229303"><ele>662</ele><time>2019-10-02T14:24:34Z</time><name>PT12777</name></trkpt>
<trkpt lat="54.573927" lon="-3.229292"><ele>662</ele><time>2019-10-02T14:24:35Z</time><name>PT12778</name></trkpt>
<trkpt lat="54.573933" lon="-3.229282"><ele>662</ele><time>2019-10-02T14:24:36Z</time><name>PT12779</name></trkpt>
<trkpt lat="54.573936" lon="-3.229270"><ele>662</ele><time>2019-10-02T14:24:37Z</time><name>PT12780</name></trkpt>
<trkpt lat="54.573938" lon="-3.229254"><ele>662</ele><time>2019-10-02T14:24:38Z</time><name>PT12781</name></trkpt>
<trkpt lat="54.573942" lon="-3.229239"><ele>662</ele><time>2019-10-02T14:24:39Z</time><name>PT12782</name></trkpt>
<trkpt lat="54.573945" lon="-3.229222"><ele>663</ele><time>2019-10-02T14:24:40Z</time><name>PT12783</name></trkpt>
<trkpt lat="54.573949" lon="-3.229206"><ele>663</ele><time>2019-10-02T14:24:41Z</time><name>PT12784</name></trkpt>
<trkpt lat="54.573951" lon="-3.229185"><ele>662</ele><time>2019-10-02T14:24:42Z</time><name>PT12785</name></trkpt>
<trkpt lat="54.573950" lon="-3.229177"><ele>662</ele><time>2019-10-02T14:24:42Z</time><name>PT12786</name></trkpt>
<trkpt lat="54.573955" lon="-3.229168"><ele>662</ele><time>2019-10-02T14:24:44Z</time><name>PT12787</name></trkpt>
<trkpt lat="54.573958" lon="-3.229164"><ele>662</ele><time>2019-10-02T14:24:44Z</time><name>PT12788</name></trkpt>
<trkpt lat="54.573958" lon="-3.229164"><ele>662</ele><time>2019-10-02T14:24:46Z</time><name>PT12789</name></trkpt>
<trkpt lat="54.573959" lon="-3.229162"><ele>662</ele><time>2019-10-02T14:24:46Z</time><name>PT12790</name></trkpt>
<trkpt lat="54.573961" lon="-3.229164"><ele>661</ele><time>2019-10-02T14:24:50Z</time><name>PT12791</name></trkpt>
<trkpt lat="54.573962" lon="-3.229163"><ele>661</ele><time>2019-10-02T14:24:50Z</time><name>PT12792</name></trkpt>
<trkpt lat="54.573967" lon="-3.229159"><ele>662</ele><time>2019-10-02T14:24:52Z</time><name>PT12793</name></trkpt>
<trkpt lat="54.573967" lon="-3.229157"><ele>662</ele><time>2019-10-02T14:24:52Z</time><name>PT12794</name></trkpt>
<trkpt lat="54.573967" lon="-3.229158"><ele>661</ele><time>2019-10-02T14:24:54Z</time><name>PT12795</name></trkpt>
<trkpt lat="54.573969" lon="-3.229152"><ele>661</ele><time>2019-10-02T14:24:56Z</time><name>PT12796</name></trkpt>
<trkpt lat="54.573970" lon="-3.229136"><ele>661</ele><time>2019-10-02T14:24:58Z</time><name>PT12797</name></trkpt>
<trkpt lat="54.573972" lon="-3.229122"><ele>661</ele><time>2019-10-02T14:24:58Z</time><name>PT12798</name></trkpt>
<trkpt lat="54.573974" lon="-3.229106"><ele>661</ele><time>2019-10-02T14:25:00Z</time><name>PT12799</name></trkpt>
<trkpt lat="54.573977" lon="-3.229084"><ele>662</ele><time>2019-10-02T14:25:00Z</time><name>PT12800</name></trkpt>
<trkpt lat="54.573978" lon="-3.229063"><ele>662</ele><time>2019-10-02T14:25:02Z</time><name>PT12801</name></trkpt>
<trkpt lat="54.573982" lon="-3.229041"><ele>662</ele><time>2019-10-02T14:25:02Z</time><name>PT12802</name></trkpt>
<trkpt lat="54.573987" lon="-3.229029"><ele>662</ele><time>2019-10-02T14:25:04Z</time><name>PT12803</name></trkpt>
<trkpt lat="54.573990" lon="-3.229018"><ele>662</ele><time>2019-10-02T14:25:04Z</time><name>PT12804</name></trkpt>
<trkpt lat="54.573997" lon="-3.229004"><ele>662</ele><time>2019-10-02T14:25:06Z</time><name>PT12805</name></trkpt>
<trkpt lat="54.574003" lon="-3.228984"><ele>662</ele><time>2019-10-02T14:25:07Z</time><name>PT12806</name></trkpt>
<trkpt lat="54.574010" lon="-3.228970"><ele>662</ele><time>2019-10-02T14:25:08Z</time><name>PT12807</name></trkpt>
<trkpt lat="54.574018" lon="-3.228959"><ele>662</ele><time>2019-10-02T14:25:09Z</time><name>PT12808</name></trkpt>
<trkpt lat="54.574025" lon="-3.228943"><ele>662</ele><time>2019-10-02T14:25:10Z</time><name>PT12809</name></trkpt>
<trkpt lat="54.574032" lon="-3.228930"><ele>662</ele><time>2019-10-02T14:25:11Z</time><name>PT12810</name></trkpt>
<trkpt lat="54.574039" lon="-3.228913"><ele>662</ele><time>2019-10-02T14:25:12Z</time><name>PT12811</name></trkpt>
<trkpt lat="54.574045" lon="-3.228900"><ele>662</ele><time>2019-10-02T14:25:13Z</time><name>PT12812</name></trkpt>
<trkpt lat="54.574048" lon="-3.228888"><ele>662</ele><time>2019-10-02T14:25:14Z</time><name>PT12813</name></trkpt>
<trkpt lat="54.574052" lon="-3.228873"><ele>662</ele><time>2019-10-02T14:25:14Z</time><name>PT12814</name></trkpt>
<trkpt lat="54.574056" lon="-3.228853"><ele>662</ele><time>2019-10-02T14:25:16Z</time><name>PT12815</name></trkpt>
<trkpt lat="54.574059" lon="-3.228833"><ele>662</ele><time>2019-10-02T14:25:17Z</time><name>PT12816</name></trkpt>
<trkpt lat="54.574061" lon="-3.228817"><ele>662</ele><time>2019-10-02T14:25:18Z</time><name>PT12817</name></trkpt>
<trkpt lat="54.574065" lon="-3.228799"><ele>663</ele><time>2019-10-02T14:25:19Z</time><name>PT12818</name></trkpt>
<trkpt lat="54.574070" lon="-3.228779"><ele>663</ele><time>2019-10-02T14:25:20Z</time><name>PT12819</name></trkpt>
<trkpt lat="54.574074" lon="-3.228761"><ele>663</ele><time>2019-10-02T14:25:21Z</time><name>PT12820</name></trkpt>
<trkpt lat="54.574077" lon="-3.228738"><ele>663</ele><time>2019-10-02T14:25:22Z</time><name>PT12821</name></trkpt>
<trkpt lat="54.574081" lon="-3.228723"><ele>663</ele><time>2019-10-02T14:25:23Z</time><name>PT12822</name></trkpt>
<trkpt lat="54.574086" lon="-3.228709"><ele>664</ele><time>2019-10-02T14:25:24Z</time><name>PT12823</name></trkpt>
<trkpt lat="54.574091" lon="-3.228702"><ele>663</ele><time>2019-10-02T14:25:24Z</time><name>PT12824</name></trkpt>
<trkpt lat="54.574099" lon="-3.228689"><ele>664</ele><time>2019-10-02T14:25:26Z</time><name>PT12825</name></trkpt>
<trkpt lat="54.574101" lon="-3.228683"><ele>663</ele><time>2019-10-02T14:25:26Z</time><name>PT12826</name></trkpt>
<trkpt lat="54.574106" lon="-3.228672"><ele>663</ele><time>2019-10-02T14:25:28Z</time><name>PT12827</name></trkpt>
<trkpt lat="54.574110" lon="-3.228657"><ele>663</ele><time>2019-10-02T14:25:28Z</time><name>PT12828</name></trkpt>
<trkpt lat="54.574111" lon="-3.228635"><ele>663</ele><time>2019-10-02T14:25:30Z</time><name>PT12829</name></trkpt>
<trkpt lat="54.574107" lon="-3.228618"><ele>663</ele><time>2019-10-02T14:25:30Z</time><name>PT12830</name></trkpt>
<trkpt lat="54.574106" lon="-3.228597"><ele>664</ele><time>2019-10-02T14:25:32Z</time><name>PT12831</name></trkpt>
<trkpt lat="54.574104" lon="-3.228577"><ele>664</ele><time>2019-10-02T14:25:32Z</time><name>PT12832</name></trkpt>
<trkpt lat="54.574101" lon="-3.228559"><ele>664</ele><time>2019-10-02T14:25:34Z</time><name>PT12833</name></trkpt>
<trkpt lat="54.574101" lon="-3.228538"><ele>665</ele><time>2019-10-02T14:25:34Z</time><name>PT12834</name></trkpt>
<trkpt lat="54.574107" lon="-3.228516"><ele>665</ele><time>2019-10-02T14:25:36Z</time><name>PT12835</name></trkpt>
<trkpt lat="54.574112" lon="-3.228495"><ele>665</ele><time>2019-10-02T14:25:36Z</time><name>PT12836</name></trkpt>
<trkpt lat="54.574119" lon="-3.228480"><ele>665</ele><time>2019-10-02T14:25:38Z</time><name>PT12837</name></trkpt>
<trkpt lat="54.574128" lon="-3.228464"><ele>665</ele><time>2019-10-02T14:25:38Z</time><name>PT12838</name></trkpt>
<trkpt lat="54.574137" lon="-3.228447"><ele>665</ele><time>2019-10-02T14:25:40Z</time><name>PT12839</name></trkpt>
<trkpt lat="54.574146" lon="-3.228433"><ele>666</ele><time>2019-10-02T14:25:40Z</time><name>PT12840</name></trkpt>
<trkpt lat="54.574156" lon="-3.228416"><ele>666</ele><time>2019-10-02T14:25:42Z</time><name>PT12841</name></trkpt>
<trkpt lat="54.574160" lon="-3.228397"><ele>665</ele><time>2019-10-02T14:25:42Z</time><name>PT12842</name></trkpt>
<trkpt lat="54.574165" lon="-3.228378"><ele>665</ele><time>2019-10-02T14:25:44Z</time><name>PT12843</name></trkpt>
<trkpt lat="54.574171" lon="-3.228362"><ele>665</ele><time>2019-10-02T14:25:44Z</time><name>PT12844</name></trkpt>
<trkpt lat="54.574177" lon="-3.228348"><ele>665</ele><time>2019-10-02T14:25:46Z</time><name>PT12845</name></trkpt>
<trkpt lat="54.574184" lon="-3.228331"><ele>666</ele><time>2019-10-02T14:25:46Z</time><name>PT12846</name></trkpt>
<trkpt lat="54.574190" lon="-3.228318"><ele>666</ele><time>2019-10-02T14:25:48Z</time><name>PT12847</name></trkpt>
<trkpt lat="54.574193" lon="-3.228303"><ele>665</ele><time>2019-10-02T14:25:48Z</time><name>PT12848</name></trkpt>
<trkpt lat="54.574199" lon="-3.228288"><ele>666</ele><time>2019-10-02T14:25:50Z</time><name>PT12849</name></trkpt>
<trkpt lat="54.574203" lon="-3.228273"><ele>666</ele><time>2019-10-02T14:25:50Z</time><name>PT12850</name></trkpt>
<trkpt lat="54.574206" lon="-3.228259"><ele>666</ele><time>2019-10-02T14:25:52Z</time><name>PT12851</name></trkpt>
<trkpt lat="54.574210" lon="-3.228243"><ele>666</ele><time>2019-10-02T14:25:52Z</time><name>PT12852</name></trkpt>
<trkpt lat="54.574216" lon="-3.228225"><ele>666</ele><time>2019-10-02T14:25:54Z</time><name>PT12853</name></trkpt>
<trkpt lat="54.574221" lon="-3.228209"><ele>666</ele><time>2019-10-02T14:25:54Z</time><name>PT12854</name></trkpt>
<trkpt lat="54.574228" lon="-3.228197"><ele>667</ele><time>2019-10-02T14:25:56Z</time><name>PT12855</name></trkpt>
<trkpt lat="54.574233" lon="-3.228180"><ele>667</ele><time>2019-10-02T14:25:56Z</time><name>PT12856</name></trkpt>
<trkpt lat="54.574236" lon="-3.228164"><ele>666</ele><time>2019-10-02T14:25:58Z</time><name>PT12857</name></trkpt>
<trkpt lat="54.574240" lon="-3.228142"><ele>667</ele><time>2019-10-02T14:25:58Z</time><name>PT12858</name></trkpt>
<trkpt lat="54.574241" lon="-3.228124"><ele>667</ele><time>2019-10-02T14:26:00Z</time><name>PT12859</name></trkpt>
<trkpt lat="54.574241" lon="-3.228105"><ele>667</ele><time>2019-10-02T14:26:00Z</time><name>PT12860</name></trkpt>
<trkpt lat="54.574246" lon="-3.228082"><ele>667</ele><time>2019-10-02T14:26:02Z</time><name>PT12861</name></trkpt>
<trkpt lat="54.574249" lon="-3.228067"><ele>666</ele><time>2019-10-02T14:26:03Z</time><name>PT12862</name></trkpt>
<trkpt lat="54.574255" lon="-3.228056"><ele>667</ele><time>2019-10-02T14:26:04Z</time><name>PT12863</name></trkpt>
<trkpt lat="54.574262" lon="-3.228042"><ele>667</ele><time>2019-10-02T14:26:04Z</time><name>PT12864</name></trkpt>
<trkpt lat="54.574269" lon="-3.228027"><ele>667</ele><time>2019-10-02T14:26:06Z</time><name>PT12865</name></trkpt>
<trkpt lat="54.574276" lon="-3.228012"><ele>667</ele><time>2019-10-02T14:26:06Z</time><name>PT12866</name></trkpt>
<trkpt lat="54.574284" lon="-3.227995"><ele>668</ele><time>2019-10-02T14:26:08Z</time><name>PT12867</name></trkpt>
<trkpt lat="54.574292" lon="-3.227976"><ele>668</ele><time>2019-10-02T14:26:08Z</time><name>PT12868</name></trkpt>
<trkpt lat="54.574294" lon="-3.227959"><ele>668</ele><time>2019-10-02T14:26:10Z</time><name>PT12869</name></trkpt>
<trkpt lat="54.574295" lon="-3.227939"><ele>667</ele><time>2019-10-02T14:26:10Z</time><name>PT12870</name></trkpt>
<trkpt lat="54.574296" lon="-3.227917"><ele>668</ele><time>2019-10-02T14:26:12Z</time><name>PT12871</name></trkpt>
<trkpt lat="54.574297" lon="-3.227903"><ele>668</ele><time>2019-10-02T14:26:12Z</time><name>PT12872</name></trkpt>
<trkpt lat="54.574299" lon="-3.227881"><ele>668</ele><time>2019-10-02T14:26:14Z</time><name>PT12873</name></trkpt>
<trkpt lat="54.574301" lon="-3.227865"><ele>668</ele><time>2019-10-02T14:26:14Z</time><name>PT12874</name></trkpt>
<trkpt lat="54.574306" lon="-3.227847"><ele>667</ele><time>2019-10-02T14:26:16Z</time><name>PT12875</name></trkpt>
<trkpt lat="54.574310" lon="-3.227828"><ele>667</ele><time>2019-10-02T14:26:16Z</time><name>PT12876</name></trkpt>
<trkpt lat="54.574317" lon="-3.227805"><ele>667</ele><time>2019-10-02T14:26:18Z</time><name>PT12877</name></trkpt>
<trkpt lat="54.574324" lon="-3.227785"><ele>667</ele><time>2019-10-02T14:26:18Z</time><name>PT12878</name></trkpt>
<trkpt lat="54.574329" lon="-3.227766"><ele>668</ele><time>2019-10-02T14:26:20Z</time><name>PT12879</name></trkpt>
<trkpt lat="54.574333" lon="-3.227747"><ele>667</ele><time>2019-10-02T14:26:20Z</time><name>PT12880</name></trkpt>
<trkpt lat="54.574337" lon="-3.227726"><ele>667</ele><time>2019-10-02T14:26:22Z</time><name>PT12881</name></trkpt>
<trkpt lat="54.574339" lon="-3.227708"><ele>667</ele><time>2019-10-02T14:26:22Z</time><name>PT12882</name></trkpt>
<trkpt lat="54.574344" lon="-3.227689"><ele>668</ele><time>2019-10-02T14:26:24Z</time><name>PT12883</name></trkpt>
<trkpt lat="54.574351" lon="-3.227675"><ele>667</ele><time>2019-10-02T14:26:24Z</time><name>PT12884</name></trkpt>
<trkpt lat="54.574357" lon="-3.227657"><ele>667</ele><time>2019-10-02T14:26:26Z</time><name>PT12885</name></trkpt>
<trkpt lat="54.574368" lon="-3.227642"><ele>667</ele><time>2019-10-02T14:26:26Z</time><name>PT12886</name></trkpt>
<trkpt lat="54.574373" lon="-3.227621"><ele>667</ele><time>2019-10-02T14:26:28Z</time><name>PT12887</name></trkpt>
<trkpt lat="54.574377" lon="-3.227602"><ele>667</ele><time>2019-10-02T14:26:28Z</time><name>PT12888</name></trkpt>
<trkpt lat="54.574382" lon="-3.227585"><ele>667</ele><time>2019-10-02T14:26:30Z</time><name>PT12889</name></trkpt>
<trkpt lat="54.574386" lon="-3.227565"><ele>667</ele><time>2019-10-02T14:26:30Z</time><name>PT12890</name></trkpt>
<trkpt lat="54.574392" lon="-3.227549"><ele>667</ele><time>2019-10-02T14:26:32Z</time><name>PT12891</name></trkpt>
<trkpt lat="54.574397" lon="-3.227529"><ele>667</ele><time>2019-10-02T14:26:32Z</time><name>PT12892</name></trkpt>
<trkpt lat="54.574403" lon="-3.227505"><ele>667</ele><time>2019-10-02T14:26:34Z</time><name>PT12893</name></trkpt>
<trkpt lat="54.574409" lon="-3.227487"><ele>667</ele><time>2019-10-02T14:26:34Z</time><name>PT12894</name></trkpt>
<trkpt lat="54.574416" lon="-3.227469"><ele>667</ele><time>2019-10-02T14:26:36Z</time><name>PT12895</name></trkpt>
<trkpt lat="54.574420" lon="-3.227451"><ele>667</ele><time>2019-10-02T14:26:36Z</time><name>PT12896</name></trkpt>
<trkpt lat="54.574425" lon="-3.227428"><ele>667</ele><time>2019-10-02T14:26:38Z</time><name>PT12897</name></trkpt>
<trkpt lat="54.574429" lon="-3.227408"><ele>666</ele><time>2019-10-02T14:26:38Z</time><name>PT12898</name></trkpt>
<trkpt lat="54.574432" lon="-3.227395"><ele>666</ele><time>2019-10-02T14:26:40Z</time><name>PT12899</name></trkpt>
<trkpt lat="54.574439" lon="-3.227378"><ele>666</ele><time>2019-10-02T14:26:41Z</time><name>PT12900</name></trkpt>
<trkpt lat="54.574444" lon="-3.227361"><ele>666</ele><time>2019-10-02T14:26:42Z</time><name>PT12901</name></trkpt>
<trkpt lat="54.574448" lon="-3.227341"><ele>666</ele><time>2019-10-02T14:26:43Z</time><name>PT12902</name></trkpt>
<trkpt lat="54.574453" lon="-3.227318"><ele>666</ele><time>2019-10-02T14:26:44Z</time><name>PT12903</name></trkpt>
<trkpt lat="54.574457" lon="-3.227299"><ele>666</ele><time>2019-10-02T14:26:45Z</time><name>PT12904</name></trkpt>
<trkpt lat="54.574462" lon="-3.227282"><ele>666</ele><time>2019-10-02T14:26:46Z</time><name>PT12905</name></trkpt>
<trkpt lat="54.574467" lon="-3.227263"><ele>667</ele><time>2019-10-02T14:26:47Z</time><name>PT12906</name></trkpt>
<trkpt lat="54.574470" lon="-3.227242"><ele>666</ele><time>2019-10-02T14:26:48Z</time><name>PT12907</name></trkpt>
<trkpt lat="54.574472" lon="-3.227220"><ele>667</ele><time>2019-10-02T14:26:49Z</time><name>PT12908</name></trkpt>
<trkpt lat="54.574475" lon="-3.227200"><ele>666</ele><time>2019-10-02T14:26:50Z</time><name>PT12909</name></trkpt>
<trkpt lat="54.574480" lon="-3.227182"><ele>667</ele><time>2019-10-02T14:26:51Z</time><name>PT12910</name></trkpt>
<trkpt lat="54.574485" lon="-3.227166"><ele>667</ele><time>2019-10-02T14:26:52Z</time><name>PT12911</name></trkpt>
<trkpt lat="54.574489" lon="-3.227142"><ele>667</ele><time>2019-10-02T14:26:53Z</time><name>PT12912</name></trkpt>
<trkpt lat="54.574490" lon="-3.227121"><ele>667</ele><time>2019-10-02T14:26:54Z</time><name>PT12913</name></trkpt>
<trkpt lat="54.574494" lon="-3.227098"><ele>667</ele><time>2019-10-02T14:26:55Z</time><name>PT12914</name></trkpt>
<trkpt lat="54.574498" lon="-3.227086"><ele>666</ele><time>2019-10-02T14:26:56Z</time><name>PT12915</name></trkpt>
<trkpt lat="54.574503" lon="-3.227076"><ele>666</ele><time>2019-10-02T14:26:57Z</time><name>PT12916</name></trkpt>
<trkpt lat="54.574508" lon="-3.227061"><ele>666</ele><time>2019-10-02T14:26:58Z</time><name>PT12917</name></trkpt>
<trkpt lat="54.574512" lon="-3.227045"><ele>666</ele><time>2019-10-02T14:26:58Z</time><name>PT12918</name></trkpt>
<trkpt lat="54.574516" lon="-3.227022"><ele>667</ele><time>2019-10-02T14:27:00Z</time><name>PT12919</name></trkpt>
<trkpt lat="54.574523" lon="-3.227001"><ele>667</ele><time>2019-10-02T14:27:00Z</time><name>PT12920</name></trkpt>
<trkpt lat="54.574529" lon="-3.226981"><ele>668</ele><time>2019-10-02T14:27:02Z</time><name>PT12921</name></trkpt>
<trkpt lat="54.574534" lon="-3.226962"><ele>668</ele><time>2019-10-02T14:27:02Z</time><name>PT12922</name></trkpt>
<trkpt lat="54.574538" lon="-3.226945"><ele>667</ele><time>2019-10-02T14:27:04Z</time><name>PT12923</name></trkpt>
<trkpt lat="54.574546" lon="-3.226927"><ele>668</ele><time>2019-10-02T14:27:04Z</time><name>PT12924</name></trkpt>
<trkpt lat="54.574553" lon="-3.226911"><ele>668</ele><time>2019-10-02T14:27:06Z</time><name>PT12925</name></trkpt>
<trkpt lat="54.574556" lon="-3.226894"><ele>668</ele><time>2019-10-02T14:27:06Z</time><name>PT12926</name></trkpt>
<trkpt lat="54.574559" lon="-3.226874"><ele>667</ele><time>2019-10-02T14:27:08Z</time><name>PT12927</name></trkpt>
<trkpt lat="54.574566" lon="-3.226855"><ele>667</ele><time>2019-10-02T14:27:08Z</time><name>PT12928</name></trkpt>
<trkpt lat="54.574568" lon="-3.226837"><ele>667</ele><time>2019-10-02T14:27:10Z</time><name>PT12929</name></trkpt>
<trkpt lat="54.574574" lon="-3.226815"><ele>667</ele><time>2019-10-02T14:27:10Z</time><name>PT12930</name></trkpt>
<trkpt lat="54.574581" lon="-3.226790"><ele>667</ele><time>2019-10-02T14:27:12Z</time><name>PT12931</name></trkpt>
<trkpt lat="54.574590" lon="-3.226776"><ele>667</ele><time>2019-10-02T14:27:12Z</time><name>PT12932</name></trkpt>
<trkpt lat="54.574601" lon="-3.226761"><ele>667</ele><time>2019-10-02T14:27:14Z</time><name>PT12933</name></trkpt>
<trkpt lat="54.574611" lon="-3.226743"><ele>667</ele><time>2019-10-02T14:27:14Z</time><name>PT12934</name></trkpt>
<trkpt lat="54.574617" lon="-3.226726"><ele>666</ele><time>2019-10-02T14:27:16Z</time><name>PT12935</name></trkpt>
<trkpt lat="54.574624" lon="-3.226710"><ele>666</ele><time>2019-10-02T14:27:16Z</time><name>PT12936</name></trkpt>
<trkpt lat="54.574632" lon="-3.226697"><ele>666</ele><time>2019-10-02T14:27:18Z</time><name>PT12937</name></trkpt>
<trkpt lat="54.574641" lon="-3.226685"><ele>667</ele><time>2019-10-02T14:27:18Z</time><name>PT12938</name></trkpt>
<trkpt lat="54.574649" lon="-3.226677"><ele>666</ele><time>2019-10-02T14:27:20Z</time><name>PT12939</name></trkpt>
<trkpt lat="54.574655" lon="-3.226663"><ele>666</ele><time>2019-10-02T14:27:20Z</time><name>PT12940</name></trkpt>
<trkpt lat="54.574662" lon="-3.226644"><ele>666</ele><time>2019-10-02T14:27:22Z</time><name>PT12941</name></trkpt>
<trkpt lat="54.574667" lon="-3.226627"><ele>667</ele><time>2019-10-02T14:27:22Z</time><name>PT12942</name></trkpt>
<trkpt lat="54.574671" lon="-3.226609"><ele>667</ele><time>2019-10-02T14:27:24Z</time><name>PT12943</name></trkpt>
<trkpt lat="54.574675" lon="-3.226594"><ele>667</ele><time>2019-10-02T14:27:24Z</time><name>PT12944</name></trkpt>
<trkpt lat="54.574680" lon="-3.226578"><ele>667</ele><time>2019-10-02T14:27:26Z</time><name>PT12945</name></trkpt>
<trkpt lat="54.574686" lon="-3.226558"><ele>667</ele><time>2019-10-02T14:27:26Z</time><name>PT12946</name></trkpt>
<trkpt lat="54.574692" lon="-3.226541"><ele>668</ele><time>2019-10-02T14:27:28Z</time><name>PT12947</name></trkpt>
<trkpt lat="54.574699" lon="-3.226526"><ele>668</ele><time>2019-10-02T14:27:28Z</time><name>PT12948</name></trkpt>
<trkpt lat="54.574707" lon="-3.226507"><ele>668</ele><time>2019-10-02T14:27:30Z</time><name>PT12949</name></trkpt>
<trkpt lat="54.574714" lon="-3.226489"><ele>668</ele><time>2019-10-02T14:27:30Z</time><name>PT12950</name></trkpt>
<trkpt lat="54.574719" lon="-3.226471"><ele>668</ele><time>2019-10-02T14:27:32Z</time><name>PT12951</name></trkpt>
<trkpt lat="54.574726" lon="-3.226452"><ele>668</ele><time>2019-10-02T14:27:32Z</time><name>PT12952</name></trkpt>
<trkpt lat="54.574734" lon="-3.226440"><ele>668</ele><time>2019-10-02T14:27:34Z</time><name>PT12953</name></trkpt>
<trkpt lat="54.574741" lon="-3.226428"><ele>669</ele><time>2019-10-02T14:27:35Z</time><name>PT12954</name></trkpt>
<trkpt lat="54.574749" lon="-3.226410"><ele>669</ele><time>2019-10-02T14:27:36Z</time><name>PT12955</name></trkpt>
<trkpt lat="54.574755" lon="-3.226395"><ele>669</ele><time>2019-10-02T14:27:37Z</time><name>PT12956</name></trkpt>
<trkpt lat="54.574760" lon="-3.226380"><ele>669</ele><time>2019-10-02T14:27:38Z</time><name>PT12957</name></trkpt>
<trkpt lat="54.574764" lon="-3.226366"><ele>669</ele><time>2019-10-02T14:27:39Z</time><name>PT12958</name></trkpt>
<trkpt lat="54.574767" lon="-3.226357"><ele>668</ele><time>2019-10-02T14:27:40Z</time><name>PT12959</name></trkpt>
<trkpt lat="54.574772" lon="-3.226339"><ele>668</ele><time>2019-10-02T14:27:41Z</time><name>PT12960</name></trkpt>
<trkpt lat="54.574780" lon="-3.226319"><ele>668</ele><time>2019-10-02T14:27:42Z</time><name>PT12961</name></trkpt>
<trkpt lat="54.574785" lon="-3.226294"><ele>668</ele><time>2019-10-02T14:27:43Z</time><name>PT12962</name></trkpt>
<trkpt lat="54.574792" lon="-3.226280"><ele>668</ele><time>2019-10-02T14:27:44Z</time><name>PT12963</name></trkpt>
<trkpt lat="54.574799" lon="-3.226265"><ele>668</ele><time>2019-10-02T14:27:45Z</time><name>PT12964</name></trkpt>
<trkpt lat="54.574805" lon="-3.226252"><ele>668</ele><time>2019-10-02T14:27:46Z</time><name>PT12965</name></trkpt>
<trkpt lat="54.574814" lon="-3.226245"><ele>669</ele><time>2019-10-02T14:27:47Z</time><name>PT12966</name></trkpt>
<trkpt lat="54.574821" lon="-3.226231"><ele>669</ele><time>2019-10-02T14:27:48Z</time><name>PT12967</name></trkpt>
<trkpt lat="54.574828" lon="-3.226217"><ele>669</ele><time>2019-10-02T14:27:49Z</time><name>PT12968</name></trkpt>
<trkpt lat="54.574835" lon="-3.226203"><ele>669</ele><time>2019-10-02T14:27:50Z</time><name>PT12969</name></trkpt>
<trkpt lat="54.574842" lon="-3.226191"><ele>669</ele><time>2019-10-02T14:27:51Z</time><name>PT12970</name></trkpt>
<trkpt lat="54.574848" lon="-3.226177"><ele>669</ele><time>2019-10-02T14:27:52Z</time><name>PT12971</name></trkpt>
<trkpt lat="54.574853" lon="-3.226164"><ele>669</ele><time>2019-10-02T14:27:53Z</time><name>PT12972</name></trkpt>
<trkpt lat="54.574859" lon="-3.226150"><ele>669</ele><time>2019-10-02T14:27:54Z</time><name>PT12973</name></trkpt>
<trkpt lat="54.574864" lon="-3.226136"><ele>669</ele><time>2019-10-02T14:27:54Z</time><name>PT12974</name></trkpt>
<trkpt lat="54.574871" lon="-3.226120"><ele>669</ele><time>2019-10-02T14:27:56Z</time><name>PT12975</name></trkpt>
<trkpt lat="54.574879" lon="-3.226108"><ele>669</ele><time>2019-10-02T14:27:56Z</time><name>PT12976</name></trkpt>
<trkpt lat="54.574884" lon="-3.226096"><ele>669</ele><time>2019-10-02T14:27:58Z</time><name>PT12977</name></trkpt>
<trkpt lat="54.574888" lon="-3.226081"><ele>670</ele><time>2019-10-02T14:27:58Z</time><name>PT12978</name></trkpt>
<trkpt lat="54.574891" lon="-3.226066"><ele>670</ele><time>2019-10-02T14:28:00Z</time><name>PT12979</name></trkpt>
<trkpt lat="54.574895" lon="-3.226055"><ele>670</ele><time>2019-10-02T14:28:00Z</time><name>PT12980</name></trkpt>
<trkpt lat="54.574901" lon="-3.226048"><ele>670</ele><time>2019-10-02T14:28:02Z</time><name>PT12981</name></trkpt>
<trkpt lat="54.574908" lon="-3.226039"><ele>670</ele><time>2019-10-02T14:28:02Z</time><name>PT12982</name></trkpt>
<trkpt lat="54.574916" lon="-3.226028"><ele>670</ele><time>2019-10-02T14:28:04Z</time><name>PT12983</name></trkpt>
<trkpt lat="54.574926" lon="-3.226016"><ele>670</ele><time>2019-10-02T14:28:04Z</time><name>PT12984</name></trkpt>
<trkpt lat="54.574932" lon="-3.226008"><ele>670</ele><time>2019-10-02T14:28:06Z</time><name>PT12985</name></trkpt>
<trkpt lat="54.574939" lon="-3.225999"><ele>670</ele><time>2019-10-02T14:28:06Z</time><name>PT12986</name></trkpt>
<trkpt lat="54.574947" lon="-3.225990"><ele>671</ele><time>2019-10-02T14:28:08Z</time><name>PT12987</name></trkpt>
<trkpt lat="54.574951" lon="-3.225978"><ele>670</ele><time>2019-10-02T14:28:08Z</time><name>PT12988</name></trkpt>
<trkpt lat="54.574951" lon="-3.225966"><ele>670</ele><time>2019-10-02T14:28:10Z</time><name>PT12989</name></trkpt>
<trkpt lat="54.574947" lon="-3.225955"><ele>670</ele><time>2019-10-02T14:28:10Z</time><name>PT12990</name></trkpt>
<trkpt lat="54.574942" lon="-3.225948"><ele>670</ele><time>2019-10-02T14:28:12Z</time><name>PT12991</name></trkpt>
<trkpt lat="54.574940" lon="-3.225939"><ele>670</ele><time>2019-10-02T14:28:12Z</time><name>PT12992</name></trkpt>
<trkpt lat="54.574936" lon="-3.225939"><ele>670</ele><time>2019-10-02T14:28:14Z</time><name>PT12993</name></trkpt>
<trkpt lat="54.574939" lon="-3.225931"><ele>671</ele><time>2019-10-02T14:28:14Z</time><name>PT12994</name></trkpt>
<trkpt lat="54.574940" lon="-3.225926"><ele>671</ele><time>2019-10-02T14:28:16Z</time><name>PT12995</name></trkpt>
<trkpt lat="54.574944" lon="-3.225925"><ele>670</ele><time>2019-10-02T14:28:16Z</time><name>PT12996</name></trkpt>
<trkpt lat="54.574940" lon="-3.225922"><ele>671</ele><time>2019-10-02T14:28:18Z</time><name>PT12997</name></trkpt>
<trkpt lat="54.574938" lon="-3.225919"><ele>670</ele><time>2019-10-02T14:28:20Z</time><name>PT12998</name></trkpt>
<trkpt lat="54.574935" lon="-3.225917"><ele>670</ele><time>2019-10-02T14:28:20Z</time><name>PT12999</name></trkpt>
<trkpt lat="54.574931" lon="-3.225910"><ele>670</ele><time>2019-10-02T14:28:22Z</time><name>PT13000</name></trkpt>
<trkpt lat="54.574933" lon="-3.225910"><ele>670</ele><time>2019-10-02T14:28:22Z</time><name>PT13001</name></trkpt>
<trkpt lat="54.574933" lon="-3.225909"><ele>670</ele><time>2019-10-02T14:28:24Z</time><name>PT13002</name></trkpt>
<trkpt lat="54.574928" lon="-3.225909"><ele>670</ele><time>2019-10-02T14:28:24Z</time><name>PT13003</name></trkpt>
<trkpt lat="54.574925" lon="-3.225907"><ele>670</ele><time>2019-10-02T14:28:26Z</time><name>PT13004</name></trkpt>
<trkpt lat="54.574926" lon="-3.225905"><ele>670</ele><time>2019-10-02T14:28:26Z</time><name>PT13005</name></trkpt>
<trkpt lat="54.574923" lon="-3.225904"><ele>669</ele><time>2019-10-02T14:28:28Z</time><name>PT13006</name></trkpt>
<trkpt lat="54.574922" lon="-3.225912"><ele>670</ele><time>2019-10-02T14:28:28Z</time><name>PT13007</name></trkpt>
<trkpt lat="54.574923" lon="-3.225916"><ele>670</ele><time>2019-10-02T14:28:30Z</time><name>PT13008</name></trkpt>
<trkpt lat="54.574929" lon="-3.225927"><ele>670</ele><time>2019-10-02T14:28:46Z</time><name>PT13009</name></trkpt>
<trkpt lat="54.574926" lon="-3.225933"><ele>670</ele><time>2019-10-02T14:28:46Z</time><name>PT13010</name></trkpt>
<trkpt lat="54.574926" lon="-3.225931"><ele>670</ele><time>2019-10-02T14:28:48Z</time><name>PT13011</name></trkpt>
<trkpt lat="54.574929" lon="-3.225932"><ele>671</ele><time>2019-10-02T14:28:48Z</time><name>PT13012</name></trkpt>
<trkpt lat="54.574933" lon="-3.225928"><ele>671</ele><time>2019-10-02T14:28:50Z</time><name>PT13013</name></trkpt>
<trkpt lat="54.574938" lon="-3.225931"><ele>670</ele><time>2019-10-02T14:29:48Z</time><name>PT13014</name></trkpt>
<trkpt lat="54.574939" lon="-3.225932"><ele>670</ele><time>2019-10-02T14:29:50Z</time><name>PT13015</name></trkpt>
<trkpt lat="54.574942" lon="-3.225932"><ele>669</ele><time>2019-10-02T14:29:50Z</time><name>PT13016</name></trkpt>
<trkpt lat="54.574941" lon="-3.225922"><ele>669</ele><time>2019-10-02T14:29:52Z</time><name>PT13017</name></trkpt>
<trkpt lat="54.574939" lon="-3.225913"><ele>668</ele><time>2019-10-02T14:29:52Z</time><name>PT13018</name></trkpt>
<trkpt lat="54.574941" lon="-3.225907"><ele>668</ele><time>2019-10-02T14:29:54Z</time><name>PT13019</name></trkpt>
<trkpt lat="54.574941" lon="-3.225904"><ele>667</ele><time>2019-10-02T14:29:54Z</time><name>PT13020</name></trkpt>
<trkpt lat="54.574943" lon="-3.225903"><ele>668</ele><time>2019-10-02T14:29:56Z</time><name>PT13021</name></trkpt>
<trkpt lat="54.574946" lon="-3.225907"><ele>668</ele><time>2019-10-02T14:29:56Z</time><name>PT13022</name></trkpt>
<trkpt lat="54.574950" lon="-3.225906"><ele>669</ele><time>2019-10-02T14:29:58Z</time><name>PT13023</name></trkpt>
<trkpt lat="54.574953" lon="-3.225907"><ele>669</ele><time>2019-10-02T14:29:58Z</time><name>PT13024</name></trkpt>
<trkpt lat="54.574956" lon="-3.225901"><ele>669</ele><time>2019-10-02T14:31:06Z</time><name>PT13025</name></trkpt>
<trkpt lat="54.574959" lon="-3.225901"><ele>669</ele><time>2019-10-02T14:31:06Z</time><name>PT13026</name></trkpt>
<trkpt lat="54.574959" lon="-3.225902"><ele>669</ele><time>2019-10-02T14:31:08Z</time><name>PT13027</name></trkpt>
<trkpt lat="54.574962" lon="-3.225904"><ele>669</ele><time>2019-10-02T14:31:30Z</time><name>PT13028</name></trkpt>
<trkpt lat="54.574962" lon="-3.225908"><ele>670</ele><time>2019-10-02T14:31:32Z</time><name>PT13029</name></trkpt>
<trkpt lat="54.574963" lon="-3.225909"><ele>670</ele><time>2019-10-02T14:31:46Z</time><name>PT13030</name></trkpt>
<trkpt lat="54.574964" lon="-3.225913"><ele>670</ele><time>2019-10-02T14:31:48Z</time><name>PT13031</name></trkpt>
<trkpt lat="54.574966" lon="-3.225914"><ele>670</ele><time>2019-10-02T14:31:48Z</time><name>PT13032</name></trkpt>
<trkpt lat="54.574966" lon="-3.225913"><ele>669</ele><time>2019-10-02T14:31:50Z</time><name>PT13033</name></trkpt>
<trkpt lat="54.574966" lon="-3.225912"><ele>669</ele><time>2019-10-02T14:31:50Z</time><name>PT13034</name></trkpt>
<trkpt lat="54.574966" lon="-3.225912"><ele>669</ele><time>2019-10-02T14:32:11Z</time><name>PT13035</name></trkpt>
<trkpt lat="54.574969" lon="-3.225914"><ele>669</ele><time>2019-10-02T14:32:12Z</time><name>PT13036</name></trkpt>
<trkpt lat="54.574973" lon="-3.225915"><ele>669</ele><time>2019-10-02T14:32:13Z</time><name>PT13037</name></trkpt>
<trkpt lat="54.574974" lon="-3.225921"><ele>670</ele><time>2019-10-02T14:32:14Z</time><name>PT13038</name></trkpt>
<trkpt lat="54.574974" lon="-3.225917"><ele>670</ele><time>2019-10-02T14:32:15Z</time><name>PT13039</name></trkpt>
<trkpt lat="54.574973" lon="-3.225921"><ele>670</ele><time>2019-10-02T14:32:16Z</time><name>PT13040</name></trkpt>
<trkpt lat="54.574972" lon="-3.225927"><ele>670</ele><time>2019-10-02T14:32:17Z</time><name>PT13041</name></trkpt>
<trkpt lat="54.574974" lon="-3.225925"><ele>670</ele><time>2019-10-02T14:32:18Z</time><name>PT13042</name></trkpt>
<trkpt lat="54.574976" lon="-3.225929"><ele>670</ele><time>2019-10-02T14:32:18Z</time><name>PT13043</name></trkpt>
<trkpt lat="54.574979" lon="-3.225932"><ele>670</ele><time>2019-10-02T14:32:20Z</time><name>PT13044</name></trkpt>
<trkpt lat="54.574981" lon="-3.225934"><ele>669</ele><time>2019-10-02T14:32:20Z</time><name>PT13045</name></trkpt>
<trkpt lat="54.574983" lon="-3.225935"><ele>669</ele><time>2019-10-02T14:32:22Z</time><name>PT13046</name></trkpt>
<trkpt lat="54.574985" lon="-3.225942"><ele>669</ele><time>2019-10-02T14:32:28Z</time><name>PT13047</name></trkpt>
<trkpt lat="54.574986" lon="-3.225937"><ele>669</ele><time>2019-10-02T14:32:30Z</time><name>PT13048</name></trkpt>
<trkpt lat="54.574984" lon="-3.225948"><ele>669</ele><time>2019-10-02T14:32:36Z</time><name>PT13049</name></trkpt>
<trkpt lat="54.574974" lon="-3.225945"><ele>669</ele><time>2019-10-02T14:32:38Z</time><name>PT13050</name></trkpt>
<trkpt lat="54.574973" lon="-3.225940"><ele>669</ele><time>2019-10-02T14:32:38Z</time><name>PT13051</name></trkpt>
<trkpt lat="54.574973" lon="-3.225938"><ele>669</ele><time>2019-10-02T14:32:40Z</time><name>PT13052</name></trkpt>
<trkpt lat="54.574974" lon="-3.225941"><ele>669</ele><time>2019-10-02T14:32:50Z</time><name>PT13053</name></trkpt>
<trkpt lat="54.574974" lon="-3.225938"><ele>670</ele><time>2019-10-02T14:32:50Z</time><name>PT13054</name></trkpt>
<trkpt lat="54.574974" lon="-3.225936"><ele>670</ele><time>2019-10-02T14:32:52Z</time><name>PT13055</name></trkpt>
<trkpt lat="54.574975" lon="-3.225938"><ele>670</ele><time>2019-10-02T14:33:04Z</time><name>PT13056</name></trkpt>
<trkpt lat="54.574976" lon="-3.225941"><ele>670</ele><time>2019-10-02T14:33:06Z</time><name>PT13057</name></trkpt>
<trkpt lat="54.574975" lon="-3.225940"><ele>670</ele><time>2019-10-02T14:33:07Z</time><name>PT13058</name></trkpt>
<trkpt lat="54.574975" lon="-3.225941"><ele>670</ele><time>2019-10-02T14:33:31Z</time><name>PT13059</name></trkpt>
<trkpt lat="54.574976" lon="-3.225942"><ele>671</ele><time>2019-10-02T14:33:32Z</time><name>PT13060</name></trkpt>
<trkpt lat="54.574973" lon="-3.225945"><ele>671</ele><time>2019-10-02T14:33:33Z</time><name>PT13061</name></trkpt>
<trkpt lat="54.574971" lon="-3.225952"><ele>671</ele><time>2019-10-02T14:33:34Z</time><name>PT13062</name></trkpt>
<trkpt lat="54.574970" lon="-3.225951"><ele>670</ele><time>2019-10-02T14:33:35Z</time><name>PT13063</name></trkpt>
<trkpt lat="54.574969" lon="-3.225950"><ele>670</ele><time>2019-10-02T14:33:36Z</time><name>PT13064</name></trkpt>
<trkpt lat="54.574971" lon="-3.225953"><ele>670</ele><time>2019-10-02T14:33:36Z</time><name>PT13065</name></trkpt>
<trkpt lat="54.574968" lon="-3.225958"><ele>671</ele><time>2019-10-02T14:33:38Z</time><name>PT13066</name></trkpt>
<trkpt lat="54.574968" lon="-3.225963"><ele>671</ele><time>2019-10-02T14:33:38Z</time><name>PT13067</name></trkpt>
<trkpt lat="54.574967" lon="-3.225964"><ele>672</ele><time>2019-10-02T14:33:40Z</time><name>PT13068</name></trkpt>
<trkpt lat="54.574963" lon="-3.225963"><ele>671</ele><time>2019-10-02T14:33:40Z</time><name>PT13069</name></trkpt>
<trkpt lat="54.574966" lon="-3.225964"><ele>671</ele><time>2019-10-02T14:33:42Z</time><name>PT13070</name></trkpt>
<trkpt lat="54.574967" lon="-3.225960"><ele>672</ele><time>2019-10-02T14:33:42Z</time><name>PT13071</name></trkpt>
<trkpt lat="54.574968" lon="-3.225957"><ele>672</ele><time>2019-10-02T14:33:44Z</time><name>PT13072</name></trkpt>
<trkpt lat="54.574969" lon="-3.225960"><ele>672</ele><time>2019-10-02T14:33:44Z</time><name>PT13073</name></trkpt>
<trkpt lat="54.574970" lon="-3.225961"><ele>672</ele><time>2019-10-02T14:33:46Z</time><name>PT13074</name></trkpt>
<trkpt lat="54.574974" lon="-3.225962"><ele>672</ele><time>2019-10-02T14:33:46Z</time><name>PT13075</name></trkpt>
<trkpt lat="54.574975" lon="-3.225961"><ele>673</ele><time>2019-10-02T14:33:48Z</time><name>PT13076</name></trkpt>
<trkpt lat="54.574974" lon="-3.225961"><ele>672</ele><time>2019-10-02T14:33:48Z</time><name>PT13077</name></trkpt>
<trkpt lat="54.574983" lon="-3.225954"><ele>673</ele><time>2019-10-02T14:34:00Z</time><name>PT13078</name></trkpt>
<trkpt lat="54.574987" lon="-3.225961"><ele>673</ele><time>2019-10-02T14:34:02Z</time><name>PT13079</name></trkpt>
<trkpt lat="54.574991" lon="-3.225961"><ele>674</ele><time>2019-10-02T14:34:02Z</time><name>PT13080</name></trkpt>
<trkpt lat="54.574997" lon="-3.225962"><ele>675</ele><time>2019-10-02T14:34:04Z</time><name>PT13081</name></trkpt>
<trkpt lat="54.575002" lon="-3.225962"><ele>675</ele><time>2019-10-02T14:34:04Z</time><name>PT13082</name></trkpt>
<trkpt lat="54.575004" lon="-3.225958"><ele>676</ele><time>2019-10-02T14:34:06Z</time><name>PT13083</name></trkpt>
<trkpt lat="54.575002" lon="-3.225954"><ele>675</ele><time>2019-10-02T14:34:06Z</time><name>PT13084</name></trkpt>
<trkpt lat="54.575001" lon="-3.225951"><ele>676</ele><time>2019-10-02T14:34:08Z</time><name>PT13085</name></trkpt>
<trkpt lat="54.574993" lon="-3.225944"><ele>675</ele><time>2019-10-02T14:34:08Z</time><name>PT13086</name></trkpt>
<trkpt lat="54.574990" lon="-3.225942"><ele>675</ele><time>2019-10-02T14:34:10Z</time><name>PT13087</name></trkpt>
<trkpt lat="54.574987" lon="-3.225935"><ele>676</ele><time>2019-10-02T14:34:10Z</time><name>PT13088</name></trkpt>
<trkpt lat="54.574987" lon="-3.225926"><ele>675</ele><time>2019-10-02T14:34:12Z</time><name>PT13089</name></trkpt>
<trkpt lat="54.574992" lon="-3.225923"><ele>676</ele><time>2019-10-02T14:34:12Z</time><name>PT13090</name></trkpt>
<trkpt lat="54.574993" lon="-3.225922"><ele>676</ele><time>2019-10-02T14:34:14Z</time><name>PT13091</name></trkpt>
<trkpt lat="54.574994" lon="-3.225918"><ele>676</ele><time>2019-10-02T14:34:14Z</time><name>PT13092</name></trkpt>
<trkpt lat="54.574990" lon="-3.225914"><ele>675</ele><time>2019-10-02T14:34:16Z</time><name>PT13093</name></trkpt>
<trkpt lat="54.574990" lon="-3.225911"><ele>674</ele><time>2019-10-02T14:34:16Z</time><name>PT13094</name></trkpt>
<trkpt lat="54.574990" lon="-3.225910"><ele>674</ele><time>2019-10-02T14:34:18Z</time><name>PT13095</name></trkpt>
<trkpt lat="54.574991" lon="-3.225907"><ele>674</ele><time>2019-10-02T14:34:18Z</time><name>PT13096</name></trkpt>
<trkpt lat="54.574989" lon="-3.225901"><ele>674</ele><time>2019-10-02T14:34:20Z</time><name>PT13097</name></trkpt>
<trkpt lat="54.574987" lon="-3.225900"><ele>674</ele><time>2019-10-02T14:34:20Z</time><name>PT13098</name></trkpt>
<trkpt lat="54.574985" lon="-3.225898"><ele>674</ele><time>2019-10-02T14:34:22Z</time><name>PT13099</name></trkpt>
<trkpt lat="54.574983" lon="-3.225895"><ele>675</ele><time>2019-10-02T14:34:22Z</time><name>PT13100</name></trkpt>
<trkpt lat="54.574985" lon="-3.225891"><ele>674</ele><time>2019-10-02T14:34:24Z</time><name>PT13101</name></trkpt>
<trkpt lat="54.574992" lon="-3.225886"><ele>675</ele><time>2019-10-02T14:34:24Z</time><name>PT13102</name></trkpt>
<trkpt lat="54.574994" lon="-3.225894"><ele>673</ele><time>2019-10-02T14:34:26Z</time><name>PT13103</name></trkpt>
<trkpt lat="54.575000" lon="-3.225886"><ele>671</ele><time>2019-10-02T14:34:26Z</time><name>PT13104</name></trkpt>
<trkpt lat="54.575007" lon="-3.225874"><ele>671</ele><time>2019-10-02T14:34:28Z</time><name>PT13105</name></trkpt>
<trkpt lat="54.575014" lon="-3.225868"><ele>669</ele><time>2019-10-02T14:34:28Z</time><name>PT13106</name></trkpt>
<trkpt lat="54.575017" lon="-3.225851"><ele>669</ele><time>2019-10-02T14:34:30Z</time><name>PT13107</name></trkpt>
<trkpt lat="54.575020" lon="-3.225839"><ele>669</ele><time>2019-10-02T14:34:30Z</time><name>PT13108</name></trkpt>
<trkpt lat="54.575017" lon="-3.225833"><ele>669</ele><time>2019-10-02T14:34:32Z</time><name>PT13109</name></trkpt>
<trkpt lat="54.575012" lon="-3.225834"><ele>668</ele><time>2019-10-02T14:34:32Z</time><name>PT13110</name></trkpt>
<trkpt lat="54.575010" lon="-3.225834"><ele>667</ele><time>2019-10-02T14:34:34Z</time><name>PT13111</name></trkpt>
<trkpt lat="54.575007" lon="-3.225832"><ele>667</ele><time>2019-10-02T14:34:34Z</time><name>PT13112</name></trkpt>
<trkpt lat="54.575005" lon="-3.225831"><ele>667</ele><time>2019-10-02T14:34:36Z</time><name>PT13113</name></trkpt>
<trkpt lat="54.575004" lon="-3.225829"><ele>666</ele><time>2019-10-02T14:34:36Z</time><name>PT13114</name></trkpt>
<trkpt lat="54.575005" lon="-3.225828"><ele>666</ele><time>2019-10-02T14:34:38Z</time><name>PT13115</name></trkpt>
<trkpt lat="54.575008" lon="-3.225826"><ele>667</ele><time>2019-10-02T14:34:54Z</time><name>PT13116</name></trkpt>
<trkpt lat="54.575016" lon="-3.225815"><ele>667</ele><time>2019-10-02T14:34:54Z</time><name>PT13117</name></trkpt>
<trkpt lat="54.575024" lon="-3.225799"><ele>666</ele><time>2019-10-02T14:34:56Z</time><name>PT13118</name></trkpt>
<trkpt lat="54.575028" lon="-3.225783"><ele>666</ele><time>2019-10-02T14:34:56Z</time><name>PT13119</name></trkpt>
<trkpt lat="54.575036" lon="-3.225771"><ele>666</ele><time>2019-10-02T14:34:58Z</time><name>PT13120</name></trkpt>
<trkpt lat="54.575044" lon="-3.225757"><ele>666</ele><time>2019-10-02T14:34:59Z</time><name>PT13121</name></trkpt>
<trkpt lat="54.575050" lon="-3.225745"><ele>666</ele><time>2019-10-02T14:35:00Z</time><name>PT13122</name></trkpt>
<trkpt lat="54.575057" lon="-3.225730"><ele>666</ele><time>2019-10-02T14:35:01Z</time><name>PT13123</name></trkpt>
<trkpt lat="54.575063" lon="-3.225710"><ele>666</ele><time>2019-10-02T14:35:02Z</time><name>PT13124</name></trkpt>
<trkpt lat="54.575070" lon="-3.225692"><ele>666</ele><time>2019-10-02T14:35:02Z</time><name>PT13125</name></trkpt>
<trkpt lat="54.575076" lon="-3.225674"><ele>666</ele><time>2019-10-02T14:35:04Z</time><name>PT13126</name></trkpt>
<trkpt lat="54.575083" lon="-3.225657"><ele>666</ele><time>2019-10-02T14:35:05Z</time><name>PT13127</name></trkpt>
<trkpt lat="54.575089" lon="-3.225644"><ele>666</ele><time>2019-10-02T14:35:06Z</time><name>PT13128</name></trkpt>
<trkpt lat="54.575092" lon="-3.225630"><ele>666</ele><time>2019-10-02T14:35:07Z</time><name>PT13129</name></trkpt>
<trkpt lat="54.575094" lon="-3.225616"><ele>666</ele><time>2019-10-02T14:35:08Z</time><name>PT13130</name></trkpt>
<trkpt lat="54.575098" lon="-3.225599"><ele>665</ele><time>2019-10-02T14:35:09Z</time><name>PT13131</name></trkpt>
<trkpt lat="54.575103" lon="-3.225583"><ele>665</ele><time>2019-10-02T14:35:10Z</time><name>PT13132</name></trkpt>
<trkpt lat="54.575110" lon="-3.225571"><ele>665</ele><time>2019-10-02T14:35:11Z</time><name>PT13133</name></trkpt>
<trkpt lat="54.575116" lon="-3.225559"><ele>664</ele><time>2019-10-02T14:35:12Z</time><name>PT13134</name></trkpt>
<trkpt lat="54.575120" lon="-3.225547"><ele>664</ele><time>2019-10-02T14:35:13Z</time><name>PT13135</name></trkpt>
<trkpt lat="54.575123" lon="-3.225532"><ele>664</ele><time>2019-10-02T14:35:14Z</time><name>PT13136</name></trkpt>
<trkpt lat="54.575126" lon="-3.225514"><ele>664</ele><time>2019-10-02T14:35:15Z</time><name>PT13137</name></trkpt>
<trkpt lat="54.575128" lon="-3.225495"><ele>664</ele><time>2019-10-02T14:35:16Z</time><name>PT13138</name></trkpt>
<trkpt lat="54.575132" lon="-3.225480"><ele>664</ele><time>2019-10-02T14:35:17Z</time><name>PT13139</name></trkpt>
<trkpt lat="54.575138" lon="-3.225465"><ele>663</ele><time>2019-10-02T14:35:18Z</time><name>PT13140</name></trkpt>
<trkpt lat="54.575143" lon="-3.225448"><ele>663</ele><time>2019-10-02T14:35:18Z</time><name>PT13141</name></trkpt>
<trkpt lat="54.575149" lon="-3.225432"><ele>663</ele><time>2019-10-02T14:35:20Z</time><name>PT13142</name></trkpt>
<trkpt lat="54.575154" lon="-3.225410"><ele>663</ele><time>2019-10-02T14:35:20Z</time><name>PT13143</name></trkpt>
<trkpt lat="54.575160" lon="-3.225388"><ele>663</ele><time>2019-10-02T14:35:22Z</time><name>PT13144</name></trkpt>
<trkpt lat="54.575166" lon="-3.225371"><ele>663</ele><time>2019-10-02T14:35:22Z</time><name>PT13145</name></trkpt>
<trkpt lat="54.575171" lon="-3.225361"><ele>663</ele><time>2019-10-02T14:35:24Z</time><name>PT13146</name></trkpt>
<trkpt lat="54.575172" lon="-3.225360"><ele>663</ele><time>2019-10-02T14:35:24Z</time><name>PT13147</name></trkpt>
<trkpt lat="54.575171" lon="-3.225359"><ele>663</ele><time>2019-10-02T14:35:26Z</time><name>PT13148</name></trkpt>
<trkpt lat="54.575171" lon="-3.225359"><ele>663</ele><time>2019-10-02T14:35:26Z</time><name>PT13149</name></trkpt>
<trkpt lat="54.575174" lon="-3.225353"><ele>663</ele><time>2019-10-02T14:35:38Z</time><name>PT13150</name></trkpt>
<trkpt lat="54.575183" lon="-3.225335"><ele>662</ele><time>2019-10-02T14:35:38Z</time><name>PT13151</name></trkpt>
<trkpt lat="54.575191" lon="-3.225311"><ele>662</ele><time>2019-10-02T14:35:40Z</time><name>PT13152</name></trkpt>
<trkpt lat="54.575197" lon="-3.225288"><ele>663</ele><time>2019-10-02T14:35:40Z</time><name>PT13153</name></trkpt>
<trkpt lat="54.575202" lon="-3.225272"><ele>663</ele><time>2019-10-02T14:35:42Z</time><name>PT13154</name></trkpt>
<trkpt lat="54.575210" lon="-3.225252"><ele>663</ele><time>2019-10-02T14:35:42Z</time><name>PT13155</name></trkpt>
<trkpt lat="54.575218" lon="-3.225232"><ele>663</ele><time>2019-10-02T14:35:44Z</time><name>PT13156</name></trkpt>
<trkpt lat="54.575225" lon="-3.225214"><ele>663</ele><time>2019-10-02T14:35:44Z</time><name>PT13157</name></trkpt>
<trkpt lat="54.575229" lon="-3.225192"><ele>663</ele><time>2019-10-02T14:35:46Z</time><name>PT13158</name></trkpt>
<trkpt lat="54.575230" lon="-3.225173"><ele>662</ele><time>2019-10-02T14:35:46Z</time><name>PT13159</name></trkpt>
<trkpt lat="54.575233" lon="-3.225156"><ele>662</ele><time>2019-10-02T14:35:48Z</time><name>PT13160</name></trkpt>
<trkpt lat="54.575240" lon="-3.225134"><ele>662</ele><time>2019-10-02T14:35:48Z</time><name>PT13161</name></trkpt>
<trkpt lat="54.575247" lon="-3.225115"><ele>662</ele><time>2019-10-02T14:35:50Z</time><name>PT13162</name></trkpt>
<trkpt lat="54.575254" lon="-3.225095"><ele>662</ele><time>2019-10-02T14:35:50Z</time><name>PT13163</name></trkpt>
<trkpt lat="54.575258" lon="-3.225075"><ele>662</ele><time>2019-10-02T14:35:52Z</time><name>PT13164</name></trkpt>
<trkpt lat="54.575262" lon="-3.225060"><ele>662</ele><time>2019-10-02T14:35:52Z</time><name>PT13165</name></trkpt>
<trkpt lat="54.575269" lon="-3.225045"><ele>662</ele><time>2019-10-02T14:35:54Z</time><name>PT13166</name></trkpt>
<trkpt lat="54.575274" lon="-3.225028"><ele>662</ele><time>2019-10-02T14:35:54Z</time><name>PT13167</name></trkpt>
<trkpt lat="54.575277" lon="-3.225011"><ele>662</ele><time>2019-10-02T14:35:56Z</time><name>PT13168</name></trkpt>
<trkpt lat="54.575281" lon="-3.224993"><ele>662</ele><time>2019-10-02T14:35:56Z</time><name>PT13169</name></trkpt>
<trkpt lat="54.575284" lon="-3.224976"><ele>662</ele><time>2019-10-02T14:35:58Z</time><name>PT13170</name></trkpt>
<trkpt lat="54.575288" lon="-3.224959"><ele>662</ele><time>2019-10-02T14:35:58Z</time><name>PT13171</name></trkpt>
<trkpt lat="54.575294" lon="-3.224941"><ele>662</ele><time>2019-10-02T14:36:00Z</time><name>PT13172</name></trkpt>
<trkpt lat="54.575300" lon="-3.224919"><ele>662</ele><time>2019-10-02T14:36:00Z</time><name>PT13173</name></trkpt>
<trkpt lat="54.575306" lon="-3.224900"><ele>662</ele><time>2019-10-02T14:36:02Z</time><name>PT13174</name></trkpt>
<trkpt lat="54.575311" lon="-3.224888"><ele>662</ele><time>2019-10-02T14:36:02Z</time><name>PT13175</name></trkpt>
<trkpt lat="54.575315" lon="-3.224875"><ele>662</ele><time>2019-10-02T14:36:04Z</time><name>PT13176</name></trkpt>
<trkpt lat="54.575316" lon="-3.224856"><ele>662</ele><time>2019-10-02T14:36:04Z</time><name>PT13177</name></trkpt>
<trkpt lat="54.575318" lon="-3.224837"><ele>662</ele><time>2019-10-02T14:36:06Z</time><name>PT13178</name></trkpt>
<trkpt lat="54.575322" lon="-3.224822"><ele>662</ele><time>2019-10-02T14:36:06Z</time><name>PT13179</name></trkpt>
<trkpt lat="54.575328" lon="-3.224809"><ele>662</ele><time>2019-10-02T14:36:08Z</time><name>PT13180</name></trkpt>
<trkpt lat="54.575331" lon="-3.224793"><ele>663</ele><time>2019-10-02T14:36:08Z</time><name>PT13181</name></trkpt>
<trkpt lat="54.575336" lon="-3.224773"><ele>663</ele><time>2019-10-02T14:36:10Z</time><name>PT13182</name></trkpt>
<trkpt lat="54.575341" lon="-3.224757"><ele>662</ele><time>2019-10-02T14:36:10Z</time><name>PT13183</name></trkpt>
<trkpt lat="54.575347" lon="-3.224739"><ele>663</ele><time>2019-10-02T14:36:12Z</time><name>PT13184</name></trkpt>
<trkpt lat="54.575348" lon="-3.224728"><ele>663</ele><time>2019-10-02T14:36:12Z</time><name>PT13185</name></trkpt>
<trkpt lat="54.575347" lon="-3.224717"><ele>664</ele><time>2019-10-02T14:36:14Z</time><name>PT13186</name></trkpt>
<trkpt lat="54.575345" lon="-3.224709"><ele>664</ele><time>2019-10-02T14:36:14Z</time><name>PT13187</name></trkpt>
<trkpt lat="54.575344" lon="-3.224701"><ele>663</ele><time>2019-10-02T14:36:16Z</time><name>PT13188</name></trkpt>
<trkpt lat="54.575342" lon="-3.224694"><ele>664</ele><time>2019-10-02T14:36:16Z</time><name>PT13189</name></trkpt>
<trkpt lat="54.575342" lon="-3.224688"><ele>664</ele><time>2019-10-02T14:36:18Z</time><name>PT13190</name></trkpt>
<trkpt lat="54.575343" lon="-3.224686"><ele>664</ele><time>2019-10-02T14:36:18Z</time><name>PT13191</name></trkpt>
<trkpt lat="54.575344" lon="-3.224686"><ele>664</ele><time>2019-10-02T14:36:20Z</time><name>PT13192</name></trkpt>
<trkpt lat="54.575343" lon="-3.224682"><ele>664</ele><time>2019-10-02T14:36:23Z</time><name>PT13193</name></trkpt>
<trkpt lat="54.575349" lon="-3.224663"><ele>664</ele><time>2019-10-02T14:36:24Z</time><name>PT13194</name></trkpt>
<trkpt lat="54.575357" lon="-3.224645"><ele>664</ele><time>2019-10-02T14:36:25Z</time><name>PT13195</name></trkpt>
<trkpt lat="54.575363" lon="-3.224623"><ele>664</ele><time>2019-10-02T14:36:26Z</time><name>PT13196</name></trkpt>
<trkpt lat="54.575368" lon="-3.224597"><ele>664</ele><time>2019-10-02T14:36:27Z</time><name>PT13197</name></trkpt>
<trkpt lat="54.575371" lon="-3.224580"><ele>664</ele><time>2019-10-02T14:36:28Z</time><name>PT13198</name></trkpt>
<trkpt lat="54.575377" lon="-3.224567"><ele>664</ele><time>2019-10-02T14:36:29Z</time><name>PT13199</name></trkpt>
<trkpt lat="54.575384" lon="-3.224556"><ele>664</ele><time>2019-10-02T14:36:30Z</time><name>PT13200</name></trkpt>
<trkpt lat="54.575383" lon="-3.224548"><ele>664</ele><time>2019-10-02T14:36:31Z</time><name>PT13201</name></trkpt>
<trkpt lat="54.575384" lon="-3.224538"><ele>664</ele><time>2019-10-02T14:36:32Z</time><name>PT13202</name></trkpt>
<trkpt lat="54.575385" lon="-3.224526"><ele>664</ele><time>2019-10-02T14:36:33Z</time><name>PT13203</name></trkpt>
<trkpt lat="54.575389" lon="-3.224514"><ele>664</ele><time>2019-10-02T14:36:34Z</time><name>PT13204</name></trkpt>
<trkpt lat="54.575396" lon="-3.224504"><ele>664</ele><time>2019-10-02T14:36:35Z</time><name>PT13205</name></trkpt>
<trkpt lat="54.575401" lon="-3.224492"><ele>664</ele><time>2019-10-02T14:36:36Z</time><name>PT13206</name></trkpt>
<trkpt lat="54.575407" lon="-3.224477"><ele>664</ele><time>2019-10-02T14:36:36Z</time><name>PT13207</name></trkpt>
<trkpt lat="54.575410" lon="-3.224462"><ele>664</ele><time>2019-10-02T14:36:38Z</time><name>PT13208</name></trkpt>
<trkpt lat="54.575415" lon="-3.224449"><ele>664</ele><time>2019-10-02T14:36:39Z</time><name>PT13209</name></trkpt>
<trkpt lat="54.575418" lon="-3.224439"><ele>664</ele><time>2019-10-02T14:36:40Z</time><name>PT13210</name></trkpt>
<trkpt lat="54.575422" lon="-3.224428"><ele>664</ele><time>2019-10-02T14:36:41Z</time><name>PT13211</name></trkpt>
<trkpt lat="54.575426" lon="-3.224417"><ele>664</ele><time>2019-10-02T14:36:42Z</time><name>PT13212</name></trkpt>
<trkpt lat="54.575429" lon="-3.224407"><ele>664</ele><time>2019-10-02T14:36:42Z</time><name>PT13213</name></trkpt>
<trkpt lat="54.575432" lon="-3.224392"><ele>664</ele><time>2019-10-02T14:36:44Z</time><name>PT13214</name></trkpt>
<trkpt lat="54.575434" lon="-3.224375"><ele>664</ele><time>2019-10-02T14:36:44Z</time><name>PT13215</name></trkpt>
<trkpt lat="54.575436" lon="-3.224361"><ele>664</ele><time>2019-10-02T14:36:46Z</time><name>PT13216</name></trkpt>
<trkpt lat="54.575440" lon="-3.224347"><ele>664</ele><time>2019-10-02T14:36:46Z</time><name>PT13217</name></trkpt>
<trkpt lat="54.575442" lon="-3.224333"><ele>664</ele><time>2019-10-02T14:36:48Z</time><name>PT13218</name></trkpt>
<trkpt lat="54.575443" lon="-3.224319"><ele>663</ele><time>2019-10-02T14:36:48Z</time><name>PT13219</name></trkpt>
<trkpt lat="54.575448" lon="-3.224304"><ele>663</ele><time>2019-10-02T14:36:50Z</time><name>PT13220</name></trkpt>
<trkpt lat="54.575453" lon="-3.224289"><ele>663</ele><time>2019-10-02T14:36:50Z</time><name>PT13221</name></trkpt>
<trkpt lat="54.575458" lon="-3.224277"><ele>663</ele><time>2019-10-02T14:36:52Z</time><name>PT13222</name></trkpt>
<trkpt lat="54.575461" lon="-3.224273"><ele>663</ele><time>2019-10-02T14:36:52Z</time><name>PT13223</name></trkpt>
<trkpt lat="54.575462" lon="-3.224269"><ele>663</ele><time>2019-10-02T14:36:54Z</time><name>PT13224</name></trkpt>
<trkpt lat="54.575464" lon="-3.224265"><ele>662</ele><time>2019-10-02T14:36:54Z</time><name>PT13225</name></trkpt>
<trkpt lat="54.575466" lon="-3.224255"><ele>662</ele><time>2019-10-02T14:36:56Z</time><name>PT13226</name></trkpt>
<trkpt lat="54.575470" lon="-3.224240"><ele>662</ele><time>2019-10-02T14:36:56Z</time><name>PT13227</name></trkpt>
<trkpt lat="54.575476" lon="-3.224226"><ele>662</ele><time>2019-10-02T14:36:58Z</time><name>PT13228</name></trkpt>
<trkpt lat="54.575485" lon="-3.224219"><ele>661</ele><time>2019-10-02T14:36:58Z</time><name>PT13229</name></trkpt>
<trkpt lat="54.575488" lon="-3.224211"><ele>661</ele><time>2019-10-02T14:37:00Z</time><name>PT13230</name></trkpt>
<trkpt lat="54.575490" lon="-3.224202"><ele>661</ele><time>2019-10-02T14:37:00Z</time><name>PT13231</name></trkpt>
<trkpt lat="54.575491" lon="-3.224192"><ele>661</ele><time>2019-10-02T14:37:02Z</time><name>PT13232</name></trkpt>
<trkpt lat="54.575494" lon="-3.224177"><ele>661</ele><time>2019-10-02T14:37:02Z</time><name>PT13233</name></trkpt>
<trkpt lat="54.575500" lon="-3.224162"><ele>660</ele><time>2019-10-02T14:37:04Z</time><name>PT13234</name></trkpt>
<trkpt lat="54.575508" lon="-3.224148"><ele>660</ele><time>2019-10-02T14:37:04Z</time><name>PT13235</name></trkpt>
<trkpt lat="54.575515" lon="-3.224134"><ele>660</ele><time>2019-10-02T14:37:06Z</time><name>PT13236</name></trkpt>
<trkpt lat="54.575522" lon="-3.224120"><ele>660</ele><time>2019-10-02T14:37:07Z</time><name>PT13237</name></trkpt>
<trkpt lat="54.575530" lon="-3.224106"><ele>660</ele><time>2019-10-02T14:37:08Z</time><name>PT13238</name></trkpt>
<trkpt lat="54.575538" lon="-3.224092"><ele>660</ele><time>2019-10-02T14:37:08Z</time><name>PT13239</name></trkpt>
<trkpt lat="54.575546" lon="-3.224075"><ele>659</ele><time>2019-10-02T14:37:10Z</time><name>PT13240</name></trkpt>
<trkpt lat="54.575553" lon="-3.224056"><ele>659</ele><time>2019-10-02T14:37:11Z</time><name>PT13241</name></trkpt>
<trkpt lat="54.575558" lon="-3.224039"><ele>659</ele><time>2019-10-02T14:37:12Z</time><name>PT13242</name></trkpt>
<trkpt lat="54.575560" lon="-3.224023"><ele>659</ele><time>2019-10-02T14:37:12Z</time><name>PT13243</name></trkpt>
<trkpt lat="54.575564" lon="-3.224012"><ele>659</ele><time>2019-10-02T14:37:14Z</time><name>PT13244</name></trkpt>
<trkpt lat="54.575570" lon="-3.224003"><ele>658</ele><time>2019-10-02T14:37:15Z</time><name>PT13245</name></trkpt>
<trkpt lat="54.575576" lon="-3.223993"><ele>658</ele><time>2019-10-02T14:37:16Z</time><name>PT13246</name></trkpt>
<trkpt lat="54.575580" lon="-3.223984"><ele>658</ele><time>2019-10-02T14:37:16Z</time><name>PT13247</name></trkpt>
<trkpt lat="54.575584" lon="-3.223971"><ele>657</ele><time>2019-10-02T14:37:18Z</time><name>PT13248</name></trkpt>
<trkpt lat="54.575586" lon="-3.223958"><ele>657</ele><time>2019-10-02T14:37:19Z</time><name>PT13249</name></trkpt>
<trkpt lat="54.575591" lon="-3.223942"><ele>657</ele><time>2019-10-02T14:37:20Z</time><name>PT13250</name></trkpt>
<trkpt lat="54.575596" lon="-3.223926"><ele>657</ele><time>2019-10-02T14:37:21Z</time><name>PT13251</name></trkpt>
<trkpt lat="54.575598" lon="-3.223908"><ele>657</ele><time>2019-10-02T14:37:22Z</time><name>PT13252</name></trkpt>
<trkpt lat="54.575603" lon="-3.223890"><ele>656</ele><time>2019-10-02T14:37:23Z</time><name>PT13253</name></trkpt>
<trkpt lat="54.575609" lon="-3.223873"><ele>656</ele><time>2019-10-02T14:37:24Z</time><name>PT13254</name></trkpt>
<trkpt lat="54.575613" lon="-3.223859"><ele>656</ele><time>2019-10-02T14:37:25Z</time><name>PT13255</name></trkpt>
<trkpt lat="54.575621" lon="-3.223844"><ele>656</ele><time>2019-10-02T14:37:26Z</time><name>PT13256</name></trkpt>
<trkpt lat="54.575627" lon="-3.223833"><ele>656</ele><time>2019-10-02T14:37:26Z</time><name>PT13257</name></trkpt>
<trkpt lat="54.575635" lon="-3.223820"><ele>656</ele><time>2019-10-02T14:37:28Z</time><name>PT13258</name></trkpt>
<trkpt lat="54.575640" lon="-3.223807"><ele>656</ele><time>2019-10-02T14:37:29Z</time><name>PT13259</name></trkpt>
<trkpt lat="54.575647" lon="-3.223795"><ele>655</ele><time>2019-10-02T14:37:30Z</time><name>PT13260</name></trkpt>
<trkpt lat="54.575654" lon="-3.223781"><ele>655</ele><time>2019-10-02T14:37:31Z</time><name>PT13261</name></trkpt>
<trkpt lat="54.575661" lon="-3.223766"><ele>655</ele><time>2019-10-02T14:37:32Z</time><name>PT13262</name></trkpt>
<trkpt lat="54.575670" lon="-3.223752"><ele>655</ele><time>2019-10-02T14:37:32Z</time><name>PT13263</name></trkpt>
<trkpt lat="54.575678" lon="-3.223736"><ele>654</ele><time>2019-10-02T14:37:34Z</time><name>PT13264</name></trkpt>
<trkpt lat="54.575684" lon="-3.223721"><ele>654</ele><time>2019-10-02T14:37:34Z</time><name>PT13265</name></trkpt>
<trkpt lat="54.575690" lon="-3.223709"><ele>654</ele><time>2019-10-02T14:37:36Z</time><name>PT13266</name></trkpt>
<trkpt lat="54.575696" lon="-3.223700"><ele>654</ele><time>2019-10-02T14:37:36Z</time><name>PT13267</name></trkpt>
<trkpt lat="54.575704" lon="-3.223690"><ele>654</ele><time>2019-10-02T14:37:38Z</time><name>PT13268</name></trkpt>
<trkpt lat="54.575711" lon="-3.223682"><ele>654</ele><time>2019-10-02T14:37:38Z</time><name>PT13269</name></trkpt>
<trkpt lat="54.575716" lon="-3.223668"><ele>654</ele><time>2019-10-02T14:37:40Z</time><name>PT13270</name></trkpt>
<trkpt lat="54.575718" lon="-3.223654"><ele>654</ele><time>2019-10-02T14:37:40Z</time><name>PT13271</name></trkpt>
<trkpt lat="54.575723" lon="-3.223637"><ele>654</ele><time>2019-10-02T14:37:42Z</time><name>PT13272</name></trkpt>
<trkpt lat="54.575729" lon="-3.223616"><ele>654</ele><time>2019-10-02T14:37:42Z</time><name>PT13273</name></trkpt>
<trkpt lat="54.575735" lon="-3.223599"><ele>654</ele><time>2019-10-02T14:37:44Z</time><name>PT13274</name></trkpt>
<trkpt lat="54.575740" lon="-3.223581"><ele>653</ele><time>2019-10-02T14:37:44Z</time><name>PT13275</name></trkpt>
<trkpt lat="54.575745" lon="-3.223562"><ele>653</ele><time>2019-10-02T14:37:46Z</time><name>PT13276</name></trkpt>
<trkpt lat="54.575748" lon="-3.223544"><ele>652</ele><time>2019-10-02T14:37:46Z</time><name>PT13277</name></trkpt>
<trkpt lat="54.575753" lon="-3.223524"><ele>651</ele><time>2019-10-02T14:37:48Z</time><name>PT13278</name></trkpt>
<trkpt lat="54.575756" lon="-3.223510"><ele>651</ele><time>2019-10-02T14:37:48Z</time><name>PT13279</name></trkpt>
<trkpt lat="54.575757" lon="-3.223496"><ele>650</ele><time>2019-10-02T14:37:50Z</time><name>PT13280</name></trkpt>
<trkpt lat="54.575760" lon="-3.223480"><ele>650</ele><time>2019-10-02T14:37:50Z</time><name>PT13281</name></trkpt>
<trkpt lat="54.575764" lon="-3.223460"><ele>650</ele><time>2019-10-02T14:37:52Z</time><name>PT13282</name></trkpt>
<trkpt lat="54.575768" lon="-3.223439"><ele>650</ele><time>2019-10-02T14:37:52Z</time><name>PT13283</name></trkpt>
<trkpt lat="54.575773" lon="-3.223422"><ele>650</ele><time>2019-10-02T14:37:54Z</time><name>PT13284</name></trkpt>
<trkpt lat="54.575777" lon="-3.223407"><ele>649</ele><time>2019-10-02T14:37:54Z</time><name>PT13285</name></trkpt>
<trkpt lat="54.575786" lon="-3.223386"><ele>649</ele><time>2019-10-02T14:37:56Z</time><name>PT13286</name></trkpt>
<trkpt lat="54.575793" lon="-3.223367"><ele>648</ele><time>2019-10-02T14:37:56Z</time><name>PT13287</name></trkpt>
<trkpt lat="54.575799" lon="-3.223352"><ele>648</ele><time>2019-10-02T14:37:58Z</time><name>PT13288</name></trkpt>
<trkpt lat="54.575805" lon="-3.223336"><ele>648</ele><time>2019-10-02T14:37:58Z</time><name>PT13289</name></trkpt>
<trkpt lat="54.575810" lon="-3.223317"><ele>647</ele><time>2019-10-02T14:38:00Z</time><name>PT13290</name></trkpt>
<trkpt lat="54.575815" lon="-3.223300"><ele>648</ele><time>2019-10-02T14:38:00Z</time><name>PT13291</name></trkpt>
<trkpt lat="54.575819" lon="-3.223285"><ele>647</ele><time>2019-10-02T14:38:02Z</time><name>PT13292</name></trkpt>
<trkpt lat="54.575821" lon="-3.223265"><ele>647</ele><time>2019-10-02T14:38:02Z</time><name>PT13293</name></trkpt>
<trkpt lat="54.575822" lon="-3.223238"><ele>648</ele><time>2019-10-02T14:38:04Z</time><name>PT13294</name></trkpt>
<trkpt lat="54.575823" lon="-3.223213"><ele>648</ele><time>2019-10-02T14:38:05Z</time><name>PT13295</name></trkpt>
<trkpt lat="54.575824" lon="-3.223188"><ele>648</ele><time>2019-10-02T14:38:06Z</time><name>PT13296</name></trkpt>
<trkpt lat="54.575827" lon="-3.223169"><ele>648</ele><time>2019-10-02T14:38:06Z</time><name>PT13297</name></trkpt>
<trkpt lat="54.575831" lon="-3.223149"><ele>648</ele><time>2019-10-02T14:38:08Z</time><name>PT13298</name></trkpt>
<trkpt lat="54.575834" lon="-3.223129"><ele>647</ele><time>2019-10-02T14:38:09Z</time><name>PT13299</name></trkpt>
<trkpt lat="54.575838" lon="-3.223107"><ele>647</ele><time>2019-10-02T14:38:10Z</time><name>PT13300</name></trkpt>
<trkpt lat="54.575841" lon="-3.223086"><ele>647</ele><time>2019-10-02T14:38:11Z</time><name>PT13301</name></trkpt>
<trkpt lat="54.575843" lon="-3.223068"><ele>646</ele><time>2019-10-02T14:38:12Z</time><name>PT13302</name></trkpt>
<trkpt lat="54.575844" lon="-3.223049"><ele>646</ele><time>2019-10-02T14:38:13Z</time><name>PT13303</name></trkpt>
<trkpt lat="54.575844" lon="-3.223033"><ele>646</ele><time>2019-10-02T14:38:14Z</time><name>PT13304</name></trkpt>
<trkpt lat="54.575844" lon="-3.223023"><ele>646</ele><time>2019-10-02T14:38:15Z</time><name>PT13305</name></trkpt>
<trkpt lat="54.575845" lon="-3.223011"><ele>646</ele><time>2019-10-02T14:38:16Z</time><name>PT13306</name></trkpt>
<trkpt lat="54.575846" lon="-3.222998"><ele>646</ele><time>2019-10-02T14:38:16Z</time><name>PT13307</name></trkpt>
<trkpt lat="54.575846" lon="-3.222979"><ele>645</ele><time>2019-10-02T14:38:18Z</time><name>PT13308</name></trkpt>
<trkpt lat="54.575849" lon="-3.222967"><ele>645</ele><time>2019-10-02T14:38:19Z</time><name>PT13309</name></trkpt>
<trkpt lat="54.575852" lon="-3.222960"><ele>645</ele><time>2019-10-02T14:38:20Z</time><name>PT13310</name></trkpt>
<trkpt lat="54.575852" lon="-3.222950"><ele>645</ele><time>2019-10-02T14:38:20Z</time><name>PT13311</name></trkpt>
<trkpt lat="54.575852" lon="-3.222936"><ele>645</ele><time>2019-10-02T14:38:22Z</time><name>PT13312</name></trkpt>
<trkpt lat="54.575853" lon="-3.222918"><ele>645</ele><time>2019-10-02T14:38:22Z</time><name>PT13313</name></trkpt>
<trkpt lat="54.575856" lon="-3.222901"><ele>645</ele><time>2019-10-02T14:38:24Z</time><name>PT13314</name></trkpt>
<trkpt lat="54.575860" lon="-3.222888"><ele>645</ele><time>2019-10-02T14:38:24Z</time><name>PT13315</name></trkpt>
<trkpt lat="54.575864" lon="-3.222871"><ele>645</ele><time>2019-10-02T14:38:26Z</time><name>PT13316</name></trkpt>
<trkpt lat="54.575868" lon="-3.222852"><ele>645</ele><time>2019-10-02T14:38:26Z</time><name>PT13317</name></trkpt>
<trkpt lat="54.575871" lon="-3.222833"><ele>645</ele><time>2019-10-02T14:38:28Z</time><name>PT13318</name></trkpt>
<trkpt lat="54.575875" lon="-3.222814"><ele>645</ele><time>2019-10-02T14:38:28Z</time><name>PT13319</name></trkpt>
<trkpt lat="54.575879" lon="-3.222798"><ele>645</ele><time>2019-10-02T14:38:30Z</time><name>PT13320</name></trkpt>
<trkpt lat="54.575883" lon="-3.222786"><ele>645</ele><time>2019-10-02T14:38:30Z</time><name>PT13321</name></trkpt>
<trkpt lat="54.575887" lon="-3.222772"><ele>645</ele><time>2019-10-02T14:38:32Z</time><name>PT13322</name></trkpt>
<trkpt lat="54.575888" lon="-3.222760"><ele>645</ele><time>2019-10-02T14:38:32Z</time><name>PT13323</name></trkpt>
<trkpt lat="54.575890" lon="-3.222752"><ele>645</ele><time>2019-10-02T14:38:34Z</time><name>PT13324</name></trkpt>
<trkpt lat="54.575890" lon="-3.222739"><ele>645</ele><time>2019-10-02T14:38:34Z</time><name>PT13325</name></trkpt>
<trkpt lat="54.575893" lon="-3.222724"><ele>645</ele><time>2019-10-02T14:38:36Z</time><name>PT13326</name></trkpt>
<trkpt lat="54.575895" lon="-3.222712"><ele>645</ele><time>2019-10-02T14:38:36Z</time><name>PT13327</name></trkpt>
<trkpt lat="54.575897" lon="-3.222691"><ele>645</ele><time>2019-10-02T14:38:38Z</time><name>PT13328</name></trkpt>
<trkpt lat="54.575899" lon="-3.222669"><ele>644</ele><time>2019-10-02T14:38:38Z</time><name>PT13329</name></trkpt>
<trkpt lat="54.575902" lon="-3.222650"><ele>645</ele><time>2019-10-02T14:38:40Z</time><name>PT13330</name></trkpt>
<trkpt lat="54.575905" lon="-3.222632"><ele>645</ele><time>2019-10-02T14:38:40Z</time><name>PT13331</name></trkpt>
<trkpt lat="54.575908" lon="-3.222617"><ele>645</ele><time>2019-10-02T14:38:42Z</time><name>PT13332</name></trkpt>
<trkpt lat="54.575910" lon="-3.222602"><ele>645</ele><time>2019-10-02T14:38:42Z</time><name>PT13333</name></trkpt>
<trkpt lat="54.575909" lon="-3.222584"><ele>645</ele><time>2019-10-02T14:38:44Z</time><name>PT13334</name></trkpt>
<trkpt lat="54.575908" lon="-3.222568"><ele>645</ele><time>2019-10-02T14:38:44Z</time><name>PT13335</name></trkpt>
<trkpt lat="54.575909" lon="-3.222555"><ele>644</ele><time>2019-10-02T14:38:46Z</time><name>PT13336</name></trkpt>
<trkpt lat="54.575911" lon="-3.222544"><ele>644</ele><time>2019-10-02T14:38:46Z</time><name>PT13337</name></trkpt>
<trkpt lat="54.575914" lon="-3.222535"><ele>644</ele><time>2019-10-02T14:38:48Z</time><name>PT13338</name></trkpt>
<trkpt lat="54.575917" lon="-3.222523"><ele>644</ele><time>2019-10-02T14:38:48Z</time><name>PT13339</name></trkpt>
<trkpt lat="54.575916" lon="-3.222511"><ele>644</ele><time>2019-10-02T14:38:50Z</time><name>PT13340</name></trkpt>
<trkpt lat="54.575913" lon="-3.222500"><ele>644</ele><time>2019-10-02T14:38:50Z</time><name>PT13341</name></trkpt>
<trkpt lat="54.575912" lon="-3.222490"><ele>644</ele><time>2019-10-02T14:38:52Z</time><name>PT13342</name></trkpt>
<trkpt lat="54.575915" lon="-3.222474"><ele>643</ele><time>2019-10-02T14:38:52Z</time><name>PT13343</name></trkpt>
<trkpt lat="54.575919" lon="-3.222458"><ele>643</ele><time>2019-10-02T14:38:54Z</time><name>PT13344</name></trkpt>
<trkpt lat="54.575923" lon="-3.222445"><ele>643</ele><time>2019-10-02T14:38:54Z</time><name>PT13345</name></trkpt>
<trkpt lat="54.575928" lon="-3.222433"><ele>642</ele><time>2019-10-02T14:38:56Z</time><name>PT13346</name></trkpt>
<trkpt lat="54.575934" lon="-3.222423"><ele>642</ele><time>2019-10-02T14:38:56Z</time><name>PT13347</name></trkpt>
<trkpt lat="54.575941" lon="-3.222413"><ele>642</ele><time>2019-10-02T14:38:58Z</time><name>PT13348</name></trkpt>
<trkpt lat="54.575947" lon="-3.222402"><ele>642</ele><time>2019-10-02T14:38:58Z</time><name>PT13349</name></trkpt>
<trkpt lat="54.575952" lon="-3.222388"><ele>642</ele><time>2019-10-02T14:39:00Z</time><name>PT13350</name></trkpt>
<trkpt lat="54.575956" lon="-3.222375"><ele>641</ele><time>2019-10-02T14:39:00Z</time><name>PT13351</name></trkpt>
<trkpt lat="54.575957" lon="-3.222363"><ele>641</ele><time>2019-10-02T14:39:02Z</time><name>PT13352</name></trkpt>
<trkpt lat="54.575959" lon="-3.222350"><ele>641</ele><time>2019-10-02T14:39:02Z</time><name>PT13353</name></trkpt>
<trkpt lat="54.575965" lon="-3.222339"><ele>640</ele><time>2019-10-02T14:39:04Z</time><name>PT13354</name></trkpt>
<trkpt lat="54.575969" lon="-3.222329"><ele>640</ele><time>2019-10-02T14:39:04Z</time><name>PT13355</name></trkpt>
<trkpt lat="54.575973" lon="-3.222318"><ele>640</ele><time>2019-10-02T14:39:06Z</time><name>PT13356</name></trkpt>
<trkpt lat="54.575976" lon="-3.222309"><ele>640</ele><time>2019-10-02T14:39:06Z</time><name>PT13357</name></trkpt>
<trkpt lat="54.575978" lon="-3.222297"><ele>640</ele><time>2019-10-02T14:39:08Z</time><name>PT13358</name></trkpt>
<trkpt lat="54.575979" lon="-3.222289"><ele>640</ele><time>2019-10-02T14:39:08Z</time><name>PT13359</name></trkpt>
<trkpt lat="54.575980" lon="-3.222279"><ele>640</ele><time>2019-10-02T14:39:10Z</time><name>PT13360</name></trkpt>
<trkpt lat="54.575981" lon="-3.222272"><ele>639</ele><time>2019-10-02T14:39:10Z</time><name>PT13361</name></trkpt>
<trkpt lat="54.575983" lon="-3.222260"><ele>639</ele><time>2019-10-02T14:39:12Z</time><name>PT13362</name></trkpt>
<trkpt lat="54.575984" lon="-3.222238"><ele>639</ele><time>2019-10-02T14:39:12Z</time><name>PT13363</name></trkpt>
<trkpt lat="54.575987" lon="-3.222221"><ele>639</ele><time>2019-10-02T14:39:14Z</time><name>PT13364</name></trkpt>
<trkpt lat="54.575989" lon="-3.222205"><ele>639</ele><time>2019-10-02T14:39:14Z</time><name>PT13365</name></trkpt>
<trkpt lat="54.575990" lon="-3.222193"><ele>638</ele><time>2019-10-02T14:39:16Z</time><name>PT13366</name></trkpt>
<trkpt lat="54.575995" lon="-3.222179"><ele>637</ele><time>2019-10-02T14:39:16Z</time><name>PT13367</name></trkpt>
<trkpt lat="54.575994" lon="-3.222162"><ele>637</ele><time>2019-10-02T14:39:18Z</time><name>PT13368</name></trkpt>
<trkpt lat="54.575996" lon="-3.222148"><ele>637</ele><time>2019-10-02T14:39:18Z</time><name>PT13369</name></trkpt>
<trkpt lat="54.576003" lon="-3.222133"><ele>637</ele><time>2019-10-02T14:39:20Z</time><name>PT13370</name></trkpt>
<trkpt lat="54.576006" lon="-3.222113"><ele>636</ele><time>2019-10-02T14:39:20Z</time><name>PT13371</name></trkpt>
<trkpt lat="54.576008" lon="-3.222096"><ele>636</ele><time>2019-10-02T14:39:22Z</time><name>PT13372</name></trkpt>
<trkpt lat="54.576009" lon="-3.222079"><ele>636</ele><time>2019-10-02T14:39:22Z</time><name>PT13373</name></trkpt>
<trkpt lat="54.576010" lon="-3.222059"><ele>636</ele><time>2019-10-02T14:39:24Z</time><name>PT13374</name></trkpt>
<trkpt lat="54.576012" lon="-3.222041"><ele>636</ele><time>2019-10-02T14:39:24Z</time><name>PT13375</name></trkpt>
<trkpt lat="54.576014" lon="-3.222023"><ele>636</ele><time>2019-10-02T14:39:26Z</time><name>PT13376</name></trkpt>
<trkpt lat="54.576017" lon="-3.222009"><ele>635</ele><time>2019-10-02T14:39:26Z</time><name>PT13377</name></trkpt>
<trkpt lat="54.576019" lon="-3.221996"><ele>635</ele><time>2019-10-02T14:39:28Z</time><name>PT13378</name></trkpt>
<trkpt lat="54.576024" lon="-3.221983"><ele>635</ele><time>2019-10-02T14:39:28Z</time><name>PT13379</name></trkpt>
<trkpt lat="54.576030" lon="-3.221970"><ele>635</ele><time>2019-10-02T14:39:30Z</time><name>PT13380</name></trkpt>
<trkpt lat="54.576036" lon="-3.221958"><ele>635</ele><time>2019-10-02T14:39:30Z</time><name>PT13381</name></trkpt>
<trkpt lat="54.576040" lon="-3.221945"><ele>634</ele><time>2019-10-02T14:39:32Z</time><name>PT13382</name></trkpt>
<trkpt lat="54.576044" lon="-3.221929"><ele>634</ele><time>2019-10-02T14:39:32Z</time><name>PT13383</name></trkpt>
<trkpt lat="54.576045" lon="-3.221909"><ele>634</ele><time>2019-10-02T14:39:34Z</time><name>PT13384</name></trkpt>
<trkpt lat="54.576046" lon="-3.221887"><ele>635</ele><time>2019-10-02T14:39:34Z</time><name>PT13385</name></trkpt>
<trkpt lat="54.576045" lon="-3.221866"><ele>635</ele><time>2019-10-02T14:39:36Z</time><name>PT13386</name></trkpt>
<trkpt lat="54.576046" lon="-3.221852"><ele>635</ele><time>2019-10-02T14:39:36Z</time><name>PT13387</name></trkpt>
<trkpt lat="54.576049" lon="-3.221839"><ele>635</ele><time>2019-10-02T14:39:38Z</time><name>PT13388</name></trkpt>
<trkpt lat="54.576055" lon="-3.221826"><ele>634</ele><time>2019-10-02T14:39:38Z</time><name>PT13389</name></trkpt>
<trkpt lat="54.576061" lon="-3.221813"><ele>634</ele><time>2019-10-02T14:39:40Z</time><name>PT13390</name></trkpt>
<trkpt lat="54.576064" lon="-3.221802"><ele>634</ele><time>2019-10-02T14:39:40Z</time><name>PT13391</name></trkpt>
<trkpt lat="54.576068" lon="-3.221790"><ele>634</ele><time>2019-10-02T14:39:42Z</time><name>PT13392</name></trkpt>
<trkpt lat="54.576070" lon="-3.221773"><ele>634</ele><time>2019-10-02T14:39:42Z</time><name>PT13393</name></trkpt>
<trkpt lat="54.576072" lon="-3.221761"><ele>633</ele><time>2019-10-02T14:39:44Z</time><name>PT13394</name></trkpt>
<trkpt lat="54.576072" lon="-3.221747"><ele>633</ele><time>2019-10-02T14:39:44Z</time><name>PT13395</name></trkpt>
<trkpt lat="54.576074" lon="-3.221731"><ele>633</ele><time>2019-10-02T14:39:46Z</time><name>PT13396</name></trkpt>
<trkpt lat="54.576075" lon="-3.221711"><ele>633</ele><time>2019-10-02T14:39:46Z</time><name>PT13397</name></trkpt>
<trkpt lat="54.576076" lon="-3.221691"><ele>633</ele><time>2019-10-02T14:39:48Z</time><name>PT13398</name></trkpt>
<trkpt lat="54.576080" lon="-3.221676"><ele>633</ele><time>2019-10-02T14:39:48Z</time><name>PT13399</name></trkpt>
<trkpt lat="54.576083" lon="-3.221664"><ele>633</ele><time>2019-10-02T14:39:50Z</time><name>PT13400</name></trkpt>
<trkpt lat="54.576087" lon="-3.221649"><ele>632</ele><time>2019-10-02T14:39:50Z</time><name>PT13401</name></trkpt>
<trkpt lat="54.576087" lon="-3.221638"><ele>632</ele><time>2019-10-02T14:39:52Z</time><name>PT13402</name></trkpt>
<trkpt lat="54.576088" lon="-3.221631"><ele>632</ele><time>2019-10-02T14:39:52Z</time><name>PT13403</name></trkpt>
<trkpt lat="54.576089" lon="-3.221622"><ele>632</ele><time>2019-10-02T14:39:54Z</time><name>PT13404</name></trkpt>
<trkpt lat="54.576091" lon="-3.221612"><ele>631</ele><time>2019-10-02T14:39:54Z</time><name>PT13405</name></trkpt>
<trkpt lat="54.576093" lon="-3.221610"><ele>631</ele><time>2019-10-02T14:39:56Z</time><name>PT13406</name></trkpt>
<trkpt lat="54.576096" lon="-3.221608"><ele>630</ele><time>2019-10-02T14:39:56Z</time><name>PT13407</name></trkpt>
<trkpt lat="54.576100" lon="-3.221598"><ele>630</ele><time>2019-10-02T14:39:58Z</time><name>PT13408</name></trkpt>
<trkpt lat="54.576102" lon="-3.221586"><ele>630</ele><time>2019-10-02T14:39:58Z</time><name>PT13409</name></trkpt>
<trkpt lat="54.576102" lon="-3.221572"><ele>630</ele><time>2019-10-02T14:40:00Z</time><name>PT13410</name></trkpt>
<trkpt lat="54.576102" lon="-3.221551"><ele>630</ele><time>2019-10-02T14:40:00Z</time><name>PT13411</name></trkpt>
<trkpt lat="54.576101" lon="-3.221531"><ele>630</ele><time>2019-10-02T14:40:02Z</time><name>PT13412</name></trkpt>
<trkpt lat="54.576101" lon="-3.221516"><ele>630</ele><time>2019-10-02T14:40:02Z</time><name>PT13413</name></trkpt>
<trkpt lat="54.576099" lon="-3.221499"><ele>630</ele><time>2019-10-02T14:40:04Z</time><name>PT13414</name></trkpt>
<trkpt lat="54.576099" lon="-3.221476"><ele>630</ele><time>2019-10-02T14:40:04Z</time><name>PT13415</name></trkpt>
<trkpt lat="54.576100" lon="-3.221458"><ele>630</ele><time>2019-10-02T14:40:06Z</time><name>PT13416</name></trkpt>
<trkpt lat="54.576100" lon="-3.221443"><ele>630</ele><time>2019-10-02T14:40:07Z</time><name>PT13417</name></trkpt>
<trkpt lat="54.576102" lon="-3.221420"><ele>629</ele><time>2019-10-02T14:40:08Z</time><name>PT13418</name></trkpt>
<trkpt lat="54.576103" lon="-3.221401"><ele>629</ele><time>2019-10-02T14:40:09Z</time><name>PT13419</name></trkpt>
<trkpt lat="54.576105" lon="-3.221383"><ele>629</ele><time>2019-10-02T14:40:10Z</time><name>PT13420</name></trkpt>
<trkpt lat="54.576106" lon="-3.221362"><ele>629</ele><time>2019-10-02T14:40:11Z</time><name>PT13421</name></trkpt>
<trkpt lat="54.576107" lon="-3.221342"><ele>629</ele><time>2019-10-02T14:40:12Z</time><name>PT13422</name></trkpt>
<trkpt lat="54.576108" lon="-3.221320"><ele>629</ele><time>2019-10-02T14:40:13Z</time><name>PT13423</name></trkpt>
<trkpt lat="54.576108" lon="-3.221301"><ele>630</ele><time>2019-10-02T14:40:14Z</time><name>PT13424</name></trkpt>
<trkpt lat="54.576107" lon="-3.221285"><ele>630</ele><time>2019-10-02T14:40:15Z</time><name>PT13425</name></trkpt>
<trkpt lat="54.576106" lon="-3.221265"><ele>630</ele><time>2019-10-02T14:40:16Z</time><name>PT13426</name></trkpt>
<trkpt lat="54.576106" lon="-3.221247"><ele>630</ele><time>2019-10-02T14:40:17Z</time><name>PT13427</name></trkpt>
<trkpt lat="54.576105" lon="-3.221228"><ele>630</ele><time>2019-10-02T14:40:18Z</time><name>PT13428</name></trkpt>
<trkpt lat="54.576105" lon="-3.221211"><ele>630</ele><time>2019-10-02T14:40:18Z</time><name>PT13429</name></trkpt>
<trkpt lat="54.576105" lon="-3.221195"><ele>629</ele><time>2019-10-02T14:40:20Z</time><name>PT13430</name></trkpt>
<trkpt lat="54.576108" lon="-3.221178"><ele>630</ele><time>2019-10-02T14:40:21Z</time><name>PT13431</name></trkpt>
<trkpt lat="54.576111" lon="-3.221166"><ele>630</ele><time>2019-10-02T14:40:22Z</time><name>PT13432</name></trkpt>
<trkpt lat="54.576113" lon="-3.221149"><ele>630</ele><time>2019-10-02T14:40:22Z</time><name>PT13433</name></trkpt>
<trkpt lat="54.576115" lon="-3.221139"><ele>630</ele><time>2019-10-02T14:40:24Z</time><name>PT13434</name></trkpt>
<trkpt lat="54.576116" lon="-3.221124"><ele>630</ele><time>2019-10-02T14:40:24Z</time><name>PT13435</name></trkpt>
<trkpt lat="54.576116" lon="-3.221109"><ele>630</ele><time>2019-10-02T14:40:26Z</time><name>PT13436</name></trkpt>
<trkpt lat="54.576115" lon="-3.221092"><ele>630</ele><time>2019-10-02T14:40:26Z</time><name>PT13437</name></trkpt>
<trkpt lat="54.576115" lon="-3.221083"><ele>630</ele><time>2019-10-02T14:40:28Z</time><name>PT13438</name></trkpt>
<trkpt lat="54.576114" lon="-3.221082"><ele>629</ele><time>2019-10-02T14:40:28Z</time><name>PT13439</name></trkpt>
<trkpt lat="54.576114" lon="-3.221083"><ele>629</ele><time>2019-10-02T14:40:30Z</time><name>PT13440</name></trkpt>
<trkpt lat="54.576114" lon="-3.221083"><ele>629</ele><time>2019-10-02T14:40:30Z</time><name>PT13441</name></trkpt>
<trkpt lat="54.576113" lon="-3.221080"><ele>629</ele><time>2019-10-02T14:40:32Z</time><name>PT13442</name></trkpt>
<trkpt lat="54.576115" lon="-3.221055"><ele>629</ele><time>2019-10-02T14:40:34Z</time><name>PT13443</name></trkpt>
<trkpt lat="54.576114" lon="-3.221034"><ele>629</ele><time>2019-10-02T14:40:34Z</time><name>PT13444</name></trkpt>
<trkpt lat="54.576116" lon="-3.221014"><ele>629</ele><time>2019-10-02T14:40:36Z</time><name>PT13445</name></trkpt>
<trkpt lat="54.576120" lon="-3.220993"><ele>630</ele><time>2019-10-02T14:40:36Z</time><name>PT13446</name></trkpt>
<trkpt lat="54.576127" lon="-3.220977"><ele>630</ele><time>2019-10-02T14:40:38Z</time><name>PT13447</name></trkpt>
<trkpt lat="54.576130" lon="-3.220962"><ele>630</ele><time>2019-10-02T14:40:38Z</time><name>PT13448</name></trkpt>
<trkpt lat="54.576134" lon="-3.220944"><ele>630</ele><time>2019-10-02T14:40:40Z</time><name>PT13449</name></trkpt>
<trkpt lat="54.576136" lon="-3.220932"><ele>630</ele><time>2019-10-02T14:40:40Z</time><name>PT13450</name></trkpt>
<trkpt lat="54.576139" lon="-3.220916"><ele>630</ele><time>2019-10-02T14:40:42Z</time><name>PT13451</name></trkpt>
<trkpt lat="54.576141" lon="-3.220900"><ele>630</ele><time>2019-10-02T14:40:42Z</time><name>PT13452</name></trkpt>
<trkpt lat="54.576141" lon="-3.220884"><ele>630</ele><time>2019-10-02T14:40:44Z</time><name>PT13453</name></trkpt>
<trkpt lat="54.576141" lon="-3.220866"><ele>630</ele><time>2019-10-02T14:40:44Z</time><name>PT13454</name></trkpt>
<trkpt lat="54.576143" lon="-3.220848"><ele>630</ele><time>2019-10-02T14:40:46Z</time><name>PT13455</name></trkpt>
<trkpt lat="54.576146" lon="-3.220832"><ele>629</ele><time>2019-10-02T14:40:46Z</time><name>PT13456</name></trkpt>
<trkpt lat="54.576148" lon="-3.220811"><ele>629</ele><time>2019-10-02T14:40:48Z</time><name>PT13457</name></trkpt>
<trkpt lat="54.576151" lon="-3.220798"><ele>629</ele><time>2019-10-02T14:40:48Z</time><name>PT13458</name></trkpt>
<trkpt lat="54.576157" lon="-3.220783"><ele>629</ele><time>2019-10-02T14:40:50Z</time><name>PT13459</name></trkpt>
<trkpt lat="54.576161" lon="-3.220766"><ele>629</ele><time>2019-10-02T14:40:50Z</time><name>PT13460</name></trkpt>
<trkpt lat="54.576166" lon="-3.220749"><ele>629</ele><time>2019-10-02T14:40:52Z</time><name>PT13461</name></trkpt>
<trkpt lat="54.576168" lon="-3.220734"><ele>628</ele><time>2019-10-02T14:40:52Z</time><name>PT13462</name></trkpt>
<trkpt lat="54.576169" lon="-3.220715"><ele>628</ele><time>2019-10-02T14:40:54Z</time><name>PT13463</name></trkpt>
<trkpt lat="54.576170" lon="-3.220697"><ele>628</ele><time>2019-10-02T14:40:54Z</time><name>PT13464</name></trkpt>
<trkpt lat="54.576171" lon="-3.220678"><ele>629</ele><time>2019-10-02T14:40:56Z</time><name>PT13465</name></trkpt>
<trkpt lat="54.576172" lon="-3.220661"><ele>628</ele><time>2019-10-02T14:40:56Z</time><name>PT13466</name></trkpt>
<trkpt lat="54.576173" lon="-3.220641"><ele>628</ele><time>2019-10-02T14:40:58Z</time><name>PT13467</name></trkpt>
<trkpt lat="54.576175" lon="-3.220626"><ele>628</ele><time>2019-10-02T14:40:58Z</time><name>PT13468</name></trkpt>
<trkpt lat="54.576176" lon="-3.220609"><ele>628</ele><time>2019-10-02T14:41:00Z</time><name>PT13469</name></trkpt>
<trkpt lat="54.576177" lon="-3.220593"><ele>628</ele><time>2019-10-02T14:41:00Z</time><name>PT13470</name></trkpt>
<trkpt lat="54.576177" lon="-3.220579"><ele>628</ele><time>2019-10-02T14:41:02Z</time><name>PT13471</name></trkpt>
<trkpt lat="54.576177" lon="-3.220564"><ele>627</ele><time>2019-10-02T14:41:02Z</time><name>PT13472</name></trkpt>
<trkpt lat="54.576178" lon="-3.220546"><ele>627</ele><time>2019-10-02T14:41:04Z</time><name>PT13473</name></trkpt>
<trkpt lat="54.576182" lon="-3.220535"><ele>627</ele><time>2019-10-02T14:41:04Z</time><name>PT13474</name></trkpt>
<trkpt lat="54.576186" lon="-3.220532"><ele>627</ele><time>2019-10-02T14:41:06Z</time><name>PT13475</name></trkpt>
<trkpt lat="54.576190" lon="-3.220528"><ele>627</ele><time>2019-10-02T14:41:06Z</time><name>PT13476</name></trkpt>
<trkpt lat="54.576194" lon="-3.220520"><ele>627</ele><time>2019-10-02T14:41:08Z</time><name>PT13477</name></trkpt>
<trkpt lat="54.576198" lon="-3.220508"><ele>627</ele><time>2019-10-02T14:41:08Z</time><name>PT13478</name></trkpt>
<trkpt lat="54.576204" lon="-3.220495"><ele>627</ele><time>2019-10-02T14:41:10Z</time><name>PT13479</name></trkpt>
<trkpt lat="54.576211" lon="-3.220482"><ele>626</ele><time>2019-10-02T14:41:10Z</time><name>PT13480</name></trkpt>
<trkpt lat="54.576218" lon="-3.220468"><ele>626</ele><time>2019-10-02T14:41:12Z</time><name>PT13481</name></trkpt>
<trkpt lat="54.576224" lon="-3.220456"><ele>626</ele><time>2019-10-02T14:41:12Z</time><name>PT13482</name></trkpt>
<trkpt lat="54.576229" lon="-3.220441"><ele>626</ele><time>2019-10-02T14:41:14Z</time><name>PT13483</name></trkpt>
<trkpt lat="54.576233" lon="-3.220424"><ele>626</ele><time>2019-10-02T14:41:14Z</time><name>PT13484</name></trkpt>
<trkpt lat="54.576236" lon="-3.220411"><ele>625</ele><time>2019-10-02T14:41:16Z</time><name>PT13485</name></trkpt>
<trkpt lat="54.576239" lon="-3.220398"><ele>625</ele><time>2019-10-02T14:41:16Z</time><name>PT13486</name></trkpt>
<trkpt lat="54.576243" lon="-3.220385"><ele>625</ele><time>2019-10-02T14:41:18Z</time><name>PT13487</name></trkpt>
<trkpt lat="54.576245" lon="-3.220366"><ele>624</ele><time>2019-10-02T14:41:19Z</time><name>PT13488</name></trkpt>
<trkpt lat="54.576247" lon="-3.220349"><ele>624</ele><time>2019-10-02T14:41:20Z</time><name>PT13489</name></trkpt>
<trkpt lat="54.576250" lon="-3.220337"><ele>624</ele><time>2019-10-02T14:41:21Z</time><name>PT13490</name></trkpt>
<trkpt lat="54.576251" lon="-3.220324"><ele>624</ele><time>2019-10-02T14:41:22Z</time><name>PT13491</name></trkpt>
<trkpt lat="54.576251" lon="-3.220309"><ele>623</ele><time>2019-10-02T14:41:22Z</time><name>PT13492</name></trkpt>
<trkpt lat="54.576249" lon="-3.220293"><ele>623</ele><time>2019-10-02T14:41:24Z</time><name>PT13493</name></trkpt>
<trkpt lat="54.576247" lon="-3.220275"><ele>623</ele><time>2019-10-02T14:41:25Z</time><name>PT13494</name></trkpt>
<trkpt lat="54.576246" lon="-3.220260"><ele>623</ele><time>2019-10-02T14:41:26Z</time><name>PT13495</name></trkpt>
<trkpt lat="54.576248" lon="-3.220245"><ele>623</ele><time>2019-10-02T14:41:27Z</time><name>PT13496</name></trkpt>
<trkpt lat="54.576251" lon="-3.220228"><ele>622</ele><time>2019-10-02T14:41:28Z</time><name>PT13497</name></trkpt>
<trkpt lat="54.576253" lon="-3.220209"><ele>622</ele><time>2019-10-02T14:41:29Z</time><name>PT13498</name></trkpt>
<trkpt lat="54.576253" lon="-3.220188"><ele>622</ele><time>2019-10-02T14:41:30Z</time><name>PT13499</name></trkpt>
<trkpt lat="54.576252" lon="-3.220171"><ele>621</ele><time>2019-10-02T14:41:30Z</time><name>PT13500</name></trkpt>
<trkpt lat="54.576249" lon="-3.220156"><ele>621</ele><time>2019-10-02T14:41:32Z</time><name>PT13501</name></trkpt>
<trkpt lat="54.576248" lon="-3.220140"><ele>621</ele><time>2019-10-02T14:41:32Z</time><name>PT13502</name></trkpt>
<trkpt lat="54.576249" lon="-3.220127"><ele>621</ele><time>2019-10-02T14:41:34Z</time><name>PT13503</name></trkpt>
<trkpt lat="54.576249" lon="-3.220114"><ele>621</ele><time>2019-10-02T14:41:34Z</time><name>PT13504</name></trkpt>
<trkpt lat="54.576250" lon="-3.220104"><ele>620</ele><time>2019-10-02T14:41:36Z</time><name>PT13505</name></trkpt>
<trkpt lat="54.576250" lon="-3.220086"><ele>620</ele><time>2019-10-02T14:41:36Z</time><name>PT13506</name></trkpt>
<trkpt lat="54.576246" lon="-3.220070"><ele>620</ele><time>2019-10-02T14:41:38Z</time><name>PT13507</name></trkpt>
<trkpt lat="54.576244" lon="-3.220052"><ele>619</ele><time>2019-10-02T14:41:38Z</time><name>PT13508</name></trkpt>
<trkpt lat="54.576243" lon="-3.220036"><ele>619</ele><time>2019-10-02T14:41:40Z</time><name>PT13509</name></trkpt>
<trkpt lat="54.576242" lon="-3.220019"><ele>619</ele><time>2019-10-02T14:41:40Z</time><name>PT13510</name></trkpt>
<trkpt lat="54.576242" lon="-3.220005"><ele>619</ele><time>2019-10-02T14:41:42Z</time><name>PT13511</name></trkpt>
<trkpt lat="54.576242" lon="-3.219994"><ele>618</ele><time>2019-10-02T14:41:42Z</time><name>PT13512</name></trkpt>
<trkpt lat="54.576242" lon="-3.219984"><ele>618</ele><time>2019-10-02T14:41:44Z</time><name>PT13513</name></trkpt>
<trkpt lat="54.576244" lon="-3.219969"><ele>618</ele><time>2019-10-02T14:41:44Z</time><name>PT13514</name></trkpt>
<trkpt lat="54.576247" lon="-3.219951"><ele>617</ele><time>2019-10-02T14:41:46Z</time><name>PT13515</name></trkpt>
<trkpt lat="54.576247" lon="-3.219931"><ele>617</ele><time>2019-10-02T14:41:46Z</time><name>PT13516</name></trkpt>
<trkpt lat="54.576247" lon="-3.219913"><ele>617</ele><time>2019-10-02T14:41:48Z</time><name>PT13517</name></trkpt>
<trkpt lat="54.576249" lon="-3.219897"><ele>617</ele><time>2019-10-02T14:41:48Z</time><name>PT13518</name></trkpt>
<trkpt lat="54.576251" lon="-3.219884"><ele>617</ele><time>2019-10-02T14:41:50Z</time><name>PT13519</name></trkpt>
<trkpt lat="54.576253" lon="-3.219870"><ele>616</ele><time>2019-10-02T14:41:50Z</time><name>PT13520</name></trkpt>
<trkpt lat="54.576251" lon="-3.219858"><ele>616</ele><time>2019-10-02T14:41:52Z</time><name>PT13521</name></trkpt>
<trkpt lat="54.576248" lon="-3.219844"><ele>616</ele><time>2019-10-02T14:41:52Z</time><name>PT13522</name></trkpt>
<trkpt lat="54.576246" lon="-3.219826"><ele>616</ele><time>2019-10-02T14:41:54Z</time><name>PT13523</name></trkpt>
<trkpt lat="54.576248" lon="-3.219811"><ele>615</ele><time>2019-10-02T14:41:54Z</time><name>PT13524</name></trkpt>
<trkpt lat="54.576254" lon="-3.219795"><ele>615</ele><time>2019-10-02T14:41:56Z</time><name>PT13525</name></trkpt>
<trkpt lat="54.576259" lon="-3.219783"><ele>615</ele><time>2019-10-02T14:41:57Z</time><name>PT13526</name></trkpt>
<trkpt lat="54.576265" lon="-3.219775"><ele>615</ele><time>2019-10-02T14:41:58Z</time><name>PT13527</name></trkpt>
<trkpt lat="54.576272" lon="-3.219763"><ele>615</ele><time>2019-10-02T14:41:59Z</time><name>PT13528</name></trkpt>
<trkpt lat="54.576279" lon="-3.219755"><ele>614</ele><time>2019-10-02T14:42:00Z</time><name>PT13529</name></trkpt>
<trkpt lat="54.576279" lon="-3.219749"><ele>614</ele><time>2019-10-02T14:42:01Z</time><name>PT13530</name></trkpt>
<trkpt lat="54.576277" lon="-3.219746"><ele>614</ele><time>2019-10-02T14:42:02Z</time><name>PT13531</name></trkpt>
<trkpt lat="54.576277" lon="-3.219742"><ele>614</ele><time>2019-10-02T14:42:02Z</time><name>PT13532</name></trkpt>
<trkpt lat="54.576278" lon="-3.219728"><ele>614</ele><time>2019-10-02T14:42:04Z</time><name>PT13533</name></trkpt>
<trkpt lat="54.576280" lon="-3.219715"><ele>614</ele><time>2019-10-02T14:42:05Z</time><name>PT13534</name></trkpt>
<trkpt lat="54.576283" lon="-3.219699"><ele>613</ele><time>2019-10-02T14:42:06Z</time><name>PT13535</name></trkpt>
<trkpt lat="54.576282" lon="-3.219681"><ele>613</ele><time>2019-10-02T14:42:07Z</time><name>PT13536</name></trkpt>
<trkpt lat="54.576285" lon="-3.219666"><ele>613</ele><time>2019-10-02T14:42:08Z</time><name>PT13537</name></trkpt>
<trkpt lat="54.576287" lon="-3.219648"><ele>613</ele><time>2019-10-02T14:42:09Z</time><name>PT13538</name></trkpt>
<trkpt lat="54.576291" lon="-3.219634"><ele>613</ele><time>2019-10-02T14:42:10Z</time><name>PT13539</name></trkpt>
<trkpt lat="54.576296" lon="-3.219619"><ele>613</ele><time>2019-10-02T14:42:10Z</time><name>PT13540</name></trkpt>
<trkpt lat="54.576299" lon="-3.219607"><ele>612</ele><time>2019-10-02T14:42:12Z</time><name>PT13541</name></trkpt>
<trkpt lat="54.576302" lon="-3.219597"><ele>612</ele><time>2019-10-02T14:42:12Z</time><name>PT13542</name></trkpt>
<trkpt lat="54.576303" lon="-3.219581"><ele>612</ele><time>2019-10-02T14:42:14Z</time><name>PT13543</name></trkpt>
<trkpt lat="54.576304" lon="-3.219564"><ele>611</ele><time>2019-10-02T14:42:14Z</time><name>PT13544</name></trkpt>
<trkpt lat="54.576306" lon="-3.219546"><ele>611</ele><time>2019-10-02T14:42:16Z</time><name>PT13545</name></trkpt>
<trkpt lat="54.576309" lon="-3.219531"><ele>611</ele><time>2019-10-02T14:42:16Z</time><name>PT13546</name></trkpt>
<trkpt lat="54.576313" lon="-3.219515"><ele>611</ele><time>2019-10-02T14:42:18Z</time><name>PT13547</name></trkpt>
<trkpt lat="54.576318" lon="-3.219493"><ele>611</ele><time>2019-10-02T14:42:18Z</time><name>PT13548</name></trkpt>
<trkpt lat="54.576321" lon="-3.219478"><ele>611</ele><time>2019-10-02T14:42:20Z</time><name>PT13549</name></trkpt>
<trkpt lat="54.576324" lon="-3.219462"><ele>611</ele><time>2019-10-02T14:42:20Z</time><name>PT13550</name></trkpt>
<trkpt lat="54.576328" lon="-3.219447"><ele>611</ele><time>2019-10-02T14:42:22Z</time><name>PT13551</name></trkpt>
<trkpt lat="54.576332" lon="-3.219432"><ele>610</ele><time>2019-10-02T14:42:22Z</time><name>PT13552</name></trkpt>
<trkpt lat="54.576337" lon="-3.219418"><ele>610</ele><time>2019-10-02T14:42:24Z</time><name>PT13553</name></trkpt>
<trkpt lat="54.576342" lon="-3.219403"><ele>610</ele><time>2019-10-02T14:42:24Z</time><name>PT13554</name></trkpt>
<trkpt lat="54.576345" lon="-3.219389"><ele>610</ele><time>2019-10-02T14:42:26Z</time><name>PT13555</name></trkpt>
<trkpt lat="54.576350" lon="-3.219376"><ele>610</ele><time>2019-10-02T14:42:26Z</time><name>PT13556</name></trkpt>
<trkpt lat="54.576351" lon="-3.219363"><ele>609</ele><time>2019-10-02T14:42:28Z</time><name>PT13557</name></trkpt>
<trkpt lat="54.576353" lon="-3.219348"><ele>609</ele><time>2019-10-02T14:42:28Z</time><name>PT13558</name></trkpt>
<trkpt lat="54.576355" lon="-3.219329"><ele>609</ele><time>2019-10-02T14:42:30Z</time><name>PT13559</name></trkpt>
<trkpt lat="54.576357" lon="-3.219314"><ele>609</ele><time>2019-10-02T14:42:30Z</time><name>PT13560</name></trkpt>
<trkpt lat="54.576356" lon="-3.219297"><ele>609</ele><time>2019-10-02T14:42:32Z</time><name>PT13561</name></trkpt>
<trkpt lat="54.576355" lon="-3.219279"><ele>609</ele><time>2019-10-02T14:42:32Z</time><name>PT13562</name></trkpt>
<trkpt lat="54.576354" lon="-3.219258"><ele>609</ele><time>2019-10-02T14:42:34Z</time><name>PT13563</name></trkpt>
<trkpt lat="54.576357" lon="-3.219240"><ele>608</ele><time>2019-10-02T14:42:34Z</time><name>PT13564</name></trkpt>
<trkpt lat="54.576360" lon="-3.219223"><ele>608</ele><time>2019-10-02T14:42:36Z</time><name>PT13565</name></trkpt>
<trkpt lat="54.576362" lon="-3.219206"><ele>608</ele><time>2019-10-02T14:42:36Z</time><name>PT13566</name></trkpt>
<trkpt lat="54.576363" lon="-3.219185"><ele>608</ele><time>2019-10-02T14:42:38Z</time><name>PT13567</name></trkpt>
<trkpt lat="54.576362" lon="-3.219165"><ele>608</ele><time>2019-10-02T14:42:38Z</time><name>PT13568</name></trkpt>
<trkpt lat="54.576360" lon="-3.219145"><ele>607</ele><time>2019-10-02T14:42:40Z</time><name>PT13569</name></trkpt>
<trkpt lat="54.576357" lon="-3.219121"><ele>607</ele><time>2019-10-02T14:42:40Z</time><name>PT13570</name></trkpt>
<trkpt lat="54.576355" lon="-3.219099"><ele>607</ele><time>2019-10-02T14:42:42Z</time><name>PT13571</name></trkpt>
<trkpt lat="54.576353" lon="-3.219078"><ele>607</ele><time>2019-10-02T14:42:42Z</time><name>PT13572</name></trkpt>
<trkpt lat="54.576351" lon="-3.219060"><ele>607</ele><time>2019-10-02T14:42:44Z</time><name>PT13573</name></trkpt>
<trkpt lat="54.576348" lon="-3.219042"><ele>607</ele><time>2019-10-02T14:42:44Z</time><name>PT13574</name></trkpt>
<trkpt lat="54.576348" lon="-3.219018"><ele>607</ele><time>2019-10-02T14:42:46Z</time><name>PT13575</name></trkpt>
<trkpt lat="54.576352" lon="-3.218997"><ele>607</ele><time>2019-10-02T14:42:46Z</time><name>PT13576</name></trkpt>
<trkpt lat="54.576358" lon="-3.218978"><ele>607</ele><time>2019-10-02T14:42:48Z</time><name>PT13577</name></trkpt>
<trkpt lat="54.576364" lon="-3.218957"><ele>607</ele><time>2019-10-02T14:42:48Z</time><name>PT13578</name></trkpt>
<trkpt lat="54.576368" lon="-3.218944"><ele>607</ele><time>2019-10-02T14:42:50Z</time><name>PT13579</name></trkpt>
<trkpt lat="54.576371" lon="-3.218930"><ele>607</ele><time>2019-10-02T14:42:50Z</time><name>PT13580</name></trkpt>
<trkpt lat="54.576374" lon="-3.218911"><ele>606</ele><time>2019-10-02T14:42:52Z</time><name>PT13581</name></trkpt>
<trkpt lat="54.576378" lon="-3.218896"><ele>606</ele><time>2019-10-02T14:42:52Z</time><name>PT13582</name></trkpt>
<trkpt lat="54.576380" lon="-3.218881"><ele>605</ele><time>2019-10-02T14:42:54Z</time><name>PT13583</name></trkpt>
<trkpt lat="54.576383" lon="-3.218863"><ele>605</ele><time>2019-10-02T14:42:54Z</time><name>PT13584</name></trkpt>
<trkpt lat="54.576386" lon="-3.218841"><ele>605</ele><time>2019-10-02T14:42:56Z</time><name>PT13585</name></trkpt>
<trkpt lat="54.576390" lon="-3.218821"><ele>605</ele><time>2019-10-02T14:42:56Z</time><name>PT13586</name></trkpt>
<trkpt lat="54.576393" lon="-3.218806"><ele>605</ele><time>2019-10-02T14:42:58Z</time><name>PT13587</name></trkpt>
<trkpt lat="54.576397" lon="-3.218792"><ele>604</ele><time>2019-10-02T14:42:58Z</time><name>PT13588</name></trkpt>
<trkpt lat="54.576400" lon="-3.218773"><ele>604</ele><time>2019-10-02T14:43:00Z</time><name>PT13589</name></trkpt>
<trkpt lat="54.576401" lon="-3.218757"><ele>604</ele><time>2019-10-02T14:43:00Z</time><name>PT13590</name></trkpt>
<trkpt lat="54.576401" lon="-3.218737"><ele>604</ele><time>2019-10-02T14:43:02Z</time><name>PT13591</name></trkpt>
<trkpt lat="54.576403" lon="-3.218714"><ele>604</ele><time>2019-10-02T14:43:02Z</time><name>PT13592</name></trkpt>
<trkpt lat="54.576407" lon="-3.218690"><ele>604</ele><time>2019-10-02T14:43:04Z</time><name>PT13593</name></trkpt>
<trkpt lat="54.576412" lon="-3.218673"><ele>604</ele><time>2019-10-02T14:43:04Z</time><name>PT13594</name></trkpt>
<trkpt lat="54.576415" lon="-3.218655"><ele>604</ele><time>2019-10-02T14:43:06Z</time><name>PT13595</name></trkpt>
<trkpt lat="54.576419" lon="-3.218633"><ele>604</ele><time>2019-10-02T14:43:06Z</time><name>PT13596</name></trkpt>
<trkpt lat="54.576421" lon="-3.218610"><ele>604</ele><time>2019-10-02T14:43:08Z</time><name>PT13597</name></trkpt>
<trkpt lat="54.576424" lon="-3.218586"><ele>604</ele><time>2019-10-02T14:43:08Z</time><name>PT13598</name></trkpt>
<trkpt lat="54.576425" lon="-3.218564"><ele>604</ele><time>2019-10-02T14:43:10Z</time><name>PT13599</name></trkpt>
<trkpt lat="54.576427" lon="-3.218541"><ele>605</ele><time>2019-10-02T14:43:10Z</time><name>PT13600</name></trkpt>
<trkpt lat="54.576427" lon="-3.218521"><ele>605</ele><time>2019-10-02T14:43:12Z</time><name>PT13601</name></trkpt>
<trkpt lat="54.576425" lon="-3.218502"><ele>605</ele><time>2019-10-02T14:43:12Z</time><name>PT13602</name></trkpt>
<trkpt lat="54.576425" lon="-3.218486"><ele>605</ele><time>2019-10-02T14:43:14Z</time><name>PT13603</name></trkpt>
<trkpt lat="54.576425" lon="-3.218464"><ele>604</ele><time>2019-10-02T14:43:14Z</time><name>PT13604</name></trkpt>
<trkpt lat="54.576425" lon="-3.218446"><ele>604</ele><time>2019-10-02T14:43:16Z</time><name>PT13605</name></trkpt>
<trkpt lat="54.576423" lon="-3.218430"><ele>604</ele><time>2019-10-02T14:43:16Z</time><name>PT13606</name></trkpt>
<trkpt lat="54.576421" lon="-3.218410"><ele>604</ele><time>2019-10-02T14:43:18Z</time><name>PT13607</name></trkpt>
<trkpt lat="54.576420" lon="-3.218388"><ele>604</ele><time>2019-10-02T14:43:18Z</time><name>PT13608</name></trkpt>
<trkpt lat="54.576420" lon="-3.218366"><ele>604</ele><time>2019-10-02T14:43:20Z</time><name>PT13609</name></trkpt>
<trkpt lat="54.576419" lon="-3.218344"><ele>604</ele><time>2019-10-02T14:43:20Z</time><name>PT13610</name></trkpt>
<trkpt lat="54.576420" lon="-3.218328"><ele>604</ele><time>2019-10-02T14:43:22Z</time><name>PT13611</name></trkpt>
<trkpt lat="54.576420" lon="-3.218316"><ele>604</ele><time>2019-10-02T14:43:22Z</time><name>PT13612</name></trkpt>
<trkpt lat="54.576422" lon="-3.218301"><ele>604</ele><time>2019-10-02T14:43:24Z</time><name>PT13613</name></trkpt>
<trkpt lat="54.576424" lon="-3.218280"><ele>604</ele><time>2019-10-02T14:43:24Z</time><name>PT13614</name></trkpt>
<trkpt lat="54.576425" lon="-3.218263"><ele>603</ele><time>2019-10-02T14:43:26Z</time><name>PT13615</name></trkpt>
<trkpt lat="54.576427" lon="-3.218240"><ele>604</ele><time>2019-10-02T14:43:26Z</time><name>PT13616</name></trkpt>
<trkpt lat="54.576430" lon="-3.218215"><ele>605</ele><time>2019-10-02T14:43:28Z</time><name>PT13617</name></trkpt>
<trkpt lat="54.576432" lon="-3.218196"><ele>604</ele><time>2019-10-02T14:43:28Z</time><name>PT13618</name></trkpt>
<trkpt lat="54.576436" lon="-3.218180"><ele>604</ele><time>2019-10-02T14:43:30Z</time><name>PT13619</name></trkpt>
<trkpt lat="54.576437" lon="-3.218162"><ele>604</ele><time>2019-10-02T14:43:30Z</time><name>PT13620</name></trkpt>
<trkpt lat="54.576442" lon="-3.218146"><ele>604</ele><time>2019-10-02T14:43:32Z</time><name>PT13621</name></trkpt>
<trkpt lat="54.576445" lon="-3.218129"><ele>604</ele><time>2019-10-02T14:43:32Z</time><name>PT13622</name></trkpt>
<trkpt lat="54.576449" lon="-3.218113"><ele>603</ele><time>2019-10-02T14:43:34Z</time><name>PT13623</name></trkpt>
<trkpt lat="54.576452" lon="-3.218096"><ele>603</ele><time>2019-10-02T14:43:34Z</time><name>PT13624</name></trkpt>
<trkpt lat="54.576454" lon="-3.218074"><ele>603</ele><time>2019-10-02T14:43:36Z</time><name>PT13625</name></trkpt>
<trkpt lat="54.576456" lon="-3.218049"><ele>603</ele><time>2019-10-02T14:43:37Z</time><name>PT13626</name></trkpt>
<trkpt lat="54.576457" lon="-3.218029"><ele>603</ele><time>2019-10-02T14:43:38Z</time><name>PT13627</name></trkpt>
<trkpt lat="54.576459" lon="-3.218007"><ele>603</ele><time>2019-10-02T14:43:39Z</time><name>PT13628</name></trkpt>
<trkpt lat="54.576462" lon="-3.217985"><ele>604</ele><time>2019-10-02T14:43:40Z</time><name>PT13629</name></trkpt>
<trkpt lat="54.576465" lon="-3.217962"><ele>604</ele><time>2019-10-02T14:43:40Z</time><name>PT13630</name></trkpt>
<trkpt lat="54.576466" lon="-3.217943"><ele>603</ele><time>2019-10-02T14:43:42Z</time><name>PT13631</name></trkpt>
<trkpt lat="54.576467" lon="-3.217921"><ele>603</ele><time>2019-10-02T14:43:43Z</time><name>PT13632</name></trkpt>
<trkpt lat="54.576468" lon="-3.217895"><ele>603</ele><time>2019-10-02T14:43:44Z</time><name>PT13633</name></trkpt>
<trkpt lat="54.576470" lon="-3.217874"><ele>603</ele><time>2019-10-02T14:43:45Z</time><name>PT13634</name></trkpt>
<trkpt lat="54.576474" lon="-3.217853"><ele>603</ele><time>2019-10-02T14:43:46Z</time><name>PT13635</name></trkpt>
<trkpt lat="54.576479" lon="-3.217833"><ele>603</ele><time>2019-10-02T14:43:47Z</time><name>PT13636</name></trkpt>
<trkpt lat="54.576481" lon="-3.217811"><ele>603</ele><time>2019-10-02T14:43:48Z</time><name>PT13637</name></trkpt>
<trkpt lat="54.576482" lon="-3.217790"><ele>603</ele><time>2019-10-02T14:43:49Z</time><name>PT13638</name></trkpt>
<trkpt lat="54.576486" lon="-3.217769"><ele>603</ele><time>2019-10-02T14:43:50Z</time><name>PT13639</name></trkpt>
<trkpt lat="54.576489" lon="-3.217747"><ele>603</ele><time>2019-10-02T14:43:50Z</time><name>PT13640</name></trkpt>
<trkpt lat="54.576492" lon="-3.217727"><ele>603</ele><time>2019-10-02T14:43:52Z</time><name>PT13641</name></trkpt>
<trkpt lat="54.576496" lon="-3.217708"><ele>602</ele><time>2019-10-02T14:43:52Z</time><name>PT13642</name></trkpt>
<trkpt lat="54.576500" lon="-3.217693"><ele>602</ele><time>2019-10-02T14:43:54Z</time><name>PT13643</name></trkpt>
<trkpt lat="54.576504" lon="-3.217671"><ele>602</ele><time>2019-10-02T14:43:54Z</time><name>PT13644</name></trkpt>
<trkpt lat="54.576507" lon="-3.217653"><ele>602</ele><time>2019-10-02T14:43:56Z</time><name>PT13645</name></trkpt>
<trkpt lat="54.576508" lon="-3.217635"><ele>602</ele><time>2019-10-02T14:43:56Z</time><name>PT13646</name></trkpt>
<trkpt lat="54.576510" lon="-3.217616"><ele>602</ele><time>2019-10-02T14:43:58Z</time><name>PT13647</name></trkpt>
<trkpt lat="54.576512" lon="-3.217597"><ele>602</ele><time>2019-10-02T14:43:58Z</time><name>PT13648</name></trkpt>
<trkpt lat="54.576515" lon="-3.217577"><ele>602</ele><time>2019-10-02T14:44:00Z</time><name>PT13649</name></trkpt>
<trkpt lat="54.576519" lon="-3.217560"><ele>602</ele><time>2019-10-02T14:44:00Z</time><name>PT13650</name></trkpt>
<trkpt lat="54.576524" lon="-3.217545"><ele>602</ele><time>2019-10-02T14:44:02Z</time><name>PT13651</name></trkpt>
<trkpt lat="54.576533" lon="-3.217525"><ele>601</ele><time>2019-10-02T14:44:02Z</time><name>PT13652</name></trkpt>
<trkpt lat="54.576539" lon="-3.217506"><ele>601</ele><time>2019-10-02T14:44:04Z</time><name>PT13653</name></trkpt>
<trkpt lat="54.576544" lon="-3.217493"><ele>601</ele><time>2019-10-02T14:44:04Z</time><name>PT13654</name></trkpt>
<trkpt lat="54.576550" lon="-3.217482"><ele>601</ele><time>2019-10-02T14:44:06Z</time><name>PT13655</name></trkpt>
<trkpt lat="54.576555" lon="-3.217465"><ele>600</ele><time>2019-10-02T14:44:06Z</time><name>PT13656</name></trkpt>
<trkpt lat="54.576558" lon="-3.217457"><ele>600</ele><time>2019-10-02T14:44:08Z</time><name>PT13657</name></trkpt>
<trkpt lat="54.576557" lon="-3.217449"><ele>601</ele><time>2019-10-02T14:44:08Z</time><name>PT13658</name></trkpt>
<trkpt lat="54.576557" lon="-3.217445"><ele>601</ele><time>2019-10-02T14:44:10Z</time><name>PT13659</name></trkpt>
<trkpt lat="54.576557" lon="-3.217436"><ele>601</ele><time>2019-10-02T14:44:10Z</time><name>PT13660</name></trkpt>
<trkpt lat="54.576559" lon="-3.217420"><ele>600</ele><time>2019-10-02T14:44:12Z</time><name>PT13661</name></trkpt>
<trkpt lat="54.576563" lon="-3.217401"><ele>600</ele><time>2019-10-02T14:44:12Z</time><name>PT13662</name></trkpt>
<trkpt lat="54.576565" lon="-3.217387"><ele>600</ele><time>2019-10-02T14:44:14Z</time><name>PT13663</name></trkpt>
<trkpt lat="54.576567" lon="-3.217371"><ele>600</ele><time>2019-10-02T14:44:14Z</time><name>PT13664</name></trkpt>
<trkpt lat="54.576571" lon="-3.217352"><ele>600</ele><time>2019-10-02T14:44:16Z</time><name>PT13665</name></trkpt>
<trkpt lat="54.576574" lon="-3.217335"><ele>600</ele><time>2019-10-02T14:44:16Z</time><name>PT13666</name></trkpt>
<trkpt lat="54.576575" lon="-3.217318"><ele>600</ele><time>2019-10-02T14:44:18Z</time><name>PT13667</name></trkpt>
<trkpt lat="54.576578" lon="-3.217301"><ele>600</ele><time>2019-10-02T14:44:18Z</time><name>PT13668</name></trkpt>
<trkpt lat="54.576582" lon="-3.217279"><ele>600</ele><time>2019-10-02T14:44:20Z</time><name>PT13669</name></trkpt>
<trkpt lat="54.576585" lon="-3.217260"><ele>600</ele><time>2019-10-02T14:44:20Z</time><name>PT13670</name></trkpt>
<trkpt lat="54.576588" lon="-3.217238"><ele>599</ele><time>2019-10-02T14:44:22Z</time><name>PT13671</name></trkpt>
<trkpt lat="54.576590" lon="-3.217219"><ele>599</ele><time>2019-10-02T14:44:22Z</time><name>PT13672</name></trkpt>
<trkpt lat="54.576592" lon="-3.217199"><ele>599</ele><time>2019-10-02T14:44:24Z</time><name>PT13673</name></trkpt>
<trkpt lat="54.576594" lon="-3.217179"><ele>599</ele><time>2019-10-02T14:44:24Z</time><name>PT13674</name></trkpt>
<trkpt lat="54.576595" lon="-3.217159"><ele>599</ele><time>2019-10-02T14:44:26Z</time><name>PT13675</name></trkpt>
<trkpt lat="54.576597" lon="-3.217137"><ele>599</ele><time>2019-10-02T14:44:26Z</time><name>PT13676</name></trkpt>
<trkpt lat="54.576599" lon="-3.217122"><ele>599</ele><time>2019-10-02T14:44:28Z</time><name>PT13677</name></trkpt>
<trkpt lat="54.576601" lon="-3.217106"><ele>599</ele><time>2019-10-02T14:44:28Z</time><name>PT13678</name></trkpt>
<trkpt lat="54.576602" lon="-3.217085"><ele>599</ele><time>2019-10-02T14:44:30Z</time><name>PT13679</name></trkpt>
<trkpt lat="54.576601" lon="-3.217063"><ele>598</ele><time>2019-10-02T14:44:30Z</time><name>PT13680</name></trkpt>
<trkpt lat="54.576602" lon="-3.217041"><ele>598</ele><time>2019-10-02T14:44:32Z</time><name>PT13681</name></trkpt>
<trkpt lat="54.576605" lon="-3.217017"><ele>598</ele><time>2019-10-02T14:44:32Z</time><name>PT13682</name></trkpt>
<trkpt lat="54.576607" lon="-3.216993"><ele>598</ele><time>2019-10-02T14:44:34Z</time><name>PT13683</name></trkpt>
<trkpt lat="54.576607" lon="-3.216975"><ele>598</ele><time>2019-10-02T14:44:34Z</time><name>PT13684</name></trkpt>
<trkpt lat="54.576610" lon="-3.216958"><ele>598</ele><time>2019-10-02T14:44:36Z</time><name>PT13685</name></trkpt>
<trkpt lat="54.576614" lon="-3.216940"><ele>598</ele><time>2019-10-02T14:44:36Z</time><name>PT13686</name></trkpt>
<trkpt lat="54.576618" lon="-3.216921"><ele>597</ele><time>2019-10-02T14:44:38Z</time><name>PT13687</name></trkpt>
<trkpt lat="54.576623" lon="-3.216903"><ele>598</ele><time>2019-10-02T14:44:38Z</time><name>PT13688</name></trkpt>
<trkpt lat="54.576626" lon="-3.216885"><ele>598</ele><time>2019-10-02T14:44:40Z</time><name>PT13689</name></trkpt>
<trkpt lat="54.576630" lon="-3.216863"><ele>598</ele><time>2019-10-02T14:44:40Z</time><name>PT13690</name></trkpt>
<trkpt lat="54.576632" lon="-3.216851"><ele>598</ele><time>2019-10-02T14:44:42Z</time><name>PT13691</name></trkpt>
<trkpt lat="54.576635" lon="-3.216833"><ele>598</ele><time>2019-10-02T14:44:42Z</time><name>PT13692</name></trkpt>
<trkpt lat="54.576639" lon="-3.216812"><ele>598</ele><time>2019-10-02T14:44:44Z</time><name>PT13693</name></trkpt>
<trkpt lat="54.576644" lon="-3.216790"><ele>598</ele><time>2019-10-02T14:44:44Z</time><name>PT13694</name></trkpt>
<trkpt lat="54.576648" lon="-3.216773"><ele>598</ele><time>2019-10-02T14:44:46Z</time><name>PT13695</name></trkpt>
<trkpt lat="54.576653" lon="-3.216759"><ele>598</ele><time>2019-10-02T14:44:47Z</time><name>PT13696</name></trkpt>
<trkpt lat="54.576660" lon="-3.216739"><ele>598</ele><time>2019-10-02T14:44:48Z</time><name>PT13697</name></trkpt>
<trkpt lat="54.576666" lon="-3.216720"><ele>598</ele><time>2019-10-02T14:44:49Z</time><name>PT13698</name></trkpt>
<trkpt lat="54.576672" lon="-3.216699"><ele>598</ele><time>2019-10-02T14:44:50Z</time><name>PT13699</name></trkpt>
<trkpt lat="54.576677" lon="-3.216679"><ele>598</ele><time>2019-10-02T14:44:51Z</time><name>PT13700</name></trkpt>
<trkpt lat="54.576681" lon="-3.216665"><ele>598</ele><time>2019-10-02T14:44:52Z</time><name>PT13701</name></trkpt>
<trkpt lat="54.576685" lon="-3.216650"><ele>598</ele><time>2019-10-02T14:44:53Z</time><name>PT13702</name></trkpt>
<trkpt lat="54.576688" lon="-3.216631"><ele>599</ele><time>2019-10-02T14:44:54Z</time><name>PT13703</name></trkpt>
<trkpt lat="54.576690" lon="-3.216614"><ele>599</ele><time>2019-10-02T14:44:55Z</time><name>PT13704</name></trkpt>
<trkpt lat="54.576693" lon="-3.216598"><ele>599</ele><time>2019-10-02T14:44:56Z</time><name>PT13705</name></trkpt>
<trkpt lat="54.576695" lon="-3.216582"><ele>598</ele><time>2019-10-02T14:44:57Z</time><name>PT13706</name></trkpt>
<trkpt lat="54.576697" lon="-3.216565"><ele>598</ele><time>2019-10-02T14:44:58Z</time><name>PT13707</name></trkpt>
<trkpt lat="54.576700" lon="-3.216549"><ele>598</ele><time>2019-10-02T14:44:59Z</time><name>PT13708</name></trkpt>
<trkpt lat="54.576704" lon="-3.216533"><ele>598</ele><time>2019-10-02T14:45:00Z</time><name>PT13709</name></trkpt>
<trkpt lat="54.576709" lon="-3.216516"><ele>598</ele><time>2019-10-02T14:45:01Z</time><name>PT13710</name></trkpt>
<trkpt lat="54.576711" lon="-3.216497"><ele>597</ele><time>2019-10-02T14:45:02Z</time><name>PT13711</name></trkpt>
<trkpt lat="54.576715" lon="-3.216487"><ele>597</ele><time>2019-10-02T14:45:02Z</time><name>PT13712</name></trkpt>
<trkpt lat="54.576720" lon="-3.216470"><ele>596</ele><time>2019-10-02T14:45:04Z</time><name>PT13713</name></trkpt>
<trkpt lat="54.576723" lon="-3.216452"><ele>596</ele><time>2019-10-02T14:45:04Z</time><name>PT13714</name></trkpt>
<trkpt lat="54.576727" lon="-3.216432"><ele>596</ele><time>2019-10-02T14:45:06Z</time><name>PT13715</name></trkpt>
<trkpt lat="54.576729" lon="-3.216410"><ele>596</ele><time>2019-10-02T14:45:06Z</time><name>PT13716</name></trkpt>
<trkpt lat="54.576732" lon="-3.216392"><ele>596</ele><time>2019-10-02T14:45:08Z</time><name>PT13717</name></trkpt>
<trkpt lat="54.576735" lon="-3.216372"><ele>596</ele><time>2019-10-02T14:45:08Z</time><name>PT13718</name></trkpt>
<trkpt lat="54.576739" lon="-3.216353"><ele>596</ele><time>2019-10-02T14:45:10Z</time><name>PT13719</name></trkpt>
<trkpt lat="54.576743" lon="-3.216333"><ele>596</ele><time>2019-10-02T14:45:10Z</time><name>PT13720</name></trkpt>
<trkpt lat="54.576746" lon="-3.216314"><ele>596</ele><time>2019-10-02T14:45:12Z</time><name>PT13721</name></trkpt>
<trkpt lat="54.576750" lon="-3.216297"><ele>596</ele><time>2019-10-02T14:45:12Z</time><name>PT13722</name></trkpt>
<trkpt lat="54.576753" lon="-3.216282"><ele>595</ele><time>2019-10-02T14:45:14Z</time><name>PT13723</name></trkpt>
<trkpt lat="54.576760" lon="-3.216264"><ele>595</ele><time>2019-10-02T14:45:14Z</time><name>PT13724</name></trkpt>
<trkpt lat="54.576767" lon="-3.216246"><ele>595</ele><time>2019-10-02T14:45:16Z</time><name>PT13725</name></trkpt>
<trkpt lat="54.576771" lon="-3.216227"><ele>595</ele><time>2019-10-02T14:45:16Z</time><name>PT13726</name></trkpt>
<trkpt lat="54.576774" lon="-3.216204"><ele>594</ele><time>2019-10-02T14:45:18Z</time><name>PT13727</name></trkpt>
<trkpt lat="54.576774" lon="-3.216179"><ele>594</ele><time>2019-10-02T14:45:18Z</time><name>PT13728</name></trkpt>
<trkpt lat="54.576775" lon="-3.216158"><ele>595</ele><time>2019-10-02T14:45:20Z</time><name>PT13729</name></trkpt>
<trkpt lat="54.576774" lon="-3.216140"><ele>595</ele><time>2019-10-02T14:45:20Z</time><name>PT13730</name></trkpt>
<trkpt lat="54.576774" lon="-3.216117"><ele>595</ele><time>2019-10-02T14:45:22Z</time><name>PT13731</name></trkpt>
<trkpt lat="54.576773" lon="-3.216097"><ele>595</ele><time>2019-10-02T14:45:22Z</time><name>PT13732</name></trkpt>
<trkpt lat="54.576772" lon="-3.216075"><ele>595</ele><time>2019-10-02T14:45:24Z</time><name>PT13733</name></trkpt>
<trkpt lat="54.576773" lon="-3.216051"><ele>595</ele><time>2019-10-02T14:45:24Z</time><name>PT13734</name></trkpt>
<trkpt lat="54.576775" lon="-3.216030"><ele>595</ele><time>2019-10-02T14:45:26Z</time><name>PT13735</name></trkpt>
<trkpt lat="54.576776" lon="-3.216013"><ele>595</ele><time>2019-10-02T14:45:26Z</time><name>PT13736</name></trkpt>
<trkpt lat="54.576783" lon="-3.215993"><ele>595</ele><time>2019-10-02T14:45:28Z</time><name>PT13737</name></trkpt>
<trkpt lat="54.576790" lon="-3.215983"><ele>594</ele><time>2019-10-02T14:45:28Z</time><name>PT13738</name></trkpt>
<trkpt lat="54.576793" lon="-3.215966"><ele>595</ele><time>2019-10-02T14:45:30Z</time><name>PT13739</name></trkpt>
<trkpt lat="54.576793" lon="-3.215944"><ele>595</ele><time>2019-10-02T14:45:30Z</time><name>PT13740</name></trkpt>
<trkpt lat="54.576794" lon="-3.215927"><ele>595</ele><time>2019-10-02T14:45:32Z</time><name>PT13741</name></trkpt>
<trkpt lat="54.576797" lon="-3.215909"><ele>595</ele><time>2019-10-02T14:45:32Z</time><name>PT13742</name></trkpt>
<trkpt lat="54.576801" lon="-3.215886"><ele>595</ele><time>2019-10-02T14:45:34Z</time><name>PT13743</name></trkpt>
<trkpt lat="54.576805" lon="-3.215865"><ele>595</ele><time>2019-10-02T14:45:34Z</time><name>PT13744</name></trkpt>
<trkpt lat="54.576807" lon="-3.215851"><ele>594</ele><time>2019-10-02T14:45:36Z</time><name>PT13745</name></trkpt>
<trkpt lat="54.576815" lon="-3.215835"><ele>595</ele><time>2019-10-02T14:45:36Z</time><name>PT13746</name></trkpt>
<trkpt lat="54.576822" lon="-3.215820"><ele>595</ele><time>2019-10-02T14:45:38Z</time><name>PT13747</name></trkpt>
<trkpt lat="54.576824" lon="-3.215806"><ele>594</ele><time>2019-10-02T14:45:38Z</time><name>PT13748</name></trkpt>
<trkpt lat="54.576829" lon="-3.215787"><ele>594</ele><time>2019-10-02T14:45:40Z</time><name>PT13749</name></trkpt>
<trkpt lat="54.576831" lon="-3.215766"><ele>594</ele><time>2019-10-02T14:45:40Z</time><name>PT13750</name></trkpt>
<trkpt lat="54.576833" lon="-3.215747"><ele>594</ele><time>2019-10-02T14:45:42Z</time><name>PT13751</name></trkpt>
<trkpt lat="54.576834" lon="-3.215719"><ele>594</ele><time>2019-10-02T14:45:42Z</time><name>PT13752</name></trkpt>
<trkpt lat="54.576835" lon="-3.215695"><ele>594</ele><time>2019-10-02T14:45:44Z</time><name>PT13753</name></trkpt>
<trkpt lat="54.576836" lon="-3.215672"><ele>594</ele><time>2019-10-02T14:45:44Z</time><name>PT13754</name></trkpt>
<trkpt lat="54.576840" lon="-3.215650"><ele>594</ele><time>2019-10-02T14:45:46Z</time><name>PT13755</name></trkpt>
<trkpt lat="54.576845" lon="-3.215628"><ele>594</ele><time>2019-10-02T14:45:46Z</time><name>PT13756</name></trkpt>
<trkpt lat="54.576851" lon="-3.215605"><ele>594</ele><time>2019-10-02T14:45:48Z</time><name>PT13757</name></trkpt>
<trkpt lat="54.576856" lon="-3.215586"><ele>594</ele><time>2019-10-02T14:45:48Z</time><name>PT13758</name></trkpt>
<trkpt lat="54.576860" lon="-3.215569"><ele>594</ele><time>2019-10-02T14:45:50Z</time><name>PT13759</name></trkpt>
<trkpt lat="54.576861" lon="-3.215549"><ele>594</ele><time>2019-10-02T14:45:50Z</time><name>PT13760</name></trkpt>
<trkpt lat="54.576865" lon="-3.215530"><ele>594</ele><time>2019-10-02T14:45:52Z</time><name>PT13761</name></trkpt>
<trkpt lat="54.576868" lon="-3.215511"><ele>594</ele><time>2019-10-02T14:45:52Z</time><name>PT13762</name></trkpt>
<trkpt lat="54.576872" lon="-3.215494"><ele>594</ele><time>2019-10-02T14:45:54Z</time><name>PT13763</name></trkpt>
<trkpt lat="54.576875" lon="-3.215477"><ele>594</ele><time>2019-10-02T14:45:54Z</time><name>PT13764</name></trkpt>
<trkpt lat="54.576880" lon="-3.215459"><ele>594</ele><time>2019-10-02T14:45:56Z</time><name>PT13765</name></trkpt>
<trkpt lat="54.576882" lon="-3.215442"><ele>594</ele><time>2019-10-02T14:45:56Z</time><name>PT13766</name></trkpt>
<trkpt lat="54.576886" lon="-3.215423"><ele>594</ele><time>2019-10-02T14:45:58Z</time><name>PT13767</name></trkpt>
<trkpt lat="54.576889" lon="-3.215403"><ele>594</ele><time>2019-10-02T14:45:58Z</time><name>PT13768</name></trkpt>
<trkpt lat="54.576892" lon="-3.215388"><ele>595</ele><time>2019-10-02T14:46:00Z</time><name>PT13769</name></trkpt>
<trkpt lat="54.576898" lon="-3.215373"><ele>595</ele><time>2019-10-02T14:46:00Z</time><name>PT13770</name></trkpt>
<trkpt lat="54.576904" lon="-3.215359"><ele>595</ele><time>2019-10-02T14:46:02Z</time><name>PT13771</name></trkpt>
<trkpt lat="54.576910" lon="-3.215344"><ele>595</ele><time>2019-10-02T14:46:02Z</time><name>PT13772</name></trkpt>
<trkpt lat="54.576915" lon="-3.215325"><ele>595</ele><time>2019-10-02T14:46:04Z</time><name>PT13773</name></trkpt>
<trkpt lat="54.576920" lon="-3.215306"><ele>595</ele><time>2019-10-02T14:46:04Z</time><name>PT13774</name></trkpt>
<trkpt lat="54.576924" lon="-3.215288"><ele>595</ele><time>2019-10-02T14:46:06Z</time><name>PT13775</name></trkpt>
<trkpt lat="54.576930" lon="-3.215272"><ele>595</ele><time>2019-10-02T14:46:07Z</time><name>PT13776</name></trkpt>
<trkpt lat="54.576935" lon="-3.215257"><ele>596</ele><time>2019-10-02T14:46:08Z</time><name>PT13777</name></trkpt>
<trkpt lat="54.576941" lon="-3.215240"><ele>596</ele><time>2019-10-02T14:46:09Z</time><name>PT13778</name></trkpt>
<trkpt lat="54.576947" lon="-3.215226"><ele>596</ele><time>2019-10-02T14:46:10Z</time><name>PT13779</name></trkpt>
<trkpt lat="54.576952" lon="-3.215215"><ele>597</ele><time>2019-10-02T14:46:10Z</time><name>PT13780</name></trkpt>
<trkpt lat="54.576956" lon="-3.215205"><ele>597</ele><time>2019-10-02T14:46:12Z</time><name>PT13781</name></trkpt>
<trkpt lat="54.576962" lon="-3.215191"><ele>598</ele><time>2019-10-02T14:46:13Z</time><name>PT13782</name></trkpt>
<trkpt lat="54.576966" lon="-3.215177"><ele>598</ele><time>2019-10-02T14:46:14Z</time><name>PT13783</name></trkpt>
<trkpt lat="54.576970" lon="-3.215162"><ele>598</ele><time>2019-10-02T14:46:15Z</time><name>PT13784</name></trkpt>
<trkpt lat="54.576975" lon="-3.215148"><ele>598</ele><time>2019-10-02T14:46:16Z</time><name>PT13785</name></trkpt>
<trkpt lat="54.576980" lon="-3.215139"><ele>599</ele><time>2019-10-02T14:46:17Z</time><name>PT13786</name></trkpt>
<trkpt lat="54.576987" lon="-3.215130"><ele>599</ele><time>2019-10-02T14:46:18Z</time><name>PT13787</name></trkpt>
<trkpt lat="54.576993" lon="-3.215120"><ele>599</ele><time>2019-10-02T14:46:19Z</time><name>PT13788</name></trkpt>
<trkpt lat="54.576997" lon="-3.215110"><ele>599</ele><time>2019-10-02T14:46:20Z</time><name>PT13789</name></trkpt>
<trkpt lat="54.577001" lon="-3.215096"><ele>599</ele><time>2019-10-02T14:46:21Z</time><name>PT13790</name></trkpt>
<trkpt lat="54.577004" lon="-3.215082"><ele>599</ele><time>2019-10-02T14:46:22Z</time><name>PT13791</name></trkpt>
<trkpt lat="54.577009" lon="-3.215071"><ele>600</ele><time>2019-10-02T14:46:22Z</time><name>PT13792</name></trkpt>
<trkpt lat="54.577012" lon="-3.215063"><ele>600</ele><time>2019-10-02T14:46:24Z</time><name>PT13793</name></trkpt>
<trkpt lat="54.577016" lon="-3.215054"><ele>600</ele><time>2019-10-02T14:46:24Z</time><name>PT13794</name></trkpt>
<trkpt lat="54.577021" lon="-3.215044"><ele>600</ele><time>2019-10-02T14:46:26Z</time><name>PT13795</name></trkpt>
<trkpt lat="54.577025" lon="-3.215031"><ele>601</ele><time>2019-10-02T14:46:26Z</time><name>PT13796</name></trkpt>
<trkpt lat="54.577029" lon="-3.215022"><ele>601</ele><time>2019-10-02T14:46:28Z</time><name>PT13797</name></trkpt>
<trkpt lat="54.577031" lon="-3.215012"><ele>602</ele><time>2019-10-02T14:46:28Z</time><name>PT13798</name></trkpt>
<trkpt lat="54.577031" lon="-3.215004"><ele>602</ele><time>2019-10-02T14:46:30Z</time><name>PT13799</name></trkpt>
<trkpt lat="54.577030" lon="-3.214994"><ele>602</ele><time>2019-10-02T14:46:30Z</time><name>PT13800</name></trkpt>
<trkpt lat="54.577032" lon="-3.214987"><ele>602</ele><time>2019-10-02T14:46:32Z</time><name>PT13801</name></trkpt>
<trkpt lat="54.577034" lon="-3.214977"><ele>602</ele><time>2019-10-02T14:46:32Z</time><name>PT13802</name></trkpt>
<trkpt lat="54.577035" lon="-3.214967"><ele>602</ele><time>2019-10-02T14:46:34Z</time><name>PT13803</name></trkpt>
<trkpt lat="54.577036" lon="-3.214960"><ele>603</ele><time>2019-10-02T14:46:34Z</time><name>PT13804</name></trkpt>
<trkpt lat="54.577039" lon="-3.214936"><ele>604</ele><time>2019-10-02T14:46:46Z</time><name>PT13805</name></trkpt>
<trkpt lat="54.577042" lon="-3.214919"><ele>604</ele><time>2019-10-02T14:46:48Z</time><name>PT13806</name></trkpt>
<trkpt lat="54.577045" lon="-3.214902"><ele>604</ele><time>2019-10-02T14:46:48Z</time><name>PT13807</name></trkpt>
<trkpt lat="54.577047" lon="-3.214885"><ele>604</ele><time>2019-10-02T14:46:50Z</time><name>PT13808</name></trkpt>
<trkpt lat="54.577050" lon="-3.214864"><ele>604</ele><time>2019-10-02T14:46:50Z</time><name>PT13809</name></trkpt>
<trkpt lat="54.577052" lon="-3.214850"><ele>605</ele><time>2019-10-02T14:46:52Z</time><name>PT13810</name></trkpt>
<trkpt lat="54.577055" lon="-3.214837"><ele>605</ele><time>2019-10-02T14:46:52Z</time><name>PT13811</name></trkpt>
<trkpt lat="54.577056" lon="-3.214825"><ele>605</ele><time>2019-10-02T14:46:54Z</time><name>PT13812</name></trkpt>
<trkpt lat="54.577052" lon="-3.214811"><ele>605</ele><time>2019-10-02T14:46:54Z</time><name>PT13813</name></trkpt>
<trkpt lat="54.577052" lon="-3.214798"><ele>605</ele><time>2019-10-02T14:46:56Z</time><name>PT13814</name></trkpt>
<trkpt lat="54.577051" lon="-3.214785"><ele>605</ele><time>2019-10-02T14:46:56Z</time><name>PT13815</name></trkpt>
<trkpt lat="54.577048" lon="-3.214778"><ele>605</ele><time>2019-10-02T14:46:58Z</time><name>PT13816</name></trkpt>
<trkpt lat="54.577054" lon="-3.214759"><ele>606</ele><time>2019-10-02T14:47:02Z</time><name>PT13817</name></trkpt>
<trkpt lat="54.577057" lon="-3.214740"><ele>607</ele><time>2019-10-02T14:47:04Z</time><name>PT13818</name></trkpt>
<trkpt lat="54.577058" lon="-3.214726"><ele>607</ele><time>2019-10-02T14:47:04Z</time><name>PT13819</name></trkpt>
<trkpt lat="54.577056" lon="-3.214716"><ele>607</ele><time>2019-10-02T14:47:06Z</time><name>PT13820</name></trkpt>
<trkpt lat="54.577053" lon="-3.214708"><ele>608</ele><time>2019-10-02T14:47:06Z</time><name>PT13821</name></trkpt>
<trkpt lat="54.577048" lon="-3.214701"><ele>608</ele><time>2019-10-02T14:47:08Z</time><name>PT13822</name></trkpt>
<trkpt lat="54.577048" lon="-3.214690"><ele>608</ele><time>2019-10-02T14:47:08Z</time><name>PT13823</name></trkpt>
<trkpt lat="54.577048" lon="-3.214680"><ele>608</ele><time>2019-10-02T14:47:10Z</time><name>PT13824</name></trkpt>
<trkpt lat="54.577048" lon="-3.214670"><ele>609</ele><time>2019-10-02T14:47:10Z</time><name>PT13825</name></trkpt>
<trkpt lat="54.577049" lon="-3.214660"><ele>609</ele><time>2019-10-02T14:47:12Z</time><name>PT13826</name></trkpt>
<trkpt lat="54.577051" lon="-3.214649"><ele>608</ele><time>2019-10-02T14:47:12Z</time><name>PT13827</name></trkpt>
<trkpt lat="54.577054" lon="-3.214644"><ele>609</ele><time>2019-10-02T14:47:14Z</time><name>PT13828</name></trkpt>
<trkpt lat="54.577056" lon="-3.214633"><ele>609</ele><time>2019-10-02T14:47:14Z</time><name>PT13829</name></trkpt>
<trkpt lat="54.577060" lon="-3.214622"><ele>609</ele><time>2019-10-02T14:47:16Z</time><name>PT13830</name></trkpt>
<trkpt lat="54.577059" lon="-3.214614"><ele>609</ele><time>2019-10-02T14:47:16Z</time><name>PT13831</name></trkpt>
<trkpt lat="54.577057" lon="-3.214608"><ele>610</ele><time>2019-10-02T14:47:18Z</time><name>PT13832</name></trkpt>
<trkpt lat="54.577059" lon="-3.214601"><ele>610</ele><time>2019-10-02T14:47:18Z</time><name>PT13833</name></trkpt>
<trkpt lat="54.577061" lon="-3.214596"><ele>611</ele><time>2019-10-02T14:47:20Z</time><name>PT13834</name></trkpt>
<trkpt lat="54.577066" lon="-3.214588"><ele>611</ele><time>2019-10-02T14:47:20Z</time><name>PT13835</name></trkpt>
<trkpt lat="54.577067" lon="-3.214580"><ele>611</ele><time>2019-10-02T14:47:22Z</time><name>PT13836</name></trkpt>
<trkpt lat="54.577066" lon="-3.214573"><ele>611</ele><time>2019-10-02T14:47:22Z</time><name>PT13837</name></trkpt>
<trkpt lat="54.577065" lon="-3.214560"><ele>611</ele><time>2019-10-02T14:47:24Z</time><name>PT13838</name></trkpt>
<trkpt lat="54.577064" lon="-3.214550"><ele>611</ele><time>2019-10-02T14:47:24Z</time><name>PT13839</name></trkpt>
<trkpt lat="54.577066" lon="-3.214542"><ele>611</ele><time>2019-10-02T14:47:26Z</time><name>PT13840</name></trkpt>
<trkpt lat="54.577065" lon="-3.214532"><ele>611</ele><time>2019-10-02T14:47:26Z</time><name>PT13841</name></trkpt>
<trkpt lat="54.577061" lon="-3.214524"><ele>611</ele><time>2019-10-02T14:47:28Z</time><name>PT13842</name></trkpt>
<trkpt lat="54.577056" lon="-3.214513"><ele>612</ele><time>2019-10-02T14:47:28Z</time><name>PT13843</name></trkpt>
<trkpt lat="54.577054" lon="-3.214501"><ele>612</ele><time>2019-10-02T14:47:30Z</time><name>PT13844</name></trkpt>
<trkpt lat="54.577055" lon="-3.214485"><ele>612</ele><time>2019-10-02T14:47:30Z</time><name>PT13845</name></trkpt>
<trkpt lat="54.577059" lon="-3.214474"><ele>613</ele><time>2019-10-02T14:47:32Z</time><name>PT13846</name></trkpt>
<trkpt lat="54.577061" lon="-3.214469"><ele>613</ele><time>2019-10-02T14:47:32Z</time><name>PT13847</name></trkpt>
<trkpt lat="54.577062" lon="-3.214464"><ele>613</ele><time>2019-10-02T14:47:34Z</time><name>PT13848</name></trkpt>
<trkpt lat="54.577066" lon="-3.214453"><ele>613</ele><time>2019-10-02T14:47:34Z</time><name>PT13849</name></trkpt>
<trkpt lat="54.577068" lon="-3.214443"><ele>614</ele><time>2019-10-02T14:47:36Z</time><name>PT13850</name></trkpt>
<trkpt lat="54.577070" lon="-3.214431"><ele>614</ele><time>2019-10-02T14:47:36Z</time><name>PT13851</name></trkpt>
<trkpt lat="54.577073" lon="-3.214425"><ele>614</ele><time>2019-10-02T14:47:38Z</time><name>PT13852</name></trkpt>
<trkpt lat="54.577077" lon="-3.214417"><ele>614</ele><time>2019-10-02T14:47:38Z</time><name>PT13853</name></trkpt>
<trkpt lat="54.577082" lon="-3.214409"><ele>614</ele><time>2019-10-02T14:47:40Z</time><name>PT13854</name></trkpt>
<trkpt lat="54.577085" lon="-3.214398"><ele>614</ele><time>2019-10-02T14:47:40Z</time><name>PT13855</name></trkpt>
<trkpt lat="54.577085" lon="-3.214388"><ele>615</ele><time>2019-10-02T14:47:42Z</time><name>PT13856</name></trkpt>
<trkpt lat="54.577086" lon="-3.214377"><ele>615</ele><time>2019-10-02T14:47:42Z</time><name>PT13857</name></trkpt>
<trkpt lat="54.577085" lon="-3.214366"><ele>615</ele><time>2019-10-02T14:47:44Z</time><name>PT13858</name></trkpt>
<trkpt lat="54.577084" lon="-3.214352"><ele>616</ele><time>2019-10-02T14:47:44Z</time><name>PT13859</name></trkpt>
<trkpt lat="54.577084" lon="-3.214340"><ele>616</ele><time>2019-10-02T14:47:46Z</time><name>PT13860</name></trkpt>
<trkpt lat="54.577085" lon="-3.214325"><ele>616</ele><time>2019-10-02T14:47:46Z</time><name>PT13861</name></trkpt>
<trkpt lat="54.577087" lon="-3.214310"><ele>616</ele><time>2019-10-02T14:47:48Z</time><name>PT13862</name></trkpt>
<trkpt lat="54.577090" lon="-3.214296"><ele>617</ele><time>2019-10-02T14:47:48Z</time><name>PT13863</name></trkpt>
<trkpt lat="54.577092" lon="-3.214285"><ele>617</ele><time>2019-10-02T14:47:50Z</time><name>PT13864</name></trkpt>
<trkpt lat="54.577095" lon="-3.214272"><ele>617</ele><time>2019-10-02T14:47:50Z</time><name>PT13865</name></trkpt>
<trkpt lat="54.577099" lon="-3.214260"><ele>617</ele><time>2019-10-02T14:47:52Z</time><name>PT13866</name></trkpt>
<trkpt lat="54.577104" lon="-3.214250"><ele>618</ele><time>2019-10-02T14:47:52Z</time><name>PT13867</name></trkpt>
<trkpt lat="54.577108" lon="-3.214241"><ele>618</ele><time>2019-10-02T14:47:54Z</time><name>PT13868</name></trkpt>
<trkpt lat="54.577115" lon="-3.214233"><ele>618</ele><time>2019-10-02T14:47:54Z</time><name>PT13869</name></trkpt>
<trkpt lat="54.577119" lon="-3.214223"><ele>618</ele><time>2019-10-02T14:47:56Z</time><name>PT13870</name></trkpt>
<trkpt lat="54.577125" lon="-3.214215"><ele>619</ele><time>2019-10-02T14:47:56Z</time><name>PT13871</name></trkpt>
<trkpt lat="54.577128" lon="-3.214206"><ele>619</ele><time>2019-10-02T14:47:58Z</time><name>PT13872</name></trkpt>
<trkpt lat="54.577132" lon="-3.214197"><ele>620</ele><time>2019-10-02T14:47:58Z</time><name>PT13873</name></trkpt>
<trkpt lat="54.577137" lon="-3.214189"><ele>620</ele><time>2019-10-02T14:48:00Z</time><name>PT13874</name></trkpt>
<trkpt lat="54.577142" lon="-3.214181"><ele>620</ele><time>2019-10-02T14:48:00Z</time><name>PT13875</name></trkpt>
<trkpt lat="54.577146" lon="-3.214175"><ele>620</ele><time>2019-10-02T14:48:02Z</time><name>PT13876</name></trkpt>
<trkpt lat="54.577150" lon="-3.214170"><ele>620</ele><time>2019-10-02T14:48:02Z</time><name>PT13877</name></trkpt>
<trkpt lat="54.577152" lon="-3.214165"><ele>620</ele><time>2019-10-02T14:48:04Z</time><name>PT13878</name></trkpt>
<trkpt lat="54.577151" lon="-3.214157"><ele>620</ele><time>2019-10-02T14:48:04Z</time><name>PT13879</name></trkpt>
<trkpt lat="54.577150" lon="-3.214148"><ele>620</ele><time>2019-10-02T14:48:06Z</time><name>PT13880</name></trkpt>
<trkpt lat="54.577150" lon="-3.214139"><ele>620</ele><time>2019-10-02T14:48:06Z</time><name>PT13881</name></trkpt>
<trkpt lat="54.577151" lon="-3.214135"><ele>620</ele><time>2019-10-02T14:48:08Z</time><name>PT13882</name></trkpt>
<trkpt lat="54.577156" lon="-3.214123"><ele>621</ele><time>2019-10-02T14:48:08Z</time><name>PT13883</name></trkpt>
<trkpt lat="54.577161" lon="-3.214116"><ele>621</ele><time>2019-10-02T14:48:10Z</time><name>PT13884</name></trkpt>
<trkpt lat="54.577165" lon="-3.214112"><ele>621</ele><time>2019-10-02T14:48:10Z</time><name>PT13885</name></trkpt>
<trkpt lat="54.577168" lon="-3.214109"><ele>621</ele><time>2019-10-02T14:48:12Z</time><name>PT13886</name></trkpt>
<trkpt lat="54.577174" lon="-3.214104"><ele>621</ele><time>2019-10-02T14:48:13Z</time><name>PT13887</name></trkpt>
<trkpt lat="54.577178" lon="-3.214102"><ele>621</ele><time>2019-10-02T14:48:14Z</time><name>PT13888</name></trkpt>
<trkpt lat="54.577182" lon="-3.214097"><ele>621</ele><time>2019-10-02T14:48:15Z</time><name>PT13889</name></trkpt>
<trkpt lat="54.577186" lon="-3.214088"><ele>621</ele><time>2019-10-02T14:48:16Z</time><name>PT13890</name></trkpt>
<trkpt lat="54.577189" lon="-3.214080"><ele>621</ele><time>2019-10-02T14:48:17Z</time><name>PT13891</name></trkpt>
<trkpt lat="54.577190" lon="-3.214082"><ele>621</ele><time>2019-10-02T14:48:18Z</time><name>PT13892</name></trkpt>
<trkpt lat="54.577193" lon="-3.214083"><ele>622</ele><time>2019-10-02T14:48:19Z</time><name>PT13893</name></trkpt>
<trkpt lat="54.577194" lon="-3.214082"><ele>622</ele><time>2019-10-02T14:48:20Z</time><name>PT13894</name></trkpt>
<trkpt lat="54.577196" lon="-3.214083"><ele>622</ele><time>2019-10-02T14:48:21Z</time><name>PT13895</name></trkpt>
<trkpt lat="54.577195" lon="-3.214081"><ele>622</ele><time>2019-10-02T14:48:34Z</time><name>PT13896</name></trkpt>
<trkpt lat="54.577200" lon="-3.214064"><ele>622</ele><time>2019-10-02T14:48:36Z</time><name>PT13897</name></trkpt>
<trkpt lat="54.577205" lon="-3.214046"><ele>622</ele><time>2019-10-02T14:48:36Z</time><name>PT13898</name></trkpt>
<trkpt lat="54.577211" lon="-3.214031"><ele>623</ele><time>2019-10-02T14:48:38Z</time><name>PT13899</name></trkpt>
<trkpt lat="54.577217" lon="-3.214017"><ele>623</ele><time>2019-10-02T14:48:38Z</time><name>PT13900</name></trkpt>
<trkpt lat="54.577224" lon="-3.214000"><ele>623</ele><time>2019-10-02T14:48:40Z</time><name>PT13901</name></trkpt>
<trkpt lat="54.577229" lon="-3.213985"><ele>623</ele><time>2019-10-02T14:48:40Z</time><name>PT13902</name></trkpt>
<trkpt lat="54.577235" lon="-3.213967"><ele>623</ele><time>2019-10-02T14:48:42Z</time><name>PT13903</name></trkpt>
<trkpt lat="54.577240" lon="-3.213948"><ele>623</ele><time>2019-10-02T14:48:42Z</time><name>PT13904</name></trkpt>
<trkpt lat="54.577245" lon="-3.213933"><ele>623</ele><time>2019-10-02T14:48:44Z</time><name>PT13905</name></trkpt>
<trkpt lat="54.577250" lon="-3.213920"><ele>623</ele><time>2019-10-02T14:48:44Z</time><name>PT13906</name></trkpt>
<trkpt lat="54.577253" lon="-3.213905"><ele>623</ele><time>2019-10-02T14:48:46Z</time><name>PT13907</name></trkpt>
<trkpt lat="54.577255" lon="-3.213887"><ele>624</ele><time>2019-10-02T14:48:46Z</time><name>PT13908</name></trkpt>
<trkpt lat="54.577255" lon="-3.213875"><ele>624</ele><time>2019-10-02T14:48:48Z</time><name>PT13909</name></trkpt>
<trkpt lat="54.577257" lon="-3.213861"><ele>624</ele><time>2019-10-02T14:48:48Z</time><name>PT13910</name></trkpt>
<trkpt lat="54.577262" lon="-3.213848"><ele>624</ele><time>2019-10-02T14:48:50Z</time><name>PT13911</name></trkpt>
<trkpt lat="54.577268" lon="-3.213835"><ele>624</ele><time>2019-10-02T14:48:50Z</time><name>PT13912</name></trkpt>
<trkpt lat="54.577269" lon="-3.213822"><ele>624</ele><time>2019-10-02T14:48:52Z</time><name>PT13913</name></trkpt>
<trkpt lat="54.577270" lon="-3.213810"><ele>624</ele><time>2019-10-02T14:48:52Z</time><name>PT13914</name></trkpt>
<trkpt lat="54.577272" lon="-3.213797"><ele>624</ele><time>2019-10-02T14:48:54Z</time><name>PT13915</name></trkpt>
<trkpt lat="54.577275" lon="-3.213781"><ele>624</ele><time>2019-10-02T14:48:54Z</time><name>PT13916</name></trkpt>
<trkpt lat="54.577277" lon="-3.213764"><ele>624</ele><time>2019-10-02T14:48:56Z</time><name>PT13917</name></trkpt>
<trkpt lat="54.577281" lon="-3.213748"><ele>624</ele><time>2019-10-02T14:48:56Z</time><name>PT13918</name></trkpt>
<trkpt lat="54.577284" lon="-3.213733"><ele>625</ele><time>2019-10-02T14:48:58Z</time><name>PT13919</name></trkpt>
<trkpt lat="54.577289" lon="-3.213716"><ele>625</ele><time>2019-10-02T14:48:58Z</time><name>PT13920</name></trkpt>
<trkpt lat="54.577294" lon="-3.213698"><ele>625</ele><time>2019-10-02T14:49:00Z</time><name>PT13921</name></trkpt>
<trkpt lat="54.577300" lon="-3.213680"><ele>626</ele><time>2019-10-02T14:49:00Z</time><name>PT13922</name></trkpt>
<trkpt lat="54.577304" lon="-3.213663"><ele>626</ele><time>2019-10-02T14:49:02Z</time><name>PT13923</name></trkpt>
<trkpt lat="54.577307" lon="-3.213648"><ele>626</ele><time>2019-10-02T14:49:02Z</time><name>PT13924</name></trkpt>
<trkpt lat="54.577308" lon="-3.213632"><ele>626</ele><time>2019-10-02T14:49:04Z</time><name>PT13925</name></trkpt>
<trkpt lat="54.577310" lon="-3.213619"><ele>626</ele><time>2019-10-02T14:49:04Z</time><name>PT13926</name></trkpt>
<trkpt lat="54.577311" lon="-3.213603"><ele>626</ele><time>2019-10-02T14:49:06Z</time><name>PT13927</name></trkpt>
<trkpt lat="54.577313" lon="-3.213588"><ele>626</ele><time>2019-10-02T14:49:06Z</time><name>PT13928</name></trkpt>
<trkpt lat="54.577315" lon="-3.213576"><ele>626</ele><time>2019-10-02T14:49:08Z</time><name>PT13929</name></trkpt>
<trkpt lat="54.577320" lon="-3.213559"><ele>626</ele><time>2019-10-02T14:49:08Z</time><name>PT13930</name></trkpt>
<trkpt lat="54.577325" lon="-3.213544"><ele>626</ele><time>2019-10-02T14:49:10Z</time><name>PT13931</name></trkpt>
<trkpt lat="54.577328" lon="-3.213527"><ele>626</ele><time>2019-10-02T14:49:10Z</time><name>PT13932</name></trkpt>
<trkpt lat="54.577331" lon="-3.213513"><ele>626</ele><time>2019-10-02T14:49:12Z</time><name>PT13933</name></trkpt>
<trkpt lat="54.577335" lon="-3.213498"><ele>626</ele><time>2019-10-02T14:49:12Z</time><name>PT13934</name></trkpt>
<trkpt lat="54.577339" lon="-3.213481"><ele>626</ele><time>2019-10-02T14:49:14Z</time><name>PT13935</name></trkpt>
<trkpt lat="54.577344" lon="-3.213459"><ele>626</ele><time>2019-10-02T14:49:14Z</time><name>PT13936</name></trkpt>
<trkpt lat="54.577347" lon="-3.213444"><ele>626</ele><time>2019-10-02T14:49:16Z</time><name>PT13937</name></trkpt>
<trkpt lat="54.577351" lon="-3.213429"><ele>626</ele><time>2019-10-02T14:49:16Z</time><name>PT13938</name></trkpt>
<trkpt lat="54.577354" lon="-3.213409"><ele>627</ele><time>2019-10-02T14:49:18Z</time><name>PT13939</name></trkpt>
<trkpt lat="54.577356" lon="-3.213390"><ele>627</ele><time>2019-10-02T14:49:18Z</time><name>PT13940</name></trkpt>
<trkpt lat="54.577358" lon="-3.213374"><ele>627</ele><time>2019-10-02T14:49:20Z</time><name>PT13941</name></trkpt>
<trkpt lat="54.577362" lon="-3.213360"><ele>627</ele><time>2019-10-02T14:49:20Z</time><name>PT13942</name></trkpt>
<trkpt lat="54.577365" lon="-3.213350"><ele>628</ele><time>2019-10-02T14:49:22Z</time><name>PT13943</name></trkpt>
<trkpt lat="54.577365" lon="-3.213332"><ele>628</ele><time>2019-10-02T14:49:22Z</time><name>PT13944</name></trkpt>
<trkpt lat="54.577365" lon="-3.213314"><ele>628</ele><time>2019-10-02T14:49:24Z</time><name>PT13945</name></trkpt>
<trkpt lat="54.577363" lon="-3.213293"><ele>628</ele><time>2019-10-02T14:49:24Z</time><name>PT13946</name></trkpt>
<trkpt lat="54.577359" lon="-3.213266"><ele>628</ele><time>2019-10-02T14:49:26Z</time><name>PT13947</name></trkpt>
<trkpt lat="54.577358" lon="-3.213245"><ele>628</ele><time>2019-10-02T14:49:26Z</time><name>PT13948</name></trkpt>
<trkpt lat="54.577356" lon="-3.213223"><ele>628</ele><time>2019-10-02T14:49:28Z</time><name>PT13949</name></trkpt>
<trkpt lat="54.577354" lon="-3.213201"><ele>628</ele><time>2019-10-02T14:49:28Z</time><name>PT13950</name></trkpt>
<trkpt lat="54.577352" lon="-3.213179"><ele>628</ele><time>2019-10-02T14:49:30Z</time><name>PT13951</name></trkpt>
<trkpt lat="54.577350" lon="-3.213157"><ele>628</ele><time>2019-10-02T14:49:31Z</time><name>PT13952</name></trkpt>
<trkpt lat="54.577348" lon="-3.213138"><ele>628</ele><time>2019-10-02T14:49:32Z</time><name>PT13953</name></trkpt>
<trkpt lat="54.577348" lon="-3.213117"><ele>628</ele><time>2019-10-02T14:49:32Z</time><name>PT13954</name></trkpt>
<trkpt lat="54.577349" lon="-3.213091"><ele>628</ele><time>2019-10-02T14:49:34Z</time><name>PT13955</name></trkpt>
<trkpt lat="54.577350" lon="-3.213073"><ele>628</ele><time>2019-10-02T14:49:35Z</time><name>PT13956</name></trkpt>
<trkpt lat="54.577352" lon="-3.213056"><ele>628</ele><time>2019-10-02T14:49:36Z</time><name>PT13957</name></trkpt>
<trkpt lat="54.577356" lon="-3.213037"><ele>628</ele><time>2019-10-02T14:49:37Z</time><name>PT13958</name></trkpt>
<trkpt lat="54.577362" lon="-3.213015"><ele>628</ele><time>2019-10-02T14:49:38Z</time><name>PT13959</name></trkpt>
<trkpt lat="54.577369" lon="-3.212999"><ele>628</ele><time>2019-10-02T14:49:39Z</time><name>PT13960</name></trkpt>
<trkpt lat="54.577375" lon="-3.212984"><ele>628</ele><time>2019-10-02T14:49:40Z</time><name>PT13961</name></trkpt>
<trkpt lat="54.577382" lon="-3.212966"><ele>628</ele><time>2019-10-02T14:49:41Z</time><name>PT13962</name></trkpt>
<trkpt lat="54.577386" lon="-3.212948"><ele>628</ele><time>2019-10-02T14:49:42Z</time><name>PT13963</name></trkpt>
<trkpt lat="54.577386" lon="-3.212928"><ele>628</ele><time>2019-10-02T14:49:43Z</time><name>PT13964</name></trkpt>
<trkpt lat="54.577385" lon="-3.212908"><ele>628</ele><time>2019-10-02T14:49:44Z</time><name>PT13965</name></trkpt>
<trkpt lat="54.577384" lon="-3.212889"><ele>628</ele><time>2019-10-02T14:49:45Z</time><name>PT13966</name></trkpt>
<trkpt lat="54.577383" lon="-3.212871"><ele>628</ele><time>2019-10-02T14:49:46Z</time><name>PT13967</name></trkpt>
<trkpt lat="54.577383" lon="-3.212852"><ele>628</ele><time>2019-10-02T14:49:47Z</time><name>PT13968</name></trkpt>
<trkpt lat="54.577382" lon="-3.212836"><ele>628</ele><time>2019-10-02T14:49:48Z</time><name>PT13969</name></trkpt>
<trkpt lat="54.577381" lon="-3.212822"><ele>628</ele><time>2019-10-02T14:49:48Z</time><name>PT13970</name></trkpt>
<trkpt lat="54.577383" lon="-3.212805"><ele>628</ele><time>2019-10-02T14:49:50Z</time><name>PT13971</name></trkpt>
<trkpt lat="54.577384" lon="-3.212791"><ele>628</ele><time>2019-10-02T14:49:50Z</time><name>PT13972</name></trkpt>
<trkpt lat="54.577384" lon="-3.212773"><ele>628</ele><time>2019-10-02T14:49:52Z</time><name>PT13973</name></trkpt>
<trkpt lat="54.577386" lon="-3.212756"><ele>628</ele><time>2019-10-02T14:49:52Z</time><name>PT13974</name></trkpt>
<trkpt lat="54.577389" lon="-3.212739"><ele>628</ele><time>2019-10-02T14:49:54Z</time><name>PT13975</name></trkpt>
<trkpt lat="54.577393" lon="-3.212721"><ele>629</ele><time>2019-10-02T14:49:54Z</time><name>PT13976</name></trkpt>
<trkpt lat="54.577397" lon="-3.212708"><ele>629</ele><time>2019-10-02T14:49:56Z</time><name>PT13977</name></trkpt>
<trkpt lat="54.577401" lon="-3.212697"><ele>629</ele><time>2019-10-02T14:49:56Z</time><name>PT13978</name></trkpt>
<trkpt lat="54.577404" lon="-3.212684"><ele>629</ele><time>2019-10-02T14:49:58Z</time><name>PT13979</name></trkpt>
<trkpt lat="54.577407" lon="-3.212664"><ele>629</ele><time>2019-10-02T14:49:58Z</time><name>PT13980</name></trkpt>
<trkpt lat="54.577409" lon="-3.212647"><ele>629</ele><time>2019-10-02T14:50:00Z</time><name>PT13981</name></trkpt>
<trkpt lat="54.577415" lon="-3.212624"><ele>630</ele><time>2019-10-02T14:50:00Z</time><name>PT13982</name></trkpt>
<trkpt lat="54.577421" lon="-3.212606"><ele>630</ele><time>2019-10-02T14:50:02Z</time><name>PT13983</name></trkpt>
<trkpt lat="54.577423" lon="-3.212585"><ele>630</ele><time>2019-10-02T14:50:02Z</time><name>PT13984</name></trkpt>
<trkpt lat="54.577420" lon="-3.212564"><ele>630</ele><time>2019-10-02T14:50:04Z</time><name>PT13985</name></trkpt>
<trkpt lat="54.577419" lon="-3.212547"><ele>630</ele><time>2019-10-02T14:50:04Z</time><name>PT13986</name></trkpt>
<trkpt lat="54.577417" lon="-3.212529"><ele>630</ele><time>2019-10-02T14:50:06Z</time><name>PT13987</name></trkpt>
<trkpt lat="54.577416" lon="-3.212510"><ele>630</ele><time>2019-10-02T14:50:06Z</time><name>PT13988</name></trkpt>
<trkpt lat="54.577414" lon="-3.212489"><ele>630</ele><time>2019-10-02T14:50:08Z</time><name>PT13989</name></trkpt>
<trkpt lat="54.577413" lon="-3.212472"><ele>630</ele><time>2019-10-02T14:50:08Z</time><name>PT13990</name></trkpt>
<trkpt lat="54.577409" lon="-3.212457"><ele>630</ele><time>2019-10-02T14:50:10Z</time><name>PT13991</name></trkpt>
<trkpt lat="54.577406" lon="-3.212441"><ele>630</ele><time>2019-10-02T14:50:10Z</time><name>PT13992</name></trkpt>
<trkpt lat="54.577405" lon="-3.212424"><ele>630</ele><time>2019-10-02T14:50:12Z</time><name>PT13993</name></trkpt>
<trkpt lat="54.577404" lon="-3.212408"><ele>630</ele><time>2019-10-02T14:50:12Z</time><name>PT13994</name></trkpt>
<trkpt lat="54.577404" lon="-3.212392"><ele>629</ele><time>2019-10-02T14:50:14Z</time><name>PT13995</name></trkpt>
<trkpt lat="54.577402" lon="-3.212373"><ele>629</ele><time>2019-10-02T14:50:14Z</time><name>PT13996</name></trkpt>
<trkpt lat="54.577399" lon="-3.212351"><ele>629</ele><time>2019-10-02T14:50:16Z</time><name>PT13997</name></trkpt>
<trkpt lat="54.577394" lon="-3.212323"><ele>629</ele><time>2019-10-02T14:50:16Z</time><name>PT13998</name></trkpt>
<trkpt lat="54.577391" lon="-3.212298"><ele>629</ele><time>2019-10-02T14:50:18Z</time><name>PT13999</name></trkpt>
<trkpt lat="54.577391" lon="-3.212277"><ele>629</ele><time>2019-10-02T14:50:18Z</time><name>PT14000</name></trkpt>
<trkpt lat="54.577392" lon="-3.212257"><ele>629</ele><time>2019-10-02T14:50:20Z</time><name>PT14001</name></trkpt>
<trkpt lat="54.577393" lon="-3.212234"><ele>629</ele><time>2019-10-02T14:50:20Z</time><name>PT14002</name></trkpt>
<trkpt lat="54.577393" lon="-3.212215"><ele>629</ele><time>2019-10-02T14:50:22Z</time><name>PT14003</name></trkpt>
<trkpt lat="54.577390" lon="-3.212197"><ele>629</ele><time>2019-10-02T14:50:22Z</time><name>PT14004</name></trkpt>
<trkpt lat="54.577386" lon="-3.212180"><ele>628</ele><time>2019-10-02T14:50:24Z</time><name>PT14005</name></trkpt>
<trkpt lat="54.577383" lon="-3.212163"><ele>628</ele><time>2019-10-02T14:50:24Z</time><name>PT14006</name></trkpt>
<trkpt lat="54.577379" lon="-3.212146"><ele>628</ele><time>2019-10-02T14:50:26Z</time><name>PT14007</name></trkpt>
<trkpt lat="54.577372" lon="-3.212127"><ele>628</ele><time>2019-10-02T14:50:26Z</time><name>PT14008</name></trkpt>
<trkpt lat="54.577366" lon="-3.212110"><ele>627</ele><time>2019-10-02T14:50:28Z</time><name>PT14009</name></trkpt>
<trkpt lat="54.577362" lon="-3.212092"><ele>627</ele><time>2019-10-02T14:50:28Z</time><name>PT14010</name></trkpt>
<trkpt lat="54.577357" lon="-3.212077"><ele>627</ele><time>2019-10-02T14:50:30Z</time><name>PT14011</name></trkpt>
<trkpt lat="54.577353" lon="-3.212061"><ele>628</ele><time>2019-10-02T14:50:30Z</time><name>PT14012</name></trkpt>
<trkpt lat="54.577350" lon="-3.212048"><ele>628</ele><time>2019-10-02T14:50:32Z</time><name>PT14013</name></trkpt>
<trkpt lat="54.577347" lon="-3.212037"><ele>628</ele><time>2019-10-02T14:50:32Z</time><name>PT14014</name></trkpt>
<trkpt lat="54.577344" lon="-3.212024"><ele>628</ele><time>2019-10-02T14:50:34Z</time><name>PT14015</name></trkpt>
<trkpt lat="54.577339" lon="-3.212009"><ele>628</ele><time>2019-10-02T14:50:34Z</time><name>PT14016</name></trkpt>
<trkpt lat="54.577334" lon="-3.211995"><ele>627</ele><time>2019-10-02T14:50:36Z</time><name>PT14017</name></trkpt>
<trkpt lat="54.577329" lon="-3.211981"><ele>627</ele><time>2019-10-02T14:50:36Z</time><name>PT14018</name></trkpt>
<trkpt lat="54.577325" lon="-3.211963"><ele>628</ele><time>2019-10-02T14:50:38Z</time><name>PT14019</name></trkpt>
<trkpt lat="54.577320" lon="-3.211949"><ele>628</ele><time>2019-10-02T14:50:38Z</time><name>PT14020</name></trkpt>
<trkpt lat="54.577316" lon="-3.211935"><ele>628</ele><time>2019-10-02T14:50:40Z</time><name>PT14021</name></trkpt>
<trkpt lat="54.577313" lon="-3.211919"><ele>628</ele><time>2019-10-02T14:50:41Z</time><name>PT14022</name></trkpt>
<trkpt lat="54.577313" lon="-3.211906"><ele>629</ele><time>2019-10-02T14:50:42Z</time><name>PT14023</name></trkpt>
<trkpt lat="54.577310" lon="-3.211896"><ele>629</ele><time>2019-10-02T14:50:42Z</time><name>PT14024</name></trkpt>
<trkpt lat="54.577306" lon="-3.211883"><ele>629</ele><time>2019-10-02T14:50:44Z</time><name>PT14025</name></trkpt>
<trkpt lat="54.577302" lon="-3.211867"><ele>630</ele><time>2019-10-02T14:50:45Z</time><name>PT14026</name></trkpt>
<trkpt lat="54.577298" lon="-3.211857"><ele>630</ele><time>2019-10-02T14:50:46Z</time><name>PT14027</name></trkpt>
<trkpt lat="54.577293" lon="-3.211849"><ele>630</ele><time>2019-10-02T14:50:47Z</time><name>PT14028</name></trkpt>
<trkpt lat="54.577291" lon="-3.211840"><ele>629</ele><time>2019-10-02T14:50:48Z</time><name>PT14029</name></trkpt>
<trkpt lat="54.577292" lon="-3.211828"><ele>629</ele><time>2019-10-02T14:50:49Z</time><name>PT14030</name></trkpt>
<trkpt lat="54.577292" lon="-3.211812"><ele>629</ele><time>2019-10-02T14:50:50Z</time><name>PT14031</name></trkpt>
<trkpt lat="54.577291" lon="-3.211794"><ele>629</ele><time>2019-10-02T14:50:51Z</time><name>PT14032</name></trkpt>
<trkpt lat="54.577288" lon="-3.211778"><ele>629</ele><time>2019-10-02T14:50:52Z</time><name>PT14033</name></trkpt>
<trkpt lat="54.577283" lon="-3.211757"><ele>630</ele><time>2019-10-02T14:50:53Z</time><name>PT14034</name></trkpt>
<trkpt lat="54.577279" lon="-3.211742"><ele>630</ele><time>2019-10-02T14:50:54Z</time><name>PT14035</name></trkpt>
<trkpt lat="54.577275" lon="-3.211728"><ele>630</ele><time>2019-10-02T14:50:54Z</time><name>PT14036</name></trkpt>
<trkpt lat="54.577271" lon="-3.211712"><ele>630</ele><time>2019-10-02T14:50:56Z</time><name>PT14037</name></trkpt>
<trkpt lat="54.577269" lon="-3.211697"><ele>630</ele><time>2019-10-02T14:50:56Z</time><name>PT14038</name></trkpt>
<trkpt lat="54.577268" lon="-3.211684"><ele>630</ele><time>2019-10-02T14:50:58Z</time><name>PT14039</name></trkpt>
<trkpt lat="54.577269" lon="-3.211664"><ele>630</ele><time>2019-10-02T14:50:58Z</time><name>PT14040</name></trkpt>
<trkpt lat="54.577268" lon="-3.211644"><ele>630</ele><time>2019-10-02T14:51:00Z</time><name>PT14041</name></trkpt>
<trkpt lat="54.577269" lon="-3.211627"><ele>630</ele><time>2019-10-02T14:51:00Z</time><name>PT14042</name></trkpt>
<trkpt lat="54.577269" lon="-3.211610"><ele>630</ele><time>2019-10-02T14:51:02Z</time><name>PT14043</name></trkpt>
<trkpt lat="54.577268" lon="-3.211596"><ele>630</ele><time>2019-10-02T14:51:02Z</time><name>PT14044</name></trkpt>
<trkpt lat="54.577268" lon="-3.211581"><ele>630</ele><time>2019-10-02T14:51:04Z</time><name>PT14045</name></trkpt>
<trkpt lat="54.577267" lon="-3.211566"><ele>630</ele><time>2019-10-02T14:51:04Z</time><name>PT14046</name></trkpt>
<trkpt lat="54.577266" lon="-3.211552"><ele>630</ele><time>2019-10-02T14:51:06Z</time><name>PT14047</name></trkpt>
<trkpt lat="54.577263" lon="-3.211535"><ele>630</ele><time>2019-10-02T14:51:06Z</time><name>PT14048</name></trkpt>
<trkpt lat="54.577261" lon="-3.211512"><ele>629</ele><time>2019-10-02T14:51:08Z</time><name>PT14049</name></trkpt>
<trkpt lat="54.577263" lon="-3.211493"><ele>629</ele><time>2019-10-02T14:51:08Z</time><name>PT14050</name></trkpt>
<trkpt lat="54.577269" lon="-3.211478"><ele>629</ele><time>2019-10-02T14:51:10Z</time><name>PT14051</name></trkpt>
<trkpt lat="54.577276" lon="-3.211462"><ele>629</ele><time>2019-10-02T14:51:10Z</time><name>PT14052</name></trkpt>
<trkpt lat="54.577283" lon="-3.211445"><ele>629</ele><time>2019-10-02T14:51:12Z</time><name>PT14053</name></trkpt>
<trkpt lat="54.577287" lon="-3.211428"><ele>628</ele><time>2019-10-02T14:51:12Z</time><name>PT14054</name></trkpt>
<trkpt lat="54.577290" lon="-3.211410"><ele>628</ele><time>2019-10-02T14:51:14Z</time><name>PT14055</name></trkpt>
<trkpt lat="54.577293" lon="-3.211389"><ele>628</ele><time>2019-10-02T14:51:14Z</time><name>PT14056</name></trkpt>
<trkpt lat="54.577292" lon="-3.211370"><ele>628</ele><time>2019-10-02T14:51:16Z</time><name>PT14057</name></trkpt>
<trkpt lat="54.577291" lon="-3.211350"><ele>628</ele><time>2019-10-02T14:51:16Z</time><name>PT14058</name></trkpt>
<trkpt lat="54.577288" lon="-3.211329"><ele>628</ele><time>2019-10-02T14:51:18Z</time><name>PT14059</name></trkpt>
<trkpt lat="54.577282" lon="-3.211313"><ele>628</ele><time>2019-10-02T14:51:18Z</time><name>PT14060</name></trkpt>
<trkpt lat="54.577276" lon="-3.211301"><ele>628</ele><time>2019-10-02T14:51:20Z</time><name>PT14061</name></trkpt>
<trkpt lat="54.577271" lon="-3.211292"><ele>628</ele><time>2019-10-02T14:51:20Z</time><name>PT14062</name></trkpt>
<trkpt lat="54.577263" lon="-3.211282"><ele>628</ele><time>2019-10-02T14:51:22Z</time><name>PT14063</name></trkpt>
<trkpt lat="54.577259" lon="-3.211271"><ele>627</ele><time>2019-10-02T14:51:22Z</time><name>PT14064</name></trkpt>
<trkpt lat="54.577253" lon="-3.211261"><ele>627</ele><time>2019-10-02T14:51:24Z</time><name>PT14065</name></trkpt>
<trkpt lat="54.577249" lon="-3.211246"><ele>627</ele><time>2019-10-02T14:51:24Z</time><name>PT14066</name></trkpt>
<trkpt lat="54.577247" lon="-3.211230"><ele>627</ele><time>2019-10-02T14:51:26Z</time><name>PT14067</name></trkpt>
<trkpt lat="54.577246" lon="-3.211212"><ele>627</ele><time>2019-10-02T14:51:26Z</time><name>PT14068</name></trkpt>
<trkpt lat="54.577245" lon="-3.211193"><ele>626</ele><time>2019-10-02T14:51:28Z</time><name>PT14069</name></trkpt>
<trkpt lat="54.577244" lon="-3.211173"><ele>626</ele><time>2019-10-02T14:51:28Z</time><name>PT14070</name></trkpt>
<trkpt lat="54.577241" lon="-3.211153"><ele>626</ele><time>2019-10-02T14:51:30Z</time><name>PT14071</name></trkpt>
<trkpt lat="54.577237" lon="-3.211135"><ele>626</ele><time>2019-10-02T14:51:30Z</time><name>PT14072</name></trkpt>
<trkpt lat="54.577232" lon="-3.211116"><ele>626</ele><time>2019-10-02T14:51:32Z</time><name>PT14073</name></trkpt>
<trkpt lat="54.577224" lon="-3.211094"><ele>626</ele><time>2019-10-02T14:51:32Z</time><name>PT14074</name></trkpt>
<trkpt lat="54.577216" lon="-3.211066"><ele>626</ele><time>2019-10-02T14:51:34Z</time><name>PT14075</name></trkpt>
<trkpt lat="54.577209" lon="-3.211046"><ele>626</ele><time>2019-10-02T14:51:34Z</time><name>PT14076</name></trkpt>
<trkpt lat="54.577203" lon="-3.211026"><ele>626</ele><time>2019-10-02T14:51:36Z</time><name>PT14077</name></trkpt>
<trkpt lat="54.577198" lon="-3.211007"><ele>626</ele><time>2019-10-02T14:51:36Z</time><name>PT14078</name></trkpt>
<trkpt lat="54.577193" lon="-3.210993"><ele>626</ele><time>2019-10-02T14:51:38Z</time><name>PT14079</name></trkpt>
<trkpt lat="54.577189" lon="-3.210977"><ele>626</ele><time>2019-10-02T14:51:38Z</time><name>PT14080</name></trkpt>
<trkpt lat="54.577186" lon="-3.210961"><ele>626</ele><time>2019-10-02T14:51:40Z</time><name>PT14081</name></trkpt>
<trkpt lat="54.577184" lon="-3.210948"><ele>626</ele><time>2019-10-02T14:51:40Z</time><name>PT14082</name></trkpt>
<trkpt lat="54.577182" lon="-3.210933"><ele>626</ele><time>2019-10-02T14:51:42Z</time><name>PT14083</name></trkpt>
<trkpt lat="54.577178" lon="-3.210916"><ele>627</ele><time>2019-10-02T14:51:42Z</time><name>PT14084</name></trkpt>
<trkpt lat="54.577174" lon="-3.210904"><ele>627</ele><time>2019-10-02T14:51:44Z</time><name>PT14085</name></trkpt>
<trkpt lat="54.577170" lon="-3.210890"><ele>627</ele><time>2019-10-02T14:51:44Z</time><name>PT14086</name></trkpt>
<trkpt lat="54.577166" lon="-3.210875"><ele>628</ele><time>2019-10-02T14:51:46Z</time><name>PT14087</name></trkpt>
<trkpt lat="54.577164" lon="-3.210862"><ele>628</ele><time>2019-10-02T14:51:46Z</time><name>PT14088</name></trkpt>
<trkpt lat="54.577163" lon="-3.210850"><ele>628</ele><time>2019-10-02T14:51:48Z</time><name>PT14089</name></trkpt>
<trkpt lat="54.577160" lon="-3.210838"><ele>628</ele><time>2019-10-02T14:51:48Z</time><name>PT14090</name></trkpt>
<trkpt lat="54.577157" lon="-3.210829"><ele>628</ele><time>2019-10-02T14:51:50Z</time><name>PT14091</name></trkpt>
<trkpt lat="54.577152" lon="-3.210819"><ele>628</ele><time>2019-10-02T14:51:50Z</time><name>PT14092</name></trkpt>
<trkpt lat="54.577146" lon="-3.210809"><ele>629</ele><time>2019-10-02T14:51:52Z</time><name>PT14093</name></trkpt>
<trkpt lat="54.577141" lon="-3.210799"><ele>629</ele><time>2019-10-02T14:51:52Z</time><name>PT14094</name></trkpt>
<trkpt lat="54.577138" lon="-3.210789"><ele>629</ele><time>2019-10-02T14:51:54Z</time><name>PT14095</name></trkpt>
<trkpt lat="54.577139" lon="-3.210776"><ele>629</ele><time>2019-10-02T14:51:54Z</time><name>PT14096</name></trkpt>
<trkpt lat="54.577141" lon="-3.210765"><ele>630</ele><time>2019-10-02T14:51:56Z</time><name>PT14097</name></trkpt>
<trkpt lat="54.577143" lon="-3.210751"><ele>630</ele><time>2019-10-02T14:51:56Z</time><name>PT14098</name></trkpt>
<trkpt lat="54.577142" lon="-3.210736"><ele>630</ele><time>2019-10-02T14:51:58Z</time><name>PT14099</name></trkpt>
<trkpt lat="54.577143" lon="-3.210726"><ele>631</ele><time>2019-10-02T14:51:58Z</time><name>PT14100</name></trkpt>
<trkpt lat="54.577146" lon="-3.210710"><ele>631</ele><time>2019-10-02T14:52:00Z</time><name>PT14101</name></trkpt>
<trkpt lat="54.577146" lon="-3.210696"><ele>632</ele><time>2019-10-02T14:52:00Z</time><name>PT14102</name></trkpt>
<trkpt lat="54.577145" lon="-3.210683"><ele>632</ele><time>2019-10-02T14:52:02Z</time><name>PT14103</name></trkpt>
<trkpt lat="54.577142" lon="-3.210666"><ele>632</ele><time>2019-10-02T14:52:02Z</time><name>PT14104</name></trkpt>
<trkpt lat="54.577140" lon="-3.210655"><ele>632</ele><time>2019-10-02T14:52:04Z</time><name>PT14105</name></trkpt>
<trkpt lat="54.577137" lon="-3.210643"><ele>631</ele><time>2019-10-02T14:52:04Z</time><name>PT14106</name></trkpt>
<trkpt lat="54.577135" lon="-3.210630"><ele>631</ele><time>2019-10-02T14:52:06Z</time><name>PT14107</name></trkpt>
<trkpt lat="54.577133" lon="-3.210617"><ele>631</ele><time>2019-10-02T14:52:06Z</time><name>PT14108</name></trkpt>
<trkpt lat="54.577129" lon="-3.210607"><ele>631</ele><time>2019-10-02T14:52:08Z</time><name>PT14109</name></trkpt>
<trkpt lat="54.577125" lon="-3.210596"><ele>631</ele><time>2019-10-02T14:52:08Z</time><name>PT14110</name></trkpt>
<trkpt lat="54.577119" lon="-3.210584"><ele>631</ele><time>2019-10-02T14:52:10Z</time><name>PT14111</name></trkpt>
<trkpt lat="54.577110" lon="-3.210573"><ele>631</ele><time>2019-10-02T14:52:10Z</time><name>PT14112</name></trkpt>
<trkpt lat="54.577103" lon="-3.210563"><ele>631</ele><time>2019-10-02T14:52:12Z</time><name>PT14113</name></trkpt>
<trkpt lat="54.577094" lon="-3.210551"><ele>631</ele><time>2019-10-02T14:52:12Z</time><name>PT14114</name></trkpt>
<trkpt lat="54.577085" lon="-3.210540"><ele>630</ele><time>2019-10-02T14:52:14Z</time><name>PT14115</name></trkpt>
<trkpt lat="54.577077" lon="-3.210529"><ele>630</ele><time>2019-10-02T14:52:14Z</time><name>PT14116</name></trkpt>
<trkpt lat="54.577069" lon="-3.210521"><ele>630</ele><time>2019-10-02T14:52:16Z</time><name>PT14117</name></trkpt>
<trkpt lat="54.577063" lon="-3.210520"><ele>630</ele><time>2019-10-02T14:52:16Z</time><name>PT14118</name></trkpt>
<trkpt lat="54.577055" lon="-3.210515"><ele>630</ele><time>2019-10-02T14:52:18Z</time><name>PT14119</name></trkpt>
<trkpt lat="54.577046" lon="-3.210507"><ele>630</ele><time>2019-10-02T14:52:18Z</time><name>PT14120</name></trkpt>
<trkpt lat="54.577038" lon="-3.210497"><ele>630</ele><time>2019-10-02T14:52:20Z</time><name>PT14121</name></trkpt>
<trkpt lat="54.577028" lon="-3.210488"><ele>629</ele><time>2019-10-02T14:52:20Z</time><name>PT14122</name></trkpt>
<trkpt lat="54.577021" lon="-3.210482"><ele>629</ele><time>2019-10-02T14:52:22Z</time><name>PT14123</name></trkpt>
<trkpt lat="54.577009" lon="-3.210479"><ele>629</ele><time>2019-10-02T14:52:22Z</time><name>PT14124</name></trkpt>
<trkpt lat="54.576997" lon="-3.210476"><ele>629</ele><time>2019-10-02T14:52:24Z</time><name>PT14125</name></trkpt>
<trkpt lat="54.576988" lon="-3.210473"><ele>629</ele><time>2019-10-02T14:52:24Z</time><name>PT14126</name></trkpt>
<trkpt lat="54.576979" lon="-3.210467"><ele>628</ele><time>2019-10-02T14:52:26Z</time><name>PT14127</name></trkpt>
<trkpt lat="54.576969" lon="-3.210457"><ele>628</ele><time>2019-10-02T14:52:26Z</time><name>PT14128</name></trkpt>
<trkpt lat="54.576958" lon="-3.210447"><ele>628</ele><time>2019-10-02T14:52:28Z</time><name>PT14129</name></trkpt>
<trkpt lat="54.576948" lon="-3.210439"><ele>628</ele><time>2019-10-02T14:52:28Z</time><name>PT14130</name></trkpt>
<trkpt lat="54.576938" lon="-3.210433"><ele>629</ele><time>2019-10-02T14:52:30Z</time><name>PT14131</name></trkpt>
<trkpt lat="54.576931" lon="-3.210431"><ele>629</ele><time>2019-10-02T14:52:30Z</time><name>PT14132</name></trkpt>
<trkpt lat="54.576925" lon="-3.210431"><ele>629</ele><time>2019-10-02T14:52:32Z</time><name>PT14133</name></trkpt>
<trkpt lat="54.576915" lon="-3.210428"><ele>629</ele><time>2019-10-02T14:52:32Z</time><name>PT14134</name></trkpt>
<trkpt lat="54.576903" lon="-3.210422"><ele>629</ele><time>2019-10-02T14:52:34Z</time><name>PT14135</name></trkpt>
<trkpt lat="54.576895" lon="-3.210415"><ele>630</ele><time>2019-10-02T14:52:34Z</time><name>PT14136</name></trkpt>
<trkpt lat="54.576888" lon="-3.210411"><ele>630</ele><time>2019-10-02T14:52:36Z</time><name>PT14137</name></trkpt>
<trkpt lat="54.576884" lon="-3.210410"><ele>630</ele><time>2019-10-02T14:52:37Z</time><name>PT14138</name></trkpt>
<trkpt lat="54.576878" lon="-3.210410"><ele>630</ele><time>2019-10-02T14:52:38Z</time><name>PT14139</name></trkpt>
<trkpt lat="54.576867" lon="-3.210405"><ele>630</ele><time>2019-10-02T14:52:38Z</time><name>PT14140</name></trkpt>
<trkpt lat="54.576860" lon="-3.210413"><ele>630</ele><time>2019-10-02T14:52:40Z</time><name>PT14141</name></trkpt>
<trkpt lat="54.576855" lon="-3.210415"><ele>630</ele><time>2019-10-02T14:52:40Z</time><name>PT14142</name></trkpt>
<trkpt lat="54.576849" lon="-3.210419"><ele>630</ele><time>2019-10-02T14:52:42Z</time><name>PT14143</name></trkpt>
<trkpt lat="54.576846" lon="-3.210419"><ele>630</ele><time>2019-10-02T14:52:42Z</time><name>PT14144</name></trkpt>
<trkpt lat="54.576841" lon="-3.210420"><ele>630</ele><time>2019-10-02T14:52:44Z</time><name>PT14145</name></trkpt>
<trkpt lat="54.576834" lon="-3.210420"><ele>630</ele><time>2019-10-02T14:52:44Z</time><name>PT14146</name></trkpt>
<trkpt lat="54.576829" lon="-3.210422"><ele>630</ele><time>2019-10-02T14:52:46Z</time><name>PT14147</name></trkpt>
<trkpt lat="54.576821" lon="-3.210422"><ele>631</ele><time>2019-10-02T14:52:46Z</time><name>PT14148</name></trkpt>
<trkpt lat="54.576815" lon="-3.210420"><ele>631</ele><time>2019-10-02T14:52:48Z</time><name>PT14149</name></trkpt>
<trkpt lat="54.576814" lon="-3.210414"><ele>631</ele><time>2019-10-02T14:52:49Z</time><name>PT14150</name></trkpt>
<trkpt lat="54.576813" lon="-3.210406"><ele>631</ele><time>2019-10-02T14:52:50Z</time><name>PT14151</name></trkpt>
<trkpt lat="54.576816" lon="-3.210396"><ele>631</ele><time>2019-10-02T14:52:51Z</time><name>PT14152</name></trkpt>
<trkpt lat="54.576815" lon="-3.210385"><ele>632</ele><time>2019-10-02T14:52:52Z</time><name>PT14153</name></trkpt>
<trkpt lat="54.576815" lon="-3.210378"><ele>632</ele><time>2019-10-02T14:52:53Z</time><name>PT14154</name></trkpt>
<trkpt lat="54.576811" lon="-3.210368"><ele>632</ele><time>2019-10-02T14:52:54Z</time><name>PT14155</name></trkpt>
<trkpt lat="54.576809" lon="-3.210355"><ele>632</ele><time>2019-10-02T14:52:55Z</time><name>PT14156</name></trkpt>
<trkpt lat="54.576805" lon="-3.210343"><ele>632</ele><time>2019-10-02T14:52:56Z</time><name>PT14157</name></trkpt>
<trkpt lat="54.576804" lon="-3.210329"><ele>632</ele><time>2019-10-02T14:52:57Z</time><name>PT14158</name></trkpt>
<trkpt lat="54.576805" lon="-3.210317"><ele>633</ele><time>2019-10-02T14:52:58Z</time><name>PT14159</name></trkpt>
<trkpt lat="54.576806" lon="-3.210306"><ele>633</ele><time>2019-10-02T14:52:59Z</time><name>PT14160</name></trkpt>
<trkpt lat="54.576808" lon="-3.210301"><ele>633</ele><time>2019-10-02T14:53:00Z</time><name>PT14161</name></trkpt>
<trkpt lat="54.576808" lon="-3.210296"><ele>634</ele><time>2019-10-02T14:53:00Z</time><name>PT14162</name></trkpt>
<trkpt lat="54.576810" lon="-3.210287"><ele>634</ele><time>2019-10-02T14:53:02Z</time><name>PT14163</name></trkpt>
<trkpt lat="54.576811" lon="-3.210281"><ele>634</ele><time>2019-10-02T14:53:02Z</time><name>PT14164</name></trkpt>
<trkpt lat="54.576812" lon="-3.210279"><ele>634</ele><time>2019-10-02T14:53:04Z</time><name>PT14165</name></trkpt>
<trkpt lat="54.576816" lon="-3.210272"><ele>634</ele><time>2019-10-02T14:53:04Z</time><name>PT14166</name></trkpt>
<trkpt lat="54.576819" lon="-3.210268"><ele>634</ele><time>2019-10-02T14:53:06Z</time><name>PT14167</name></trkpt>
<trkpt lat="54.576822" lon="-3.210258"><ele>634</ele><time>2019-10-02T14:53:06Z</time><name>PT14168</name></trkpt>
<trkpt lat="54.576824" lon="-3.210247"><ele>634</ele><time>2019-10-02T14:53:08Z</time><name>PT14169</name></trkpt>
<trkpt lat="54.576827" lon="-3.210239"><ele>635</ele><time>2019-10-02T14:53:08Z</time><name>PT14170</name></trkpt>
<trkpt lat="54.576829" lon="-3.210229"><ele>635</ele><time>2019-10-02T14:53:10Z</time><name>PT14171</name></trkpt>
<trkpt lat="54.576831" lon="-3.210222"><ele>635</ele><time>2019-10-02T14:53:10Z</time><name>PT14172</name></trkpt>
<trkpt lat="54.576832" lon="-3.210215"><ele>635</ele><time>2019-10-02T14:53:12Z</time><name>PT14173</name></trkpt>
<trkpt lat="54.576831" lon="-3.210204"><ele>635</ele><time>2019-10-02T14:53:12Z</time><name>PT14174</name></trkpt>
<trkpt lat="54.576828" lon="-3.210194"><ele>635</ele><time>2019-10-02T14:53:14Z</time><name>PT14175</name></trkpt>
<trkpt lat="54.576822" lon="-3.210189"><ele>635</ele><time>2019-10-02T14:53:14Z</time><name>PT14176</name></trkpt>
<trkpt lat="54.576817" lon="-3.210180"><ele>636</ele><time>2019-10-02T14:53:16Z</time><name>PT14177</name></trkpt>
<trkpt lat="54.576813" lon="-3.210173"><ele>636</ele><time>2019-10-02T14:53:16Z</time><name>PT14178</name></trkpt>
<trkpt lat="54.576812" lon="-3.210165"><ele>636</ele><time>2019-10-02T14:53:18Z</time><name>PT14179</name></trkpt>
<trkpt lat="54.576814" lon="-3.210157"><ele>636</ele><time>2019-10-02T14:53:18Z</time><name>PT14180</name></trkpt>
<trkpt lat="54.576813" lon="-3.210153"><ele>636</ele><time>2019-10-02T14:53:20Z</time><name>PT14181</name></trkpt>
<trkpt lat="54.576811" lon="-3.210149"><ele>635</ele><time>2019-10-02T14:53:20Z</time><name>PT14182</name></trkpt>
<trkpt lat="54.576808" lon="-3.210139"><ele>636</ele><time>2019-10-02T14:53:22Z</time><name>PT14183</name></trkpt>
<trkpt lat="54.576809" lon="-3.210127"><ele>636</ele><time>2019-10-02T14:53:22Z</time><name>PT14184</name></trkpt>
<trkpt lat="54.576811" lon="-3.210116"><ele>636</ele><time>2019-10-02T14:53:24Z</time><name>PT14185</name></trkpt>
<trkpt lat="54.576815" lon="-3.210109"><ele>636</ele><time>2019-10-02T14:53:24Z</time><name>PT14186</name></trkpt>
<trkpt lat="54.576817" lon="-3.210105"><ele>635</ele><time>2019-10-02T14:53:26Z</time><name>PT14187</name></trkpt>
<trkpt lat="54.576820" lon="-3.210103"><ele>635</ele><time>2019-10-02T14:53:26Z</time><name>PT14188</name></trkpt>
<trkpt lat="54.576823" lon="-3.210099"><ele>635</ele><time>2019-10-02T14:53:28Z</time><name>PT14189</name></trkpt>
<trkpt lat="54.576824" lon="-3.210094"><ele>635</ele><time>2019-10-02T14:53:28Z</time><name>PT14190</name></trkpt>
<trkpt lat="54.576824" lon="-3.210083"><ele>635</ele><time>2019-10-02T14:53:30Z</time><name>PT14191</name></trkpt>
<trkpt lat="54.576826" lon="-3.210074"><ele>635</ele><time>2019-10-02T14:53:30Z</time><name>PT14192</name></trkpt>
<trkpt lat="54.576829" lon="-3.210064"><ele>635</ele><time>2019-10-02T14:53:32Z</time><name>PT14193</name></trkpt>
<trkpt lat="54.576831" lon="-3.210057"><ele>635</ele><time>2019-10-02T14:53:32Z</time><name>PT14194</name></trkpt>
<trkpt lat="54.576831" lon="-3.210051"><ele>635</ele><time>2019-10-02T14:53:34Z</time><name>PT14195</name></trkpt>
<trkpt lat="54.576831" lon="-3.210044"><ele>635</ele><time>2019-10-02T14:53:34Z</time><name>PT14196</name></trkpt>
<trkpt lat="54.576831" lon="-3.210030"><ele>635</ele><time>2019-10-02T14:53:36Z</time><name>PT14197</name></trkpt>
<trkpt lat="54.576830" lon="-3.210020"><ele>635</ele><time>2019-10-02T14:53:36Z</time><name>PT14198</name></trkpt>
<trkpt lat="54.576827" lon="-3.210014"><ele>635</ele><time>2019-10-02T14:53:38Z</time><name>PT14199</name></trkpt>
<trkpt lat="54.576822" lon="-3.210008"><ele>635</ele><time>2019-10-02T14:53:38Z</time><name>PT14200</name></trkpt>
<trkpt lat="54.576817" lon="-3.210003"><ele>635</ele><time>2019-10-02T14:53:40Z</time><name>PT14201</name></trkpt>
<trkpt lat="54.576815" lon="-3.210000"><ele>635</ele><time>2019-10-02T14:53:40Z</time><name>PT14202</name></trkpt>
<trkpt lat="54.576814" lon="-3.210001"><ele>635</ele><time>2019-10-02T14:53:42Z</time><name>PT14203</name></trkpt>
<trkpt lat="54.576815" lon="-3.210000"><ele>635</ele><time>2019-10-02T14:53:42Z</time><name>PT14204</name></trkpt>
<trkpt lat="54.576816" lon="-3.209999"><ele>635</ele><time>2019-10-02T14:53:44Z</time><name>PT14205</name></trkpt>
<trkpt lat="54.576817" lon="-3.209996"><ele>635</ele><time>2019-10-02T14:53:53Z</time><name>PT14206</name></trkpt>
<trkpt lat="54.576817" lon="-3.209992"><ele>635</ele><time>2019-10-02T14:53:54Z</time><name>PT14207</name></trkpt>
<trkpt lat="54.576819" lon="-3.209993"><ele>635</ele><time>2019-10-02T14:53:55Z</time><name>PT14208</name></trkpt>
<trkpt lat="54.576819" lon="-3.209991"><ele>636</ele><time>2019-10-02T14:53:56Z</time><name>PT14209</name></trkpt>
<trkpt lat="54.576821" lon="-3.209988"><ele>636</ele><time>2019-10-02T14:53:57Z</time><name>PT14210</name></trkpt>
<trkpt lat="54.576827" lon="-3.209989"><ele>635</ele><time>2019-10-02T14:54:02Z</time><name>PT14211</name></trkpt>
<trkpt lat="54.576832" lon="-3.210001"><ele>635</ele><time>2019-10-02T14:54:04Z</time><name>PT14212</name></trkpt>
<trkpt lat="54.576833" lon="-3.210011"><ele>636</ele><time>2019-10-02T14:54:04Z</time><name>PT14213</name></trkpt>
<trkpt lat="54.576837" lon="-3.210019"><ele>635</ele><time>2019-10-02T14:54:06Z</time><name>PT14214</name></trkpt>
<trkpt lat="54.576840" lon="-3.210027"><ele>635</ele><time>2019-10-02T14:54:06Z</time><name>PT14215</name></trkpt>
<trkpt lat="54.576843" lon="-3.210035"><ele>636</ele><time>2019-10-02T14:54:08Z</time><name>PT14216</name></trkpt>
<trkpt lat="54.576841" lon="-3.210045"><ele>636</ele><time>2019-10-02T14:54:08Z</time><name>PT14217</name></trkpt>
<trkpt lat="54.576840" lon="-3.210054"><ele>636</ele><time>2019-10-02T14:54:10Z</time><name>PT14218</name></trkpt>
<trkpt lat="54.576838" lon="-3.210061"><ele>637</ele><time>2019-10-02T14:54:10Z</time><name>PT14219</name></trkpt>
<trkpt lat="54.576839" lon="-3.210066"><ele>637</ele><time>2019-10-02T14:54:12Z</time><name>PT14220</name></trkpt>
<trkpt lat="54.576840" lon="-3.210067"><ele>637</ele><time>2019-10-02T14:54:12Z</time><name>PT14221</name></trkpt>
<trkpt lat="54.576840" lon="-3.210070"><ele>637</ele><time>2019-10-02T14:54:14Z</time><name>PT14222</name></trkpt>
<trkpt lat="54.576842" lon="-3.210071"><ele>637</ele><time>2019-10-02T14:54:14Z</time><name>PT14223</name></trkpt>
<trkpt lat="54.576844" lon="-3.210073"><ele>637</ele><time>2019-10-02T14:54:24Z</time><name>PT14224</name></trkpt>
<trkpt lat="54.576845" lon="-3.210083"><ele>638</ele><time>2019-10-02T14:54:24Z</time><name>PT14225</name></trkpt>
<trkpt lat="54.576844" lon="-3.210088"><ele>638</ele><time>2019-10-02T14:54:26Z</time><name>PT14226</name></trkpt>
<trkpt lat="54.576847" lon="-3.210087"><ele>638</ele><time>2019-10-02T14:54:26Z</time><name>PT14227</name></trkpt>
<trkpt lat="54.576851" lon="-3.210096"><ele>638</ele><time>2019-10-02T14:54:28Z</time><name>PT14228</name></trkpt>
<trkpt lat="54.576854" lon="-3.210100"><ele>638</ele><time>2019-10-02T14:54:28Z</time><name>PT14229</name></trkpt>
<trkpt lat="54.576855" lon="-3.210101"><ele>638</ele><time>2019-10-02T14:54:30Z</time><name>PT14230</name></trkpt>
<trkpt lat="54.576859" lon="-3.210109"><ele>638</ele><time>2019-10-02T14:54:30Z</time><name>PT14231</name></trkpt>
<trkpt lat="54.576862" lon="-3.210116"><ele>638</ele><time>2019-10-02T14:54:32Z</time><name>PT14232</name></trkpt>
<trkpt lat="54.576862" lon="-3.210122"><ele>638</ele><time>2019-10-02T14:54:32Z</time><name>PT14233</name></trkpt>
<trkpt lat="54.576863" lon="-3.210123"><ele>638</ele><time>2019-10-02T14:54:34Z</time><name>PT14234</name></trkpt>
<trkpt lat="54.576865" lon="-3.210124"><ele>638</ele><time>2019-10-02T14:54:34Z</time><name>PT14235</name></trkpt>
<trkpt lat="54.576866" lon="-3.210130"><ele>638</ele><time>2019-10-02T14:54:42Z</time><name>PT14236</name></trkpt>
<trkpt lat="54.576865" lon="-3.210132"><ele>638</ele><time>2019-10-02T14:54:44Z</time><name>PT14237</name></trkpt>
<trkpt lat="54.576864" lon="-3.210129"><ele>638</ele><time>2019-10-02T14:54:44Z</time><name>PT14238</name></trkpt>
<trkpt lat="54.576862" lon="-3.210128"><ele>638</ele><time>2019-10-02T14:54:46Z</time><name>PT14239</name></trkpt>
<trkpt lat="54.576864" lon="-3.210125"><ele>638</ele><time>2019-10-02T14:54:46Z</time><name>PT14240</name></trkpt>
<trkpt lat="54.576862" lon="-3.210117"><ele>638</ele><time>2019-10-02T14:54:48Z</time><name>PT14241</name></trkpt>
<trkpt lat="54.576862" lon="-3.210114"><ele>638</ele><time>2019-10-02T14:54:48Z</time><name>PT14242</name></trkpt>
<trkpt lat="54.576863" lon="-3.210110"><ele>638</ele><time>2019-10-02T14:54:50Z</time><name>PT14243</name></trkpt>
<trkpt lat="54.576863" lon="-3.210103"><ele>637</ele><time>2019-10-02T14:54:50Z</time><name>PT14244</name></trkpt>
<trkpt lat="54.576862" lon="-3.210093"><ele>637</ele><time>2019-10-02T14:54:52Z</time><name>PT14245</name></trkpt>
<trkpt lat="54.576856" lon="-3.210082"><ele>637</ele><time>2019-10-02T14:54:52Z</time><name>PT14246</name></trkpt>
<trkpt lat="54.576851" lon="-3.210067"><ele>637</ele><time>2019-10-02T14:54:54Z</time><name>PT14247</name></trkpt>
<trkpt lat="54.576851" lon="-3.210054"><ele>637</ele><time>2019-10-02T14:54:54Z</time><name>PT14248</name></trkpt>
<trkpt lat="54.576851" lon="-3.210041"><ele>637</ele><time>2019-10-02T14:54:56Z</time><name>PT14249</name></trkpt>
<trkpt lat="54.576852" lon="-3.210026"><ele>637</ele><time>2019-10-02T14:54:56Z</time><name>PT14250</name></trkpt>
<trkpt lat="54.576853" lon="-3.210018"><ele>637</ele><time>2019-10-02T14:54:58Z</time><name>PT14251</name></trkpt>
<trkpt lat="54.576851" lon="-3.210014"><ele>637</ele><time>2019-10-02T14:54:58Z</time><name>PT14252</name></trkpt>
<trkpt lat="54.576851" lon="-3.210015"><ele>637</ele><time>2019-10-02T14:55:00Z</time><name>PT14253</name></trkpt>
<trkpt lat="54.576848" lon="-3.210010"><ele>637</ele><time>2019-10-02T14:55:00Z</time><name>PT14254</name></trkpt>
<trkpt lat="54.576847" lon="-3.210011"><ele>636</ele><time>2019-10-02T14:55:02Z</time><name>PT14255</name></trkpt>
<trkpt lat="54.576848" lon="-3.210010"><ele>636</ele><time>2019-10-02T14:55:08Z</time><name>PT14256</name></trkpt>
<trkpt lat="54.576849" lon="-3.210001"><ele>636</ele><time>2019-10-02T14:55:08Z</time><name>PT14257</name></trkpt>
<trkpt lat="54.576846" lon="-3.209995"><ele>636</ele><time>2019-10-02T14:55:14Z</time><name>PT14258</name></trkpt>
<trkpt lat="54.576846" lon="-3.209994"><ele>636</ele><time>2019-10-02T14:55:15Z</time><name>PT14259</name></trkpt>
<trkpt lat="54.576846" lon="-3.209991"><ele>636</ele><time>2019-10-02T14:55:16Z</time><name>PT14260</name></trkpt>
<trkpt lat="54.576849" lon="-3.209991"><ele>636</ele><time>2019-10-02T14:55:17Z</time><name>PT14261</name></trkpt>
<trkpt lat="54.576850" lon="-3.209982"><ele>637</ele><time>2019-10-02T14:55:30Z</time><name>PT14262</name></trkpt>
<trkpt lat="54.576851" lon="-3.209981"><ele>637</ele><time>2019-10-02T14:55:32Z</time><name>PT14263</name></trkpt>
<trkpt lat="54.576846" lon="-3.209976"><ele>637</ele><time>2019-10-02T14:55:32Z</time><name>PT14264</name></trkpt>
<trkpt lat="54.576841" lon="-3.209974"><ele>636</ele><time>2019-10-02T14:55:34Z</time><name>PT14265</name></trkpt>
<trkpt lat="54.576840" lon="-3.209973"><ele>637</ele><time>2019-10-02T14:55:34Z</time><name>PT14266</name></trkpt>
<trkpt lat="54.576840" lon="-3.209971"><ele>637</ele><time>2019-10-02T14:55:36Z</time><name>PT14267</name></trkpt>
<trkpt lat="54.576840" lon="-3.209970"><ele>636</ele><time>2019-10-02T14:55:36Z</time><name>PT14268</name></trkpt>
<trkpt lat="54.576842" lon="-3.209970"><ele>636</ele><time>2019-10-02T14:56:18Z</time><name>PT14269</name></trkpt>
<trkpt lat="54.576841" lon="-3.209972"><ele>636</ele><time>2019-10-02T14:56:18Z</time><name>PT14270</name></trkpt>
<trkpt lat="54.576841" lon="-3.209976"><ele>636</ele><time>2019-10-02T14:56:20Z</time><name>PT14271</name></trkpt>
<trkpt lat="54.576839" lon="-3.209974"><ele>636</ele><time>2019-10-02T14:56:21Z</time><name>PT14272</name></trkpt>
<trkpt lat="54.576840" lon="-3.209970"><ele>636</ele><time>2019-10-02T14:56:22Z</time><name>PT14273</name></trkpt>
<trkpt lat="54.576839" lon="-3.209968"><ele>636</ele><time>2019-10-02T14:56:23Z</time><name>PT14274</name></trkpt>
<trkpt lat="54.576844" lon="-3.209963"><ele>636</ele><time>2019-10-02T14:56:24Z</time><name>PT14275</name></trkpt>
<trkpt lat="54.576849" lon="-3.209960"><ele>637</ele><time>2019-10-02T14:56:25Z</time><name>PT14276</name></trkpt>
<trkpt lat="54.576851" lon="-3.209963"><ele>637</ele><time>2019-10-02T14:56:26Z</time><name>PT14277</name></trkpt>
<trkpt lat="54.576851" lon="-3.209956"><ele>638</ele><time>2019-10-02T14:56:26Z</time><name>PT14278</name></trkpt>
<trkpt lat="54.576855" lon="-3.209955"><ele>638</ele><time>2019-10-02T14:56:28Z</time><name>PT14279</name></trkpt>
<trkpt lat="54.576857" lon="-3.209948"><ele>637</ele><time>2019-10-02T14:56:28Z</time><name>PT14280</name></trkpt>
<trkpt lat="54.576857" lon="-3.209938"><ele>637</ele><time>2019-10-02T14:56:30Z</time><name>PT14281</name></trkpt>
<trkpt lat="54.576856" lon="-3.209940"><ele>637</ele><time>2019-10-02T14:56:31Z</time><name>PT14282</name></trkpt>
<trkpt lat="54.576852" lon="-3.209948"><ele>638</ele><time>2019-10-02T14:56:32Z</time><name>PT14283</name></trkpt>
<trkpt lat="54.576852" lon="-3.209945"><ele>638</ele><time>2019-10-02T14:56:32Z</time><name>PT14284</name></trkpt>
<trkpt lat="54.576860" lon="-3.209952"><ele>637</ele><time>2019-10-02T14:56:34Z</time><name>PT14285</name></trkpt>
<trkpt lat="54.576859" lon="-3.209951"><ele>637</ele><time>2019-10-02T14:56:34Z</time><name>PT14286</name></trkpt>
<trkpt lat="54.576858" lon="-3.209951"><ele>637</ele><time>2019-10-02T14:56:36Z</time><name>PT14287</name></trkpt>
<trkpt lat="54.576851" lon="-3.209950"><ele>637</ele><time>2019-10-02T14:56:56Z</time><name>PT14288</name></trkpt>
<trkpt lat="54.576841" lon="-3.209952"><ele>637</ele><time>2019-10-02T14:56:57Z</time><name>PT14289</name></trkpt>
<trkpt lat="54.576837" lon="-3.209952"><ele>637</ele><time>2019-10-02T14:56:58Z</time><name>PT14290</name></trkpt>
<trkpt lat="54.576828" lon="-3.209954"><ele>638</ele><time>2019-10-02T14:56:59Z</time><name>PT14291</name></trkpt>
<trkpt lat="54.576821" lon="-3.209961"><ele>637</ele><time>2019-10-02T14:57:00Z</time><name>PT14292</name></trkpt>
<trkpt lat="54.576815" lon="-3.209963"><ele>637</ele><time>2019-10-02T14:57:01Z</time><name>PT14293</name></trkpt>
<trkpt lat="54.576811" lon="-3.209965"><ele>637</ele><time>2019-10-02T14:57:02Z</time><name>PT14294</name></trkpt>
<trkpt lat="54.576808" lon="-3.209969"><ele>637</ele><time>2019-10-02T14:57:04Z</time><name>PT14295</name></trkpt>
<trkpt lat="54.576799" lon="-3.209971"><ele>637</ele><time>2019-10-02T14:57:06Z</time><name>PT14296</name></trkpt>
<trkpt lat="54.576800" lon="-3.209964"><ele>637</ele><time>2019-10-02T14:57:06Z</time><name>PT14297</name></trkpt>
<trkpt lat="54.576806" lon="-3.209956"><ele>637</ele><time>2019-10-02T14:57:08Z</time><name>PT14298</name></trkpt>
<trkpt lat="54.576806" lon="-3.209956"><ele>637</ele><time>2019-10-02T14:57:08Z</time><name>PT14299</name></trkpt>
<trkpt lat="54.576803" lon="-3.209960"><ele>638</ele><time>2019-10-02T14:57:10Z</time><name>PT14300</name></trkpt>
<trkpt lat="54.576795" lon="-3.209962"><ele>638</ele><time>2019-10-02T14:57:10Z</time><name>PT14301</name></trkpt>
<trkpt lat="54.576789" lon="-3.209958"><ele>638</ele><time>2019-10-02T14:57:12Z</time><name>PT14302</name></trkpt>
<trkpt lat="54.576782" lon="-3.209960"><ele>638</ele><time>2019-10-02T14:57:12Z</time><name>PT14303</name></trkpt>
<trkpt lat="54.576776" lon="-3.209965"><ele>638</ele><time>2019-10-02T14:57:14Z</time><name>PT14304</name></trkpt>
<trkpt lat="54.576774" lon="-3.209971"><ele>637</ele><time>2019-10-02T14:57:14Z</time><name>PT14305</name></trkpt>
<trkpt lat="54.576770" lon="-3.209974"><ele>637</ele><time>2019-10-02T14:57:16Z</time><name>PT14306</name></trkpt>
<trkpt lat="54.576764" lon="-3.209976"><ele>637</ele><time>2019-10-02T14:57:16Z</time><name>PT14307</name></trkpt>
<trkpt lat="54.576760" lon="-3.209980"><ele>636</ele><time>2019-10-02T14:57:18Z</time><name>PT14308</name></trkpt>
<trkpt lat="54.576754" lon="-3.209990"><ele>636</ele><time>2019-10-02T14:57:18Z</time><name>PT14309</name></trkpt>
<trkpt lat="54.576751" lon="-3.209992"><ele>636</ele><time>2019-10-02T14:57:20Z</time><name>PT14310</name></trkpt>
<trkpt lat="54.576750" lon="-3.209984"><ele>636</ele><time>2019-10-02T14:57:20Z</time><name>PT14311</name></trkpt>
<trkpt lat="54.576750" lon="-3.209976"><ele>635</ele><time>2019-10-02T14:57:22Z</time><name>PT14312</name></trkpt>
<trkpt lat="54.576751" lon="-3.209969"><ele>635</ele><time>2019-10-02T14:57:22Z</time><name>PT14313</name></trkpt>
<trkpt lat="54.576752" lon="-3.209963"><ele>635</ele><time>2019-10-02T14:57:24Z</time><name>PT14314</name></trkpt>
<trkpt lat="54.576753" lon="-3.209963"><ele>634</ele><time>2019-10-02T14:57:24Z</time><name>PT14315</name></trkpt>
<trkpt lat="54.576754" lon="-3.209962"><ele>634</ele><time>2019-10-02T14:57:26Z</time><name>PT14316</name></trkpt>
<trkpt lat="54.576753" lon="-3.209963"><ele>634</ele><time>2019-10-02T14:57:28Z</time><name>PT14317</name></trkpt>
<trkpt lat="54.576754" lon="-3.209950"><ele>634</ele><time>2019-10-02T14:57:28Z</time><name>PT14318</name></trkpt>
<trkpt lat="54.576754" lon="-3.209938"><ele>634</ele><time>2019-10-02T14:57:30Z</time><name>PT14319</name></trkpt>
<trkpt lat="54.576754" lon="-3.209927"><ele>633</ele><time>2019-10-02T14:57:30Z</time><name>PT14320</name></trkpt>
<trkpt lat="54.576751" lon="-3.209924"><ele>633</ele><time>2019-10-02T14:57:32Z</time><name>PT14321</name></trkpt>
<trkpt lat="54.576750" lon="-3.209916"><ele>633</ele><time>2019-10-02T14:57:32Z</time><name>PT14322</name></trkpt>
<trkpt lat="54.576751" lon="-3.209908"><ele>632</ele><time>2019-10-02T14:57:34Z</time><name>PT14323</name></trkpt>
<trkpt lat="54.576754" lon="-3.209898"><ele>632</ele><time>2019-10-02T14:57:34Z</time><name>PT14324</name></trkpt>
<trkpt lat="54.576757" lon="-3.209886"><ele>632</ele><time>2019-10-02T14:57:36Z</time><name>PT14325</name></trkpt>
<trkpt lat="54.576759" lon="-3.209875"><ele>631</ele><time>2019-10-02T14:57:36Z</time><name>PT14326</name></trkpt>
<trkpt lat="54.576767" lon="-3.209870"><ele>631</ele><time>2019-10-02T14:57:38Z</time><name>PT14327</name></trkpt>
<trkpt lat="54.576772" lon="-3.209870"><ele>631</ele><time>2019-10-02T14:57:38Z</time><name>PT14328</name></trkpt>
<trkpt lat="54.576776" lon="-3.209871"><ele>631</ele><time>2019-10-02T14:57:40Z</time><name>PT14329</name></trkpt>
<trkpt lat="54.576781" lon="-3.209871"><ele>631</ele><time>2019-10-02T14:57:40Z</time><name>PT14330</name></trkpt>
<trkpt lat="54.576779" lon="-3.209867"><ele>630</ele><time>2019-10-02T14:57:42Z</time><name>PT14331</name></trkpt>
<trkpt lat="54.576774" lon="-3.209861"><ele>630</ele><time>2019-10-02T14:57:42Z</time><name>PT14332</name></trkpt>
<trkpt lat="54.576769" lon="-3.209862"><ele>630</ele><time>2019-10-02T14:57:44Z</time><name>PT14333</name></trkpt>
<trkpt lat="54.576764" lon="-3.209860"><ele>630</ele><time>2019-10-02T14:57:44Z</time><name>PT14334</name></trkpt>
<trkpt lat="54.576759" lon="-3.209858"><ele>630</ele><time>2019-10-02T14:57:46Z</time><name>PT14335</name></trkpt>
<trkpt lat="54.576755" lon="-3.209851"><ele>630</ele><time>2019-10-02T14:57:46Z</time><name>PT14336</name></trkpt>
<trkpt lat="54.576755" lon="-3.209844"><ele>630</ele><time>2019-10-02T14:57:48Z</time><name>PT14337</name></trkpt>
<trkpt lat="54.576754" lon="-3.209843"><ele>630</ele><time>2019-10-02T14:57:48Z</time><name>PT14338</name></trkpt>
<trkpt lat="54.576753" lon="-3.209842"><ele>630</ele><time>2019-10-02T14:57:50Z</time><name>PT14339</name></trkpt>
<trkpt lat="54.576754" lon="-3.209840"><ele>630</ele><time>2019-10-02T14:57:50Z</time><name>PT14340</name></trkpt>
<trkpt lat="54.576753" lon="-3.209841"><ele>629</ele><time>2019-10-02T14:57:52Z</time><name>PT14341</name></trkpt>
<trkpt lat="54.576750" lon="-3.209842"><ele>630</ele><time>2019-10-02T14:57:53Z</time><name>PT14342</name></trkpt>
<trkpt lat="54.576747" lon="-3.209841"><ele>630</ele><time>2019-10-02T14:57:54Z</time><name>PT14343</name></trkpt>
<trkpt lat="54.576746" lon="-3.209839"><ele>630</ele><time>2019-10-02T14:57:54Z</time><name>PT14344</name></trkpt>
<trkpt lat="54.576750" lon="-3.209835"><ele>630</ele><time>2019-10-02T14:57:56Z</time><name>PT14345</name></trkpt>
<trkpt lat="54.576756" lon="-3.209830"><ele>629</ele><time>2019-10-02T14:57:57Z</time><name>PT14346</name></trkpt>
<trkpt lat="54.576760" lon="-3.209825"><ele>629</ele><time>2019-10-02T14:57:58Z</time><name>PT14347</name></trkpt>
<trkpt lat="54.576765" lon="-3.209814"><ele>628</ele><time>2019-10-02T14:57:58Z</time><name>PT14348</name></trkpt>
<trkpt lat="54.576770" lon="-3.209807"><ele>628</ele><time>2019-10-02T14:58:00Z</time><name>PT14349</name></trkpt>
<trkpt lat="54.576774" lon="-3.209799"><ele>627</ele><time>2019-10-02T14:58:00Z</time><name>PT14350</name></trkpt>
<trkpt lat="54.576779" lon="-3.209798"><ele>627</ele><time>2019-10-02T14:58:02Z</time><name>PT14351</name></trkpt>
<trkpt lat="54.576783" lon="-3.209796"><ele>626</ele><time>2019-10-02T14:58:02Z</time><name>PT14352</name></trkpt>
<trkpt lat="54.576786" lon="-3.209796"><ele>626</ele><time>2019-10-02T14:58:04Z</time><name>PT14353</name></trkpt>
<trkpt lat="54.576789" lon="-3.209796"><ele>626</ele><time>2019-10-02T14:58:04Z</time><name>PT14354</name></trkpt>
<trkpt lat="54.576789" lon="-3.209794"><ele>626</ele><time>2019-10-02T14:58:06Z</time><name>PT14355</name></trkpt>
<trkpt lat="54.576789" lon="-3.209791"><ele>626</ele><time>2019-10-02T14:58:06Z</time><name>PT14356</name></trkpt>
<trkpt lat="54.576791" lon="-3.209790"><ele>626</ele><time>2019-10-02T14:58:08Z</time><name>PT14357</name></trkpt>
<trkpt lat="54.576792" lon="-3.209790"><ele>626</ele><time>2019-10-02T14:58:08Z</time><name>PT14358</name></trkpt>
<trkpt lat="54.576793" lon="-3.209790"><ele>626</ele><time>2019-10-02T14:58:10Z</time><name>PT14359</name></trkpt>
<trkpt lat="54.576796" lon="-3.209788"><ele>626</ele><time>2019-10-02T14:58:18Z</time><name>PT14360</name></trkpt>
<trkpt lat="54.576796" lon="-3.209788"><ele>625</ele><time>2019-10-02T14:58:20Z</time><name>PT14361</name></trkpt>
<trkpt lat="54.576794" lon="-3.209789"><ele>625</ele><time>2019-10-02T14:58:20Z</time><name>PT14362</name></trkpt>
<trkpt lat="54.576794" lon="-3.209787"><ele>625</ele><time>2019-10-02T14:58:22Z</time><name>PT14363</name></trkpt>
<trkpt lat="54.576793" lon="-3.209785"><ele>624</ele><time>2019-10-02T14:58:22Z</time><name>PT14364</name></trkpt>
<trkpt lat="54.576794" lon="-3.209785"><ele>624</ele><time>2019-10-02T14:58:24Z</time><name>PT14365</name></trkpt>
<trkpt lat="54.576796" lon="-3.209776"><ele>624</ele><time>2019-10-02T14:58:24Z</time><name>PT14366</name></trkpt>
<trkpt lat="54.576797" lon="-3.209771"><ele>623</ele><time>2019-10-02T14:58:26Z</time><name>PT14367</name></trkpt>
<trkpt lat="54.576797" lon="-3.209766"><ele>623</ele><time>2019-10-02T14:58:27Z</time><name>PT14368</name></trkpt>
<trkpt lat="54.576800" lon="-3.209761"><ele>623</ele><time>2019-10-02T14:58:28Z</time><name>PT14369</name></trkpt>
<trkpt lat="54.576811" lon="-3.209748"><ele>623</ele><time>2019-10-02T14:58:38Z</time><name>PT14370</name></trkpt>
<trkpt lat="54.576810" lon="-3.209740"><ele>623</ele><time>2019-10-02T14:58:38Z</time><name>PT14371</name></trkpt>
<trkpt lat="54.576812" lon="-3.209724"><ele>622</ele><time>2019-10-02T14:58:40Z</time><name>PT14372</name></trkpt>
<trkpt lat="54.576810" lon="-3.209707"><ele>622</ele><time>2019-10-02T14:58:40Z</time><name>PT14373</name></trkpt>
<trkpt lat="54.576807" lon="-3.209700"><ele>621</ele><time>2019-10-02T14:58:42Z</time><name>PT14374</name></trkpt>
<trkpt lat="54.576804" lon="-3.209691"><ele>621</ele><time>2019-10-02T14:58:43Z</time><name>PT14375</name></trkpt>
<trkpt lat="54.576798" lon="-3.209686"><ele>621</ele><time>2019-10-02T14:58:43Z</time><name>PT14376</name></trkpt>
<trkpt lat="54.576797" lon="-3.209684"><ele>620</ele><time>2019-10-02T14:58:45Z</time><name>PT14377</name></trkpt>
<trkpt lat="54.576798" lon="-3.209679"><ele>620</ele><time>2019-10-02T14:58:45Z</time><name>PT14378</name></trkpt>
<trkpt lat="54.576797" lon="-3.209679"><ele>620</ele><time>2019-10-02T14:58:47Z</time><name>PT14379</name></trkpt>
<trkpt lat="54.576797" lon="-3.209671"><ele>620</ele><time>2019-10-02T14:58:50Z</time><name>PT14380</name></trkpt>
<trkpt lat="54.576790" lon="-3.209660"><ele>619</ele><time>2019-10-02T14:58:50Z</time><name>PT14381</name></trkpt>
<trkpt lat="54.576788" lon="-3.209658"><ele>619</ele><time>2019-10-02T14:58:52Z</time><name>PT14382</name></trkpt>
<trkpt lat="54.576787" lon="-3.209653"><ele>619</ele><time>2019-10-02T14:58:52Z</time><name>PT14383</name></trkpt>
<trkpt lat="54.576789" lon="-3.209649"><ele>619</ele><time>2019-10-02T14:58:54Z</time><name>PT14384</name></trkpt>
<trkpt lat="54.576787" lon="-3.209645"><ele>619</ele><time>2019-10-02T14:58:54Z</time><name>PT14385</name></trkpt>
<trkpt lat="54.576783" lon="-3.209639"><ele>618</ele><time>2019-10-02T14:59:00Z</time><name>PT14386</name></trkpt>
<trkpt lat="54.576776" lon="-3.209633"><ele>619</ele><time>2019-10-02T14:59:02Z</time><name>PT14387</name></trkpt>
<trkpt lat="54.576775" lon="-3.209628"><ele>618</ele><time>2019-10-02T14:59:02Z</time><name>PT14388</name></trkpt>
<trkpt lat="54.576774" lon="-3.209622"><ele>618</ele><time>2019-10-02T14:59:04Z</time><name>PT14389</name></trkpt>
<trkpt lat="54.576772" lon="-3.209620"><ele>618</ele><time>2019-10-02T14:59:04Z</time><name>PT14390</name></trkpt>
<trkpt lat="54.576772" lon="-3.209615"><ele>617</ele><time>2019-10-02T14:59:06Z</time><name>PT14391</name></trkpt>
<trkpt lat="54.576771" lon="-3.209613"><ele>617</ele><time>2019-10-02T14:59:06Z</time><name>PT14392</name></trkpt>
<trkpt lat="54.576767" lon="-3.209612"><ele>617</ele><time>2019-10-02T14:59:08Z</time><name>PT14393</name></trkpt>
<trkpt lat="54.576757" lon="-3.209614"><ele>616</ele><time>2019-10-02T14:59:08Z</time><name>PT14394</name></trkpt>
<trkpt lat="54.576751" lon="-3.209613"><ele>616</ele><time>2019-10-02T14:59:10Z</time><name>PT14395</name></trkpt>
<trkpt lat="54.576750" lon="-3.209610"><ele>616</ele><time>2019-10-02T14:59:10Z</time><name>PT14396</name></trkpt>
<trkpt lat="54.576746" lon="-3.209607"><ele>616</ele><time>2019-10-02T14:59:12Z</time><name>PT14397</name></trkpt>
<trkpt lat="54.576742" lon="-3.209605"><ele>615</ele><time>2019-10-02T14:59:12Z</time><name>PT14398</name></trkpt>
<trkpt lat="54.576740" lon="-3.209604"><ele>615</ele><time>2019-10-02T14:59:14Z</time><name>PT14399</name></trkpt>
<trkpt lat="54.576738" lon="-3.209602"><ele>615</ele><time>2019-10-02T14:59:14Z</time><name>PT14400</name></trkpt>
<trkpt lat="54.576740" lon="-3.209606"><ele>615</ele><time>2019-10-02T14:59:22Z</time><name>PT14401</name></trkpt>
<trkpt lat="54.576734" lon="-3.209606"><ele>614</ele><time>2019-10-02T14:59:23Z</time><name>PT14402</name></trkpt>
<trkpt lat="54.576735" lon="-3.209597"><ele>614</ele><time>2019-10-02T14:59:24Z</time><name>PT14403</name></trkpt>
<trkpt lat="54.576737" lon="-3.209592"><ele>614</ele><time>2019-10-02T14:59:24Z</time><name>PT14404</name></trkpt>
<trkpt lat="54.576739" lon="-3.209583"><ele>614</ele><time>2019-10-02T14:59:26Z</time><name>PT14405</name></trkpt>
<trkpt lat="54.576740" lon="-3.209571"><ele>614</ele><time>2019-10-02T14:59:26Z</time><name>PT14406</name></trkpt>
<trkpt lat="54.576743" lon="-3.209564"><ele>614</ele><time>2019-10-02T14:59:28Z</time><name>PT14407</name></trkpt>
<trkpt lat="54.576745" lon="-3.209556"><ele>613</ele><time>2019-10-02T14:59:28Z</time><name>PT14408</name></trkpt>
<trkpt lat="54.576748" lon="-3.209548"><ele>613</ele><time>2019-10-02T14:59:30Z</time><name>PT14409</name></trkpt>
<trkpt lat="54.576752" lon="-3.209539"><ele>613</ele><time>2019-10-02T14:59:31Z</time><name>PT14410</name></trkpt>
<trkpt lat="54.576754" lon="-3.209531"><ele>612</ele><time>2019-10-02T14:59:32Z</time><name>PT14411</name></trkpt>
<trkpt lat="54.576752" lon="-3.209522"><ele>612</ele><time>2019-10-02T14:59:33Z</time><name>PT14412</name></trkpt>
<trkpt lat="54.576750" lon="-3.209512"><ele>612</ele><time>2019-10-02T14:59:34Z</time><name>PT14413</name></trkpt>
<trkpt lat="54.576745" lon="-3.209505"><ele>612</ele><time>2019-10-02T14:59:35Z</time><name>PT14414</name></trkpt>
<trkpt lat="54.576741" lon="-3.209496"><ele>611</ele><time>2019-10-02T14:59:36Z</time><name>PT14415</name></trkpt>
<trkpt lat="54.576738" lon="-3.209487"><ele>611</ele><time>2019-10-02T14:59:37Z</time><name>PT14416</name></trkpt>
<trkpt lat="54.576737" lon="-3.209474"><ele>611</ele><time>2019-10-02T14:59:38Z</time><name>PT14417</name></trkpt>
<trkpt lat="54.576733" lon="-3.209465"><ele>610</ele><time>2019-10-02T14:59:39Z</time><name>PT14418</name></trkpt>
<trkpt lat="54.576729" lon="-3.209453"><ele>610</ele><time>2019-10-02T14:59:40Z</time><name>PT14419</name></trkpt>
<trkpt lat="54.576723" lon="-3.209444"><ele>609</ele><time>2019-10-02T14:59:40Z</time><name>PT14420</name></trkpt>
<trkpt lat="54.576716" lon="-3.209438"><ele>609</ele><time>2019-10-02T14:59:42Z</time><name>PT14421</name></trkpt>
<trkpt lat="54.576709" lon="-3.209433"><ele>608</ele><time>2019-10-02T14:59:42Z</time><name>PT14422</name></trkpt>
<trkpt lat="54.576704" lon="-3.209425"><ele>608</ele><time>2019-10-02T14:59:44Z</time><name>PT14423</name></trkpt>
<trkpt lat="54.576701" lon="-3.209422"><ele>608</ele><time>2019-10-02T14:59:44Z</time><name>PT14424</name></trkpt>
<trkpt lat="54.576699" lon="-3.209422"><ele>608</ele><time>2019-10-02T14:59:46Z</time><name>PT14425</name></trkpt>
<trkpt lat="54.576695" lon="-3.209420"><ele>608</ele><time>2019-10-02T14:59:46Z</time><name>PT14426</name></trkpt>
<trkpt lat="54.576690" lon="-3.209424"><ele>607</ele><time>2019-10-02T14:59:52Z</time><name>PT14427</name></trkpt>
<trkpt lat="54.576680" lon="-3.209428"><ele>607</ele><time>2019-10-02T14:59:52Z</time><name>PT14428</name></trkpt>
<trkpt lat="54.576670" lon="-3.209431"><ele>607</ele><time>2019-10-02T14:59:54Z</time><name>PT14429</name></trkpt>
<trkpt lat="54.576665" lon="-3.209433"><ele>607</ele><time>2019-10-02T14:59:54Z</time><name>PT14430</name></trkpt>
<trkpt lat="54.576658" lon="-3.209431"><ele>607</ele><time>2019-10-02T14:59:56Z</time><name>PT14431</name></trkpt>
<trkpt lat="54.576651" lon="-3.209429"><ele>607</ele><time>2019-10-02T14:59:56Z</time><name>PT14432</name></trkpt>
<trkpt lat="54.576649" lon="-3.209424"><ele>607</ele><time>2019-10-02T14:59:58Z</time><name>PT14433</name></trkpt>
<trkpt lat="54.576645" lon="-3.209428"><ele>606</ele><time>2019-10-02T14:59:58Z</time><name>PT14434</name></trkpt>
<trkpt lat="54.576646" lon="-3.209430"><ele>606</ele><time>2019-10-02T15:00:00Z</time><name>PT14435</name></trkpt>
<trkpt lat="54.576643" lon="-3.209429"><ele>606</ele><time>2019-10-02T15:00:00Z</time><name>PT14436</name></trkpt>
<trkpt lat="54.576643" lon="-3.209423"><ele>605</ele><time>2019-10-02T15:00:02Z</time><name>PT14437</name></trkpt>
<trkpt lat="54.576644" lon="-3.209413"><ele>605</ele><time>2019-10-02T15:00:02Z</time><name>PT14438</name></trkpt>
<trkpt lat="54.576646" lon="-3.209405"><ele>605</ele><time>2019-10-02T15:00:04Z</time><name>PT14439</name></trkpt>
<trkpt lat="54.576646" lon="-3.209396"><ele>605</ele><time>2019-10-02T15:00:04Z</time><name>PT14440</name></trkpt>
<trkpt lat="54.576647" lon="-3.209389"><ele>605</ele><time>2019-10-02T15:00:06Z</time><name>PT14441</name></trkpt>
<trkpt lat="54.576644" lon="-3.209382"><ele>604</ele><time>2019-10-02T15:00:06Z</time><name>PT14442</name></trkpt>
<trkpt lat="54.576638" lon="-3.209372"><ele>604</ele><time>2019-10-02T15:00:08Z</time><name>PT14443</name></trkpt>
<trkpt lat="54.576637" lon="-3.209363"><ele>604</ele><time>2019-10-02T15:00:08Z</time><name>PT14444</name></trkpt>
<trkpt lat="54.576637" lon="-3.209359"><ele>605</ele><time>2019-10-02T15:00:10Z</time><name>PT14445</name></trkpt>
<trkpt lat="54.576635" lon="-3.209357"><ele>604</ele><time>2019-10-02T15:00:10Z</time><name>PT14446</name></trkpt>
<trkpt lat="54.576633" lon="-3.209350"><ele>604</ele><time>2019-10-02T15:00:12Z</time><name>PT14447</name></trkpt>
<trkpt lat="54.576636" lon="-3.209344"><ele>604</ele><time>2019-10-02T15:00:12Z</time><name>PT14448</name></trkpt>
<trkpt lat="54.576638" lon="-3.209339"><ele>603</ele><time>2019-10-02T15:00:14Z</time><name>PT14449</name></trkpt>
<trkpt lat="54.576640" lon="-3.209331"><ele>603</ele><time>2019-10-02T15:00:14Z</time><name>PT14450</name></trkpt>
<trkpt lat="54.576640" lon="-3.209321"><ele>603</ele><time>2019-10-02T15:00:16Z</time><name>PT14451</name></trkpt>
<trkpt lat="54.576638" lon="-3.209310"><ele>602</ele><time>2019-10-02T15:00:16Z</time><name>PT14452</name></trkpt>
<trkpt lat="54.576635" lon="-3.209301"><ele>602</ele><time>2019-10-02T15:00:18Z</time><name>PT14453</name></trkpt>
<trkpt lat="54.576634" lon="-3.209293"><ele>601</ele><time>2019-10-02T15:00:18Z</time><name>PT14454</name></trkpt>
<trkpt lat="54.576633" lon="-3.209286"><ele>601</ele><time>2019-10-02T15:00:20Z</time><name>PT14455</name></trkpt>
<trkpt lat="54.576631" lon="-3.209285"><ele>601</ele><time>2019-10-02T15:00:20Z</time><name>PT14456</name></trkpt>
<trkpt lat="54.576626" lon="-3.209284"><ele>601</ele><time>2019-10-02T15:00:22Z</time><name>PT14457</name></trkpt>
<trkpt lat="54.576620" lon="-3.209280"><ele>601</ele><time>2019-10-02T15:00:22Z</time><name>PT14458</name></trkpt>
<trkpt lat="54.576615" lon="-3.209276"><ele>601</ele><time>2019-10-02T15:00:24Z</time><name>PT14459</name></trkpt>
<trkpt lat="54.576608" lon="-3.209272"><ele>600</ele><time>2019-10-02T15:00:24Z</time><name>PT14460</name></trkpt>
<trkpt lat="54.576603" lon="-3.209267"><ele>600</ele><time>2019-10-02T15:00:26Z</time><name>PT14461</name></trkpt>
<trkpt lat="54.576596" lon="-3.209264"><ele>600</ele><time>2019-10-02T15:00:26Z</time><name>PT14462</name></trkpt>
<trkpt lat="54.576590" lon="-3.209261"><ele>600</ele><time>2019-10-02T15:00:28Z</time><name>PT14463</name></trkpt>
<trkpt lat="54.576582" lon="-3.209258"><ele>600</ele><time>2019-10-02T15:00:28Z</time><name>PT14464</name></trkpt>
<trkpt lat="54.576575" lon="-3.209251"><ele>600</ele><time>2019-10-02T15:00:30Z</time><name>PT14465</name></trkpt>
<trkpt lat="54.576571" lon="-3.209240"><ele>599</ele><time>2019-10-02T15:00:30Z</time><name>PT14466</name></trkpt>
<trkpt lat="54.576566" lon="-3.209237"><ele>600</ele><time>2019-10-02T15:00:32Z</time><name>PT14467</name></trkpt>
<trkpt lat="54.576565" lon="-3.209236"><ele>599</ele><time>2019-10-02T15:00:32Z</time><name>PT14468</name></trkpt>
<trkpt lat="54.576566" lon="-3.209229"><ele>599</ele><time>2019-10-02T15:00:34Z</time><name>PT14469</name></trkpt>
<trkpt lat="54.576566" lon="-3.209219"><ele>599</ele><time>2019-10-02T15:00:35Z</time><name>PT14470</name></trkpt>
<trkpt lat="54.576564" lon="-3.209205"><ele>598</ele><time>2019-10-02T15:00:36Z</time><name>PT14471</name></trkpt>
<trkpt lat="54.576561" lon="-3.209193"><ele>598</ele><time>2019-10-02T15:00:37Z</time><name>PT14472</name></trkpt>
<trkpt lat="54.576557" lon="-3.209180"><ele>598</ele><time>2019-10-02T15:00:38Z</time><name>PT14473</name></trkpt>
<trkpt lat="54.576551" lon="-3.209167"><ele>598</ele><time>2019-10-02T15:00:39Z</time><name>PT14474</name></trkpt>
<trkpt lat="54.576545" lon="-3.209155"><ele>597</ele><time>2019-10-02T15:00:40Z</time><name>PT14475</name></trkpt>
<trkpt lat="54.576538" lon="-3.209141"><ele>597</ele><time>2019-10-02T15:00:41Z</time><name>PT14476</name></trkpt>
<trkpt lat="54.576532" lon="-3.209126"><ele>597</ele><time>2019-10-02T15:00:42Z</time><name>PT14477</name></trkpt>
<trkpt lat="54.576526" lon="-3.209111"><ele>597</ele><time>2019-10-02T15:00:43Z</time><name>PT14478</name></trkpt>
<trkpt lat="54.576522" lon="-3.209100"><ele>597</ele><time>2019-10-02T15:00:44Z</time><name>PT14479</name></trkpt>
<trkpt lat="54.576518" lon="-3.209088"><ele>596</ele><time>2019-10-02T15:00:44Z</time><name>PT14480</name></trkpt>
<trkpt lat="54.576513" lon="-3.209076"><ele>596</ele><time>2019-10-02T15:00:46Z</time><name>PT14481</name></trkpt>
<trkpt lat="54.576508" lon="-3.209064"><ele>596</ele><time>2019-10-02T15:00:46Z</time><name>PT14482</name></trkpt>
<trkpt lat="54.576504" lon="-3.209049"><ele>596</ele><time>2019-10-02T15:00:48Z</time><name>PT14483</name></trkpt>
<trkpt lat="54.576500" lon="-3.209035"><ele>596</ele><time>2019-10-02T15:00:48Z</time><name>PT14484</name></trkpt>
<trkpt lat="54.576496" lon="-3.209022"><ele>595</ele><time>2019-10-02T15:00:50Z</time><name>PT14485</name></trkpt>
<trkpt lat="54.576492" lon="-3.209012"><ele>595</ele><time>2019-10-02T15:00:50Z</time><name>PT14486</name></trkpt>
<trkpt lat="54.576486" lon="-3.209007"><ele>595</ele><time>2019-10-02T15:00:52Z</time><name>PT14487</name></trkpt>
<trkpt lat="54.576481" lon="-3.209003"><ele>595</ele><time>2019-10-02T15:00:52Z</time><name>PT14488</name></trkpt>
<trkpt lat="54.576479" lon="-3.209004"><ele>594</ele><time>2019-10-02T15:00:54Z</time><name>PT14489</name></trkpt>
<trkpt lat="54.576475" lon="-3.209011"><ele>594</ele><time>2019-10-02T15:00:54Z</time><name>PT14490</name></trkpt>
<trkpt lat="54.576469" lon="-3.209012"><ele>594</ele><time>2019-10-02T15:00:56Z</time><name>PT14491</name></trkpt>
<trkpt lat="54.576464" lon="-3.209011"><ele>593</ele><time>2019-10-02T15:00:56Z</time><name>PT14492</name></trkpt>
<trkpt lat="54.576459" lon="-3.209007"><ele>593</ele><time>2019-10-02T15:00:58Z</time><name>PT14493</name></trkpt>
<trkpt lat="54.576455" lon="-3.209006"><ele>593</ele><time>2019-10-02T15:00:58Z</time><name>PT14494</name></trkpt>
<trkpt lat="54.576451" lon="-3.209002"><ele>593</ele><time>2019-10-02T15:01:00Z</time><name>PT14495</name></trkpt>
<trkpt lat="54.576448" lon="-3.208998"><ele>592</ele><time>2019-10-02T15:01:00Z</time><name>PT14496</name></trkpt>
<trkpt lat="54.576445" lon="-3.208993"><ele>592</ele><time>2019-10-02T15:01:02Z</time><name>PT14497</name></trkpt>
<trkpt lat="54.576442" lon="-3.208986"><ele>591</ele><time>2019-10-02T15:01:02Z</time><name>PT14498</name></trkpt>
<trkpt lat="54.576438" lon="-3.208984"><ele>591</ele><time>2019-10-02T15:01:04Z</time><name>PT14499</name></trkpt>
<trkpt lat="54.576435" lon="-3.208984"><ele>591</ele><time>2019-10-02T15:01:04Z</time><name>PT14500</name></trkpt>
<trkpt lat="54.576430" lon="-3.208985"><ele>591</ele><time>2019-10-02T15:01:06Z</time><name>PT14501</name></trkpt>
<trkpt lat="54.576428" lon="-3.208981"><ele>590</ele><time>2019-10-02T15:01:06Z</time><name>PT14502</name></trkpt>
<trkpt lat="54.576425" lon="-3.208976"><ele>590</ele><time>2019-10-02T15:01:08Z</time><name>PT14503</name></trkpt>
<trkpt lat="54.576422" lon="-3.208968"><ele>590</ele><time>2019-10-02T15:01:08Z</time><name>PT14504</name></trkpt>
<trkpt lat="54.576417" lon="-3.208966"><ele>590</ele><time>2019-10-02T15:01:10Z</time><name>PT14505</name></trkpt>
<trkpt lat="54.576413" lon="-3.208959"><ele>589</ele><time>2019-10-02T15:01:10Z</time><name>PT14506</name></trkpt>
<trkpt lat="54.576410" lon="-3.208951"><ele>589</ele><time>2019-10-02T15:01:12Z</time><name>PT14507</name></trkpt>
<trkpt lat="54.576406" lon="-3.208944"><ele>589</ele><time>2019-10-02T15:01:12Z</time><name>PT14508</name></trkpt>
<trkpt lat="54.576402" lon="-3.208942"><ele>589</ele><time>2019-10-02T15:01:14Z</time><name>PT14509</name></trkpt>
<trkpt lat="54.576398" lon="-3.208944"><ele>589</ele><time>2019-10-02T15:01:14Z</time><name>PT14510</name></trkpt>
<trkpt lat="54.576395" lon="-3.208943"><ele>589</ele><time>2019-10-02T15:01:16Z</time><name>PT14511</name></trkpt>
<trkpt lat="54.576389" lon="-3.208937"><ele>588</ele><time>2019-10-02T15:01:16Z</time><name>PT14512</name></trkpt>
<trkpt lat="54.576387" lon="-3.208935"><ele>588</ele><time>2019-10-02T15:01:18Z</time><name>PT14513</name></trkpt>
<trkpt lat="54.576380" lon="-3.208931"><ele>587</ele><time>2019-10-02T15:01:18Z</time><name>PT14514</name></trkpt>
<trkpt lat="54.576377" lon="-3.208928"><ele>587</ele><time>2019-10-02T15:01:20Z</time><name>PT14515</name></trkpt>
<trkpt lat="54.576373" lon="-3.208921"><ele>587</ele><time>2019-10-02T15:01:20Z</time><name>PT14516</name></trkpt>
<trkpt lat="54.576368" lon="-3.208916"><ele>587</ele><time>2019-10-02T15:01:22Z</time><name>PT14517</name></trkpt>
<trkpt lat="54.576363" lon="-3.208918"><ele>587</ele><time>2019-10-02T15:01:22Z</time><name>PT14518</name></trkpt>
<trkpt lat="54.576357" lon="-3.208918"><ele>586</ele><time>2019-10-02T15:01:24Z</time><name>PT14519</name></trkpt>
<trkpt lat="54.576350" lon="-3.208914"><ele>586</ele><time>2019-10-02T15:01:24Z</time><name>PT14520</name></trkpt>
<trkpt lat="54.576345" lon="-3.208902"><ele>585</ele><time>2019-10-02T15:01:26Z</time><name>PT14521</name></trkpt>
<trkpt lat="54.576347" lon="-3.208892"><ele>585</ele><time>2019-10-02T15:01:26Z</time><name>PT14522</name></trkpt>
<trkpt lat="54.576349" lon="-3.208880"><ele>584</ele><time>2019-10-02T15:01:28Z</time><name>PT14523</name></trkpt>
<trkpt lat="54.576349" lon="-3.208873"><ele>584</ele><time>2019-10-02T15:01:28Z</time><name>PT14524</name></trkpt>
<trkpt lat="54.576349" lon="-3.208864"><ele>584</ele><time>2019-10-02T15:01:30Z</time><name>PT14525</name></trkpt>
<trkpt lat="54.576349" lon="-3.208849"><ele>584</ele><time>2019-10-02T15:01:30Z</time><name>PT14526</name></trkpt>
<trkpt lat="54.576347" lon="-3.208838"><ele>583</ele><time>2019-10-02T15:01:32Z</time><name>PT14527</name></trkpt>
<trkpt lat="54.576340" lon="-3.208827"><ele>583</ele><time>2019-10-02T15:01:32Z</time><name>PT14528</name></trkpt>
<trkpt lat="54.576336" lon="-3.208816"><ele>583</ele><time>2019-10-02T15:01:34Z</time><name>PT14529</name></trkpt>
<trkpt lat="54.576333" lon="-3.208806"><ele>583</ele><time>2019-10-02T15:01:34Z</time><name>PT14530</name></trkpt>
<trkpt lat="54.576329" lon="-3.208791"><ele>582</ele><time>2019-10-02T15:01:36Z</time><name>PT14531</name></trkpt>
<trkpt lat="54.576326" lon="-3.208778"><ele>582</ele><time>2019-10-02T15:01:36Z</time><name>PT14532</name></trkpt>
<trkpt lat="54.576325" lon="-3.208765"><ele>581</ele><time>2019-10-02T15:01:38Z</time><name>PT14533</name></trkpt>
<trkpt lat="54.576325" lon="-3.208750"><ele>581</ele><time>2019-10-02T15:01:38Z</time><name>PT14534</name></trkpt>
<trkpt lat="54.576328" lon="-3.208736"><ele>581</ele><time>2019-10-02T15:01:40Z</time><name>PT14535</name></trkpt>
<trkpt lat="54.576333" lon="-3.208724"><ele>581</ele><time>2019-10-02T15:01:40Z</time><name>PT14536</name></trkpt>
<trkpt lat="54.576338" lon="-3.208710"><ele>580</ele><time>2019-10-02T15:01:42Z</time><name>PT14537</name></trkpt>
<trkpt lat="54.576341" lon="-3.208694"><ele>580</ele><time>2019-10-02T15:01:42Z</time><name>PT14538</name></trkpt>
<trkpt lat="54.576341" lon="-3.208680"><ele>580</ele><time>2019-10-02T15:01:44Z</time><name>PT14539</name></trkpt>
<trkpt lat="54.576337" lon="-3.208668"><ele>579</ele><time>2019-10-02T15:01:44Z</time><name>PT14540</name></trkpt>
<trkpt lat="54.576332" lon="-3.208658"><ele>579</ele><time>2019-10-02T15:01:46Z</time><name>PT14541</name></trkpt>
<trkpt lat="54.576326" lon="-3.208650"><ele>579</ele><time>2019-10-02T15:01:47Z</time><name>PT14542</name></trkpt>
<trkpt lat="54.576318" lon="-3.208646"><ele>578</ele><time>2019-10-02T15:01:48Z</time><name>PT14543</name></trkpt>
<trkpt lat="54.576311" lon="-3.208642"><ele>578</ele><time>2019-10-02T15:01:48Z</time><name>PT14544</name></trkpt>
<trkpt lat="54.576303" lon="-3.208638"><ele>578</ele><time>2019-10-02T15:01:50Z</time><name>PT14545</name></trkpt>
<trkpt lat="54.576298" lon="-3.208633"><ele>578</ele><time>2019-10-02T15:01:51Z</time><name>PT14546</name></trkpt>
<trkpt lat="54.576292" lon="-3.208629"><ele>578</ele><time>2019-10-02T15:01:52Z</time><name>PT14547</name></trkpt>
<trkpt lat="54.576286" lon="-3.208630"><ele>577</ele><time>2019-10-02T15:01:53Z</time><name>PT14548</name></trkpt>
<trkpt lat="54.576282" lon="-3.208635"><ele>577</ele><time>2019-10-02T15:01:54Z</time><name>PT14549</name></trkpt>
<trkpt lat="54.576279" lon="-3.208641"><ele>577</ele><time>2019-10-02T15:01:55Z</time><name>PT14550</name></trkpt>
<trkpt lat="54.576278" lon="-3.208645"><ele>576</ele><time>2019-10-02T15:01:56Z</time><name>PT14551</name></trkpt>
<trkpt lat="54.576275" lon="-3.208651"><ele>576</ele><time>2019-10-02T15:01:56Z</time><name>PT14552</name></trkpt>
<trkpt lat="54.576273" lon="-3.208652"><ele>576</ele><time>2019-10-02T15:01:58Z</time><name>PT14553</name></trkpt>
<trkpt lat="54.576273" lon="-3.208655"><ele>576</ele><time>2019-10-02T15:01:58Z</time><name>PT14554</name></trkpt>
<trkpt lat="54.576274" lon="-3.208653"><ele>576</ele><time>2019-10-02T15:02:00Z</time><name>PT14555</name></trkpt>
<trkpt lat="54.576270" lon="-3.208658"><ele>576</ele><time>2019-10-02T15:02:08Z</time><name>PT14556</name></trkpt>
<trkpt lat="54.576263" lon="-3.208649"><ele>576</ele><time>2019-10-02T15:02:08Z</time><name>PT14557</name></trkpt>
<trkpt lat="54.576257" lon="-3.208638"><ele>576</ele><time>2019-10-02T15:02:10Z</time><name>PT14558</name></trkpt>
<trkpt lat="54.576252" lon="-3.208629"><ele>576</ele><time>2019-10-02T15:02:10Z</time><name>PT14559</name></trkpt>
<trkpt lat="54.576247" lon="-3.208618"><ele>576</ele><time>2019-10-02T15:02:12Z</time><name>PT14560</name></trkpt>
<trkpt lat="54.576245" lon="-3.208605"><ele>575</ele><time>2019-10-02T15:02:12Z</time><name>PT14561</name></trkpt>
<trkpt lat="54.576244" lon="-3.208594"><ele>575</ele><time>2019-10-02T15:02:14Z</time><name>PT14562</name></trkpt>
<trkpt lat="54.576243" lon="-3.208582"><ele>575</ele><time>2019-10-02T15:02:14Z</time><name>PT14563</name></trkpt>
<trkpt lat="54.576241" lon="-3.208573"><ele>575</ele><time>2019-10-02T15:02:16Z</time><name>PT14564</name></trkpt>
<trkpt lat="54.576242" lon="-3.208565"><ele>574</ele><time>2019-10-02T15:02:16Z</time><name>PT14565</name></trkpt>
<trkpt lat="54.576246" lon="-3.208558"><ele>574</ele><time>2019-10-02T15:02:18Z</time><name>PT14566</name></trkpt>
<trkpt lat="54.576248" lon="-3.208550"><ele>574</ele><time>2019-10-02T15:02:18Z</time><name>PT14567</name></trkpt>
<trkpt lat="54.576249" lon="-3.208545"><ele>574</ele><time>2019-10-02T15:02:20Z</time><name>PT14568</name></trkpt>
<trkpt lat="54.576250" lon="-3.208537"><ele>573</ele><time>2019-10-02T15:02:21Z</time><name>PT14569</name></trkpt>
<trkpt lat="54.576253" lon="-3.208530"><ele>573</ele><time>2019-10-02T15:02:22Z</time><name>PT14570</name></trkpt>
<trkpt lat="54.576255" lon="-3.208523"><ele>573</ele><time>2019-10-02T15:02:23Z</time><name>PT14571</name></trkpt>
<trkpt lat="54.576257" lon="-3.208520"><ele>573</ele><time>2019-10-02T15:02:24Z</time><name>PT14572</name></trkpt>
<trkpt lat="54.576261" lon="-3.208516"><ele>573</ele><time>2019-10-02T15:02:25Z</time><name>PT14573</name></trkpt>
<trkpt lat="54.576266" lon="-3.208508"><ele>572</ele><time>2019-10-02T15:02:26Z</time><name>PT14574</name></trkpt>
<trkpt lat="54.576270" lon="-3.208504"><ele>572</ele><time>2019-10-02T15:02:27Z</time><name>PT14575</name></trkpt>
<trkpt lat="54.576271" lon="-3.208495"><ele>572</ele><time>2019-10-02T15:02:28Z</time><name>PT14576</name></trkpt>
<trkpt lat="54.576271" lon="-3.208489"><ele>572</ele><time>2019-10-02T15:02:28Z</time><name>PT14577</name></trkpt>
<trkpt lat="54.576272" lon="-3.208481"><ele>572</ele><time>2019-10-02T15:02:30Z</time><name>PT14578</name></trkpt>
<trkpt lat="54.576274" lon="-3.208485"><ele>571</ele><time>2019-10-02T15:02:32Z</time><name>PT14579</name></trkpt>
<trkpt lat="54.576277" lon="-3.208475"><ele>571</ele><time>2019-10-02T15:02:32Z</time><name>PT14580</name></trkpt>
<trkpt lat="54.576285" lon="-3.208467"><ele>571</ele><time>2019-10-02T15:02:34Z</time><name>PT14581</name></trkpt>
<trkpt lat="54.576292" lon="-3.208460"><ele>570</ele><time>2019-10-02T15:02:34Z</time><name>PT14582</name></trkpt>
<trkpt lat="54.576294" lon="-3.208450"><ele>570</ele><time>2019-10-02T15:02:36Z</time><name>PT14583</name></trkpt>
<trkpt lat="54.576292" lon="-3.208432"><ele>570</ele><time>2019-10-02T15:02:36Z</time><name>PT14584</name></trkpt>
<trkpt lat="54.576286" lon="-3.208415"><ele>569</ele><time>2019-10-02T15:02:38Z</time><name>PT14585</name></trkpt>
<trkpt lat="54.576281" lon="-3.208405"><ele>569</ele><time>2019-10-02T15:02:38Z</time><name>PT14586</name></trkpt>
<trkpt lat="54.576274" lon="-3.208394"><ele>568</ele><time>2019-10-02T15:02:40Z</time><name>PT14587</name></trkpt>
<trkpt lat="54.576268" lon="-3.208383"><ele>568</ele><time>2019-10-02T15:02:40Z</time><name>PT14588</name></trkpt>
<trkpt lat="54.576260" lon="-3.208372"><ele>568</ele><time>2019-10-02T15:02:42Z</time><name>PT14589</name></trkpt>
<trkpt lat="54.576256" lon="-3.208365"><ele>567</ele><time>2019-10-02T15:02:42Z</time><name>PT14590</name></trkpt>
<trkpt lat="54.576251" lon="-3.208354"><ele>567</ele><time>2019-10-02T15:02:44Z</time><name>PT14591</name></trkpt>
<trkpt lat="54.576247" lon="-3.208345"><ele>567</ele><time>2019-10-02T15:02:44Z</time><name>PT14592</name></trkpt>
<trkpt lat="54.576241" lon="-3.208339"><ele>566</ele><time>2019-10-02T15:02:46Z</time><name>PT14593</name></trkpt>
<trkpt lat="54.576234" lon="-3.208331"><ele>566</ele><time>2019-10-02T15:02:46Z</time><name>PT14594</name></trkpt>
<trkpt lat="54.576227" lon="-3.208326"><ele>566</ele><time>2019-10-02T15:02:48Z</time><name>PT14595</name></trkpt>
<trkpt lat="54.576219" lon="-3.208320"><ele>566</ele><time>2019-10-02T15:02:48Z</time><name>PT14596</name></trkpt>
<trkpt lat="54.576214" lon="-3.208320"><ele>566</ele><time>2019-10-02T15:02:50Z</time><name>PT14597</name></trkpt>
<trkpt lat="54.576206" lon="-3.208321"><ele>565</ele><time>2019-10-02T15:02:50Z</time><name>PT14598</name></trkpt>
<trkpt lat="54.576198" lon="-3.208318"><ele>565</ele><time>2019-10-02T15:02:52Z</time><name>PT14599</name></trkpt>
<trkpt lat="54.576190" lon="-3.208311"><ele>564</ele><time>2019-10-02T15:02:52Z</time><name>PT14600</name></trkpt>
<trkpt lat="54.576188" lon="-3.208301"><ele>564</ele><time>2019-10-02T15:02:54Z</time><name>PT14601</name></trkpt>
<trkpt lat="54.576189" lon="-3.208292"><ele>564</ele><time>2019-10-02T15:02:54Z</time><name>PT14602</name></trkpt>
<trkpt lat="54.576188" lon="-3.208281"><ele>564</ele><time>2019-10-02T15:02:56Z</time><name>PT14603</name></trkpt>
<trkpt lat="54.576188" lon="-3.208267"><ele>564</ele><time>2019-10-02T15:02:56Z</time><name>PT14604</name></trkpt>
<trkpt lat="54.576191" lon="-3.208256"><ele>563</ele><time>2019-10-02T15:02:58Z</time><name>PT14605</name></trkpt>
<trkpt lat="54.576192" lon="-3.208245"><ele>563</ele><time>2019-10-02T15:02:58Z</time><name>PT14606</name></trkpt>
<trkpt lat="54.576192" lon="-3.208231"><ele>562</ele><time>2019-10-02T15:03:00Z</time><name>PT14607</name></trkpt>
<trkpt lat="54.576197" lon="-3.208221"><ele>562</ele><time>2019-10-02T15:03:00Z</time><name>PT14608</name></trkpt>
<trkpt lat="54.576203" lon="-3.208218"><ele>562</ele><time>2019-10-02T15:03:02Z</time><name>PT14609</name></trkpt>
<trkpt lat="54.576207" lon="-3.208217"><ele>561</ele><time>2019-10-02T15:03:02Z</time><name>PT14610</name></trkpt>
<trkpt lat="54.576211" lon="-3.208211"><ele>561</ele><time>2019-10-02T15:03:04Z</time><name>PT14611</name></trkpt>
<trkpt lat="54.576213" lon="-3.208203"><ele>561</ele><time>2019-10-02T15:03:04Z</time><name>PT14612</name></trkpt>
<trkpt lat="54.576216" lon="-3.208195"><ele>560</ele><time>2019-10-02T15:03:06Z</time><name>PT14613</name></trkpt>
<trkpt lat="54.576217" lon="-3.208186"><ele>560</ele><time>2019-10-02T15:03:06Z</time><name>PT14614</name></trkpt>
<trkpt lat="54.576219" lon="-3.208179"><ele>560</ele><time>2019-10-02T15:03:08Z</time><name>PT14615</name></trkpt>
<trkpt lat="54.576225" lon="-3.208175"><ele>560</ele><time>2019-10-02T15:03:08Z</time><name>PT14616</name></trkpt>
<trkpt lat="54.576229" lon="-3.208171"><ele>560</ele><time>2019-10-02T15:03:10Z</time><name>PT14617</name></trkpt>
<trkpt lat="54.576233" lon="-3.208162"><ele>560</ele><time>2019-10-02T15:03:10Z</time><name>PT14618</name></trkpt>
<trkpt lat="54.576233" lon="-3.208146"><ele>559</ele><time>2019-10-02T15:03:12Z</time><name>PT14619</name></trkpt>
<trkpt lat="54.576229" lon="-3.208128"><ele>559</ele><time>2019-10-02T15:03:12Z</time><name>PT14620</name></trkpt>
<trkpt lat="54.576225" lon="-3.208118"><ele>559</ele><time>2019-10-02T15:03:14Z</time><name>PT14621</name></trkpt>
<trkpt lat="54.576219" lon="-3.208108"><ele>558</ele><time>2019-10-02T15:03:14Z</time><name>PT14622</name></trkpt>
<trkpt lat="54.576212" lon="-3.208097"><ele>558</ele><time>2019-10-02T15:03:16Z</time><name>PT14623</name></trkpt>
<trkpt lat="54.576207" lon="-3.208087"><ele>557</ele><time>2019-10-02T15:03:16Z</time><name>PT14624</name></trkpt>
<trkpt lat="54.576201" lon="-3.208078"><ele>557</ele><time>2019-10-02T15:03:18Z</time><name>PT14625</name></trkpt>
<trkpt lat="54.576195" lon="-3.208069"><ele>556</ele><time>2019-10-02T15:03:18Z</time><name>PT14626</name></trkpt>
<trkpt lat="54.576189" lon="-3.208059"><ele>556</ele><time>2019-10-02T15:03:20Z</time><name>PT14627</name></trkpt>
<trkpt lat="54.576184" lon="-3.208053"><ele>556</ele><time>2019-10-02T15:03:20Z</time><name>PT14628</name></trkpt>
<trkpt lat="54.576182" lon="-3.208047"><ele>556</ele><time>2019-10-02T15:03:22Z</time><name>PT14629</name></trkpt>
<trkpt lat="54.576181" lon="-3.208043"><ele>556</ele><time>2019-10-02T15:03:22Z</time><name>PT14630</name></trkpt>
<trkpt lat="54.576180" lon="-3.208041"><ele>556</ele><time>2019-10-02T15:03:24Z</time><name>PT14631</name></trkpt>
<trkpt lat="54.576180" lon="-3.208041"><ele>556</ele><time>2019-10-02T15:03:25Z</time><name>PT14632</name></trkpt>
<trkpt lat="54.576178" lon="-3.208039"><ele>556</ele><time>2019-10-02T15:03:26Z</time><name>PT14633</name></trkpt>
<trkpt lat="54.576174" lon="-3.208035"><ele>556</ele><time>2019-10-02T15:03:27Z</time><name>PT14634</name></trkpt>
<trkpt lat="54.576171" lon="-3.208027"><ele>556</ele><time>2019-10-02T15:03:28Z</time><name>PT14635</name></trkpt>
<trkpt lat="54.576169" lon="-3.208018"><ele>555</ele><time>2019-10-02T15:03:29Z</time><name>PT14636</name></trkpt>
<trkpt lat="54.576164" lon="-3.208005"><ele>555</ele><time>2019-10-02T15:03:30Z</time><name>PT14637</name></trkpt>
<trkpt lat="54.576160" lon="-3.207993"><ele>555</ele><time>2019-10-02T15:03:31Z</time><name>PT14638</name></trkpt>
<trkpt lat="54.576157" lon="-3.207980"><ele>555</ele><time>2019-10-02T15:03:32Z</time><name>PT14639</name></trkpt>
<trkpt lat="54.576155" lon="-3.207966"><ele>555</ele><time>2019-10-02T15:03:33Z</time><name>PT14640</name></trkpt>
<trkpt lat="54.576154" lon="-3.207949"><ele>554</ele><time>2019-10-02T15:03:34Z</time><name>PT14641</name></trkpt>
<trkpt lat="54.576150" lon="-3.207933"><ele>554</ele><time>2019-10-02T15:03:35Z</time><name>PT14642</name></trkpt>
<trkpt lat="54.576148" lon="-3.207919"><ele>553</ele><time>2019-10-02T15:03:36Z</time><name>PT14643</name></trkpt>
<trkpt lat="54.576146" lon="-3.207904"><ele>553</ele><time>2019-10-02T15:03:37Z</time><name>PT14644</name></trkpt>
<trkpt lat="54.576144" lon="-3.207888"><ele>553</ele><time>2019-10-02T15:03:38Z</time><name>PT14645</name></trkpt>
<trkpt lat="54.576142" lon="-3.207871"><ele>553</ele><time>2019-10-02T15:03:38Z</time><name>PT14646</name></trkpt>
<trkpt lat="54.576140" lon="-3.207856"><ele>553</ele><time>2019-10-02T15:03:40Z</time><name>PT14647</name></trkpt>
<trkpt lat="54.576138" lon="-3.207844"><ele>552</ele><time>2019-10-02T15:03:40Z</time><name>PT14648</name></trkpt>
<trkpt lat="54.576134" lon="-3.207831"><ele>552</ele><time>2019-10-02T15:03:42Z</time><name>PT14649</name></trkpt>
<trkpt lat="54.576129" lon="-3.207820"><ele>552</ele><time>2019-10-02T15:03:42Z</time><name>PT14650</name></trkpt>
<trkpt lat="54.576124" lon="-3.207812"><ele>552</ele><time>2019-10-02T15:03:44Z</time><name>PT14651</name></trkpt>
<trkpt lat="54.576116" lon="-3.207808"><ele>552</ele><time>2019-10-02T15:03:44Z</time><name>PT14652</name></trkpt>
<trkpt lat="54.576107" lon="-3.207803"><ele>552</ele><time>2019-10-02T15:03:46Z</time><name>PT14653</name></trkpt>
<trkpt lat="54.576099" lon="-3.207794"><ele>551</ele><time>2019-10-02T15:03:46Z</time><name>PT14654</name></trkpt>
<trkpt lat="54.576093" lon="-3.207788"><ele>551</ele><time>2019-10-02T15:03:48Z</time><name>PT14655</name></trkpt>
<trkpt lat="54.576088" lon="-3.207785"><ele>551</ele><time>2019-10-02T15:03:48Z</time><name>PT14656</name></trkpt>
<trkpt lat="54.576081" lon="-3.207777"><ele>551</ele><time>2019-10-02T15:03:50Z</time><name>PT14657</name></trkpt>
<trkpt lat="54.576077" lon="-3.207767"><ele>550</ele><time>2019-10-02T15:03:50Z</time><name>PT14658</name></trkpt>
<trkpt lat="54.576071" lon="-3.207759"><ele>550</ele><time>2019-10-02T15:03:52Z</time><name>PT14659</name></trkpt>
<trkpt lat="54.576065" lon="-3.207753"><ele>550</ele><time>2019-10-02T15:03:52Z</time><name>PT14660</name></trkpt>
<trkpt lat="54.576058" lon="-3.207748"><ele>550</ele><time>2019-10-02T15:03:54Z</time><name>PT14661</name></trkpt>
<trkpt lat="54.576052" lon="-3.207741"><ele>550</ele><time>2019-10-02T15:03:54Z</time><name>PT14662</name></trkpt>
<trkpt lat="54.576050" lon="-3.207732"><ele>549</ele><time>2019-10-02T15:03:56Z</time><name>PT14663</name></trkpt>
<trkpt lat="54.576049" lon="-3.207724"><ele>549</ele><time>2019-10-02T15:03:56Z</time><name>PT14664</name></trkpt>
<trkpt lat="54.576048" lon="-3.207713"><ele>549</ele><time>2019-10-02T15:03:58Z</time><name>PT14665</name></trkpt>
<trkpt lat="54.576048" lon="-3.207703"><ele>549</ele><time>2019-10-02T15:03:58Z</time><name>PT14666</name></trkpt>
<trkpt lat="54.576048" lon="-3.207696"><ele>549</ele><time>2019-10-02T15:04:00Z</time><name>PT14667</name></trkpt>
<trkpt lat="54.576049" lon="-3.207692"><ele>548</ele><time>2019-10-02T15:04:00Z</time><name>PT14668</name></trkpt>
<trkpt lat="54.576051" lon="-3.207688"><ele>548</ele><time>2019-10-02T15:04:02Z</time><name>PT14669</name></trkpt>
<trkpt lat="54.576049" lon="-3.207682"><ele>548</ele><time>2019-10-02T15:04:02Z</time><name>PT14670</name></trkpt>
<trkpt lat="54.576047" lon="-3.207673"><ele>547</ele><time>2019-10-02T15:04:04Z</time><name>PT14671</name></trkpt>
<trkpt lat="54.576047" lon="-3.207667"><ele>547</ele><time>2019-10-02T15:04:04Z</time><name>PT14672</name></trkpt>
<trkpt lat="54.576048" lon="-3.207663"><ele>547</ele><time>2019-10-02T15:04:06Z</time><name>PT14673</name></trkpt>
<trkpt lat="54.576044" lon="-3.207653"><ele>547</ele><time>2019-10-02T15:04:06Z</time><name>PT14674</name></trkpt>
<trkpt lat="54.576041" lon="-3.207642"><ele>547</ele><time>2019-10-02T15:04:08Z</time><name>PT14675</name></trkpt>
<trkpt lat="54.576043" lon="-3.207631"><ele>546</ele><time>2019-10-02T15:04:08Z</time><name>PT14676</name></trkpt>
<trkpt lat="54.576043" lon="-3.207623"><ele>546</ele><time>2019-10-02T15:04:10Z</time><name>PT14677</name></trkpt>
<trkpt lat="54.576040" lon="-3.207611"><ele>545</ele><time>2019-10-02T15:04:10Z</time><name>PT14678</name></trkpt>
<trkpt lat="54.576035" lon="-3.207600"><ele>545</ele><time>2019-10-02T15:04:12Z</time><name>PT14679</name></trkpt>
<trkpt lat="54.576029" lon="-3.207586"><ele>545</ele><time>2019-10-02T15:04:12Z</time><name>PT14680</name></trkpt>
<trkpt lat="54.576025" lon="-3.207572"><ele>544</ele><time>2019-10-02T15:04:14Z</time><name>PT14681</name></trkpt>
<trkpt lat="54.576022" lon="-3.207560"><ele>544</ele><time>2019-10-02T15:04:14Z</time><name>PT14682</name></trkpt>
<trkpt lat="54.576018" lon="-3.207548"><ele>544</ele><time>2019-10-02T15:04:16Z</time><name>PT14683</name></trkpt>
<trkpt lat="54.576014" lon="-3.207536"><ele>543</ele><time>2019-10-02T15:04:16Z</time><name>PT14684</name></trkpt>
<trkpt lat="54.576012" lon="-3.207524"><ele>543</ele><time>2019-10-02T15:04:18Z</time><name>PT14685</name></trkpt>
<trkpt lat="54.576009" lon="-3.207510"><ele>542</ele><time>2019-10-02T15:04:18Z</time><name>PT14686</name></trkpt>
<trkpt lat="54.576008" lon="-3.207495"><ele>542</ele><time>2019-10-02T15:04:20Z</time><name>PT14687</name></trkpt>
<trkpt lat="54.576010" lon="-3.207478"><ele>542</ele><time>2019-10-02T15:04:20Z</time><name>PT14688</name></trkpt>
<trkpt lat="54.576013" lon="-3.207467"><ele>542</ele><time>2019-10-02T15:04:22Z</time><name>PT14689</name></trkpt>
<trkpt lat="54.576017" lon="-3.207456"><ele>542</ele><time>2019-10-02T15:04:22Z</time><name>PT14690</name></trkpt>
<trkpt lat="54.576019" lon="-3.207442"><ele>542</ele><time>2019-10-02T15:04:24Z</time><name>PT14691</name></trkpt>
<trkpt lat="54.576023" lon="-3.207427"><ele>541</ele><time>2019-10-02T15:04:24Z</time><name>PT14692</name></trkpt>
<trkpt lat="54.576024" lon="-3.207411"><ele>541</ele><time>2019-10-02T15:04:26Z</time><name>PT14693</name></trkpt>
<trkpt lat="54.576026" lon="-3.207395"><ele>541</ele><time>2019-10-02T15:04:26Z</time><name>PT14694</name></trkpt>
<trkpt lat="54.576027" lon="-3.207380"><ele>541</ele><time>2019-10-02T15:04:28Z</time><name>PT14695</name></trkpt>
<trkpt lat="54.576029" lon="-3.207370"><ele>541</ele><time>2019-10-02T15:04:28Z</time><name>PT14696</name></trkpt>
<trkpt lat="54.576030" lon="-3.207364"><ele>541</ele><time>2019-10-02T15:04:30Z</time><name>PT14697</name></trkpt>
<trkpt lat="54.576029" lon="-3.207355"><ele>541</ele><time>2019-10-02T15:04:30Z</time><name>PT14698</name></trkpt>
<trkpt lat="54.576026" lon="-3.207345"><ele>540</ele><time>2019-10-02T15:04:32Z</time><name>PT14699</name></trkpt>
<trkpt lat="54.576026" lon="-3.207336"><ele>540</ele><time>2019-10-02T15:04:32Z</time><name>PT14700</name></trkpt>
<trkpt lat="54.576024" lon="-3.207326"><ele>540</ele><time>2019-10-02T15:04:34Z</time><name>PT14701</name></trkpt>
<trkpt lat="54.576018" lon="-3.207316"><ele>540</ele><time>2019-10-02T15:04:34Z</time><name>PT14702</name></trkpt>
<trkpt lat="54.576013" lon="-3.207307"><ele>539</ele><time>2019-10-02T15:04:36Z</time><name>PT14703</name></trkpt>
<trkpt lat="54.576009" lon="-3.207295"><ele>539</ele><time>2019-10-02T15:04:36Z</time><name>PT14704</name></trkpt>
<trkpt lat="54.576006" lon="-3.207281"><ele>539</ele><time>2019-10-02T15:04:38Z</time><name>PT14705</name></trkpt>
<trkpt lat="54.576004" lon="-3.207268"><ele>539</ele><time>2019-10-02T15:04:38Z</time><name>PT14706</name></trkpt>
<trkpt lat="54.576002" lon="-3.207251"><ele>539</ele><time>2019-10-02T15:04:40Z</time><name>PT14707</name></trkpt>
<trkpt lat="54.576002" lon="-3.207235"><ele>539</ele><time>2019-10-02T15:04:40Z</time><name>PT14708</name></trkpt>
<trkpt lat="54.576001" lon="-3.207221"><ele>539</ele><time>2019-10-02T15:04:42Z</time><name>PT14709</name></trkpt>
<trkpt lat="54.575998" lon="-3.207210"><ele>538</ele><time>2019-10-02T15:04:42Z</time><name>PT14710</name></trkpt>
<trkpt lat="54.575994" lon="-3.207202"><ele>538</ele><time>2019-10-02T15:04:44Z</time><name>PT14711</name></trkpt>
<trkpt lat="54.575991" lon="-3.207195"><ele>538</ele><time>2019-10-02T15:04:44Z</time><name>PT14712</name></trkpt>
<trkpt lat="54.575989" lon="-3.207188"><ele>538</ele><time>2019-10-02T15:04:46Z</time><name>PT14713</name></trkpt>
<trkpt lat="54.575985" lon="-3.207182"><ele>538</ele><time>2019-10-02T15:04:46Z</time><name>PT14714</name></trkpt>
<trkpt lat="54.575981" lon="-3.207177"><ele>538</ele><time>2019-10-02T15:04:48Z</time><name>PT14715</name></trkpt>
<trkpt lat="54.575976" lon="-3.207174"><ele>537</ele><time>2019-10-02T15:04:49Z</time><name>PT14716</name></trkpt>
<trkpt lat="54.575971" lon="-3.207171"><ele>537</ele><time>2019-10-02T15:04:50Z</time><name>PT14717</name></trkpt>
<trkpt lat="54.575968" lon="-3.207168"><ele>537</ele><time>2019-10-02T15:04:50Z</time><name>PT14718</name></trkpt>
<trkpt lat="54.575964" lon="-3.207166"><ele>537</ele><time>2019-10-02T15:04:52Z</time><name>PT14719</name></trkpt>
<trkpt lat="54.575957" lon="-3.207168"><ele>537</ele><time>2019-10-02T15:04:53Z</time><name>PT14720</name></trkpt>
<trkpt lat="54.575950" lon="-3.207166"><ele>536</ele><time>2019-10-02T15:04:54Z</time><name>PT14721</name></trkpt>
<trkpt lat="54.575947" lon="-3.207158"><ele>536</ele><time>2019-10-02T15:04:54Z</time><name>PT14722</name></trkpt>
<trkpt lat="54.575942" lon="-3.207151"><ele>536</ele><time>2019-10-02T15:04:56Z</time><name>PT14723</name></trkpt>
<trkpt lat="54.575938" lon="-3.207144"><ele>536</ele><time>2019-10-02T15:04:56Z</time><name>PT14724</name></trkpt>
<trkpt lat="54.575934" lon="-3.207138"><ele>536</ele><time>2019-10-02T15:04:58Z</time><name>PT14725</name></trkpt>
<trkpt lat="54.575930" lon="-3.207132"><ele>535</ele><time>2019-10-02T15:04:58Z</time><name>PT14726</name></trkpt>
<trkpt lat="54.575925" lon="-3.207123"><ele>535</ele><time>2019-10-02T15:05:00Z</time><name>PT14727</name></trkpt>
<trkpt lat="54.575924" lon="-3.207112"><ele>535</ele><time>2019-10-02T15:05:00Z</time><name>PT14728</name></trkpt>
<trkpt lat="54.575925" lon="-3.207100"><ele>534</ele><time>2019-10-02T15:05:02Z</time><name>PT14729</name></trkpt>
<trkpt lat="54.575922" lon="-3.207095"><ele>534</ele><time>2019-10-02T15:05:02Z</time><name>PT14730</name></trkpt>
<trkpt lat="54.575918" lon="-3.207092"><ele>534</ele><time>2019-10-02T15:05:04Z</time><name>PT14731</name></trkpt>
<trkpt lat="54.575911" lon="-3.207086"><ele>534</ele><time>2019-10-02T15:05:04Z</time><name>PT14732</name></trkpt>
<trkpt lat="54.575905" lon="-3.207083"><ele>533</ele><time>2019-10-02T15:05:06Z</time><name>PT14733</name></trkpt>
<trkpt lat="54.575901" lon="-3.207082"><ele>533</ele><time>2019-10-02T15:05:06Z</time><name>PT14734</name></trkpt>
<trkpt lat="54.575897" lon="-3.207079"><ele>533</ele><time>2019-10-02T15:05:08Z</time><name>PT14735</name></trkpt>
<trkpt lat="54.575894" lon="-3.207069"><ele>532</ele><time>2019-10-02T15:05:08Z</time><name>PT14736</name></trkpt>
<trkpt lat="54.575893" lon="-3.207060"><ele>533</ele><time>2019-10-02T15:05:10Z</time><name>PT14737</name></trkpt>
<trkpt lat="54.575891" lon="-3.207049"><ele>532</ele><time>2019-10-02T15:05:10Z</time><name>PT14738</name></trkpt>
<trkpt lat="54.575890" lon="-3.207037"><ele>532</ele><time>2019-10-02T15:05:12Z</time><name>PT14739</name></trkpt>
<trkpt lat="54.575891" lon="-3.207025"><ele>532</ele><time>2019-10-02T15:05:12Z</time><name>PT14740</name></trkpt>
<trkpt lat="54.575890" lon="-3.207016"><ele>532</ele><time>2019-10-02T15:05:14Z</time><name>PT14741</name></trkpt>
<trkpt lat="54.575889" lon="-3.207007"><ele>531</ele><time>2019-10-02T15:05:14Z</time><name>PT14742</name></trkpt>
<trkpt lat="54.575887" lon="-3.206992"><ele>531</ele><time>2019-10-02T15:05:16Z</time><name>PT14743</name></trkpt>
<trkpt lat="54.575890" lon="-3.206977"><ele>531</ele><time>2019-10-02T15:05:16Z</time><name>PT14744</name></trkpt>
<trkpt lat="54.575897" lon="-3.206967"><ele>531</ele><time>2019-10-02T15:05:18Z</time><name>PT14745</name></trkpt>
<trkpt lat="54.575906" lon="-3.206963"><ele>530</ele><time>2019-10-02T15:05:18Z</time><name>PT14746</name></trkpt>
<trkpt lat="54.575913" lon="-3.206957"><ele>530</ele><time>2019-10-02T15:05:20Z</time><name>PT14747</name></trkpt>
<trkpt lat="54.575917" lon="-3.206948"><ele>530</ele><time>2019-10-02T15:05:20Z</time><name>PT14748</name></trkpt>
<trkpt lat="54.575917" lon="-3.206936"><ele>530</ele><time>2019-10-02T15:05:22Z</time><name>PT14749</name></trkpt>
<trkpt lat="54.575915" lon="-3.206922"><ele>529</ele><time>2019-10-02T15:05:22Z</time><name>PT14750</name></trkpt>
<trkpt lat="54.575910" lon="-3.206910"><ele>529</ele><time>2019-10-02T15:05:24Z</time><name>PT14751</name></trkpt>
<trkpt lat="54.575904" lon="-3.206905"><ele>529</ele><time>2019-10-02T15:05:25Z</time><name>PT14752</name></trkpt>
<trkpt lat="54.575898" lon="-3.206903"><ele>529</ele><time>2019-10-02T15:05:26Z</time><name>PT14753</name></trkpt>
<trkpt lat="54.575892" lon="-3.206899"><ele>529</ele><time>2019-10-02T15:05:27Z</time><name>PT14754</name></trkpt>
<trkpt lat="54.575886" lon="-3.206895"><ele>529</ele><time>2019-10-02T15:05:28Z</time><name>PT14755</name></trkpt>
<trkpt lat="54.575885" lon="-3.206889"><ele>528</ele><time>2019-10-02T15:05:29Z</time><name>PT14756</name></trkpt>
<trkpt lat="54.575883" lon="-3.206880"><ele>528</ele><time>2019-10-02T15:05:30Z</time><name>PT14757</name></trkpt>
<trkpt lat="54.575881" lon="-3.206869"><ele>528</ele><time>2019-10-02T15:05:31Z</time><name>PT14758</name></trkpt>
<trkpt lat="54.575878" lon="-3.206866"><ele>528</ele><time>2019-10-02T15:05:32Z</time><name>PT14759</name></trkpt>
<trkpt lat="54.575874" lon="-3.206860"><ele>528</ele><time>2019-10-02T15:05:33Z</time><name>PT14760</name></trkpt>
<trkpt lat="54.575870" lon="-3.206848"><ele>527</ele><time>2019-10-02T15:05:34Z</time><name>PT14761</name></trkpt>
<trkpt lat="54.575868" lon="-3.206832"><ele>526</ele><time>2019-10-02T15:05:34Z</time><name>PT14762</name></trkpt>
<trkpt lat="54.575868" lon="-3.206823"><ele>526</ele><time>2019-10-02T15:05:36Z</time><name>PT14763</name></trkpt>
<trkpt lat="54.575869" lon="-3.206816"><ele>526</ele><time>2019-10-02T15:05:36Z</time><name>PT14764</name></trkpt>
<trkpt lat="54.575871" lon="-3.206805"><ele>526</ele><time>2019-10-02T15:05:38Z</time><name>PT14765</name></trkpt>
<trkpt lat="54.575868" lon="-3.206794"><ele>525</ele><time>2019-10-02T15:05:38Z</time><name>PT14766</name></trkpt>
<trkpt lat="54.575865" lon="-3.206778"><ele>525</ele><time>2019-10-02T15:05:40Z</time><name>PT14767</name></trkpt>
<trkpt lat="54.575865" lon="-3.206761"><ele>525</ele><time>2019-10-02T15:05:40Z</time><name>PT14768</name></trkpt>
<trkpt lat="54.575867" lon="-3.206747"><ele>524</ele><time>2019-10-02T15:05:42Z</time><name>PT14769</name></trkpt>
<trkpt lat="54.575871" lon="-3.206738"><ele>523</ele><time>2019-10-02T15:05:42Z</time><name>PT14770</name></trkpt>
<trkpt lat="54.575870" lon="-3.206728"><ele>523</ele><time>2019-10-02T15:05:44Z</time><name>PT14771</name></trkpt>
<trkpt lat="54.575870" lon="-3.206717"><ele>523</ele><time>2019-10-02T15:05:44Z</time><name>PT14772</name></trkpt>
<trkpt lat="54.575870" lon="-3.206703"><ele>522</ele><time>2019-10-02T15:05:46Z</time><name>PT14773</name></trkpt>
<trkpt lat="54.575872" lon="-3.206691"><ele>522</ele><time>2019-10-02T15:05:46Z</time><name>PT14774</name></trkpt>
<trkpt lat="54.575875" lon="-3.206679"><ele>522</ele><time>2019-10-02T15:05:48Z</time><name>PT14775</name></trkpt>
<trkpt lat="54.575877" lon="-3.206665"><ele>522</ele><time>2019-10-02T15:05:48Z</time><name>PT14776</name></trkpt>
<trkpt lat="54.575880" lon="-3.206652"><ele>521</ele><time>2019-10-02T15:05:50Z</time><name>PT14777</name></trkpt>
<trkpt lat="54.575881" lon="-3.206640"><ele>521</ele><time>2019-10-02T15:05:50Z</time><name>PT14778</name></trkpt>
<trkpt lat="54.575880" lon="-3.206631"><ele>520</ele><time>2019-10-02T15:05:52Z</time><name>PT14779</name></trkpt>
<trkpt lat="54.575878" lon="-3.206617"><ele>519</ele><time>2019-10-02T15:05:52Z</time><name>PT14780</name></trkpt>
<trkpt lat="54.575875" lon="-3.206600"><ele>519</ele><time>2019-10-02T15:05:54Z</time><name>PT14781</name></trkpt>
<trkpt lat="54.575870" lon="-3.206586"><ele>519</ele><time>2019-10-02T15:05:54Z</time><name>PT14782</name></trkpt>
<trkpt lat="54.575863" lon="-3.206580"><ele>518</ele><time>2019-10-02T15:05:56Z</time><name>PT14783</name></trkpt>
<trkpt lat="54.575856" lon="-3.206579"><ele>518</ele><time>2019-10-02T15:05:56Z</time><name>PT14784</name></trkpt>
<trkpt lat="54.575847" lon="-3.206575"><ele>518</ele><time>2019-10-02T15:05:58Z</time><name>PT14785</name></trkpt>
<trkpt lat="54.575842" lon="-3.206566"><ele>517</ele><time>2019-10-02T15:05:58Z</time><name>PT14786</name></trkpt>
<trkpt lat="54.575837" lon="-3.206557"><ele>517</ele><time>2019-10-02T15:06:00Z</time><name>PT14787</name></trkpt>
<trkpt lat="54.575833" lon="-3.206553"><ele>517</ele><time>2019-10-02T15:06:00Z</time><name>PT14788</name></trkpt>
<trkpt lat="54.575829" lon="-3.206550"><ele>517</ele><time>2019-10-02T15:06:02Z</time><name>PT14789</name></trkpt>
<trkpt lat="54.575823" lon="-3.206546"><ele>517</ele><time>2019-10-02T15:06:02Z</time><name>PT14790</name></trkpt>
<trkpt lat="54.575814" lon="-3.206543"><ele>516</ele><time>2019-10-02T15:06:04Z</time><name>PT14791</name></trkpt>
<trkpt lat="54.575808" lon="-3.206532"><ele>516</ele><time>2019-10-02T15:06:04Z</time><name>PT14792</name></trkpt>
<trkpt lat="54.575803" lon="-3.206524"><ele>516</ele><time>2019-10-02T15:06:06Z</time><name>PT14793</name></trkpt>
<trkpt lat="54.575796" lon="-3.206515"><ele>516</ele><time>2019-10-02T15:06:06Z</time><name>PT14794</name></trkpt>
<trkpt lat="54.575787" lon="-3.206496"><ele>515</ele><time>2019-10-02T15:06:08Z</time><name>PT14795</name></trkpt>
<trkpt lat="54.575784" lon="-3.206476"><ele>515</ele><time>2019-10-02T15:06:08Z</time><name>PT14796</name></trkpt>
<trkpt lat="54.575783" lon="-3.206457"><ele>514</ele><time>2019-10-02T15:06:10Z</time><name>PT14797</name></trkpt>
<trkpt lat="54.575783" lon="-3.206438"><ele>514</ele><time>2019-10-02T15:06:10Z</time><name>PT14798</name></trkpt>
<trkpt lat="54.575786" lon="-3.206421"><ele>514</ele><time>2019-10-02T15:06:12Z</time><name>PT14799</name></trkpt>
<trkpt lat="54.575785" lon="-3.206404"><ele>513</ele><time>2019-10-02T15:06:12Z</time><name>PT14800</name></trkpt>
<trkpt lat="54.575784" lon="-3.206390"><ele>513</ele><time>2019-10-02T15:06:14Z</time><name>PT14801</name></trkpt>
<trkpt lat="54.575781" lon="-3.206379"><ele>513</ele><time>2019-10-02T15:06:14Z</time><name>PT14802</name></trkpt>
<trkpt lat="54.575775" lon="-3.206375"><ele>513</ele><time>2019-10-02T15:06:16Z</time><name>PT14803</name></trkpt>
<trkpt lat="54.575768" lon="-3.206375"><ele>513</ele><time>2019-10-02T15:06:16Z</time><name>PT14804</name></trkpt>
<trkpt lat="54.575761" lon="-3.206374"><ele>513</ele><time>2019-10-02T15:06:18Z</time><name>PT14805</name></trkpt>
<trkpt lat="54.575754" lon="-3.206376"><ele>512</ele><time>2019-10-02T15:06:18Z</time><name>PT14806</name></trkpt>
<trkpt lat="54.575746" lon="-3.206376"><ele>512</ele><time>2019-10-02T15:06:20Z</time><name>PT14807</name></trkpt>
<trkpt lat="54.575737" lon="-3.206374"><ele>512</ele><time>2019-10-02T15:06:20Z</time><name>PT14808</name></trkpt>
<trkpt lat="54.575729" lon="-3.206370"><ele>512</ele><time>2019-10-02T15:06:22Z</time><name>PT14809</name></trkpt>
<trkpt lat="54.575720" lon="-3.206362"><ele>511</ele><time>2019-10-02T15:06:22Z</time><name>PT14810</name></trkpt>
<trkpt lat="54.575715" lon="-3.206349"><ele>511</ele><time>2019-10-02T15:06:24Z</time><name>PT14811</name></trkpt>
<trkpt lat="54.575712" lon="-3.206339"><ele>511</ele><time>2019-10-02T15:06:24Z</time><name>PT14812</name></trkpt>
<trkpt lat="54.575708" lon="-3.206327"><ele>510</ele><time>2019-10-02T15:06:26Z</time><name>PT14813</name></trkpt>
<trkpt lat="54.575703" lon="-3.206315"><ele>510</ele><time>2019-10-02T15:06:26Z</time><name>PT14814</name></trkpt>
<trkpt lat="54.575698" lon="-3.206302"><ele>510</ele><time>2019-10-02T15:06:28Z</time><name>PT14815</name></trkpt>
<trkpt lat="54.575693" lon="-3.206290"><ele>509</ele><time>2019-10-02T15:06:28Z</time><name>PT14816</name></trkpt>
<trkpt lat="54.575688" lon="-3.206277"><ele>509</ele><time>2019-10-02T15:06:30Z</time><name>PT14817</name></trkpt>
<trkpt lat="54.575683" lon="-3.206264"><ele>509</ele><time>2019-10-02T15:06:30Z</time><name>PT14818</name></trkpt>
<trkpt lat="54.575679" lon="-3.206253"><ele>508</ele><time>2019-10-02T15:06:32Z</time><name>PT14819</name></trkpt>
<trkpt lat="54.575675" lon="-3.206243"><ele>508</ele><time>2019-10-02T15:06:32Z</time><name>PT14820</name></trkpt>
<trkpt lat="54.575672" lon="-3.206234"><ele>507</ele><time>2019-10-02T15:06:34Z</time><name>PT14821</name></trkpt>
<trkpt lat="54.575668" lon="-3.206223"><ele>507</ele><time>2019-10-02T15:06:34Z</time><name>PT14822</name></trkpt>
<trkpt lat="54.575666" lon="-3.206212"><ele>507</ele><time>2019-10-02T15:06:36Z</time><name>PT14823</name></trkpt>
<trkpt lat="54.575664" lon="-3.206201"><ele>506</ele><time>2019-10-02T15:06:36Z</time><name>PT14824</name></trkpt>
<trkpt lat="54.575660" lon="-3.206190"><ele>506</ele><time>2019-10-02T15:06:38Z</time><name>PT14825</name></trkpt>
<trkpt lat="54.575655" lon="-3.206176"><ele>506</ele><time>2019-10-02T15:06:38Z</time><name>PT14826</name></trkpt>
<trkpt lat="54.575651" lon="-3.206162"><ele>505</ele><time>2019-10-02T15:06:40Z</time><name>PT14827</name></trkpt>
<trkpt lat="54.575646" lon="-3.206149"><ele>505</ele><time>2019-10-02T15:06:40Z</time><name>PT14828</name></trkpt>
<trkpt lat="54.575643" lon="-3.206136"><ele>505</ele><time>2019-10-02T15:06:42Z</time><name>PT14829</name></trkpt>
<trkpt lat="54.575643" lon="-3.206126"><ele>504</ele><time>2019-10-02T15:06:42Z</time><name>PT14830</name></trkpt>
<trkpt lat="54.575643" lon="-3.206113"><ele>504</ele><time>2019-10-02T15:06:44Z</time><name>PT14831</name></trkpt>
<trkpt lat="54.575645" lon="-3.206097"><ele>504</ele><time>2019-10-02T15:06:44Z</time><name>PT14832</name></trkpt>
<trkpt lat="54.575647" lon="-3.206085"><ele>504</ele><time>2019-10-02T15:06:46Z</time><name>PT14833</name></trkpt>
<trkpt lat="54.575648" lon="-3.206075"><ele>503</ele><time>2019-10-02T15:06:46Z</time><name>PT14834</name></trkpt>
<trkpt lat="54.575649" lon="-3.206067"><ele>503</ele><time>2019-10-02T15:06:48Z</time><name>PT14835</name></trkpt>
<trkpt lat="54.575650" lon="-3.206059"><ele>503</ele><time>2019-10-02T15:06:48Z</time><name>PT14836</name></trkpt>
<trkpt lat="54.575653" lon="-3.206053"><ele>503</ele><time>2019-10-02T15:06:50Z</time><name>PT14837</name></trkpt>
<trkpt lat="54.575657" lon="-3.206044"><ele>502</ele><time>2019-10-02T15:06:50Z</time><name>PT14838</name></trkpt>
<trkpt lat="54.575655" lon="-3.206033"><ele>502</ele><time>2019-10-02T15:06:52Z</time><name>PT14839</name></trkpt>
<trkpt lat="54.575650" lon="-3.206027"><ele>502</ele><time>2019-10-02T15:06:53Z</time><name>PT14840</name></trkpt>
<trkpt lat="54.575642" lon="-3.206030"><ele>501</ele><time>2019-10-02T15:06:54Z</time><name>PT14841</name></trkpt>
<trkpt lat="54.575637" lon="-3.206037"><ele>500</ele><time>2019-10-02T15:06:55Z</time><name>PT14842</name></trkpt>
<trkpt lat="54.575632" lon="-3.206044"><ele>500</ele><time>2019-10-02T15:06:56Z</time><name>PT14843</name></trkpt>
<trkpt lat="54.575623" lon="-3.206046"><ele>500</ele><time>2019-10-02T15:06:56Z</time><name>PT14844</name></trkpt>
<trkpt lat="54.575615" lon="-3.206042"><ele>500</ele><time>2019-10-02T15:06:58Z</time><name>PT14845</name></trkpt>
<trkpt lat="54.575608" lon="-3.206036"><ele>500</ele><time>2019-10-02T15:06:58Z</time><name>PT14846</name></trkpt>
<trkpt lat="54.575603" lon="-3.206029"><ele>500</ele><time>2019-10-02T15:07:00Z</time><name>PT14847</name></trkpt>
<trkpt lat="54.575600" lon="-3.206023"><ele>500</ele><time>2019-10-02T15:07:01Z</time><name>PT14848</name></trkpt>
<trkpt lat="54.575594" lon="-3.206018"><ele>499</ele><time>2019-10-02T15:07:02Z</time><name>PT14849</name></trkpt>
<trkpt lat="54.575590" lon="-3.206010"><ele>499</ele><time>2019-10-02T15:07:03Z</time><name>PT14850</name></trkpt>
<trkpt lat="54.575590" lon="-3.205999"><ele>499</ele><time>2019-10-02T15:07:04Z</time><name>PT14851</name></trkpt>
<trkpt lat="54.575590" lon="-3.205992"><ele>499</ele><time>2019-10-02T15:07:05Z</time><name>PT14852</name></trkpt>
<trkpt lat="54.575588" lon="-3.205983"><ele>498</ele><time>2019-10-02T15:07:06Z</time><name>PT14853</name></trkpt>
<trkpt lat="54.575586" lon="-3.205976"><ele>498</ele><time>2019-10-02T15:07:07Z</time><name>PT14854</name></trkpt>
<trkpt lat="54.575584" lon="-3.205970"><ele>498</ele><time>2019-10-02T15:07:08Z</time><name>PT14855</name></trkpt>
<trkpt lat="54.575581" lon="-3.205969"><ele>498</ele><time>2019-10-02T15:07:09Z</time><name>PT14856</name></trkpt>
<trkpt lat="54.575577" lon="-3.205966"><ele>498</ele><time>2019-10-02T15:07:10Z</time><name>PT14857</name></trkpt>
<trkpt lat="54.575574" lon="-3.205963"><ele>498</ele><time>2019-10-02T15:07:10Z</time><name>PT14858</name></trkpt>
<trkpt lat="54.575576" lon="-3.205960"><ele>498</ele><time>2019-10-02T15:07:14Z</time><name>PT14859</name></trkpt>
<trkpt lat="54.575573" lon="-3.205960"><ele>497</ele><time>2019-10-02T15:07:14Z</time><name>PT14860</name></trkpt>
<trkpt lat="54.575571" lon="-3.205957"><ele>496</ele><time>2019-10-02T15:07:16Z</time><name>PT14861</name></trkpt>
<trkpt lat="54.575569" lon="-3.205957"><ele>495</ele><time>2019-10-02T15:07:16Z</time><name>PT14862</name></trkpt>
<trkpt lat="54.575561" lon="-3.205955"><ele>495</ele><time>2019-10-02T15:07:18Z</time><name>PT14863</name></trkpt>
<trkpt lat="54.575554" lon="-3.205950"><ele>495</ele><time>2019-10-02T15:07:18Z</time><name>PT14864</name></trkpt>
<trkpt lat="54.575551" lon="-3.205933"><ele>495</ele><time>2019-10-02T15:07:20Z</time><name>PT14865</name></trkpt>
<trkpt lat="54.575549" lon="-3.205917"><ele>494</ele><time>2019-10-02T15:07:20Z</time><name>PT14866</name></trkpt>
<trkpt lat="54.575550" lon="-3.205903"><ele>494</ele><time>2019-10-02T15:07:22Z</time><name>PT14867</name></trkpt>
<trkpt lat="54.575550" lon="-3.205891"><ele>494</ele><time>2019-10-02T15:07:22Z</time><name>PT14868</name></trkpt>
<trkpt lat="54.575549" lon="-3.205879"><ele>494</ele><time>2019-10-02T15:07:24Z</time><name>PT14869</name></trkpt>
<trkpt lat="54.575548" lon="-3.205871"><ele>493</ele><time>2019-10-02T15:07:24Z</time><name>PT14870</name></trkpt>
<trkpt lat="54.575548" lon="-3.205861"><ele>493</ele><time>2019-10-02T15:07:26Z</time><name>PT14871</name></trkpt>
<trkpt lat="54.575551" lon="-3.205859"><ele>493</ele><time>2019-10-02T15:07:26Z</time><name>PT14872</name></trkpt>
<trkpt lat="54.575554" lon="-3.205853"><ele>493</ele><time>2019-10-02T15:07:28Z</time><name>PT14873</name></trkpt>
<trkpt lat="54.575556" lon="-3.205848"><ele>492</ele><time>2019-10-02T15:07:28Z</time><name>PT14874</name></trkpt>
<trkpt lat="54.575555" lon="-3.205840"><ele>492</ele><time>2019-10-02T15:07:30Z</time><name>PT14875</name></trkpt>
<trkpt lat="54.575552" lon="-3.205833"><ele>492</ele><time>2019-10-02T15:07:30Z</time><name>PT14876</name></trkpt>
<trkpt lat="54.575545" lon="-3.205829"><ele>492</ele><time>2019-10-02T15:07:32Z</time><name>PT14877</name></trkpt>
<trkpt lat="54.575538" lon="-3.205828"><ele>491</ele><time>2019-10-02T15:07:32Z</time><name>PT14878</name></trkpt>
<trkpt lat="54.575531" lon="-3.205820"><ele>491</ele><time>2019-10-02T15:07:34Z</time><name>PT14879</name></trkpt>
<trkpt lat="54.575525" lon="-3.205810"><ele>491</ele><time>2019-10-02T15:07:34Z</time><name>PT14880</name></trkpt>
<trkpt lat="54.575523" lon="-3.205800"><ele>491</ele><time>2019-10-02T15:07:36Z</time><name>PT14881</name></trkpt>
<trkpt lat="54.575522" lon="-3.205788"><ele>491</ele><time>2019-10-02T15:07:36Z</time><name>PT14882</name></trkpt>
<trkpt lat="54.575524" lon="-3.205776"><ele>491</ele><time>2019-10-02T15:07:38Z</time><name>PT14883</name></trkpt>
<trkpt lat="54.575523" lon="-3.205766"><ele>490</ele><time>2019-10-02T15:07:38Z</time><name>PT14884</name></trkpt>
<trkpt lat="54.575521" lon="-3.205757"><ele>490</ele><time>2019-10-02T15:07:40Z</time><name>PT14885</name></trkpt>
<trkpt lat="54.575517" lon="-3.205745"><ele>489</ele><time>2019-10-02T15:07:40Z</time><name>PT14886</name></trkpt>
<trkpt lat="54.575509" lon="-3.205739"><ele>488</ele><time>2019-10-02T15:07:42Z</time><name>PT14887</name></trkpt>
<trkpt lat="54.575503" lon="-3.205741"><ele>488</ele><time>2019-10-02T15:07:42Z</time><name>PT14888</name></trkpt>
<trkpt lat="54.575498" lon="-3.205742"><ele>488</ele><time>2019-10-02T15:07:44Z</time><name>PT14889</name></trkpt>
<trkpt lat="54.575494" lon="-3.205744"><ele>488</ele><time>2019-10-02T15:07:44Z</time><name>PT14890</name></trkpt>
<trkpt lat="54.575489" lon="-3.205740"><ele>488</ele><time>2019-10-02T15:07:46Z</time><name>PT14891</name></trkpt>
<trkpt lat="54.575489" lon="-3.205737"><ele>488</ele><time>2019-10-02T15:07:46Z</time><name>PT14892</name></trkpt>
<trkpt lat="54.575484" lon="-3.205732"><ele>487</ele><time>2019-10-02T15:07:48Z</time><name>PT14893</name></trkpt>
<trkpt lat="54.575476" lon="-3.205734"><ele>487</ele><time>2019-10-02T15:07:48Z</time><name>PT14894</name></trkpt>
<trkpt lat="54.575470" lon="-3.205734"><ele>487</ele><time>2019-10-02T15:07:50Z</time><name>PT14895</name></trkpt>
<trkpt lat="54.575468" lon="-3.205736"><ele>487</ele><time>2019-10-02T15:07:50Z</time><name>PT14896</name></trkpt>
<trkpt lat="54.575467" lon="-3.205736"><ele>487</ele><time>2019-10-02T15:07:52Z</time><name>PT14897</name></trkpt>
<trkpt lat="54.575467" lon="-3.205734"><ele>487</ele><time>2019-10-02T15:07:53Z</time><name>PT14898</name></trkpt>
<trkpt lat="54.575468" lon="-3.205725"><ele>487</ele><time>2019-10-02T15:07:58Z</time><name>PT14899</name></trkpt>
<trkpt lat="54.575473" lon="-3.205715"><ele>486</ele><time>2019-10-02T15:07:58Z</time><name>PT14900</name></trkpt>
<trkpt lat="54.575476" lon="-3.205700"><ele>486</ele><time>2019-10-02T15:08:00Z</time><name>PT14901</name></trkpt>
<trkpt lat="54.575482" lon="-3.205685"><ele>486</ele><time>2019-10-02T15:08:00Z</time><name>PT14902</name></trkpt>
<trkpt lat="54.575491" lon="-3.205669"><ele>486</ele><time>2019-10-02T15:08:02Z</time><name>PT14903</name></trkpt>
<trkpt lat="54.575496" lon="-3.205658"><ele>485</ele><time>2019-10-02T15:08:02Z</time><name>PT14904</name></trkpt>
<trkpt lat="54.575500" lon="-3.205649"><ele>485</ele><time>2019-10-02T15:08:04Z</time><name>PT14905</name></trkpt>
<trkpt lat="54.575504" lon="-3.205635"><ele>485</ele><time>2019-10-02T15:08:04Z</time><name>PT14906</name></trkpt>
<trkpt lat="54.575507" lon="-3.205620"><ele>485</ele><time>2019-10-02T15:08:06Z</time><name>PT14907</name></trkpt>
<trkpt lat="54.575512" lon="-3.205604"><ele>485</ele><time>2019-10-02T15:08:06Z</time><name>PT14908</name></trkpt>
<trkpt lat="54.575520" lon="-3.205590"><ele>485</ele><time>2019-10-02T15:08:08Z</time><name>PT14909</name></trkpt>
<trkpt lat="54.575526" lon="-3.205577"><ele>484</ele><time>2019-10-02T15:08:08Z</time><name>PT14910</name></trkpt>
<trkpt lat="54.575532" lon="-3.205564"><ele>484</ele><time>2019-10-02T15:08:10Z</time><name>PT14911</name></trkpt>
<trkpt lat="54.575536" lon="-3.205550"><ele>484</ele><time>2019-10-02T15:08:10Z</time><name>PT14912</name></trkpt>
<trkpt lat="54.575540" lon="-3.205537"><ele>483</ele><time>2019-10-02T15:08:12Z</time><name>PT14913</name></trkpt>
<trkpt lat="54.575547" lon="-3.205525"><ele>483</ele><time>2019-10-02T15:08:12Z</time><name>PT14914</name></trkpt>
<trkpt lat="54.575554" lon="-3.205514"><ele>483</ele><time>2019-10-02T15:08:14Z</time><name>PT14915</name></trkpt>
<trkpt lat="54.575561" lon="-3.205502"><ele>482</ele><time>2019-10-02T15:08:14Z</time><name>PT14916</name></trkpt>
<trkpt lat="54.575566" lon="-3.205487"><ele>481</ele><time>2019-10-02T15:08:16Z</time><name>PT14917</name></trkpt>
<trkpt lat="54.575571" lon="-3.205470"><ele>481</ele><time>2019-10-02T15:08:16Z</time><name>PT14918</name></trkpt>
<trkpt lat="54.575576" lon="-3.205453"><ele>481</ele><time>2019-10-02T15:08:18Z</time><name>PT14919</name></trkpt>
<trkpt lat="54.575580" lon="-3.205444"><ele>481</ele><time>2019-10-02T15:08:18Z</time><name>PT14920</name></trkpt>
<trkpt lat="54.575583" lon="-3.205435"><ele>481</ele><time>2019-10-02T15:08:20Z</time><name>PT14921</name></trkpt>
<trkpt lat="54.575585" lon="-3.205420"><ele>480</ele><time>2019-10-02T15:08:20Z</time><name>PT14922</name></trkpt>
<trkpt lat="54.575583" lon="-3.205405"><ele>480</ele><time>2019-10-02T15:08:22Z</time><name>PT14923</name></trkpt>
<trkpt lat="54.575583" lon="-3.205392"><ele>480</ele><time>2019-10-02T15:08:22Z</time><name>PT14924</name></trkpt>
<trkpt lat="54.575586" lon="-3.205378"><ele>479</ele><time>2019-10-02T15:08:24Z</time><name>PT14925</name></trkpt>
<trkpt lat="54.575585" lon="-3.205358"><ele>479</ele><time>2019-10-02T15:08:24Z</time><name>PT14926</name></trkpt>
<trkpt lat="54.575584" lon="-3.205340"><ele>479</ele><time>2019-10-02T15:08:26Z</time><name>PT14927</name></trkpt>
<trkpt lat="54.575580" lon="-3.205324"><ele>479</ele><time>2019-10-02T15:08:26Z</time><name>PT14928</name></trkpt>
<trkpt lat="54.575575" lon="-3.205310"><ele>478</ele><time>2019-10-02T15:08:28Z</time><name>PT14929</name></trkpt>
<trkpt lat="54.575570" lon="-3.205290"><ele>478</ele><time>2019-10-02T15:08:28Z</time><name>PT14930</name></trkpt>
<trkpt lat="54.575568" lon="-3.205268"><ele>477</ele><time>2019-10-02T15:08:30Z</time><name>PT14931</name></trkpt>
<trkpt lat="54.575567" lon="-3.205245"><ele>477</ele><time>2019-10-02T15:08:30Z</time><name>PT14932</name></trkpt>
<trkpt lat="54.575566" lon="-3.205223"><ele>477</ele><time>2019-10-02T15:08:32Z</time><name>PT14933</name></trkpt>
<trkpt lat="54.575563" lon="-3.205205"><ele>476</ele><time>2019-10-02T15:08:32Z</time><name>PT14934</name></trkpt>
<trkpt lat="54.575562" lon="-3.205188"><ele>476</ele><time>2019-10-02T15:08:34Z</time><name>PT14935</name></trkpt>
<trkpt lat="54.575565" lon="-3.205168"><ele>475</ele><time>2019-10-02T15:08:34Z</time><name>PT14936</name></trkpt>
<trkpt lat="54.575565" lon="-3.205149"><ele>475</ele><time>2019-10-02T15:08:36Z</time><name>PT14937</name></trkpt>
<trkpt lat="54.575565" lon="-3.205133"><ele>475</ele><time>2019-10-02T15:08:36Z</time><name>PT14938</name></trkpt>
<trkpt lat="54.575565" lon="-3.205116"><ele>475</ele><time>2019-10-02T15:08:38Z</time><name>PT14939</name></trkpt>
<trkpt lat="54.575565" lon="-3.205098"><ele>475</ele><time>2019-10-02T15:08:38Z</time><name>PT14940</name></trkpt>
<trkpt lat="54.575568" lon="-3.205082"><ele>475</ele><time>2019-10-02T15:08:40Z</time><name>PT14941</name></trkpt>
<trkpt lat="54.575571" lon="-3.205067"><ele>474</ele><time>2019-10-02T15:08:40Z</time><name>PT14942</name></trkpt>
<trkpt lat="54.575576" lon="-3.205053"><ele>474</ele><time>2019-10-02T15:08:42Z</time><name>PT14943</name></trkpt>
<trkpt lat="54.575581" lon="-3.205038"><ele>474</ele><time>2019-10-02T15:08:42Z</time><name>PT14944</name></trkpt>
<trkpt lat="54.575583" lon="-3.205023"><ele>473</ele><time>2019-10-02T15:08:44Z</time><name>PT14945</name></trkpt>
<trkpt lat="54.575580" lon="-3.205008"><ele>473</ele><time>2019-10-02T15:08:44Z</time><name>PT14946</name></trkpt>
<trkpt lat="54.575577" lon="-3.204990"><ele>473</ele><time>2019-10-02T15:08:46Z</time><name>PT14947</name></trkpt>
<trkpt lat="54.575573" lon="-3.204972"><ele>472</ele><time>2019-10-02T15:08:46Z</time><name>PT14948</name></trkpt>
<trkpt lat="54.575570" lon="-3.204947"><ele>472</ele><time>2019-10-02T15:08:48Z</time><name>PT14949</name></trkpt>
<trkpt lat="54.575568" lon="-3.204927"><ele>471</ele><time>2019-10-02T15:08:48Z</time><name>PT14950</name></trkpt>
<trkpt lat="54.575569" lon="-3.204911"><ele>471</ele><time>2019-10-02T15:08:50Z</time><name>PT14951</name></trkpt>
<trkpt lat="54.575573" lon="-3.204894"><ele>471</ele><time>2019-10-02T15:08:50Z</time><name>PT14952</name></trkpt>
<trkpt lat="54.575578" lon="-3.204876"><ele>471</ele><time>2019-10-02T15:08:52Z</time><name>PT14953</name></trkpt>
<trkpt lat="54.575585" lon="-3.204865"><ele>471</ele><time>2019-10-02T15:08:52Z</time><name>PT14954</name></trkpt>
<trkpt lat="54.575590" lon="-3.204855"><ele>471</ele><time>2019-10-02T15:08:54Z</time><name>PT14955</name></trkpt>
<trkpt lat="54.575593" lon="-3.204847"><ele>471</ele><time>2019-10-02T15:08:54Z</time><name>PT14956</name></trkpt>
<trkpt lat="54.575596" lon="-3.204841"><ele>471</ele><time>2019-10-02T15:08:56Z</time><name>PT14957</name></trkpt>
<trkpt lat="54.575598" lon="-3.204840"><ele>471</ele><time>2019-10-02T15:08:56Z</time><name>PT14958</name></trkpt>
<trkpt lat="54.575599" lon="-3.204840"><ele>471</ele><time>2019-10-02T15:08:58Z</time><name>PT14959</name></trkpt>
<trkpt lat="54.575596" lon="-3.204843"><ele>471</ele><time>2019-10-02T15:08:58Z</time><name>PT14960</name></trkpt>
<trkpt lat="54.575596" lon="-3.204845"><ele>470</ele><time>2019-10-02T15:09:00Z</time><name>PT14961</name></trkpt>
<trkpt lat="54.575596" lon="-3.204845"><ele>470</ele><time>2019-10-02T15:09:00Z</time><name>PT14962</name></trkpt>
<trkpt lat="54.575595" lon="-3.204845"><ele>470</ele><time>2019-10-02T15:09:02Z</time><name>PT14963</name></trkpt>
<trkpt lat="54.575595" lon="-3.204845"><ele>470</ele><time>2019-10-02T15:09:02Z</time><name>PT14964</name></trkpt>
<trkpt lat="54.575595" lon="-3.204846"><ele>470</ele><time>2019-10-02T15:09:04Z</time><name>PT14965</name></trkpt>
<trkpt lat="54.575594" lon="-3.204844"><ele>470</ele><time>2019-10-02T15:09:04Z</time><name>PT14966</name></trkpt>
<trkpt lat="54.575601" lon="-3.204836"><ele>470</ele><time>2019-10-02T15:09:12Z</time><name>PT14967</name></trkpt>
<trkpt lat="54.575604" lon="-3.204840"><ele>471</ele><time>2019-10-02T15:09:14Z</time><name>PT14968</name></trkpt>
<trkpt lat="54.575604" lon="-3.204842"><ele>470</ele><time>2019-10-02T15:09:14Z</time><name>PT14969</name></trkpt>
<trkpt lat="54.575601" lon="-3.204836"><ele>471</ele><time>2019-10-02T15:09:18Z</time><name>PT14970</name></trkpt>
<trkpt lat="54.575600" lon="-3.204837"><ele>470</ele><time>2019-10-02T15:09:18Z</time><name>PT14971</name></trkpt>
<trkpt lat="54.575600" lon="-3.204839"><ele>470</ele><time>2019-10-02T15:09:20Z</time><name>PT14972</name></trkpt>
<trkpt lat="54.575598" lon="-3.204838"><ele>471</ele><time>2019-10-02T15:09:20Z</time><name>PT14973</name></trkpt>
<trkpt lat="54.575598" lon="-3.204839"><ele>471</ele><time>2019-10-02T15:09:22Z</time><name>PT14974</name></trkpt>
<trkpt lat="54.575597" lon="-3.204838"><ele>471</ele><time>2019-10-02T15:09:22Z</time><name>PT14975</name></trkpt>
<trkpt lat="54.575597" lon="-3.204837"><ele>471</ele><time>2019-10-02T15:09:24Z</time><name>PT14976</name></trkpt>
<trkpt lat="54.575597" lon="-3.204844"><ele>471</ele><time>2019-10-02T15:11:02Z</time><name>PT14977</name></trkpt>
<trkpt lat="54.575597" lon="-3.204846"><ele>471</ele><time>2019-10-02T15:11:02Z</time><name>PT14978</name></trkpt>
<trkpt lat="54.575597" lon="-3.204848"><ele>472</ele><time>2019-10-02T15:11:04Z</time><name>PT14979</name></trkpt>
<trkpt lat="54.575599" lon="-3.204856"><ele>471</ele><time>2019-10-02T15:11:04Z</time><name>PT14980</name></trkpt>
<trkpt lat="54.575600" lon="-3.204850"><ele>471</ele><time>2019-10-02T15:13:36Z</time><name>PT14981</name></trkpt>
<trkpt lat="54.575601" lon="-3.204840"><ele>472</ele><time>2019-10-02T15:13:36Z</time><name>PT14982</name></trkpt>
<trkpt lat="54.575602" lon="-3.204840"><ele>472</ele><time>2019-10-02T15:13:38Z</time><name>PT14983</name></trkpt>
<trkpt lat="54.575599" lon="-3.204842"><ele>472</ele><time>2019-10-02T15:13:38Z</time><name>PT14984</name></trkpt>
<trkpt lat="54.575599" lon="-3.204842"><ele>472</ele><time>2019-10-02T15:13:40Z</time><name>PT14985</name></trkpt>
<trkpt lat="54.575598" lon="-3.204840"><ele>472</ele><time>2019-10-02T15:13:40Z</time><name>PT14986</name></trkpt>
<trkpt lat="54.575599" lon="-3.204837"><ele>472</ele><time>2019-10-02T15:13:58Z</time><name>PT14987</name></trkpt>
<trkpt lat="54.575599" lon="-3.204837"><ele>472</ele><time>2019-10-02T15:13:59Z</time><name>PT14988</name></trkpt>
<trkpt lat="54.575599" lon="-3.204838"><ele>473</ele><time>2019-10-02T15:14:00Z</time><name>PT14989</name></trkpt>
<trkpt lat="54.575598" lon="-3.204837"><ele>473</ele><time>2019-10-02T15:14:00Z</time><name>PT14990</name></trkpt>
<trkpt lat="54.575595" lon="-3.204836"><ele>473</ele><time>2019-10-02T15:14:04Z</time><name>PT14991</name></trkpt>
<trkpt lat="54.575596" lon="-3.204843"><ele>473</ele><time>2019-10-02T15:14:06Z</time><name>PT14992</name></trkpt>
<trkpt lat="54.575594" lon="-3.204846"><ele>472</ele><time>2019-10-02T15:14:06Z</time><name>PT14993</name></trkpt>
<trkpt lat="54.575593" lon="-3.204846"><ele>473</ele><time>2019-10-02T15:14:08Z</time><name>PT14994</name></trkpt>
<trkpt lat="54.575593" lon="-3.204842"><ele>473</ele><time>2019-10-02T15:14:08Z</time><name>PT14995</name></trkpt>
<trkpt lat="54.575595" lon="-3.204844"><ele>473</ele><time>2019-10-02T15:14:10Z</time><name>PT14996</name></trkpt>
<trkpt lat="54.575592" lon="-3.204845"><ele>472</ele><time>2019-10-02T15:14:16Z</time><name>PT14997</name></trkpt>
<trkpt lat="54.575593" lon="-3.204842"><ele>473</ele><time>2019-10-02T15:14:18Z</time><name>PT14998</name></trkpt>
<trkpt lat="54.575593" lon="-3.204839"><ele>473</ele><time>2019-10-02T15:14:18Z</time><name>PT14999</name></trkpt>
<trkpt lat="54.575594" lon="-3.204837"><ele>473</ele><time>2019-10-02T15:14:20Z</time><name>PT15000</name></trkpt>
<trkpt lat="54.575596" lon="-3.204839"><ele>473</ele><time>2019-10-02T15:14:20Z</time><name>PT15001</name></trkpt>
<trkpt lat="54.575597" lon="-3.204837"><ele>473</ele><time>2019-10-02T15:14:22Z</time><name>PT15002</name></trkpt>
<trkpt lat="54.575597" lon="-3.204834"><ele>473</ele><time>2019-10-02T15:14:22Z</time><name>PT15003</name></trkpt>
<trkpt lat="54.575598" lon="-3.204837"><ele>473</ele><time>2019-10-02T15:14:24Z</time><name>PT15004</name></trkpt>
<trkpt lat="54.575598" lon="-3.204840"><ele>473</ele><time>2019-10-02T15:14:24Z</time><name>PT15005</name></trkpt>
<trkpt lat="54.575602" lon="-3.204839"><ele>473</ele><time>2019-10-02T15:14:42Z</time><name>PT15006</name></trkpt>
<trkpt lat="54.575605" lon="-3.204843"><ele>473</ele><time>2019-10-02T15:14:42Z</time><name>PT15007</name></trkpt>
<trkpt lat="54.575607" lon="-3.204846"><ele>473</ele><time>2019-10-02T15:14:44Z</time><name>PT15008</name></trkpt>
<trkpt lat="54.575610" lon="-3.204847"><ele>474</ele><time>2019-10-02T15:14:48Z</time><name>PT15009</name></trkpt>
<trkpt lat="54.575611" lon="-3.204847"><ele>474</ele><time>2019-10-02T15:14:49Z</time><name>PT15010</name></trkpt>
<trkpt lat="54.575611" lon="-3.204846"><ele>474</ele><time>2019-10-02T15:14:50Z</time><name>PT15011</name></trkpt>
<trkpt lat="54.575612" lon="-3.204846"><ele>474</ele><time>2019-10-02T15:14:51Z</time><name>PT15012</name></trkpt>
<trkpt lat="54.575614" lon="-3.204845"><ele>474</ele><time>2019-10-02T15:15:04Z</time><name>PT15013</name></trkpt>
<trkpt lat="54.575615" lon="-3.204842"><ele>474</ele><time>2019-10-02T15:15:04Z</time><name>PT15014</name></trkpt>
<trkpt lat="54.575615" lon="-3.204841"><ele>473</ele><time>2019-10-02T15:15:06Z</time><name>PT15015</name></trkpt>
<trkpt lat="54.575616" lon="-3.204842"><ele>473</ele><time>2019-10-02T15:15:06Z</time><name>PT15016</name></trkpt>
<trkpt lat="54.575621" lon="-3.204846"><ele>473</ele><time>2019-10-02T15:15:14Z</time><name>PT15017</name></trkpt>
<trkpt lat="54.575627" lon="-3.204833"><ele>473</ele><time>2019-10-02T15:15:16Z</time><name>PT15018</name></trkpt>
<trkpt lat="54.575632" lon="-3.204824"><ele>473</ele><time>2019-10-02T15:15:16Z</time><name>PT15019</name></trkpt>
<trkpt lat="54.575638" lon="-3.204815"><ele>473</ele><time>2019-10-02T15:15:18Z</time><name>PT15020</name></trkpt>
<trkpt lat="54.575647" lon="-3.204807"><ele>472</ele><time>2019-10-02T15:15:18Z</time><name>PT15021</name></trkpt>
<trkpt lat="54.575654" lon="-3.204803"><ele>472</ele><time>2019-10-02T15:15:20Z</time><name>PT15022</name></trkpt>
<trkpt lat="54.575663" lon="-3.204797"><ele>473</ele><time>2019-10-02T15:15:20Z</time><name>PT15023</name></trkpt>
<trkpt lat="54.575671" lon="-3.204790"><ele>473</ele><time>2019-10-02T15:15:22Z</time><name>PT15024</name></trkpt>
<trkpt lat="54.575680" lon="-3.204781"><ele>472</ele><time>2019-10-02T15:15:22Z</time><name>PT15025</name></trkpt>
<trkpt lat="54.575686" lon="-3.204773"><ele>472</ele><time>2019-10-02T15:15:24Z</time><name>PT15026</name></trkpt>
<trkpt lat="54.575692" lon="-3.204758"><ele>472</ele><time>2019-10-02T15:15:24Z</time><name>PT15027</name></trkpt>
<trkpt lat="54.575699" lon="-3.204743"><ele>472</ele><time>2019-10-02T15:15:26Z</time><name>PT15028</name></trkpt>
<trkpt lat="54.575708" lon="-3.204733"><ele>471</ele><time>2019-10-02T15:15:26Z</time><name>PT15029</name></trkpt>
<trkpt lat="54.575716" lon="-3.204721"><ele>471</ele><time>2019-10-02T15:15:28Z</time><name>PT15030</name></trkpt>
<trkpt lat="54.575723" lon="-3.204709"><ele>471</ele><time>2019-10-02T15:15:28Z</time><name>PT15031</name></trkpt>
<trkpt lat="54.575727" lon="-3.204696"><ele>471</ele><time>2019-10-02T15:15:30Z</time><name>PT15032</name></trkpt>
<trkpt lat="54.575731" lon="-3.204680"><ele>471</ele><time>2019-10-02T15:15:30Z</time><name>PT15033</name></trkpt>
<trkpt lat="54.575732" lon="-3.204670"><ele>471</ele><time>2019-10-02T15:15:32Z</time><name>PT15034</name></trkpt>
<trkpt lat="54.575734" lon="-3.204662"><ele>471</ele><time>2019-10-02T15:15:32Z</time><name>PT15035</name></trkpt>
<trkpt lat="54.575737" lon="-3.204646"><ele>471</ele><time>2019-10-02T15:15:34Z</time><name>PT15036</name></trkpt>
<trkpt lat="54.575739" lon="-3.204628"><ele>471</ele><time>2019-10-02T15:15:34Z</time><name>PT15037</name></trkpt>
<trkpt lat="54.575742" lon="-3.204608"><ele>470</ele><time>2019-10-02T15:15:36Z</time><name>PT15038</name></trkpt>
<trkpt lat="54.575744" lon="-3.204589"><ele>470</ele><time>2019-10-02T15:15:36Z</time><name>PT15039</name></trkpt>
<trkpt lat="54.575746" lon="-3.204572"><ele>470</ele><time>2019-10-02T15:15:38Z</time><name>PT15040</name></trkpt>
<trkpt lat="54.575750" lon="-3.204557"><ele>470</ele><time>2019-10-02T15:15:38Z</time><name>PT15041</name></trkpt>
<trkpt lat="54.575751" lon="-3.204541"><ele>470</ele><time>2019-10-02T15:15:40Z</time><name>PT15042</name></trkpt>
<trkpt lat="54.575754" lon="-3.204527"><ele>470</ele><time>2019-10-02T15:15:40Z</time><name>PT15043</name></trkpt>
<trkpt lat="54.575754" lon="-3.204512"><ele>470</ele><time>2019-10-02T15:15:42Z</time><name>PT15044</name></trkpt>
<trkpt lat="54.575757" lon="-3.204499"><ele>470</ele><time>2019-10-02T15:15:42Z</time><name>PT15045</name></trkpt>
<trkpt lat="54.575761" lon="-3.204486"><ele>469</ele><time>2019-10-02T15:15:44Z</time><name>PT15046</name></trkpt>
<trkpt lat="54.575764" lon="-3.204469"><ele>469</ele><time>2019-10-02T15:15:44Z</time><name>PT15047</name></trkpt>
<trkpt lat="54.575766" lon="-3.204453"><ele>469</ele><time>2019-10-02T15:15:46Z</time><name>PT15048</name></trkpt>
<trkpt lat="54.575768" lon="-3.204447"><ele>469</ele><time>2019-10-02T15:15:46Z</time><name>PT15049</name></trkpt>
<trkpt lat="54.575770" lon="-3.204432"><ele>469</ele><time>2019-10-02T15:15:48Z</time><name>PT15050</name></trkpt>
<trkpt lat="54.575767" lon="-3.204415"><ele>468</ele><time>2019-10-02T15:15:48Z</time><name>PT15051</name></trkpt>
<trkpt lat="54.575762" lon="-3.204397"><ele>468</ele><time>2019-10-02T15:15:50Z</time><name>PT15052</name></trkpt>
<trkpt lat="54.575758" lon="-3.204373"><ele>469</ele><time>2019-10-02T15:15:50Z</time><name>PT15053</name></trkpt>
<trkpt lat="54.575760" lon="-3.204351"><ele>469</ele><time>2019-10-02T15:15:52Z</time><name>PT15054</name></trkpt>
<trkpt lat="54.575761" lon="-3.204332"><ele>469</ele><time>2019-10-02T15:15:53Z</time><name>PT15055</name></trkpt>
<trkpt lat="54.575764" lon="-3.204318"><ele>469</ele><time>2019-10-02T15:15:54Z</time><name>PT15056</name></trkpt>
<trkpt lat="54.575764" lon="-3.204304"><ele>469</ele><time>2019-10-02T15:15:55Z</time><name>PT15057</name></trkpt>
<trkpt lat="54.575764" lon="-3.204286"><ele>469</ele><time>2019-10-02T15:15:56Z</time><name>PT15058</name></trkpt>
<trkpt lat="54.575765" lon="-3.204267"><ele>468</ele><time>2019-10-02T15:15:56Z</time><name>PT15059</name></trkpt>
<trkpt lat="54.575767" lon="-3.204250"><ele>468</ele><time>2019-10-02T15:15:58Z</time><name>PT15060</name></trkpt>
<trkpt lat="54.575768" lon="-3.204232"><ele>468</ele><time>2019-10-02T15:15:59Z</time><name>PT15061</name></trkpt>
<trkpt lat="54.575770" lon="-3.204214"><ele>469</ele><time>2019-10-02T15:16:00Z</time><name>PT15062</name></trkpt>
<trkpt lat="54.575775" lon="-3.204201"><ele>468</ele><time>2019-10-02T15:16:01Z</time><name>PT15063</name></trkpt>
<trkpt lat="54.575782" lon="-3.204184"><ele>467</ele><time>2019-10-02T15:16:02Z</time><name>PT15064</name></trkpt>
<trkpt lat="54.575786" lon="-3.204169"><ele>467</ele><time>2019-10-02T15:16:03Z</time><name>PT15065</name></trkpt>
<trkpt lat="54.575789" lon="-3.204156"><ele>467</ele><time>2019-10-02T15:16:04Z</time><name>PT15066</name></trkpt>
<trkpt lat="54.575794" lon="-3.204141"><ele>467</ele><time>2019-10-02T15:16:04Z</time><name>PT15067</name></trkpt>
<trkpt lat="54.575799" lon="-3.204126"><ele>467</ele><time>2019-10-02T15:16:06Z</time><name>PT15068</name></trkpt>
<trkpt lat="54.575807" lon="-3.204111"><ele>467</ele><time>2019-10-02T15:16:06Z</time><name>PT15069</name></trkpt>
<trkpt lat="54.575811" lon="-3.204097"><ele>466</ele><time>2019-10-02T15:16:08Z</time><name>PT15070</name></trkpt>
<trkpt lat="54.575820" lon="-3.204088"><ele>466</ele><time>2019-10-02T15:16:08Z</time><name>PT15071</name></trkpt>
<trkpt lat="54.575829" lon="-3.204075"><ele>466</ele><time>2019-10-02T15:16:10Z</time><name>PT15072</name></trkpt>
<trkpt lat="54.575837" lon="-3.204064"><ele>466</ele><time>2019-10-02T15:16:10Z</time><name>PT15073</name></trkpt>
<trkpt lat="54.575843" lon="-3.204058"><ele>465</ele><time>2019-10-02T15:16:12Z</time><name>PT15074</name></trkpt>
<trkpt lat="54.575845" lon="-3.204045"><ele>465</ele><time>2019-10-02T15:16:12Z</time><name>PT15075</name></trkpt>
<trkpt lat="54.575848" lon="-3.204032"><ele>465</ele><time>2019-10-02T15:16:14Z</time><name>PT15076</name></trkpt>
<trkpt lat="54.575853" lon="-3.204020"><ele>465</ele><time>2019-10-02T15:16:14Z</time><name>PT15077</name></trkpt>
<trkpt lat="54.575857" lon="-3.204007"><ele>465</ele><time>2019-10-02T15:16:16Z</time><name>PT15078</name></trkpt>
<trkpt lat="54.575861" lon="-3.203992"><ele>465</ele><time>2019-10-02T15:16:16Z</time><name>PT15079</name></trkpt>
<trkpt lat="54.575870" lon="-3.203981"><ele>464</ele><time>2019-10-02T15:16:18Z</time><name>PT15080</name></trkpt>
<trkpt lat="54.575878" lon="-3.203970"><ele>464</ele><time>2019-10-02T15:16:18Z</time><name>PT15081</name></trkpt>
<trkpt lat="54.575886" lon="-3.203962"><ele>463</ele><time>2019-10-02T15:16:20Z</time><name>PT15082</name></trkpt>
<trkpt lat="54.575894" lon="-3.203953"><ele>463</ele><time>2019-10-02T15:16:20Z</time><name>PT15083</name></trkpt>
<trkpt lat="54.575900" lon="-3.203942"><ele>463</ele><time>2019-10-02T15:16:22Z</time><name>PT15084</name></trkpt>
<trkpt lat="54.575904" lon="-3.203932"><ele>463</ele><time>2019-10-02T15:16:22Z</time><name>PT15085</name></trkpt>
<trkpt lat="54.575908" lon="-3.203927"><ele>462</ele><time>2019-10-02T15:16:24Z</time><name>PT15086</name></trkpt>
<trkpt lat="54.575913" lon="-3.203920"><ele>462</ele><time>2019-10-02T15:16:24Z</time><name>PT15087</name></trkpt>
<trkpt lat="54.575918" lon="-3.203916"><ele>462</ele><time>2019-10-02T15:16:26Z</time><name>PT15088</name></trkpt>
<trkpt lat="54.575924" lon="-3.203913"><ele>462</ele><time>2019-10-02T15:16:26Z</time><name>PT15089</name></trkpt>
<trkpt lat="54.575932" lon="-3.203916"><ele>461</ele><time>2019-10-02T15:16:28Z</time><name>PT15090</name></trkpt>
<trkpt lat="54.575938" lon="-3.203915"><ele>461</ele><time>2019-10-02T15:16:28Z</time><name>PT15091</name></trkpt>
<trkpt lat="54.575946" lon="-3.203912"><ele>461</ele><time>2019-10-02T15:16:30Z</time><name>PT15092</name></trkpt>
<trkpt lat="54.575955" lon="-3.203906"><ele>461</ele><time>2019-10-02T15:16:30Z</time><name>PT15093</name></trkpt>
<trkpt lat="54.575963" lon="-3.203901"><ele>460</ele><time>2019-10-02T15:16:32Z</time><name>PT15094</name></trkpt>
<trkpt lat="54.575972" lon="-3.203890"><ele>460</ele><time>2019-10-02T15:16:32Z</time><name>PT15095</name></trkpt>
<trkpt lat="54.575979" lon="-3.203884"><ele>459</ele><time>2019-10-02T15:16:34Z</time><name>PT15096</name></trkpt>
<trkpt lat="54.575987" lon="-3.203878"><ele>459</ele><time>2019-10-02T15:16:34Z</time><name>PT15097</name></trkpt>
<trkpt lat="54.575997" lon="-3.203869"><ele>459</ele><time>2019-10-02T15:16:36Z</time><name>PT15098</name></trkpt>
<trkpt lat="54.576006" lon="-3.203859"><ele>459</ele><time>2019-10-02T15:16:36Z</time><name>PT15099</name></trkpt>
<trkpt lat="54.576014" lon="-3.203851"><ele>459</ele><time>2019-10-02T15:16:38Z</time><name>PT15100</name></trkpt>
<trkpt lat="54.576025" lon="-3.203844"><ele>458</ele><time>2019-10-02T15:16:38Z</time><name>PT15101</name></trkpt>
<trkpt lat="54.576033" lon="-3.203834"><ele>458</ele><time>2019-10-02T15:16:40Z</time><name>PT15102</name></trkpt>
<trkpt lat="54.576041" lon="-3.203827"><ele>458</ele><time>2019-10-02T15:16:40Z</time><name>PT15103</name></trkpt>
<trkpt lat="54.576049" lon="-3.203813"><ele>458</ele><time>2019-10-02T15:16:42Z</time><name>PT15104</name></trkpt>
<trkpt lat="54.576055" lon="-3.203796"><ele>458</ele><time>2019-10-02T15:16:42Z</time><name>PT15105</name></trkpt>
<trkpt lat="54.576062" lon="-3.203777"><ele>458</ele><time>2019-10-02T15:16:44Z</time><name>PT15106</name></trkpt>
<trkpt lat="54.576067" lon="-3.203759"><ele>458</ele><time>2019-10-02T15:16:44Z</time><name>PT15107</name></trkpt>
<trkpt lat="54.576073" lon="-3.203743"><ele>457</ele><time>2019-10-02T15:16:46Z</time><name>PT15108</name></trkpt>
<trkpt lat="54.576078" lon="-3.203729"><ele>457</ele><time>2019-10-02T15:16:46Z</time><name>PT15109</name></trkpt>
<trkpt lat="54.576087" lon="-3.203720"><ele>457</ele><time>2019-10-02T15:16:48Z</time><name>PT15110</name></trkpt>
<trkpt lat="54.576095" lon="-3.203710"><ele>457</ele><time>2019-10-02T15:16:48Z</time><name>PT15111</name></trkpt>
<trkpt lat="54.576107" lon="-3.203702"><ele>457</ele><time>2019-10-02T15:16:50Z</time><name>PT15112</name></trkpt>
<trkpt lat="54.576120" lon="-3.203696"><ele>457</ele><time>2019-10-02T15:16:50Z</time><name>PT15113</name></trkpt>
<trkpt lat="54.576132" lon="-3.203692"><ele>456</ele><time>2019-10-02T15:16:52Z</time><name>PT15114</name></trkpt>
<trkpt lat="54.576141" lon="-3.203687"><ele>456</ele><time>2019-10-02T15:16:52Z</time><name>PT15115</name></trkpt>
<trkpt lat="54.576152" lon="-3.203684"><ele>456</ele><time>2019-10-02T15:16:54Z</time><name>PT15116</name></trkpt>
<trkpt lat="54.576162" lon="-3.203680"><ele>455</ele><time>2019-10-02T15:16:54Z</time><name>PT15117</name></trkpt>
<trkpt lat="54.576170" lon="-3.203668"><ele>455</ele><time>2019-10-02T15:16:56Z</time><name>PT15118</name></trkpt>
<trkpt lat="54.576180" lon="-3.203655"><ele>455</ele><time>2019-10-02T15:16:56Z</time><name>PT15119</name></trkpt>
<trkpt lat="54.576189" lon="-3.203641"><ele>454</ele><time>2019-10-02T15:16:58Z</time><name>PT15120</name></trkpt>
<trkpt lat="54.576198" lon="-3.203628"><ele>454</ele><time>2019-10-02T15:16:58Z</time><name>PT15121</name></trkpt>
<trkpt lat="54.576207" lon="-3.203616"><ele>453</ele><time>2019-10-02T15:17:00Z</time><name>PT15122</name></trkpt>
<trkpt lat="54.576217" lon="-3.203605"><ele>453</ele><time>2019-10-02T15:17:00Z</time><name>PT15123</name></trkpt>
<trkpt lat="54.576226" lon="-3.203595"><ele>453</ele><time>2019-10-02T15:17:02Z</time><name>PT15124</name></trkpt>
<trkpt lat="54.576235" lon="-3.203581"><ele>453</ele><time>2019-10-02T15:17:02Z</time><name>PT15125</name></trkpt>
<trkpt lat="54.576245" lon="-3.203569"><ele>453</ele><time>2019-10-02T15:17:04Z</time><name>PT15126</name></trkpt>
<trkpt lat="54.576252" lon="-3.203556"><ele>453</ele><time>2019-10-02T15:17:04Z</time><name>PT15127</name></trkpt>
<trkpt lat="54.576256" lon="-3.203543"><ele>453</ele><time>2019-10-02T15:17:06Z</time><name>PT15128</name></trkpt>
<trkpt lat="54.576261" lon="-3.203531"><ele>453</ele><time>2019-10-02T15:17:06Z</time><name>PT15129</name></trkpt>
<trkpt lat="54.576264" lon="-3.203522"><ele>453</ele><time>2019-10-02T15:17:08Z</time><name>PT15130</name></trkpt>
<trkpt lat="54.576269" lon="-3.203515"><ele>453</ele><time>2019-10-02T15:17:08Z</time><name>PT15131</name></trkpt>
<trkpt lat="54.576272" lon="-3.203506"><ele>453</ele><time>2019-10-02T15:17:10Z</time><name>PT15132</name></trkpt>
<trkpt lat="54.576274" lon="-3.203489"><ele>453</ele><time>2019-10-02T15:17:10Z</time><name>PT15133</name></trkpt>
<trkpt lat="54.576276" lon="-3.203473"><ele>453</ele><time>2019-10-02T15:17:12Z</time><name>PT15134</name></trkpt>
<trkpt lat="54.576280" lon="-3.203463"><ele>453</ele><time>2019-10-02T15:17:12Z</time><name>PT15135</name></trkpt>
<trkpt lat="54.576283" lon="-3.203457"><ele>453</ele><time>2019-10-02T15:17:14Z</time><name>PT15136</name></trkpt>
<trkpt lat="54.576284" lon="-3.203448"><ele>453</ele><time>2019-10-02T15:17:14Z</time><name>PT15137</name></trkpt>
<trkpt lat="54.576285" lon="-3.203437"><ele>453</ele><time>2019-10-02T15:17:16Z</time><name>PT15138</name></trkpt>
<trkpt lat="54.576289" lon="-3.203420"><ele>452</ele><time>2019-10-02T15:17:16Z</time><name>PT15139</name></trkpt>
<trkpt lat="54.576285" lon="-3.203399"><ele>452</ele><time>2019-10-02T15:17:18Z</time><name>PT15140</name></trkpt>
<trkpt lat="54.576283" lon="-3.203382"><ele>452</ele><time>2019-10-02T15:17:18Z</time><name>PT15141</name></trkpt>
<trkpt lat="54.576282" lon="-3.203367"><ele>452</ele><time>2019-10-02T15:17:20Z</time><name>PT15142</name></trkpt>
<trkpt lat="54.576285" lon="-3.203350"><ele>451</ele><time>2019-10-02T15:17:20Z</time><name>PT15143</name></trkpt>
<trkpt lat="54.576288" lon="-3.203335"><ele>451</ele><time>2019-10-02T15:17:22Z</time><name>PT15144</name></trkpt>
<trkpt lat="54.576291" lon="-3.203321"><ele>451</ele><time>2019-10-02T15:17:22Z</time><name>PT15145</name></trkpt>
<trkpt lat="54.576292" lon="-3.203304"><ele>451</ele><time>2019-10-02T15:17:24Z</time><name>PT15146</name></trkpt>
<trkpt lat="54.576292" lon="-3.203286"><ele>450</ele><time>2019-10-02T15:17:25Z</time><name>PT15147</name></trkpt>
<trkpt lat="54.576291" lon="-3.203268"><ele>450</ele><time>2019-10-02T15:17:26Z</time><name>PT15148</name></trkpt>
<trkpt lat="54.576292" lon="-3.203253"><ele>450</ele><time>2019-10-02T15:17:27Z</time><name>PT15149</name></trkpt>
<trkpt lat="54.576290" lon="-3.203231"><ele>450</ele><time>2019-10-02T15:17:28Z</time><name>PT15150</name></trkpt>
<trkpt lat="54.576287" lon="-3.203210"><ele>450</ele><time>2019-10-02T15:17:29Z</time><name>PT15151</name></trkpt>
<trkpt lat="54.576287" lon="-3.203190"><ele>450</ele><time>2019-10-02T15:17:30Z</time><name>PT15152</name></trkpt>
<trkpt lat="54.576291" lon="-3.203176"><ele>449</ele><time>2019-10-02T15:17:31Z</time><name>PT15153</name></trkpt>
<trkpt lat="54.576293" lon="-3.203157"><ele>449</ele><time>2019-10-02T15:17:32Z</time><name>PT15154</name></trkpt>
<trkpt lat="54.576292" lon="-3.203139"><ele>449</ele><time>2019-10-02T15:17:32Z</time><name>PT15155</name></trkpt>
<trkpt lat="54.576293" lon="-3.203123"><ele>449</ele><time>2019-10-02T15:17:34Z</time><name>PT15156</name></trkpt>
<trkpt lat="54.576296" lon="-3.203109"><ele>449</ele><time>2019-10-02T15:17:34Z</time><name>PT15157</name></trkpt>
<trkpt lat="54.576301" lon="-3.203097"><ele>448</ele><time>2019-10-02T15:17:36Z</time><name>PT15158</name></trkpt>
<trkpt lat="54.576303" lon="-3.203082"><ele>448</ele><time>2019-10-02T15:17:36Z</time><name>PT15159</name></trkpt>
<trkpt lat="54.576306" lon="-3.203069"><ele>448</ele><time>2019-10-02T15:17:38Z</time><name>PT15160</name></trkpt>
<trkpt lat="54.576311" lon="-3.203055"><ele>448</ele><time>2019-10-02T15:17:38Z</time><name>PT15161</name></trkpt>
<trkpt lat="54.576314" lon="-3.203043"><ele>448</ele><time>2019-10-02T15:17:40Z</time><name>PT15162</name></trkpt>
<trkpt lat="54.576319" lon="-3.203025"><ele>447</ele><time>2019-10-02T15:17:40Z</time><name>PT15163</name></trkpt>
<trkpt lat="54.576324" lon="-3.203009"><ele>447</ele><time>2019-10-02T15:17:42Z</time><name>PT15164</name></trkpt>
<trkpt lat="54.576327" lon="-3.202992"><ele>447</ele><time>2019-10-02T15:17:42Z</time><name>PT15165</name></trkpt>
<trkpt lat="54.576332" lon="-3.202978"><ele>447</ele><time>2019-10-02T15:17:44Z</time><name>PT15166</name></trkpt>
<trkpt lat="54.576336" lon="-3.202964"><ele>446</ele><time>2019-10-02T15:17:44Z</time><name>PT15167</name></trkpt>
<trkpt lat="54.576341" lon="-3.202950"><ele>446</ele><time>2019-10-02T15:17:46Z</time><name>PT15168</name></trkpt>
<trkpt lat="54.576345" lon="-3.202932"><ele>446</ele><time>2019-10-02T15:17:46Z</time><name>PT15169</name></trkpt>
<trkpt lat="54.576348" lon="-3.202918"><ele>446</ele><time>2019-10-02T15:17:48Z</time><name>PT15170</name></trkpt>
<trkpt lat="54.576350" lon="-3.202900"><ele>446</ele><time>2019-10-02T15:17:48Z</time><name>PT15171</name></trkpt>
<trkpt lat="54.576353" lon="-3.202883"><ele>446</ele><time>2019-10-02T15:17:50Z</time><name>PT15172</name></trkpt>
<trkpt lat="54.576356" lon="-3.202867"><ele>445</ele><time>2019-10-02T15:17:50Z</time><name>PT15173</name></trkpt>
<trkpt lat="54.576363" lon="-3.202854"><ele>445</ele><time>2019-10-02T15:17:52Z</time><name>PT15174</name></trkpt>
<trkpt lat="54.576368" lon="-3.202843"><ele>445</ele><time>2019-10-02T15:17:52Z</time><name>PT15175</name></trkpt>
<trkpt lat="54.576370" lon="-3.202833"><ele>445</ele><time>2019-10-02T15:17:54Z</time><name>PT15176</name></trkpt>
<trkpt lat="54.576374" lon="-3.202825"><ele>445</ele><time>2019-10-02T15:17:54Z</time><name>PT15177</name></trkpt>
<trkpt lat="54.576377" lon="-3.202816"><ele>445</ele><time>2019-10-02T15:17:56Z</time><name>PT15178</name></trkpt>
<trkpt lat="54.576380" lon="-3.202807"><ele>445</ele><time>2019-10-02T15:17:56Z</time><name>PT15179</name></trkpt>
<trkpt lat="54.576384" lon="-3.202797"><ele>445</ele><time>2019-10-02T15:17:58Z</time><name>PT15180</name></trkpt>
<trkpt lat="54.576389" lon="-3.202794"><ele>444</ele><time>2019-10-02T15:17:58Z</time><name>PT15181</name></trkpt>
<trkpt lat="54.576395" lon="-3.202790"><ele>444</ele><time>2019-10-02T15:18:00Z</time><name>PT15182</name></trkpt>
<trkpt lat="54.576399" lon="-3.202786"><ele>444</ele><time>2019-10-02T15:18:00Z</time><name>PT15183</name></trkpt>
<trkpt lat="54.576402" lon="-3.202780"><ele>444</ele><time>2019-10-02T15:18:02Z</time><name>PT15184</name></trkpt>
<trkpt lat="54.576408" lon="-3.202773"><ele>443</ele><time>2019-10-02T15:18:02Z</time><name>PT15185</name></trkpt>
<trkpt lat="54.576413" lon="-3.202769"><ele>443</ele><time>2019-10-02T15:18:04Z</time><name>PT15186</name></trkpt>
<trkpt lat="54.576417" lon="-3.202766"><ele>443</ele><time>2019-10-02T15:18:04Z</time><name>PT15187</name></trkpt>
<trkpt lat="54.576422" lon="-3.202758"><ele>443</ele><time>2019-10-02T15:18:06Z</time><name>PT15188</name></trkpt>
<trkpt lat="54.576427" lon="-3.202752"><ele>442</ele><time>2019-10-02T15:18:06Z</time><name>PT15189</name></trkpt>
<trkpt lat="54.576432" lon="-3.202747"><ele>442</ele><time>2019-10-02T15:18:08Z</time><name>PT15190</name></trkpt>
<trkpt lat="54.576436" lon="-3.202740"><ele>442</ele><time>2019-10-02T15:18:08Z</time><name>PT15191</name></trkpt>
<trkpt lat="54.576438" lon="-3.202732"><ele>441</ele><time>2019-10-02T15:18:10Z</time><name>PT15192</name></trkpt>
<trkpt lat="54.576443" lon="-3.202724"><ele>441</ele><time>2019-10-02T15:18:10Z</time><name>PT15193</name></trkpt>
<trkpt lat="54.576447" lon="-3.202713"><ele>441</ele><time>2019-10-02T15:18:12Z</time><name>PT15194</name></trkpt>
<trkpt lat="54.576452" lon="-3.202704"><ele>440</ele><time>2019-10-02T15:18:12Z</time><name>PT15195</name></trkpt>
<trkpt lat="54.576456" lon="-3.202695"><ele>439</ele><time>2019-10-02T15:18:14Z</time><name>PT15196</name></trkpt>
<trkpt lat="54.576460" lon="-3.202689"><ele>439</ele><time>2019-10-02T15:18:14Z</time><name>PT15197</name></trkpt>
<trkpt lat="54.576464" lon="-3.202682"><ele>439</ele><time>2019-10-02T15:18:16Z</time><name>PT15198</name></trkpt>
<trkpt lat="54.576471" lon="-3.202685"><ele>439</ele><time>2019-10-02T15:18:16Z</time><name>PT15199</name></trkpt>
<trkpt lat="54.576477" lon="-3.202684"><ele>439</ele><time>2019-10-02T15:18:18Z</time><name>PT15200</name></trkpt>
<trkpt lat="54.576477" lon="-3.202675"><ele>438</ele><time>2019-10-02T15:18:18Z</time><name>PT15201</name></trkpt>
<trkpt lat="54.576481" lon="-3.202668"><ele>438</ele><time>2019-10-02T15:18:20Z</time><name>PT15202</name></trkpt>
<trkpt lat="54.576484" lon="-3.202657"><ele>438</ele><time>2019-10-02T15:18:20Z</time><name>PT15203</name></trkpt>
<trkpt lat="54.576487" lon="-3.202647"><ele>438</ele><time>2019-10-02T15:18:22Z</time><name>PT15204</name></trkpt>
<trkpt lat="54.576489" lon="-3.202637"><ele>437</ele><time>2019-10-02T15:18:22Z</time><name>PT15205</name></trkpt>
<trkpt lat="54.576493" lon="-3.202626"><ele>437</ele><time>2019-10-02T15:18:24Z</time><name>PT15206</name></trkpt>
<trkpt lat="54.576495" lon="-3.202614"><ele>437</ele><time>2019-10-02T15:18:24Z</time><name>PT15207</name></trkpt>
<trkpt lat="54.576497" lon="-3.202599"><ele>436</ele><time>2019-10-02T15:18:26Z</time><name>PT15208</name></trkpt>
<trkpt lat="54.576500" lon="-3.202584"><ele>436</ele><time>2019-10-02T15:18:26Z</time><name>PT15209</name></trkpt>
<trkpt lat="54.576504" lon="-3.202574"><ele>435</ele><time>2019-10-02T15:18:28Z</time><name>PT15210</name></trkpt>
<trkpt lat="54.576508" lon="-3.202568"><ele>435</ele><time>2019-10-02T15:18:28Z</time><name>PT15211</name></trkpt>
<trkpt lat="54.576511" lon="-3.202559"><ele>435</ele><time>2019-10-02T15:18:30Z</time><name>PT15212</name></trkpt>
<trkpt lat="54.576520" lon="-3.202547"><ele>435</ele><time>2019-10-02T15:18:30Z</time><name>PT15213</name></trkpt>
<trkpt lat="54.576526" lon="-3.202538"><ele>435</ele><time>2019-10-02T15:18:32Z</time><name>PT15214</name></trkpt>
<trkpt lat="54.576531" lon="-3.202526"><ele>435</ele><time>2019-10-02T15:18:32Z</time><name>PT15215</name></trkpt>
<trkpt lat="54.576537" lon="-3.202516"><ele>434</ele><time>2019-10-02T15:18:34Z</time><name>PT15216</name></trkpt>
<trkpt lat="54.576544" lon="-3.202510"><ele>434</ele><time>2019-10-02T15:18:34Z</time><name>PT15217</name></trkpt>
<trkpt lat="54.576551" lon="-3.202510"><ele>434</ele><time>2019-10-02T15:18:36Z</time><name>PT15218</name></trkpt>
<trkpt lat="54.576561" lon="-3.202517"><ele>433</ele><time>2019-10-02T15:18:36Z</time><name>PT15219</name></trkpt>
<trkpt lat="54.576567" lon="-3.202526"><ele>432</ele><time>2019-10-02T15:18:38Z</time><name>PT15220</name></trkpt>
<trkpt lat="54.576573" lon="-3.202538"><ele>432</ele><time>2019-10-02T15:18:38Z</time><name>PT15221</name></trkpt>
<trkpt lat="54.576579" lon="-3.202548"><ele>432</ele><time>2019-10-02T15:18:40Z</time><name>PT15222</name></trkpt>
<trkpt lat="54.576586" lon="-3.202556"><ele>432</ele><time>2019-10-02T15:18:41Z</time><name>PT15223</name></trkpt>
<trkpt lat="54.576594" lon="-3.202562"><ele>432</ele><time>2019-10-02T15:18:42Z</time><name>PT15224</name></trkpt>
<trkpt lat="54.576604" lon="-3.202573"><ele>431</ele><time>2019-10-02T15:18:43Z</time><name>PT15225</name></trkpt>
<trkpt lat="54.576612" lon="-3.202586"><ele>430</ele><time>2019-10-02T15:18:44Z</time><name>PT15226</name></trkpt>
<trkpt lat="54.576619" lon="-3.202598"><ele>430</ele><time>2019-10-02T15:18:45Z</time><name>PT15227</name></trkpt>
<trkpt lat="54.576626" lon="-3.202607"><ele>430</ele><time>2019-10-02T15:18:46Z</time><name>PT15228</name></trkpt>
<trkpt lat="54.576633" lon="-3.202611"><ele>429</ele><time>2019-10-02T15:18:47Z</time><name>PT15229</name></trkpt>
<trkpt lat="54.576640" lon="-3.202613"><ele>429</ele><time>2019-10-02T15:18:48Z</time><name>PT15230</name></trkpt>
<trkpt lat="54.576646" lon="-3.202607"><ele>429</ele><time>2019-10-02T15:18:48Z</time><name>PT15231</name></trkpt>
<trkpt lat="54.576651" lon="-3.202596"><ele>428</ele><time>2019-10-02T15:18:50Z</time><name>PT15232</name></trkpt>
<trkpt lat="54.576655" lon="-3.202584"><ele>429</ele><time>2019-10-02T15:18:50Z</time><name>PT15233</name></trkpt>
<trkpt lat="54.576655" lon="-3.202572"><ele>429</ele><time>2019-10-02T15:18:52Z</time><name>PT15234</name></trkpt>
<trkpt lat="54.576655" lon="-3.202559"><ele>429</ele><time>2019-10-02T15:18:52Z</time><name>PT15235</name></trkpt>
<trkpt lat="54.576656" lon="-3.202540"><ele>429</ele><time>2019-10-02T15:18:54Z</time><name>PT15236</name></trkpt>
<trkpt lat="54.576656" lon="-3.202527"><ele>429</ele><time>2019-10-02T15:18:54Z</time><name>PT15237</name></trkpt>
<trkpt lat="54.576658" lon="-3.202510"><ele>428</ele><time>2019-10-02T15:18:56Z</time><name>PT15238</name></trkpt>
<trkpt lat="54.576663" lon="-3.202501"><ele>428</ele><time>2019-10-02T15:18:56Z</time><name>PT15239</name></trkpt>
<trkpt lat="54.576667" lon="-3.202486"><ele>428</ele><time>2019-10-02T15:18:58Z</time><name>PT15240</name></trkpt>
<trkpt lat="54.576668" lon="-3.202471"><ele>428</ele><time>2019-10-02T15:18:58Z</time><name>PT15241</name></trkpt>
<trkpt lat="54.576673" lon="-3.202462"><ele>427</ele><time>2019-10-02T15:19:00Z</time><name>PT15242</name></trkpt>
<trkpt lat="54.576677" lon="-3.202452"><ele>427</ele><time>2019-10-02T15:19:00Z</time><name>PT15243</name></trkpt>
<trkpt lat="54.576681" lon="-3.202438"><ele>427</ele><time>2019-10-02T15:19:02Z</time><name>PT15244</name></trkpt>
<trkpt lat="54.576685" lon="-3.202424"><ele>427</ele><time>2019-10-02T15:19:02Z</time><name>PT15245</name></trkpt>
<trkpt lat="54.576686" lon="-3.202408"><ele>427</ele><time>2019-10-02T15:19:04Z</time><name>PT15246</name></trkpt>
<trkpt lat="54.576683" lon="-3.202396"><ele>426</ele><time>2019-10-02T15:19:04Z</time><name>PT15247</name></trkpt>
<trkpt lat="54.576683" lon="-3.202378"><ele>426</ele><time>2019-10-02T15:19:06Z</time><name>PT15248</name></trkpt>
<trkpt lat="54.576685" lon="-3.202371"><ele>426</ele><time>2019-10-02T15:19:06Z</time><name>PT15249</name></trkpt>
<trkpt lat="54.576686" lon="-3.202346"><ele>424</ele><time>2019-10-02T15:19:08Z</time><name>PT15250</name></trkpt>
<trkpt lat="54.576693" lon="-3.202336"><ele>424</ele><time>2019-10-02T15:19:08Z</time><name>PT15251</name></trkpt>
<trkpt lat="54.576702" lon="-3.202334"><ele>424</ele><time>2019-10-02T15:19:10Z</time><name>PT15252</name></trkpt>
<trkpt lat="54.576712" lon="-3.202343"><ele>424</ele><time>2019-10-02T15:19:10Z</time><name>PT15253</name></trkpt>
<trkpt lat="54.576719" lon="-3.202350"><ele>424</ele><time>2019-10-02T15:19:12Z</time><name>PT15254</name></trkpt>
<trkpt lat="54.576727" lon="-3.202361"><ele>423</ele><time>2019-10-02T15:19:12Z</time><name>PT15255</name></trkpt>
<trkpt lat="54.576733" lon="-3.202372"><ele>423</ele><time>2019-10-02T15:19:14Z</time><name>PT15256</name></trkpt>
<trkpt lat="54.576738" lon="-3.202386"><ele>423</ele><time>2019-10-02T15:19:14Z</time><name>PT15257</name></trkpt>
<trkpt lat="54.576744" lon="-3.202404"><ele>423</ele><time>2019-10-02T15:19:16Z</time><name>PT15258</name></trkpt>
<trkpt lat="54.576751" lon="-3.202416"><ele>422</ele><time>2019-10-02T15:19:16Z</time><name>PT15259</name></trkpt>
<trkpt lat="54.576756" lon="-3.202424"><ele>422</ele><time>2019-10-02T15:19:18Z</time><name>PT15260</name></trkpt>
<trkpt lat="54.576764" lon="-3.202431"><ele>422</ele><time>2019-10-02T15:19:18Z</time><name>PT15261</name></trkpt>
<trkpt lat="54.576771" lon="-3.202438"><ele>421</ele><time>2019-10-02T15:19:20Z</time><name>PT15262</name></trkpt>
<trkpt lat="54.576780" lon="-3.202449"><ele>421</ele><time>2019-10-02T15:19:20Z</time><name>PT15263</name></trkpt>
<trkpt lat="54.576789" lon="-3.202460"><ele>420</ele><time>2019-10-02T15:19:22Z</time><name>PT15264</name></trkpt>
<trkpt lat="54.576795" lon="-3.202469"><ele>420</ele><time>2019-10-02T15:19:22Z</time><name>PT15265</name></trkpt>
<trkpt lat="54.576801" lon="-3.202473"><ele>420</ele><time>2019-10-02T15:19:24Z</time><name>PT15266</name></trkpt>
<trkpt lat="54.576808" lon="-3.202470"><ele>419</ele><time>2019-10-02T15:19:24Z</time><name>PT15267</name></trkpt>
<trkpt lat="54.576815" lon="-3.202464"><ele>419</ele><time>2019-10-02T15:19:26Z</time><name>PT15268</name></trkpt>
<trkpt lat="54.576819" lon="-3.202454"><ele>418</ele><time>2019-10-02T15:19:26Z</time><name>PT15269</name></trkpt>
<trkpt lat="54.576823" lon="-3.202444"><ele>418</ele><time>2019-10-02T15:19:28Z</time><name>PT15270</name></trkpt>
<trkpt lat="54.576827" lon="-3.202427"><ele>418</ele><time>2019-10-02T15:19:28Z</time><name>PT15271</name></trkpt>
<trkpt lat="54.576833" lon="-3.202409"><ele>418</ele><time>2019-10-02T15:19:30Z</time><name>PT15272</name></trkpt>
<trkpt lat="54.576836" lon="-3.202394"><ele>418</ele><time>2019-10-02T15:19:30Z</time><name>PT15273</name></trkpt>
<trkpt lat="54.576837" lon="-3.202378"><ele>417</ele><time>2019-10-02T15:19:32Z</time><name>PT15274</name></trkpt>
<trkpt lat="54.576839" lon="-3.202364"><ele>417</ele><time>2019-10-02T15:19:32Z</time><name>PT15275</name></trkpt>
<trkpt lat="54.576843" lon="-3.202353"><ele>417</ele><time>2019-10-02T15:19:34Z</time><name>PT15276</name></trkpt>
<trkpt lat="54.576848" lon="-3.202343"><ele>417</ele><time>2019-10-02T15:19:34Z</time><name>PT15277</name></trkpt>
<trkpt lat="54.576851" lon="-3.202333"><ele>417</ele><time>2019-10-02T15:19:36Z</time><name>PT15278</name></trkpt>
<trkpt lat="54.576854" lon="-3.202320"><ele>417</ele><time>2019-10-02T15:19:36Z</time><name>PT15279</name></trkpt>
<trkpt lat="54.576856" lon="-3.202307"><ele>417</ele><time>2019-10-02T15:19:38Z</time><name>PT15280</name></trkpt>
<trkpt lat="54.576858" lon="-3.202298"><ele>417</ele><time>2019-10-02T15:19:38Z</time><name>PT15281</name></trkpt>
<trkpt lat="54.576858" lon="-3.202283"><ele>417</ele><time>2019-10-02T15:19:40Z</time><name>PT15282</name></trkpt>
<trkpt lat="54.576859" lon="-3.202270"><ele>416</ele><time>2019-10-02T15:19:40Z</time><name>PT15283</name></trkpt>
<trkpt lat="54.576857" lon="-3.202256"><ele>416</ele><time>2019-10-02T15:19:42Z</time><name>PT15284</name></trkpt>
<trkpt lat="54.576859" lon="-3.202240"><ele>416</ele><time>2019-10-02T15:19:42Z</time><name>PT15285</name></trkpt>
<trkpt lat="54.576860" lon="-3.202222"><ele>416</ele><time>2019-10-02T15:19:44Z</time><name>PT15286</name></trkpt>
<trkpt lat="54.576863" lon="-3.202207"><ele>416</ele><time>2019-10-02T15:19:44Z</time><name>PT15287</name></trkpt>
<trkpt lat="54.576866" lon="-3.202190"><ele>416</ele><time>2019-10-02T15:19:46Z</time><name>PT15288</name></trkpt>
<trkpt lat="54.576870" lon="-3.202175"><ele>416</ele><time>2019-10-02T15:19:46Z</time><name>PT15289</name></trkpt>
<trkpt lat="54.576872" lon="-3.202159"><ele>415</ele><time>2019-10-02T15:19:48Z</time><name>PT15290</name></trkpt>
<trkpt lat="54.576876" lon="-3.202147"><ele>415</ele><time>2019-10-02T15:19:48Z</time><name>PT15291</name></trkpt>
<trkpt lat="54.576879" lon="-3.202134"><ele>414</ele><time>2019-10-02T15:19:50Z</time><name>PT15292</name></trkpt>
<trkpt lat="54.576883" lon="-3.202122"><ele>414</ele><time>2019-10-02T15:19:50Z</time><name>PT15293</name></trkpt>
<trkpt lat="54.576891" lon="-3.202113"><ele>414</ele><time>2019-10-02T15:19:52Z</time><name>PT15294</name></trkpt>
<trkpt lat="54.576898" lon="-3.202101"><ele>413</ele><time>2019-10-02T15:19:53Z</time><name>PT15295</name></trkpt>
<trkpt lat="54.576903" lon="-3.202090"><ele>413</ele><time>2019-10-02T15:19:54Z</time><name>PT15296</name></trkpt>
<trkpt lat="54.576907" lon="-3.202080"><ele>413</ele><time>2019-10-02T15:19:55Z</time><name>PT15297</name></trkpt>
<trkpt lat="54.576911" lon="-3.202069"><ele>413</ele><time>2019-10-02T15:19:56Z</time><name>PT15298</name></trkpt>
<trkpt lat="54.576913" lon="-3.202052"><ele>412</ele><time>2019-10-02T15:19:57Z</time><name>PT15299</name></trkpt>
<trkpt lat="54.576916" lon="-3.202034"><ele>412</ele><time>2019-10-02T15:19:58Z</time><name>PT15300</name></trkpt>
<trkpt lat="54.576918" lon="-3.202016"><ele>411</ele><time>2019-10-02T15:19:59Z</time><name>PT15301</name></trkpt>
<trkpt lat="54.576922" lon="-3.201999"><ele>411</ele><time>2019-10-02T15:20:00Z</time><name>PT15302</name></trkpt>
<trkpt lat="54.576926" lon="-3.201983"><ele>411</ele><time>2019-10-02T15:20:00Z</time><name>PT15303</name></trkpt>
<trkpt lat="54.576931" lon="-3.201964"><ele>410</ele><time>2019-10-02T15:20:02Z</time><name>PT15304</name></trkpt>
<trkpt lat="54.576936" lon="-3.201949"><ele>410</ele><time>2019-10-02T15:20:02Z</time><name>PT15305</name></trkpt>
<trkpt lat="54.576941" lon="-3.201934"><ele>410</ele><time>2019-10-02T15:20:04Z</time><name>PT15306</name></trkpt>
<trkpt lat="54.576947" lon="-3.201919"><ele>410</ele><time>2019-10-02T15:20:04Z</time><name>PT15307</name></trkpt>
<trkpt lat="54.576954" lon="-3.201906"><ele>409</ele><time>2019-10-02T15:20:06Z</time><name>PT15308</name></trkpt>
<trkpt lat="54.576960" lon="-3.201895"><ele>409</ele><time>2019-10-02T15:20:06Z</time><name>PT15309</name></trkpt>
<trkpt lat="54.576968" lon="-3.201880"><ele>409</ele><time>2019-10-02T15:20:08Z</time><name>PT15310</name></trkpt>
<trkpt lat="54.576973" lon="-3.201866"><ele>409</ele><time>2019-10-02T15:20:08Z</time><name>PT15311</name></trkpt>
<trkpt lat="54.576976" lon="-3.201853"><ele>408</ele><time>2019-10-02T15:20:10Z</time><name>PT15312</name></trkpt>
<trkpt lat="54.576980" lon="-3.201838"><ele>408</ele><time>2019-10-02T15:20:10Z</time><name>PT15313</name></trkpt>
<trkpt lat="54.576986" lon="-3.201826"><ele>407</ele><time>2019-10-02T15:20:12Z</time><name>PT15314</name></trkpt>
<trkpt lat="54.576990" lon="-3.201814"><ele>407</ele><time>2019-10-02T15:20:12Z</time><name>PT15315</name></trkpt>
<trkpt lat="54.576995" lon="-3.201803"><ele>406</ele><time>2019-10-02T15:20:14Z</time><name>PT15316</name></trkpt>
<trkpt lat="54.577002" lon="-3.201798"><ele>406</ele><time>2019-10-02T15:20:14Z</time><name>PT15317</name></trkpt>
<trkpt lat="54.577007" lon="-3.201794"><ele>406</ele><time>2019-10-02T15:20:16Z</time><name>PT15318</name></trkpt>
<trkpt lat="54.577015" lon="-3.201790"><ele>405</ele><time>2019-10-02T15:20:16Z</time><name>PT15319</name></trkpt>
<trkpt lat="54.577025" lon="-3.201781"><ele>405</ele><time>2019-10-02T15:20:18Z</time><name>PT15320</name></trkpt>
<trkpt lat="54.577032" lon="-3.201772"><ele>405</ele><time>2019-10-02T15:20:18Z</time><name>PT15321</name></trkpt>
<trkpt lat="54.577040" lon="-3.201762"><ele>405</ele><time>2019-10-02T15:20:20Z</time><name>PT15322</name></trkpt>
<trkpt lat="54.577048" lon="-3.201753"><ele>405</ele><time>2019-10-02T15:20:20Z</time><name>PT15323</name></trkpt>
<trkpt lat="54.577054" lon="-3.201743"><ele>404</ele><time>2019-10-02T15:20:22Z</time><name>PT15324</name></trkpt>
<trkpt lat="54.577058" lon="-3.201731"><ele>404</ele><time>2019-10-02T15:20:22Z</time><name>PT15325</name></trkpt>
<trkpt lat="54.577058" lon="-3.201712"><ele>403</ele><time>2019-10-02T15:20:24Z</time><name>PT15326</name></trkpt>
<trkpt lat="54.577061" lon="-3.201693"><ele>403</ele><time>2019-10-02T15:20:24Z</time><name>PT15327</name></trkpt>
<trkpt lat="54.577064" lon="-3.201676"><ele>402</ele><time>2019-10-02T15:20:26Z</time><name>PT15328</name></trkpt>
<trkpt lat="54.577067" lon="-3.201660"><ele>401</ele><time>2019-10-02T15:20:26Z</time><name>PT15329</name></trkpt>
<trkpt lat="54.577068" lon="-3.201645"><ele>401</ele><time>2019-10-02T15:20:28Z</time><name>PT15330</name></trkpt>
<trkpt lat="54.577068" lon="-3.201633"><ele>401</ele><time>2019-10-02T15:20:28Z</time><name>PT15331</name></trkpt>
<trkpt lat="54.577071" lon="-3.201620"><ele>400</ele><time>2019-10-02T15:20:30Z</time><name>PT15332</name></trkpt>
<trkpt lat="54.577074" lon="-3.201604"><ele>399</ele><time>2019-10-02T15:20:30Z</time><name>PT15333</name></trkpt>
<trkpt lat="54.577080" lon="-3.201583"><ele>399</ele><time>2019-10-02T15:20:32Z</time><name>PT15334</name></trkpt>
<trkpt lat="54.577080" lon="-3.201559"><ele>399</ele><time>2019-10-02T15:20:32Z</time><name>PT15335</name></trkpt>
<trkpt lat="54.577084" lon="-3.201541"><ele>398</ele><time>2019-10-02T15:20:34Z</time><name>PT15336</name></trkpt>
<trkpt lat="54.577088" lon="-3.201525"><ele>398</ele><time>2019-10-02T15:20:34Z</time><name>PT15337</name></trkpt>
<trkpt lat="54.577087" lon="-3.201506"><ele>397</ele><time>2019-10-02T15:20:36Z</time><name>PT15338</name></trkpt>
<trkpt lat="54.577086" lon="-3.201485"><ele>397</ele><time>2019-10-02T15:20:36Z</time><name>PT15339</name></trkpt>
<trkpt lat="54.577090" lon="-3.201466"><ele>397</ele><time>2019-10-02T15:20:38Z</time><name>PT15340</name></trkpt>
<trkpt lat="54.577094" lon="-3.201449"><ele>397</ele><time>2019-10-02T15:20:38Z</time><name>PT15341</name></trkpt>
<trkpt lat="54.577097" lon="-3.201434"><ele>396</ele><time>2019-10-02T15:20:40Z</time><name>PT15342</name></trkpt>
<trkpt lat="54.577101" lon="-3.201418"><ele>396</ele><time>2019-10-02T15:20:40Z</time><name>PT15343</name></trkpt>
<trkpt lat="54.577105" lon="-3.201403"><ele>395</ele><time>2019-10-02T15:20:42Z</time><name>PT15344</name></trkpt>
<trkpt lat="54.577108" lon="-3.201386"><ele>395</ele><time>2019-10-02T15:20:42Z</time><name>PT15345</name></trkpt>
<trkpt lat="54.577112" lon="-3.201371"><ele>395</ele><time>2019-10-02T15:20:44Z</time><name>PT15346</name></trkpt>
<trkpt lat="54.577116" lon="-3.201358"><ele>394</ele><time>2019-10-02T15:20:44Z</time><name>PT15347</name></trkpt>
<trkpt lat="54.577121" lon="-3.201344"><ele>394</ele><time>2019-10-02T15:20:46Z</time><name>PT15348</name></trkpt>
<trkpt lat="54.577127" lon="-3.201330"><ele>394</ele><time>2019-10-02T15:20:46Z</time><name>PT15349</name></trkpt>
<trkpt lat="54.577135" lon="-3.201315"><ele>394</ele><time>2019-10-02T15:20:48Z</time><name>PT15350</name></trkpt>
<trkpt lat="54.577142" lon="-3.201300"><ele>394</ele><time>2019-10-02T15:20:48Z</time><name>PT15351</name></trkpt>
<trkpt lat="54.577147" lon="-3.201283"><ele>393</ele><time>2019-10-02T15:20:50Z</time><name>PT15352</name></trkpt>
<trkpt lat="54.577151" lon="-3.201265"><ele>393</ele><time>2019-10-02T15:20:50Z</time><name>PT15353</name></trkpt>
<trkpt lat="54.577154" lon="-3.201247"><ele>393</ele><time>2019-10-02T15:20:52Z</time><name>PT15354</name></trkpt>
<trkpt lat="54.577160" lon="-3.201230"><ele>393</ele><time>2019-10-02T15:20:52Z</time><name>PT15355</name></trkpt>
<trkpt lat="54.577168" lon="-3.201212"><ele>393</ele><time>2019-10-02T15:20:54Z</time><name>PT15356</name></trkpt>
<trkpt lat="54.577172" lon="-3.201196"><ele>393</ele><time>2019-10-02T15:20:54Z</time><name>PT15357</name></trkpt>
<trkpt lat="54.577176" lon="-3.201178"><ele>393</ele><time>2019-10-02T15:20:56Z</time><name>PT15358</name></trkpt>
<trkpt lat="54.577179" lon="-3.201159"><ele>393</ele><time>2019-10-02T15:20:56Z</time><name>PT15359</name></trkpt>
<trkpt lat="54.577183" lon="-3.201139"><ele>392</ele><time>2019-10-02T15:20:58Z</time><name>PT15360</name></trkpt>
<trkpt lat="54.577187" lon="-3.201118"><ele>392</ele><time>2019-10-02T15:20:58Z</time><name>PT15361</name></trkpt>
<trkpt lat="54.577191" lon="-3.201098"><ele>391</ele><time>2019-10-02T15:21:00Z</time><name>PT15362</name></trkpt>
<trkpt lat="54.577198" lon="-3.201083"><ele>391</ele><time>2019-10-02T15:21:00Z</time><name>PT15363</name></trkpt>
<trkpt lat="54.577205" lon="-3.201068"><ele>390</ele><time>2019-10-02T15:21:02Z</time><name>PT15364</name></trkpt>
<trkpt lat="54.577210" lon="-3.201051"><ele>390</ele><time>2019-10-02T15:21:02Z</time><name>PT15365</name></trkpt>
<trkpt lat="54.577211" lon="-3.201027"><ele>389</ele><time>2019-10-02T15:21:04Z</time><name>PT15366</name></trkpt>
<trkpt lat="54.577212" lon="-3.201003"><ele>389</ele><time>2019-10-02T15:21:04Z</time><name>PT15367</name></trkpt>
<trkpt lat="54.577217" lon="-3.200983"><ele>388</ele><time>2019-10-02T15:21:06Z</time><name>PT15368</name></trkpt>
<trkpt lat="54.577226" lon="-3.200960"><ele>388</ele><time>2019-10-02T15:21:06Z</time><name>PT15369</name></trkpt>
<trkpt lat="54.577233" lon="-3.200945"><ele>388</ele><time>2019-10-02T15:21:08Z</time><name>PT15370</name></trkpt>
<trkpt lat="54.577240" lon="-3.200936"><ele>388</ele><time>2019-10-02T15:21:08Z</time><name>PT15371</name></trkpt>
<trkpt lat="54.577247" lon="-3.200933"><ele>388</ele><time>2019-10-02T15:21:10Z</time><name>PT15372</name></trkpt>
<trkpt lat="54.577256" lon="-3.200940"><ele>388</ele><time>2019-10-02T15:21:10Z</time><name>PT15373</name></trkpt>
<trkpt lat="54.577266" lon="-3.200955"><ele>387</ele><time>2019-10-02T15:21:12Z</time><name>PT15374</name></trkpt>
<trkpt lat="54.577275" lon="-3.200974"><ele>387</ele><time>2019-10-02T15:21:12Z</time><name>PT15375</name></trkpt>
<trkpt lat="54.577278" lon="-3.200990"><ele>386</ele><time>2019-10-02T15:21:14Z</time><name>PT15376</name></trkpt>
<trkpt lat="54.577284" lon="-3.201005"><ele>386</ele><time>2019-10-02T15:21:14Z</time><name>PT15377</name></trkpt>
<trkpt lat="54.577286" lon="-3.201018"><ele>385</ele><time>2019-10-02T15:21:16Z</time><name>PT15378</name></trkpt>
<trkpt lat="54.577289" lon="-3.201030"><ele>385</ele><time>2019-10-02T15:21:16Z</time><name>PT15379</name></trkpt>
<trkpt lat="54.577291" lon="-3.201040"><ele>385</ele><time>2019-10-02T15:21:18Z</time><name>PT15380</name></trkpt>
<trkpt lat="54.577295" lon="-3.201049"><ele>385</ele><time>2019-10-02T15:21:18Z</time><name>PT15381</name></trkpt>
<trkpt lat="54.577301" lon="-3.201060"><ele>384</ele><time>2019-10-02T15:21:20Z</time><name>PT15382</name></trkpt>
<trkpt lat="54.577308" lon="-3.201070"><ele>384</ele><time>2019-10-02T15:21:20Z</time><name>PT15383</name></trkpt>
<trkpt lat="54.577314" lon="-3.201080"><ele>383</ele><time>2019-10-02T15:21:22Z</time><name>PT15384</name></trkpt>
<trkpt lat="54.577319" lon="-3.201092"><ele>383</ele><time>2019-10-02T15:21:22Z</time><name>PT15385</name></trkpt>
<trkpt lat="54.577323" lon="-3.201104"><ele>383</ele><time>2019-10-02T15:21:24Z</time><name>PT15386</name></trkpt>
<trkpt lat="54.577327" lon="-3.201114"><ele>383</ele><time>2019-10-02T15:21:24Z</time><name>PT15387</name></trkpt>
<trkpt lat="54.577331" lon="-3.201127"><ele>383</ele><time>2019-10-02T15:21:26Z</time><name>PT15388</name></trkpt>
<trkpt lat="54.577332" lon="-3.201136"><ele>382</ele><time>2019-10-02T15:21:26Z</time><name>PT15389</name></trkpt>
<trkpt lat="54.577336" lon="-3.201142"><ele>382</ele><time>2019-10-02T15:21:28Z</time><name>PT15390</name></trkpt>
<trkpt lat="54.577342" lon="-3.201152"><ele>382</ele><time>2019-10-02T15:21:28Z</time><name>PT15391</name></trkpt>
<trkpt lat="54.577349" lon="-3.201165"><ele>381</ele><time>2019-10-02T15:21:30Z</time><name>PT15392</name></trkpt>
<trkpt lat="54.577356" lon="-3.201175"><ele>381</ele><time>2019-10-02T15:21:30Z</time><name>PT15393</name></trkpt>
<trkpt lat="54.577361" lon="-3.201182"><ele>381</ele><time>2019-10-02T15:21:32Z</time><name>PT15394</name></trkpt>
<trkpt lat="54.577366" lon="-3.201186"><ele>381</ele><time>2019-10-02T15:21:32Z</time><name>PT15395</name></trkpt>
<trkpt lat="54.577372" lon="-3.201183"><ele>381</ele><time>2019-10-02T15:21:34Z</time><name>PT15396</name></trkpt>
<trkpt lat="54.577380" lon="-3.201178"><ele>381</ele><time>2019-10-02T15:21:34Z</time><name>PT15397</name></trkpt>
<trkpt lat="54.577387" lon="-3.201174"><ele>381</ele><time>2019-10-02T15:21:36Z</time><name>PT15398</name></trkpt>
<trkpt lat="54.577391" lon="-3.201167"><ele>380</ele><time>2019-10-02T15:21:36Z</time><name>PT15399</name></trkpt>
<trkpt lat="54.577399" lon="-3.201153"><ele>380</ele><time>2019-10-02T15:21:38Z</time><name>PT15400</name></trkpt>
<trkpt lat="54.577405" lon="-3.201138"><ele>380</ele><time>2019-10-02T15:21:38Z</time><name>PT15401</name></trkpt>
<trkpt lat="54.577412" lon="-3.201126"><ele>380</ele><time>2019-10-02T15:21:40Z</time><name>PT15402</name></trkpt>
<trkpt lat="54.577417" lon="-3.201116"><ele>380</ele><time>2019-10-02T15:21:40Z</time><name>PT15403</name></trkpt>
<trkpt lat="54.577423" lon="-3.201106"><ele>380</ele><time>2019-10-02T15:21:42Z</time><name>PT15404</name></trkpt>
<trkpt lat="54.577428" lon="-3.201095"><ele>380</ele><time>2019-10-02T15:21:42Z</time><name>PT15405</name></trkpt>
<trkpt lat="54.577433" lon="-3.201084"><ele>380</ele><time>2019-10-02T15:21:44Z</time><name>PT15406</name></trkpt>
<trkpt lat="54.577439" lon="-3.201075"><ele>380</ele><time>2019-10-02T15:21:44Z</time><name>PT15407</name></trkpt>
<trkpt lat="54.577443" lon="-3.201067"><ele>379</ele><time>2019-10-02T15:21:46Z</time><name>PT15408</name></trkpt>
<trkpt lat="54.577454" lon="-3.201064"><ele>379</ele><time>2019-10-02T15:21:46Z</time><name>PT15409</name></trkpt>
<trkpt lat="54.577459" lon="-3.201064"><ele>378</ele><time>2019-10-02T15:21:48Z</time><name>PT15410</name></trkpt>
<trkpt lat="54.577465" lon="-3.201064"><ele>378</ele><time>2019-10-02T15:21:48Z</time><name>PT15411</name></trkpt>
<trkpt lat="54.577469" lon="-3.201065"><ele>378</ele><time>2019-10-02T15:21:50Z</time><name>PT15412</name></trkpt>
<trkpt lat="54.577474" lon="-3.201063"><ele>377</ele><time>2019-10-02T15:21:50Z</time><name>PT15413</name></trkpt>
<trkpt lat="54.577476" lon="-3.201064"><ele>377</ele><time>2019-10-02T15:21:52Z</time><name>PT15414</name></trkpt>
<trkpt lat="54.577475" lon="-3.201072"><ele>376</ele><time>2019-10-02T15:21:52Z</time><name>PT15415</name></trkpt>
<trkpt lat="54.577478" lon="-3.201064"><ele>376</ele><time>2019-10-02T15:21:54Z</time><name>PT15416</name></trkpt>
<trkpt lat="54.577479" lon="-3.201062"><ele>376</ele><time>2019-10-02T15:21:54Z</time><name>PT15417</name></trkpt>
<trkpt lat="54.577484" lon="-3.201058"><ele>375</ele><time>2019-10-02T15:21:56Z</time><name>PT15418</name></trkpt>
<trkpt lat="54.577495" lon="-3.201059"><ele>375</ele><time>2019-10-02T15:21:57Z</time><name>PT15419</name></trkpt>
<trkpt lat="54.577503" lon="-3.201065"><ele>374</ele><time>2019-10-02T15:21:58Z</time><name>PT15420</name></trkpt>
<trkpt lat="54.577511" lon="-3.201068"><ele>374</ele><time>2019-10-02T15:21:58Z</time><name>PT15421</name></trkpt>
<trkpt lat="54.577515" lon="-3.201070"><ele>374</ele><time>2019-10-02T15:22:00Z</time><name>PT15422</name></trkpt>
<trkpt lat="54.577521" lon="-3.201074"><ele>373</ele><time>2019-10-02T15:22:00Z</time><name>PT15423</name></trkpt>
<trkpt lat="54.577527" lon="-3.201080"><ele>373</ele><time>2019-10-02T15:22:02Z</time><name>PT15424</name></trkpt>
<trkpt lat="54.577534" lon="-3.201088"><ele>373</ele><time>2019-10-02T15:22:02Z</time><name>PT15425</name></trkpt>
<trkpt lat="54.577540" lon="-3.201092"><ele>372</ele><time>2019-10-02T15:22:04Z</time><name>PT15426</name></trkpt>
<trkpt lat="54.577549" lon="-3.201094"><ele>372</ele><time>2019-10-02T15:22:04Z</time><name>PT15427</name></trkpt>
<trkpt lat="54.577556" lon="-3.201084"><ele>373</ele><time>2019-10-02T15:22:06Z</time><name>PT15428</name></trkpt>
<trkpt lat="54.577562" lon="-3.201076"><ele>373</ele><time>2019-10-02T15:22:06Z</time><name>PT15429</name></trkpt>
<trkpt lat="54.577567" lon="-3.201067"><ele>373</ele><time>2019-10-02T15:22:08Z</time><name>PT15430</name></trkpt>
<trkpt lat="54.577571" lon="-3.201058"><ele>373</ele><time>2019-10-02T15:22:08Z</time><name>PT15431</name></trkpt>
<trkpt lat="54.577575" lon="-3.201048"><ele>372</ele><time>2019-10-02T15:22:10Z</time><name>PT15432</name></trkpt>
<trkpt lat="54.577580" lon="-3.201038"><ele>372</ele><time>2019-10-02T15:22:10Z</time><name>PT15433</name></trkpt>
<trkpt lat="54.577585" lon="-3.201027"><ele>372</ele><time>2019-10-02T15:22:12Z</time><name>PT15434</name></trkpt>
<trkpt lat="54.577590" lon="-3.201012"><ele>372</ele><time>2019-10-02T15:22:12Z</time><name>PT15435</name></trkpt>
<trkpt lat="54.577596" lon="-3.201000"><ele>372</ele><time>2019-10-02T15:22:14Z</time><name>PT15436</name></trkpt>
<trkpt lat="54.577600" lon="-3.200985"><ele>372</ele><time>2019-10-02T15:22:14Z</time><name>PT15437</name></trkpt>
<trkpt lat="54.577602" lon="-3.200966"><ele>372</ele><time>2019-10-02T15:22:16Z</time><name>PT15438</name></trkpt>
<trkpt lat="54.577607" lon="-3.200952"><ele>371</ele><time>2019-10-02T15:22:16Z</time><name>PT15439</name></trkpt>
<trkpt lat="54.577614" lon="-3.200943"><ele>371</ele><time>2019-10-02T15:22:18Z</time><name>PT15440</name></trkpt>
<trkpt lat="54.577622" lon="-3.200939"><ele>370</ele><time>2019-10-02T15:22:18Z</time><name>PT15441</name></trkpt>
<trkpt lat="54.577627" lon="-3.200937"><ele>369</ele><time>2019-10-02T15:22:20Z</time><name>PT15442</name></trkpt>
<trkpt lat="54.577629" lon="-3.200939"><ele>369</ele><time>2019-10-02T15:22:20Z</time><name>PT15443</name></trkpt>
<trkpt lat="54.577637" lon="-3.200948"><ele>368</ele><time>2019-10-02T15:22:22Z</time><name>PT15444</name></trkpt>
<trkpt lat="54.577644" lon="-3.200956"><ele>368</ele><time>2019-10-02T15:22:22Z</time><name>PT15445</name></trkpt>
<trkpt lat="54.577649" lon="-3.200963"><ele>367</ele><time>2019-10-02T15:22:24Z</time><name>PT15446</name></trkpt>
<trkpt lat="54.577656" lon="-3.200966"><ele>367</ele><time>2019-10-02T15:22:25Z</time><name>PT15447</name></trkpt>
<trkpt lat="54.577661" lon="-3.200967"><ele>367</ele><time>2019-10-02T15:22:26Z</time><name>PT15448</name></trkpt>
<trkpt lat="54.577668" lon="-3.200960"><ele>366</ele><time>2019-10-02T15:22:27Z</time><name>PT15449</name></trkpt>
<trkpt lat="54.577677" lon="-3.200953"><ele>366</ele><time>2019-10-02T15:22:28Z</time><name>PT15450</name></trkpt>
<trkpt lat="54.577685" lon="-3.200953"><ele>365</ele><time>2019-10-02T15:22:29Z</time><name>PT15451</name></trkpt>
<trkpt lat="54.577692" lon="-3.200959"><ele>365</ele><time>2019-10-02T15:22:30Z</time><name>PT15452</name></trkpt>
<trkpt lat="54.577699" lon="-3.200963"><ele>365</ele><time>2019-10-02T15:22:30Z</time><name>PT15453</name></trkpt>
<trkpt lat="54.577706" lon="-3.200965"><ele>365</ele><time>2019-10-02T15:22:32Z</time><name>PT15454</name></trkpt>
<trkpt lat="54.577710" lon="-3.200966"><ele>364</ele><time>2019-10-02T15:22:32Z</time><name>PT15455</name></trkpt>
<trkpt lat="54.577719" lon="-3.200967"><ele>364</ele><time>2019-10-02T15:22:34Z</time><name>PT15456</name></trkpt>
<trkpt lat="54.577726" lon="-3.200969"><ele>364</ele><time>2019-10-02T15:22:34Z</time><name>PT15457</name></trkpt>
<trkpt lat="54.577734" lon="-3.200970"><ele>364</ele><time>2019-10-02T15:22:36Z</time><name>PT15458</name></trkpt>
<trkpt lat="54.577741" lon="-3.200970"><ele>363</ele><time>2019-10-02T15:22:36Z</time><name>PT15459</name></trkpt>
<trkpt lat="54.577750" lon="-3.200967"><ele>363</ele><time>2019-10-02T15:22:38Z</time><name>PT15460</name></trkpt>
<trkpt lat="54.577759" lon="-3.200964"><ele>362</ele><time>2019-10-02T15:22:38Z</time><name>PT15461</name></trkpt>
<trkpt lat="54.577768" lon="-3.200962"><ele>362</ele><time>2019-10-02T15:22:40Z</time><name>PT15462</name></trkpt>
<trkpt lat="54.577776" lon="-3.200965"><ele>362</ele><time>2019-10-02T15:22:40Z</time><name>PT15463</name></trkpt>
<trkpt lat="54.577782" lon="-3.200970"><ele>361</ele><time>2019-10-02T15:22:42Z</time><name>PT15464</name></trkpt>
<trkpt lat="54.577791" lon="-3.200978"><ele>361</ele><time>2019-10-02T15:22:42Z</time><name>PT15465</name></trkpt>
<trkpt lat="54.577799" lon="-3.200982"><ele>361</ele><time>2019-10-02T15:22:44Z</time><name>PT15466</name></trkpt>
<trkpt lat="54.577807" lon="-3.200985"><ele>361</ele><time>2019-10-02T15:22:44Z</time><name>PT15467</name></trkpt>
<trkpt lat="54.577815" lon="-3.200989"><ele>360</ele><time>2019-10-02T15:22:46Z</time><name>PT15468</name></trkpt>
<trkpt lat="54.577821" lon="-3.200996"><ele>359</ele><time>2019-10-02T15:22:46Z</time><name>PT15469</name></trkpt>
<trkpt lat="54.577829" lon="-3.201001"><ele>359</ele><time>2019-10-02T15:22:48Z</time><name>PT15470</name></trkpt>
<trkpt lat="54.577838" lon="-3.201002"><ele>359</ele><time>2019-10-02T15:22:48Z</time><name>PT15471</name></trkpt>
<trkpt lat="54.577847" lon="-3.201005"><ele>359</ele><time>2019-10-02T15:22:50Z</time><name>PT15472</name></trkpt>
<trkpt lat="54.577854" lon="-3.201009"><ele>358</ele><time>2019-10-02T15:22:50Z</time><name>PT15473</name></trkpt>
<trkpt lat="54.577862" lon="-3.201014"><ele>358</ele><time>2019-10-02T15:22:52Z</time><name>PT15474</name></trkpt>
<trkpt lat="54.577871" lon="-3.201023"><ele>358</ele><time>2019-10-02T15:22:52Z</time><name>PT15475</name></trkpt>
<trkpt lat="54.577878" lon="-3.201027"><ele>358</ele><time>2019-10-02T15:22:54Z</time><name>PT15476</name></trkpt>
<trkpt lat="54.577887" lon="-3.201031"><ele>358</ele><time>2019-10-02T15:22:54Z</time><name>PT15477</name></trkpt>
<trkpt lat="54.577893" lon="-3.201032"><ele>358</ele><time>2019-10-02T15:22:56Z</time><name>PT15478</name></trkpt>
<trkpt lat="54.577897" lon="-3.201031"><ele>358</ele><time>2019-10-02T15:22:56Z</time><name>PT15479</name></trkpt>
<trkpt lat="54.577905" lon="-3.201027"><ele>358</ele><time>2019-10-02T15:22:58Z</time><name>PT15480</name></trkpt>
<trkpt lat="54.577912" lon="-3.201024"><ele>357</ele><time>2019-10-02T15:22:58Z</time><name>PT15481</name></trkpt>
<trkpt lat="54.577914" lon="-3.201020"><ele>357</ele><time>2019-10-02T15:23:00Z</time><name>PT15482</name></trkpt>
<trkpt lat="54.577920" lon="-3.201008"><ele>356</ele><time>2019-10-02T15:23:00Z</time><name>PT15483</name></trkpt>
<trkpt lat="54.577925" lon="-3.200998"><ele>356</ele><time>2019-10-02T15:23:02Z</time><name>PT15484</name></trkpt>
<trkpt lat="54.577932" lon="-3.200993"><ele>356</ele><time>2019-10-02T15:23:02Z</time><name>PT15485</name></trkpt>
<trkpt lat="54.577938" lon="-3.200986"><ele>356</ele><time>2019-10-02T15:23:04Z</time><name>PT15486</name></trkpt>
<trkpt lat="54.577943" lon="-3.200977"><ele>355</ele><time>2019-10-02T15:23:04Z</time><name>PT15487</name></trkpt>
<trkpt lat="54.577949" lon="-3.200969"><ele>355</ele><time>2019-10-02T15:23:06Z</time><name>PT15488</name></trkpt>
<trkpt lat="54.577956" lon="-3.200961"><ele>355</ele><time>2019-10-02T15:23:06Z</time><name>PT15489</name></trkpt>
<trkpt lat="54.577963" lon="-3.200955"><ele>355</ele><time>2019-10-02T15:23:08Z</time><name>PT15490</name></trkpt>
<trkpt lat="54.577971" lon="-3.200946"><ele>354</ele><time>2019-10-02T15:23:08Z</time><name>PT15491</name></trkpt>
<trkpt lat="54.577976" lon="-3.200936"><ele>354</ele><time>2019-10-02T15:23:10Z</time><name>PT15492</name></trkpt>
<trkpt lat="54.577983" lon="-3.200924"><ele>353</ele><time>2019-10-02T15:23:10Z</time><name>PT15493</name></trkpt>
<trkpt lat="54.577992" lon="-3.200909"><ele>353</ele><time>2019-10-02T15:23:12Z</time><name>PT15494</name></trkpt>
<trkpt lat="54.577996" lon="-3.200891"><ele>353</ele><time>2019-10-02T15:23:12Z</time><name>PT15495</name></trkpt>
<trkpt lat="54.578003" lon="-3.200877"><ele>353</ele><time>2019-10-02T15:23:14Z</time><name>PT15496</name></trkpt>
<trkpt lat="54.578010" lon="-3.200868"><ele>353</ele><time>2019-10-02T15:23:14Z</time><name>PT15497</name></trkpt>
<trkpt lat="54.578013" lon="-3.200860"><ele>353</ele><time>2019-10-02T15:23:16Z</time><name>PT15498</name></trkpt>
<trkpt lat="54.578018" lon="-3.200846"><ele>352</ele><time>2019-10-02T15:23:16Z</time><name>PT15499</name></trkpt>
<trkpt lat="54.578022" lon="-3.200823"><ele>352</ele><time>2019-10-02T15:23:18Z</time><name>PT15500</name></trkpt>
<trkpt lat="54.578028" lon="-3.200803"><ele>352</ele><time>2019-10-02T15:23:18Z</time><name>PT15501</name></trkpt>
<trkpt lat="54.578032" lon="-3.200787"><ele>353</ele><time>2019-10-02T15:23:20Z</time><name>PT15502</name></trkpt>
<trkpt lat="54.578032" lon="-3.200768"><ele>353</ele><time>2019-10-02T15:23:20Z</time><name>PT15503</name></trkpt>
<trkpt lat="54.578034" lon="-3.200750"><ele>353</ele><time>2019-10-02T15:23:22Z</time><name>PT15504</name></trkpt>
<trkpt lat="54.578035" lon="-3.200732"><ele>352</ele><time>2019-10-02T15:23:22Z</time><name>PT15505</name></trkpt>
<trkpt lat="54.578040" lon="-3.200714"><ele>352</ele><time>2019-10-02T15:23:24Z</time><name>PT15506</name></trkpt>
<trkpt lat="54.578044" lon="-3.200695"><ele>352</ele><time>2019-10-02T15:23:24Z</time><name>PT15507</name></trkpt>
<trkpt lat="54.578046" lon="-3.200676"><ele>352</ele><time>2019-10-02T15:23:26Z</time><name>PT15508</name></trkpt>
<trkpt lat="54.578047" lon="-3.200658"><ele>351</ele><time>2019-10-02T15:23:26Z</time><name>PT15509</name></trkpt>
<trkpt lat="54.578048" lon="-3.200642"><ele>351</ele><time>2019-10-02T15:23:28Z</time><name>PT15510</name></trkpt>
<trkpt lat="54.578047" lon="-3.200626"><ele>351</ele><time>2019-10-02T15:23:28Z</time><name>PT15511</name></trkpt>
<trkpt lat="54.578048" lon="-3.200611"><ele>351</ele><time>2019-10-02T15:23:30Z</time><name>PT15512</name></trkpt>
<trkpt lat="54.578049" lon="-3.200598"><ele>351</ele><time>2019-10-02T15:23:30Z</time><name>PT15513</name></trkpt>
<trkpt lat="54.578053" lon="-3.200580"><ele>350</ele><time>2019-10-02T15:23:32Z</time><name>PT15514</name></trkpt>
<trkpt lat="54.578056" lon="-3.200564"><ele>350</ele><time>2019-10-02T15:23:32Z</time><name>PT15515</name></trkpt>
<trkpt lat="54.578063" lon="-3.200551"><ele>350</ele><time>2019-10-02T15:23:34Z</time><name>PT15516</name></trkpt>
<trkpt lat="54.578066" lon="-3.200532"><ele>349</ele><time>2019-10-02T15:23:34Z</time><name>PT15517</name></trkpt>
<trkpt lat="54.578071" lon="-3.200516"><ele>349</ele><time>2019-10-02T15:23:36Z</time><name>PT15518</name></trkpt>
<trkpt lat="54.578073" lon="-3.200502"><ele>349</ele><time>2019-10-02T15:23:36Z</time><name>PT15519</name></trkpt>
<trkpt lat="54.578076" lon="-3.200488"><ele>349</ele><time>2019-10-02T15:23:38Z</time><name>PT15520</name></trkpt>
<trkpt lat="54.578081" lon="-3.200475"><ele>349</ele><time>2019-10-02T15:23:38Z</time><name>PT15521</name></trkpt>
<trkpt lat="54.578084" lon="-3.200458"><ele>349</ele><time>2019-10-02T15:23:40Z</time><name>PT15522</name></trkpt>
<trkpt lat="54.578087" lon="-3.200445"><ele>348</ele><time>2019-10-02T15:23:40Z</time><name>PT15523</name></trkpt>
<trkpt lat="54.578088" lon="-3.200429"><ele>348</ele><time>2019-10-02T15:23:42Z</time><name>PT15524</name></trkpt>
<trkpt lat="54.578091" lon="-3.200414"><ele>347</ele><time>2019-10-02T15:23:42Z</time><name>PT15525</name></trkpt>
<trkpt lat="54.578096" lon="-3.200401"><ele>347</ele><time>2019-10-02T15:23:44Z</time><name>PT15526</name></trkpt>
<trkpt lat="54.578102" lon="-3.200389"><ele>347</ele><time>2019-10-02T15:23:44Z</time><name>PT15527</name></trkpt>
<trkpt lat="54.578105" lon="-3.200373"><ele>347</ele><time>2019-10-02T15:23:46Z</time><name>PT15528</name></trkpt>
<trkpt lat="54.578107" lon="-3.200351"><ele>347</ele><time>2019-10-02T15:23:46Z</time><name>PT15529</name></trkpt>
<trkpt lat="54.578109" lon="-3.200330"><ele>347</ele><time>2019-10-02T15:23:48Z</time><name>PT15530</name></trkpt>
<trkpt lat="54.578113" lon="-3.200312"><ele>346</ele><time>2019-10-02T15:23:49Z</time><name>PT15531</name></trkpt>
<trkpt lat="54.578116" lon="-3.200294"><ele>346</ele><time>2019-10-02T15:23:50Z</time><name>PT15532</name></trkpt>
<trkpt lat="54.578118" lon="-3.200275"><ele>345</ele><time>2019-10-02T15:23:51Z</time><name>PT15533</name></trkpt>
<trkpt lat="54.578122" lon="-3.200255"><ele>345</ele><time>2019-10-02T15:23:52Z</time><name>PT15534</name></trkpt>
<trkpt lat="54.578127" lon="-3.200236"><ele>345</ele><time>2019-10-02T15:23:53Z</time><name>PT15535</name></trkpt>
<trkpt lat="54.578131" lon="-3.200215"><ele>345</ele><time>2019-10-02T15:23:54Z</time><name>PT15536</name></trkpt>
<trkpt lat="54.578138" lon="-3.200196"><ele>345</ele><time>2019-10-02T15:23:55Z</time><name>PT15537</name></trkpt>
<trkpt lat="54.578144" lon="-3.200177"><ele>345</ele><time>2019-10-02T15:23:56Z</time><name>PT15538</name></trkpt>
<trkpt lat="54.578146" lon="-3.200156"><ele>345</ele><time>2019-10-02T15:23:56Z</time><name>PT15539</name></trkpt>
<trkpt lat="54.578148" lon="-3.200137"><ele>345</ele><time>2019-10-02T15:23:58Z</time><name>PT15540</name></trkpt>
<trkpt lat="54.578150" lon="-3.200117"><ele>344</ele><time>2019-10-02T15:23:58Z</time><name>PT15541</name></trkpt>
<trkpt lat="54.578152" lon="-3.200098"><ele>344</ele><time>2019-10-02T15:24:00Z</time><name>PT15542</name></trkpt>
<trkpt lat="54.578155" lon="-3.200078"><ele>344</ele><time>2019-10-02T15:24:00Z</time><name>PT15543</name></trkpt>
<trkpt lat="54.578160" lon="-3.200055"><ele>344</ele><time>2019-10-02T15:24:02Z</time><name>PT15544</name></trkpt>
<trkpt lat="54.578166" lon="-3.200034"><ele>344</ele><time>2019-10-02T15:24:02Z</time><name>PT15545</name></trkpt>
<trkpt lat="54.578168" lon="-3.200012"><ele>344</ele><time>2019-10-02T15:24:04Z</time><name>PT15546</name></trkpt>
<trkpt lat="54.578170" lon="-3.199991"><ele>344</ele><time>2019-10-02T15:24:04Z</time><name>PT15547</name></trkpt>
<trkpt lat="54.578170" lon="-3.199974"><ele>343</ele><time>2019-10-02T15:24:06Z</time><name>PT15548</name></trkpt>
<trkpt lat="54.578174" lon="-3.199951"><ele>343</ele><time>2019-10-02T15:24:06Z</time><name>PT15549</name></trkpt>
<trkpt lat="54.578178" lon="-3.199932"><ele>343</ele><time>2019-10-02T15:24:08Z</time><name>PT15550</name></trkpt>
<trkpt lat="54.578181" lon="-3.199913"><ele>343</ele><time>2019-10-02T15:24:08Z</time><name>PT15551</name></trkpt>
<trkpt lat="54.578187" lon="-3.199895"><ele>343</ele><time>2019-10-02T15:24:10Z</time><name>PT15552</name></trkpt>
<trkpt lat="54.578193" lon="-3.199879"><ele>343</ele><time>2019-10-02T15:24:10Z</time><name>PT15553</name></trkpt>
<trkpt lat="54.578196" lon="-3.199860"><ele>343</ele><time>2019-10-02T15:24:12Z</time><name>PT15554</name></trkpt>
<trkpt lat="54.578197" lon="-3.199842"><ele>343</ele><time>2019-10-02T15:24:12Z</time><name>PT15555</name></trkpt>
<trkpt lat="54.578198" lon="-3.199819"><ele>343</ele><time>2019-10-02T15:24:14Z</time><name>PT15556</name></trkpt>
<trkpt lat="54.578201" lon="-3.199799"><ele>342</ele><time>2019-10-02T15:24:14Z</time><name>PT15557</name></trkpt>
<trkpt lat="54.578200" lon="-3.199777"><ele>341</ele><time>2019-10-02T15:24:16Z</time><name>PT15558</name></trkpt>
<trkpt lat="54.578201" lon="-3.199759"><ele>341</ele><time>2019-10-02T15:24:16Z</time><name>PT15559</name></trkpt>
<trkpt lat="54.578202" lon="-3.199737"><ele>341</ele><time>2019-10-02T15:24:18Z</time><name>PT15560</name></trkpt>
<trkpt lat="54.578205" lon="-3.199718"><ele>341</ele><time>2019-10-02T15:24:18Z</time><name>PT15561</name></trkpt>
<trkpt lat="54.578206" lon="-3.199698"><ele>341</ele><time>2019-10-02T15:24:20Z</time><name>PT15562</name></trkpt>
<trkpt lat="54.578208" lon="-3.199678"><ele>340</ele><time>2019-10-02T15:24:20Z</time><name>PT15563</name></trkpt>
<trkpt lat="54.578211" lon="-3.199659"><ele>340</ele><time>2019-10-02T15:24:22Z</time><name>PT15564</name></trkpt>
<trkpt lat="54.578213" lon="-3.199642"><ele>340</ele><time>2019-10-02T15:24:22Z</time><name>PT15565</name></trkpt>
<trkpt lat="54.578213" lon="-3.199623"><ele>340</ele><time>2019-10-02T15:24:24Z</time><name>PT15566</name></trkpt>
<trkpt lat="54.578212" lon="-3.199603"><ele>340</ele><time>2019-10-02T15:24:24Z</time><name>PT15567</name></trkpt>
<trkpt lat="54.578213" lon="-3.199581"><ele>340</ele><time>2019-10-02T15:24:26Z</time><name>PT15568</name></trkpt>
<trkpt lat="54.578217" lon="-3.199560"><ele>340</ele><time>2019-10-02T15:24:26Z</time><name>PT15569</name></trkpt>
<trkpt lat="54.578219" lon="-3.199538"><ele>339</ele><time>2019-10-02T15:24:28Z</time><name>PT15570</name></trkpt>
<trkpt lat="54.578222" lon="-3.199521"><ele>339</ele><time>2019-10-02T15:24:28Z</time><name>PT15571</name></trkpt>
<trkpt lat="54.578221" lon="-3.199496"><ele>339</ele><time>2019-10-02T15:24:30Z</time><name>PT15572</name></trkpt>
<trkpt lat="54.578221" lon="-3.199474"><ele>339</ele><time>2019-10-02T15:24:30Z</time><name>PT15573</name></trkpt>
<trkpt lat="54.578221" lon="-3.199451"><ele>339</ele><time>2019-10-02T15:24:32Z</time><name>PT15574</name></trkpt>
<trkpt lat="54.578223" lon="-3.199431"><ele>339</ele><time>2019-10-02T15:24:32Z</time><name>PT15575</name></trkpt>
<trkpt lat="54.578223" lon="-3.199408"><ele>339</ele><time>2019-10-02T15:24:34Z</time><name>PT15576</name></trkpt>
<trkpt lat="54.578224" lon="-3.199384"><ele>339</ele><time>2019-10-02T15:24:34Z</time><name>PT15577</name></trkpt>
<trkpt lat="54.578226" lon="-3.199363"><ele>339</ele><time>2019-10-02T15:24:36Z</time><name>PT15578</name></trkpt>
<trkpt lat="54.578231" lon="-3.199345"><ele>338</ele><time>2019-10-02T15:24:36Z</time><name>PT15579</name></trkpt>
<trkpt lat="54.578233" lon="-3.199323"><ele>338</ele><time>2019-10-02T15:24:38Z</time><name>PT15580</name></trkpt>
<trkpt lat="54.578237" lon="-3.199304"><ele>338</ele><time>2019-10-02T15:24:38Z</time><name>PT15581</name></trkpt>
<trkpt lat="54.578240" lon="-3.199285"><ele>338</ele><time>2019-10-02T15:24:40Z</time><name>PT15582</name></trkpt>
<trkpt lat="54.578238" lon="-3.199263"><ele>337</ele><time>2019-10-02T15:24:40Z</time><name>PT15583</name></trkpt>
<trkpt lat="54.578239" lon="-3.199242"><ele>337</ele><time>2019-10-02T15:24:42Z</time><name>PT15584</name></trkpt>
<trkpt lat="54.578240" lon="-3.199220"><ele>337</ele><time>2019-10-02T15:24:42Z</time><name>PT15585</name></trkpt>
<trkpt lat="54.578241" lon="-3.199198"><ele>337</ele><time>2019-10-02T15:24:44Z</time><name>PT15586</name></trkpt>
<trkpt lat="54.578243" lon="-3.199178"><ele>336</ele><time>2019-10-02T15:24:44Z</time><name>PT15587</name></trkpt>
<trkpt lat="54.578247" lon="-3.199159"><ele>336</ele><time>2019-10-02T15:24:46Z</time><name>PT15588</name></trkpt>
<trkpt lat="54.578248" lon="-3.199142"><ele>336</ele><time>2019-10-02T15:24:46Z</time><name>PT15589</name></trkpt>
<trkpt lat="54.578249" lon="-3.199125"><ele>336</ele><time>2019-10-02T15:24:48Z</time><name>PT15590</name></trkpt>
<trkpt lat="54.578248" lon="-3.199104"><ele>335</ele><time>2019-10-02T15:24:48Z</time><name>PT15591</name></trkpt>
<trkpt lat="54.578249" lon="-3.199083"><ele>335</ele><time>2019-10-02T15:24:50Z</time><name>PT15592</name></trkpt>
<trkpt lat="54.578250" lon="-3.199062"><ele>334</ele><time>2019-10-02T15:24:50Z</time><name>PT15593</name></trkpt>
<trkpt lat="54.578252" lon="-3.199043"><ele>334</ele><time>2019-10-02T15:24:52Z</time><name>PT15594</name></trkpt>
<trkpt lat="54.578256" lon="-3.199026"><ele>334</ele><time>2019-10-02T15:24:52Z</time><name>PT15595</name></trkpt>
<trkpt lat="54.578258" lon="-3.199009"><ele>334</ele><time>2019-10-02T15:24:54Z</time><name>PT15596</name></trkpt>
<trkpt lat="54.578260" lon="-3.198989"><ele>334</ele><time>2019-10-02T15:24:54Z</time><name>PT15597</name></trkpt>
<trkpt lat="54.578261" lon="-3.198968"><ele>334</ele><time>2019-10-02T15:24:56Z</time><name>PT15598</name></trkpt>
<trkpt lat="54.578264" lon="-3.198947"><ele>333</ele><time>2019-10-02T15:24:56Z</time><name>PT15599</name></trkpt>
<trkpt lat="54.578268" lon="-3.198930"><ele>333</ele><time>2019-10-02T15:24:58Z</time><name>PT15600</name></trkpt>
<trkpt lat="54.578272" lon="-3.198914"><ele>333</ele><time>2019-10-02T15:24:58Z</time><name>PT15601</name></trkpt>
<trkpt lat="54.578276" lon="-3.198897"><ele>333</ele><time>2019-10-02T15:25:00Z</time><name>PT15602</name></trkpt>
<trkpt lat="54.578278" lon="-3.198877"><ele>333</ele><time>2019-10-02T15:25:00Z</time><name>PT15603</name></trkpt>
<trkpt lat="54.578278" lon="-3.198860"><ele>332</ele><time>2019-10-02T15:25:02Z</time><name>PT15604</name></trkpt>
<trkpt lat="54.578280" lon="-3.198843"><ele>332</ele><time>2019-10-02T15:25:02Z</time><name>PT15605</name></trkpt>
<trkpt lat="54.578282" lon="-3.198824"><ele>331</ele><time>2019-10-02T15:25:04Z</time><name>PT15606</name></trkpt>
<trkpt lat="54.578283" lon="-3.198806"><ele>331</ele><time>2019-10-02T15:25:05Z</time><name>PT15607</name></trkpt>
<trkpt lat="54.578289" lon="-3.198779"><ele>331</ele><time>2019-10-02T15:25:06Z</time><name>PT15608</name></trkpt>
<trkpt lat="54.578291" lon="-3.198758"><ele>331</ele><time>2019-10-02T15:25:06Z</time><name>PT15609</name></trkpt>
<trkpt lat="54.578295" lon="-3.198741"><ele>331</ele><time>2019-10-02T15:25:08Z</time><name>PT15610</name></trkpt>
<trkpt lat="54.578298" lon="-3.198727"><ele>330</ele><time>2019-10-02T15:25:09Z</time><name>PT15611</name></trkpt>
<trkpt lat="54.578298" lon="-3.198707"><ele>330</ele><time>2019-10-02T15:25:10Z</time><name>PT15612</name></trkpt>
<trkpt lat="54.578300" lon="-3.198690"><ele>330</ele><time>2019-10-02T15:25:11Z</time><name>PT15613</name></trkpt>
<trkpt lat="54.578302" lon="-3.198671"><ele>330</ele><time>2019-10-02T15:25:12Z</time><name>PT15614</name></trkpt>
<trkpt lat="54.578304" lon="-3.198652"><ele>330</ele><time>2019-10-02T15:25:12Z</time><name>PT15615</name></trkpt>
<trkpt lat="54.578304" lon="-3.198630"><ele>329</ele><time>2019-10-02T15:25:14Z</time><name>PT15616</name></trkpt>
<trkpt lat="54.578304" lon="-3.198611"><ele>329</ele><time>2019-10-02T15:25:14Z</time><name>PT15617</name></trkpt>
<trkpt lat="54.578305" lon="-3.198591"><ele>329</ele><time>2019-10-02T15:25:16Z</time><name>PT15618</name></trkpt>
<trkpt lat="54.578307" lon="-3.198571"><ele>329</ele><time>2019-10-02T15:25:16Z</time><name>PT15619</name></trkpt>
<trkpt lat="54.578310" lon="-3.198553"><ele>329</ele><time>2019-10-02T15:25:18Z</time><name>PT15620</name></trkpt>
<trkpt lat="54.578313" lon="-3.198539"><ele>329</ele><time>2019-10-02T15:25:18Z</time><name>PT15621</name></trkpt>
<trkpt lat="54.578315" lon="-3.198521"><ele>328</ele><time>2019-10-02T15:25:20Z</time><name>PT15622</name></trkpt>
<trkpt lat="54.578315" lon="-3.198502"><ele>328</ele><time>2019-10-02T15:25:20Z</time><name>PT15623</name></trkpt>
<trkpt lat="54.578316" lon="-3.198485"><ele>328</ele><time>2019-10-02T15:25:22Z</time><name>PT15624</name></trkpt>
<trkpt lat="54.578321" lon="-3.198466"><ele>327</ele><time>2019-10-02T15:25:22Z</time><name>PT15625</name></trkpt>
<trkpt lat="54.578326" lon="-3.198449"><ele>327</ele><time>2019-10-02T15:25:24Z</time><name>PT15626</name></trkpt>
<trkpt lat="54.578329" lon="-3.198433"><ele>327</ele><time>2019-10-02T15:25:24Z</time><name>PT15627</name></trkpt>
<trkpt lat="54.578331" lon="-3.198419"><ele>327</ele><time>2019-10-02T15:25:26Z</time><name>PT15628</name></trkpt>
<trkpt lat="54.578331" lon="-3.198402"><ele>327</ele><time>2019-10-02T15:25:26Z</time><name>PT15629</name></trkpt>
<trkpt lat="54.578331" lon="-3.198385"><ele>326</ele><time>2019-10-02T15:25:28Z</time><name>PT15630</name></trkpt>
<trkpt lat="54.578332" lon="-3.198366"><ele>326</ele><time>2019-10-02T15:25:28Z</time><name>PT15631</name></trkpt>
<trkpt lat="54.578336" lon="-3.198350"><ele>326</ele><time>2019-10-02T15:25:30Z</time><name>PT15632</name></trkpt>
<trkpt lat="54.578339" lon="-3.198334"><ele>326</ele><time>2019-10-02T15:25:30Z</time><name>PT15633</name></trkpt>
<trkpt lat="54.578343" lon="-3.198316"><ele>325</ele><time>2019-10-02T15:25:32Z</time><name>PT15634</name></trkpt>
<trkpt lat="54.578347" lon="-3.198298"><ele>326</ele><time>2019-10-02T15:25:32Z</time><name>PT15635</name></trkpt>
<trkpt lat="54.578350" lon="-3.198279"><ele>325</ele><time>2019-10-02T15:25:34Z</time><name>PT15636</name></trkpt>
<trkpt lat="54.578352" lon="-3.198258"><ele>325</ele><time>2019-10-02T15:25:34Z</time><name>PT15637</name></trkpt>
<trkpt lat="54.578352" lon="-3.198237"><ele>325</ele><time>2019-10-02T15:25:36Z</time><name>PT15638</name></trkpt>
<trkpt lat="54.578354" lon="-3.198221"><ele>325</ele><time>2019-10-02T15:25:36Z</time><name>PT15639</name></trkpt>
<trkpt lat="54.578356" lon="-3.198205"><ele>325</ele><time>2019-10-02T15:25:38Z</time><name>PT15640</name></trkpt>
<trkpt lat="54.578359" lon="-3.198187"><ele>324</ele><time>2019-10-02T15:25:38Z</time><name>PT15641</name></trkpt>
<trkpt lat="54.578358" lon="-3.198161"><ele>323</ele><time>2019-10-02T15:25:40Z</time><name>PT15642</name></trkpt>
<trkpt lat="54.578360" lon="-3.198141"><ele>322</ele><time>2019-10-02T15:25:40Z</time><name>PT15643</name></trkpt>
<trkpt lat="54.578361" lon="-3.198120"><ele>322</ele><time>2019-10-02T15:25:42Z</time><name>PT15644</name></trkpt>
<trkpt lat="54.578362" lon="-3.198098"><ele>322</ele><time>2019-10-02T15:25:42Z</time><name>PT15645</name></trkpt>
<trkpt lat="54.578364" lon="-3.198077"><ele>321</ele><time>2019-10-02T15:25:44Z</time><name>PT15646</name></trkpt>
<trkpt lat="54.578366" lon="-3.198059"><ele>321</ele><time>2019-10-02T15:25:44Z</time><name>PT15647</name></trkpt>
<trkpt lat="54.578368" lon="-3.198043"><ele>321</ele><time>2019-10-02T15:25:46Z</time><name>PT15648</name></trkpt>
<trkpt lat="54.578371" lon="-3.198024"><ele>321</ele><time>2019-10-02T15:25:46Z</time><name>PT15649</name></trkpt>
<trkpt lat="54.578375" lon="-3.198005"><ele>321</ele><time>2019-10-02T15:25:48Z</time><name>PT15650</name></trkpt>
<trkpt lat="54.578376" lon="-3.197986"><ele>321</ele><time>2019-10-02T15:25:48Z</time><name>PT15651</name></trkpt>
<trkpt lat="54.578375" lon="-3.197974"><ele>321</ele><time>2019-10-02T15:25:50Z</time><name>PT15652</name></trkpt>
<trkpt lat="54.578372" lon="-3.197961"><ele>321</ele><time>2019-10-02T15:25:50Z</time><name>PT15653</name></trkpt>
<trkpt lat="54.578368" lon="-3.197944"><ele>320</ele><time>2019-10-02T15:25:52Z</time><name>PT15654</name></trkpt>
<trkpt lat="54.578368" lon="-3.197932"><ele>320</ele><time>2019-10-02T15:25:52Z</time><name>PT15655</name></trkpt>
<trkpt lat="54.578368" lon="-3.197914"><ele>320</ele><time>2019-10-02T15:25:54Z</time><name>PT15656</name></trkpt>
<trkpt lat="54.578367" lon="-3.197898"><ele>320</ele><time>2019-10-02T15:25:54Z</time><name>PT15657</name></trkpt>
<trkpt lat="54.578369" lon="-3.197888"><ele>320</ele><time>2019-10-02T15:25:56Z</time><name>PT15658</name></trkpt>
<trkpt lat="54.578371" lon="-3.197880"><ele>320</ele><time>2019-10-02T15:25:56Z</time><name>PT15659</name></trkpt>
<trkpt lat="54.578375" lon="-3.197873"><ele>320</ele><time>2019-10-02T15:25:58Z</time><name>PT15660</name></trkpt>
<trkpt lat="54.578377" lon="-3.197865"><ele>320</ele><time>2019-10-02T15:25:58Z</time><name>PT15661</name></trkpt>
<trkpt lat="54.578377" lon="-3.197850"><ele>319</ele><time>2019-10-02T15:26:00Z</time><name>PT15662</name></trkpt>
<trkpt lat="54.578374" lon="-3.197830"><ele>319</ele><time>2019-10-02T15:26:00Z</time><name>PT15663</name></trkpt>
<trkpt lat="54.578371" lon="-3.197810"><ele>319</ele><time>2019-10-02T15:26:02Z</time><name>PT15664</name></trkpt>
<trkpt lat="54.578372" lon="-3.197797"><ele>318</ele><time>2019-10-02T15:26:02Z</time><name>PT15665</name></trkpt>
<trkpt lat="54.578373" lon="-3.197783"><ele>318</ele><time>2019-10-02T15:26:04Z</time><name>PT15666</name></trkpt>
<trkpt lat="54.578375" lon="-3.197768"><ele>318</ele><time>2019-10-02T15:26:04Z</time><name>PT15667</name></trkpt>
<trkpt lat="54.578378" lon="-3.197759"><ele>317</ele><time>2019-10-02T15:26:06Z</time><name>PT15668</name></trkpt>
<trkpt lat="54.578381" lon="-3.197747"><ele>317</ele><time>2019-10-02T15:26:06Z</time><name>PT15669</name></trkpt>
<trkpt lat="54.578383" lon="-3.197732"><ele>317</ele><time>2019-10-02T15:26:08Z</time><name>PT15670</name></trkpt>
<trkpt lat="54.578382" lon="-3.197710"><ele>317</ele><time>2019-10-02T15:26:08Z</time><name>PT15671</name></trkpt>
<trkpt lat="54.578382" lon="-3.197695"><ele>317</ele><time>2019-10-02T15:26:10Z</time><name>PT15672</name></trkpt>
<trkpt lat="54.578383" lon="-3.197682"><ele>316</ele><time>2019-10-02T15:26:10Z</time><name>PT15673</name></trkpt>
<trkpt lat="54.578386" lon="-3.197669"><ele>316</ele><time>2019-10-02T15:26:12Z</time><name>PT15674</name></trkpt>
<trkpt lat="54.578389" lon="-3.197655"><ele>316</ele><time>2019-10-02T15:26:12Z</time><name>PT15675</name></trkpt>
<trkpt lat="54.578392" lon="-3.197639"><ele>316</ele><time>2019-10-02T15:26:14Z</time><name>PT15676</name></trkpt>
<trkpt lat="54.578395" lon="-3.197622"><ele>315</ele><time>2019-10-02T15:26:14Z</time><name>PT15677</name></trkpt>
<trkpt lat="54.578398" lon="-3.197605"><ele>315</ele><time>2019-10-02T15:26:16Z</time><name>PT15678</name></trkpt>
<trkpt lat="54.578400" lon="-3.197592"><ele>315</ele><time>2019-10-02T15:26:16Z</time><name>PT15679</name></trkpt>
<trkpt lat="54.578403" lon="-3.197575"><ele>315</ele><time>2019-10-02T15:26:18Z</time><name>PT15680</name></trkpt>
<trkpt lat="54.578405" lon="-3.197558"><ele>314</ele><time>2019-10-02T15:26:18Z</time><name>PT15681</name></trkpt>
<trkpt lat="54.578408" lon="-3.197542"><ele>314</ele><time>2019-10-02T15:26:20Z</time><name>PT15682</name></trkpt>
<trkpt lat="54.578411" lon="-3.197529"><ele>314</ele><time>2019-10-02T15:26:20Z</time><name>PT15683</name></trkpt>
<trkpt lat="54.578416" lon="-3.197525"><ele>314</ele><time>2019-10-02T15:26:22Z</time><name>PT15684</name></trkpt>
<trkpt lat="54.578420" lon="-3.197518"><ele>314</ele><time>2019-10-02T15:26:22Z</time><name>PT15685</name></trkpt>
<trkpt lat="54.578418" lon="-3.197504"><ele>313</ele><time>2019-10-02T15:26:24Z</time><name>PT15686</name></trkpt>
<trkpt lat="54.578417" lon="-3.197488"><ele>313</ele><time>2019-10-02T15:26:24Z</time><name>PT15687</name></trkpt>
<trkpt lat="54.578421" lon="-3.197470"><ele>313</ele><time>2019-10-02T15:26:26Z</time><name>PT15688</name></trkpt>
<trkpt lat="54.578427" lon="-3.197461"><ele>313</ele><time>2019-10-02T15:26:26Z</time><name>PT15689</name></trkpt>
<trkpt lat="54.578432" lon="-3.197449"><ele>312</ele><time>2019-10-02T15:26:28Z</time><name>PT15690</name></trkpt>
<trkpt lat="54.578434" lon="-3.197435"><ele>312</ele><time>2019-10-02T15:26:28Z</time><name>PT15691</name></trkpt>
<trkpt lat="54.578435" lon="-3.197419"><ele>312</ele><time>2019-10-02T15:26:30Z</time><name>PT15692</name></trkpt>
<trkpt lat="54.578436" lon="-3.197400"><ele>312</ele><time>2019-10-02T15:26:30Z</time><name>PT15693</name></trkpt>
<trkpt lat="54.578435" lon="-3.197379"><ele>312</ele><time>2019-10-02T15:26:32Z</time><name>PT15694</name></trkpt>
<trkpt lat="54.578433" lon="-3.197360"><ele>312</ele><time>2019-10-02T15:26:32Z</time><name>PT15695</name></trkpt>
<trkpt lat="54.578430" lon="-3.197341"><ele>312</ele><time>2019-10-02T15:26:34Z</time><name>PT15696</name></trkpt>
<trkpt lat="54.578430" lon="-3.197321"><ele>312</ele><time>2019-10-02T15:26:34Z</time><name>PT15697</name></trkpt>
<trkpt lat="54.578430" lon="-3.197299"><ele>312</ele><time>2019-10-02T15:26:36Z</time><name>PT15698</name></trkpt>
<trkpt lat="54.578430" lon="-3.197281"><ele>311</ele><time>2019-10-02T15:26:36Z</time><name>PT15699</name></trkpt>
<trkpt lat="54.578429" lon="-3.197264"><ele>311</ele><time>2019-10-02T15:26:38Z</time><name>PT15700</name></trkpt>
<trkpt lat="54.578428" lon="-3.197248"><ele>311</ele><time>2019-10-02T15:26:38Z</time><name>PT15701</name></trkpt>
<trkpt lat="54.578429" lon="-3.197229"><ele>310</ele><time>2019-10-02T15:26:40Z</time><name>PT15702</name></trkpt>
<trkpt lat="54.578430" lon="-3.197210"><ele>310</ele><time>2019-10-02T15:26:40Z</time><name>PT15703</name></trkpt>
<trkpt lat="54.578429" lon="-3.197192"><ele>309</ele><time>2019-10-02T15:26:42Z</time><name>PT15704</name></trkpt>
<trkpt lat="54.578427" lon="-3.197174"><ele>309</ele><time>2019-10-02T15:26:42Z</time><name>PT15705</name></trkpt>
<trkpt lat="54.578423" lon="-3.197155"><ele>309</ele><time>2019-10-02T15:26:44Z</time><name>PT15706</name></trkpt>
<trkpt lat="54.578421" lon="-3.197137"><ele>309</ele><time>2019-10-02T15:26:44Z</time><name>PT15707</name></trkpt>
<trkpt lat="54.578420" lon="-3.197119"><ele>309</ele><time>2019-10-02T15:26:46Z</time><name>PT15708</name></trkpt>
<trkpt lat="54.578420" lon="-3.197099"><ele>308</ele><time>2019-10-02T15:26:46Z</time><name>PT15709</name></trkpt>
<trkpt lat="54.578418" lon="-3.197080"><ele>308</ele><time>2019-10-02T15:26:48Z</time><name>PT15710</name></trkpt>
<trkpt lat="54.578416" lon="-3.197059"><ele>308</ele><time>2019-10-02T15:26:48Z</time><name>PT15711</name></trkpt>
<trkpt lat="54.578414" lon="-3.197041"><ele>308</ele><time>2019-10-02T15:26:50Z</time><name>PT15712</name></trkpt>
<trkpt lat="54.578414" lon="-3.197026"><ele>308</ele><time>2019-10-02T15:26:50Z</time><name>PT15713</name></trkpt>
<trkpt lat="54.578414" lon="-3.197010"><ele>308</ele><time>2019-10-02T15:26:52Z</time><name>PT15714</name></trkpt>
<trkpt lat="54.578411" lon="-3.196995"><ele>308</ele><time>2019-10-02T15:26:52Z</time><name>PT15715</name></trkpt>
<trkpt lat="54.578407" lon="-3.196975"><ele>307</ele><time>2019-10-02T15:26:54Z</time><name>PT15716</name></trkpt>
<trkpt lat="54.578406" lon="-3.196955"><ele>307</ele><time>2019-10-02T15:26:54Z</time><name>PT15717</name></trkpt>
<trkpt lat="54.578404" lon="-3.196938"><ele>306</ele><time>2019-10-02T15:26:56Z</time><name>PT15718</name></trkpt>
<trkpt lat="54.578401" lon="-3.196918"><ele>306</ele><time>2019-10-02T15:26:56Z</time><name>PT15719</name></trkpt>
<trkpt lat="54.578399" lon="-3.196901"><ele>306</ele><time>2019-10-02T15:26:58Z</time><name>PT15720</name></trkpt>
<trkpt lat="54.578399" lon="-3.196883"><ele>306</ele><time>2019-10-02T15:26:58Z</time><name>PT15721</name></trkpt>
<trkpt lat="54.578399" lon="-3.196866"><ele>306</ele><time>2019-10-02T15:27:00Z</time><name>PT15722</name></trkpt>
<trkpt lat="54.578399" lon="-3.196852"><ele>306</ele><time>2019-10-02T15:27:00Z</time><name>PT15723</name></trkpt>
<trkpt lat="54.578398" lon="-3.196835"><ele>306</ele><time>2019-10-02T15:27:02Z</time><name>PT15724</name></trkpt>
<trkpt lat="54.578397" lon="-3.196816"><ele>306</ele><time>2019-10-02T15:27:02Z</time><name>PT15725</name></trkpt>
<trkpt lat="54.578395" lon="-3.196796"><ele>305</ele><time>2019-10-02T15:27:04Z</time><name>PT15726</name></trkpt>
<trkpt lat="54.578396" lon="-3.196776"><ele>305</ele><time>2019-10-02T15:27:04Z</time><name>PT15727</name></trkpt>
<trkpt lat="54.578396" lon="-3.196759"><ele>305</ele><time>2019-10-02T15:27:06Z</time><name>PT15728</name></trkpt>
<trkpt lat="54.578397" lon="-3.196742"><ele>304</ele><time>2019-10-02T15:27:06Z</time><name>PT15729</name></trkpt>
<trkpt lat="54.578398" lon="-3.196722"><ele>304</ele><time>2019-10-02T15:27:08Z</time><name>PT15730</name></trkpt>
<trkpt lat="54.578400" lon="-3.196705"><ele>304</ele><time>2019-10-02T15:27:08Z</time><name>PT15731</name></trkpt>
<trkpt lat="54.578401" lon="-3.196691"><ele>303</ele><time>2019-10-02T15:27:10Z</time><name>PT15732</name></trkpt>
<trkpt lat="54.578400" lon="-3.196673"><ele>303</ele><time>2019-10-02T15:27:10Z</time><name>PT15733</name></trkpt>
<trkpt lat="54.578399" lon="-3.196654"><ele>302</ele><time>2019-10-02T15:27:12Z</time><name>PT15734</name></trkpt>
<trkpt lat="54.578399" lon="-3.196637"><ele>302</ele><time>2019-10-02T15:27:12Z</time><name>PT15735</name></trkpt>
<trkpt lat="54.578398" lon="-3.196621"><ele>301</ele><time>2019-10-02T15:27:14Z</time><name>PT15736</name></trkpt>
<trkpt lat="54.578397" lon="-3.196609"><ele>300</ele><time>2019-10-02T15:27:14Z</time><name>PT15737</name></trkpt>
<trkpt lat="54.578393" lon="-3.196594"><ele>300</ele><time>2019-10-02T15:27:16Z</time><name>PT15738</name></trkpt>
<trkpt lat="54.578393" lon="-3.196573"><ele>300</ele><time>2019-10-02T15:27:16Z</time><name>PT15739</name></trkpt>
<trkpt lat="54.578393" lon="-3.196552"><ele>300</ele><time>2019-10-02T15:27:18Z</time><name>PT15740</name></trkpt>
<trkpt lat="54.578394" lon="-3.196538"><ele>300</ele><time>2019-10-02T15:27:18Z</time><name>PT15741</name></trkpt>
<trkpt lat="54.578394" lon="-3.196525"><ele>299</ele><time>2019-10-02T15:27:20Z</time><name>PT15742</name></trkpt>
<trkpt lat="54.578394" lon="-3.196509"><ele>300</ele><time>2019-10-02T15:27:20Z</time><name>PT15743</name></trkpt>
<trkpt lat="54.578392" lon="-3.196492"><ele>299</ele><time>2019-10-02T15:27:22Z</time><name>PT15744</name></trkpt>
<trkpt lat="54.578392" lon="-3.196480"><ele>299</ele><time>2019-10-02T15:27:22Z</time><name>PT15745</name></trkpt>
<trkpt lat="54.578391" lon="-3.196469"><ele>299</ele><time>2019-10-02T15:27:24Z</time><name>PT15746</name></trkpt>
<trkpt lat="54.578390" lon="-3.196460"><ele>298</ele><time>2019-10-02T15:27:24Z</time><name>PT15747</name></trkpt>
<trkpt lat="54.578389" lon="-3.196448"><ele>298</ele><time>2019-10-02T15:27:26Z</time><name>PT15748</name></trkpt>
<trkpt lat="54.578389" lon="-3.196429"><ele>298</ele><time>2019-10-02T15:27:26Z</time><name>PT15749</name></trkpt>
<trkpt lat="54.578388" lon="-3.196411"><ele>297</ele><time>2019-10-02T15:27:28Z</time><name>PT15750</name></trkpt>
<trkpt lat="54.578387" lon="-3.196394"><ele>297</ele><time>2019-10-02T15:27:28Z</time><name>PT15751</name></trkpt>
<trkpt lat="54.578386" lon="-3.196379"><ele>297</ele><time>2019-10-02T15:27:30Z</time><name>PT15752</name></trkpt>
<trkpt lat="54.578386" lon="-3.196363"><ele>296</ele><time>2019-10-02T15:27:30Z</time><name>PT15753</name></trkpt>
<trkpt lat="54.578385" lon="-3.196348"><ele>296</ele><time>2019-10-02T15:27:32Z</time><name>PT15754</name></trkpt>
<trkpt lat="54.578385" lon="-3.196330"><ele>296</ele><time>2019-10-02T15:27:32Z</time><name>PT15755</name></trkpt>
<trkpt lat="54.578385" lon="-3.196315"><ele>296</ele><time>2019-10-02T15:27:34Z</time><name>PT15756</name></trkpt>
<trkpt lat="54.578386" lon="-3.196299"><ele>296</ele><time>2019-10-02T15:27:34Z</time><name>PT15757</name></trkpt>
<trkpt lat="54.578391" lon="-3.196288"><ele>296</ele><time>2019-10-02T15:27:36Z</time><name>PT15758</name></trkpt>
<trkpt lat="54.578397" lon="-3.196266"><ele>295</ele><time>2019-10-02T15:27:36Z</time><name>PT15759</name></trkpt>
<trkpt lat="54.578398" lon="-3.196250"><ele>296</ele><time>2019-10-02T15:27:38Z</time><name>PT15760</name></trkpt>
<trkpt lat="54.578397" lon="-3.196235"><ele>295</ele><time>2019-10-02T15:27:38Z</time><name>PT15761</name></trkpt>
<trkpt lat="54.578395" lon="-3.196221"><ele>294</ele><time>2019-10-02T15:27:40Z</time><name>PT15762</name></trkpt>
<trkpt lat="54.578396" lon="-3.196205"><ele>294</ele><time>2019-10-02T15:27:40Z</time><name>PT15763</name></trkpt>
<trkpt lat="54.578396" lon="-3.196192"><ele>293</ele><time>2019-10-02T15:27:42Z</time><name>PT15764</name></trkpt>
<trkpt lat="54.578399" lon="-3.196180"><ele>293</ele><time>2019-10-02T15:27:42Z</time><name>PT15765</name></trkpt>
<trkpt lat="54.578403" lon="-3.196170"><ele>293</ele><time>2019-10-02T15:27:44Z</time><name>PT15766</name></trkpt>
<trkpt lat="54.578403" lon="-3.196152"><ele>293</ele><time>2019-10-02T15:27:44Z</time><name>PT15767</name></trkpt>
<trkpt lat="54.578399" lon="-3.196132"><ele>293</ele><time>2019-10-02T15:27:46Z</time><name>PT15768</name></trkpt>
<trkpt lat="54.578397" lon="-3.196116"><ele>293</ele><time>2019-10-02T15:27:46Z</time><name>PT15769</name></trkpt>
<trkpt lat="54.578397" lon="-3.196101"><ele>292</ele><time>2019-10-02T15:27:48Z</time><name>PT15770</name></trkpt>
<trkpt lat="54.578394" lon="-3.196088"><ele>292</ele><time>2019-10-02T15:27:48Z</time><name>PT15771</name></trkpt>
<trkpt lat="54.578392" lon="-3.196073"><ele>292</ele><time>2019-10-02T15:27:50Z</time><name>PT15772</name></trkpt>
<trkpt lat="54.578394" lon="-3.196053"><ele>291</ele><time>2019-10-02T15:27:50Z</time><name>PT15773</name></trkpt>
<trkpt lat="54.578396" lon="-3.196035"><ele>291</ele><time>2019-10-02T15:27:52Z</time><name>PT15774</name></trkpt>
<trkpt lat="54.578395" lon="-3.196022"><ele>291</ele><time>2019-10-02T15:27:52Z</time><name>PT15775</name></trkpt>
<trkpt lat="54.578393" lon="-3.196006"><ele>290</ele><time>2019-10-02T15:27:54Z</time><name>PT15776</name></trkpt>
<trkpt lat="54.578390" lon="-3.195990"><ele>290</ele><time>2019-10-02T15:27:54Z</time><name>PT15777</name></trkpt>
<trkpt lat="54.578387" lon="-3.195972"><ele>290</ele><time>2019-10-02T15:27:56Z</time><name>PT15778</name></trkpt>
<trkpt lat="54.578382" lon="-3.195959"><ele>289</ele><time>2019-10-02T15:27:56Z</time><name>PT15779</name></trkpt>
<trkpt lat="54.578378" lon="-3.195939"><ele>289</ele><time>2019-10-02T15:27:58Z</time><name>PT15780</name></trkpt>
<trkpt lat="54.578375" lon="-3.195924"><ele>288</ele><time>2019-10-02T15:27:58Z</time><name>PT15781</name></trkpt>
<trkpt lat="54.578373" lon="-3.195909"><ele>288</ele><time>2019-10-02T15:28:00Z</time><name>PT15782</name></trkpt>
<trkpt lat="54.578371" lon="-3.195891"><ele>288</ele><time>2019-10-02T15:28:00Z</time><name>PT15783</name></trkpt>
<trkpt lat="54.578370" lon="-3.195869"><ele>288</ele><time>2019-10-02T15:28:02Z</time><name>PT15784</name></trkpt>
<trkpt lat="54.578370" lon="-3.195850"><ele>288</ele><time>2019-10-02T15:28:03Z</time><name>PT15785</name></trkpt>
<trkpt lat="54.578370" lon="-3.195836"><ele>288</ele><time>2019-10-02T15:28:04Z</time><name>PT15786</name></trkpt>
<trkpt lat="54.578370" lon="-3.195820"><ele>288</ele><time>2019-10-02T15:28:05Z</time><name>PT15787</name></trkpt>
<trkpt lat="54.578370" lon="-3.195804"><ele>288</ele><time>2019-10-02T15:28:06Z</time><name>PT15788</name></trkpt>
<trkpt lat="54.578367" lon="-3.195789"><ele>287</ele><time>2019-10-02T15:28:07Z</time><name>PT15789</name></trkpt>
<trkpt lat="54.578366" lon="-3.195776"><ele>287</ele><time>2019-10-02T15:28:08Z</time><name>PT15790</name></trkpt>
<trkpt lat="54.578365" lon="-3.195759"><ele>287</ele><time>2019-10-02T15:28:09Z</time><name>PT15791</name></trkpt>
<trkpt lat="54.578364" lon="-3.195741"><ele>286</ele><time>2019-10-02T15:28:10Z</time><name>PT15792</name></trkpt>
<trkpt lat="54.578363" lon="-3.195722"><ele>286</ele><time>2019-10-02T15:28:10Z</time><name>PT15793</name></trkpt>
<trkpt lat="54.578363" lon="-3.195704"><ele>286</ele><time>2019-10-02T15:28:12Z</time><name>PT15794</name></trkpt>
<trkpt lat="54.578363" lon="-3.195682"><ele>286</ele><time>2019-10-02T15:28:12Z</time><name>PT15795</name></trkpt>
<trkpt lat="54.578364" lon="-3.195664"><ele>286</ele><time>2019-10-02T15:28:14Z</time><name>PT15796</name></trkpt>
<trkpt lat="54.578362" lon="-3.195647"><ele>285</ele><time>2019-10-02T15:28:14Z</time><name>PT15797</name></trkpt>
<trkpt lat="54.578362" lon="-3.195630"><ele>285</ele><time>2019-10-02T15:28:16Z</time><name>PT15798</name></trkpt>
<trkpt lat="54.578363" lon="-3.195616"><ele>285</ele><time>2019-10-02T15:28:16Z</time><name>PT15799</name></trkpt>
<trkpt lat="54.578365" lon="-3.195599"><ele>285</ele><time>2019-10-02T15:28:18Z</time><name>PT15800</name></trkpt>
<trkpt lat="54.578367" lon="-3.195584"><ele>285</ele><time>2019-10-02T15:28:18Z</time><name>PT15801</name></trkpt>
<trkpt lat="54.578366" lon="-3.195567"><ele>285</ele><time>2019-10-02T15:28:20Z</time><name>PT15802</name></trkpt>
<trkpt lat="54.578365" lon="-3.195550"><ele>284</ele><time>2019-10-02T15:28:20Z</time><name>PT15803</name></trkpt>
<trkpt lat="54.578364" lon="-3.195532"><ele>283</ele><time>2019-10-02T15:28:22Z</time><name>PT15804</name></trkpt>
<trkpt lat="54.578364" lon="-3.195516"><ele>283</ele><time>2019-10-02T15:28:22Z</time><name>PT15805</name></trkpt>
<trkpt lat="54.578362" lon="-3.195489"><ele>282</ele><time>2019-10-02T15:28:24Z</time><name>PT15806</name></trkpt>
<trkpt lat="54.578361" lon="-3.195480"><ele>282</ele><time>2019-10-02T15:28:24Z</time><name>PT15807</name></trkpt>
<trkpt lat="54.578361" lon="-3.195468"><ele>281</ele><time>2019-10-02T15:28:26Z</time><name>PT15808</name></trkpt>
<trkpt lat="54.578361" lon="-3.195450"><ele>281</ele><time>2019-10-02T15:28:26Z</time><name>PT15809</name></trkpt>
<trkpt lat="54.578362" lon="-3.195435"><ele>280</ele><time>2019-10-02T15:28:28Z</time><name>PT15810</name></trkpt>
<trkpt lat="54.578363" lon="-3.195421"><ele>280</ele><time>2019-10-02T15:28:28Z</time><name>PT15811</name></trkpt>
<trkpt lat="54.578363" lon="-3.195407"><ele>280</ele><time>2019-10-02T15:28:30Z</time><name>PT15812</name></trkpt>
<trkpt lat="54.578363" lon="-3.195394"><ele>280</ele><time>2019-10-02T15:28:30Z</time><name>PT15813</name></trkpt>
<trkpt lat="54.578360" lon="-3.195380"><ele>280</ele><time>2019-10-02T15:28:32Z</time><name>PT15814</name></trkpt>
<trkpt lat="54.578354" lon="-3.195368"><ele>280</ele><time>2019-10-02T15:28:32Z</time><name>PT15815</name></trkpt>
<trkpt lat="54.578347" lon="-3.195356"><ele>279</ele><time>2019-10-02T15:28:34Z</time><name>PT15816</name></trkpt>
<trkpt lat="54.578342" lon="-3.195341"><ele>279</ele><time>2019-10-02T15:28:34Z</time><name>PT15817</name></trkpt>
<trkpt lat="54.578341" lon="-3.195326"><ele>279</ele><time>2019-10-02T15:28:36Z</time><name>PT15818</name></trkpt>
<trkpt lat="54.578340" lon="-3.195311"><ele>279</ele><time>2019-10-02T15:28:36Z</time><name>PT15819</name></trkpt>
<trkpt lat="54.578339" lon="-3.195300"><ele>279</ele><time>2019-10-02T15:28:38Z</time><name>PT15820</name></trkpt>
<trkpt lat="54.578337" lon="-3.195287"><ele>279</ele><time>2019-10-02T15:28:38Z</time><name>PT15821</name></trkpt>
<trkpt lat="54.578340" lon="-3.195272"><ele>279</ele><time>2019-10-02T15:28:40Z</time><name>PT15822</name></trkpt>
<trkpt lat="54.578344" lon="-3.195259"><ele>278</ele><time>2019-10-02T15:28:40Z</time><name>PT15823</name></trkpt>
<trkpt lat="54.578347" lon="-3.195249"><ele>278</ele><time>2019-10-02T15:28:42Z</time><name>PT15824</name></trkpt>
<trkpt lat="54.578348" lon="-3.195241"><ele>278</ele><time>2019-10-02T15:28:42Z</time><name>PT15825</name></trkpt>
<trkpt lat="54.578348" lon="-3.195229"><ele>278</ele><time>2019-10-02T15:28:44Z</time><name>PT15826</name></trkpt>
<trkpt lat="54.578347" lon="-3.195219"><ele>277</ele><time>2019-10-02T15:28:44Z</time><name>PT15827</name></trkpt>
<trkpt lat="54.578345" lon="-3.195207"><ele>277</ele><time>2019-10-02T15:28:46Z</time><name>PT15828</name></trkpt>
<trkpt lat="54.578341" lon="-3.195195"><ele>277</ele><time>2019-10-02T15:28:46Z</time><name>PT15829</name></trkpt>
<trkpt lat="54.578339" lon="-3.195185"><ele>276</ele><time>2019-10-02T15:28:48Z</time><name>PT15830</name></trkpt>
<trkpt lat="54.578339" lon="-3.195172"><ele>276</ele><time>2019-10-02T15:28:48Z</time><name>PT15831</name></trkpt>
<trkpt lat="54.578340" lon="-3.195158"><ele>275</ele><time>2019-10-02T15:28:50Z</time><name>PT15832</name></trkpt>
<trkpt lat="54.578341" lon="-3.195142"><ele>274</ele><time>2019-10-02T15:28:50Z</time><name>PT15833</name></trkpt>
<trkpt lat="54.578346" lon="-3.195135"><ele>274</ele><time>2019-10-02T15:28:52Z</time><name>PT15834</name></trkpt>
<trkpt lat="54.578348" lon="-3.195133"><ele>273</ele><time>2019-10-02T15:28:52Z</time><name>PT15835</name></trkpt>
<trkpt lat="54.578354" lon="-3.195133"><ele>273</ele><time>2019-10-02T15:28:54Z</time><name>PT15836</name></trkpt>
<trkpt lat="54.578362" lon="-3.195132"><ele>273</ele><time>2019-10-02T15:28:54Z</time><name>PT15837</name></trkpt>
<trkpt lat="54.578367" lon="-3.195126"><ele>272</ele><time>2019-10-02T15:28:56Z</time><name>PT15838</name></trkpt>
<trkpt lat="54.578365" lon="-3.195116"><ele>272</ele><time>2019-10-02T15:28:56Z</time><name>PT15839</name></trkpt>
<trkpt lat="54.578364" lon="-3.195106"><ele>272</ele><time>2019-10-02T15:28:58Z</time><name>PT15840</name></trkpt>
<trkpt lat="54.578362" lon="-3.195095"><ele>272</ele><time>2019-10-02T15:28:58Z</time><name>PT15841</name></trkpt>
<trkpt lat="54.578359" lon="-3.195086"><ele>271</ele><time>2019-10-02T15:29:00Z</time><name>PT15842</name></trkpt>
<trkpt lat="54.578359" lon="-3.195077"><ele>271</ele><time>2019-10-02T15:29:00Z</time><name>PT15843</name></trkpt>
<trkpt lat="54.578360" lon="-3.195069"><ele>271</ele><time>2019-10-02T15:29:02Z</time><name>PT15844</name></trkpt>
<trkpt lat="54.578361" lon="-3.195060"><ele>271</ele><time>2019-10-02T15:29:03Z</time><name>PT15845</name></trkpt>
<trkpt lat="54.578363" lon="-3.195050"><ele>270</ele><time>2019-10-02T15:29:04Z</time><name>PT15846</name></trkpt>
<trkpt lat="54.578367" lon="-3.195036"><ele>270</ele><time>2019-10-02T15:29:04Z</time><name>PT15847</name></trkpt>
<trkpt lat="54.578369" lon="-3.195020"><ele>269</ele><time>2019-10-02T15:29:06Z</time><name>PT15848</name></trkpt>
<trkpt lat="54.578371" lon="-3.195002"><ele>269</ele><time>2019-10-02T15:29:07Z</time><name>PT15849</name></trkpt>
<trkpt lat="54.578373" lon="-3.194991"><ele>268</ele><time>2019-10-02T15:29:08Z</time><name>PT15850</name></trkpt>
<trkpt lat="54.578372" lon="-3.194978"><ele>267</ele><time>2019-10-02T15:29:08Z</time><name>PT15851</name></trkpt>
<trkpt lat="54.578368" lon="-3.194961"><ele>267</ele><time>2019-10-02T15:29:10Z</time><name>PT15852</name></trkpt>
<trkpt lat="54.578371" lon="-3.194947"><ele>267</ele><time>2019-10-02T15:29:10Z</time><name>PT15853</name></trkpt>
<trkpt lat="54.578372" lon="-3.194937"><ele>267</ele><time>2019-10-02T15:29:12Z</time><name>PT15854</name></trkpt>
<trkpt lat="54.578373" lon="-3.194926"><ele>266</ele><time>2019-10-02T15:29:12Z</time><name>PT15855</name></trkpt>
<trkpt lat="54.578375" lon="-3.194919"><ele>266</ele><time>2019-10-02T15:29:14Z</time><name>PT15856</name></trkpt>
<trkpt lat="54.578375" lon="-3.194912"><ele>266</ele><time>2019-10-02T15:29:14Z</time><name>PT15857</name></trkpt>
<trkpt lat="54.578377" lon="-3.194902"><ele>265</ele><time>2019-10-02T15:29:16Z</time><name>PT15858</name></trkpt>
<trkpt lat="54.578380" lon="-3.194897"><ele>265</ele><time>2019-10-02T15:29:16Z</time><name>PT15859</name></trkpt>
<trkpt lat="54.578382" lon="-3.194895"><ele>264</ele><time>2019-10-02T15:29:18Z</time><name>PT15860</name></trkpt>
<trkpt lat="54.578383" lon="-3.194889"><ele>264</ele><time>2019-10-02T15:29:18Z</time><name>PT15861</name></trkpt>
<trkpt lat="54.578386" lon="-3.194882"><ele>264</ele><time>2019-10-02T15:29:20Z</time><name>PT15862</name></trkpt>
<trkpt lat="54.578393" lon="-3.194877"><ele>264</ele><time>2019-10-02T15:29:20Z</time><name>PT15863</name></trkpt>
<trkpt lat="54.578396" lon="-3.194871"><ele>264</ele><time>2019-10-02T15:29:22Z</time><name>PT15864</name></trkpt>
<trkpt lat="54.578396" lon="-3.194863"><ele>264</ele><time>2019-10-02T15:29:22Z</time><name>PT15865</name></trkpt>
<trkpt lat="54.578395" lon="-3.194854"><ele>264</ele><time>2019-10-02T15:29:24Z</time><name>PT15866</name></trkpt>
<trkpt lat="54.578394" lon="-3.194844"><ele>263</ele><time>2019-10-02T15:29:24Z</time><name>PT15867</name></trkpt>
<trkpt lat="54.578389" lon="-3.194827"><ele>263</ele><time>2019-10-02T15:29:26Z</time><name>PT15868</name></trkpt>
<trkpt lat="54.578385" lon="-3.194810"><ele>263</ele><time>2019-10-02T15:29:26Z</time><name>PT15869</name></trkpt>
<trkpt lat="54.578385" lon="-3.194799"><ele>263</ele><time>2019-10-02T15:29:28Z</time><name>PT15870</name></trkpt>
<trkpt lat="54.578387" lon="-3.194792"><ele>262</ele><time>2019-10-02T15:29:28Z</time><name>PT15871</name></trkpt>
<trkpt lat="54.578388" lon="-3.194778"><ele>261</ele><time>2019-10-02T15:29:30Z</time><name>PT15872</name></trkpt>
<trkpt lat="54.578388" lon="-3.194763"><ele>261</ele><time>2019-10-02T15:29:30Z</time><name>PT15873</name></trkpt>
<trkpt lat="54.578390" lon="-3.194751"><ele>261</ele><time>2019-10-02T15:29:32Z</time><name>PT15874</name></trkpt>
<trkpt lat="54.578392" lon="-3.194738"><ele>260</ele><time>2019-10-02T15:29:32Z</time><name>PT15875</name></trkpt>
<trkpt lat="54.578394" lon="-3.194721"><ele>260</ele><time>2019-10-02T15:29:34Z</time><name>PT15876</name></trkpt>
<trkpt lat="54.578396" lon="-3.194705"><ele>260</ele><time>2019-10-02T15:29:34Z</time><name>PT15877</name></trkpt>
<trkpt lat="54.578398" lon="-3.194690"><ele>260</ele><time>2019-10-02T15:29:36Z</time><name>PT15878</name></trkpt>
<trkpt lat="54.578399" lon="-3.194677"><ele>260</ele><time>2019-10-02T15:29:36Z</time><name>PT15879</name></trkpt>
<trkpt lat="54.578400" lon="-3.194663"><ele>259</ele><time>2019-10-02T15:29:38Z</time><name>PT15880</name></trkpt>
<trkpt lat="54.578400" lon="-3.194647"><ele>259</ele><time>2019-10-02T15:29:38Z</time><name>PT15881</name></trkpt>
<trkpt lat="54.578401" lon="-3.194632"><ele>259</ele><time>2019-10-02T15:29:40Z</time><name>PT15882</name></trkpt>
<trkpt lat="54.578406" lon="-3.194617"><ele>258</ele><time>2019-10-02T15:29:40Z</time><name>PT15883</name></trkpt>
<trkpt lat="54.578411" lon="-3.194603"><ele>258</ele><time>2019-10-02T15:29:42Z</time><name>PT15884</name></trkpt>
<trkpt lat="54.578413" lon="-3.194591"><ele>259</ele><time>2019-10-02T15:29:42Z</time><name>PT15885</name></trkpt>
<trkpt lat="54.578414" lon="-3.194581"><ele>258</ele><time>2019-10-02T15:29:44Z</time><name>PT15886</name></trkpt>
<trkpt lat="54.578414" lon="-3.194566"><ele>258</ele><time>2019-10-02T15:29:44Z</time><name>PT15887</name></trkpt>
<trkpt lat="54.578415" lon="-3.194550"><ele>257</ele><time>2019-10-02T15:29:46Z</time><name>PT15888</name></trkpt>
<trkpt lat="54.578417" lon="-3.194535"><ele>257</ele><time>2019-10-02T15:29:46Z</time><name>PT15889</name></trkpt>
<trkpt lat="54.578419" lon="-3.194520"><ele>256</ele><time>2019-10-02T15:29:48Z</time><name>PT15890</name></trkpt>
<trkpt lat="54.578420" lon="-3.194507"><ele>256</ele><time>2019-10-02T15:29:48Z</time><name>PT15891</name></trkpt>
<trkpt lat="54.578420" lon="-3.194496"><ele>256</ele><time>2019-10-02T15:29:50Z</time><name>PT15892</name></trkpt>
<trkpt lat="54.578418" lon="-3.194480"><ele>256</ele><time>2019-10-02T15:29:50Z</time><name>PT15893</name></trkpt>
<trkpt lat="54.578416" lon="-3.194461"><ele>256</ele><time>2019-10-02T15:29:52Z</time><name>PT15894</name></trkpt>
<trkpt lat="54.578416" lon="-3.194438"><ele>256</ele><time>2019-10-02T15:29:52Z</time><name>PT15895</name></trkpt>
<trkpt lat="54.578417" lon="-3.194420"><ele>255</ele><time>2019-10-02T15:29:54Z</time><name>PT15896</name></trkpt>
<trkpt lat="54.578419" lon="-3.194400"><ele>255</ele><time>2019-10-02T15:29:54Z</time><name>PT15897</name></trkpt>
<trkpt lat="54.578420" lon="-3.194381"><ele>254</ele><time>2019-10-02T15:29:56Z</time><name>PT15898</name></trkpt>
<trkpt lat="54.578420" lon="-3.194359"><ele>254</ele><time>2019-10-02T15:29:56Z</time><name>PT15899</name></trkpt>
<trkpt lat="54.578420" lon="-3.194336"><ele>254</ele><time>2019-10-02T15:29:58Z</time><name>PT15900</name></trkpt>
<trkpt lat="54.578421" lon="-3.194315"><ele>253</ele><time>2019-10-02T15:29:58Z</time><name>PT15901</name></trkpt>
<trkpt lat="54.578421" lon="-3.194296"><ele>253</ele><time>2019-10-02T15:30:00Z</time><name>PT15902</name></trkpt>
<trkpt lat="54.578421" lon="-3.194277"><ele>253</ele><time>2019-10-02T15:30:00Z</time><name>PT15903</name></trkpt>
<trkpt lat="54.578419" lon="-3.194255"><ele>253</ele><time>2019-10-02T15:30:02Z</time><name>PT15904</name></trkpt>
<trkpt lat="54.578417" lon="-3.194236"><ele>253</ele><time>2019-10-02T15:30:02Z</time><name>PT15905</name></trkpt>
<trkpt lat="54.578419" lon="-3.194219"><ele>253</ele><time>2019-10-02T15:30:04Z</time><name>PT15906</name></trkpt>
<trkpt lat="54.578421" lon="-3.194201"><ele>252</ele><time>2019-10-02T15:30:04Z</time><name>PT15907</name></trkpt>
<trkpt lat="54.578422" lon="-3.194183"><ele>252</ele><time>2019-10-02T15:30:06Z</time><name>PT15908</name></trkpt>
<trkpt lat="54.578424" lon="-3.194166"><ele>252</ele><time>2019-10-02T15:30:06Z</time><name>PT15909</name></trkpt>
<trkpt lat="54.578425" lon="-3.194153"><ele>252</ele><time>2019-10-02T15:30:08Z</time><name>PT15910</name></trkpt>
<trkpt lat="54.578426" lon="-3.194138"><ele>252</ele><time>2019-10-02T15:30:08Z</time><name>PT15911</name></trkpt>
<trkpt lat="54.578427" lon="-3.194124"><ele>252</ele><time>2019-10-02T15:30:10Z</time><name>PT15912</name></trkpt>
<trkpt lat="54.578426" lon="-3.194106"><ele>251</ele><time>2019-10-02T15:30:10Z</time><name>PT15913</name></trkpt>
<trkpt lat="54.578428" lon="-3.194091"><ele>251</ele><time>2019-10-02T15:30:12Z</time><name>PT15914</name></trkpt>
<trkpt lat="54.578430" lon="-3.194077"><ele>250</ele><time>2019-10-02T15:30:12Z</time><name>PT15915</name></trkpt>
<trkpt lat="54.578433" lon="-3.194065"><ele>249</ele><time>2019-10-02T15:30:14Z</time><name>PT15916</name></trkpt>
<trkpt lat="54.578436" lon="-3.194054"><ele>249</ele><time>2019-10-02T15:30:14Z</time><name>PT15917</name></trkpt>
<trkpt lat="54.578437" lon="-3.194042"><ele>249</ele><time>2019-10-02T15:30:16Z</time><name>PT15918</name></trkpt>
<trkpt lat="54.578437" lon="-3.194032"><ele>249</ele><time>2019-10-02T15:30:16Z</time><name>PT15919</name></trkpt>
<trkpt lat="54.578437" lon="-3.194016"><ele>248</ele><time>2019-10-02T15:30:18Z</time><name>PT15920</name></trkpt>
<trkpt lat="54.578440" lon="-3.194002"><ele>248</ele><time>2019-10-02T15:30:18Z</time><name>PT15921</name></trkpt>
<trkpt lat="54.578441" lon="-3.193987"><ele>248</ele><time>2019-10-02T15:30:20Z</time><name>PT15922</name></trkpt>
<trkpt lat="54.578440" lon="-3.193969"><ele>248</ele><time>2019-10-02T15:30:20Z</time><name>PT15923</name></trkpt>
<trkpt lat="54.578442" lon="-3.193955"><ele>248</ele><time>2019-10-02T15:30:22Z</time><name>PT15924</name></trkpt>
<trkpt lat="54.578443" lon="-3.193941"><ele>248</ele><time>2019-10-02T15:30:22Z</time><name>PT15925</name></trkpt>
<trkpt lat="54.578444" lon="-3.193925"><ele>248</ele><time>2019-10-02T15:30:24Z</time><name>PT15926</name></trkpt>
<trkpt lat="54.578444" lon="-3.193909"><ele>248</ele><time>2019-10-02T15:30:24Z</time><name>PT15927</name></trkpt>
<trkpt lat="54.578443" lon="-3.193892"><ele>248</ele><time>2019-10-02T15:30:26Z</time><name>PT15928</name></trkpt>
<trkpt lat="54.578442" lon="-3.193875"><ele>247</ele><time>2019-10-02T15:30:26Z</time><name>PT15929</name></trkpt>
<trkpt lat="54.578440" lon="-3.193858"><ele>247</ele><time>2019-10-02T15:30:28Z</time><name>PT15930</name></trkpt>
<trkpt lat="54.578439" lon="-3.193840"><ele>247</ele><time>2019-10-02T15:30:28Z</time><name>PT15931</name></trkpt>
<trkpt lat="54.578439" lon="-3.193824"><ele>247</ele><time>2019-10-02T15:30:30Z</time><name>PT15932</name></trkpt>
<trkpt lat="54.578441" lon="-3.193810"><ele>247</ele><time>2019-10-02T15:30:30Z</time><name>PT15933</name></trkpt>
<trkpt lat="54.578442" lon="-3.193797"><ele>246</ele><time>2019-10-02T15:30:32Z</time><name>PT15934</name></trkpt>
<trkpt lat="54.578443" lon="-3.193782"><ele>246</ele><time>2019-10-02T15:30:32Z</time><name>PT15935</name></trkpt>
<trkpt lat="54.578445" lon="-3.193766"><ele>246</ele><time>2019-10-02T15:30:34Z</time><name>PT15936</name></trkpt>
<trkpt lat="54.578446" lon="-3.193751"><ele>245</ele><time>2019-10-02T15:30:34Z</time><name>PT15937</name></trkpt>
<trkpt lat="54.578447" lon="-3.193735"><ele>245</ele><time>2019-10-02T15:30:36Z</time><name>PT15938</name></trkpt>
<trkpt lat="54.578449" lon="-3.193720"><ele>245</ele><time>2019-10-02T15:30:36Z</time><name>PT15939</name></trkpt>
<trkpt lat="54.578452" lon="-3.193705"><ele>244</ele><time>2019-10-02T15:30:38Z</time><name>PT15940</name></trkpt>
<trkpt lat="54.578458" lon="-3.193693"><ele>244</ele><time>2019-10-02T15:30:38Z</time><name>PT15941</name></trkpt>
<trkpt lat="54.578464" lon="-3.193679"><ele>243</ele><time>2019-10-02T15:30:40Z</time><name>PT15942</name></trkpt>
<trkpt lat="54.578466" lon="-3.193663"><ele>243</ele><time>2019-10-02T15:30:40Z</time><name>PT15943</name></trkpt>
<trkpt lat="54.578467" lon="-3.193648"><ele>243</ele><time>2019-10-02T15:30:42Z</time><name>PT15944</name></trkpt>
<trkpt lat="54.578468" lon="-3.193634"><ele>243</ele><time>2019-10-02T15:30:42Z</time><name>PT15945</name></trkpt>
<trkpt lat="54.578470" lon="-3.193619"><ele>242</ele><time>2019-10-02T15:30:44Z</time><name>PT15946</name></trkpt>
<trkpt lat="54.578469" lon="-3.193602"><ele>242</ele><time>2019-10-02T15:30:45Z</time><name>PT15947</name></trkpt>
<trkpt lat="54.578471" lon="-3.193585"><ele>242</ele><time>2019-10-02T15:30:46Z</time><name>PT15948</name></trkpt>
<trkpt lat="54.578473" lon="-3.193566"><ele>242</ele><time>2019-10-02T15:30:47Z</time><name>PT15949</name></trkpt>
<trkpt lat="54.578473" lon="-3.193548"><ele>241</ele><time>2019-10-02T15:30:48Z</time><name>PT15950</name></trkpt>
<trkpt lat="54.578474" lon="-3.193531"><ele>241</ele><time>2019-10-02T15:30:48Z</time><name>PT15951</name></trkpt>
<trkpt lat="54.578473" lon="-3.193514"><ele>241</ele><time>2019-10-02T15:30:50Z</time><name>PT15952</name></trkpt>
<trkpt lat="54.578471" lon="-3.193499"><ele>241</ele><time>2019-10-02T15:30:50Z</time><name>PT15953</name></trkpt>
<trkpt lat="54.578474" lon="-3.193481"><ele>241</ele><time>2019-10-02T15:30:52Z</time><name>PT15954</name></trkpt>
<trkpt lat="54.578475" lon="-3.193463"><ele>241</ele><time>2019-10-02T15:30:52Z</time><name>PT15955</name></trkpt>
<trkpt lat="54.578478" lon="-3.193447"><ele>241</ele><time>2019-10-02T15:30:54Z</time><name>PT15956</name></trkpt>
<trkpt lat="54.578482" lon="-3.193432"><ele>240</ele><time>2019-10-02T15:30:54Z</time><name>PT15957</name></trkpt>
<trkpt lat="54.578483" lon="-3.193419"><ele>240</ele><time>2019-10-02T15:30:56Z</time><name>PT15958</name></trkpt>
<trkpt lat="54.578480" lon="-3.193401"><ele>240</ele><time>2019-10-02T15:30:56Z</time><name>PT15959</name></trkpt>
<trkpt lat="54.578479" lon="-3.193380"><ele>240</ele><time>2019-10-02T15:30:58Z</time><name>PT15960</name></trkpt>
<trkpt lat="54.578479" lon="-3.193362"><ele>240</ele><time>2019-10-02T15:30:58Z</time><name>PT15961</name></trkpt>
<trkpt lat="54.578479" lon="-3.193341"><ele>239</ele><time>2019-10-02T15:31:00Z</time><name>PT15962</name></trkpt>
<trkpt lat="54.578478" lon="-3.193322"><ele>239</ele><time>2019-10-02T15:31:00Z</time><name>PT15963</name></trkpt>
<trkpt lat="54.578482" lon="-3.193308"><ele>239</ele><time>2019-10-02T15:31:02Z</time><name>PT15964</name></trkpt>
<trkpt lat="54.578487" lon="-3.193295"><ele>238</ele><time>2019-10-02T15:31:02Z</time><name>PT15965</name></trkpt>
<trkpt lat="54.578492" lon="-3.193284"><ele>238</ele><time>2019-10-02T15:31:04Z</time><name>PT15966</name></trkpt>
<trkpt lat="54.578494" lon="-3.193273"><ele>238</ele><time>2019-10-02T15:31:04Z</time><name>PT15967</name></trkpt>
<trkpt lat="54.578496" lon="-3.193254"><ele>238</ele><time>2019-10-02T15:31:06Z</time><name>PT15968</name></trkpt>
<trkpt lat="54.578498" lon="-3.193239"><ele>238</ele><time>2019-10-02T15:31:07Z</time><name>PT15969</name></trkpt>
<trkpt lat="54.578498" lon="-3.193221"><ele>238</ele><time>2019-10-02T15:31:07Z</time><name>PT15970</name></trkpt>
<trkpt lat="54.578499" lon="-3.193201"><ele>237</ele><time>2019-10-02T15:31:09Z</time><name>PT15971</name></trkpt>
<trkpt lat="54.578501" lon="-3.193178"><ele>237</ele><time>2019-10-02T15:31:09Z</time><name>PT15972</name></trkpt>
<trkpt lat="54.578503" lon="-3.193156"><ele>237</ele><time>2019-10-02T15:31:11Z</time><name>PT15973</name></trkpt>
<trkpt lat="54.578504" lon="-3.193139"><ele>236</ele><time>2019-10-02T15:31:11Z</time><name>PT15974</name></trkpt>
<trkpt lat="54.578505" lon="-3.193121"><ele>236</ele><time>2019-10-02T15:31:13Z</time><name>PT15975</name></trkpt>
<trkpt lat="54.578506" lon="-3.193101"><ele>236</ele><time>2019-10-02T15:31:13Z</time><name>PT15976</name></trkpt>
<trkpt lat="54.578507" lon="-3.193081"><ele>236</ele><time>2019-10-02T15:31:15Z</time><name>PT15977</name></trkpt>
<trkpt lat="54.578509" lon="-3.193063"><ele>236</ele><time>2019-10-02T15:31:15Z</time><name>PT15978</name></trkpt>
<trkpt lat="54.578510" lon="-3.193044"><ele>236</ele><time>2019-10-02T15:31:17Z</time><name>PT15979</name></trkpt>
<trkpt lat="54.578510" lon="-3.193025"><ele>236</ele><time>2019-10-02T15:31:17Z</time><name>PT15980</name></trkpt>
<trkpt lat="54.578511" lon="-3.193005"><ele>235</ele><time>2019-10-02T15:31:19Z</time><name>PT15981</name></trkpt>
<trkpt lat="54.578513" lon="-3.192986"><ele>235</ele><time>2019-10-02T15:31:19Z</time><name>PT15982</name></trkpt>
<trkpt lat="54.578516" lon="-3.192968"><ele>234</ele><time>2019-10-02T15:31:21Z</time><name>PT15983</name></trkpt>
<trkpt lat="54.578518" lon="-3.192948"><ele>234</ele><time>2019-10-02T15:31:21Z</time><name>PT15984</name></trkpt>
<trkpt lat="54.578518" lon="-3.192929"><ele>234</ele><time>2019-10-02T15:31:23Z</time><name>PT15985</name></trkpt>
<trkpt lat="54.578514" lon="-3.192911"><ele>234</ele><time>2019-10-02T15:31:23Z</time><name>PT15986</name></trkpt>
<trkpt lat="54.578512" lon="-3.192893"><ele>233</ele><time>2019-10-02T15:31:25Z</time><name>PT15987</name></trkpt>
<trkpt lat="54.578509" lon="-3.192875"><ele>233</ele><time>2019-10-02T15:31:25Z</time><name>PT15988</name></trkpt>
<trkpt lat="54.578512" lon="-3.192857"><ele>233</ele><time>2019-10-02T15:31:27Z</time><name>PT15989</name></trkpt>
<trkpt lat="54.578516" lon="-3.192841"><ele>233</ele><time>2019-10-02T15:31:27Z</time><name>PT15990</name></trkpt>
<trkpt lat="54.578519" lon="-3.192819"><ele>233</ele><time>2019-10-02T15:31:29Z</time><name>PT15991</name></trkpt>
<trkpt lat="54.578518" lon="-3.192798"><ele>232</ele><time>2019-10-02T15:31:29Z</time><name>PT15992</name></trkpt>
<trkpt lat="54.578516" lon="-3.192779"><ele>232</ele><time>2019-10-02T15:31:31Z</time><name>PT15993</name></trkpt>
<trkpt lat="54.578514" lon="-3.192760"><ele>232</ele><time>2019-10-02T15:31:31Z</time><name>PT15994</name></trkpt>
<trkpt lat="54.578514" lon="-3.192744"><ele>231</ele><time>2019-10-02T15:31:33Z</time><name>PT15995</name></trkpt>
<trkpt lat="54.578513" lon="-3.192724"><ele>231</ele><time>2019-10-02T15:31:33Z</time><name>PT15996</name></trkpt>
<trkpt lat="54.578513" lon="-3.192705"><ele>231</ele><time>2019-10-02T15:31:35Z</time><name>PT15997</name></trkpt>
<trkpt lat="54.578515" lon="-3.192688"><ele>231</ele><time>2019-10-02T15:31:35Z</time><name>PT15998</name></trkpt>
<trkpt lat="54.578517" lon="-3.192670"><ele>230</ele><time>2019-10-02T15:31:37Z</time><name>PT15999</name></trkpt>
<trkpt lat="54.578519" lon="-3.192657"><ele>230</ele><time>2019-10-02T15:31:37Z</time><name>PT16000</name></trkpt>
<trkpt lat="54.578521" lon="-3.192645"><ele>230</ele><time>2019-10-02T15:31:39Z</time><name>PT16001</name></trkpt>
<trkpt lat="54.578520" lon="-3.192627"><ele>229</ele><time>2019-10-02T15:31:39Z</time><name>PT16002</name></trkpt>
<trkpt lat="54.578522" lon="-3.192608"><ele>228</ele><time>2019-10-02T15:31:41Z</time><name>PT16003</name></trkpt>
<trkpt lat="54.578524" lon="-3.192591"><ele>228</ele><time>2019-10-02T15:31:41Z</time><name>PT16004</name></trkpt>
<trkpt lat="54.578525" lon="-3.192574"><ele>228</ele><time>2019-10-02T15:31:43Z</time><name>PT16005</name></trkpt>
<trkpt lat="54.578528" lon="-3.192553"><ele>227</ele><time>2019-10-02T15:31:43Z</time><name>PT16006</name></trkpt>
<trkpt lat="54.578529" lon="-3.192538"><ele>227</ele><time>2019-10-02T15:31:45Z</time><name>PT16007</name></trkpt>
<trkpt lat="54.578530" lon="-3.192521"><ele>227</ele><time>2019-10-02T15:31:45Z</time><name>PT16008</name></trkpt>
<trkpt lat="54.578531" lon="-3.192504"><ele>226</ele><time>2019-10-02T15:31:47Z</time><name>PT16009</name></trkpt>
<trkpt lat="54.578534" lon="-3.192489"><ele>226</ele><time>2019-10-02T15:31:47Z</time><name>PT16010</name></trkpt>
<trkpt lat="54.578537" lon="-3.192473"><ele>226</ele><time>2019-10-02T15:31:49Z</time><name>PT16011</name></trkpt>
<trkpt lat="54.578539" lon="-3.192455"><ele>226</ele><time>2019-10-02T15:31:49Z</time><name>PT16012</name></trkpt>
<trkpt lat="54.578540" lon="-3.192438"><ele>225</ele><time>2019-10-02T15:31:51Z</time><name>PT16013</name></trkpt>
<trkpt lat="54.578540" lon="-3.192419"><ele>225</ele><time>2019-10-02T15:31:51Z</time><name>PT16014</name></trkpt>
<trkpt lat="54.578541" lon="-3.192398"><ele>224</ele><time>2019-10-02T15:31:53Z</time><name>PT16015</name></trkpt>
<trkpt lat="54.578547" lon="-3.192378"><ele>224</ele><time>2019-10-02T15:31:53Z</time><name>PT16016</name></trkpt>
<trkpt lat="54.578550" lon="-3.192368"><ele>223</ele><time>2019-10-02T15:31:55Z</time><name>PT16017</name></trkpt>
<trkpt lat="54.578556" lon="-3.192359"><ele>223</ele><time>2019-10-02T15:31:55Z</time><name>PT16018</name></trkpt>
<trkpt lat="54.578560" lon="-3.192344"><ele>223</ele><time>2019-10-02T15:31:57Z</time><name>PT16019</name></trkpt>
<trkpt lat="54.578560" lon="-3.192334"><ele>223</ele><time>2019-10-02T15:31:57Z</time><name>PT16020</name></trkpt>
<trkpt lat="54.578558" lon="-3.192323"><ele>223</ele><time>2019-10-02T15:31:59Z</time><name>PT16021</name></trkpt>
<trkpt lat="54.578556" lon="-3.192310"><ele>222</ele><time>2019-10-02T15:32:00Z</time><name>PT16022</name></trkpt>
<trkpt lat="54.578557" lon="-3.192292"><ele>222</ele><time>2019-10-02T15:32:01Z</time><name>PT16023</name></trkpt>
<trkpt lat="54.578562" lon="-3.192273"><ele>221</ele><time>2019-10-02T15:32:02Z</time><name>PT16024</name></trkpt>
<trkpt lat="54.578568" lon="-3.192254"><ele>221</ele><time>2019-10-02T15:32:03Z</time><name>PT16025</name></trkpt>
<trkpt lat="54.578570" lon="-3.192235"><ele>221</ele><time>2019-10-02T15:32:04Z</time><name>PT16026</name></trkpt>
<trkpt lat="54.578570" lon="-3.192218"><ele>221</ele><time>2019-10-02T15:32:05Z</time><name>PT16027</name></trkpt>
<trkpt lat="54.578569" lon="-3.192200"><ele>221</ele><time>2019-10-02T15:32:05Z</time><name>PT16028</name></trkpt>
<trkpt lat="54.578566" lon="-3.192178"><ele>221</ele><time>2019-10-02T15:32:07Z</time><name>PT16029</name></trkpt>
<trkpt lat="54.578564" lon="-3.192165"><ele>220</ele><time>2019-10-02T15:32:07Z</time><name>PT16030</name></trkpt>
<trkpt lat="54.578563" lon="-3.192150"><ele>220</ele><time>2019-10-02T15:32:09Z</time><name>PT16031</name></trkpt>
<trkpt lat="54.578567" lon="-3.192132"><ele>220</ele><time>2019-10-02T15:32:09Z</time><name>PT16032</name></trkpt>
<trkpt lat="54.578571" lon="-3.192114"><ele>220</ele><time>2019-10-02T15:32:11Z</time><name>PT16033</name></trkpt>
<trkpt lat="54.578575" lon="-3.192098"><ele>220</ele><time>2019-10-02T15:32:11Z</time><name>PT16034</name></trkpt>
<trkpt lat="54.578577" lon="-3.192080"><ele>220</ele><time>2019-10-02T15:32:13Z</time><name>PT16035</name></trkpt>
<trkpt lat="54.578578" lon="-3.192063"><ele>220</ele><time>2019-10-02T15:32:13Z</time><name>PT16036</name></trkpt>
<trkpt lat="54.578582" lon="-3.192052"><ele>220</ele><time>2019-10-02T15:32:15Z</time><name>PT16037</name></trkpt>
<trkpt lat="54.578585" lon="-3.192040"><ele>220</ele><time>2019-10-02T15:32:15Z</time><name>PT16038</name></trkpt>
<trkpt lat="54.578590" lon="-3.192032"><ele>220</ele><time>2019-10-02T15:32:17Z</time><name>PT16039</name></trkpt>
<trkpt lat="54.578595" lon="-3.192020"><ele>220</ele><time>2019-10-02T15:32:17Z</time><name>PT16040</name></trkpt>
<trkpt lat="54.578597" lon="-3.191995"><ele>220</ele><time>2019-10-02T15:32:19Z</time><name>PT16041</name></trkpt>
<trkpt lat="54.578601" lon="-3.191974"><ele>219</ele><time>2019-10-02T15:32:19Z</time><name>PT16042</name></trkpt>
<trkpt lat="54.578605" lon="-3.191961"><ele>219</ele><time>2019-10-02T15:32:21Z</time><name>PT16043</name></trkpt>
<trkpt lat="54.578607" lon="-3.191944"><ele>218</ele><time>2019-10-02T15:32:21Z</time><name>PT16044</name></trkpt>
<trkpt lat="54.578610" lon="-3.191927"><ele>218</ele><time>2019-10-02T15:32:23Z</time><name>PT16045</name></trkpt>
<trkpt lat="54.578612" lon="-3.191909"><ele>218</ele><time>2019-10-02T15:32:23Z</time><name>PT16046</name></trkpt>
<trkpt lat="54.578617" lon="-3.191898"><ele>218</ele><time>2019-10-02T15:32:25Z</time><name>PT16047</name></trkpt>
<trkpt lat="54.578623" lon="-3.191885"><ele>217</ele><time>2019-10-02T15:32:25Z</time><name>PT16048</name></trkpt>
<trkpt lat="54.578628" lon="-3.191877"><ele>217</ele><time>2019-10-02T15:32:27Z</time><name>PT16049</name></trkpt>
<trkpt lat="54.578633" lon="-3.191870"><ele>217</ele><time>2019-10-02T15:32:27Z</time><name>PT16050</name></trkpt>
<trkpt lat="54.578637" lon="-3.191867"><ele>216</ele><time>2019-10-02T15:32:29Z</time><name>PT16051</name></trkpt>
<trkpt lat="54.578640" lon="-3.191859"><ele>216</ele><time>2019-10-02T15:32:29Z</time><name>PT16052</name></trkpt>
<trkpt lat="54.578647" lon="-3.191850"><ele>216</ele><time>2019-10-02T15:32:31Z</time><name>PT16053</name></trkpt>
<trkpt lat="54.578652" lon="-3.191840"><ele>215</ele><time>2019-10-02T15:32:31Z</time><name>PT16054</name></trkpt>
<trkpt lat="54.578656" lon="-3.191826"><ele>215</ele><time>2019-10-02T15:32:33Z</time><name>PT16055</name></trkpt>
<trkpt lat="54.578664" lon="-3.191807"><ele>215</ele><time>2019-10-02T15:32:33Z</time><name>PT16056</name></trkpt>
<trkpt lat="54.578670" lon="-3.191790"><ele>215</ele><time>2019-10-02T15:32:35Z</time><name>PT16057</name></trkpt>
<trkpt lat="54.578675" lon="-3.191775"><ele>214</ele><time>2019-10-02T15:32:35Z</time><name>PT16058</name></trkpt>
<trkpt lat="54.578680" lon="-3.191758"><ele>214</ele><time>2019-10-02T15:32:37Z</time><name>PT16059</name></trkpt>
<trkpt lat="54.578684" lon="-3.191743"><ele>214</ele><time>2019-10-02T15:32:37Z</time><name>PT16060</name></trkpt>
<trkpt lat="54.578688" lon="-3.191726"><ele>214</ele><time>2019-10-02T15:32:39Z</time><name>PT16061</name></trkpt>
<trkpt lat="54.578690" lon="-3.191706"><ele>214</ele><time>2019-10-02T15:32:39Z</time><name>PT16062</name></trkpt>
<trkpt lat="54.578692" lon="-3.191688"><ele>213</ele><time>2019-10-02T15:32:41Z</time><name>PT16063</name></trkpt>
<trkpt lat="54.578692" lon="-3.191668"><ele>213</ele><time>2019-10-02T15:32:41Z</time><name>PT16064</name></trkpt>
<trkpt lat="54.578695" lon="-3.191653"><ele>212</ele><time>2019-10-02T15:32:43Z</time><name>PT16065</name></trkpt>
<trkpt lat="54.578700" lon="-3.191641"><ele>212</ele><time>2019-10-02T15:32:43Z</time><name>PT16066</name></trkpt>
<trkpt lat="54.578705" lon="-3.191630"><ele>212</ele><time>2019-10-02T15:32:45Z</time><name>PT16067</name></trkpt>
<trkpt lat="54.578709" lon="-3.191626"><ele>211</ele><time>2019-10-02T15:32:45Z</time><name>PT16068</name></trkpt>
<trkpt lat="54.578715" lon="-3.191622"><ele>211</ele><time>2019-10-02T15:32:47Z</time><name>PT16069</name></trkpt>
<trkpt lat="54.578721" lon="-3.191615"><ele>210</ele><time>2019-10-02T15:32:47Z</time><name>PT16070</name></trkpt>
<trkpt lat="54.578726" lon="-3.191606"><ele>210</ele><time>2019-10-02T15:32:49Z</time><name>PT16071</name></trkpt>
<trkpt lat="54.578734" lon="-3.191594"><ele>209</ele><time>2019-10-02T15:32:49Z</time><name>PT16072</name></trkpt>
<trkpt lat="54.578741" lon="-3.191579"><ele>209</ele><time>2019-10-02T15:32:51Z</time><name>PT16073</name></trkpt>
<trkpt lat="54.578746" lon="-3.191560"><ele>209</ele><time>2019-10-02T15:32:51Z</time><name>PT16074</name></trkpt>
<trkpt lat="54.578748" lon="-3.191543"><ele>209</ele><time>2019-10-02T15:32:53Z</time><name>PT16075</name></trkpt>
<trkpt lat="54.578747" lon="-3.191530"><ele>209</ele><time>2019-10-02T15:32:53Z</time><name>PT16076</name></trkpt>
<trkpt lat="54.578750" lon="-3.191515"><ele>208</ele><time>2019-10-02T15:32:55Z</time><name>PT16077</name></trkpt>
<trkpt lat="54.578755" lon="-3.191509"><ele>208</ele><time>2019-10-02T15:32:55Z</time><name>PT16078</name></trkpt>
<trkpt lat="54.578761" lon="-3.191502"><ele>208</ele><time>2019-10-02T15:32:57Z</time><name>PT16079</name></trkpt>
<trkpt lat="54.578765" lon="-3.191495"><ele>208</ele><time>2019-10-02T15:32:58Z</time><name>PT16080</name></trkpt>
<trkpt lat="54.578767" lon="-3.191485"><ele>208</ele><time>2019-10-02T15:32:59Z</time><name>PT16081</name></trkpt>
<trkpt lat="54.578771" lon="-3.191469"><ele>208</ele><time>2019-10-02T15:32:59Z</time><name>PT16082</name></trkpt>
<trkpt lat="54.578773" lon="-3.191453"><ele>207</ele><time>2019-10-02T15:33:01Z</time><name>PT16083</name></trkpt>
<trkpt lat="54.578775" lon="-3.191439"><ele>208</ele><time>2019-10-02T15:33:01Z</time><name>PT16084</name></trkpt>
<trkpt lat="54.578778" lon="-3.191429"><ele>207</ele><time>2019-10-02T15:33:03Z</time><name>PT16085</name></trkpt>
<trkpt lat="54.578779" lon="-3.191417"><ele>207</ele><time>2019-10-02T15:33:03Z</time><name>PT16086</name></trkpt>
<trkpt lat="54.578778" lon="-3.191408"><ele>207</ele><time>2019-10-02T15:33:05Z</time><name>PT16087</name></trkpt>
<trkpt lat="54.578777" lon="-3.191395"><ele>207</ele><time>2019-10-02T15:33:06Z</time><name>PT16088</name></trkpt>
<trkpt lat="54.578779" lon="-3.191385"><ele>206</ele><time>2019-10-02T15:33:07Z</time><name>PT16089</name></trkpt>
<trkpt lat="54.578782" lon="-3.191384"><ele>206</ele><time>2019-10-02T15:33:08Z</time><name>PT16090</name></trkpt>
<trkpt lat="54.578785" lon="-3.191380"><ele>205</ele><time>2019-10-02T15:33:09Z</time><name>PT16091</name></trkpt>
<trkpt lat="54.578790" lon="-3.191374"><ele>205</ele><time>2019-10-02T15:33:09Z</time><name>PT16092</name></trkpt>
<trkpt lat="54.578796" lon="-3.191366"><ele>205</ele><time>2019-10-02T15:33:11Z</time><name>PT16093</name></trkpt>
<trkpt lat="54.578797" lon="-3.191355"><ele>204</ele><time>2019-10-02T15:33:11Z</time><name>PT16094</name></trkpt>
<trkpt lat="54.578798" lon="-3.191346"><ele>204</ele><time>2019-10-02T15:33:13Z</time><name>PT16095</name></trkpt>
<trkpt lat="54.578803" lon="-3.191335"><ele>204</ele><time>2019-10-02T15:33:13Z</time><name>PT16096</name></trkpt>
<trkpt lat="54.578807" lon="-3.191322"><ele>204</ele><time>2019-10-02T15:33:15Z</time><name>PT16097</name></trkpt>
<trkpt lat="54.578811" lon="-3.191310"><ele>204</ele><time>2019-10-02T15:33:15Z</time><name>PT16098</name></trkpt>
<trkpt lat="54.578815" lon="-3.191297"><ele>204</ele><time>2019-10-02T15:33:17Z</time><name>PT16099</name></trkpt>
<trkpt lat="54.578823" lon="-3.191280"><ele>204</ele><time>2019-10-02T15:33:17Z</time><name>PT16100</name></trkpt>
<trkpt lat="54.578830" lon="-3.191263"><ele>204</ele><time>2019-10-02T15:33:19Z</time><name>PT16101</name></trkpt>
<trkpt lat="54.578837" lon="-3.191249"><ele>204</ele><time>2019-10-02T15:33:19Z</time><name>PT16102</name></trkpt>
<trkpt lat="54.578844" lon="-3.191237"><ele>204</ele><time>2019-10-02T15:33:21Z</time><name>PT16103</name></trkpt>
<trkpt lat="54.578848" lon="-3.191228"><ele>203</ele><time>2019-10-02T15:33:21Z</time><name>PT16104</name></trkpt>
<trkpt lat="54.578852" lon="-3.191221"><ele>202</ele><time>2019-10-02T15:33:23Z</time><name>PT16105</name></trkpt>
<trkpt lat="54.578856" lon="-3.191208"><ele>202</ele><time>2019-10-02T15:33:23Z</time><name>PT16106</name></trkpt>
<trkpt lat="54.578859" lon="-3.191195"><ele>201</ele><time>2019-10-02T15:33:25Z</time><name>PT16107</name></trkpt>
<trkpt lat="54.578865" lon="-3.191185"><ele>201</ele><time>2019-10-02T15:33:25Z</time><name>PT16108</name></trkpt>
<trkpt lat="54.578873" lon="-3.191172"><ele>201</ele><time>2019-10-02T15:33:27Z</time><name>PT16109</name></trkpt>
<trkpt lat="54.578882" lon="-3.191158"><ele>201</ele><time>2019-10-02T15:33:27Z</time><name>PT16110</name></trkpt>
<trkpt lat="54.578886" lon="-3.191147"><ele>200</ele><time>2019-10-02T15:33:29Z</time><name>PT16111</name></trkpt>
<trkpt lat="54.578893" lon="-3.191135"><ele>200</ele><time>2019-10-02T15:33:29Z</time><name>PT16112</name></trkpt>
<trkpt lat="54.578900" lon="-3.191123"><ele>200</ele><time>2019-10-02T15:33:31Z</time><name>PT16113</name></trkpt>
<trkpt lat="54.578906" lon="-3.191113"><ele>200</ele><time>2019-10-02T15:33:31Z</time><name>PT16114</name></trkpt>
<trkpt lat="54.578913" lon="-3.191100"><ele>200</ele><time>2019-10-02T15:33:33Z</time><name>PT16115</name></trkpt>
<trkpt lat="54.578921" lon="-3.191088"><ele>200</ele><time>2019-10-02T15:33:33Z</time><name>PT16116</name></trkpt>
<trkpt lat="54.578927" lon="-3.191074"><ele>200</ele><time>2019-10-02T15:33:35Z</time><name>PT16117</name></trkpt>
<trkpt lat="54.578931" lon="-3.191054"><ele>200</ele><time>2019-10-02T15:33:35Z</time><name>PT16118</name></trkpt>
<trkpt lat="54.578937" lon="-3.191039"><ele>200</ele><time>2019-10-02T15:33:37Z</time><name>PT16119</name></trkpt>
<trkpt lat="54.578941" lon="-3.191028"><ele>199</ele><time>2019-10-02T15:33:37Z</time><name>PT16120</name></trkpt>
<trkpt lat="54.578945" lon="-3.191018"><ele>199</ele><time>2019-10-02T15:33:39Z</time><name>PT16121</name></trkpt>
<trkpt lat="54.578955" lon="-3.191007"><ele>199</ele><time>2019-10-02T15:33:39Z</time><name>PT16122</name></trkpt>
<trkpt lat="54.578961" lon="-3.190986"><ele>199</ele><time>2019-10-02T15:33:41Z</time><name>PT16123</name></trkpt>
<trkpt lat="54.578966" lon="-3.190965"><ele>199</ele><time>2019-10-02T15:33:41Z</time><name>PT16124</name></trkpt>
<trkpt lat="54.578972" lon="-3.190947"><ele>199</ele><time>2019-10-02T15:33:43Z</time><name>PT16125</name></trkpt>
<trkpt lat="54.578975" lon="-3.190930"><ele>199</ele><time>2019-10-02T15:33:43Z</time><name>PT16126</name></trkpt>
<trkpt lat="54.578977" lon="-3.190915"><ele>198</ele><time>2019-10-02T15:33:45Z</time><name>PT16127</name></trkpt>
<trkpt lat="54.578984" lon="-3.190899"><ele>198</ele><time>2019-10-02T15:33:45Z</time><name>PT16128</name></trkpt>
<trkpt lat="54.578991" lon="-3.190885"><ele>198</ele><time>2019-10-02T15:33:47Z</time><name>PT16129</name></trkpt>
<trkpt lat="54.578996" lon="-3.190868"><ele>199</ele><time>2019-10-02T15:33:47Z</time><name>PT16130</name></trkpt>
<trkpt lat="54.579003" lon="-3.190852"><ele>198</ele><time>2019-10-02T15:33:49Z</time><name>PT16131</name></trkpt>
<trkpt lat="54.579009" lon="-3.190837"><ele>198</ele><time>2019-10-02T15:33:49Z</time><name>PT16132</name></trkpt>
<trkpt lat="54.579013" lon="-3.190822"><ele>198</ele><time>2019-10-02T15:33:51Z</time><name>PT16133</name></trkpt>
<trkpt lat="54.579020" lon="-3.190807"><ele>198</ele><time>2019-10-02T15:33:51Z</time><name>PT16134</name></trkpt>
<trkpt lat="54.579027" lon="-3.190794"><ele>198</ele><time>2019-10-02T15:33:53Z</time><name>PT16135</name></trkpt>
<trkpt lat="54.579031" lon="-3.190791"><ele>197</ele><time>2019-10-02T15:33:53Z</time><name>PT16136</name></trkpt>
<trkpt lat="54.579038" lon="-3.190786"><ele>197</ele><time>2019-10-02T15:33:55Z</time><name>PT16137</name></trkpt>
<trkpt lat="54.579047" lon="-3.190777"><ele>197</ele><time>2019-10-02T15:33:55Z</time><name>PT16138</name></trkpt>
<trkpt lat="54.579053" lon="-3.190765"><ele>197</ele><time>2019-10-02T15:33:57Z</time><name>PT16139</name></trkpt>
<trkpt lat="54.579059" lon="-3.190750"><ele>196</ele><time>2019-10-02T15:33:57Z</time><name>PT16140</name></trkpt>
<trkpt lat="54.579062" lon="-3.190733"><ele>196</ele><time>2019-10-02T15:33:59Z</time><name>PT16141</name></trkpt>
<trkpt lat="54.579067" lon="-3.190719"><ele>196</ele><time>2019-10-02T15:33:59Z</time><name>PT16142</name></trkpt>
<trkpt lat="54.579071" lon="-3.190706"><ele>196</ele><time>2019-10-02T15:34:01Z</time><name>PT16143</name></trkpt>
<trkpt lat="54.579076" lon="-3.190695"><ele>196</ele><time>2019-10-02T15:34:01Z</time><name>PT16144</name></trkpt>
<trkpt lat="54.579080" lon="-3.190682"><ele>195</ele><time>2019-10-02T15:34:03Z</time><name>PT16145</name></trkpt>
<trkpt lat="54.579084" lon="-3.190666"><ele>196</ele><time>2019-10-02T15:34:03Z</time><name>PT16146</name></trkpt>
<trkpt lat="54.579087" lon="-3.190651"><ele>196</ele><time>2019-10-02T15:34:05Z</time><name>PT16147</name></trkpt>
<trkpt lat="54.579088" lon="-3.190630"><ele>195</ele><time>2019-10-02T15:34:05Z</time><name>PT16148</name></trkpt>
<trkpt lat="54.579089" lon="-3.190611"><ele>195</ele><time>2019-10-02T15:34:07Z</time><name>PT16149</name></trkpt>
<trkpt lat="54.579089" lon="-3.190589"><ele>195</ele><time>2019-10-02T15:34:07Z</time><name>PT16150</name></trkpt>
<trkpt lat="54.579088" lon="-3.190570"><ele>195</ele><time>2019-10-02T15:34:09Z</time><name>PT16151</name></trkpt>
<trkpt lat="54.579091" lon="-3.190550"><ele>195</ele><time>2019-10-02T15:34:09Z</time><name>PT16152</name></trkpt>
<trkpt lat="54.579097" lon="-3.190533"><ele>195</ele><time>2019-10-02T15:34:11Z</time><name>PT16153</name></trkpt>
<trkpt lat="54.579104" lon="-3.190518"><ele>194</ele><time>2019-10-02T15:34:11Z</time><name>PT16154</name></trkpt>
<trkpt lat="54.579109" lon="-3.190500"><ele>194</ele><time>2019-10-02T15:34:13Z</time><name>PT16155</name></trkpt>
<trkpt lat="54.579116" lon="-3.190480"><ele>194</ele><time>2019-10-02T15:34:13Z</time><name>PT16156</name></trkpt>
<trkpt lat="54.579120" lon="-3.190464"><ele>194</ele><time>2019-10-02T15:34:15Z</time><name>PT16157</name></trkpt>
<trkpt lat="54.579123" lon="-3.190446"><ele>194</ele><time>2019-10-02T15:34:15Z</time><name>PT16158</name></trkpt>
<trkpt lat="54.579124" lon="-3.190429"><ele>193</ele><time>2019-10-02T15:34:17Z</time><name>PT16159</name></trkpt>
<trkpt lat="54.579125" lon="-3.190413"><ele>193</ele><time>2019-10-02T15:34:17Z</time><name>PT16160</name></trkpt>
<trkpt lat="54.579127" lon="-3.190397"><ele>192</ele><time>2019-10-02T15:34:19Z</time><name>PT16161</name></trkpt>
<trkpt lat="54.579131" lon="-3.190378"><ele>192</ele><time>2019-10-02T15:34:19Z</time><name>PT16162</name></trkpt>
<trkpt lat="54.579135" lon="-3.190361"><ele>191</ele><time>2019-10-02T15:34:21Z</time><name>PT16163</name></trkpt>
<trkpt lat="54.579137" lon="-3.190342"><ele>191</ele><time>2019-10-02T15:34:21Z</time><name>PT16164</name></trkpt>
<trkpt lat="54.579140" lon="-3.190326"><ele>191</ele><time>2019-10-02T15:34:23Z</time><name>PT16165</name></trkpt>
<trkpt lat="54.579139" lon="-3.190316"><ele>190</ele><time>2019-10-02T15:34:23Z</time><name>PT16166</name></trkpt>
<trkpt lat="54.579139" lon="-3.190301"><ele>190</ele><time>2019-10-02T15:34:25Z</time><name>PT16167</name></trkpt>
<trkpt lat="54.579140" lon="-3.190284"><ele>189</ele><time>2019-10-02T15:34:25Z</time><name>PT16168</name></trkpt>
<trkpt lat="54.579142" lon="-3.190267"><ele>189</ele><time>2019-10-02T15:34:27Z</time><name>PT16169</name></trkpt>
<trkpt lat="54.579143" lon="-3.190246"><ele>189</ele><time>2019-10-02T15:34:27Z</time><name>PT16170</name></trkpt>
<trkpt lat="54.579143" lon="-3.190226"><ele>188</ele><time>2019-10-02T15:34:29Z</time><name>PT16171</name></trkpt>
<trkpt lat="54.579143" lon="-3.190209"><ele>188</ele><time>2019-10-02T15:34:29Z</time><name>PT16172</name></trkpt>
<trkpt lat="54.579142" lon="-3.190190"><ele>187</ele><time>2019-10-02T15:34:31Z</time><name>PT16173</name></trkpt>
<trkpt lat="54.579145" lon="-3.190175"><ele>186</ele><time>2019-10-02T15:34:31Z</time><name>PT16174</name></trkpt>
<trkpt lat="54.579146" lon="-3.190155"><ele>186</ele><time>2019-10-02T15:34:33Z</time><name>PT16175</name></trkpt>
<trkpt lat="54.579147" lon="-3.190134"><ele>185</ele><time>2019-10-02T15:34:33Z</time><name>PT16176</name></trkpt>
<trkpt lat="54.579148" lon="-3.190113"><ele>185</ele><time>2019-10-02T15:34:35Z</time><name>PT16177</name></trkpt>
<trkpt lat="54.579149" lon="-3.190090"><ele>184</ele><time>2019-10-02T15:34:36Z</time><name>PT16178</name></trkpt>
<trkpt lat="54.579152" lon="-3.190074"><ele>184</ele><time>2019-10-02T15:34:37Z</time><name>PT16179</name></trkpt>
<trkpt lat="54.579154" lon="-3.190056"><ele>184</ele><time>2019-10-02T15:34:37Z</time><name>PT16180</name></trkpt>
<trkpt lat="54.579157" lon="-3.190035"><ele>184</ele><time>2019-10-02T15:34:39Z</time><name>PT16181</name></trkpt>
<trkpt lat="54.579161" lon="-3.190018"><ele>184</ele><time>2019-10-02T15:34:39Z</time><name>PT16182</name></trkpt>
<trkpt lat="54.579164" lon="-3.189998"><ele>184</ele><time>2019-10-02T15:34:41Z</time><name>PT16183</name></trkpt>
<trkpt lat="54.579166" lon="-3.189982"><ele>184</ele><time>2019-10-02T15:34:41Z</time><name>PT16184</name></trkpt>
<trkpt lat="54.579167" lon="-3.189964"><ele>184</ele><time>2019-10-02T15:34:43Z</time><name>PT16185</name></trkpt>
<trkpt lat="54.579168" lon="-3.189947"><ele>183</ele><time>2019-10-02T15:34:43Z</time><name>PT16186</name></trkpt>
<trkpt lat="54.579169" lon="-3.189927"><ele>183</ele><time>2019-10-02T15:34:45Z</time><name>PT16187</name></trkpt>
<trkpt lat="54.579171" lon="-3.189909"><ele>182</ele><time>2019-10-02T15:34:45Z</time><name>PT16188</name></trkpt>
<trkpt lat="54.579174" lon="-3.189891"><ele>182</ele><time>2019-10-02T15:34:47Z</time><name>PT16189</name></trkpt>
<trkpt lat="54.579175" lon="-3.189872"><ele>181</ele><time>2019-10-02T15:34:47Z</time><name>PT16190</name></trkpt>
<trkpt lat="54.579177" lon="-3.189856"><ele>181</ele><time>2019-10-02T15:34:49Z</time><name>PT16191</name></trkpt>
<trkpt lat="54.579180" lon="-3.189840"><ele>181</ele><time>2019-10-02T15:34:49Z</time><name>PT16192</name></trkpt>
<trkpt lat="54.579183" lon="-3.189822"><ele>181</ele><time>2019-10-02T15:34:51Z</time><name>PT16193</name></trkpt>
<trkpt lat="54.579183" lon="-3.189807"><ele>180</ele><time>2019-10-02T15:34:52Z</time><name>PT16194</name></trkpt>
<trkpt lat="54.579185" lon="-3.189790"><ele>180</ele><time>2019-10-02T15:34:53Z</time><name>PT16195</name></trkpt>
<trkpt lat="54.579188" lon="-3.189772"><ele>180</ele><time>2019-10-02T15:34:53Z</time><name>PT16196</name></trkpt>
<trkpt lat="54.579190" lon="-3.189753"><ele>180</ele><time>2019-10-02T15:34:55Z</time><name>PT16197</name></trkpt>
<trkpt lat="54.579193" lon="-3.189737"><ele>179</ele><time>2019-10-02T15:34:55Z</time><name>PT16198</name></trkpt>
<trkpt lat="54.579197" lon="-3.189720"><ele>179</ele><time>2019-10-02T15:34:57Z</time><name>PT16199</name></trkpt>
<trkpt lat="54.579199" lon="-3.189704"><ele>179</ele><time>2019-10-02T15:34:57Z</time><name>PT16200</name></trkpt>
<trkpt lat="54.579200" lon="-3.189690"><ele>179</ele><time>2019-10-02T15:34:59Z</time><name>PT16201</name></trkpt>
<trkpt lat="54.579202" lon="-3.189673"><ele>179</ele><time>2019-10-02T15:34:59Z</time><name>PT16202</name></trkpt>
<trkpt lat="54.579207" lon="-3.189656"><ele>178</ele><time>2019-10-02T15:35:01Z</time><name>PT16203</name></trkpt>
<trkpt lat="54.579211" lon="-3.189639"><ele>178</ele><time>2019-10-02T15:35:01Z</time><name>PT16204</name></trkpt>
<trkpt lat="54.579213" lon="-3.189619"><ele>178</ele><time>2019-10-02T15:35:03Z</time><name>PT16205</name></trkpt>
<trkpt lat="54.579215" lon="-3.189600"><ele>178</ele><time>2019-10-02T15:35:03Z</time><name>PT16206</name></trkpt>
<trkpt lat="54.579219" lon="-3.189581"><ele>178</ele><time>2019-10-02T15:35:05Z</time><name>PT16207</name></trkpt>
<trkpt lat="54.579223" lon="-3.189568"><ele>178</ele><time>2019-10-02T15:35:05Z</time><name>PT16208</name></trkpt>
<trkpt lat="54.579235" lon="-3.189544"><ele>177</ele><time>2019-10-02T15:35:07Z</time><name>PT16209</name></trkpt>
<trkpt lat="54.579244" lon="-3.189530"><ele>177</ele><time>2019-10-02T15:35:07Z</time><name>PT16210</name></trkpt>
<trkpt lat="54.579252" lon="-3.189510"><ele>176</ele><time>2019-10-02T15:35:09Z</time><name>PT16211</name></trkpt>
<trkpt lat="54.579254" lon="-3.189494"><ele>176</ele><time>2019-10-02T15:35:09Z</time><name>PT16212</name></trkpt>
<trkpt lat="54.579256" lon="-3.189475"><ele>175</ele><time>2019-10-02T15:35:11Z</time><name>PT16213</name></trkpt>
<trkpt lat="54.579256" lon="-3.189461"><ele>174</ele><time>2019-10-02T15:35:11Z</time><name>PT16214</name></trkpt>
<trkpt lat="54.579254" lon="-3.189447"><ele>174</ele><time>2019-10-02T15:35:13Z</time><name>PT16215</name></trkpt>
<trkpt lat="54.579260" lon="-3.189436"><ele>175</ele><time>2019-10-02T15:35:13Z</time><name>PT16216</name></trkpt>
<trkpt lat="54.579266" lon="-3.189427"><ele>174</ele><time>2019-10-02T15:35:15Z</time><name>PT16217</name></trkpt>
<trkpt lat="54.579272" lon="-3.189417"><ele>174</ele><time>2019-10-02T15:35:15Z</time><name>PT16218</name></trkpt>
<trkpt lat="54.579277" lon="-3.189407"><ele>174</ele><time>2019-10-02T15:35:17Z</time><name>PT16219</name></trkpt>
<trkpt lat="54.579284" lon="-3.189399"><ele>173</ele><time>2019-10-02T15:35:17Z</time><name>PT16220</name></trkpt>
<trkpt lat="54.579288" lon="-3.189393"><ele>173</ele><time>2019-10-02T15:35:19Z</time><name>PT16221</name></trkpt>
<trkpt lat="54.579296" lon="-3.189389"><ele>173</ele><time>2019-10-02T15:35:19Z</time><name>PT16222</name></trkpt>
<trkpt lat="54.579303" lon="-3.189382"><ele>172</ele><time>2019-10-02T15:35:21Z</time><name>PT16223</name></trkpt>
<trkpt lat="54.579304" lon="-3.189369"><ele>172</ele><time>2019-10-02T15:35:21Z</time><name>PT16224</name></trkpt>
<trkpt lat="54.579305" lon="-3.189356"><ele>171</ele><time>2019-10-02T15:35:23Z</time><name>PT16225</name></trkpt>
<trkpt lat="54.579308" lon="-3.189342"><ele>171</ele><time>2019-10-02T15:35:23Z</time><name>PT16226</name></trkpt>
<trkpt lat="54.579313" lon="-3.189330"><ele>171</ele><time>2019-10-02T15:35:25Z</time><name>PT16227</name></trkpt>
<trkpt lat="54.579318" lon="-3.189323"><ele>170</ele><time>2019-10-02T15:35:25Z</time><name>PT16228</name></trkpt>
<trkpt lat="54.579324" lon="-3.189317"><ele>170</ele><time>2019-10-02T15:35:27Z</time><name>PT16229</name></trkpt>
<trkpt lat="54.579332" lon="-3.189315"><ele>170</ele><time>2019-10-02T15:35:27Z</time><name>PT16230</name></trkpt>
<trkpt lat="54.579340" lon="-3.189307"><ele>169</ele><time>2019-10-02T15:35:29Z</time><name>PT16231</name></trkpt>
<trkpt lat="54.579343" lon="-3.189300"><ele>169</ele><time>2019-10-02T15:35:29Z</time><name>PT16232</name></trkpt>
<trkpt lat="54.579344" lon="-3.189290"><ele>168</ele><time>2019-10-02T15:35:31Z</time><name>PT16233</name></trkpt>
<trkpt lat="54.579349" lon="-3.189278"><ele>168</ele><time>2019-10-02T15:35:31Z</time><name>PT16234</name></trkpt>
<trkpt lat="54.579353" lon="-3.189272"><ele>168</ele><time>2019-10-02T15:35:33Z</time><name>PT16235</name></trkpt>
<trkpt lat="54.579360" lon="-3.189263"><ele>168</ele><time>2019-10-02T15:35:33Z</time><name>PT16236</name></trkpt>
<trkpt lat="54.579366" lon="-3.189257"><ele>168</ele><time>2019-10-02T15:35:35Z</time><name>PT16237</name></trkpt>
<trkpt lat="54.579374" lon="-3.189246"><ele>168</ele><time>2019-10-02T15:35:35Z</time><name>PT16238</name></trkpt>
<trkpt lat="54.579378" lon="-3.189236"><ele>167</ele><time>2019-10-02T15:35:37Z</time><name>PT16239</name></trkpt>
<trkpt lat="54.579382" lon="-3.189223"><ele>167</ele><time>2019-10-02T15:35:37Z</time><name>PT16240</name></trkpt>
<trkpt lat="54.579385" lon="-3.189212"><ele>167</ele><time>2019-10-02T15:35:39Z</time><name>PT16241</name></trkpt>
<trkpt lat="54.579387" lon="-3.189200"><ele>167</ele><time>2019-10-02T15:35:39Z</time><name>PT16242</name></trkpt>
<trkpt lat="54.579391" lon="-3.189190"><ele>167</ele><time>2019-10-02T15:35:41Z</time><name>PT16243</name></trkpt>
<trkpt lat="54.579396" lon="-3.189186"><ele>166</ele><time>2019-10-02T15:35:41Z</time><name>PT16244</name></trkpt>
<trkpt lat="54.579403" lon="-3.189183"><ele>166</ele><time>2019-10-02T15:35:43Z</time><name>PT16245</name></trkpt>
<trkpt lat="54.579408" lon="-3.189180"><ele>166</ele><time>2019-10-02T15:35:43Z</time><name>PT16246</name></trkpt>
<trkpt lat="54.579414" lon="-3.189176"><ele>166</ele><time>2019-10-02T15:35:45Z</time><name>PT16247</name></trkpt>
<trkpt lat="54.579419" lon="-3.189175"><ele>166</ele><time>2019-10-02T15:35:45Z</time><name>PT16248</name></trkpt>
<trkpt lat="54.579422" lon="-3.189167"><ele>166</ele><time>2019-10-02T15:35:47Z</time><name>PT16249</name></trkpt>
<trkpt lat="54.579424" lon="-3.189162"><ele>165</ele><time>2019-10-02T15:35:47Z</time><name>PT16250</name></trkpt>
<trkpt lat="54.579430" lon="-3.189153"><ele>165</ele><time>2019-10-02T15:35:49Z</time><name>PT16251</name></trkpt>
<trkpt lat="54.579435" lon="-3.189138"><ele>164</ele><time>2019-10-02T15:35:49Z</time><name>PT16252</name></trkpt>
<trkpt lat="54.579440" lon="-3.189127"><ele>164</ele><time>2019-10-02T15:35:51Z</time><name>PT16253</name></trkpt>
<trkpt lat="54.579444" lon="-3.189118"><ele>164</ele><time>2019-10-02T15:35:51Z</time><name>PT16254</name></trkpt>
<trkpt lat="54.579449" lon="-3.189110"><ele>164</ele><time>2019-10-02T15:35:53Z</time><name>PT16255</name></trkpt>
<trkpt lat="54.579452" lon="-3.189108"><ele>163</ele><time>2019-10-02T15:35:53Z</time><name>PT16256</name></trkpt>
<trkpt lat="54.579456" lon="-3.189110"><ele>163</ele><time>2019-10-02T15:35:55Z</time><name>PT16257</name></trkpt>
<trkpt lat="54.579462" lon="-3.189108"><ele>163</ele><time>2019-10-02T15:35:55Z</time><name>PT16258</name></trkpt>
<trkpt lat="54.579466" lon="-3.189104"><ele>162</ele><time>2019-10-02T15:35:57Z</time><name>PT16259</name></trkpt>
<trkpt lat="54.579470" lon="-3.189098"><ele>162</ele><time>2019-10-02T15:35:57Z</time><name>PT16260</name></trkpt>
<trkpt lat="54.579476" lon="-3.189095"><ele>161</ele><time>2019-10-02T15:35:59Z</time><name>PT16261</name></trkpt>
<trkpt lat="54.579479" lon="-3.189095"><ele>161</ele><time>2019-10-02T15:36:00Z</time><name>PT16262</name></trkpt>
<trkpt lat="54.579485" lon="-3.189097"><ele>160</ele><time>2019-10-02T15:36:01Z</time><name>PT16263</name></trkpt>
<trkpt lat="54.579493" lon="-3.189091"><ele>160</ele><time>2019-10-02T15:36:01Z</time><name>PT16264</name></trkpt>
<trkpt lat="54.579500" lon="-3.189082"><ele>160</ele><time>2019-10-02T15:36:03Z</time><name>PT16265</name></trkpt>
<trkpt lat="54.579508" lon="-3.189067"><ele>160</ele><time>2019-10-02T15:36:03Z</time><name>PT16266</name></trkpt>
<trkpt lat="54.579514" lon="-3.189051"><ele>160</ele><time>2019-10-02T15:36:05Z</time><name>PT16267</name></trkpt>
<trkpt lat="54.579519" lon="-3.189042"><ele>159</ele><time>2019-10-02T15:36:05Z</time><name>PT16268</name></trkpt>
<trkpt lat="54.579523" lon="-3.189032"><ele>159</ele><time>2019-10-02T15:36:07Z</time><name>PT16269</name></trkpt>
<trkpt lat="54.579527" lon="-3.189022"><ele>159</ele><time>2019-10-02T15:36:07Z</time><name>PT16270</name></trkpt>
<trkpt lat="54.579534" lon="-3.189013"><ele>158</ele><time>2019-10-02T15:36:09Z</time><name>PT16271</name></trkpt>
<trkpt lat="54.579538" lon="-3.189007"><ele>158</ele><time>2019-10-02T15:36:09Z</time><name>PT16272</name></trkpt>
<trkpt lat="54.579542" lon="-3.189006"><ele>158</ele><time>2019-10-02T15:36:11Z</time><name>PT16273</name></trkpt>
<trkpt lat="54.579547" lon="-3.189002"><ele>158</ele><time>2019-10-02T15:36:11Z</time><name>PT16274</name></trkpt>
<trkpt lat="54.579551" lon="-3.188998"><ele>157</ele><time>2019-10-02T15:36:13Z</time><name>PT16275</name></trkpt>
<trkpt lat="54.579556" lon="-3.188992"><ele>157</ele><time>2019-10-02T15:36:13Z</time><name>PT16276</name></trkpt>
<trkpt lat="54.579558" lon="-3.188981"><ele>157</ele><time>2019-10-02T15:36:15Z</time><name>PT16277</name></trkpt>
<trkpt lat="54.579565" lon="-3.188971"><ele>157</ele><time>2019-10-02T15:36:15Z</time><name>PT16278</name></trkpt>
<trkpt lat="54.579573" lon="-3.188966"><ele>156</ele><time>2019-10-02T15:36:17Z</time><name>PT16279</name></trkpt>
<trkpt lat="54.579582" lon="-3.188957"><ele>156</ele><time>2019-10-02T15:36:17Z</time><name>PT16280</name></trkpt>
<trkpt lat="54.579587" lon="-3.188948"><ele>156</ele><time>2019-10-02T15:36:19Z</time><name>PT16281</name></trkpt>
<trkpt lat="54.579592" lon="-3.188939"><ele>156</ele><time>2019-10-02T15:36:19Z</time><name>PT16282</name></trkpt>
<trkpt lat="54.579596" lon="-3.188929"><ele>156</ele><time>2019-10-02T15:36:21Z</time><name>PT16283</name></trkpt>
<trkpt lat="54.579603" lon="-3.188921"><ele>156</ele><time>2019-10-02T15:36:21Z</time><name>PT16284</name></trkpt>
<trkpt lat="54.579609" lon="-3.188913"><ele>156</ele><time>2019-10-02T15:36:23Z</time><name>PT16285</name></trkpt>
<trkpt lat="54.579615" lon="-3.188902"><ele>155</ele><time>2019-10-02T15:36:23Z</time><name>PT16286</name></trkpt>
<trkpt lat="54.579619" lon="-3.188890"><ele>155</ele><time>2019-10-02T15:36:25Z</time><name>PT16287</name></trkpt>
<trkpt lat="54.579623" lon="-3.188876"><ele>154</ele><time>2019-10-02T15:36:26Z</time><name>PT16288</name></trkpt>
<trkpt lat="54.579627" lon="-3.188861"><ele>154</ele><time>2019-10-02T15:36:27Z</time><name>PT16289</name></trkpt>
<trkpt lat="54.579628" lon="-3.188853"><ele>154</ele><time>2019-10-02T15:36:28Z</time><name>PT16290</name></trkpt>
<trkpt lat="54.579633" lon="-3.188843"><ele>153</ele><time>2019-10-02T15:36:29Z</time><name>PT16291</name></trkpt>
<trkpt lat="54.579641" lon="-3.188837"><ele>152</ele><time>2019-10-02T15:36:29Z</time><name>PT16292</name></trkpt>
<trkpt lat="54.579648" lon="-3.188835"><ele>152</ele><time>2019-10-02T15:36:31Z</time><name>PT16293</name></trkpt>
<trkpt lat="54.579655" lon="-3.188831"><ele>152</ele><time>2019-10-02T15:36:31Z</time><name>PT16294</name></trkpt>
<trkpt lat="54.579660" lon="-3.188823"><ele>152</ele><time>2019-10-02T15:36:33Z</time><name>PT16295</name></trkpt>
<trkpt lat="54.579668" lon="-3.188816"><ele>151</ele><time>2019-10-02T15:36:33Z</time><name>PT16296</name></trkpt>
<trkpt lat="54.579677" lon="-3.188813"><ele>151</ele><time>2019-10-02T15:36:35Z</time><name>PT16297</name></trkpt>
<trkpt lat="54.579682" lon="-3.188810"><ele>151</ele><time>2019-10-02T15:36:35Z</time><name>PT16298</name></trkpt>
<trkpt lat="54.579689" lon="-3.188799"><ele>151</ele><time>2019-10-02T15:36:37Z</time><name>PT16299</name></trkpt>
<trkpt lat="54.579692" lon="-3.188783"><ele>150</ele><time>2019-10-02T15:36:37Z</time><name>PT16300</name></trkpt>
<trkpt lat="54.579697" lon="-3.188766"><ele>150</ele><time>2019-10-02T15:36:39Z</time><name>PT16301</name></trkpt>
<trkpt lat="54.579703" lon="-3.188754"><ele>150</ele><time>2019-10-02T15:36:39Z</time><name>PT16302</name></trkpt>
<trkpt lat="54.579709" lon="-3.188742"><ele>150</ele><time>2019-10-02T15:36:41Z</time><name>PT16303</name></trkpt>
<trkpt lat="54.579718" lon="-3.188728"><ele>150</ele><time>2019-10-02T15:36:41Z</time><name>PT16304</name></trkpt>
<trkpt lat="54.579723" lon="-3.188720"><ele>150</ele><time>2019-10-02T15:36:43Z</time><name>PT16305</name></trkpt>
<trkpt lat="54.579730" lon="-3.188708"><ele>149</ele><time>2019-10-02T15:36:43Z</time><name>PT16306</name></trkpt>
<trkpt lat="54.579738" lon="-3.188698"><ele>149</ele><time>2019-10-02T15:36:45Z</time><name>PT16307</name></trkpt>
<trkpt lat="54.579745" lon="-3.188694"><ele>149</ele><time>2019-10-02T15:36:45Z</time><name>PT16308</name></trkpt>
<trkpt lat="54.579749" lon="-3.188696"><ele>149</ele><time>2019-10-02T15:36:47Z</time><name>PT16309</name></trkpt>
<trkpt lat="54.579756" lon="-3.188698"><ele>148</ele><time>2019-10-02T15:36:47Z</time><name>PT16310</name></trkpt>
<trkpt lat="54.579762" lon="-3.188695"><ele>148</ele><time>2019-10-02T15:36:49Z</time><name>PT16311</name></trkpt>
<trkpt lat="54.579769" lon="-3.188686"><ele>148</ele><time>2019-10-02T15:36:49Z</time><name>PT16312</name></trkpt>
<trkpt lat="54.579777" lon="-3.188674"><ele>148</ele><time>2019-10-02T15:36:51Z</time><name>PT16313</name></trkpt>
<trkpt lat="54.579783" lon="-3.188660"><ele>148</ele><time>2019-10-02T15:36:51Z</time><name>PT16314</name></trkpt>
<trkpt lat="54.579793" lon="-3.188647"><ele>147</ele><time>2019-10-02T15:36:53Z</time><name>PT16315</name></trkpt>
<trkpt lat="54.579803" lon="-3.188640"><ele>147</ele><time>2019-10-02T15:36:53Z</time><name>PT16316</name></trkpt>
<trkpt lat="54.579810" lon="-3.188640"><ele>147</ele><time>2019-10-02T15:36:55Z</time><name>PT16317</name></trkpt>
<trkpt lat="54.579813" lon="-3.188642"><ele>146</ele><time>2019-10-02T15:36:55Z</time><name>PT16318</name></trkpt>
<trkpt lat="54.579816" lon="-3.188643"><ele>146</ele><time>2019-10-02T15:36:57Z</time><name>PT16319</name></trkpt>
<trkpt lat="54.579819" lon="-3.188646"><ele>146</ele><time>2019-10-02T15:36:57Z</time><name>PT16320</name></trkpt>
<trkpt lat="54.579821" lon="-3.188654"><ele>146</ele><time>2019-10-02T15:37:01Z</time><name>PT16321</name></trkpt>
<trkpt lat="54.579825" lon="-3.188660"><ele>146</ele><time>2019-10-02T15:37:01Z</time><name>PT16322</name></trkpt>
<trkpt lat="54.579831" lon="-3.188660"><ele>145</ele><time>2019-10-02T15:37:03Z</time><name>PT16323</name></trkpt>
<trkpt lat="54.579835" lon="-3.188654"><ele>145</ele><time>2019-10-02T15:37:03Z</time><name>PT16324</name></trkpt>
<trkpt lat="54.579837" lon="-3.188639"><ele>145</ele><time>2019-10-02T15:37:05Z</time><name>PT16325</name></trkpt>
<trkpt lat="54.579839" lon="-3.188624"><ele>145</ele><time>2019-10-02T15:37:05Z</time><name>PT16326</name></trkpt>
<trkpt lat="54.579845" lon="-3.188604"><ele>145</ele><time>2019-10-02T15:37:07Z</time><name>PT16327</name></trkpt>
<trkpt lat="54.579851" lon="-3.188589"><ele>144</ele><time>2019-10-02T15:37:07Z</time><name>PT16328</name></trkpt>
<trkpt lat="54.579857" lon="-3.188575"><ele>144</ele><time>2019-10-02T15:37:09Z</time><name>PT16329</name></trkpt>
<trkpt lat="54.579864" lon="-3.188560"><ele>144</ele><time>2019-10-02T15:37:09Z</time><name>PT16330</name></trkpt>
<trkpt lat="54.579871" lon="-3.188544"><ele>143</ele><time>2019-10-02T15:37:11Z</time><name>PT16331</name></trkpt>
<trkpt lat="54.579879" lon="-3.188531"><ele>143</ele><time>2019-10-02T15:37:11Z</time><name>PT16332</name></trkpt>
<trkpt lat="54.579886" lon="-3.188522"><ele>142</ele><time>2019-10-02T15:37:13Z</time><name>PT16333</name></trkpt>
<trkpt lat="54.579896" lon="-3.188513"><ele>142</ele><time>2019-10-02T15:37:13Z</time><name>PT16334</name></trkpt>
<trkpt lat="54.579906" lon="-3.188504"><ele>142</ele><time>2019-10-02T15:37:15Z</time><name>PT16335</name></trkpt>
<trkpt lat="54.579911" lon="-3.188494"><ele>142</ele><time>2019-10-02T15:37:15Z</time><name>PT16336</name></trkpt>
<trkpt lat="54.579919" lon="-3.188484"><ele>142</ele><time>2019-10-02T15:37:17Z</time><name>PT16337</name></trkpt>
<trkpt lat="54.579928" lon="-3.188472"><ele>141</ele><time>2019-10-02T15:37:17Z</time><name>PT16338</name></trkpt>
<trkpt lat="54.579938" lon="-3.188459"><ele>141</ele><time>2019-10-02T15:37:19Z</time><name>PT16339</name></trkpt>
<trkpt lat="54.579947" lon="-3.188450"><ele>141</ele><time>2019-10-02T15:37:19Z</time><name>PT16340</name></trkpt>
<trkpt lat="54.579957" lon="-3.188446"><ele>141</ele><time>2019-10-02T15:37:21Z</time><name>PT16341</name></trkpt>
<trkpt lat="54.579967" lon="-3.188448"><ele>141</ele><time>2019-10-02T15:37:21Z</time><name>PT16342</name></trkpt>
<trkpt lat="54.579974" lon="-3.188454"><ele>140</ele><time>2019-10-02T15:37:23Z</time><name>PT16343</name></trkpt>
<trkpt lat="54.579975" lon="-3.188457"><ele>140</ele><time>2019-10-02T15:37:23Z</time><name>PT16344</name></trkpt>
<trkpt lat="54.579975" lon="-3.188454"><ele>140</ele><time>2019-10-02T15:37:25Z</time><name>PT16345</name></trkpt>
<trkpt lat="54.579974" lon="-3.188451"><ele>141</ele><time>2019-10-02T15:37:25Z</time><name>PT16346</name></trkpt>
<trkpt lat="54.579974" lon="-3.188447"><ele>141</ele><time>2019-10-02T15:37:35Z</time><name>PT16347</name></trkpt>
<trkpt lat="54.579981" lon="-3.188434"><ele>141</ele><time>2019-10-02T15:37:37Z</time><name>PT16348</name></trkpt>
<trkpt lat="54.579990" lon="-3.188426"><ele>140</ele><time>2019-10-02T15:37:37Z</time><name>PT16349</name></trkpt>
<trkpt lat="54.579999" lon="-3.188421"><ele>140</ele><time>2019-10-02T15:37:38Z</time><name>PT16350</name></trkpt>
<trkpt lat="54.580005" lon="-3.188413"><ele>140</ele><time>2019-10-02T15:37:40Z</time><name>PT16351</name></trkpt>
<trkpt lat="54.580011" lon="-3.188402"><ele>139</ele><time>2019-10-02T15:37:40Z</time><name>PT16352</name></trkpt>
<trkpt lat="54.580016" lon="-3.188385"><ele>139</ele><time>2019-10-02T15:37:42Z</time><name>PT16353</name></trkpt>
<trkpt lat="54.580024" lon="-3.188369"><ele>139</ele><time>2019-10-02T15:37:42Z</time><name>PT16354</name></trkpt>
<trkpt lat="54.580034" lon="-3.188359"><ele>139</ele><time>2019-10-02T15:37:44Z</time><name>PT16355</name></trkpt>
<trkpt lat="54.580043" lon="-3.188354"><ele>139</ele><time>2019-10-02T15:37:44Z</time><name>PT16356</name></trkpt>
<trkpt lat="54.580049" lon="-3.188359"><ele>139</ele><time>2019-10-02T15:37:46Z</time><name>PT16357</name></trkpt>
<trkpt lat="54.580051" lon="-3.188361"><ele>139</ele><time>2019-10-02T15:37:46Z</time><name>PT16358</name></trkpt>
<trkpt lat="54.580052" lon="-3.188361"><ele>139</ele><time>2019-10-02T15:37:48Z</time><name>PT16359</name></trkpt>
<trkpt lat="54.580054" lon="-3.188361"><ele>139</ele><time>2019-10-02T15:37:48Z</time><name>PT16360</name></trkpt>
<trkpt lat="54.580055" lon="-3.188364"><ele>139</ele><time>2019-10-02T15:38:00Z</time><name>PT16361</name></trkpt>
<trkpt lat="54.580063" lon="-3.188367"><ele>138</ele><time>2019-10-02T15:38:02Z</time><name>PT16362</name></trkpt>
<trkpt lat="54.580070" lon="-3.188370"><ele>138</ele><time>2019-10-02T15:38:02Z</time><name>PT16363</name></trkpt>
<trkpt lat="54.580074" lon="-3.188363"><ele>138</ele><time>2019-10-02T15:38:04Z</time><name>PT16364</name></trkpt>
<trkpt lat="54.580075" lon="-3.188356"><ele>138</ele><time>2019-10-02T15:38:04Z</time><name>PT16365</name></trkpt>
<trkpt lat="54.580074" lon="-3.188350"><ele>137</ele><time>2019-10-02T15:38:06Z</time><name>PT16366</name></trkpt>
<trkpt lat="54.580077" lon="-3.188338"><ele>137</ele><time>2019-10-02T15:38:06Z</time><name>PT16367</name></trkpt>
<trkpt lat="54.580083" lon="-3.188329"><ele>136</ele><time>2019-10-02T15:38:08Z</time><name>PT16368</name></trkpt>
<trkpt lat="54.580089" lon="-3.188319"><ele>136</ele><time>2019-10-02T15:38:08Z</time><name>PT16369</name></trkpt>
<trkpt lat="54.580096" lon="-3.188308"><ele>136</ele><time>2019-10-02T15:38:10Z</time><name>PT16370</name></trkpt>
<trkpt lat="54.580109" lon="-3.188305"><ele>135</ele><time>2019-10-02T15:38:10Z</time><name>PT16371</name></trkpt>
<trkpt lat="54.580119" lon="-3.188317"><ele>136</ele><time>2019-10-02T15:38:12Z</time><name>PT16372</name></trkpt>
<trkpt lat="54.580127" lon="-3.188342"><ele>135</ele><time>2019-10-02T15:38:12Z</time><name>PT16373</name></trkpt>
<trkpt lat="54.580136" lon="-3.188365"><ele>134</ele><time>2019-10-02T15:38:14Z</time><name>PT16374</name></trkpt>
<trkpt lat="54.580145" lon="-3.188382"><ele>134</ele><time>2019-10-02T15:38:14Z</time><name>PT16375</name></trkpt>
<trkpt lat="54.580154" lon="-3.188399"><ele>133</ele><time>2019-10-02T15:38:16Z</time><name>PT16376</name></trkpt>
<trkpt lat="54.580161" lon="-3.188420"><ele>133</ele><time>2019-10-02T15:38:16Z</time><name>PT16377</name></trkpt>
<trkpt lat="54.580165" lon="-3.188441"><ele>133</ele><time>2019-10-02T15:38:18Z</time><name>PT16378</name></trkpt>
<trkpt lat="54.580169" lon="-3.188462"><ele>133</ele><time>2019-10-02T15:38:18Z</time><name>PT16379</name></trkpt>
<trkpt lat="54.580173" lon="-3.188482"><ele>133</ele><time>2019-10-02T15:38:20Z</time><name>PT16380</name></trkpt>
<trkpt lat="54.580177" lon="-3.188501"><ele>132</ele><time>2019-10-02T15:38:20Z</time><name>PT16381</name></trkpt>
<trkpt lat="54.580183" lon="-3.188522"><ele>132</ele><time>2019-10-02T15:38:22Z</time><name>PT16382</name></trkpt>
<trkpt lat="54.580189" lon="-3.188541"><ele>132</ele><time>2019-10-02T15:38:22Z</time><name>PT16383</name></trkpt>
<trkpt lat="54.580195" lon="-3.188559"><ele>132</ele><time>2019-10-02T15:38:24Z</time><name>PT16384</name></trkpt>
<trkpt lat="54.580199" lon="-3.188577"><ele>132</ele><time>2019-10-02T15:38:24Z</time><name>PT16385</name></trkpt>
<trkpt lat="54.580207" lon="-3.188596"><ele>131</ele><time>2019-10-02T15:38:26Z</time><name>PT16386</name></trkpt>
<trkpt lat="54.580214" lon="-3.188615"><ele>131</ele><time>2019-10-02T15:38:26Z</time><name>PT16387</name></trkpt>
<trkpt lat="54.580219" lon="-3.188632"><ele>131</ele><time>2019-10-02T15:38:28Z</time><name>PT16388</name></trkpt>
<trkpt lat="54.580222" lon="-3.188650"><ele>131</ele><time>2019-10-02T15:38:28Z</time><name>PT16389</name></trkpt>
<trkpt lat="54.580225" lon="-3.188663"><ele>131</ele><time>2019-10-02T15:38:30Z</time><name>PT16390</name></trkpt>
<trkpt lat="54.580233" lon="-3.188674"><ele>131</ele><time>2019-10-02T15:38:31Z</time><name>PT16391</name></trkpt>
<trkpt lat="54.580239" lon="-3.188688"><ele>131</ele><time>2019-10-02T15:38:32Z</time><name>PT16392</name></trkpt>
<trkpt lat="54.580242" lon="-3.188699"><ele>131</ele><time>2019-10-02T15:38:32Z</time><name>PT16393</name></trkpt>
<trkpt lat="54.580244" lon="-3.188708"><ele>131</ele><time>2019-10-02T15:38:34Z</time><name>PT16394</name></trkpt>
<trkpt lat="54.580242" lon="-3.188716"><ele>131</ele><time>2019-10-02T15:38:34Z</time><name>PT16395</name></trkpt>
<trkpt lat="54.580241" lon="-3.188716"><ele>131</ele><time>2019-10-02T15:38:36Z</time><name>PT16396</name></trkpt>
<trkpt lat="54.580241" lon="-3.188713"><ele>131</ele><time>2019-10-02T15:38:37Z</time><name>PT16397</name></trkpt>
<trkpt lat="54.580240" lon="-3.188713"><ele>131</ele><time>2019-10-02T15:38:38Z</time><name>PT16398</name></trkpt>
<trkpt lat="54.580240" lon="-3.188713"><ele>131</ele><time>2019-10-02T15:38:38Z</time><name>PT16399</name></trkpt>
<trkpt lat="54.580242" lon="-3.188712"><ele>131</ele><time>2019-10-02T15:38:43Z</time><name>PT16400</name></trkpt>
<trkpt lat="54.580241" lon="-3.188714"><ele>130</ele><time>2019-10-02T15:38:43Z</time><name>PT16401</name></trkpt>
<trkpt lat="54.580238" lon="-3.188713"><ele>131</ele><time>2019-10-02T15:38:45Z</time><name>PT16402</name></trkpt>
<trkpt lat="54.580237" lon="-3.188713"><ele>131</ele><time>2019-10-02T15:38:45Z</time><name>PT16403</name></trkpt>
<trkpt lat="54.580239" lon="-3.188708"><ele>131</ele><time>2019-10-02T15:38:55Z</time><name>PT16404</name></trkpt>
<trkpt lat="54.580239" lon="-3.188705"><ele>131</ele><time>2019-10-02T15:38:55Z</time><name>PT16405</name></trkpt>
<trkpt lat="54.580240" lon="-3.188702"><ele>131</ele><time>2019-10-02T15:39:03Z</time><name>PT16406</name></trkpt>
<trkpt lat="54.580245" lon="-3.188683"><ele>131</ele><time>2019-10-02T15:39:05Z</time><name>PT16407</name></trkpt>
<trkpt lat="54.580248" lon="-3.188666"><ele>131</ele><time>2019-10-02T15:39:05Z</time><name>PT16408</name></trkpt>
<trkpt lat="54.580249" lon="-3.188658"><ele>131</ele><time>2019-10-02T15:39:07Z</time><name>PT16409</name></trkpt>
<trkpt lat="54.580250" lon="-3.188651"><ele>131</ele><time>2019-10-02T15:39:07Z</time><name>PT16410</name></trkpt>
<trkpt lat="54.580251" lon="-3.188653"><ele>131</ele><time>2019-10-02T15:39:09Z</time><name>PT16411</name></trkpt>
<trkpt lat="54.580256" lon="-3.188658"><ele>131</ele><time>2019-10-02T15:39:09Z</time><name>PT16412</name></trkpt>
<trkpt lat="54.580257" lon="-3.188663"><ele>131</ele><time>2019-10-02T15:39:11Z</time><name>PT16413</name></trkpt>
<trkpt lat="54.580253" lon="-3.188665"><ele>131</ele><time>2019-10-02T15:39:11Z</time><name>PT16414</name></trkpt>
<trkpt lat="54.580249" lon="-3.188672"><ele>131</ele><time>2019-10-02T15:39:13Z</time><name>PT16415</name></trkpt>
<trkpt lat="54.580245" lon="-3.188680"><ele>131</ele><time>2019-10-02T15:39:13Z</time><name>PT16416</name></trkpt>
<trkpt lat="54.580241" lon="-3.188687"><ele>131</ele><time>2019-10-02T15:39:15Z</time><name>PT16417</name></trkpt>
<trkpt lat="54.580247" lon="-3.188692"><ele>131</ele><time>2019-10-02T15:39:15Z</time><name>PT16418</name></trkpt>
<trkpt lat="54.580249" lon="-3.188692"><ele>131</ele><time>2019-10-02T15:39:17Z</time><name>PT16419</name></trkpt>
<trkpt lat="54.580250" lon="-3.188690"><ele>131</ele><time>2019-10-02T15:39:17Z</time><name>PT16420</name></trkpt>
<trkpt lat="54.580254" lon="-3.188686"><ele>131</ele><time>2019-10-02T15:39:19Z</time><name>PT16421</name></trkpt>
<trkpt lat="54.580256" lon="-3.188685"><ele>130</ele><time>2019-10-02T15:39:19Z</time><name>PT16422</name></trkpt>
<trkpt lat="54.580257" lon="-3.188687"><ele>130</ele><time>2019-10-02T15:39:31Z</time><name>PT16423</name></trkpt>
<trkpt lat="54.580256" lon="-3.188690"><ele>130</ele><time>2019-10-02T15:39:33Z</time><name>PT16424</name></trkpt>
<trkpt lat="54.580256" lon="-3.188692"><ele>130</ele><time>2019-10-02T15:39:33Z</time><name>PT16425</name></trkpt>
<trkpt lat="54.580256" lon="-3.188694"><ele>131</ele><time>2019-10-02T15:39:35Z</time><name>PT16426</name></trkpt>
<trkpt lat="54.580257" lon="-3.188687"><ele>131</ele><time>2019-10-02T15:40:33Z</time><name>PT16427</name></trkpt>
<trkpt lat="54.580259" lon="-3.188670"><ele>132</ele><time>2019-10-02T15:40:35Z</time><name>PT16428</name></trkpt>
<trkpt lat="54.580261" lon="-3.188658"><ele>132</ele><time>2019-10-02T15:40:35Z</time><name>PT16429</name></trkpt>
<trkpt lat="54.580263" lon="-3.188656"><ele>132</ele><time>2019-10-02T15:40:37Z</time><name>PT16430</name></trkpt>
<trkpt lat="54.580265" lon="-3.188652"><ele>132</ele><time>2019-10-02T15:40:37Z</time><name>PT16431</name></trkpt>
<trkpt lat="54.580269" lon="-3.188655"><ele>132</ele><time>2019-10-02T15:40:39Z</time><name>PT16432</name></trkpt>
<trkpt lat="54.580268" lon="-3.188650"><ele>132</ele><time>2019-10-02T15:40:39Z</time><name>PT16433</name></trkpt>
<trkpt lat="54.580264" lon="-3.188649"><ele>132</ele><time>2019-10-02T15:41:11Z</time><name>PT16434</name></trkpt>
<trkpt lat="54.580268" lon="-3.188651"><ele>132</ele><time>2019-10-02T15:41:11Z</time><name>PT16435</name></trkpt>
<trkpt lat="54.580271" lon="-3.188648"><ele>132</ele><time>2019-10-02T15:41:13Z</time><name>PT16436</name></trkpt>
<trkpt lat="54.580275" lon="-3.188647"><ele>132</ele><time>2019-10-02T15:41:13Z</time><name>PT16437</name></trkpt>
<trkpt lat="54.580276" lon="-3.188643"><ele>133</ele><time>2019-10-02T15:41:15Z</time><name>PT16438</name></trkpt>
<trkpt lat="54.580277" lon="-3.188636"><ele>133</ele><time>2019-10-02T15:41:15Z</time><name>PT16439</name></trkpt>
<trkpt lat="54.580275" lon="-3.188640"><ele>133</ele><time>2019-10-02T15:42:56Z</time><name>PT16440</name></trkpt>
<trkpt lat="54.580279" lon="-3.188648"><ele>133</ele><time>2019-10-02T15:42:57Z</time><name>PT16441</name></trkpt>
<trkpt lat="54.580287" lon="-3.188652"><ele>133</ele><time>2019-10-02T15:42:57Z</time><name>PT16442</name></trkpt>
<trkpt lat="54.580293" lon="-3.188664"><ele>133</ele><time>2019-10-02T15:42:59Z</time><name>PT16443</name></trkpt>
<trkpt lat="54.580301" lon="-3.188670"><ele>133</ele><time>2019-10-02T15:42:59Z</time><name>PT16444</name></trkpt>
<trkpt lat="54.580307" lon="-3.188678"><ele>133</ele><time>2019-10-02T15:43:01Z</time><name>PT16445</name></trkpt>
<trkpt lat="54.580311" lon="-3.188682"><ele>133</ele><time>2019-10-02T15:43:01Z</time><name>PT16446</name></trkpt>
<trkpt lat="54.580319" lon="-3.188689"><ele>133</ele><time>2019-10-02T15:43:02Z</time><name>PT16447</name></trkpt>
<trkpt lat="54.580328" lon="-3.188694"><ele>133</ele><time>2019-10-02T15:43:04Z</time><name>PT16448</name></trkpt>
<trkpt lat="54.580335" lon="-3.188700"><ele>133</ele><time>2019-10-02T15:43:04Z</time><name>PT16449</name></trkpt>
<trkpt lat="54.580344" lon="-3.188704"><ele>133</ele><time>2019-10-02T15:43:06Z</time><name>PT16450</name></trkpt>
<trkpt lat="54.580354" lon="-3.188707"><ele>133</ele><time>2019-10-02T15:43:06Z</time><name>PT16451</name></trkpt>
<trkpt lat="54.580362" lon="-3.188708"><ele>133</ele><time>2019-10-02T15:43:08Z</time><name>PT16452</name></trkpt>
<trkpt lat="54.580371" lon="-3.188712"><ele>133</ele><time>2019-10-02T15:43:08Z</time><name>PT16453</name></trkpt>
<trkpt lat="54.580381" lon="-3.188717"><ele>133</ele><time>2019-10-02T15:43:10Z</time><name>PT16454</name></trkpt>
<trkpt lat="54.580389" lon="-3.188714"><ele>134</ele><time>2019-10-02T15:43:10Z</time><name>PT16455</name></trkpt>
<trkpt lat="54.580398" lon="-3.188714"><ele>134</ele><time>2019-10-02T15:43:12Z</time><name>PT16456</name></trkpt>
<trkpt lat="54.580405" lon="-3.188719"><ele>134</ele><time>2019-10-02T15:43:12Z</time><name>PT16457</name></trkpt>
<trkpt lat="54.580413" lon="-3.188722"><ele>134</ele><time>2019-10-02T15:43:14Z</time><name>PT16458</name></trkpt>
<trkpt lat="54.580421" lon="-3.188723"><ele>134</ele><time>2019-10-02T15:43:14Z</time><name>PT16459</name></trkpt>
<trkpt lat="54.580432" lon="-3.188730"><ele>134</ele><time>2019-10-02T15:43:15Z</time><name>PT16460</name></trkpt>
<trkpt lat="54.580441" lon="-3.188732"><ele>134</ele><time>2019-10-02T15:43:17Z</time><name>PT16461</name></trkpt>
<trkpt lat="54.580454" lon="-3.188734"><ele>134</ele><time>2019-10-02T15:43:17Z</time><name>PT16462</name></trkpt>
<trkpt lat="54.580463" lon="-3.188737"><ele>134</ele><time>2019-10-02T15:43:19Z</time><name>PT16463</name></trkpt>
<trkpt lat="54.580473" lon="-3.188745"><ele>134</ele><time>2019-10-02T15:43:20Z</time><name>PT16464</name></trkpt>
<trkpt lat="54.580482" lon="-3.188749"><ele>135</ele><time>2019-10-02T15:43:20Z</time><name>PT16465</name></trkpt>
<trkpt lat="54.580493" lon="-3.188750"><ele>135</ele><time>2019-10-02T15:43:22Z</time><name>PT16466</name></trkpt>
<trkpt lat="54.580503" lon="-3.188754"><ele>135</ele><time>2019-10-02T15:43:23Z</time><name>PT16467</name></trkpt>
<trkpt lat="54.580512" lon="-3.188758"><ele>135</ele><time>2019-10-02T15:43:23Z</time><name>PT16468</name></trkpt>
<trkpt lat="54.580522" lon="-3.188764"><ele>135</ele><time>2019-10-02T15:43:25Z</time><name>PT16469</name></trkpt>
<trkpt lat="54.580531" lon="-3.188768"><ele>135</ele><time>2019-10-02T15:43:26Z</time><name>PT16470</name></trkpt>
<trkpt lat="54.580542" lon="-3.188772"><ele>135</ele><time>2019-10-02T15:43:26Z</time><name>PT16471</name></trkpt>
<trkpt lat="54.580553" lon="-3.188777"><ele>135</ele><time>2019-10-02T15:43:28Z</time><name>PT16472</name></trkpt>
<trkpt lat="54.580564" lon="-3.188781"><ele>135</ele><time>2019-10-02T15:43:28Z</time><name>PT16473</name></trkpt>
<trkpt lat="54.580574" lon="-3.188787"><ele>136</ele><time>2019-10-02T15:43:30Z</time><name>PT16474</name></trkpt>
<trkpt lat="54.580584" lon="-3.188793"><ele>136</ele><time>2019-10-02T15:43:30Z</time><name>PT16475</name></trkpt>
<trkpt lat="54.580593" lon="-3.188797"><ele>136</ele><time>2019-10-02T15:43:32Z</time><name>PT16476</name></trkpt>
<trkpt lat="54.580605" lon="-3.188801"><ele>136</ele><time>2019-10-02T15:43:32Z</time><name>PT16477</name></trkpt>
<trkpt lat="54.580615" lon="-3.188804"><ele>136</ele><time>2019-10-02T15:43:33Z</time><name>PT16478</name></trkpt>
<trkpt lat="54.580626" lon="-3.188810"><ele>136</ele><time>2019-10-02T15:43:35Z</time><name>PT16479</name></trkpt>
<trkpt lat="54.580637" lon="-3.188812"><ele>136</ele><time>2019-10-02T15:43:35Z</time><name>PT16480</name></trkpt>
<trkpt lat="54.580649" lon="-3.188814"><ele>136</ele><time>2019-10-02T15:43:36Z</time><name>PT16481</name></trkpt>
<trkpt lat="54.580657" lon="-3.188816"><ele>137</ele><time>2019-10-02T15:43:38Z</time><name>PT16482</name></trkpt>
<trkpt lat="54.580668" lon="-3.188819"><ele>137</ele><time>2019-10-02T15:43:38Z</time><name>PT16483</name></trkpt>
<trkpt lat="54.580678" lon="-3.188822"><ele>137</ele><time>2019-10-02T15:43:40Z</time><name>PT16484</name></trkpt>
<trkpt lat="54.580687" lon="-3.188826"><ele>137</ele><time>2019-10-02T15:43:40Z</time><name>PT16485</name></trkpt>
<trkpt lat="54.580694" lon="-3.188833"><ele>137</ele><time>2019-10-02T15:43:42Z</time><name>PT16486</name></trkpt>
<trkpt lat="54.580701" lon="-3.188842"><ele>138</ele><time>2019-10-02T15:43:42Z</time><name>PT16487</name></trkpt>
<trkpt lat="54.580708" lon="-3.188847"><ele>138</ele><time>2019-10-02T15:43:44Z</time><name>PT16488</name></trkpt>
<trkpt lat="54.580715" lon="-3.188851"><ele>138</ele><time>2019-10-02T15:43:44Z</time><name>PT16489</name></trkpt>
<trkpt lat="54.580721" lon="-3.188855"><ele>139</ele><time>2019-10-02T15:43:46Z</time><name>PT16490</name></trkpt>
<trkpt lat="54.580729" lon="-3.188859"><ele>139</ele><time>2019-10-02T15:43:46Z</time><name>PT16491</name></trkpt>
<trkpt lat="54.580739" lon="-3.188860"><ele>139</ele><time>2019-10-02T15:43:48Z</time><name>PT16492</name></trkpt>
<trkpt lat="54.580749" lon="-3.188867"><ele>139</ele><time>2019-10-02T15:43:48Z</time><name>PT16493</name></trkpt>
<trkpt lat="54.580757" lon="-3.188874"><ele>139</ele><time>2019-10-02T15:43:50Z</time><name>PT16494</name></trkpt>
<trkpt lat="54.580764" lon="-3.188883"><ele>139</ele><time>2019-10-02T15:43:50Z</time><name>PT16495</name></trkpt>
<trkpt lat="54.580771" lon="-3.188887"><ele>140</ele><time>2019-10-02T15:43:52Z</time><name>PT16496</name></trkpt>
<trkpt lat="54.580782" lon="-3.188891"><ele>140</ele><time>2019-10-02T15:43:52Z</time><name>PT16497</name></trkpt>
<trkpt lat="54.580792" lon="-3.188898"><ele>140</ele><time>2019-10-02T15:43:54Z</time><name>PT16498</name></trkpt>
<trkpt lat="54.580801" lon="-3.188903"><ele>141</ele><time>2019-10-02T15:43:54Z</time><name>PT16499</name></trkpt>
<trkpt lat="54.580812" lon="-3.188905"><ele>141</ele><time>2019-10-02T15:43:56Z</time><name>PT16500</name></trkpt>
<trkpt lat="54.580823" lon="-3.188912"><ele>141</ele><time>2019-10-02T15:43:56Z</time><name>PT16501</name></trkpt>
<trkpt lat="54.580833" lon="-3.188918"><ele>141</ele><time>2019-10-02T15:43:58Z</time><name>PT16502</name></trkpt>
<trkpt lat="54.580842" lon="-3.188923"><ele>141</ele><time>2019-10-02T15:43:58Z</time><name>PT16503</name></trkpt>
<trkpt lat="54.580852" lon="-3.188925"><ele>142</ele><time>2019-10-02T15:44:00Z</time><name>PT16504</name></trkpt>
<trkpt lat="54.580860" lon="-3.188930"><ele>142</ele><time>2019-10-02T15:44:00Z</time><name>PT16505</name></trkpt>
<trkpt lat="54.580870" lon="-3.188935"><ele>142</ele><time>2019-10-02T15:44:02Z</time><name>PT16506</name></trkpt>
<trkpt lat="54.580878" lon="-3.188938"><ele>142</ele><time>2019-10-02T15:44:02Z</time><name>PT16507</name></trkpt>
<trkpt lat="54.580889" lon="-3.188943"><ele>142</ele><time>2019-10-02T15:44:04Z</time><name>PT16508</name></trkpt>
<trkpt lat="54.580894" lon="-3.188948"><ele>143</ele><time>2019-10-02T15:44:04Z</time><name>PT16509</name></trkpt>
<trkpt lat="54.580904" lon="-3.188963"><ele>143</ele><time>2019-10-02T15:44:06Z</time><name>PT16510</name></trkpt>
<trkpt lat="54.580912" lon="-3.188972"><ele>143</ele><time>2019-10-02T15:44:07Z</time><name>PT16511</name></trkpt>
<trkpt lat="54.580919" lon="-3.188980"><ele>143</ele><time>2019-10-02T15:44:08Z</time><name>PT16512</name></trkpt>
<trkpt lat="54.580927" lon="-3.188985"><ele>143</ele><time>2019-10-02T15:44:08Z</time><name>PT16513</name></trkpt>
<trkpt lat="54.580936" lon="-3.188991"><ele>143</ele><time>2019-10-02T15:44:10Z</time><name>PT16514</name></trkpt>
<trkpt lat="54.580944" lon="-3.189000"><ele>143</ele><time>2019-10-02T15:44:11Z</time><name>PT16515</name></trkpt>
<trkpt lat="54.580954" lon="-3.189009"><ele>143</ele><time>2019-10-02T15:44:11Z</time><name>PT16516</name></trkpt>
<trkpt lat="54.580963" lon="-3.189021"><ele>142</ele><time>2019-10-02T15:44:13Z</time><name>PT16517</name></trkpt>
<trkpt lat="54.580972" lon="-3.189023"><ele>143</ele><time>2019-10-02T15:44:13Z</time><name>PT16518</name></trkpt>
<trkpt lat="54.580980" lon="-3.189029"><ele>143</ele><time>2019-10-02T15:44:15Z</time><name>PT16519</name></trkpt>
<trkpt lat="54.580991" lon="-3.189037"><ele>143</ele><time>2019-10-02T15:44:15Z</time><name>PT16520</name></trkpt>
<trkpt lat="54.581003" lon="-3.189053"><ele>142</ele><time>2019-10-02T15:44:17Z</time><name>PT16521</name></trkpt>
<trkpt lat="54.581013" lon="-3.189061"><ele>143</ele><time>2019-10-02T15:44:17Z</time><name>PT16522</name></trkpt>
<trkpt lat="54.581023" lon="-3.189071"><ele>142</ele><time>2019-10-02T15:44:19Z</time><name>PT16523</name></trkpt>
<trkpt lat="54.581035" lon="-3.189083"><ele>143</ele><time>2019-10-02T15:44:19Z</time><name>PT16524</name></trkpt>
<trkpt lat="54.581045" lon="-3.189093"><ele>143</ele><time>2019-10-02T15:44:21Z</time><name>PT16525</name></trkpt>
<trkpt lat="54.581054" lon="-3.189107"><ele>143</ele><time>2019-10-02T15:44:21Z</time><name>PT16526</name></trkpt>
<trkpt lat="54.581066" lon="-3.189118"><ele>142</ele><time>2019-10-02T15:44:23Z</time><name>PT16527</name></trkpt>
<trkpt lat="54.581079" lon="-3.189128"><ele>142</ele><time>2019-10-02T15:44:23Z</time><name>PT16528</name></trkpt>
<trkpt lat="54.581089" lon="-3.189140"><ele>142</ele><time>2019-10-02T15:44:25Z</time><name>PT16529</name></trkpt>
<trkpt lat="54.581100" lon="-3.189151"><ele>142</ele><time>2019-10-02T15:44:25Z</time><name>PT16530</name></trkpt>
<trkpt lat="54.581110" lon="-3.189162"><ele>141</ele><time>2019-10-02T15:44:27Z</time><name>PT16531</name></trkpt>
<trkpt lat="54.581121" lon="-3.189174"><ele>141</ele><time>2019-10-02T15:44:27Z</time><name>PT16532</name></trkpt>
<trkpt lat="54.581131" lon="-3.189184"><ele>142</ele><time>2019-10-02T15:44:29Z</time><name>PT16533</name></trkpt>
<trkpt lat="54.581138" lon="-3.189193"><ele>142</ele><time>2019-10-02T15:44:29Z</time><name>PT16534</name></trkpt>
<trkpt lat="54.581149" lon="-3.189204"><ele>142</ele><time>2019-10-02T15:44:31Z</time><name>PT16535</name></trkpt>
<trkpt lat="54.581157" lon="-3.189212"><ele>142</ele><time>2019-10-02T15:44:31Z</time><name>PT16536</name></trkpt>
<trkpt lat="54.581166" lon="-3.189220"><ele>142</ele><time>2019-10-02T15:44:33Z</time><name>PT16537</name></trkpt>
<trkpt lat="54.581176" lon="-3.189227"><ele>142</ele><time>2019-10-02T15:44:33Z</time><name>PT16538</name></trkpt>
<trkpt lat="54.581186" lon="-3.189232"><ele>143</ele><time>2019-10-02T15:44:34Z</time><name>PT16539</name></trkpt>
<trkpt lat="54.581197" lon="-3.189235"><ele>143</ele><time>2019-10-02T15:44:36Z</time><name>PT16540</name></trkpt>
<trkpt lat="54.581207" lon="-3.189238"><ele>143</ele><time>2019-10-02T15:44:36Z</time><name>PT16541</name></trkpt>
<trkpt lat="54.581218" lon="-3.189247"><ele>143</ele><time>2019-10-02T15:44:38Z</time><name>PT16542</name></trkpt>
<trkpt lat="54.581231" lon="-3.189255"><ele>143</ele><time>2019-10-02T15:44:38Z</time><name>PT16543</name></trkpt>
<trkpt lat="54.581242" lon="-3.189262"><ele>143</ele><time>2019-10-02T15:44:40Z</time><name>PT16544</name></trkpt>
<trkpt lat="54.581253" lon="-3.189269"><ele>143</ele><time>2019-10-02T15:44:40Z</time><name>PT16545</name></trkpt>
<trkpt lat="54.581264" lon="-3.189277"><ele>144</ele><time>2019-10-02T15:44:42Z</time><name>PT16546</name></trkpt>
<trkpt lat="54.581275" lon="-3.189287"><ele>144</ele><time>2019-10-02T15:44:42Z</time><name>PT16547</name></trkpt>
<trkpt lat="54.581286" lon="-3.189299"><ele>143</ele><time>2019-10-02T15:44:44Z</time><name>PT16548</name></trkpt>
<trkpt lat="54.581296" lon="-3.189311"><ele>143</ele><time>2019-10-02T15:44:44Z</time><name>PT16549</name></trkpt>
<trkpt lat="54.581305" lon="-3.189319"><ele>144</ele><time>2019-10-02T15:44:46Z</time><name>PT16550</name></trkpt>
<trkpt lat="54.581314" lon="-3.189327"><ele>144</ele><time>2019-10-02T15:44:46Z</time><name>PT16551</name></trkpt>
<trkpt lat="54.581325" lon="-3.189333"><ele>143</ele><time>2019-10-02T15:44:48Z</time><name>PT16552</name></trkpt>
<trkpt lat="54.581335" lon="-3.189340"><ele>143</ele><time>2019-10-02T15:44:48Z</time><name>PT16553</name></trkpt>
<trkpt lat="54.581345" lon="-3.189346"><ele>143</ele><time>2019-10-02T15:44:50Z</time><name>PT16554</name></trkpt>
<trkpt lat="54.581355" lon="-3.189358"><ele>143</ele><time>2019-10-02T15:44:51Z</time><name>PT16555</name></trkpt>
<trkpt lat="54.581364" lon="-3.189367"><ele>144</ele><time>2019-10-02T15:44:51Z</time><name>PT16556</name></trkpt>
<trkpt lat="54.581375" lon="-3.189376"><ele>143</ele><time>2019-10-02T15:44:53Z</time><name>PT16557</name></trkpt>
<trkpt lat="54.581384" lon="-3.189385"><ele>144</ele><time>2019-10-02T15:44:54Z</time><name>PT16558</name></trkpt>
<trkpt lat="54.581394" lon="-3.189396"><ele>144</ele><time>2019-10-02T15:44:54Z</time><name>PT16559</name></trkpt>
<trkpt lat="54.581404" lon="-3.189404"><ele>144</ele><time>2019-10-02T15:44:56Z</time><name>PT16560</name></trkpt>
<trkpt lat="54.581413" lon="-3.189409"><ele>144</ele><time>2019-10-02T15:44:57Z</time><name>PT16561</name></trkpt>
<trkpt lat="54.581423" lon="-3.189416"><ele>145</ele><time>2019-10-02T15:44:57Z</time><name>PT16562</name></trkpt>
<trkpt lat="54.581433" lon="-3.189423"><ele>145</ele><time>2019-10-02T15:44:58Z</time><name>PT16563</name></trkpt>
<trkpt lat="54.581444" lon="-3.189430"><ele>145</ele><time>2019-10-02T15:45:00Z</time><name>PT16564</name></trkpt>
<trkpt lat="54.581454" lon="-3.189436"><ele>145</ele><time>2019-10-02T15:45:00Z</time><name>PT16565</name></trkpt>
<trkpt lat="54.581463" lon="-3.189450"><ele>145</ele><time>2019-10-02T15:45:02Z</time><name>PT16566</name></trkpt>
<trkpt lat="54.581472" lon="-3.189459"><ele>145</ele><time>2019-10-02T15:45:02Z</time><name>PT16567</name></trkpt>
<trkpt lat="54.581484" lon="-3.189472"><ele>145</ele><time>2019-10-02T15:45:04Z</time><name>PT16568</name></trkpt>
<trkpt lat="54.581496" lon="-3.189479"><ele>145</ele><time>2019-10-02T15:45:04Z</time><name>PT16569</name></trkpt>
<trkpt lat="54.581504" lon="-3.189484"><ele>145</ele><time>2019-10-02T15:45:06Z</time><name>PT16570</name></trkpt>
<trkpt lat="54.581513" lon="-3.189495"><ele>145</ele><time>2019-10-02T15:45:06Z</time><name>PT16571</name></trkpt>
<trkpt lat="54.581524" lon="-3.189501"><ele>145</ele><time>2019-10-02T15:45:08Z</time><name>PT16572</name></trkpt>
<trkpt lat="54.581534" lon="-3.189508"><ele>144</ele><time>2019-10-02T15:45:08Z</time><name>PT16573</name></trkpt>
<trkpt lat="54.581544" lon="-3.189514"><ele>145</ele><time>2019-10-02T15:45:10Z</time><name>PT16574</name></trkpt>
<trkpt lat="54.581554" lon="-3.189523"><ele>144</ele><time>2019-10-02T15:45:10Z</time><name>PT16575</name></trkpt>
<trkpt lat="54.581563" lon="-3.189527"><ele>145</ele><time>2019-10-02T15:45:12Z</time><name>PT16576</name></trkpt>
<trkpt lat="54.581575" lon="-3.189532"><ele>145</ele><time>2019-10-02T15:45:12Z</time><name>PT16577</name></trkpt>
<trkpt lat="54.581583" lon="-3.189539"><ele>145</ele><time>2019-10-02T15:45:14Z</time><name>PT16578</name></trkpt>
<trkpt lat="54.581594" lon="-3.189540"><ele>145</ele><time>2019-10-02T15:45:14Z</time><name>PT16579</name></trkpt>
<trkpt lat="54.581605" lon="-3.189545"><ele>145</ele><time>2019-10-02T15:45:16Z</time><name>PT16580</name></trkpt>
<trkpt lat="54.581614" lon="-3.189549"><ele>145</ele><time>2019-10-02T15:45:16Z</time><name>PT16581</name></trkpt>
<trkpt lat="54.581624" lon="-3.189553"><ele>145</ele><time>2019-10-02T15:45:18Z</time><name>PT16582</name></trkpt>
<trkpt lat="54.581633" lon="-3.189560"><ele>145</ele><time>2019-10-02T15:45:19Z</time><name>PT16583</name></trkpt>
<trkpt lat="54.581642" lon="-3.189564"><ele>146</ele><time>2019-10-02T15:45:19Z</time><name>PT16584</name></trkpt>
<trkpt lat="54.581654" lon="-3.189569"><ele>146</ele><time>2019-10-02T15:45:21Z</time><name>PT16585</name></trkpt>
<trkpt lat="54.581664" lon="-3.189568"><ele>146</ele><time>2019-10-02T15:45:22Z</time><name>PT16586</name></trkpt>
<trkpt lat="54.581675" lon="-3.189570"><ele>146</ele><time>2019-10-02T15:45:22Z</time><name>PT16587</name></trkpt>
<trkpt lat="54.581685" lon="-3.189574"><ele>146</ele><time>2019-10-02T15:45:24Z</time><name>PT16588</name></trkpt>
<trkpt lat="54.581697" lon="-3.189581"><ele>145</ele><time>2019-10-02T15:45:25Z</time><name>PT16589</name></trkpt>
<trkpt lat="54.581709" lon="-3.189583"><ele>145</ele><time>2019-10-02T15:45:25Z</time><name>PT16590</name></trkpt>
<trkpt lat="54.581720" lon="-3.189582"><ele>145</ele><time>2019-10-02T15:45:27Z</time><name>PT16591</name></trkpt>
<trkpt lat="54.581732" lon="-3.189584"><ele>145</ele><time>2019-10-02T15:45:27Z</time><name>PT16592</name></trkpt>
<trkpt lat="54.581743" lon="-3.189587"><ele>145</ele><time>2019-10-02T15:45:29Z</time><name>PT16593</name></trkpt>
<trkpt lat="54.581750" lon="-3.189592"><ele>145</ele><time>2019-10-02T15:45:29Z</time><name>PT16594</name></trkpt>
<trkpt lat="54.581751" lon="-3.189595"><ele>145</ele><time>2019-10-02T15:45:31Z</time><name>PT16595</name></trkpt>
<trkpt lat="54.581759" lon="-3.189599"><ele>145</ele><time>2019-10-02T15:45:31Z</time><name>PT16596</name></trkpt>
<trkpt lat="54.581769" lon="-3.189601"><ele>145</ele><time>2019-10-02T15:45:33Z</time><name>PT16597</name></trkpt>
<trkpt lat="54.581779" lon="-3.189606"><ele>145</ele><time>2019-10-02T15:45:33Z</time><name>PT16598</name></trkpt>
<trkpt lat="54.581789" lon="-3.189607"><ele>145</ele><time>2019-10-02T15:45:35Z</time><name>PT16599</name></trkpt>
<trkpt lat="54.581799" lon="-3.189608"><ele>144</ele><time>2019-10-02T15:45:35Z</time><name>PT16600</name></trkpt>
<trkpt lat="54.581809" lon="-3.189608"><ele>144</ele><time>2019-10-02T15:45:37Z</time><name>PT16601</name></trkpt>
<trkpt lat="54.581819" lon="-3.189610"><ele>144</ele><time>2019-10-02T15:45:37Z</time><name>PT16602</name></trkpt>
<trkpt lat="54.581829" lon="-3.189609"><ele>144</ele><time>2019-10-02T15:45:39Z</time><name>PT16603</name></trkpt>
<trkpt lat="54.581838" lon="-3.189603"><ele>144</ele><time>2019-10-02T15:45:39Z</time><name>PT16604</name></trkpt>
<trkpt lat="54.581847" lon="-3.189604"><ele>144</ele><time>2019-10-02T15:45:41Z</time><name>PT16605</name></trkpt>
<trkpt lat="54.581850" lon="-3.189605"><ele>144</ele><time>2019-10-02T15:45:41Z</time><name>PT16606</name></trkpt>
<trkpt lat="54.581854" lon="-3.189607"><ele>144</ele><time>2019-10-02T15:45:43Z</time><name>PT16607</name></trkpt>
<trkpt lat="54.581862" lon="-3.189609"><ele>144</ele><time>2019-10-02T15:45:43Z</time><name>PT16608</name></trkpt>
<trkpt lat="54.581874" lon="-3.189610"><ele>144</ele><time>2019-10-02T15:45:45Z</time><name>PT16609</name></trkpt>
<trkpt lat="54.581886" lon="-3.189611"><ele>144</ele><time>2019-10-02T15:45:45Z</time><name>PT16610</name></trkpt>
<trkpt lat="54.581895" lon="-3.189610"><ele>144</ele><time>2019-10-02T15:45:47Z</time><name>PT16611</name></trkpt>
<trkpt lat="54.581907" lon="-3.189611"><ele>144</ele><time>2019-10-02T15:45:47Z</time><name>PT16612</name></trkpt>
<trkpt lat="54.581918" lon="-3.189612"><ele>144</ele><time>2019-10-02T15:45:49Z</time><name>PT16613</name></trkpt>
<trkpt lat="54.581930" lon="-3.189607"><ele>144</ele><time>2019-10-02T15:45:49Z</time><name>PT16614</name></trkpt>
<trkpt lat="54.581943" lon="-3.189606"><ele>143</ele><time>2019-10-02T15:45:51Z</time><name>PT16615</name></trkpt>
<trkpt lat="54.581955" lon="-3.189605"><ele>143</ele><time>2019-10-02T15:45:51Z</time><name>PT16616</name></trkpt>
<trkpt lat="54.581966" lon="-3.189603"><ele>143</ele><time>2019-10-02T15:45:53Z</time><name>PT16617</name></trkpt>
<trkpt lat="54.581979" lon="-3.189607"><ele>143</ele><time>2019-10-02T15:45:53Z</time><name>PT16618</name></trkpt>
<trkpt lat="54.581989" lon="-3.189610"><ele>143</ele><time>2019-10-02T15:45:55Z</time><name>PT16619</name></trkpt>
<trkpt lat="54.582000" lon="-3.189609"><ele>143</ele><time>2019-10-02T15:45:55Z</time><name>PT16620</name></trkpt>
<trkpt lat="54.582011" lon="-3.189606"><ele>143</ele><time>2019-10-02T15:45:57Z</time><name>PT16621</name></trkpt>
<trkpt lat="54.582022" lon="-3.189607"><ele>143</ele><time>2019-10-02T15:45:57Z</time><name>PT16622</name></trkpt>
<trkpt lat="54.582034" lon="-3.189608"><ele>143</ele><time>2019-10-02T15:45:59Z</time><name>PT16623</name></trkpt>
<trkpt lat="54.582045" lon="-3.189609"><ele>142</ele><time>2019-10-02T15:46:00Z</time><name>PT16624</name></trkpt>
<trkpt lat="54.582056" lon="-3.189604"><ele>142</ele><time>2019-10-02T15:46:00Z</time><name>PT16625</name></trkpt>
<trkpt lat="54.582067" lon="-3.189601"><ele>142</ele><time>2019-10-02T15:46:02Z</time><name>PT16626</name></trkpt>
<trkpt lat="54.582079" lon="-3.189598"><ele>142</ele><time>2019-10-02T15:46:02Z</time><name>PT16627</name></trkpt>
<trkpt lat="54.582090" lon="-3.189597"><ele>142</ele><time>2019-10-02T15:46:04Z</time><name>PT16628</name></trkpt>
<trkpt lat="54.582103" lon="-3.189596"><ele>142</ele><time>2019-10-02T15:46:04Z</time><name>PT16629</name></trkpt>
<trkpt lat="54.582116" lon="-3.189595"><ele>142</ele><time>2019-10-02T15:46:06Z</time><name>PT16630</name></trkpt>
<trkpt lat="54.582126" lon="-3.189593"><ele>142</ele><time>2019-10-02T15:46:06Z</time><name>PT16631</name></trkpt>
<trkpt lat="54.582139" lon="-3.189590"><ele>142</ele><time>2019-10-02T15:46:08Z</time><name>PT16632</name></trkpt>
<trkpt lat="54.582150" lon="-3.189590"><ele>142</ele><time>2019-10-02T15:46:08Z</time><name>PT16633</name></trkpt>
<trkpt lat="54.582161" lon="-3.189593"><ele>141</ele><time>2019-10-02T15:46:10Z</time><name>PT16634</name></trkpt>
<trkpt lat="54.582173" lon="-3.189592"><ele>142</ele><time>2019-10-02T15:46:10Z</time><name>PT16635</name></trkpt>
<trkpt lat="54.582184" lon="-3.189591"><ele>142</ele><time>2019-10-02T15:46:12Z</time><name>PT16636</name></trkpt>
<trkpt lat="54.582194" lon="-3.189588"><ele>142</ele><time>2019-10-02T15:46:12Z</time><name>PT16637</name></trkpt>
<trkpt lat="54.582204" lon="-3.189585"><ele>142</ele><time>2019-10-02T15:46:14Z</time><name>PT16638</name></trkpt>
<trkpt lat="54.582215" lon="-3.189584"><ele>142</ele><time>2019-10-02T15:46:14Z</time><name>PT16639</name></trkpt>
<trkpt lat="54.582225" lon="-3.189583"><ele>142</ele><time>2019-10-02T15:46:16Z</time><name>PT16640</name></trkpt>
<trkpt lat="54.582232" lon="-3.189578"><ele>142</ele><time>2019-10-02T15:46:16Z</time><name>PT16641</name></trkpt>
<trkpt lat="54.582243" lon="-3.189577"><ele>142</ele><time>2019-10-02T15:46:18Z</time><name>PT16642</name></trkpt>
<trkpt lat="54.582252" lon="-3.189576"><ele>143</ele><time>2019-10-02T15:46:18Z</time><name>PT16643</name></trkpt>
<trkpt lat="54.582262" lon="-3.189576"><ele>142</ele><time>2019-10-02T15:46:20Z</time><name>PT16644</name></trkpt>
<trkpt lat="54.582270" lon="-3.189571"><ele>143</ele><time>2019-10-02T15:46:20Z</time><name>PT16645</name></trkpt>
<trkpt lat="54.582280" lon="-3.189573"><ele>142</ele><time>2019-10-02T15:46:22Z</time><name>PT16646</name></trkpt>
<trkpt lat="54.582292" lon="-3.189577"><ele>142</ele><time>2019-10-02T15:46:22Z</time><name>PT16647</name></trkpt>
<trkpt lat="54.582303" lon="-3.189577"><ele>142</ele><time>2019-10-02T15:46:24Z</time><name>PT16648</name></trkpt>
<trkpt lat="54.582314" lon="-3.189573"><ele>142</ele><time>2019-10-02T15:46:24Z</time><name>PT16649</name></trkpt>
<trkpt lat="54.582323" lon="-3.189568"><ele>142</ele><time>2019-10-02T15:46:26Z</time><name>PT16650</name></trkpt>
<trkpt lat="54.582332" lon="-3.189562"><ele>142</ele><time>2019-10-02T15:46:26Z</time><name>PT16651</name></trkpt>
<trkpt lat="54.582343" lon="-3.189559"><ele>142</ele><time>2019-10-02T15:46:28Z</time><name>PT16652</name></trkpt>
<trkpt lat="54.582352" lon="-3.189558"><ele>141</ele><time>2019-10-02T15:46:28Z</time><name>PT16653</name></trkpt>
<trkpt lat="54.582361" lon="-3.189549"><ele>142</ele><time>2019-10-02T15:46:30Z</time><name>PT16654</name></trkpt>
<trkpt lat="54.582367" lon="-3.189539"><ele>143</ele><time>2019-10-02T15:46:30Z</time><name>PT16655</name></trkpt>
<trkpt lat="54.582375" lon="-3.189534"><ele>143</ele><time>2019-10-02T15:46:32Z</time><name>PT16656</name></trkpt>
<trkpt lat="54.582385" lon="-3.189526"><ele>143</ele><time>2019-10-02T15:46:32Z</time><name>PT16657</name></trkpt>
<trkpt lat="54.582393" lon="-3.189519"><ele>144</ele><time>2019-10-02T15:46:34Z</time><name>PT16658</name></trkpt>
<trkpt lat="54.582404" lon="-3.189512"><ele>143</ele><time>2019-10-02T15:46:34Z</time><name>PT16659</name></trkpt>
<trkpt lat="54.582412" lon="-3.189509"><ele>143</ele><time>2019-10-02T15:46:36Z</time><name>PT16660</name></trkpt>
<trkpt lat="54.582419" lon="-3.189508"><ele>143</ele><time>2019-10-02T15:46:36Z</time><name>PT16661</name></trkpt>
<trkpt lat="54.582425" lon="-3.189505"><ele>143</ele><time>2019-10-02T15:46:38Z</time><name>PT16662</name></trkpt>
<trkpt lat="54.582433" lon="-3.189501"><ele>143</ele><time>2019-10-02T15:46:38Z</time><name>PT16663</name></trkpt>
<trkpt lat="54.582439" lon="-3.189498"><ele>143</ele><time>2019-10-02T15:46:40Z</time><name>PT16664</name></trkpt>
<trkpt lat="54.582446" lon="-3.189496"><ele>143</ele><time>2019-10-02T15:46:40Z</time><name>PT16665</name></trkpt>
<trkpt lat="54.582453" lon="-3.189494"><ele>143</ele><time>2019-10-02T15:46:42Z</time><name>PT16666</name></trkpt>
<trkpt lat="54.582463" lon="-3.189485"><ele>143</ele><time>2019-10-02T15:46:42Z</time><name>PT16667</name></trkpt>
<trkpt lat="54.582475" lon="-3.189479"><ele>143</ele><time>2019-10-02T15:46:44Z</time><name>PT16668</name></trkpt>
<trkpt lat="54.582486" lon="-3.189469"><ele>144</ele><time>2019-10-02T15:46:44Z</time><name>PT16669</name></trkpt>
<trkpt lat="54.582498" lon="-3.189461"><ele>144</ele><time>2019-10-02T15:46:46Z</time><name>PT16670</name></trkpt>
<trkpt lat="54.582507" lon="-3.189459"><ele>144</ele><time>2019-10-02T15:46:46Z</time><name>PT16671</name></trkpt>
<trkpt lat="54.582518" lon="-3.189455"><ele>144</ele><time>2019-10-02T15:46:48Z</time><name>PT16672</name></trkpt>
<trkpt lat="54.582530" lon="-3.189452"><ele>143</ele><time>2019-10-02T15:46:48Z</time><name>PT16673</name></trkpt>
<trkpt lat="54.582541" lon="-3.189448"><ele>143</ele><time>2019-10-02T15:46:50Z</time><name>PT16674</name></trkpt>
<trkpt lat="54.582549" lon="-3.189446"><ele>142</ele><time>2019-10-02T15:46:50Z</time><name>PT16675</name></trkpt>
<trkpt lat="54.582558" lon="-3.189440"><ele>142</ele><time>2019-10-02T15:46:52Z</time><name>PT16676</name></trkpt>
<trkpt lat="54.582569" lon="-3.189438"><ele>141</ele><time>2019-10-02T15:46:52Z</time><name>PT16677</name></trkpt>
<trkpt lat="54.582582" lon="-3.189431"><ele>141</ele><time>2019-10-02T15:46:54Z</time><name>PT16678</name></trkpt>
<trkpt lat="54.582594" lon="-3.189421"><ele>142</ele><time>2019-10-02T15:46:54Z</time><name>PT16679</name></trkpt>
<trkpt lat="54.582601" lon="-3.189413"><ele>142</ele><time>2019-10-02T15:46:56Z</time><name>PT16680</name></trkpt>
<trkpt lat="54.582608" lon="-3.189408"><ele>141</ele><time>2019-10-02T15:46:56Z</time><name>PT16681</name></trkpt>
<trkpt lat="54.582620" lon="-3.189403"><ele>142</ele><time>2019-10-02T15:46:58Z</time><name>PT16682</name></trkpt>
<trkpt lat="54.582631" lon="-3.189395"><ele>142</ele><time>2019-10-02T15:46:58Z</time><name>PT16683</name></trkpt>
<trkpt lat="54.582641" lon="-3.189388"><ele>142</ele><time>2019-10-02T15:47:00Z</time><name>PT16684</name></trkpt>
<trkpt lat="54.582653" lon="-3.189378"><ele>142</ele><time>2019-10-02T15:47:00Z</time><name>PT16685</name></trkpt>
<trkpt lat="54.582668" lon="-3.189370"><ele>142</ele><time>2019-10-02T15:47:02Z</time><name>PT16686</name></trkpt>
<trkpt lat="54.582680" lon="-3.189363"><ele>142</ele><time>2019-10-02T15:47:02Z</time><name>PT16687</name></trkpt>
<trkpt lat="54.582690" lon="-3.189354"><ele>142</ele><time>2019-10-02T15:47:04Z</time><name>PT16688</name></trkpt>
<trkpt lat="54.582701" lon="-3.189345"><ele>143</ele><time>2019-10-02T15:47:04Z</time><name>PT16689</name></trkpt>
<trkpt lat="54.582708" lon="-3.189338"><ele>143</ele><time>2019-10-02T15:47:06Z</time><name>PT16690</name></trkpt>
<trkpt lat="54.582717" lon="-3.189333"><ele>144</ele><time>2019-10-02T15:47:06Z</time><name>PT16691</name></trkpt>
<trkpt lat="54.582731" lon="-3.189331"><ele>143</ele><time>2019-10-02T15:47:08Z</time><name>PT16692</name></trkpt>
<trkpt lat="54.582744" lon="-3.189331"><ele>142</ele><time>2019-10-02T15:47:08Z</time><name>PT16693</name></trkpt>
<trkpt lat="54.582751" lon="-3.189325"><ele>142</ele><time>2019-10-02T15:47:10Z</time><name>PT16694</name></trkpt>
<trkpt lat="54.582760" lon="-3.189319"><ele>142</ele><time>2019-10-02T15:47:10Z</time><name>PT16695</name></trkpt>
<trkpt lat="54.582771" lon="-3.189316"><ele>142</ele><time>2019-10-02T15:47:12Z</time><name>PT16696</name></trkpt>
<trkpt lat="54.582783" lon="-3.189318"><ele>141</ele><time>2019-10-02T15:47:12Z</time><name>PT16697</name></trkpt>
<trkpt lat="54.582795" lon="-3.189320"><ele>141</ele><time>2019-10-02T15:47:14Z</time><name>PT16698</name></trkpt>
<trkpt lat="54.582810" lon="-3.189322"><ele>141</ele><time>2019-10-02T15:47:14Z</time><name>PT16699</name></trkpt>
<trkpt lat="54.582823" lon="-3.189319"><ele>141</ele><time>2019-10-02T15:47:16Z</time><name>PT16700</name></trkpt>
<trkpt lat="54.582835" lon="-3.189315"><ele>141</ele><time>2019-10-02T15:47:16Z</time><name>PT16701</name></trkpt>
<trkpt lat="54.582847" lon="-3.189311"><ele>141</ele><time>2019-10-02T15:47:18Z</time><name>PT16702</name></trkpt>
<trkpt lat="54.582859" lon="-3.189311"><ele>141</ele><time>2019-10-02T15:47:18Z</time><name>PT16703</name></trkpt>
<trkpt lat="54.582872" lon="-3.189310"><ele>141</ele><time>2019-10-02T15:47:20Z</time><name>PT16704</name></trkpt>
<trkpt lat="54.582883" lon="-3.189303"><ele>143</ele><time>2019-10-02T15:47:20Z</time><name>PT16705</name></trkpt>
<trkpt lat="54.582900" lon="-3.189305"><ele>143</ele><time>2019-10-02T15:47:22Z</time><name>PT16706</name></trkpt>
<trkpt lat="54.582913" lon="-3.189300"><ele>143</ele><time>2019-10-02T15:47:22Z</time><name>PT16707</name></trkpt>
<trkpt lat="54.582927" lon="-3.189297"><ele>143</ele><time>2019-10-02T15:47:24Z</time><name>PT16708</name></trkpt>
<trkpt lat="54.582944" lon="-3.189295"><ele>142</ele><time>2019-10-02T15:47:24Z</time><name>PT16709</name></trkpt>
<trkpt lat="54.582962" lon="-3.189297"><ele>142</ele><time>2019-10-02T15:47:26Z</time><name>PT16710</name></trkpt>
<trkpt lat="54.582980" lon="-3.189299"><ele>141</ele><time>2019-10-02T15:47:26Z</time><name>PT16711</name></trkpt>
<trkpt lat="54.582994" lon="-3.189299"><ele>141</ele><time>2019-10-02T15:47:28Z</time><name>PT16712</name></trkpt>
<trkpt lat="54.583008" lon="-3.189294"><ele>141</ele><time>2019-10-02T15:47:28Z</time><name>PT16713</name></trkpt>
<trkpt lat="54.583021" lon="-3.189289"><ele>141</ele><time>2019-10-02T15:47:30Z</time><name>PT16714</name></trkpt>
<trkpt lat="54.583033" lon="-3.189285"><ele>141</ele><time>2019-10-02T15:47:30Z</time><name>PT16715</name></trkpt>
<trkpt lat="54.583046" lon="-3.189282"><ele>141</ele><time>2019-10-02T15:47:32Z</time><name>PT16716</name></trkpt>
<trkpt lat="54.583060" lon="-3.189284"><ele>141</ele><time>2019-10-02T15:47:32Z</time><name>PT16717</name></trkpt>
<trkpt lat="54.583075" lon="-3.189284"><ele>141</ele><time>2019-10-02T15:47:34Z</time><name>PT16718</name></trkpt>
<trkpt lat="54.583089" lon="-3.189282"><ele>140</ele><time>2019-10-02T15:47:34Z</time><name>PT16719</name></trkpt>
<trkpt lat="54.583105" lon="-3.189282"><ele>140</ele><time>2019-10-02T15:47:36Z</time><name>PT16720</name></trkpt>
<trkpt lat="54.583117" lon="-3.189280"><ele>140</ele><time>2019-10-02T15:47:36Z</time><name>PT16721</name></trkpt>
<trkpt lat="54.583133" lon="-3.189279"><ele>140</ele><time>2019-10-02T15:47:38Z</time><name>PT16722</name></trkpt>
<trkpt lat="54.583147" lon="-3.189280"><ele>140</ele><time>2019-10-02T15:47:38Z</time><name>PT16723</name></trkpt>
<trkpt lat="54.583160" lon="-3.189280"><ele>140</ele><time>2019-10-02T15:47:40Z</time><name>PT16724</name></trkpt>
<trkpt lat="54.583173" lon="-3.189275"><ele>140</ele><time>2019-10-02T15:47:40Z</time><name>PT16725</name></trkpt>
<trkpt lat="54.583188" lon="-3.189271"><ele>140</ele><time>2019-10-02T15:47:42Z</time><name>PT16726</name></trkpt>
<trkpt lat="54.583201" lon="-3.189267"><ele>140</ele><time>2019-10-02T15:47:42Z</time><name>PT16727</name></trkpt>
<trkpt lat="54.583212" lon="-3.189266"><ele>140</ele><time>2019-10-02T15:47:44Z</time><name>PT16728</name></trkpt>
<trkpt lat="54.583225" lon="-3.189268"><ele>139</ele><time>2019-10-02T15:47:44Z</time><name>PT16729</name></trkpt>
<trkpt lat="54.583239" lon="-3.189271"><ele>139</ele><time>2019-10-02T15:47:46Z</time><name>PT16730</name></trkpt>
<trkpt lat="54.583253" lon="-3.189272"><ele>139</ele><time>2019-10-02T15:47:46Z</time><name>PT16731</name></trkpt>
<trkpt lat="54.583266" lon="-3.189265"><ele>139</ele><time>2019-10-02T15:47:48Z</time><name>PT16732</name></trkpt>
<trkpt lat="54.583279" lon="-3.189257"><ele>139</ele><time>2019-10-02T15:47:48Z</time><name>PT16733</name></trkpt>
<trkpt lat="54.583292" lon="-3.189254"><ele>139</ele><time>2019-10-02T15:47:50Z</time><name>PT16734</name></trkpt>
<trkpt lat="54.583306" lon="-3.189259"><ele>138</ele><time>2019-10-02T15:47:50Z</time><name>PT16735</name></trkpt>
<trkpt lat="54.583319" lon="-3.189261"><ele>138</ele><time>2019-10-02T15:47:52Z</time><name>PT16736</name></trkpt>
<trkpt lat="54.583332" lon="-3.189260"><ele>138</ele><time>2019-10-02T15:47:52Z</time><name>PT16737</name></trkpt>
<trkpt lat="54.583343" lon="-3.189258"><ele>138</ele><time>2019-10-02T15:47:54Z</time><name>PT16738</name></trkpt>
<trkpt lat="54.583356" lon="-3.189254"><ele>138</ele><time>2019-10-02T15:47:54Z</time><name>PT16739</name></trkpt>
<trkpt lat="54.583370" lon="-3.189251"><ele>138</ele><time>2019-10-02T15:47:56Z</time><name>PT16740</name></trkpt>
<trkpt lat="54.583384" lon="-3.189248"><ele>138</ele><time>2019-10-02T15:47:56Z</time><name>PT16741</name></trkpt>
<trkpt lat="54.583397" lon="-3.189248"><ele>138</ele><time>2019-10-02T15:47:58Z</time><name>PT16742</name></trkpt>
<trkpt lat="54.583408" lon="-3.189250"><ele>138</ele><time>2019-10-02T15:47:58Z</time><name>PT16743</name></trkpt>
<trkpt lat="54.583421" lon="-3.189250"><ele>138</ele><time>2019-10-02T15:48:00Z</time><name>PT16744</name></trkpt>
<trkpt lat="54.583433" lon="-3.189249"><ele>138</ele><time>2019-10-02T15:48:00Z</time><name>PT16745</name></trkpt>
<trkpt lat="54.583445" lon="-3.189246"><ele>137</ele><time>2019-10-02T15:48:02Z</time><name>PT16746</name></trkpt>
<trkpt lat="54.583459" lon="-3.189241"><ele>137</ele><time>2019-10-02T15:48:03Z</time><name>PT16747</name></trkpt>
<trkpt lat="54.583472" lon="-3.189238"><ele>137</ele><time>2019-10-02T15:48:03Z</time><name>PT16748</name></trkpt>
<trkpt lat="54.583485" lon="-3.189235"><ele>137</ele><time>2019-10-02T15:48:05Z</time><name>PT16749</name></trkpt>
<trkpt lat="54.583497" lon="-3.189235"><ele>137</ele><time>2019-10-02T15:48:05Z</time><name>PT16750</name></trkpt>
<trkpt lat="54.583511" lon="-3.189235"><ele>137</ele><time>2019-10-02T15:48:07Z</time><name>PT16751</name></trkpt>
<trkpt lat="54.583524" lon="-3.189233"><ele>136</ele><time>2019-10-02T15:48:08Z</time><name>PT16752</name></trkpt>
<trkpt lat="54.583536" lon="-3.189229"><ele>136</ele><time>2019-10-02T15:48:08Z</time><name>PT16753</name></trkpt>
<trkpt lat="54.583548" lon="-3.189227"><ele>136</ele><time>2019-10-02T15:48:10Z</time><name>PT16754</name></trkpt>
<trkpt lat="54.583561" lon="-3.189225"><ele>135</ele><time>2019-10-02T15:48:10Z</time><name>PT16755</name></trkpt>
<trkpt lat="54.583573" lon="-3.189224"><ele>135</ele><time>2019-10-02T15:48:12Z</time><name>PT16756</name></trkpt>
<trkpt lat="54.583584" lon="-3.189225"><ele>135</ele><time>2019-10-02T15:48:12Z</time><name>PT16757</name></trkpt>
<trkpt lat="54.583597" lon="-3.189223"><ele>135</ele><time>2019-10-02T15:48:14Z</time><name>PT16758</name></trkpt>
<trkpt lat="54.583608" lon="-3.189219"><ele>135</ele><time>2019-10-02T15:48:14Z</time><name>PT16759</name></trkpt>
<trkpt lat="54.583620" lon="-3.189213"><ele>135</ele><time>2019-10-02T15:48:16Z</time><name>PT16760</name></trkpt>
<trkpt lat="54.583633" lon="-3.189209"><ele>135</ele><time>2019-10-02T15:48:16Z</time><name>PT16761</name></trkpt>
<trkpt lat="54.583645" lon="-3.189210"><ele>134</ele><time>2019-10-02T15:48:18Z</time><name>PT16762</name></trkpt>
<trkpt lat="54.583656" lon="-3.189207"><ele>134</ele><time>2019-10-02T15:48:18Z</time><name>PT16763</name></trkpt>
<trkpt lat="54.583668" lon="-3.189203"><ele>134</ele><time>2019-10-02T15:48:20Z</time><name>PT16764</name></trkpt>
<trkpt lat="54.583680" lon="-3.189201"><ele>134</ele><time>2019-10-02T15:48:20Z</time><name>PT16765</name></trkpt>
<trkpt lat="54.583692" lon="-3.189199"><ele>134</ele><time>2019-10-02T15:48:22Z</time><name>PT16766</name></trkpt>
<trkpt lat="54.583702" lon="-3.189195"><ele>134</ele><time>2019-10-02T15:48:22Z</time><name>PT16767</name></trkpt>
<trkpt lat="54.583714" lon="-3.189190"><ele>134</ele><time>2019-10-02T15:48:24Z</time><name>PT16768</name></trkpt>
<trkpt lat="54.583728" lon="-3.189188"><ele>134</ele><time>2019-10-02T15:48:24Z</time><name>PT16769</name></trkpt>
<trkpt lat="54.583740" lon="-3.189189"><ele>134</ele><time>2019-10-02T15:48:26Z</time><name>PT16770</name></trkpt>
<trkpt lat="54.583752" lon="-3.189187"><ele>134</ele><time>2019-10-02T15:48:26Z</time><name>PT16771</name></trkpt>
<trkpt lat="54.583764" lon="-3.189179"><ele>134</ele><time>2019-10-02T15:48:28Z</time><name>PT16772</name></trkpt>
<trkpt lat="54.583777" lon="-3.189173"><ele>133</ele><time>2019-10-02T15:48:28Z</time><name>PT16773</name></trkpt>
<trkpt lat="54.583791" lon="-3.189169"><ele>133</ele><time>2019-10-02T15:48:30Z</time><name>PT16774</name></trkpt>
<trkpt lat="54.583803" lon="-3.189165"><ele>133</ele><time>2019-10-02T15:48:30Z</time><name>PT16775</name></trkpt>
<trkpt lat="54.583816" lon="-3.189161"><ele>133</ele><time>2019-10-02T15:48:32Z</time><name>PT16776</name></trkpt>
<trkpt lat="54.583831" lon="-3.189166"><ele>133</ele><time>2019-10-02T15:48:32Z</time><name>PT16777</name></trkpt>
<trkpt lat="54.583843" lon="-3.189165"><ele>133</ele><time>2019-10-02T15:48:34Z</time><name>PT16778</name></trkpt>
<trkpt lat="54.583856" lon="-3.189160"><ele>133</ele><time>2019-10-02T15:48:34Z</time><name>PT16779</name></trkpt>
<trkpt lat="54.583870" lon="-3.189155"><ele>133</ele><time>2019-10-02T15:48:36Z</time><name>PT16780</name></trkpt>
<trkpt lat="54.583883" lon="-3.189149"><ele>132</ele><time>2019-10-02T15:48:36Z</time><name>PT16781</name></trkpt>
<trkpt lat="54.583895" lon="-3.189144"><ele>133</ele><time>2019-10-02T15:48:38Z</time><name>PT16782</name></trkpt>
<trkpt lat="54.583906" lon="-3.189143"><ele>133</ele><time>2019-10-02T15:48:38Z</time><name>PT16783</name></trkpt>
<trkpt lat="54.583917" lon="-3.189137"><ele>133</ele><time>2019-10-02T15:48:40Z</time><name>PT16784</name></trkpt>
<trkpt lat="54.583930" lon="-3.189132"><ele>133</ele><time>2019-10-02T15:48:40Z</time><name>PT16785</name></trkpt>
<trkpt lat="54.583940" lon="-3.189121"><ele>134</ele><time>2019-10-02T15:48:42Z</time><name>PT16786</name></trkpt>
<trkpt lat="54.583951" lon="-3.189113"><ele>133</ele><time>2019-10-02T15:48:42Z</time><name>PT16787</name></trkpt>
<trkpt lat="54.583964" lon="-3.189104"><ele>133</ele><time>2019-10-02T15:48:44Z</time><name>PT16788</name></trkpt>
<trkpt lat="54.583976" lon="-3.189101"><ele>133</ele><time>2019-10-02T15:48:44Z</time><name>PT16789</name></trkpt>
<trkpt lat="54.583988" lon="-3.189100"><ele>133</ele><time>2019-10-02T15:48:46Z</time><name>PT16790</name></trkpt>
<trkpt lat="54.584004" lon="-3.189103"><ele>132</ele><time>2019-10-02T15:48:46Z</time><name>PT16791</name></trkpt>
<trkpt lat="54.584016" lon="-3.189100"><ele>132</ele><time>2019-10-02T15:48:48Z</time><name>PT16792</name></trkpt>
<trkpt lat="54.584028" lon="-3.189093"><ele>132</ele><time>2019-10-02T15:48:48Z</time><name>PT16793</name></trkpt>
<trkpt lat="54.584041" lon="-3.189086"><ele>132</ele><time>2019-10-02T15:48:50Z</time><name>PT16794</name></trkpt>
<trkpt lat="54.584055" lon="-3.189080"><ele>132</ele><time>2019-10-02T15:48:50Z</time><name>PT16795</name></trkpt>
<trkpt lat="54.584068" lon="-3.189077"><ele>131</ele><time>2019-10-02T15:48:52Z</time><name>PT16796</name></trkpt>
<trkpt lat="54.584081" lon="-3.189070"><ele>131</ele><time>2019-10-02T15:48:52Z</time><name>PT16797</name></trkpt>
<trkpt lat="54.584093" lon="-3.189058"><ele>131</ele><time>2019-10-02T15:48:54Z</time><name>PT16798</name></trkpt>
<trkpt lat="54.584105" lon="-3.189054"><ele>131</ele><time>2019-10-02T15:48:54Z</time><name>PT16799</name></trkpt>
<trkpt lat="54.584121" lon="-3.189050"><ele>131</ele><time>2019-10-02T15:48:56Z</time><name>PT16800</name></trkpt>
<trkpt lat="54.584134" lon="-3.189043"><ele>131</ele><time>2019-10-02T15:48:56Z</time><name>PT16801</name></trkpt>
<trkpt lat="54.584145" lon="-3.189035"><ele>131</ele><time>2019-10-02T15:48:58Z</time><name>PT16802</name></trkpt>
<trkpt lat="54.584158" lon="-3.189028"><ele>131</ele><time>2019-10-02T15:48:58Z</time><name>PT16803</name></trkpt>
<trkpt lat="54.584171" lon="-3.189022"><ele>131</ele><time>2019-10-02T15:49:00Z</time><name>PT16804</name></trkpt>
<trkpt lat="54.584186" lon="-3.189014"><ele>131</ele><time>2019-10-02T15:49:00Z</time><name>PT16805</name></trkpt>
<trkpt lat="54.584199" lon="-3.189011"><ele>131</ele><time>2019-10-02T15:49:02Z</time><name>PT16806</name></trkpt>
<trkpt lat="54.584211" lon="-3.189011"><ele>131</ele><time>2019-10-02T15:49:02Z</time><name>PT16807</name></trkpt>
<trkpt lat="54.584222" lon="-3.189004"><ele>131</ele><time>2019-10-02T15:49:04Z</time><name>PT16808</name></trkpt>
<trkpt lat="54.584235" lon="-3.188996"><ele>131</ele><time>2019-10-02T15:49:04Z</time><name>PT16809</name></trkpt>
<trkpt lat="54.584248" lon="-3.188989"><ele>131</ele><time>2019-10-02T15:49:06Z</time><name>PT16810</name></trkpt>
<trkpt lat="54.584260" lon="-3.188983"><ele>131</ele><time>2019-10-02T15:49:06Z</time><name>PT16811</name></trkpt>
<trkpt lat="54.584274" lon="-3.188977"><ele>131</ele><time>2019-10-02T15:49:08Z</time><name>PT16812</name></trkpt>
<trkpt lat="54.584287" lon="-3.188971"><ele>131</ele><time>2019-10-02T15:49:08Z</time><name>PT16813</name></trkpt>
<trkpt lat="54.584300" lon="-3.188962"><ele>131</ele><time>2019-10-02T15:49:10Z</time><name>PT16814</name></trkpt>
<trkpt lat="54.584311" lon="-3.188959"><ele>131</ele><time>2019-10-02T15:49:10Z</time><name>PT16815</name></trkpt>
<trkpt lat="54.584319" lon="-3.188956"><ele>131</ele><time>2019-10-02T15:49:12Z</time><name>PT16816</name></trkpt>
<trkpt lat="54.584323" lon="-3.188954"><ele>131</ele><time>2019-10-02T15:49:12Z</time><name>PT16817</name></trkpt>
<trkpt lat="54.584324" lon="-3.188955"><ele>131</ele><time>2019-10-02T15:49:14Z</time><name>PT16818</name></trkpt>
<trkpt lat="54.584325" lon="-3.188956"><ele>131</ele><time>2019-10-02T15:49:14Z</time><name>PT16819</name></trkpt>
<trkpt lat="54.584328" lon="-3.188954"><ele>131</ele><time>2019-10-02T15:49:16Z</time><name>PT16820</name></trkpt>
<trkpt lat="54.584333" lon="-3.188955"><ele>131</ele><time>2019-10-02T15:49:16Z</time><name>PT16821</name></trkpt>
<trkpt lat="54.584342" lon="-3.188952"><ele>131</ele><time>2019-10-02T15:49:18Z</time><name>PT16822</name></trkpt>
<trkpt lat="54.584355" lon="-3.188945"><ele>131</ele><time>2019-10-02T15:49:18Z</time><name>PT16823</name></trkpt>
<trkpt lat="54.584367" lon="-3.188939"><ele>131</ele><time>2019-10-02T15:49:20Z</time><name>PT16824</name></trkpt>
<trkpt lat="54.584379" lon="-3.188932"><ele>131</ele><time>2019-10-02T15:49:20Z</time><name>PT16825</name></trkpt>
<trkpt lat="54.584392" lon="-3.188928"><ele>130</ele><time>2019-10-02T15:49:22Z</time><name>PT16826</name></trkpt>
<trkpt lat="54.584405" lon="-3.188925"><ele>130</ele><time>2019-10-02T15:49:22Z</time><name>PT16827</name></trkpt>
<trkpt lat="54.584418" lon="-3.188923"><ele>130</ele><time>2019-10-02T15:49:24Z</time><name>PT16828</name></trkpt>
<trkpt lat="54.584430" lon="-3.188919"><ele>130</ele><time>2019-10-02T15:49:24Z</time><name>PT16829</name></trkpt>
<trkpt lat="54.584442" lon="-3.188914"><ele>130</ele><time>2019-10-02T15:49:26Z</time><name>PT16830</name></trkpt>
<trkpt lat="54.584453" lon="-3.188909"><ele>130</ele><time>2019-10-02T15:49:26Z</time><name>PT16831</name></trkpt>
<trkpt lat="54.584466" lon="-3.188902"><ele>130</ele><time>2019-10-02T15:49:28Z</time><name>PT16832</name></trkpt>
<trkpt lat="54.584478" lon="-3.188898"><ele>130</ele><time>2019-10-02T15:49:28Z</time><name>PT16833</name></trkpt>
<trkpt lat="54.584490" lon="-3.188895"><ele>130</ele><time>2019-10-02T15:49:30Z</time><name>PT16834</name></trkpt>
<trkpt lat="54.584504" lon="-3.188892"><ele>130</ele><time>2019-10-02T15:49:30Z</time><name>PT16835</name></trkpt>
<trkpt lat="54.584518" lon="-3.188886"><ele>130</ele><time>2019-10-02T15:49:32Z</time><name>PT16836</name></trkpt>
<trkpt lat="54.584531" lon="-3.188883"><ele>130</ele><time>2019-10-02T15:49:32Z</time><name>PT16837</name></trkpt>
<trkpt lat="54.584542" lon="-3.188880"><ele>130</ele><time>2019-10-02T15:49:34Z</time><name>PT16838</name></trkpt>
<trkpt lat="54.584552" lon="-3.188878"><ele>129</ele><time>2019-10-02T15:49:34Z</time><name>PT16839</name></trkpt>
<trkpt lat="54.584559" lon="-3.188881"><ele>129</ele><time>2019-10-02T15:49:36Z</time><name>PT16840</name></trkpt>
<trkpt lat="54.584561" lon="-3.188883"><ele>128</ele><time>2019-10-02T15:49:36Z</time><name>PT16841</name></trkpt>
<trkpt lat="54.584566" lon="-3.188884"><ele>128</ele><time>2019-10-02T15:49:38Z</time><name>PT16842</name></trkpt>
<trkpt lat="54.584570" lon="-3.188885"><ele>128</ele><time>2019-10-02T15:49:38Z</time><name>PT16843</name></trkpt>
<trkpt lat="54.584572" lon="-3.188886"><ele>128</ele><time>2019-10-02T15:49:40Z</time><name>PT16844</name></trkpt>
<trkpt lat="54.584572" lon="-3.188887"><ele>128</ele><time>2019-10-02T15:49:40Z</time><name>PT16845</name></trkpt>
<trkpt lat="54.584577" lon="-3.188885"><ele>128</ele><time>2019-10-02T15:49:46Z</time><name>PT16846</name></trkpt>
<trkpt lat="54.584589" lon="-3.188880"><ele>128</ele><time>2019-10-02T15:49:46Z</time><name>PT16847</name></trkpt>
<trkpt lat="54.584602" lon="-3.188874"><ele>128</ele><time>2019-10-02T15:49:48Z</time><name>PT16848</name></trkpt>
<trkpt lat="54.584616" lon="-3.188869"><ele>128</ele><time>2019-10-02T15:49:48Z</time><name>PT16849</name></trkpt>
<trkpt lat="54.584628" lon="-3.188866"><ele>128</ele><time>2019-10-02T15:49:50Z</time><name>PT16850</name></trkpt>
<trkpt lat="54.584640" lon="-3.188867"><ele>128</ele><time>2019-10-02T15:49:50Z</time><name>PT16851</name></trkpt>
<trkpt lat="54.584651" lon="-3.188867"><ele>127</ele><time>2019-10-02T15:49:52Z</time><name>PT16852</name></trkpt>
<trkpt lat="54.584665" lon="-3.188864"><ele>127</ele><time>2019-10-02T15:49:52Z</time><name>PT16853</name></trkpt>
<trkpt lat="54.584678" lon="-3.188862"><ele>127</ele><time>2019-10-02T15:49:54Z</time><name>PT16854</name></trkpt>
<trkpt lat="54.584691" lon="-3.188860"><ele>127</ele><time>2019-10-02T15:49:54Z</time><name>PT16855</name></trkpt>
<trkpt lat="54.584705" lon="-3.188857"><ele>127</ele><time>2019-10-02T15:49:56Z</time><name>PT16856</name></trkpt>
<trkpt lat="54.584719" lon="-3.188857"><ele>127</ele><time>2019-10-02T15:49:56Z</time><name>PT16857</name></trkpt>
<trkpt lat="54.584731" lon="-3.188853"><ele>127</ele><time>2019-10-02T15:49:58Z</time><name>PT16858</name></trkpt>
<trkpt lat="54.584743" lon="-3.188844"><ele>128</ele><time>2019-10-02T15:49:58Z</time><name>PT16859</name></trkpt>
<trkpt lat="54.584756" lon="-3.188839"><ele>127</ele><time>2019-10-02T15:50:00Z</time><name>PT16860</name></trkpt>
<trkpt lat="54.584769" lon="-3.188835"><ele>127</ele><time>2019-10-02T15:50:00Z</time><name>PT16861</name></trkpt>
<trkpt lat="54.584781" lon="-3.188831"><ele>128</ele><time>2019-10-02T15:50:02Z</time><name>PT16862</name></trkpt>
<trkpt lat="54.584794" lon="-3.188831"><ele>128</ele><time>2019-10-02T15:50:02Z</time><name>PT16863</name></trkpt>
<trkpt lat="54.584809" lon="-3.188830"><ele>128</ele><time>2019-10-02T15:50:04Z</time><name>PT16864</name></trkpt>
<trkpt lat="54.584821" lon="-3.188827"><ele>127</ele><time>2019-10-02T15:50:04Z</time><name>PT16865</name></trkpt>
<trkpt lat="54.584833" lon="-3.188825"><ele>127</ele><time>2019-10-02T15:50:06Z</time><name>PT16866</name></trkpt>
<trkpt lat="54.584847" lon="-3.188822"><ele>127</ele><time>2019-10-02T15:50:06Z</time><name>PT16867</name></trkpt>
<trkpt lat="54.584860" lon="-3.188821"><ele>127</ele><time>2019-10-02T15:50:08Z</time><name>PT16868</name></trkpt>
<trkpt lat="54.584872" lon="-3.188824"><ele>127</ele><time>2019-10-02T15:50:08Z</time><name>PT16869</name></trkpt>
<trkpt lat="54.584886" lon="-3.188828"><ele>127</ele><time>2019-10-02T15:50:10Z</time><name>PT16870</name></trkpt>
<trkpt lat="54.584900" lon="-3.188825"><ele>127</ele><time>2019-10-02T15:50:10Z</time><name>PT16871</name></trkpt>
<trkpt lat="54.584913" lon="-3.188824"><ele>127</ele><time>2019-10-02T15:50:12Z</time><name>PT16872</name></trkpt>
<trkpt lat="54.584925" lon="-3.188820"><ele>127</ele><time>2019-10-02T15:50:12Z</time><name>PT16873</name></trkpt>
<trkpt lat="54.584938" lon="-3.188813"><ele>127</ele><time>2019-10-02T15:50:14Z</time><name>PT16874</name></trkpt>
<trkpt lat="54.584952" lon="-3.188808"><ele>127</ele><time>2019-10-02T15:50:14Z</time><name>PT16875</name></trkpt>
<trkpt lat="54.584964" lon="-3.188802"><ele>127</ele><time>2019-10-02T15:50:16Z</time><name>PT16876</name></trkpt>
<trkpt lat="54.584976" lon="-3.188802"><ele>128</ele><time>2019-10-02T15:50:16Z</time><name>PT16877</name></trkpt>
<trkpt lat="54.584988" lon="-3.188800"><ele>128</ele><time>2019-10-02T15:50:18Z</time><name>PT16878</name></trkpt>
<trkpt lat="54.585002" lon="-3.188801"><ele>128</ele><time>2019-10-02T15:50:18Z</time><name>PT16879</name></trkpt>
<trkpt lat="54.585016" lon="-3.188801"><ele>128</ele><time>2019-10-02T15:50:20Z</time><name>PT16880</name></trkpt>
<trkpt lat="54.585028" lon="-3.188801"><ele>128</ele><time>2019-10-02T15:50:20Z</time><name>PT16881</name></trkpt>
<trkpt lat="54.585040" lon="-3.188798"><ele>128</ele><time>2019-10-02T15:50:22Z</time><name>PT16882</name></trkpt>
<trkpt lat="54.585054" lon="-3.188795"><ele>128</ele><time>2019-10-02T15:50:22Z</time><name>PT16883</name></trkpt>
<trkpt lat="54.585066" lon="-3.188796"><ele>128</ele><time>2019-10-02T15:50:24Z</time><name>PT16884</name></trkpt>
<trkpt lat="54.585078" lon="-3.188797"><ele>128</ele><time>2019-10-02T15:50:24Z</time><name>PT16885</name></trkpt>
<trkpt lat="54.585090" lon="-3.188798"><ele>128</ele><time>2019-10-02T15:50:26Z</time><name>PT16886</name></trkpt>
<trkpt lat="54.585102" lon="-3.188798"><ele>128</ele><time>2019-10-02T15:50:26Z</time><name>PT16887</name></trkpt>
<trkpt lat="54.585112" lon="-3.188797"><ele>128</ele><time>2019-10-02T15:50:28Z</time><name>PT16888</name></trkpt>
<trkpt lat="54.585121" lon="-3.188792"><ele>128</ele><time>2019-10-02T15:50:28Z</time><name>PT16889</name></trkpt>
<trkpt lat="54.585129" lon="-3.188790"><ele>128</ele><time>2019-10-02T15:50:30Z</time><name>PT16890</name></trkpt>
<trkpt lat="54.585135" lon="-3.188790"><ele>128</ele><time>2019-10-02T15:50:30Z</time><name>PT16891</name></trkpt>
<trkpt lat="54.585139" lon="-3.188790"><ele>128</ele><time>2019-10-02T15:50:32Z</time><name>PT16892</name></trkpt>
<trkpt lat="54.585143" lon="-3.188798"><ele>127</ele><time>2019-10-02T15:50:32Z</time><name>PT16893</name></trkpt>
<trkpt lat="54.585143" lon="-3.188801"><ele>127</ele><time>2019-10-02T15:50:34Z</time><name>PT16894</name></trkpt>
<trkpt lat="54.585143" lon="-3.188803"><ele>127</ele><time>2019-10-02T15:50:34Z</time><name>PT16895</name></trkpt>
<trkpt lat="54.585147" lon="-3.188803"><ele>127</ele><time>2019-10-02T15:50:38Z</time><name>PT16896</name></trkpt>
<trkpt lat="54.585156" lon="-3.188808"><ele>127</ele><time>2019-10-02T15:50:38Z</time><name>PT16897</name></trkpt>
<trkpt lat="54.585170" lon="-3.188808"><ele>127</ele><time>2019-10-02T15:50:40Z</time><name>PT16898</name></trkpt>
<trkpt lat="54.585182" lon="-3.188808"><ele>127</ele><time>2019-10-02T15:50:40Z</time><name>PT16899</name></trkpt>
<trkpt lat="54.585195" lon="-3.188812"><ele>127</ele><time>2019-10-02T15:50:42Z</time><name>PT16900</name></trkpt>
<trkpt lat="54.585208" lon="-3.188810"><ele>127</ele><time>2019-10-02T15:50:42Z</time><name>PT16901</name></trkpt>
<trkpt lat="54.585221" lon="-3.188810"><ele>127</ele><time>2019-10-02T15:50:44Z</time><name>PT16902</name></trkpt>
<trkpt lat="54.585236" lon="-3.188811"><ele>127</ele><time>2019-10-02T15:50:44Z</time><name>PT16903</name></trkpt>
<trkpt lat="54.585245" lon="-3.188812"><ele>127</ele><time>2019-10-02T15:50:46Z</time><name>PT16904</name></trkpt>
<trkpt lat="54.585254" lon="-3.188810"><ele>127</ele><time>2019-10-02T15:50:46Z</time><name>PT16905</name></trkpt>
<trkpt lat="54.585263" lon="-3.188811"><ele>126</ele><time>2019-10-02T15:50:48Z</time><name>PT16906</name></trkpt>
<trkpt lat="54.585270" lon="-3.188817"><ele>126</ele><time>2019-10-02T15:50:48Z</time><name>PT16907</name></trkpt>
<trkpt lat="54.585272" lon="-3.188820"><ele>126</ele><time>2019-10-02T15:50:50Z</time><name>PT16908</name></trkpt>
<trkpt lat="54.585275" lon="-3.188821"><ele>126</ele><time>2019-10-02T15:50:50Z</time><name>PT16909</name></trkpt>
<trkpt lat="54.585283" lon="-3.188824"><ele>126</ele><time>2019-10-02T15:50:52Z</time><name>PT16910</name></trkpt>
<trkpt lat="54.585293" lon="-3.188825"><ele>126</ele><time>2019-10-02T15:50:52Z</time><name>PT16911</name></trkpt>
<trkpt lat="54.585306" lon="-3.188827"><ele>126</ele><time>2019-10-02T15:50:54Z</time><name>PT16912</name></trkpt>
<trkpt lat="54.585319" lon="-3.188827"><ele>126</ele><time>2019-10-02T15:50:54Z</time><name>PT16913</name></trkpt>
<trkpt lat="54.585331" lon="-3.188825"><ele>126</ele><time>2019-10-02T15:50:56Z</time><name>PT16914</name></trkpt>
<trkpt lat="54.585344" lon="-3.188824"><ele>126</ele><time>2019-10-02T15:50:56Z</time><name>PT16915</name></trkpt>
<trkpt lat="54.585356" lon="-3.188822"><ele>126</ele><time>2019-10-02T15:50:58Z</time><name>PT16916</name></trkpt>
<trkpt lat="54.585368" lon="-3.188822"><ele>126</ele><time>2019-10-02T15:50:58Z</time><name>PT16917</name></trkpt>
<trkpt lat="54.585383" lon="-3.188825"><ele>126</ele><time>2019-10-02T15:51:00Z</time><name>PT16918</name></trkpt>
<trkpt lat="54.585398" lon="-3.188830"><ele>126</ele><time>2019-10-02T15:51:00Z</time><name>PT16919</name></trkpt>
<trkpt lat="54.585411" lon="-3.188830"><ele>126</ele><time>2019-10-02T15:51:02Z</time><name>PT16920</name></trkpt>
<trkpt lat="54.585424" lon="-3.188825"><ele>126</ele><time>2019-10-02T15:51:02Z</time><name>PT16921</name></trkpt>
<trkpt lat="54.585436" lon="-3.188822"><ele>126</ele><time>2019-10-02T15:51:04Z</time><name>PT16922</name></trkpt>
<trkpt lat="54.585447" lon="-3.188821"><ele>126</ele><time>2019-10-02T15:51:04Z</time><name>PT16923</name></trkpt>
<trkpt lat="54.585460" lon="-3.188821"><ele>126</ele><time>2019-10-02T15:51:06Z</time><name>PT16924</name></trkpt>
<trkpt lat="54.585474" lon="-3.188821"><ele>126</ele><time>2019-10-02T15:51:06Z</time><name>PT16925</name></trkpt>
<trkpt lat="54.585486" lon="-3.188821"><ele>125</ele><time>2019-10-02T15:51:08Z</time><name>PT16926</name></trkpt>
<trkpt lat="54.585498" lon="-3.188814"><ele>126</ele><time>2019-10-02T15:51:08Z</time><name>PT16927</name></trkpt>
<trkpt lat="54.585510" lon="-3.188812"><ele>125</ele><time>2019-10-02T15:51:10Z</time><name>PT16928</name></trkpt>
<trkpt lat="54.585522" lon="-3.188812"><ele>126</ele><time>2019-10-02T15:51:10Z</time><name>PT16929</name></trkpt>
<trkpt lat="54.585534" lon="-3.188814"><ele>126</ele><time>2019-10-02T15:51:12Z</time><name>PT16930</name></trkpt>
<trkpt lat="54.585547" lon="-3.188817"><ele>126</ele><time>2019-10-02T15:51:12Z</time><name>PT16931</name></trkpt>
<trkpt lat="54.585559" lon="-3.188821"><ele>126</ele><time>2019-10-02T15:51:14Z</time><name>PT16932</name></trkpt>
<trkpt lat="54.585573" lon="-3.188825"><ele>126</ele><time>2019-10-02T15:51:14Z</time><name>PT16933</name></trkpt>
<trkpt lat="54.585587" lon="-3.188828"><ele>126</ele><time>2019-10-02T15:51:16Z</time><name>PT16934</name></trkpt>
<trkpt lat="54.585602" lon="-3.188828"><ele>126</ele><time>2019-10-02T15:51:16Z</time><name>PT16935</name></trkpt>
<trkpt lat="54.585611" lon="-3.188835"><ele>127</ele><time>2019-10-02T15:51:18Z</time><name>PT16936</name></trkpt>
<trkpt lat="54.585624" lon="-3.188840"><ele>127</ele><time>2019-10-02T15:51:18Z</time><name>PT16937</name></trkpt>
<trkpt lat="54.585638" lon="-3.188841"><ele>127</ele><time>2019-10-02T15:51:20Z</time><name>PT16938</name></trkpt>
<trkpt lat="54.585651" lon="-3.188838"><ele>128</ele><time>2019-10-02T15:51:20Z</time><name>PT16939</name></trkpt>
<trkpt lat="54.585666" lon="-3.188839"><ele>128</ele><time>2019-10-02T15:51:22Z</time><name>PT16940</name></trkpt>
<trkpt lat="54.585678" lon="-3.188842"><ele>128</ele><time>2019-10-02T15:51:22Z</time><name>PT16941</name></trkpt>
<trkpt lat="54.585689" lon="-3.188845"><ele>128</ele><time>2019-10-02T15:51:24Z</time><name>PT16942</name></trkpt>
<trkpt lat="54.585702" lon="-3.188849"><ele>128</ele><time>2019-10-02T15:51:24Z</time><name>PT16943</name></trkpt>
<trkpt lat="54.585714" lon="-3.188854"><ele>127</ele><time>2019-10-02T15:51:26Z</time><name>PT16944</name></trkpt>
<trkpt lat="54.585726" lon="-3.188854"><ele>128</ele><time>2019-10-02T15:51:26Z</time><name>PT16945</name></trkpt>
<trkpt lat="54.585739" lon="-3.188855"><ele>128</ele><time>2019-10-02T15:51:28Z</time><name>PT16946</name></trkpt>
<trkpt lat="54.585752" lon="-3.188859"><ele>127</ele><time>2019-10-02T15:51:28Z</time><name>PT16947</name></trkpt>
<trkpt lat="54.585764" lon="-3.188863"><ele>128</ele><time>2019-10-02T15:51:30Z</time><name>PT16948</name></trkpt>
<trkpt lat="54.585778" lon="-3.188865"><ele>128</ele><time>2019-10-02T15:51:30Z</time><name>PT16949</name></trkpt>
<trkpt lat="54.585792" lon="-3.188868"><ele>127</ele><time>2019-10-02T15:51:32Z</time><name>PT16950</name></trkpt>
<trkpt lat="54.585806" lon="-3.188873"><ele>127</ele><time>2019-10-02T15:51:32Z</time><name>PT16951</name></trkpt>
<trkpt lat="54.585819" lon="-3.188879"><ele>127</ele><time>2019-10-02T15:51:34Z</time><name>PT16952</name></trkpt>
<trkpt lat="54.585834" lon="-3.188884"><ele>127</ele><time>2019-10-02T15:51:34Z</time><name>PT16953</name></trkpt>
<trkpt lat="54.585848" lon="-3.188885"><ele>127</ele><time>2019-10-02T15:51:36Z</time><name>PT16954</name></trkpt>
<trkpt lat="54.585862" lon="-3.188886"><ele>127</ele><time>2019-10-02T15:51:36Z</time><name>PT16955</name></trkpt>
<trkpt lat="54.585875" lon="-3.188888"><ele>127</ele><time>2019-10-02T15:51:38Z</time><name>PT16956</name></trkpt>
<trkpt lat="54.585886" lon="-3.188896"><ele>127</ele><time>2019-10-02T15:51:38Z</time><name>PT16957</name></trkpt>
<trkpt lat="54.585900" lon="-3.188902"><ele>126</ele><time>2019-10-02T15:51:40Z</time><name>PT16958</name></trkpt>
<trkpt lat="54.585911" lon="-3.188902"><ele>126</ele><time>2019-10-02T15:51:40Z</time><name>PT16959</name></trkpt>
<trkpt lat="54.585924" lon="-3.188903"><ele>126</ele><time>2019-10-02T15:51:42Z</time><name>PT16960</name></trkpt>
<trkpt lat="54.585937" lon="-3.188908"><ele>126</ele><time>2019-10-02T15:51:42Z</time><name>PT16961</name></trkpt>
<trkpt lat="54.585951" lon="-3.188910"><ele>126</ele><time>2019-10-02T15:51:44Z</time><name>PT16962</name></trkpt>
<trkpt lat="54.585963" lon="-3.188908"><ele>126</ele><time>2019-10-02T15:51:44Z</time><name>PT16963</name></trkpt>
<trkpt lat="54.585976" lon="-3.188912"><ele>126</ele><time>2019-10-02T15:51:46Z</time><name>PT16964</name></trkpt>
<trkpt lat="54.585989" lon="-3.188917"><ele>126</ele><time>2019-10-02T15:51:46Z</time><name>PT16965</name></trkpt>
<trkpt lat="54.586003" lon="-3.188921"><ele>126</ele><time>2019-10-02T15:51:48Z</time><name>PT16966</name></trkpt>
<trkpt lat="54.586015" lon="-3.188923"><ele>126</ele><time>2019-10-02T15:51:48Z</time><name>PT16967</name></trkpt>
<trkpt lat="54.586029" lon="-3.188926"><ele>126</ele><time>2019-10-02T15:51:50Z</time><name>PT16968</name></trkpt>
<trkpt lat="54.586043" lon="-3.188926"><ele>126</ele><time>2019-10-02T15:51:50Z</time><name>PT16969</name></trkpt>
<trkpt lat="54.586057" lon="-3.188930"><ele>126</ele><time>2019-10-02T15:51:52Z</time><name>PT16970</name></trkpt>
<trkpt lat="54.586070" lon="-3.188933"><ele>126</ele><time>2019-10-02T15:51:52Z</time><name>PT16971</name></trkpt>
<trkpt lat="54.586083" lon="-3.188938"><ele>126</ele><time>2019-10-02T15:51:54Z</time><name>PT16972</name></trkpt>
<trkpt lat="54.586098" lon="-3.188942"><ele>126</ele><time>2019-10-02T15:51:54Z</time><name>PT16973</name></trkpt>
<trkpt lat="54.586112" lon="-3.188946"><ele>126</ele><time>2019-10-02T15:51:56Z</time><name>PT16974</name></trkpt>
<trkpt lat="54.586125" lon="-3.188948"><ele>126</ele><time>2019-10-02T15:51:56Z</time><name>PT16975</name></trkpt>
<trkpt lat="54.586139" lon="-3.188950"><ele>126</ele><time>2019-10-02T15:51:58Z</time><name>PT16976</name></trkpt>
<trkpt lat="54.586153" lon="-3.188952"><ele>126</ele><time>2019-10-02T15:51:58Z</time><name>PT16977</name></trkpt>
<trkpt lat="54.586166" lon="-3.188956"><ele>126</ele><time>2019-10-02T15:52:00Z</time><name>PT16978</name></trkpt>
<trkpt lat="54.586179" lon="-3.188957"><ele>126</ele><time>2019-10-02T15:52:00Z</time><name>PT16979</name></trkpt>
<trkpt lat="54.586192" lon="-3.188958"><ele>127</ele><time>2019-10-02T15:52:02Z</time><name>PT16980</name></trkpt>
<trkpt lat="54.586204" lon="-3.188954"><ele>127</ele><time>2019-10-02T15:52:02Z</time><name>PT16981</name></trkpt>
<trkpt lat="54.586216" lon="-3.188956"><ele>127</ele><time>2019-10-02T15:52:04Z</time><name>PT16982</name></trkpt>
<trkpt lat="54.586230" lon="-3.188954"><ele>127</ele><time>2019-10-02T15:52:04Z</time><name>PT16983</name></trkpt>
<trkpt lat="54.586243" lon="-3.188952"><ele>127</ele><time>2019-10-02T15:52:06Z</time><name>PT16984</name></trkpt>
<trkpt lat="54.586254" lon="-3.188952"><ele>127</ele><time>2019-10-02T15:52:06Z</time><name>PT16985</name></trkpt>
<trkpt lat="54.586266" lon="-3.188957"><ele>127</ele><time>2019-10-02T15:52:08Z</time><name>PT16986</name></trkpt>
<trkpt lat="54.586279" lon="-3.188958"><ele>127</ele><time>2019-10-02T15:52:08Z</time><name>PT16987</name></trkpt>
<trkpt lat="54.586292" lon="-3.188956"><ele>127</ele><time>2019-10-02T15:52:10Z</time><name>PT16988</name></trkpt>
<trkpt lat="54.586304" lon="-3.188964"><ele>127</ele><time>2019-10-02T15:52:10Z</time><name>PT16989</name></trkpt>
<trkpt lat="54.586317" lon="-3.188968"><ele>127</ele><time>2019-10-02T15:52:12Z</time><name>PT16990</name></trkpt>
<trkpt lat="54.586332" lon="-3.188970"><ele>127</ele><time>2019-10-02T15:52:12Z</time><name>PT16991</name></trkpt>
<trkpt lat="54.586347" lon="-3.188974"><ele>127</ele><time>2019-10-02T15:52:14Z</time><name>PT16992</name></trkpt>
<trkpt lat="54.586359" lon="-3.188973"><ele>127</ele><time>2019-10-02T15:52:14Z</time><name>PT16993</name></trkpt>
<trkpt lat="54.586373" lon="-3.188976"><ele>127</ele><time>2019-10-02T15:52:16Z</time><name>PT16994</name></trkpt>
<trkpt lat="54.586387" lon="-3.188984"><ele>127</ele><time>2019-10-02T15:52:16Z</time><name>PT16995</name></trkpt>
<trkpt lat="54.586403" lon="-3.188993"><ele>126</ele><time>2019-10-02T15:52:18Z</time><name>PT16996</name></trkpt>
<trkpt lat="54.586414" lon="-3.188995"><ele>126</ele><time>2019-10-02T15:52:18Z</time><name>PT16997</name></trkpt>
<trkpt lat="54.586428" lon="-3.188997"><ele>126</ele><time>2019-10-02T15:52:20Z</time><name>PT16998</name></trkpt>
<trkpt lat="54.586441" lon="-3.189004"><ele>125</ele><time>2019-10-02T15:52:20Z</time><name>PT16999</name></trkpt>
<trkpt lat="54.586454" lon="-3.189008"><ele>125</ele><time>2019-10-02T15:52:22Z</time><name>PT17000</name></trkpt>
<trkpt lat="54.586465" lon="-3.189012"><ele>125</ele><time>2019-10-02T15:52:22Z</time><name>PT17001</name></trkpt>
<trkpt lat="54.586479" lon="-3.189019"><ele>125</ele><time>2019-10-02T15:52:24Z</time><name>PT17002</name></trkpt>
<trkpt lat="54.586493" lon="-3.189031"><ele>125</ele><time>2019-10-02T15:52:24Z</time><name>PT17003</name></trkpt>
<trkpt lat="54.586508" lon="-3.189037"><ele>124</ele><time>2019-10-02T15:52:26Z</time><name>PT17004</name></trkpt>
<trkpt lat="54.586521" lon="-3.189037"><ele>125</ele><time>2019-10-02T15:52:26Z</time><name>PT17005</name></trkpt>
<trkpt lat="54.586533" lon="-3.189040"><ele>125</ele><time>2019-10-02T15:52:28Z</time><name>PT17006</name></trkpt>
<trkpt lat="54.586545" lon="-3.189046"><ele>124</ele><time>2019-10-02T15:52:28Z</time><name>PT17007</name></trkpt>
<trkpt lat="54.586556" lon="-3.189052"><ele>124</ele><time>2019-10-02T15:52:30Z</time><name>PT17008</name></trkpt>
<trkpt lat="54.586570" lon="-3.189058"><ele>125</ele><time>2019-10-02T15:52:30Z</time><name>PT17009</name></trkpt>
<trkpt lat="54.586584" lon="-3.189062"><ele>124</ele><time>2019-10-02T15:52:32Z</time><name>PT17010</name></trkpt>
<trkpt lat="54.586596" lon="-3.189065"><ele>124</ele><time>2019-10-02T15:52:32Z</time><name>PT17011</name></trkpt>
<trkpt lat="54.586608" lon="-3.189064"><ele>125</ele><time>2019-10-02T15:52:34Z</time><name>PT17012</name></trkpt>
<trkpt lat="54.586621" lon="-3.189067"><ele>124</ele><time>2019-10-02T15:52:34Z</time><name>PT17013</name></trkpt>
<trkpt lat="54.586634" lon="-3.189070"><ele>124</ele><time>2019-10-02T15:52:36Z</time><name>PT17014</name></trkpt>
<trkpt lat="54.586646" lon="-3.189072"><ele>125</ele><time>2019-10-02T15:52:36Z</time><name>PT17015</name></trkpt>
<trkpt lat="54.586658" lon="-3.189078"><ele>125</ele><time>2019-10-02T15:52:38Z</time><name>PT17016</name></trkpt>
<trkpt lat="54.586672" lon="-3.189083"><ele>125</ele><time>2019-10-02T15:52:38Z</time><name>PT17017</name></trkpt>
<trkpt lat="54.586684" lon="-3.189086"><ele>125</ele><time>2019-10-02T15:52:40Z</time><name>PT17018</name></trkpt>
<trkpt lat="54.586697" lon="-3.189092"><ele>125</ele><time>2019-10-02T15:52:40Z</time><name>PT17019</name></trkpt>
<trkpt lat="54.586711" lon="-3.189097"><ele>125</ele><time>2019-10-02T15:52:42Z</time><name>PT17020</name></trkpt>
<trkpt lat="54.586723" lon="-3.189101"><ele>125</ele><time>2019-10-02T15:52:42Z</time><name>PT17021</name></trkpt>
<trkpt lat="54.586734" lon="-3.189104"><ele>125</ele><time>2019-10-02T15:52:44Z</time><name>PT17022</name></trkpt>
<trkpt lat="54.586746" lon="-3.189111"><ele>125</ele><time>2019-10-02T15:52:44Z</time><name>PT17023</name></trkpt>
<trkpt lat="54.586758" lon="-3.189119"><ele>125</ele><time>2019-10-02T15:52:46Z</time><name>PT17024</name></trkpt>
<trkpt lat="54.586771" lon="-3.189124"><ele>125</ele><time>2019-10-02T15:52:46Z</time><name>PT17025</name></trkpt>
<trkpt lat="54.586783" lon="-3.189127"><ele>125</ele><time>2019-10-02T15:52:48Z</time><name>PT17026</name></trkpt>
<trkpt lat="54.586797" lon="-3.189131"><ele>125</ele><time>2019-10-02T15:52:48Z</time><name>PT17027</name></trkpt>
<trkpt lat="54.586808" lon="-3.189135"><ele>125</ele><time>2019-10-02T15:52:50Z</time><name>PT17028</name></trkpt>
<trkpt lat="54.586820" lon="-3.189141"><ele>125</ele><time>2019-10-02T15:52:50Z</time><name>PT17029</name></trkpt>
<trkpt lat="54.586834" lon="-3.189145"><ele>125</ele><time>2019-10-02T15:52:52Z</time><name>PT17030</name></trkpt>
<trkpt lat="54.586843" lon="-3.189152"><ele>124</ele><time>2019-10-02T15:52:52Z</time><name>PT17031</name></trkpt>
<trkpt lat="54.586857" lon="-3.189155"><ele>124</ele><time>2019-10-02T15:52:54Z</time><name>PT17032</name></trkpt>
<trkpt lat="54.586872" lon="-3.189159"><ele>124</ele><time>2019-10-02T15:52:54Z</time><name>PT17033</name></trkpt>
<trkpt lat="54.586886" lon="-3.189165"><ele>124</ele><time>2019-10-02T15:52:56Z</time><name>PT17034</name></trkpt>
<trkpt lat="54.586900" lon="-3.189169"><ele>124</ele><time>2019-10-02T15:52:56Z</time><name>PT17035</name></trkpt>
<trkpt lat="54.586913" lon="-3.189175"><ele>124</ele><time>2019-10-02T15:52:58Z</time><name>PT17036</name></trkpt>
<trkpt lat="54.586925" lon="-3.189188"><ele>124</ele><time>2019-10-02T15:52:58Z</time><name>PT17037</name></trkpt>
<trkpt lat="54.586937" lon="-3.189198"><ele>123</ele><time>2019-10-02T15:53:00Z</time><name>PT17038</name></trkpt>
<trkpt lat="54.586947" lon="-3.189207"><ele>123</ele><time>2019-10-02T15:53:00Z</time><name>PT17039</name></trkpt>
<trkpt lat="54.586959" lon="-3.189213"><ele>123</ele><time>2019-10-02T15:53:02Z</time><name>PT17040</name></trkpt>
<trkpt lat="54.586970" lon="-3.189216"><ele>123</ele><time>2019-10-02T15:53:02Z</time><name>PT17041</name></trkpt>
<trkpt lat="54.586983" lon="-3.189219"><ele>123</ele><time>2019-10-02T15:53:04Z</time><name>PT17042</name></trkpt>
<trkpt lat="54.586994" lon="-3.189224"><ele>123</ele><time>2019-10-02T15:53:04Z</time><name>PT17043</name></trkpt>
<trkpt lat="54.587004" lon="-3.189232"><ele>124</ele><time>2019-10-02T15:53:06Z</time><name>PT17044</name></trkpt>
<trkpt lat="54.587018" lon="-3.189241"><ele>124</ele><time>2019-10-02T15:53:06Z</time><name>PT17045</name></trkpt>
<trkpt lat="54.587030" lon="-3.189247"><ele>123</ele><time>2019-10-02T15:53:08Z</time><name>PT17046</name></trkpt>
<trkpt lat="54.587043" lon="-3.189254"><ele>123</ele><time>2019-10-02T15:53:08Z</time><name>PT17047</name></trkpt>
<trkpt lat="54.587054" lon="-3.189253"><ele>123</ele><time>2019-10-02T15:53:10Z</time><name>PT17048</name></trkpt>
<trkpt lat="54.587065" lon="-3.189253"><ele>123</ele><time>2019-10-02T15:53:10Z</time><name>PT17049</name></trkpt>
<trkpt lat="54.587078" lon="-3.189261"><ele>123</ele><time>2019-10-02T15:53:12Z</time><name>PT17050</name></trkpt>
<trkpt lat="54.587089" lon="-3.189265"><ele>124</ele><time>2019-10-02T15:53:12Z</time><name>PT17051</name></trkpt>
<trkpt lat="54.587101" lon="-3.189274"><ele>124</ele><time>2019-10-02T15:53:14Z</time><name>PT17052</name></trkpt>
<trkpt lat="54.587114" lon="-3.189282"><ele>124</ele><time>2019-10-02T15:53:14Z</time><name>PT17053</name></trkpt>
<trkpt lat="54.587127" lon="-3.189284"><ele>124</ele><time>2019-10-02T15:53:16Z</time><name>PT17054</name></trkpt>
<trkpt lat="54.587140" lon="-3.189287"><ele>124</ele><time>2019-10-02T15:53:16Z</time><name>PT17055</name></trkpt>
<trkpt lat="54.587153" lon="-3.189292"><ele>124</ele><time>2019-10-02T15:53:18Z</time><name>PT17056</name></trkpt>
<trkpt lat="54.587166" lon="-3.189294"><ele>124</ele><time>2019-10-02T15:53:18Z</time><name>PT17057</name></trkpt>
<trkpt lat="54.587178" lon="-3.189297"><ele>124</ele><time>2019-10-02T15:53:20Z</time><name>PT17058</name></trkpt>
<trkpt lat="54.587190" lon="-3.189304"><ele>124</ele><time>2019-10-02T15:53:20Z</time><name>PT17059</name></trkpt>
<trkpt lat="54.587202" lon="-3.189310"><ele>124</ele><time>2019-10-02T15:53:22Z</time><name>PT17060</name></trkpt>
<trkpt lat="54.587214" lon="-3.189311"><ele>124</ele><time>2019-10-02T15:53:22Z</time><name>PT17061</name></trkpt>
<trkpt lat="54.587227" lon="-3.189312"><ele>125</ele><time>2019-10-02T15:53:24Z</time><name>PT17062</name></trkpt>
<trkpt lat="54.587241" lon="-3.189313"><ele>125</ele><time>2019-10-02T15:53:24Z</time><name>PT17063</name></trkpt>
<trkpt lat="54.587253" lon="-3.189316"><ele>125</ele><time>2019-10-02T15:53:26Z</time><name>PT17064</name></trkpt>
<trkpt lat="54.587266" lon="-3.189320"><ele>125</ele><time>2019-10-02T15:53:26Z</time><name>PT17065</name></trkpt>
<trkpt lat="54.587281" lon="-3.189328"><ele>125</ele><time>2019-10-02T15:53:28Z</time><name>PT17066</name></trkpt>
<trkpt lat="54.587293" lon="-3.189334"><ele>125</ele><time>2019-10-02T15:53:28Z</time><name>PT17067</name></trkpt>
<trkpt lat="54.587306" lon="-3.189332"><ele>125</ele><time>2019-10-02T15:53:30Z</time><name>PT17068</name></trkpt>
<trkpt lat="54.587321" lon="-3.189332"><ele>124</ele><time>2019-10-02T15:53:30Z</time><name>PT17069</name></trkpt>
<trkpt lat="54.587335" lon="-3.189334"><ele>124</ele><time>2019-10-02T15:53:32Z</time><name>PT17070</name></trkpt>
<trkpt lat="54.587349" lon="-3.189340"><ele>124</ele><time>2019-10-02T15:53:32Z</time><name>PT17071</name></trkpt>
<trkpt lat="54.587363" lon="-3.189348"><ele>124</ele><time>2019-10-02T15:53:34Z</time><name>PT17072</name></trkpt>
<trkpt lat="54.587377" lon="-3.189354"><ele>124</ele><time>2019-10-02T15:53:34Z</time><name>PT17073</name></trkpt>
<trkpt lat="54.587392" lon="-3.189354"><ele>124</ele><time>2019-10-02T15:53:36Z</time><name>PT17074</name></trkpt>
<trkpt lat="54.587405" lon="-3.189350"><ele>124</ele><time>2019-10-02T15:53:36Z</time><name>PT17075</name></trkpt>
<trkpt lat="54.587419" lon="-3.189347"><ele>125</ele><time>2019-10-02T15:53:38Z</time><name>PT17076</name></trkpt>
<trkpt lat="54.587432" lon="-3.189343"><ele>125</ele><time>2019-10-02T15:53:38Z</time><name>PT17077</name></trkpt>
<trkpt lat="54.587445" lon="-3.189338"><ele>125</ele><time>2019-10-02T15:53:40Z</time><name>PT17078</name></trkpt>
<trkpt lat="54.587459" lon="-3.189339"><ele>125</ele><time>2019-10-02T15:53:40Z</time><name>PT17079</name></trkpt>
<trkpt lat="54.587472" lon="-3.189340"><ele>125</ele><time>2019-10-02T15:53:42Z</time><name>PT17080</name></trkpt>
<trkpt lat="54.587485" lon="-3.189337"><ele>125</ele><time>2019-10-02T15:53:42Z</time><name>PT17081</name></trkpt>
<trkpt lat="54.587499" lon="-3.189336"><ele>125</ele><time>2019-10-02T15:53:44Z</time><name>PT17082</name></trkpt>
<trkpt lat="54.587513" lon="-3.189335"><ele>125</ele><time>2019-10-02T15:53:44Z</time><name>PT17083</name></trkpt>
<trkpt lat="54.587526" lon="-3.189335"><ele>125</ele><time>2019-10-02T15:53:46Z</time><name>PT17084</name></trkpt>
<trkpt lat="54.587540" lon="-3.189334"><ele>126</ele><time>2019-10-02T15:53:46Z</time><name>PT17085</name></trkpt>
<trkpt lat="54.587553" lon="-3.189335"><ele>126</ele><time>2019-10-02T15:53:48Z</time><name>PT17086</name></trkpt>
<trkpt lat="54.587567" lon="-3.189334"><ele>126</ele><time>2019-10-02T15:53:48Z</time><name>PT17087</name></trkpt>
<trkpt lat="54.587580" lon="-3.189331"><ele>126</ele><time>2019-10-02T15:53:50Z</time><name>PT17088</name></trkpt>
<trkpt lat="54.587594" lon="-3.189328"><ele>126</ele><time>2019-10-02T15:53:50Z</time><name>PT17089</name></trkpt>
<trkpt lat="54.587607" lon="-3.189324"><ele>125</ele><time>2019-10-02T15:53:52Z</time><name>PT17090</name></trkpt>
<trkpt lat="54.587619" lon="-3.189324"><ele>126</ele><time>2019-10-02T15:53:52Z</time><name>PT17091</name></trkpt>
<trkpt lat="54.587632" lon="-3.189322"><ele>126</ele><time>2019-10-02T15:53:54Z</time><name>PT17092</name></trkpt>
<trkpt lat="54.587646" lon="-3.189319"><ele>126</ele><time>2019-10-02T15:53:54Z</time><name>PT17093</name></trkpt>
<trkpt lat="54.587657" lon="-3.189310"><ele>126</ele><time>2019-10-02T15:53:56Z</time><name>PT17094</name></trkpt>
<trkpt lat="54.587669" lon="-3.189308"><ele>126</ele><time>2019-10-02T15:53:56Z</time><name>PT17095</name></trkpt>
<trkpt lat="54.587680" lon="-3.189300"><ele>126</ele><time>2019-10-02T15:53:58Z</time><name>PT17096</name></trkpt>
<trkpt lat="54.587693" lon="-3.189298"><ele>126</ele><time>2019-10-02T15:53:58Z</time><name>PT17097</name></trkpt>
<trkpt lat="54.587705" lon="-3.189294"><ele>126</ele><time>2019-10-02T15:54:00Z</time><name>PT17098</name></trkpt>
<trkpt lat="54.587720" lon="-3.189291"><ele>126</ele><time>2019-10-02T15:54:00Z</time><name>PT17099</name></trkpt>
<trkpt lat="54.587732" lon="-3.189286"><ele>126</ele><time>2019-10-02T15:54:02Z</time><name>PT17100</name></trkpt>
<trkpt lat="54.587745" lon="-3.189280"><ele>126</ele><time>2019-10-02T15:54:02Z</time><name>PT17101</name></trkpt>
<trkpt lat="54.587758" lon="-3.189276"><ele>126</ele><time>2019-10-02T15:54:04Z</time><name>PT17102</name></trkpt>
<trkpt lat="54.587770" lon="-3.189272"><ele>126</ele><time>2019-10-02T15:54:04Z</time><name>PT17103</name></trkpt>
<trkpt lat="54.587783" lon="-3.189267"><ele>126</ele><time>2019-10-02T15:54:06Z</time><name>PT17104</name></trkpt>
<trkpt lat="54.587796" lon="-3.189264"><ele>126</ele><time>2019-10-02T15:54:06Z</time><name>PT17105</name></trkpt>
<trkpt lat="54.587810" lon="-3.189266"><ele>125</ele><time>2019-10-02T15:54:08Z</time><name>PT17106</name></trkpt>
<trkpt lat="54.587823" lon="-3.189262"><ele>125</ele><time>2019-10-02T15:54:08Z</time><name>PT17107</name></trkpt>
<trkpt lat="54.587836" lon="-3.189255"><ele>125</ele><time>2019-10-02T15:54:10Z</time><name>PT17108</name></trkpt>
<trkpt lat="54.587849" lon="-3.189252"><ele>125</ele><time>2019-10-02T15:54:10Z</time><name>PT17109</name></trkpt>
<trkpt lat="54.587861" lon="-3.189248"><ele>125</ele><time>2019-10-02T15:54:12Z</time><name>PT17110</name></trkpt>
<trkpt lat="54.587874" lon="-3.189243"><ele>125</ele><time>2019-10-02T15:54:12Z</time><name>PT17111</name></trkpt>
<trkpt lat="54.587885" lon="-3.189239"><ele>125</ele><time>2019-10-02T15:54:14Z</time><name>PT17112</name></trkpt>
<trkpt lat="54.587895" lon="-3.189231"><ele>125</ele><time>2019-10-02T15:54:14Z</time><name>PT17113</name></trkpt>
<trkpt lat="54.587908" lon="-3.189222"><ele>125</ele><time>2019-10-02T15:54:16Z</time><name>PT17114</name></trkpt>
<trkpt lat="54.587919" lon="-3.189217"><ele>124</ele><time>2019-10-02T15:54:16Z</time><name>PT17115</name></trkpt>
<trkpt lat="54.587931" lon="-3.189212"><ele>124</ele><time>2019-10-02T15:54:18Z</time><name>PT17116</name></trkpt>
<trkpt lat="54.587945" lon="-3.189210"><ele>124</ele><time>2019-10-02T15:54:18Z</time><name>PT17117</name></trkpt>
<trkpt lat="54.587958" lon="-3.189208"><ele>124</ele><time>2019-10-02T15:54:20Z</time><name>PT17118</name></trkpt>
<trkpt lat="54.587969" lon="-3.189201"><ele>124</ele><time>2019-10-02T15:54:20Z</time><name>PT17119</name></trkpt>
<trkpt lat="54.587982" lon="-3.189194"><ele>124</ele><time>2019-10-02T15:54:22Z</time><name>PT17120</name></trkpt>
<trkpt lat="54.587995" lon="-3.189186"><ele>124</ele><time>2019-10-02T15:54:22Z</time><name>PT17121</name></trkpt>
<trkpt lat="54.588007" lon="-3.189178"><ele>124</ele><time>2019-10-02T15:54:24Z</time><name>PT17122</name></trkpt>
<trkpt lat="54.588019" lon="-3.189169"><ele>124</ele><time>2019-10-02T15:54:24Z</time><name>PT17123</name></trkpt>
<trkpt lat="54.588033" lon="-3.189161"><ele>124</ele><time>2019-10-02T15:54:26Z</time><name>PT17124</name></trkpt>
<trkpt lat="54.588047" lon="-3.189156"><ele>124</ele><time>2019-10-02T15:54:26Z</time><name>PT17125</name></trkpt>
<trkpt lat="54.588059" lon="-3.189148"><ele>124</ele><time>2019-10-02T15:54:28Z</time><name>PT17126</name></trkpt>
<trkpt lat="54.588070" lon="-3.189137"><ele>125</ele><time>2019-10-02T15:54:28Z</time><name>PT17127</name></trkpt>
<trkpt lat="54.588083" lon="-3.189127"><ele>125</ele><time>2019-10-02T15:54:30Z</time><name>PT17128</name></trkpt>
<trkpt lat="54.588094" lon="-3.189117"><ele>125</ele><time>2019-10-02T15:54:30Z</time><name>PT17129</name></trkpt>
<trkpt lat="54.588106" lon="-3.189108"><ele>125</ele><time>2019-10-02T15:54:32Z</time><name>PT17130</name></trkpt>
<trkpt lat="54.588119" lon="-3.189103"><ele>125</ele><time>2019-10-02T15:54:32Z</time><name>PT17131</name></trkpt>
<trkpt lat="54.588132" lon="-3.189095"><ele>125</ele><time>2019-10-02T15:54:34Z</time><name>PT17132</name></trkpt>
<trkpt lat="54.588143" lon="-3.189085"><ele>125</ele><time>2019-10-02T15:54:34Z</time><name>PT17133</name></trkpt>
<trkpt lat="54.588153" lon="-3.189072"><ele>125</ele><time>2019-10-02T15:54:36Z</time><name>PT17134</name></trkpt>
<trkpt lat="54.588166" lon="-3.189062"><ele>125</ele><time>2019-10-02T15:54:36Z</time><name>PT17135</name></trkpt>
<trkpt lat="54.588178" lon="-3.189052"><ele>125</ele><time>2019-10-02T15:54:38Z</time><name>PT17136</name></trkpt>
<trkpt lat="54.588190" lon="-3.189045"><ele>125</ele><time>2019-10-02T15:54:38Z</time><name>PT17137</name></trkpt>
<trkpt lat="54.588203" lon="-3.189037"><ele>125</ele><time>2019-10-02T15:54:40Z</time><name>PT17138</name></trkpt>
<trkpt lat="54.588214" lon="-3.189025"><ele>125</ele><time>2019-10-02T15:54:40Z</time><name>PT17139</name></trkpt>
<trkpt lat="54.588225" lon="-3.189015"><ele>125</ele><time>2019-10-02T15:54:42Z</time><name>PT17140</name></trkpt>
<trkpt lat="54.588237" lon="-3.189004"><ele>126</ele><time>2019-10-02T15:54:42Z</time><name>PT17141</name></trkpt>
<trkpt lat="54.588250" lon="-3.188993"><ele>125</ele><time>2019-10-02T15:54:44Z</time><name>PT17142</name></trkpt>
<trkpt lat="54.588262" lon="-3.188984"><ele>125</ele><time>2019-10-02T15:54:44Z</time><name>PT17143</name></trkpt>
<trkpt lat="54.588274" lon="-3.188977"><ele>126</ele><time>2019-10-02T15:54:46Z</time><name>PT17144</name></trkpt>
<trkpt lat="54.588287" lon="-3.188975"><ele>126</ele><time>2019-10-02T15:54:46Z</time><name>PT17145</name></trkpt>
<trkpt lat="54.588301" lon="-3.188973"><ele>126</ele><time>2019-10-02T15:54:48Z</time><name>PT17146</name></trkpt>
<trkpt lat="54.588315" lon="-3.188967"><ele>125</ele><time>2019-10-02T15:54:48Z</time><name>PT17147</name></trkpt>
<trkpt lat="54.588327" lon="-3.188959"><ele>125</ele><time>2019-10-02T15:54:50Z</time><name>PT17148</name></trkpt>
<trkpt lat="54.588338" lon="-3.188947"><ele>126</ele><time>2019-10-02T15:54:50Z</time><name>PT17149</name></trkpt>
<trkpt lat="54.588351" lon="-3.188935"><ele>126</ele><time>2019-10-02T15:54:52Z</time><name>PT17150</name></trkpt>
<trkpt lat="54.588363" lon="-3.188926"><ele>125</ele><time>2019-10-02T15:54:52Z</time><name>PT17151</name></trkpt>
<trkpt lat="54.588376" lon="-3.188919"><ele>126</ele><time>2019-10-02T15:54:54Z</time><name>PT17152</name></trkpt>
<trkpt lat="54.588390" lon="-3.188915"><ele>126</ele><time>2019-10-02T15:54:54Z</time><name>PT17153</name></trkpt>
<trkpt lat="54.588404" lon="-3.188911"><ele>125</ele><time>2019-10-02T15:54:56Z</time><name>PT17154</name></trkpt>
<trkpt lat="54.588417" lon="-3.188906"><ele>125</ele><time>2019-10-02T15:54:56Z</time><name>PT17155</name></trkpt>
<trkpt lat="54.588430" lon="-3.188902"><ele>125</ele><time>2019-10-02T15:54:58Z</time><name>PT17156</name></trkpt>
<trkpt lat="54.588444" lon="-3.188894"><ele>125</ele><time>2019-10-02T15:54:58Z</time><name>PT17157</name></trkpt>
<trkpt lat="54.588457" lon="-3.188887"><ele>125</ele><time>2019-10-02T15:55:00Z</time><name>PT17158</name></trkpt>
<trkpt lat="54.588470" lon="-3.188880"><ele>125</ele><time>2019-10-02T15:55:00Z</time><name>PT17159</name></trkpt>
<trkpt lat="54.588483" lon="-3.188874"><ele>125</ele><time>2019-10-02T15:55:02Z</time><name>PT17160</name></trkpt>
<trkpt lat="54.588496" lon="-3.188870"><ele>125</ele><time>2019-10-02T15:55:02Z</time><name>PT17161</name></trkpt>
<trkpt lat="54.588512" lon="-3.188871"><ele>125</ele><time>2019-10-02T15:55:04Z</time><name>PT17162</name></trkpt>
<trkpt lat="54.588524" lon="-3.188870"><ele>124</ele><time>2019-10-02T15:55:04Z</time><name>PT17163</name></trkpt>
<trkpt lat="54.588537" lon="-3.188862"><ele>125</ele><time>2019-10-02T15:55:06Z</time><name>PT17164</name></trkpt>
<trkpt lat="54.588549" lon="-3.188852"><ele>125</ele><time>2019-10-02T15:55:06Z</time><name>PT17165</name></trkpt>
<trkpt lat="54.588562" lon="-3.188845"><ele>125</ele><time>2019-10-02T15:55:08Z</time><name>PT17166</name></trkpt>
<trkpt lat="54.588575" lon="-3.188842"><ele>125</ele><time>2019-10-02T15:55:08Z</time><name>PT17167</name></trkpt>
<trkpt lat="54.588589" lon="-3.188838"><ele>125</ele><time>2019-10-02T15:55:10Z</time><name>PT17168</name></trkpt>
<trkpt lat="54.588603" lon="-3.188834"><ele>125</ele><time>2019-10-02T15:55:10Z</time><name>PT17169</name></trkpt>
<trkpt lat="54.588616" lon="-3.188830"><ele>125</ele><time>2019-10-02T15:55:12Z</time><name>PT17170</name></trkpt>
<trkpt lat="54.588629" lon="-3.188824"><ele>125</ele><time>2019-10-02T15:55:12Z</time><name>PT17171</name></trkpt>
<trkpt lat="54.588642" lon="-3.188817"><ele>125</ele><time>2019-10-02T15:55:14Z</time><name>PT17172</name></trkpt>
<trkpt lat="54.588656" lon="-3.188813"><ele>125</ele><time>2019-10-02T15:55:14Z</time><name>PT17173</name></trkpt>
<trkpt lat="54.588671" lon="-3.188811"><ele>124</ele><time>2019-10-02T15:55:16Z</time><name>PT17174</name></trkpt>
<trkpt lat="54.588684" lon="-3.188810"><ele>124</ele><time>2019-10-02T15:55:16Z</time><name>PT17175</name></trkpt>
<trkpt lat="54.588696" lon="-3.188807"><ele>125</ele><time>2019-10-02T15:55:18Z</time><name>PT17176</name></trkpt>
<trkpt lat="54.588710" lon="-3.188804"><ele>125</ele><time>2019-10-02T15:55:18Z</time><name>PT17177</name></trkpt>
<trkpt lat="54.588723" lon="-3.188799"><ele>125</ele><time>2019-10-02T15:55:20Z</time><name>PT17178</name></trkpt>
<trkpt lat="54.588736" lon="-3.188794"><ele>125</ele><time>2019-10-02T15:55:20Z</time><name>PT17179</name></trkpt>
<trkpt lat="54.588750" lon="-3.188790"><ele>125</ele><time>2019-10-02T15:55:22Z</time><name>PT17180</name></trkpt>
<trkpt lat="54.588762" lon="-3.188787"><ele>125</ele><time>2019-10-02T15:55:22Z</time><name>PT17181</name></trkpt>
<trkpt lat="54.588775" lon="-3.188783"><ele>125</ele><time>2019-10-02T15:55:24Z</time><name>PT17182</name></trkpt>
<trkpt lat="54.588788" lon="-3.188780"><ele>125</ele><time>2019-10-02T15:55:24Z</time><name>PT17183</name></trkpt>
<trkpt lat="54.588801" lon="-3.188778"><ele>125</ele><time>2019-10-02T15:55:26Z</time><name>PT17184</name></trkpt>
<trkpt lat="54.588813" lon="-3.188774"><ele>125</ele><time>2019-10-02T15:55:26Z</time><name>PT17185</name></trkpt>
<trkpt lat="54.588827" lon="-3.188767"><ele>125</ele><time>2019-10-02T15:55:28Z</time><name>PT17186</name></trkpt>
<trkpt lat="54.588840" lon="-3.188759"><ele>125</ele><time>2019-10-02T15:55:28Z</time><name>PT17187</name></trkpt>
<trkpt lat="54.588853" lon="-3.188756"><ele>125</ele><time>2019-10-02T15:55:30Z</time><name>PT17188</name></trkpt>
<trkpt lat="54.588866" lon="-3.188751"><ele>125</ele><time>2019-10-02T15:55:30Z</time><name>PT17189</name></trkpt>
<trkpt lat="54.588879" lon="-3.188746"><ele>125</ele><time>2019-10-02T15:55:32Z</time><name>PT17190</name></trkpt>
<trkpt lat="54.588891" lon="-3.188738"><ele>125</ele><time>2019-10-02T15:55:32Z</time><name>PT17191</name></trkpt>
<trkpt lat="54.588905" lon="-3.188733"><ele>124</ele><time>2019-10-02T15:55:34Z</time><name>PT17192</name></trkpt>
<trkpt lat="54.588918" lon="-3.188722"><ele>124</ele><time>2019-10-02T15:55:34Z</time><name>PT17193</name></trkpt>
<trkpt lat="54.588931" lon="-3.188713"><ele>124</ele><time>2019-10-02T15:55:36Z</time><name>PT17194</name></trkpt>
<trkpt lat="54.588943" lon="-3.188709"><ele>124</ele><time>2019-10-02T15:55:36Z</time><name>PT17195</name></trkpt>
<trkpt lat="54.588955" lon="-3.188705"><ele>125</ele><time>2019-10-02T15:55:38Z</time><name>PT17196</name></trkpt>
<trkpt lat="54.588969" lon="-3.188702"><ele>125</ele><time>2019-10-02T15:55:38Z</time><name>PT17197</name></trkpt>
<trkpt lat="54.588982" lon="-3.188697"><ele>124</ele><time>2019-10-02T15:55:40Z</time><name>PT17198</name></trkpt>
<trkpt lat="54.588993" lon="-3.188687"><ele>125</ele><time>2019-10-02T15:55:40Z</time><name>PT17199</name></trkpt>
<trkpt lat="54.589005" lon="-3.188679"><ele>125</ele><time>2019-10-02T15:55:42Z</time><name>PT17200</name></trkpt>
<trkpt lat="54.589018" lon="-3.188673"><ele>124</ele><time>2019-10-02T15:55:42Z</time><name>PT17201</name></trkpt>
<trkpt lat="54.589029" lon="-3.188666"><ele>125</ele><time>2019-10-02T15:55:44Z</time><name>PT17202</name></trkpt>
<trkpt lat="54.589042" lon="-3.188664"><ele>124</ele><time>2019-10-02T15:55:44Z</time><name>PT17203</name></trkpt>
<trkpt lat="54.589055" lon="-3.188662"><ele>124</ele><time>2019-10-02T15:55:46Z</time><name>PT17204</name></trkpt>
<trkpt lat="54.589068" lon="-3.188658"><ele>124</ele><time>2019-10-02T15:55:46Z</time><name>PT17205</name></trkpt>
<trkpt lat="54.589080" lon="-3.188650"><ele>124</ele><time>2019-10-02T15:55:48Z</time><name>PT17206</name></trkpt>
<trkpt lat="54.589091" lon="-3.188640"><ele>124</ele><time>2019-10-02T15:55:48Z</time><name>PT17207</name></trkpt>
<trkpt lat="54.589105" lon="-3.188632"><ele>124</ele><time>2019-10-02T15:55:50Z</time><name>PT17208</name></trkpt>
<trkpt lat="54.589117" lon="-3.188626"><ele>124</ele><time>2019-10-02T15:55:50Z</time><name>PT17209</name></trkpt>
<trkpt lat="54.589129" lon="-3.188621"><ele>124</ele><time>2019-10-02T15:55:52Z</time><name>PT17210</name></trkpt>
<trkpt lat="54.589141" lon="-3.188616"><ele>124</ele><time>2019-10-02T15:55:52Z</time><name>PT17211</name></trkpt>
<trkpt lat="54.589155" lon="-3.188614"><ele>124</ele><time>2019-10-02T15:55:54Z</time><name>PT17212</name></trkpt>
<trkpt lat="54.589171" lon="-3.188617"><ele>123</ele><time>2019-10-02T15:55:54Z</time><name>PT17213</name></trkpt>
<trkpt lat="54.589182" lon="-3.188608"><ele>123</ele><time>2019-10-02T15:55:56Z</time><name>PT17214</name></trkpt>
<trkpt lat="54.589193" lon="-3.188597"><ele>123</ele><time>2019-10-02T15:55:56Z</time><name>PT17215</name></trkpt>
<trkpt lat="54.589207" lon="-3.188589"><ele>123</ele><time>2019-10-02T15:55:58Z</time><name>PT17216</name></trkpt>
<trkpt lat="54.589220" lon="-3.188583"><ele>123</ele><time>2019-10-02T15:55:58Z</time><name>PT17217</name></trkpt>
<trkpt lat="54.589233" lon="-3.188577"><ele>123</ele><time>2019-10-02T15:56:00Z</time><name>PT17218</name></trkpt>
<trkpt lat="54.589246" lon="-3.188573"><ele>122</ele><time>2019-10-02T15:56:00Z</time><name>PT17219</name></trkpt>
<trkpt lat="54.589259" lon="-3.188571"><ele>122</ele><time>2019-10-02T15:56:02Z</time><name>PT17220</name></trkpt>
<trkpt lat="54.589272" lon="-3.188562"><ele>122</ele><time>2019-10-02T15:56:02Z</time><name>PT17221</name></trkpt>
<trkpt lat="54.589285" lon="-3.188554"><ele>122</ele><time>2019-10-02T15:56:04Z</time><name>PT17222</name></trkpt>
<trkpt lat="54.589299" lon="-3.188549"><ele>122</ele><time>2019-10-02T15:56:04Z</time><name>PT17223</name></trkpt>
<trkpt lat="54.589312" lon="-3.188541"><ele>122</ele><time>2019-10-02T15:56:06Z</time><name>PT17224</name></trkpt>
<trkpt lat="54.589325" lon="-3.188535"><ele>122</ele><time>2019-10-02T15:56:06Z</time><name>PT17225</name></trkpt>
<trkpt lat="54.589338" lon="-3.188532"><ele>122</ele><time>2019-10-02T15:56:08Z</time><name>PT17226</name></trkpt>
<trkpt lat="54.589350" lon="-3.188528"><ele>122</ele><time>2019-10-02T15:56:08Z</time><name>PT17227</name></trkpt>
<trkpt lat="54.589363" lon="-3.188519"><ele>122</ele><time>2019-10-02T15:56:10Z</time><name>PT17228</name></trkpt>
<trkpt lat="54.589375" lon="-3.188510"><ele>122</ele><time>2019-10-02T15:56:10Z</time><name>PT17229</name></trkpt>
<trkpt lat="54.589389" lon="-3.188505"><ele>122</ele><time>2019-10-02T15:56:12Z</time><name>PT17230</name></trkpt>
<trkpt lat="54.589401" lon="-3.188501"><ele>122</ele><time>2019-10-02T15:56:12Z</time><name>PT17231</name></trkpt>
<trkpt lat="54.589414" lon="-3.188494"><ele>123</ele><time>2019-10-02T15:56:14Z</time><name>PT17232</name></trkpt>
<trkpt lat="54.589429" lon="-3.188491"><ele>122</ele><time>2019-10-02T15:56:14Z</time><name>PT17233</name></trkpt>
<trkpt lat="54.589442" lon="-3.188486"><ele>122</ele><time>2019-10-02T15:56:16Z</time><name>PT17234</name></trkpt>
<trkpt lat="54.589455" lon="-3.188481"><ele>122</ele><time>2019-10-02T15:56:16Z</time><name>PT17235</name></trkpt>
<trkpt lat="54.589468" lon="-3.188473"><ele>122</ele><time>2019-10-02T15:56:18Z</time><name>PT17236</name></trkpt>
<trkpt lat="54.589482" lon="-3.188469"><ele>122</ele><time>2019-10-02T15:56:18Z</time><name>PT17237</name></trkpt>
<trkpt lat="54.589494" lon="-3.188462"><ele>122</ele><time>2019-10-02T15:56:20Z</time><name>PT17238</name></trkpt>
<trkpt lat="54.589507" lon="-3.188456"><ele>122</ele><time>2019-10-02T15:56:20Z</time><name>PT17239</name></trkpt>
<trkpt lat="54.589521" lon="-3.188451"><ele>122</ele><time>2019-10-02T15:56:22Z</time><name>PT17240</name></trkpt>
<trkpt lat="54.589533" lon="-3.188445"><ele>122</ele><time>2019-10-02T15:56:22Z</time><name>PT17241</name></trkpt>
<trkpt lat="54.589544" lon="-3.188437"><ele>122</ele><time>2019-10-02T15:56:24Z</time><name>PT17242</name></trkpt>
<trkpt lat="54.589553" lon="-3.188421"><ele>123</ele><time>2019-10-02T15:56:24Z</time><name>PT17243</name></trkpt>
<trkpt lat="54.589565" lon="-3.188414"><ele>123</ele><time>2019-10-02T15:56:26Z</time><name>PT17244</name></trkpt>
<trkpt lat="54.589577" lon="-3.188406"><ele>123</ele><time>2019-10-02T15:56:26Z</time><name>PT17245</name></trkpt>
<trkpt lat="54.589592" lon="-3.188403"><ele>123</ele><time>2019-10-02T15:56:28Z</time><name>PT17246</name></trkpt>
<trkpt lat="54.589604" lon="-3.188398"><ele>123</ele><time>2019-10-02T15:56:28Z</time><name>PT17247</name></trkpt>
<trkpt lat="54.589617" lon="-3.188390"><ele>123</ele><time>2019-10-02T15:56:30Z</time><name>PT17248</name></trkpt>
<trkpt lat="54.589630" lon="-3.188381"><ele>123</ele><time>2019-10-02T15:56:30Z</time><name>PT17249</name></trkpt>
<trkpt lat="54.589641" lon="-3.188373"><ele>123</ele><time>2019-10-02T15:56:32Z</time><name>PT17250</name></trkpt>
<trkpt lat="54.589653" lon="-3.188367"><ele>123</ele><time>2019-10-02T15:56:32Z</time><name>PT17251</name></trkpt>
<trkpt lat="54.589666" lon="-3.188359"><ele>123</ele><time>2019-10-02T15:56:34Z</time><name>PT17252</name></trkpt>
<trkpt lat="54.589680" lon="-3.188352"><ele>123</ele><time>2019-10-02T15:56:34Z</time><name>PT17253</name></trkpt>
<trkpt lat="54.589690" lon="-3.188344"><ele>124</ele><time>2019-10-02T15:56:36Z</time><name>PT17254</name></trkpt>
<trkpt lat="54.589702" lon="-3.188335"><ele>124</ele><time>2019-10-02T15:56:36Z</time><name>PT17255</name></trkpt>
<trkpt lat="54.589714" lon="-3.188327"><ele>124</ele><time>2019-10-02T15:56:38Z</time><name>PT17256</name></trkpt>
<trkpt lat="54.589725" lon="-3.188320"><ele>124</ele><time>2019-10-02T15:56:38Z</time><name>PT17257</name></trkpt>
<trkpt lat="54.589737" lon="-3.188316"><ele>124</ele><time>2019-10-02T15:56:40Z</time><name>PT17258</name></trkpt>
<trkpt lat="54.589750" lon="-3.188308"><ele>124</ele><time>2019-10-02T15:56:40Z</time><name>PT17259</name></trkpt>
<trkpt lat="54.589762" lon="-3.188301"><ele>124</ele><time>2019-10-02T15:56:42Z</time><name>PT17260</name></trkpt>
<trkpt lat="54.589774" lon="-3.188292"><ele>124</ele><time>2019-10-02T15:56:42Z</time><name>PT17261</name></trkpt>
<trkpt lat="54.589787" lon="-3.188283"><ele>124</ele><time>2019-10-02T15:56:44Z</time><name>PT17262</name></trkpt>
<trkpt lat="54.589798" lon="-3.188276"><ele>124</ele><time>2019-10-02T15:56:44Z</time><name>PT17263</name></trkpt>
<trkpt lat="54.589811" lon="-3.188269"><ele>124</ele><time>2019-10-02T15:56:46Z</time><name>PT17264</name></trkpt>
<trkpt lat="54.589825" lon="-3.188263"><ele>124</ele><time>2019-10-02T15:56:46Z</time><name>PT17265</name></trkpt>
<trkpt lat="54.589838" lon="-3.188257"><ele>124</ele><time>2019-10-02T15:56:48Z</time><name>PT17266</name></trkpt>
<trkpt lat="54.589850" lon="-3.188250"><ele>124</ele><time>2019-10-02T15:56:48Z</time><name>PT17267</name></trkpt>
<trkpt lat="54.589862" lon="-3.188241"><ele>124</ele><time>2019-10-02T15:56:50Z</time><name>PT17268</name></trkpt>
<trkpt lat="54.589874" lon="-3.188232"><ele>124</ele><time>2019-10-02T15:56:50Z</time><name>PT17269</name></trkpt>
<trkpt lat="54.589884" lon="-3.188224"><ele>125</ele><time>2019-10-02T15:56:52Z</time><name>PT17270</name></trkpt>
<trkpt lat="54.589897" lon="-3.188216"><ele>125</ele><time>2019-10-02T15:56:52Z</time><name>PT17271</name></trkpt>
<trkpt lat="54.589910" lon="-3.188208"><ele>125</ele><time>2019-10-02T15:56:54Z</time><name>PT17272</name></trkpt>
<trkpt lat="54.589922" lon="-3.188203"><ele>125</ele><time>2019-10-02T15:56:54Z</time><name>PT17273</name></trkpt>
<trkpt lat="54.589933" lon="-3.188193"><ele>125</ele><time>2019-10-02T15:56:56Z</time><name>PT17274</name></trkpt>
<trkpt lat="54.589944" lon="-3.188183"><ele>125</ele><time>2019-10-02T15:56:56Z</time><name>PT17275</name></trkpt>
<trkpt lat="54.589956" lon="-3.188176"><ele>125</ele><time>2019-10-02T15:56:58Z</time><name>PT17276</name></trkpt>
<trkpt lat="54.589969" lon="-3.188172"><ele>125</ele><time>2019-10-02T15:56:58Z</time><name>PT17277</name></trkpt>
<trkpt lat="54.589982" lon="-3.188167"><ele>125</ele><time>2019-10-02T15:57:00Z</time><name>PT17278</name></trkpt>
<trkpt lat="54.589995" lon="-3.188160"><ele>125</ele><time>2019-10-02T15:57:00Z</time><name>PT17279</name></trkpt>
<trkpt lat="54.590006" lon="-3.188152"><ele>125</ele><time>2019-10-02T15:57:02Z</time><name>PT17280</name></trkpt>
<trkpt lat="54.590016" lon="-3.188141"><ele>125</ele><time>2019-10-02T15:57:02Z</time><name>PT17281</name></trkpt>
<trkpt lat="54.590027" lon="-3.188132"><ele>125</ele><time>2019-10-02T15:57:04Z</time><name>PT17282</name></trkpt>
<trkpt lat="54.590039" lon="-3.188126"><ele>125</ele><time>2019-10-02T15:57:04Z</time><name>PT17283</name></trkpt>
<trkpt lat="54.590051" lon="-3.188125"><ele>124</ele><time>2019-10-02T15:57:06Z</time><name>PT17284</name></trkpt>
<trkpt lat="54.590061" lon="-3.188119"><ele>124</ele><time>2019-10-02T15:57:06Z</time><name>PT17285</name></trkpt>
<trkpt lat="54.590069" lon="-3.188114"><ele>124</ele><time>2019-10-02T15:57:08Z</time><name>PT17286</name></trkpt>
<trkpt lat="54.590078" lon="-3.188115"><ele>124</ele><time>2019-10-02T15:57:08Z</time><name>PT17287</name></trkpt>
<trkpt lat="54.590087" lon="-3.188112"><ele>124</ele><time>2019-10-02T15:57:10Z</time><name>PT17288</name></trkpt>
<trkpt lat="54.590098" lon="-3.188104"><ele>124</ele><time>2019-10-02T15:57:10Z</time><name>PT17289</name></trkpt>
<trkpt lat="54.590108" lon="-3.188099"><ele>124</ele><time>2019-10-02T15:57:12Z</time><name>PT17290</name></trkpt>
<trkpt lat="54.590117" lon="-3.188097"><ele>124</ele><time>2019-10-02T15:57:12Z</time><name>PT17291</name></trkpt>
<trkpt lat="54.590121" lon="-3.188098"><ele>124</ele><time>2019-10-02T15:57:14Z</time><name>PT17292</name></trkpt>
<trkpt lat="54.590123" lon="-3.188098"><ele>124</ele><time>2019-10-02T15:57:14Z</time><name>PT17293</name></trkpt>
<trkpt lat="54.590127" lon="-3.188094"><ele>123</ele><time>2019-10-02T15:57:16Z</time><name>PT17294</name></trkpt>
<trkpt lat="54.590133" lon="-3.188089"><ele>123</ele><time>2019-10-02T15:57:16Z</time><name>PT17295</name></trkpt>
<trkpt lat="54.590137" lon="-3.188098"><ele>123</ele><time>2019-10-02T15:57:18Z</time><name>PT17296</name></trkpt>
<trkpt lat="54.590136" lon="-3.188116"><ele>123</ele><time>2019-10-02T15:57:18Z</time><name>PT17297</name></trkpt>
<trkpt lat="54.590131" lon="-3.188130"><ele>123</ele><time>2019-10-02T15:57:20Z</time><name>PT17298</name></trkpt>
<trkpt lat="54.590125" lon="-3.188143"><ele>123</ele><time>2019-10-02T15:57:20Z</time><name>PT17299</name></trkpt>
<trkpt lat="54.590121" lon="-3.188155"><ele>123</ele><time>2019-10-02T15:57:22Z</time><name>PT17300</name></trkpt>
<trkpt lat="54.590123" lon="-3.188162"><ele>123</ele><time>2019-10-02T15:57:22Z</time><name>PT17301</name></trkpt>
<trkpt lat="54.590125" lon="-3.188162"><ele>123</ele><time>2019-10-02T15:57:24Z</time><name>PT17302</name></trkpt>
<trkpt lat="54.590136" lon="-3.188158"><ele>124</ele><time>2019-10-02T15:57:24Z</time><name>PT17303</name></trkpt>
<trkpt lat="54.590148" lon="-3.188154"><ele>124</ele><time>2019-10-02T15:57:26Z</time><name>PT17304</name></trkpt>
<trkpt lat="54.590160" lon="-3.188151"><ele>124</ele><time>2019-10-02T15:57:26Z</time><name>PT17305</name></trkpt>
<trkpt lat="54.590174" lon="-3.188148"><ele>124</ele><time>2019-10-02T15:57:28Z</time><name>PT17306</name></trkpt>
<trkpt lat="54.590186" lon="-3.188148"><ele>124</ele><time>2019-10-02T15:57:28Z</time><name>PT17307</name></trkpt>
<trkpt lat="54.590198" lon="-3.188150"><ele>124</ele><time>2019-10-02T15:57:30Z</time><name>PT17308</name></trkpt>
<trkpt lat="54.590209" lon="-3.188155"><ele>125</ele><time>2019-10-02T15:57:30Z</time><name>PT17309</name></trkpt>
<trkpt lat="54.590219" lon="-3.188161"><ele>125</ele><time>2019-10-02T15:57:32Z</time><name>PT17310</name></trkpt>
<trkpt lat="54.590228" lon="-3.188167"><ele>125</ele><time>2019-10-02T15:57:32Z</time><name>PT17311</name></trkpt>
<trkpt lat="54.590236" lon="-3.188175"><ele>125</ele><time>2019-10-02T15:57:34Z</time><name>PT17312</name></trkpt>
<trkpt lat="54.590245" lon="-3.188181"><ele>125</ele><time>2019-10-02T15:57:34Z</time><name>PT17313</name></trkpt>
<trkpt lat="54.590253" lon="-3.188181"><ele>126</ele><time>2019-10-02T15:57:36Z</time><name>PT17314</name></trkpt>
<trkpt lat="54.590262" lon="-3.188177"><ele>126</ele><time>2019-10-02T15:57:36Z</time><name>PT17315</name></trkpt>
<trkpt lat="54.590272" lon="-3.188172"><ele>126</ele><time>2019-10-02T15:57:38Z</time><name>PT17316</name></trkpt>
<trkpt lat="54.590283" lon="-3.188168"><ele>127</ele><time>2019-10-02T15:57:38Z</time><name>PT17317</name></trkpt>
<trkpt lat="54.590294" lon="-3.188166"><ele>126</ele><time>2019-10-02T15:57:40Z</time><name>PT17318</name></trkpt>
<trkpt lat="54.590306" lon="-3.188163"><ele>126</ele><time>2019-10-02T15:57:40Z</time><name>PT17319</name></trkpt>
<trkpt lat="54.590319" lon="-3.188167"><ele>126</ele><time>2019-10-02T15:57:42Z</time><name>PT17320</name></trkpt>
<trkpt lat="54.590331" lon="-3.188170"><ele>126</ele><time>2019-10-02T15:57:42Z</time><name>PT17321</name></trkpt>
<trkpt lat="54.590345" lon="-3.188173"><ele>126</ele><time>2019-10-02T15:57:44Z</time><name>PT17322</name></trkpt>
<trkpt lat="54.590356" lon="-3.188176"><ele>126</ele><time>2019-10-02T15:57:44Z</time><name>PT17323</name></trkpt>
<trkpt lat="54.590367" lon="-3.188178"><ele>127</ele><time>2019-10-02T15:57:46Z</time><name>PT17324</name></trkpt>
<trkpt lat="54.590381" lon="-3.188179"><ele>127</ele><time>2019-10-02T15:57:46Z</time><name>PT17325</name></trkpt>
<trkpt lat="54.590395" lon="-3.188179"><ele>127</ele><time>2019-10-02T15:57:48Z</time><name>PT17326</name></trkpt>
<trkpt lat="54.590407" lon="-3.188184"><ele>127</ele><time>2019-10-02T15:57:48Z</time><name>PT17327</name></trkpt>
<trkpt lat="54.590419" lon="-3.188189"><ele>127</ele><time>2019-10-02T15:57:50Z</time><name>PT17328</name></trkpt>
<trkpt lat="54.590431" lon="-3.188191"><ele>127</ele><time>2019-10-02T15:57:50Z</time><name>PT17329</name></trkpt>
<trkpt lat="54.590442" lon="-3.188189"><ele>127</ele><time>2019-10-02T15:57:52Z</time><name>PT17330</name></trkpt>
<trkpt lat="54.590453" lon="-3.188184"><ele>127</ele><time>2019-10-02T15:57:52Z</time><name>PT17331</name></trkpt>
<trkpt lat="54.590463" lon="-3.188179"><ele>127</ele><time>2019-10-02T15:57:54Z</time><name>PT17332</name></trkpt>
<trkpt lat="54.590475" lon="-3.188178"><ele>128</ele><time>2019-10-02T15:57:54Z</time><name>PT17333</name></trkpt>
<trkpt lat="54.590486" lon="-3.188179"><ele>128</ele><time>2019-10-02T15:57:56Z</time><name>PT17334</name></trkpt>
<trkpt lat="54.590496" lon="-3.188176"><ele>128</ele><time>2019-10-02T15:57:56Z</time><name>PT17335</name></trkpt>
<trkpt lat="54.590508" lon="-3.188172"><ele>128</ele><time>2019-10-02T15:57:58Z</time><name>PT17336</name></trkpt>
<trkpt lat="54.590518" lon="-3.188168"><ele>128</ele><time>2019-10-02T15:57:58Z</time><name>PT17337</name></trkpt>
<trkpt lat="54.590529" lon="-3.188165"><ele>129</ele><time>2019-10-02T15:58:00Z</time><name>PT17338</name></trkpt>
<trkpt lat="54.590540" lon="-3.188167"><ele>129</ele><time>2019-10-02T15:58:00Z</time><name>PT17339</name></trkpt>
<trkpt lat="54.590552" lon="-3.188164"><ele>129</ele><time>2019-10-02T15:58:02Z</time><name>PT17340</name></trkpt>
<trkpt lat="54.590562" lon="-3.188160"><ele>129</ele><time>2019-10-02T15:58:02Z</time><name>PT17341</name></trkpt>
<trkpt lat="54.590573" lon="-3.188156"><ele>129</ele><time>2019-10-02T15:58:04Z</time><name>PT17342</name></trkpt>
<trkpt lat="54.590584" lon="-3.188150"><ele>129</ele><time>2019-10-02T15:58:04Z</time><name>PT17343</name></trkpt>
<trkpt lat="54.590596" lon="-3.188150"><ele>129</ele><time>2019-10-02T15:58:06Z</time><name>PT17344</name></trkpt>
<trkpt lat="54.590607" lon="-3.188148"><ele>129</ele><time>2019-10-02T15:58:06Z</time><name>PT17345</name></trkpt>
<trkpt lat="54.590618" lon="-3.188145"><ele>129</ele><time>2019-10-02T15:58:08Z</time><name>PT17346</name></trkpt>
<trkpt lat="54.590628" lon="-3.188141"><ele>130</ele><time>2019-10-02T15:58:08Z</time><name>PT17347</name></trkpt>
<trkpt lat="54.590638" lon="-3.188138"><ele>130</ele><time>2019-10-02T15:58:10Z</time><name>PT17348</name></trkpt>
<trkpt lat="54.590648" lon="-3.188133"><ele>130</ele><time>2019-10-02T15:58:10Z</time><name>PT17349</name></trkpt>
<trkpt lat="54.590658" lon="-3.188127"><ele>130</ele><time>2019-10-02T15:58:12Z</time><name>PT17350</name></trkpt>
<trkpt lat="54.590668" lon="-3.188123"><ele>130</ele><time>2019-10-02T15:58:12Z</time><name>PT17351</name></trkpt>
<trkpt lat="54.590679" lon="-3.188119"><ele>131</ele><time>2019-10-02T15:58:14Z</time><name>PT17352</name></trkpt>
<trkpt lat="54.590691" lon="-3.188115"><ele>131</ele><time>2019-10-02T15:58:14Z</time><name>PT17353</name></trkpt>
<trkpt lat="54.590702" lon="-3.188112"><ele>131</ele><time>2019-10-02T15:58:16Z</time><name>PT17354</name></trkpt>
<trkpt lat="54.590711" lon="-3.188108"><ele>131</ele><time>2019-10-02T15:58:16Z</time><name>PT17355</name></trkpt>
<trkpt lat="54.590722" lon="-3.188102"><ele>131</ele><time>2019-10-02T15:58:18Z</time><name>PT17356</name></trkpt>
<trkpt lat="54.590732" lon="-3.188096"><ele>131</ele><time>2019-10-02T15:58:18Z</time><name>PT17357</name></trkpt>
<trkpt lat="54.590744" lon="-3.188097"><ele>131</ele><time>2019-10-02T15:58:20Z</time><name>PT17358</name></trkpt>
<trkpt lat="54.590754" lon="-3.188096"><ele>132</ele><time>2019-10-02T15:58:20Z</time><name>PT17359</name></trkpt>
<trkpt lat="54.590766" lon="-3.188094"><ele>131</ele><time>2019-10-02T15:58:22Z</time><name>PT17360</name></trkpt>
<trkpt lat="54.590776" lon="-3.188091"><ele>132</ele><time>2019-10-02T15:58:22Z</time><name>PT17361</name></trkpt>
<trkpt lat="54.590787" lon="-3.188088"><ele>132</ele><time>2019-10-02T15:58:24Z</time><name>PT17362</name></trkpt>
<trkpt lat="54.590797" lon="-3.188084"><ele>132</ele><time>2019-10-02T15:58:24Z</time><name>PT17363</name></trkpt>
<trkpt lat="54.590805" lon="-3.188079"><ele>132</ele><time>2019-10-02T15:58:26Z</time><name>PT17364</name></trkpt>
<trkpt lat="54.590815" lon="-3.188076"><ele>132</ele><time>2019-10-02T15:58:26Z</time><name>PT17365</name></trkpt>
<trkpt lat="54.590826" lon="-3.188071"><ele>133</ele><time>2019-10-02T15:58:28Z</time><name>PT17366</name></trkpt>
<trkpt lat="54.590836" lon="-3.188065"><ele>133</ele><time>2019-10-02T15:58:28Z</time><name>PT17367</name></trkpt>
<trkpt lat="54.590846" lon="-3.188060"><ele>133</ele><time>2019-10-02T15:58:30Z</time><name>PT17368</name></trkpt>
<trkpt lat="54.590857" lon="-3.188057"><ele>133</ele><time>2019-10-02T15:58:30Z</time><name>PT17369</name></trkpt>
<trkpt lat="54.590867" lon="-3.188055"><ele>133</ele><time>2019-10-02T15:58:32Z</time><name>PT17370</name></trkpt>
<trkpt lat="54.590878" lon="-3.188053"><ele>134</ele><time>2019-10-02T15:58:33Z</time><name>PT17371</name></trkpt>
<trkpt lat="54.590889" lon="-3.188052"><ele>134</ele><time>2019-10-02T15:58:34Z</time><name>PT17372</name></trkpt>
<trkpt lat="54.590899" lon="-3.188050"><ele>134</ele><time>2019-10-02T15:58:34Z</time><name>PT17373</name></trkpt>
<trkpt lat="54.590909" lon="-3.188045"><ele>134</ele><time>2019-10-02T15:58:36Z</time><name>PT17374</name></trkpt>
<trkpt lat="54.590919" lon="-3.188040"><ele>134</ele><time>2019-10-02T15:58:36Z</time><name>PT17375</name></trkpt>
<trkpt lat="54.590930" lon="-3.188037"><ele>134</ele><time>2019-10-02T15:58:38Z</time><name>PT17376</name></trkpt>
<trkpt lat="54.590940" lon="-3.188035"><ele>134</ele><time>2019-10-02T15:58:38Z</time><name>PT17377</name></trkpt>
<trkpt lat="54.590952" lon="-3.188031"><ele>135</ele><time>2019-10-02T15:58:40Z</time><name>PT17378</name></trkpt>
<trkpt lat="54.590962" lon="-3.188024"><ele>135</ele><time>2019-10-02T15:58:40Z</time><name>PT17379</name></trkpt>
<trkpt lat="54.590972" lon="-3.188015"><ele>135</ele><time>2019-10-02T15:58:42Z</time><name>PT17380</name></trkpt>
<trkpt lat="54.590982" lon="-3.188010"><ele>135</ele><time>2019-10-02T15:58:42Z</time><name>PT17381</name></trkpt>
<trkpt lat="54.590993" lon="-3.188008"><ele>135</ele><time>2019-10-02T15:58:44Z</time><name>PT17382</name></trkpt>
<trkpt lat="54.591002" lon="-3.188006"><ele>135</ele><time>2019-10-02T15:58:44Z</time><name>PT17383</name></trkpt>
<trkpt lat="54.591011" lon="-3.188008"><ele>136</ele><time>2019-10-02T15:58:46Z</time><name>PT17384</name></trkpt>
<trkpt lat="54.591020" lon="-3.188009"><ele>136</ele><time>2019-10-02T15:58:46Z</time><name>PT17385</name></trkpt>
<trkpt lat="54.591028" lon="-3.188006"><ele>136</ele><time>2019-10-02T15:58:48Z</time><name>PT17386</name></trkpt>
<trkpt lat="54.591036" lon="-3.188000"><ele>136</ele><time>2019-10-02T15:58:48Z</time><name>PT17387</name></trkpt>
<trkpt lat="54.591046" lon="-3.187994"><ele>137</ele><time>2019-10-02T15:58:50Z</time><name>PT17388</name></trkpt>
<trkpt lat="54.591056" lon="-3.187993"><ele>137</ele><time>2019-10-02T15:58:50Z</time><name>PT17389</name></trkpt>
<trkpt lat="54.591066" lon="-3.187991"><ele>137</ele><time>2019-10-02T15:58:52Z</time><name>PT17390</name></trkpt>
<trkpt lat="54.591075" lon="-3.187986"><ele>137</ele><time>2019-10-02T15:58:52Z</time><name>PT17391</name></trkpt>
<trkpt lat="54.591085" lon="-3.187979"><ele>137</ele><time>2019-10-02T15:58:54Z</time><name>PT17392</name></trkpt>
<trkpt lat="54.591096" lon="-3.187972"><ele>138</ele><time>2019-10-02T15:58:54Z</time><name>PT17393</name></trkpt>
<trkpt lat="54.591106" lon="-3.187967"><ele>138</ele><time>2019-10-02T15:58:56Z</time><name>PT17394</name></trkpt>
<trkpt lat="54.591118" lon="-3.187959"><ele>138</ele><time>2019-10-02T15:58:56Z</time><name>PT17395</name></trkpt>
<trkpt lat="54.591128" lon="-3.187954"><ele>138</ele><time>2019-10-02T15:58:58Z</time><name>PT17396</name></trkpt>
<trkpt lat="54.591140" lon="-3.187948"><ele>138</ele><time>2019-10-02T15:58:58Z</time><name>PT17397</name></trkpt>
<trkpt lat="54.591150" lon="-3.187942"><ele>138</ele><time>2019-10-02T15:59:00Z</time><name>PT17398</name></trkpt>
<trkpt lat="54.591159" lon="-3.187934"><ele>138</ele><time>2019-10-02T15:59:00Z</time><name>PT17399</name></trkpt>
<trkpt lat="54.591169" lon="-3.187927"><ele>138</ele><time>2019-10-02T15:59:02Z</time><name>PT17400</name></trkpt>
<trkpt lat="54.591179" lon="-3.187918"><ele>138</ele><time>2019-10-02T15:59:02Z</time><name>PT17401</name></trkpt>
<trkpt lat="54.591188" lon="-3.187908"><ele>138</ele><time>2019-10-02T15:59:04Z</time><name>PT17402</name></trkpt>
<trkpt lat="54.591197" lon="-3.187895"><ele>139</ele><time>2019-10-02T15:59:04Z</time><name>PT17403</name></trkpt>
<trkpt lat="54.591207" lon="-3.187887"><ele>138</ele><time>2019-10-02T15:59:06Z</time><name>PT17404</name></trkpt>
<trkpt lat="54.591218" lon="-3.187879"><ele>138</ele><time>2019-10-02T15:59:06Z</time><name>PT17405</name></trkpt>
<trkpt lat="54.591228" lon="-3.187871"><ele>138</ele><time>2019-10-02T15:59:08Z</time><name>PT17406</name></trkpt>
<trkpt lat="54.591238" lon="-3.187865"><ele>138</ele><time>2019-10-02T15:59:08Z</time><name>PT17407</name></trkpt>
<trkpt lat="54.591247" lon="-3.187858"><ele>138</ele><time>2019-10-02T15:59:10Z</time><name>PT17408</name></trkpt>
<trkpt lat="54.591255" lon="-3.187852"><ele>138</ele><time>2019-10-02T15:59:10Z</time><name>PT17409</name></trkpt>
<trkpt lat="54.591265" lon="-3.187843"><ele>139</ele><time>2019-10-02T15:59:12Z</time><name>PT17410</name></trkpt>
<trkpt lat="54.591274" lon="-3.187832"><ele>139</ele><time>2019-10-02T15:59:12Z</time><name>PT17411</name></trkpt>
<trkpt lat="54.591282" lon="-3.187821"><ele>139</ele><time>2019-10-02T15:59:14Z</time><name>PT17412</name></trkpt>
<trkpt lat="54.591293" lon="-3.187813"><ele>139</ele><time>2019-10-02T15:59:14Z</time><name>PT17413</name></trkpt>
<trkpt lat="54.591304" lon="-3.187805"><ele>139</ele><time>2019-10-02T15:59:16Z</time><name>PT17414</name></trkpt>
<trkpt lat="54.591316" lon="-3.187796"><ele>139</ele><time>2019-10-02T15:59:16Z</time><name>PT17415</name></trkpt>
<trkpt lat="54.591327" lon="-3.187788"><ele>139</ele><time>2019-10-02T15:59:18Z</time><name>PT17416</name></trkpt>
<trkpt lat="54.591338" lon="-3.187779"><ele>139</ele><time>2019-10-02T15:59:18Z</time><name>PT17417</name></trkpt>
<trkpt lat="54.591349" lon="-3.187769"><ele>139</ele><time>2019-10-02T15:59:20Z</time><name>PT17418</name></trkpt>
<trkpt lat="54.591359" lon="-3.187761"><ele>139</ele><time>2019-10-02T15:59:20Z</time><name>PT17419</name></trkpt>
<trkpt lat="54.591370" lon="-3.187754"><ele>140</ele><time>2019-10-02T15:59:22Z</time><name>PT17420</name></trkpt>
<trkpt lat="54.591380" lon="-3.187745"><ele>140</ele><time>2019-10-02T15:59:22Z</time><name>PT17421</name></trkpt>
<trkpt lat="54.591391" lon="-3.187740"><ele>140</ele><time>2019-10-02T15:59:24Z</time><name>PT17422</name></trkpt>
<trkpt lat="54.591401" lon="-3.187733"><ele>140</ele><time>2019-10-02T15:59:24Z</time><name>PT17423</name></trkpt>
<trkpt lat="54.591412" lon="-3.187725"><ele>140</ele><time>2019-10-02T15:59:26Z</time><name>PT17424</name></trkpt>
<trkpt lat="54.591422" lon="-3.187716"><ele>140</ele><time>2019-10-02T15:59:26Z</time><name>PT17425</name></trkpt>
<trkpt lat="54.591434" lon="-3.187709"><ele>140</ele><time>2019-10-02T15:59:28Z</time><name>PT17426</name></trkpt>
<trkpt lat="54.591445" lon="-3.187705"><ele>140</ele><time>2019-10-02T15:59:28Z</time><name>PT17427</name></trkpt>
<trkpt lat="54.591455" lon="-3.187698"><ele>140</ele><time>2019-10-02T15:59:30Z</time><name>PT17428</name></trkpt>
<trkpt lat="54.591464" lon="-3.187692"><ele>141</ele><time>2019-10-02T15:59:30Z</time><name>PT17429</name></trkpt>
<trkpt lat="54.591475" lon="-3.187684"><ele>141</ele><time>2019-10-02T15:59:32Z</time><name>PT17430</name></trkpt>
<trkpt lat="54.591485" lon="-3.187679"><ele>141</ele><time>2019-10-02T15:59:32Z</time><name>PT17431</name></trkpt>
<trkpt lat="54.591495" lon="-3.187674"><ele>141</ele><time>2019-10-02T15:59:34Z</time><name>PT17432</name></trkpt>
<trkpt lat="54.591506" lon="-3.187667"><ele>141</ele><time>2019-10-02T15:59:34Z</time><name>PT17433</name></trkpt>
<trkpt lat="54.591515" lon="-3.187659"><ele>141</ele><time>2019-10-02T15:59:36Z</time><name>PT17434</name></trkpt>
<trkpt lat="54.591526" lon="-3.187653"><ele>141</ele><time>2019-10-02T15:59:36Z</time><name>PT17435</name></trkpt>
<trkpt lat="54.591538" lon="-3.187651"><ele>141</ele><time>2019-10-02T15:59:38Z</time><name>PT17436</name></trkpt>
<trkpt lat="54.591549" lon="-3.187652"><ele>141</ele><time>2019-10-02T15:59:38Z</time><name>PT17437</name></trkpt>
<trkpt lat="54.591560" lon="-3.187655"><ele>142</ele><time>2019-10-02T15:59:40Z</time><name>PT17438</name></trkpt>
<trkpt lat="54.591572" lon="-3.187656"><ele>142</ele><time>2019-10-02T15:59:40Z</time><name>PT17439</name></trkpt>
<trkpt lat="54.591584" lon="-3.187656"><ele>142</ele><time>2019-10-02T15:59:42Z</time><name>PT17440</name></trkpt>
<trkpt lat="54.591597" lon="-3.187656"><ele>142</ele><time>2019-10-02T15:59:42Z</time><name>PT17441</name></trkpt>
<trkpt lat="54.591609" lon="-3.187655"><ele>142</ele><time>2019-10-02T15:59:44Z</time><name>PT17442</name></trkpt>
<trkpt lat="54.591620" lon="-3.187655"><ele>142</ele><time>2019-10-02T15:59:44Z</time><name>PT17443</name></trkpt>
<trkpt lat="54.591630" lon="-3.187655"><ele>142</ele><time>2019-10-02T15:59:46Z</time><name>PT17444</name></trkpt>
<trkpt lat="54.591642" lon="-3.187657"><ele>143</ele><time>2019-10-02T15:59:46Z</time><name>PT17445</name></trkpt>
<trkpt lat="54.591652" lon="-3.187658"><ele>143</ele><time>2019-10-02T15:59:48Z</time><name>PT17446</name></trkpt>
<trkpt lat="54.591662" lon="-3.187656"><ele>143</ele><time>2019-10-02T15:59:48Z</time><name>PT17447</name></trkpt>
<trkpt lat="54.591671" lon="-3.187657"><ele>143</ele><time>2019-10-02T15:59:50Z</time><name>PT17448</name></trkpt>
<trkpt lat="54.591681" lon="-3.187657"><ele>143</ele><time>2019-10-02T15:59:50Z</time><name>PT17449</name></trkpt>
<trkpt lat="54.591693" lon="-3.187658"><ele>143</ele><time>2019-10-02T15:59:52Z</time><name>PT17450</name></trkpt>
<trkpt lat="54.591705" lon="-3.187658"><ele>143</ele><time>2019-10-02T15:59:52Z</time><name>PT17451</name></trkpt>
<trkpt lat="54.591716" lon="-3.187662"><ele>143</ele><time>2019-10-02T15:59:54Z</time><name>PT17452</name></trkpt>
<trkpt lat="54.591727" lon="-3.187662"><ele>143</ele><time>2019-10-02T15:59:54Z</time><name>PT17453</name></trkpt>
<trkpt lat="54.591739" lon="-3.187661"><ele>143</ele><time>2019-10-02T15:59:56Z</time><name>PT17454</name></trkpt>
<trkpt lat="54.591752" lon="-3.187659"><ele>143</ele><time>2019-10-02T15:59:56Z</time><name>PT17455</name></trkpt>
<trkpt lat="54.591764" lon="-3.187660"><ele>143</ele><time>2019-10-02T15:59:58Z</time><name>PT17456</name></trkpt>
<trkpt lat="54.591774" lon="-3.187660"><ele>143</ele><time>2019-10-02T15:59:58Z</time><name>PT17457</name></trkpt>
<trkpt lat="54.591785" lon="-3.187662"><ele>143</ele><time>2019-10-02T16:00:00Z</time><name>PT17458</name></trkpt>
<trkpt lat="54.591795" lon="-3.187657"><ele>143</ele><time>2019-10-02T16:00:00Z</time><name>PT17459</name></trkpt>
<trkpt lat="54.591806" lon="-3.187654"><ele>144</ele><time>2019-10-02T16:00:02Z</time><name>PT17460</name></trkpt>
<trkpt lat="54.591817" lon="-3.187652"><ele>144</ele><time>2019-10-02T16:00:02Z</time><name>PT17461</name></trkpt>
<trkpt lat="54.591828" lon="-3.187650"><ele>144</ele><time>2019-10-02T16:00:04Z</time><name>PT17462</name></trkpt>
<trkpt lat="54.591839" lon="-3.187648"><ele>144</ele><time>2019-10-02T16:00:04Z</time><name>PT17463</name></trkpt>
<trkpt lat="54.591850" lon="-3.187644"><ele>144</ele><time>2019-10-02T16:00:06Z</time><name>PT17464</name></trkpt>
<trkpt lat="54.591860" lon="-3.187642"><ele>145</ele><time>2019-10-02T16:00:06Z</time><name>PT17465</name></trkpt>
<trkpt lat="54.591871" lon="-3.187642"><ele>145</ele><time>2019-10-02T16:00:08Z</time><name>PT17466</name></trkpt>
<trkpt lat="54.591882" lon="-3.187645"><ele>145</ele><time>2019-10-02T16:00:08Z</time><name>PT17467</name></trkpt>
<trkpt lat="54.591893" lon="-3.187647"><ele>145</ele><time>2019-10-02T16:00:10Z</time><name>PT17468</name></trkpt>
<trkpt lat="54.591905" lon="-3.187645"><ele>145</ele><time>2019-10-02T16:00:10Z</time><name>PT17469</name></trkpt>
<trkpt lat="54.591917" lon="-3.187642"><ele>145</ele><time>2019-10-02T16:00:12Z</time><name>PT17470</name></trkpt>
<trkpt lat="54.591929" lon="-3.187639"><ele>145</ele><time>2019-10-02T16:00:12Z</time><name>PT17471</name></trkpt>
<trkpt lat="54.591940" lon="-3.187637"><ele>145</ele><time>2019-10-02T16:00:14Z</time><name>PT17472</name></trkpt>
<trkpt lat="54.591951" lon="-3.187634"><ele>146</ele><time>2019-10-02T16:00:14Z</time><name>PT17473</name></trkpt>
<trkpt lat="54.591963" lon="-3.187632"><ele>146</ele><time>2019-10-02T16:00:16Z</time><name>PT17474</name></trkpt>
<trkpt lat="54.591974" lon="-3.187627"><ele>146</ele><time>2019-10-02T16:00:16Z</time><name>PT17475</name></trkpt>
<trkpt lat="54.591987" lon="-3.187623"><ele>146</ele><time>2019-10-02T16:00:18Z</time><name>PT17476</name></trkpt>
<trkpt lat="54.591999" lon="-3.187620"><ele>146</ele><time>2019-10-02T16:00:18Z</time><name>PT17477</name></trkpt>
<trkpt lat="54.592011" lon="-3.187619"><ele>146</ele><time>2019-10-02T16:00:20Z</time><name>PT17478</name></trkpt>
<trkpt lat="54.592021" lon="-3.187615"><ele>146</ele><time>2019-10-02T16:00:20Z</time><name>PT17479</name></trkpt>
<trkpt lat="54.592032" lon="-3.187611"><ele>146</ele><time>2019-10-02T16:00:22Z</time><name>PT17480</name></trkpt>
<trkpt lat="54.592043" lon="-3.187605"><ele>147</ele><time>2019-10-02T16:00:22Z</time><name>PT17481</name></trkpt>
<trkpt lat="54.592054" lon="-3.187599"><ele>147</ele><time>2019-10-02T16:00:24Z</time><name>PT17482</name></trkpt>
<trkpt lat="54.592065" lon="-3.187594"><ele>147</ele><time>2019-10-02T16:00:24Z</time><name>PT17483</name></trkpt>
<trkpt lat="54.592076" lon="-3.187591"><ele>147</ele><time>2019-10-02T16:00:26Z</time><name>PT17484</name></trkpt>
<trkpt lat="54.592088" lon="-3.187590"><ele>147</ele><time>2019-10-02T16:00:26Z</time><name>PT17485</name></trkpt>
<trkpt lat="54.592101" lon="-3.187586"><ele>147</ele><time>2019-10-02T16:00:28Z</time><name>PT17486</name></trkpt>
<trkpt lat="54.592116" lon="-3.187586"><ele>147</ele><time>2019-10-02T16:00:28Z</time><name>PT17487</name></trkpt>
<trkpt lat="54.592129" lon="-3.187582"><ele>146</ele><time>2019-10-02T16:00:30Z</time><name>PT17488</name></trkpt>
<trkpt lat="54.592140" lon="-3.187573"><ele>146</ele><time>2019-10-02T16:00:30Z</time><name>PT17489</name></trkpt>
<trkpt lat="54.592150" lon="-3.187566"><ele>146</ele><time>2019-10-02T16:00:32Z</time><name>PT17490</name></trkpt>
<trkpt lat="54.592161" lon="-3.187559"><ele>146</ele><time>2019-10-02T16:00:32Z</time><name>PT17491</name></trkpt>
<trkpt lat="54.592172" lon="-3.187555"><ele>146</ele><time>2019-10-02T16:00:34Z</time><name>PT17492</name></trkpt>
<trkpt lat="54.592184" lon="-3.187553"><ele>146</ele><time>2019-10-02T16:00:34Z</time><name>PT17493</name></trkpt>
<trkpt lat="54.592195" lon="-3.187549"><ele>146</ele><time>2019-10-02T16:00:36Z</time><name>PT17494</name></trkpt>
<trkpt lat="54.592205" lon="-3.187543"><ele>146</ele><time>2019-10-02T16:00:36Z</time><name>PT17495</name></trkpt>
<trkpt lat="54.592216" lon="-3.187536"><ele>146</ele><time>2019-10-02T16:00:38Z</time><name>PT17496</name></trkpt>
<trkpt lat="54.592226" lon="-3.187527"><ele>146</ele><time>2019-10-02T16:00:38Z</time><name>PT17497</name></trkpt>
<trkpt lat="54.592235" lon="-3.187519"><ele>146</ele><time>2019-10-02T16:00:40Z</time><name>PT17498</name></trkpt>
<trkpt lat="54.592244" lon="-3.187512"><ele>146</ele><time>2019-10-02T16:00:40Z</time><name>PT17499</name></trkpt>
<trkpt lat="54.592253" lon="-3.187508"><ele>146</ele><time>2019-10-02T16:00:42Z</time><name>PT17500</name></trkpt>
<trkpt lat="54.592264" lon="-3.187505"><ele>146</ele><time>2019-10-02T16:00:42Z</time><name>PT17501</name></trkpt>
<trkpt lat="54.592273" lon="-3.187498"><ele>146</ele><time>2019-10-02T16:00:44Z</time><name>PT17502</name></trkpt>
<trkpt lat="54.592283" lon="-3.187490"><ele>147</ele><time>2019-10-02T16:00:44Z</time><name>PT17503</name></trkpt>
<trkpt lat="54.592294" lon="-3.187482"><ele>147</ele><time>2019-10-02T16:00:46Z</time><name>PT17504</name></trkpt>
<trkpt lat="54.592305" lon="-3.187473"><ele>147</ele><time>2019-10-02T16:00:46Z</time><name>PT17505</name></trkpt>
<trkpt lat="54.592315" lon="-3.187469"><ele>147</ele><time>2019-10-02T16:00:48Z</time><name>PT17506</name></trkpt>
<trkpt lat="54.592326" lon="-3.187466"><ele>147</ele><time>2019-10-02T16:00:48Z</time><name>PT17507</name></trkpt>
<trkpt lat="54.592337" lon="-3.187459"><ele>148</ele><time>2019-10-02T16:00:50Z</time><name>PT17508</name></trkpt>
<trkpt lat="54.592348" lon="-3.187456"><ele>148</ele><time>2019-10-02T16:00:50Z</time><name>PT17509</name></trkpt>
<trkpt lat="54.592359" lon="-3.187451"><ele>147</ele><time>2019-10-02T16:00:52Z</time><name>PT17510</name></trkpt>
<trkpt lat="54.592371" lon="-3.187445"><ele>148</ele><time>2019-10-02T16:00:52Z</time><name>PT17511</name></trkpt>
<trkpt lat="54.592381" lon="-3.187442"><ele>147</ele><time>2019-10-02T16:00:54Z</time><name>PT17512</name></trkpt>
<trkpt lat="54.592392" lon="-3.187435"><ele>148</ele><time>2019-10-02T16:00:54Z</time><name>PT17513</name></trkpt>
<trkpt lat="54.592401" lon="-3.187431"><ele>148</ele><time>2019-10-02T16:00:56Z</time><name>PT17514</name></trkpt>
<trkpt lat="54.592413" lon="-3.187427"><ele>148</ele><time>2019-10-02T16:00:56Z</time><name>PT17515</name></trkpt>
<trkpt lat="54.592423" lon="-3.187421"><ele>148</ele><time>2019-10-02T16:00:58Z</time><name>PT17516</name></trkpt>
<trkpt lat="54.592434" lon="-3.187415"><ele>148</ele><time>2019-10-02T16:00:58Z</time><name>PT17517</name></trkpt>
<trkpt lat="54.592444" lon="-3.187408"><ele>148</ele><time>2019-10-02T16:01:00Z</time><name>PT17518</name></trkpt>
<trkpt lat="54.592454" lon="-3.187401"><ele>149</ele><time>2019-10-02T16:01:00Z</time><name>PT17519</name></trkpt>
<trkpt lat="54.592464" lon="-3.187392"><ele>149</ele><time>2019-10-02T16:01:02Z</time><name>PT17520</name></trkpt>
<trkpt lat="54.592474" lon="-3.187385"><ele>149</ele><time>2019-10-02T16:01:02Z</time><name>PT17521</name></trkpt>
<trkpt lat="54.592486" lon="-3.187377"><ele>149</ele><time>2019-10-02T16:01:04Z</time><name>PT17522</name></trkpt>
<trkpt lat="54.592495" lon="-3.187368"><ele>149</ele><time>2019-10-02T16:01:04Z</time><name>PT17523</name></trkpt>
<trkpt lat="54.592504" lon="-3.187360"><ele>150</ele><time>2019-10-02T16:01:06Z</time><name>PT17524</name></trkpt>
<trkpt lat="54.592512" lon="-3.187353"><ele>150</ele><time>2019-10-02T16:01:06Z</time><name>PT17525</name></trkpt>
<trkpt lat="54.592521" lon="-3.187348"><ele>150</ele><time>2019-10-02T16:01:08Z</time><name>PT17526</name></trkpt>
<trkpt lat="54.592531" lon="-3.187343"><ele>150</ele><time>2019-10-02T16:01:08Z</time><name>PT17527</name></trkpt>
<trkpt lat="54.592542" lon="-3.187339"><ele>150</ele><time>2019-10-02T16:01:10Z</time><name>PT17528</name></trkpt>
<trkpt lat="54.592552" lon="-3.187334"><ele>151</ele><time>2019-10-02T16:01:10Z</time><name>PT17529</name></trkpt>
<trkpt lat="54.592563" lon="-3.187330"><ele>151</ele><time>2019-10-02T16:01:12Z</time><name>PT17530</name></trkpt>
<trkpt lat="54.592574" lon="-3.187324"><ele>151</ele><time>2019-10-02T16:01:12Z</time><name>PT17531</name></trkpt>
<trkpt lat="54.592584" lon="-3.187316"><ele>151</ele><time>2019-10-02T16:01:14Z</time><name>PT17532</name></trkpt>
<trkpt lat="54.592591" lon="-3.187308"><ele>152</ele><time>2019-10-02T16:01:14Z</time><name>PT17533</name></trkpt>
<trkpt lat="54.592600" lon="-3.187303"><ele>152</ele><time>2019-10-02T16:01:16Z</time><name>PT17534</name></trkpt>
<trkpt lat="54.592611" lon="-3.187303"><ele>152</ele><time>2019-10-02T16:01:16Z</time><name>PT17535</name></trkpt>
<trkpt lat="54.592620" lon="-3.187297"><ele>152</ele><time>2019-10-02T16:01:18Z</time><name>PT17536</name></trkpt>
<trkpt lat="54.592629" lon="-3.187292"><ele>153</ele><time>2019-10-02T16:01:18Z</time><name>PT17537</name></trkpt>
<trkpt lat="54.592638" lon="-3.187280"><ele>153</ele><time>2019-10-02T16:01:20Z</time><name>PT17538</name></trkpt>
<trkpt lat="54.592649" lon="-3.187271"><ele>153</ele><time>2019-10-02T16:01:20Z</time><name>PT17539</name></trkpt>
<trkpt lat="54.592658" lon="-3.187265"><ele>153</ele><time>2019-10-02T16:01:22Z</time><name>PT17540</name></trkpt>
<trkpt lat="54.592665" lon="-3.187255"><ele>153</ele><time>2019-10-02T16:01:22Z</time><name>PT17541</name></trkpt>
<trkpt lat="54.592675" lon="-3.187247"><ele>154</ele><time>2019-10-02T16:01:24Z</time><name>PT17542</name></trkpt>
<trkpt lat="54.592686" lon="-3.187243"><ele>154</ele><time>2019-10-02T16:01:24Z</time><name>PT17543</name></trkpt>
<trkpt lat="54.592695" lon="-3.187236"><ele>154</ele><time>2019-10-02T16:01:26Z</time><name>PT17544</name></trkpt>
<trkpt lat="54.592703" lon="-3.187224"><ele>155</ele><time>2019-10-02T16:01:26Z</time><name>PT17545</name></trkpt>
<trkpt lat="54.592715" lon="-3.187215"><ele>155</ele><time>2019-10-02T16:01:28Z</time><name>PT17546</name></trkpt>
<trkpt lat="54.592725" lon="-3.187209"><ele>155</ele><time>2019-10-02T16:01:28Z</time><name>PT17547</name></trkpt>
<trkpt lat="54.592735" lon="-3.187205"><ele>155</ele><time>2019-10-02T16:01:30Z</time><name>PT17548</name></trkpt>
<trkpt lat="54.592745" lon="-3.187201"><ele>155</ele><time>2019-10-02T16:01:30Z</time><name>PT17549</name></trkpt>
<trkpt lat="54.592754" lon="-3.187198"><ele>155</ele><time>2019-10-02T16:01:32Z</time><name>PT17550</name></trkpt>
<trkpt lat="54.592764" lon="-3.187194"><ele>156</ele><time>2019-10-02T16:01:32Z</time><name>PT17551</name></trkpt>
<trkpt lat="54.592776" lon="-3.187192"><ele>156</ele><time>2019-10-02T16:01:34Z</time><name>PT17552</name></trkpt>
<trkpt lat="54.592786" lon="-3.187185"><ele>156</ele><time>2019-10-02T16:01:34Z</time><name>PT17553</name></trkpt>
<trkpt lat="54.592798" lon="-3.187181"><ele>156</ele><time>2019-10-02T16:01:36Z</time><name>PT17554</name></trkpt>
<trkpt lat="54.592807" lon="-3.187175"><ele>156</ele><time>2019-10-02T16:01:36Z</time><name>PT17555</name></trkpt>
<trkpt lat="54.592816" lon="-3.187170"><ele>156</ele><time>2019-10-02T16:01:38Z</time><name>PT17556</name></trkpt>
<trkpt lat="54.592826" lon="-3.187165"><ele>156</ele><time>2019-10-02T16:01:38Z</time><name>PT17557</name></trkpt>
<trkpt lat="54.592840" lon="-3.187158"><ele>156</ele><time>2019-10-02T16:01:40Z</time><name>PT17558</name></trkpt>
<trkpt lat="54.592849" lon="-3.187148"><ele>157</ele><time>2019-10-02T16:01:40Z</time><name>PT17559</name></trkpt>
<trkpt lat="54.592856" lon="-3.187142"><ele>157</ele><time>2019-10-02T16:01:42Z</time><name>PT17560</name></trkpt>
<trkpt lat="54.592866" lon="-3.187138"><ele>157</ele><time>2019-10-02T16:01:42Z</time><name>PT17561</name></trkpt>
<trkpt lat="54.592879" lon="-3.187135"><ele>158</ele><time>2019-10-02T16:01:44Z</time><name>PT17562</name></trkpt>
<trkpt lat="54.592891" lon="-3.187133"><ele>158</ele><time>2019-10-02T16:01:44Z</time><name>PT17563</name></trkpt>
<trkpt lat="54.592900" lon="-3.187122"><ele>159</ele><time>2019-10-02T16:01:46Z</time><name>PT17564</name></trkpt>
<trkpt lat="54.592910" lon="-3.187114"><ele>159</ele><time>2019-10-02T16:01:46Z</time><name>PT17565</name></trkpt>
<trkpt lat="54.592920" lon="-3.187109"><ele>160</ele><time>2019-10-02T16:01:48Z</time><name>PT17566</name></trkpt>
<trkpt lat="54.592928" lon="-3.187106"><ele>160</ele><time>2019-10-02T16:01:48Z</time><name>PT17567</name></trkpt>
<trkpt lat="54.592938" lon="-3.187101"><ele>160</ele><time>2019-10-02T16:01:50Z</time><name>PT17568</name></trkpt>
<trkpt lat="54.592947" lon="-3.187095"><ele>161</ele><time>2019-10-02T16:01:50Z</time><name>PT17569</name></trkpt>
<trkpt lat="54.592957" lon="-3.187092"><ele>161</ele><time>2019-10-02T16:01:52Z</time><name>PT17570</name></trkpt>
<trkpt lat="54.592968" lon="-3.187092"><ele>161</ele><time>2019-10-02T16:01:52Z</time><name>PT17571</name></trkpt>
<trkpt lat="54.592979" lon="-3.187088"><ele>162</ele><time>2019-10-02T16:01:54Z</time><name>PT17572</name></trkpt>
<trkpt lat="54.592988" lon="-3.187084"><ele>162</ele><time>2019-10-02T16:01:54Z</time><name>PT17573</name></trkpt>
<trkpt lat="54.593001" lon="-3.187081"><ele>162</ele><time>2019-10-02T16:01:56Z</time><name>PT17574</name></trkpt>
<trkpt lat="54.593014" lon="-3.187079"><ele>162</ele><time>2019-10-02T16:01:57Z</time><name>PT17575</name></trkpt>
<trkpt lat="54.593024" lon="-3.187075"><ele>162</ele><time>2019-10-02T16:01:58Z</time><name>PT17576</name></trkpt>
<trkpt lat="54.593034" lon="-3.187070"><ele>162</ele><time>2019-10-02T16:01:58Z</time><name>PT17577</name></trkpt>
<trkpt lat="54.593047" lon="-3.187065"><ele>162</ele><time>2019-10-02T16:02:00Z</time><name>PT17578</name></trkpt>
<trkpt lat="54.593057" lon="-3.187061"><ele>162</ele><time>2019-10-02T16:02:00Z</time><name>PT17579</name></trkpt>
<trkpt lat="54.593067" lon="-3.187065"><ele>162</ele><time>2019-10-02T16:02:02Z</time><name>PT17580</name></trkpt>
<trkpt lat="54.593072" lon="-3.187065"><ele>162</ele><time>2019-10-02T16:02:02Z</time><name>PT17581</name></trkpt>
<trkpt lat="54.593077" lon="-3.187070"><ele>161</ele><time>2019-10-02T16:02:04Z</time><name>PT17582</name></trkpt>
<trkpt lat="54.593079" lon="-3.187073"><ele>161</ele><time>2019-10-02T16:02:04Z</time><name>PT17583</name></trkpt>
<trkpt lat="54.593079" lon="-3.187074"><ele>161</ele><time>2019-10-02T16:02:06Z</time><name>PT17584</name></trkpt>
<trkpt lat="54.593080" lon="-3.187075"><ele>161</ele><time>2019-10-02T16:02:06Z</time><name>PT17585</name></trkpt>
<trkpt lat="54.593083" lon="-3.187087"><ele>160</ele><time>2019-10-02T16:02:08Z</time><name>PT17586</name></trkpt>
<trkpt lat="54.593085" lon="-3.187090"><ele>160</ele><time>2019-10-02T16:02:08Z</time><name>PT17587</name></trkpt>
<trkpt lat="54.593087" lon="-3.187082"><ele>160</ele><time>2019-10-02T16:02:10Z</time><name>PT17588</name></trkpt>
<trkpt lat="54.593093" lon="-3.187076"><ele>160</ele><time>2019-10-02T16:02:10Z</time><name>PT17589</name></trkpt>
<trkpt lat="54.593103" lon="-3.187070"><ele>161</ele><time>2019-10-02T16:02:12Z</time><name>PT17590</name></trkpt>
<trkpt lat="54.593116" lon="-3.187068"><ele>161</ele><time>2019-10-02T16:02:12Z</time><name>PT17591</name></trkpt>
<trkpt lat="54.593127" lon="-3.187069"><ele>162</ele><time>2019-10-02T16:02:14Z</time><name>PT17592</name></trkpt>
<trkpt lat="54.593138" lon="-3.187063"><ele>161</ele><time>2019-10-02T16:02:14Z</time><name>PT17593</name></trkpt>
<trkpt lat="54.593148" lon="-3.187053"><ele>161</ele><time>2019-10-02T16:02:16Z</time><name>PT17594</name></trkpt>
<trkpt lat="54.593157" lon="-3.187041"><ele>161</ele><time>2019-10-02T16:02:16Z</time><name>PT17595</name></trkpt>
<trkpt lat="54.593165" lon="-3.187033"><ele>161</ele><time>2019-10-02T16:02:18Z</time><name>PT17596</name></trkpt>
<trkpt lat="54.593173" lon="-3.187025"><ele>162</ele><time>2019-10-02T16:02:18Z</time><name>PT17597</name></trkpt>
<trkpt lat="54.593184" lon="-3.187020"><ele>162</ele><time>2019-10-02T16:02:20Z</time><name>PT17598</name></trkpt>
<trkpt lat="54.593195" lon="-3.187012"><ele>162</ele><time>2019-10-02T16:02:20Z</time><name>PT17599</name></trkpt>
<trkpt lat="54.593206" lon="-3.187012"><ele>162</ele><time>2019-10-02T16:02:22Z</time><name>PT17600</name></trkpt>
<trkpt lat="54.593219" lon="-3.187007"><ele>162</ele><time>2019-10-02T16:02:22Z</time><name>PT17601</name></trkpt>
<trkpt lat="54.593233" lon="-3.187003"><ele>163</ele><time>2019-10-02T16:02:24Z</time><name>PT17602</name></trkpt>
<trkpt lat="54.593245" lon="-3.186999"><ele>163</ele><time>2019-10-02T16:02:24Z</time><name>PT17603</name></trkpt>
<trkpt lat="54.593256" lon="-3.186994"><ele>163</ele><time>2019-10-02T16:02:26Z</time><name>PT17604</name></trkpt>
<trkpt lat="54.593266" lon="-3.186989"><ele>163</ele><time>2019-10-02T16:02:26Z</time><name>PT17605</name></trkpt>
<trkpt lat="54.593274" lon="-3.186980"><ele>164</ele><time>2019-10-02T16:02:28Z</time><name>PT17606</name></trkpt>
<trkpt lat="54.593286" lon="-3.186969"><ele>165</ele><time>2019-10-02T16:02:28Z</time><name>PT17607</name></trkpt>
<trkpt lat="54.593297" lon="-3.186962"><ele>165</ele><time>2019-10-02T16:02:30Z</time><name>PT17608</name></trkpt>
<trkpt lat="54.593309" lon="-3.186955"><ele>166</ele><time>2019-10-02T16:02:30Z</time><name>PT17609</name></trkpt>
<trkpt lat="54.593319" lon="-3.186951"><ele>166</ele><time>2019-10-02T16:02:32Z</time><name>PT17610</name></trkpt>
<trkpt lat="54.593329" lon="-3.186947"><ele>167</ele><time>2019-10-02T16:02:32Z</time><name>PT17611</name></trkpt>
<trkpt lat="54.593343" lon="-3.186937"><ele>167</ele><time>2019-10-02T16:02:34Z</time><name>PT17612</name></trkpt>
<trkpt lat="54.593354" lon="-3.186929"><ele>167</ele><time>2019-10-02T16:02:34Z</time><name>PT17613</name></trkpt>
<trkpt lat="54.593369" lon="-3.186924"><ele>167</ele><time>2019-10-02T16:02:36Z</time><name>PT17614</name></trkpt>
<trkpt lat="54.593379" lon="-3.186918"><ele>167</ele><time>2019-10-02T16:02:36Z</time><name>PT17615</name></trkpt>
<trkpt lat="54.593392" lon="-3.186918"><ele>167</ele><time>2019-10-02T16:02:38Z</time><name>PT17616</name></trkpt>
<trkpt lat="54.593403" lon="-3.186916"><ele>168</ele><time>2019-10-02T16:02:38Z</time><name>PT17617</name></trkpt>
<trkpt lat="54.593413" lon="-3.186909"><ele>168</ele><time>2019-10-02T16:02:40Z</time><name>PT17618</name></trkpt>
<trkpt lat="54.593421" lon="-3.186902"><ele>169</ele><time>2019-10-02T16:02:40Z</time><name>PT17619</name></trkpt>
<trkpt lat="54.593431" lon="-3.186903"><ele>169</ele><time>2019-10-02T16:02:42Z</time><name>PT17620</name></trkpt>
<trkpt lat="54.593440" lon="-3.186905"><ele>169</ele><time>2019-10-02T16:02:42Z</time><name>PT17621</name></trkpt>
<trkpt lat="54.593450" lon="-3.186900"><ele>169</ele><time>2019-10-02T16:02:44Z</time><name>PT17622</name></trkpt>
<trkpt lat="54.593461" lon="-3.186894"><ele>169</ele><time>2019-10-02T16:02:44Z</time><name>PT17623</name></trkpt>
<trkpt lat="54.593472" lon="-3.186890"><ele>169</ele><time>2019-10-02T16:02:46Z</time><name>PT17624</name></trkpt>
<trkpt lat="54.593479" lon="-3.186881"><ele>170</ele><time>2019-10-02T16:02:46Z</time><name>PT17625</name></trkpt>
<trkpt lat="54.593491" lon="-3.186880"><ele>169</ele><time>2019-10-02T16:02:48Z</time><name>PT17626</name></trkpt>
<trkpt lat="54.593501" lon="-3.186878"><ele>170</ele><time>2019-10-02T16:02:48Z</time><name>PT17627</name></trkpt>
<trkpt lat="54.593513" lon="-3.186875"><ele>170</ele><time>2019-10-02T16:02:50Z</time><name>PT17628</name></trkpt>
<trkpt lat="54.593525" lon="-3.186868"><ele>170</ele><time>2019-10-02T16:02:50Z</time><name>PT17629</name></trkpt>
<trkpt lat="54.593540" lon="-3.186863"><ele>170</ele><time>2019-10-02T16:02:52Z</time><name>PT17630</name></trkpt>
<trkpt lat="54.593550" lon="-3.186859"><ele>170</ele><time>2019-10-02T16:02:52Z</time><name>PT17631</name></trkpt>
<trkpt lat="54.593557" lon="-3.186854"><ele>170</ele><time>2019-10-02T16:02:54Z</time><name>PT17632</name></trkpt>
<trkpt lat="54.593567" lon="-3.186855"><ele>170</ele><time>2019-10-02T16:02:54Z</time><name>PT17633</name></trkpt>
<trkpt lat="54.593574" lon="-3.186853"><ele>170</ele><time>2019-10-02T16:02:56Z</time><name>PT17634</name></trkpt>
<trkpt lat="54.593582" lon="-3.186851"><ele>170</ele><time>2019-10-02T16:02:56Z</time><name>PT17635</name></trkpt>
<trkpt lat="54.593595" lon="-3.186842"><ele>170</ele><time>2019-10-02T16:02:58Z</time><name>PT17636</name></trkpt>
<trkpt lat="54.593608" lon="-3.186838"><ele>170</ele><time>2019-10-02T16:02:58Z</time><name>PT17637</name></trkpt>
<trkpt lat="54.593623" lon="-3.186836"><ele>170</ele><time>2019-10-02T16:03:00Z</time><name>PT17638</name></trkpt>
<trkpt lat="54.593634" lon="-3.186829"><ele>170</ele><time>2019-10-02T16:03:00Z</time><name>PT17639</name></trkpt>
<trkpt lat="54.593646" lon="-3.186828"><ele>169</ele><time>2019-10-02T16:03:02Z</time><name>PT17640</name></trkpt>
<trkpt lat="54.593657" lon="-3.186827"><ele>169</ele><time>2019-10-02T16:03:02Z</time><name>PT17641</name></trkpt>
<trkpt lat="54.593668" lon="-3.186826"><ele>169</ele><time>2019-10-02T16:03:04Z</time><name>PT17642</name></trkpt>
<trkpt lat="54.593678" lon="-3.186824"><ele>168</ele><time>2019-10-02T16:03:04Z</time><name>PT17643</name></trkpt>
<trkpt lat="54.593692" lon="-3.186818"><ele>168</ele><time>2019-10-02T16:03:06Z</time><name>PT17644</name></trkpt>
<trkpt lat="54.593705" lon="-3.186816"><ele>168</ele><time>2019-10-02T16:03:06Z</time><name>PT17645</name></trkpt>
<trkpt lat="54.593716" lon="-3.186816"><ele>168</ele><time>2019-10-02T16:03:08Z</time><name>PT17646</name></trkpt>
<trkpt lat="54.593729" lon="-3.186818"><ele>168</ele><time>2019-10-02T16:03:08Z</time><name>PT17647</name></trkpt>
<trkpt lat="54.593744" lon="-3.186811"><ele>169</ele><time>2019-10-02T16:03:10Z</time><name>PT17648</name></trkpt>
<trkpt lat="54.593760" lon="-3.186807"><ele>169</ele><time>2019-10-02T16:03:10Z</time><name>PT17649</name></trkpt>
<trkpt lat="54.593772" lon="-3.186802"><ele>169</ele><time>2019-10-02T16:03:12Z</time><name>PT17650</name></trkpt>
<trkpt lat="54.593784" lon="-3.186798"><ele>169</ele><time>2019-10-02T16:03:12Z</time><name>PT17651</name></trkpt>
<trkpt lat="54.593797" lon="-3.186798"><ele>169</ele><time>2019-10-02T16:03:14Z</time><name>PT17652</name></trkpt>
<trkpt lat="54.593808" lon="-3.186797"><ele>169</ele><time>2019-10-02T16:03:14Z</time><name>PT17653</name></trkpt>
<trkpt lat="54.593818" lon="-3.186787"><ele>170</ele><time>2019-10-02T16:03:16Z</time><name>PT17654</name></trkpt>
<trkpt lat="54.593828" lon="-3.186781"><ele>170</ele><time>2019-10-02T16:03:16Z</time><name>PT17655</name></trkpt>
<trkpt lat="54.593836" lon="-3.186773"><ele>170</ele><time>2019-10-02T16:03:18Z</time><name>PT17656</name></trkpt>
<trkpt lat="54.593848" lon="-3.186771"><ele>170</ele><time>2019-10-02T16:03:18Z</time><name>PT17657</name></trkpt>
<trkpt lat="54.593863" lon="-3.186774"><ele>170</ele><time>2019-10-02T16:03:20Z</time><name>PT17658</name></trkpt>
<trkpt lat="54.593877" lon="-3.186776"><ele>169</ele><time>2019-10-02T16:03:20Z</time><name>PT17659</name></trkpt>
<trkpt lat="54.593888" lon="-3.186769"><ele>170</ele><time>2019-10-02T16:03:22Z</time><name>PT17660</name></trkpt>
<trkpt lat="54.593901" lon="-3.186761"><ele>170</ele><time>2019-10-02T16:03:22Z</time><name>PT17661</name></trkpt>
<trkpt lat="54.593912" lon="-3.186760"><ele>170</ele><time>2019-10-02T16:03:24Z</time><name>PT17662</name></trkpt>
<trkpt lat="54.593926" lon="-3.186757"><ele>171</ele><time>2019-10-02T16:03:24Z</time><name>PT17663</name></trkpt>
<trkpt lat="54.593941" lon="-3.186765"><ele>171</ele><time>2019-10-02T16:03:26Z</time><name>PT17664</name></trkpt>
<trkpt lat="54.593954" lon="-3.186764"><ele>171</ele><time>2019-10-02T16:03:26Z</time><name>PT17665</name></trkpt>
<trkpt lat="54.593965" lon="-3.186759"><ele>171</ele><time>2019-10-02T16:03:28Z</time><name>PT17666</name></trkpt>
<trkpt lat="54.593976" lon="-3.186754"><ele>171</ele><time>2019-10-02T16:03:28Z</time><name>PT17667</name></trkpt>
<trkpt lat="54.593990" lon="-3.186752"><ele>171</ele><time>2019-10-02T16:03:30Z</time><name>PT17668</name></trkpt>
<trkpt lat="54.594001" lon="-3.186756"><ele>171</ele><time>2019-10-02T16:03:30Z</time><name>PT17669</name></trkpt>
<trkpt lat="54.594012" lon="-3.186757"><ele>170</ele><time>2019-10-02T16:03:32Z</time><name>PT17670</name></trkpt>
<trkpt lat="54.594022" lon="-3.186748"><ele>171</ele><time>2019-10-02T16:03:32Z</time><name>PT17671</name></trkpt>
<trkpt lat="54.594033" lon="-3.186743"><ele>170</ele><time>2019-10-02T16:03:34Z</time><name>PT17672</name></trkpt>
<trkpt lat="54.594045" lon="-3.186740"><ele>171</ele><time>2019-10-02T16:03:34Z</time><name>PT17673</name></trkpt>
<trkpt lat="54.594058" lon="-3.186739"><ele>171</ele><time>2019-10-02T16:03:36Z</time><name>PT17674</name></trkpt>
<trkpt lat="54.594070" lon="-3.186739"><ele>171</ele><time>2019-10-02T16:03:36Z</time><name>PT17675</name></trkpt>
<trkpt lat="54.594082" lon="-3.186737"><ele>171</ele><time>2019-10-02T16:03:38Z</time><name>PT17676</name></trkpt>
<trkpt lat="54.594095" lon="-3.186737"><ele>171</ele><time>2019-10-02T16:03:38Z</time><name>PT17677</name></trkpt>
<trkpt lat="54.594107" lon="-3.186740"><ele>171</ele><time>2019-10-02T16:03:40Z</time><name>PT17678</name></trkpt>
<trkpt lat="54.594118" lon="-3.186737"><ele>172</ele><time>2019-10-02T16:03:40Z</time><name>PT17679</name></trkpt>
<trkpt lat="54.594131" lon="-3.186736"><ele>171</ele><time>2019-10-02T16:03:42Z</time><name>PT17680</name></trkpt>
<trkpt lat="54.594144" lon="-3.186734"><ele>171</ele><time>2019-10-02T16:03:42Z</time><name>PT17681</name></trkpt>
<trkpt lat="54.594156" lon="-3.186728"><ele>171</ele><time>2019-10-02T16:03:44Z</time><name>PT17682</name></trkpt>
<trkpt lat="54.594169" lon="-3.186724"><ele>170</ele><time>2019-10-02T16:03:44Z</time><name>PT17683</name></trkpt>
<trkpt lat="54.594182" lon="-3.186724"><ele>170</ele><time>2019-10-02T16:03:46Z</time><name>PT17684</name></trkpt>
<trkpt lat="54.594194" lon="-3.186723"><ele>170</ele><time>2019-10-02T16:03:46Z</time><name>PT17685</name></trkpt>
<trkpt lat="54.594205" lon="-3.186719"><ele>170</ele><time>2019-10-02T16:03:48Z</time><name>PT17686</name></trkpt>
<trkpt lat="54.594218" lon="-3.186715"><ele>170</ele><time>2019-10-02T16:03:48Z</time><name>PT17687</name></trkpt>
<trkpt lat="54.594230" lon="-3.186713"><ele>170</ele><time>2019-10-02T16:03:50Z</time><name>PT17688</name></trkpt>
<trkpt lat="54.594242" lon="-3.186713"><ele>170</ele><time>2019-10-02T16:03:50Z</time><name>PT17689</name></trkpt>
<trkpt lat="54.594261" lon="-3.186720"><ele>168</ele><time>2019-10-02T16:03:52Z</time><name>PT17690</name></trkpt>
<trkpt lat="54.594274" lon="-3.186717"><ele>168</ele><time>2019-10-02T16:03:52Z</time><name>PT17691</name></trkpt>
<trkpt lat="54.594285" lon="-3.186716"><ele>168</ele><time>2019-10-02T16:03:54Z</time><name>PT17692</name></trkpt>
<trkpt lat="54.594296" lon="-3.186713"><ele>168</ele><time>2019-10-02T16:03:54Z</time><name>PT17693</name></trkpt>
<trkpt lat="54.594308" lon="-3.186712"><ele>168</ele><time>2019-10-02T16:03:56Z</time><name>PT17694</name></trkpt>
<trkpt lat="54.594319" lon="-3.186710"><ele>168</ele><time>2019-10-02T16:03:56Z</time><name>PT17695</name></trkpt>
<trkpt lat="54.594330" lon="-3.186706"><ele>168</ele><time>2019-10-02T16:03:58Z</time><name>PT17696</name></trkpt>
<trkpt lat="54.594342" lon="-3.186705"><ele>168</ele><time>2019-10-02T16:03:58Z</time><name>PT17697</name></trkpt>
<trkpt lat="54.594354" lon="-3.186702"><ele>168</ele><time>2019-10-02T16:04:00Z</time><name>PT17698</name></trkpt>
<trkpt lat="54.594366" lon="-3.186703"><ele>168</ele><time>2019-10-02T16:04:00Z</time><name>PT17699</name></trkpt>
<trkpt lat="54.594378" lon="-3.186701"><ele>168</ele><time>2019-10-02T16:04:02Z</time><name>PT17700</name></trkpt>
<trkpt lat="54.594390" lon="-3.186693"><ele>168</ele><time>2019-10-02T16:04:02Z</time><name>PT17701</name></trkpt>
<trkpt lat="54.594401" lon="-3.186686"><ele>168</ele><time>2019-10-02T16:04:04Z</time><name>PT17702</name></trkpt>
<trkpt lat="54.594412" lon="-3.186684"><ele>168</ele><time>2019-10-02T16:04:05Z</time><name>PT17703</name></trkpt>
<trkpt lat="54.594422" lon="-3.186682"><ele>169</ele><time>2019-10-02T16:04:06Z</time><name>PT17704</name></trkpt>
<trkpt lat="54.594440" lon="-3.186685"><ele>168</ele><time>2019-10-02T16:04:06Z</time><name>PT17705</name></trkpt>
<trkpt lat="54.594452" lon="-3.186686"><ele>168</ele><time>2019-10-02T16:04:08Z</time><name>PT17706</name></trkpt>
<trkpt lat="54.594463" lon="-3.186684"><ele>168</ele><time>2019-10-02T16:04:08Z</time><name>PT17707</name></trkpt>
<trkpt lat="54.594475" lon="-3.186683"><ele>168</ele><time>2019-10-02T16:04:10Z</time><name>PT17708</name></trkpt>
<trkpt lat="54.594486" lon="-3.186682"><ele>168</ele><time>2019-10-02T16:04:10Z</time><name>PT17709</name></trkpt>
<trkpt lat="54.594498" lon="-3.186685"><ele>168</ele><time>2019-10-02T16:04:12Z</time><name>PT17710</name></trkpt>
<trkpt lat="54.594509" lon="-3.186684"><ele>168</ele><time>2019-10-02T16:04:12Z</time><name>PT17711</name></trkpt>
<trkpt lat="54.594520" lon="-3.186682"><ele>168</ele><time>2019-10-02T16:04:14Z</time><name>PT17712</name></trkpt>
<trkpt lat="54.594532" lon="-3.186682"><ele>168</ele><time>2019-10-02T16:04:14Z</time><name>PT17713</name></trkpt>
<trkpt lat="54.594545" lon="-3.186681"><ele>168</ele><time>2019-10-02T16:04:16Z</time><name>PT17714</name></trkpt>
<trkpt lat="54.594556" lon="-3.186679"><ele>168</ele><time>2019-10-02T16:04:16Z</time><name>PT17715</name></trkpt>
<trkpt lat="54.594568" lon="-3.186676"><ele>168</ele><time>2019-10-02T16:04:18Z</time><name>PT17716</name></trkpt>
<trkpt lat="54.594579" lon="-3.186674"><ele>169</ele><time>2019-10-02T16:04:18Z</time><name>PT17717</name></trkpt>
<trkpt lat="54.594591" lon="-3.186673"><ele>169</ele><time>2019-10-02T16:04:20Z</time><name>PT17718</name></trkpt>
<trkpt lat="54.594602" lon="-3.186668"><ele>169</ele><time>2019-10-02T16:04:20Z</time><name>PT17719</name></trkpt>
<trkpt lat="54.594613" lon="-3.186665"><ele>169</ele><time>2019-10-02T16:04:22Z</time><name>PT17720</name></trkpt>
<trkpt lat="54.594624" lon="-3.186662"><ele>169</ele><time>2019-10-02T16:04:22Z</time><name>PT17721</name></trkpt>
<trkpt lat="54.594635" lon="-3.186659"><ele>169</ele><time>2019-10-02T16:04:24Z</time><name>PT17722</name></trkpt>
<trkpt lat="54.594647" lon="-3.186661"><ele>169</ele><time>2019-10-02T16:04:24Z</time><name>PT17723</name></trkpt>
<trkpt lat="54.594657" lon="-3.186660"><ele>170</ele><time>2019-10-02T16:04:26Z</time><name>PT17724</name></trkpt>
<trkpt lat="54.594669" lon="-3.186660"><ele>170</ele><time>2019-10-02T16:04:26Z</time><name>PT17725</name></trkpt>
<trkpt lat="54.594681" lon="-3.186656"><ele>170</ele><time>2019-10-02T16:04:28Z</time><name>PT17726</name></trkpt>
<trkpt lat="54.594692" lon="-3.186652"><ele>170</ele><time>2019-10-02T16:04:28Z</time><name>PT17727</name></trkpt>
<trkpt lat="54.594704" lon="-3.186651"><ele>170</ele><time>2019-10-02T16:04:30Z</time><name>PT17728</name></trkpt>
<trkpt lat="54.594713" lon="-3.186646"><ele>171</ele><time>2019-10-02T16:04:30Z</time><name>PT17729</name></trkpt>
<trkpt lat="54.594725" lon="-3.186642"><ele>171</ele><time>2019-10-02T16:04:32Z</time><name>PT17730</name></trkpt>
<trkpt lat="54.594738" lon="-3.186637"><ele>171</ele><time>2019-10-02T16:04:32Z</time><name>PT17731</name></trkpt>
<trkpt lat="54.594750" lon="-3.186632"><ele>171</ele><time>2019-10-02T16:04:34Z</time><name>PT17732</name></trkpt>
<trkpt lat="54.594762" lon="-3.186629"><ele>171</ele><time>2019-10-02T16:04:34Z</time><name>PT17733</name></trkpt>
<trkpt lat="54.594773" lon="-3.186624"><ele>171</ele><time>2019-10-02T16:04:36Z</time><name>PT17734</name></trkpt>
<trkpt lat="54.594785" lon="-3.186620"><ele>171</ele><time>2019-10-02T16:04:36Z</time><name>PT17735</name></trkpt>
<trkpt lat="54.594798" lon="-3.186613"><ele>171</ele><time>2019-10-02T16:04:38Z</time><name>PT17736</name></trkpt>
<trkpt lat="54.594810" lon="-3.186610"><ele>171</ele><time>2019-10-02T16:04:38Z</time><name>PT17737</name></trkpt>
<trkpt lat="54.594822" lon="-3.186608"><ele>171</ele><time>2019-10-02T16:04:40Z</time><name>PT17738</name></trkpt>
<trkpt lat="54.594834" lon="-3.186604"><ele>171</ele><time>2019-10-02T16:04:40Z</time><name>PT17739</name></trkpt>
<trkpt lat="54.594847" lon="-3.186600"><ele>171</ele><time>2019-10-02T16:04:42Z</time><name>PT17740</name></trkpt>
<trkpt lat="54.594858" lon="-3.186594"><ele>171</ele><time>2019-10-02T16:04:42Z</time><name>PT17741</name></trkpt>
<trkpt lat="54.594869" lon="-3.186586"><ele>171</ele><time>2019-10-02T16:04:44Z</time><name>PT17742</name></trkpt>
<trkpt lat="54.594881" lon="-3.186577"><ele>171</ele><time>2019-10-02T16:04:44Z</time><name>PT17743</name></trkpt>
<trkpt lat="54.594892" lon="-3.186572"><ele>171</ele><time>2019-10-02T16:04:46Z</time><name>PT17744</name></trkpt>
<trkpt lat="54.594904" lon="-3.186569"><ele>171</ele><time>2019-10-02T16:04:46Z</time><name>PT17745</name></trkpt>
<trkpt lat="54.594915" lon="-3.186564"><ele>171</ele><time>2019-10-02T16:04:48Z</time><name>PT17746</name></trkpt>
<trkpt lat="54.594926" lon="-3.186557"><ele>171</ele><time>2019-10-02T16:04:48Z</time><name>PT17747</name></trkpt>
<trkpt lat="54.594936" lon="-3.186554"><ele>171</ele><time>2019-10-02T16:04:50Z</time><name>PT17748</name></trkpt>
<trkpt lat="54.594947" lon="-3.186549"><ele>171</ele><time>2019-10-02T16:04:50Z</time><name>PT17749</name></trkpt>
<trkpt lat="54.594959" lon="-3.186546"><ele>171</ele><time>2019-10-02T16:04:52Z</time><name>PT17750</name></trkpt>
<trkpt lat="54.594969" lon="-3.186542"><ele>171</ele><time>2019-10-02T16:04:52Z</time><name>PT17751</name></trkpt>
<trkpt lat="54.594981" lon="-3.186536"><ele>171</ele><time>2019-10-02T16:04:54Z</time><name>PT17752</name></trkpt>
<trkpt lat="54.594993" lon="-3.186535"><ele>171</ele><time>2019-10-02T16:04:54Z</time><name>PT17753</name></trkpt>
<trkpt lat="54.595003" lon="-3.186533"><ele>171</ele><time>2019-10-02T16:04:56Z</time><name>PT17754</name></trkpt>
<trkpt lat="54.595015" lon="-3.186532"><ele>171</ele><time>2019-10-02T16:04:56Z</time><name>PT17755</name></trkpt>
<trkpt lat="54.595028" lon="-3.186529"><ele>171</ele><time>2019-10-02T16:04:58Z</time><name>PT17756</name></trkpt>
<trkpt lat="54.595040" lon="-3.186525"><ele>171</ele><time>2019-10-02T16:04:58Z</time><name>PT17757</name></trkpt>
<trkpt lat="54.595052" lon="-3.186519"><ele>171</ele><time>2019-10-02T16:05:00Z</time><name>PT17758</name></trkpt>
<trkpt lat="54.595064" lon="-3.186517"><ele>171</ele><time>2019-10-02T16:05:00Z</time><name>PT17759</name></trkpt>
<trkpt lat="54.595077" lon="-3.186519"><ele>171</ele><time>2019-10-02T16:05:02Z</time><name>PT17760</name></trkpt>
<trkpt lat="54.595090" lon="-3.186518"><ele>171</ele><time>2019-10-02T16:05:02Z</time><name>PT17761</name></trkpt>
<trkpt lat="54.595103" lon="-3.186519"><ele>171</ele><time>2019-10-02T16:05:04Z</time><name>PT17762</name></trkpt>
<trkpt lat="54.595116" lon="-3.186519"><ele>171</ele><time>2019-10-02T16:05:04Z</time><name>PT17763</name></trkpt>
<trkpt lat="54.595127" lon="-3.186519"><ele>171</ele><time>2019-10-02T16:05:06Z</time><name>PT17764</name></trkpt>
<trkpt lat="54.595138" lon="-3.186521"><ele>171</ele><time>2019-10-02T16:05:06Z</time><name>PT17765</name></trkpt>
<trkpt lat="54.595149" lon="-3.186523"><ele>171</ele><time>2019-10-02T16:05:08Z</time><name>PT17766</name></trkpt>
<trkpt lat="54.595160" lon="-3.186521"><ele>171</ele><time>2019-10-02T16:05:08Z</time><name>PT17767</name></trkpt>
<trkpt lat="54.595170" lon="-3.186517"><ele>171</ele><time>2019-10-02T16:05:10Z</time><name>PT17768</name></trkpt>
<trkpt lat="54.595179" lon="-3.186508"><ele>171</ele><time>2019-10-02T16:05:10Z</time><name>PT17769</name></trkpt>
<trkpt lat="54.595189" lon="-3.186500"><ele>170</ele><time>2019-10-02T16:05:12Z</time><name>PT17770</name></trkpt>
<trkpt lat="54.595200" lon="-3.186496"><ele>170</ele><time>2019-10-02T16:05:12Z</time><name>PT17771</name></trkpt>
<trkpt lat="54.595211" lon="-3.186495"><ele>170</ele><time>2019-10-02T16:05:14Z</time><name>PT17772</name></trkpt>
<trkpt lat="54.595224" lon="-3.186500"><ele>170</ele><time>2019-10-02T16:05:14Z</time><name>PT17773</name></trkpt>
<trkpt lat="54.595233" lon="-3.186503"><ele>170</ele><time>2019-10-02T16:05:16Z</time><name>PT17774</name></trkpt>
<trkpt lat="54.595244" lon="-3.186504"><ele>170</ele><time>2019-10-02T16:05:16Z</time><name>PT17775</name></trkpt>
<trkpt lat="54.595254" lon="-3.186505"><ele>170</ele><time>2019-10-02T16:05:18Z</time><name>PT17776</name></trkpt>
<trkpt lat="54.595262" lon="-3.186508"><ele>170</ele><time>2019-10-02T16:05:18Z</time><name>PT17777</name></trkpt>
<trkpt lat="54.595273" lon="-3.186513"><ele>170</ele><time>2019-10-02T16:05:20Z</time><name>PT17778</name></trkpt>
<trkpt lat="54.595282" lon="-3.186515"><ele>170</ele><time>2019-10-02T16:05:20Z</time><name>PT17779</name></trkpt>
<trkpt lat="54.595290" lon="-3.186518"><ele>170</ele><time>2019-10-02T16:05:22Z</time><name>PT17780</name></trkpt>
<trkpt lat="54.595295" lon="-3.186520"><ele>170</ele><time>2019-10-02T16:05:22Z</time><name>PT17781</name></trkpt>
<trkpt lat="54.595302" lon="-3.186522"><ele>170</ele><time>2019-10-02T16:05:24Z</time><name>PT17782</name></trkpt>
<trkpt lat="54.595310" lon="-3.186534"><ele>170</ele><time>2019-10-02T16:05:24Z</time><name>PT17783</name></trkpt>
<trkpt lat="54.595317" lon="-3.186539"><ele>170</ele><time>2019-10-02T16:05:26Z</time><name>PT17784</name></trkpt>
<trkpt lat="54.595320" lon="-3.186549"><ele>170</ele><time>2019-10-02T16:05:26Z</time><name>PT17785</name></trkpt>
<trkpt lat="54.595320" lon="-3.186566"><ele>169</ele><time>2019-10-02T16:05:28Z</time><name>PT17786</name></trkpt>
<trkpt lat="54.595327" lon="-3.186574"><ele>169</ele><time>2019-10-02T16:05:28Z</time><name>PT17787</name></trkpt>
<trkpt lat="54.595339" lon="-3.186578"><ele>169</ele><time>2019-10-02T16:05:30Z</time><name>PT17788</name></trkpt>
<trkpt lat="54.595350" lon="-3.186586"><ele>168</ele><time>2019-10-02T16:05:30Z</time><name>PT17789</name></trkpt>
<trkpt lat="54.595358" lon="-3.186594"><ele>168</ele><time>2019-10-02T16:05:32Z</time><name>PT17790</name></trkpt>
<trkpt lat="54.595362" lon="-3.186603"><ele>168</ele><time>2019-10-02T16:05:32Z</time><name>PT17791</name></trkpt>
<trkpt lat="54.595370" lon="-3.186611"><ele>168</ele><time>2019-10-02T16:05:34Z</time><name>PT17792</name></trkpt>
<trkpt lat="54.595382" lon="-3.186616"><ele>168</ele><time>2019-10-02T16:05:34Z</time><name>PT17793</name></trkpt>
<trkpt lat="54.595393" lon="-3.186621"><ele>167</ele><time>2019-10-02T16:05:36Z</time><name>PT17794</name></trkpt>
<trkpt lat="54.595404" lon="-3.186627"><ele>167</ele><time>2019-10-02T16:05:36Z</time><name>PT17795</name></trkpt>
<trkpt lat="54.595412" lon="-3.186631"><ele>167</ele><time>2019-10-02T16:05:38Z</time><name>PT17796</name></trkpt>
<trkpt lat="54.595424" lon="-3.186635"><ele>167</ele><time>2019-10-02T16:05:38Z</time><name>PT17797</name></trkpt>
<trkpt lat="54.595434" lon="-3.186639"><ele>168</ele><time>2019-10-02T16:05:40Z</time><name>PT17798</name></trkpt>
<trkpt lat="54.595445" lon="-3.186648"><ele>168</ele><time>2019-10-02T16:05:40Z</time><name>PT17799</name></trkpt>
<trkpt lat="54.595455" lon="-3.186654"><ele>168</ele><time>2019-10-02T16:05:42Z</time><name>PT17800</name></trkpt>
<trkpt lat="54.595465" lon="-3.186661"><ele>168</ele><time>2019-10-02T16:05:42Z</time><name>PT17801</name></trkpt>
<trkpt lat="54.595474" lon="-3.186664"><ele>168</ele><time>2019-10-02T16:05:44Z</time><name>PT17802</name></trkpt>
<trkpt lat="54.595483" lon="-3.186669"><ele>168</ele><time>2019-10-02T16:05:44Z</time><name>PT17803</name></trkpt>
<trkpt lat="54.595491" lon="-3.186675"><ele>168</ele><time>2019-10-02T16:05:46Z</time><name>PT17804</name></trkpt>
<trkpt lat="54.595500" lon="-3.186680"><ele>168</ele><time>2019-10-02T16:05:46Z</time><name>PT17805</name></trkpt>
<trkpt lat="54.595513" lon="-3.186688"><ele>167</ele><time>2019-10-02T16:05:48Z</time><name>PT17806</name></trkpt>
<trkpt lat="54.595525" lon="-3.186691"><ele>167</ele><time>2019-10-02T16:05:48Z</time><name>PT17807</name></trkpt>
<trkpt lat="54.595537" lon="-3.186697"><ele>167</ele><time>2019-10-02T16:05:50Z</time><name>PT17808</name></trkpt>
<trkpt lat="54.595547" lon="-3.186703"><ele>167</ele><time>2019-10-02T16:05:50Z</time><name>PT17809</name></trkpt>
<trkpt lat="54.595557" lon="-3.186707"><ele>167</ele><time>2019-10-02T16:05:52Z</time><name>PT17810</name></trkpt>
<trkpt lat="54.595565" lon="-3.186715"><ele>167</ele><time>2019-10-02T16:05:52Z</time><name>PT17811</name></trkpt>
<trkpt lat="54.595574" lon="-3.186724"><ele>167</ele><time>2019-10-02T16:05:54Z</time><name>PT17812</name></trkpt>
<trkpt lat="54.595581" lon="-3.186735"><ele>167</ele><time>2019-10-02T16:05:54Z</time><name>PT17813</name></trkpt>
<trkpt lat="54.595590" lon="-3.186739"><ele>167</ele><time>2019-10-02T16:05:56Z</time><name>PT17814</name></trkpt>
<trkpt lat="54.595601" lon="-3.186747"><ele>167</ele><time>2019-10-02T16:05:56Z</time><name>PT17815</name></trkpt>
<trkpt lat="54.595611" lon="-3.186756"><ele>167</ele><time>2019-10-02T16:05:58Z</time><name>PT17816</name></trkpt>
<trkpt lat="54.595620" lon="-3.186767"><ele>167</ele><time>2019-10-02T16:05:58Z</time><name>PT17817</name></trkpt>
<trkpt lat="54.595625" lon="-3.186777"><ele>167</ele><time>2019-10-02T16:06:00Z</time><name>PT17818</name></trkpt>
<trkpt lat="54.595633" lon="-3.186786"><ele>167</ele><time>2019-10-02T16:06:00Z</time><name>PT17819</name></trkpt>
<trkpt lat="54.595644" lon="-3.186794"><ele>167</ele><time>2019-10-02T16:06:02Z</time><name>PT17820</name></trkpt>
<trkpt lat="54.595655" lon="-3.186799"><ele>167</ele><time>2019-10-02T16:06:02Z</time><name>PT17821</name></trkpt>
<trkpt lat="54.595667" lon="-3.186801"><ele>167</ele><time>2019-10-02T16:06:04Z</time><name>PT17822</name></trkpt>
<trkpt lat="54.595679" lon="-3.186802"><ele>167</ele><time>2019-10-02T16:06:04Z</time><name>PT17823</name></trkpt>
<trkpt lat="54.595690" lon="-3.186807"><ele>167</ele><time>2019-10-02T16:06:06Z</time><name>PT17824</name></trkpt>
<trkpt lat="54.595702" lon="-3.186815"><ele>167</ele><time>2019-10-02T16:06:06Z</time><name>PT17825</name></trkpt>
<trkpt lat="54.595713" lon="-3.186823"><ele>167</ele><time>2019-10-02T16:06:08Z</time><name>PT17826</name></trkpt>
<trkpt lat="54.595723" lon="-3.186831"><ele>167</ele><time>2019-10-02T16:06:08Z</time><name>PT17827</name></trkpt>
<trkpt lat="54.595731" lon="-3.186836"><ele>167</ele><time>2019-10-02T16:06:10Z</time><name>PT17828</name></trkpt>
<trkpt lat="54.595742" lon="-3.186841"><ele>167</ele><time>2019-10-02T16:06:10Z</time><name>PT17829</name></trkpt>
<trkpt lat="54.595751" lon="-3.186844"><ele>167</ele><time>2019-10-02T16:06:12Z</time><name>PT17830</name></trkpt>
<trkpt lat="54.595760" lon="-3.186848"><ele>168</ele><time>2019-10-02T16:06:12Z</time><name>PT17831</name></trkpt>
<trkpt lat="54.595771" lon="-3.186856"><ele>167</ele><time>2019-10-02T16:06:14Z</time><name>PT17832</name></trkpt>
<trkpt lat="54.595782" lon="-3.186863"><ele>167</ele><time>2019-10-02T16:06:14Z</time><name>PT17833</name></trkpt>
<trkpt lat="54.595794" lon="-3.186869"><ele>167</ele><time>2019-10-02T16:06:16Z</time><name>PT17834</name></trkpt>
<trkpt lat="54.595806" lon="-3.186874"><ele>167</ele><time>2019-10-02T16:06:16Z</time><name>PT17835</name></trkpt>
<trkpt lat="54.595817" lon="-3.186884"><ele>167</ele><time>2019-10-02T16:06:18Z</time><name>PT17836</name></trkpt>
<trkpt lat="54.595828" lon="-3.186896"><ele>167</ele><time>2019-10-02T16:06:18Z</time><name>PT17837</name></trkpt>
<trkpt lat="54.595837" lon="-3.186904"><ele>167</ele><time>2019-10-02T16:06:20Z</time><name>PT17838</name></trkpt>
<trkpt lat="54.595849" lon="-3.186914"><ele>167</ele><time>2019-10-02T16:06:20Z</time><name>PT17839</name></trkpt>
<trkpt lat="54.595860" lon="-3.186919"><ele>167</ele><time>2019-10-02T16:06:22Z</time><name>PT17840</name></trkpt>
<trkpt lat="54.595869" lon="-3.186923"><ele>167</ele><time>2019-10-02T16:06:22Z</time><name>PT17841</name></trkpt>
<trkpt lat="54.595880" lon="-3.186931"><ele>166</ele><time>2019-10-02T16:06:24Z</time><name>PT17842</name></trkpt>
<trkpt lat="54.595892" lon="-3.186937"><ele>166</ele><time>2019-10-02T16:06:24Z</time><name>PT17843</name></trkpt>
<trkpt lat="54.595904" lon="-3.186946"><ele>165</ele><time>2019-10-02T16:06:26Z</time><name>PT17844</name></trkpt>
<trkpt lat="54.595912" lon="-3.186955"><ele>165</ele><time>2019-10-02T16:06:26Z</time><name>PT17845</name></trkpt>
<trkpt lat="54.595920" lon="-3.186965"><ele>165</ele><time>2019-10-02T16:06:28Z</time><name>PT17846</name></trkpt>
<trkpt lat="54.595930" lon="-3.186976"><ele>165</ele><time>2019-10-02T16:06:28Z</time><name>PT17847</name></trkpt>
<trkpt lat="54.595940" lon="-3.186981"><ele>165</ele><time>2019-10-02T16:06:30Z</time><name>PT17848</name></trkpt>
<trkpt lat="54.595954" lon="-3.186989"><ele>165</ele><time>2019-10-02T16:06:30Z</time><name>PT17849</name></trkpt>
<trkpt lat="54.595965" lon="-3.186998"><ele>165</ele><time>2019-10-02T16:06:32Z</time><name>PT17850</name></trkpt>
<trkpt lat="54.595976" lon="-3.187008"><ele>165</ele><time>2019-10-02T16:06:32Z</time><name>PT17851</name></trkpt>
<trkpt lat="54.595986" lon="-3.187019"><ele>165</ele><time>2019-10-02T16:06:34Z</time><name>PT17852</name></trkpt>
<trkpt lat="54.595998" lon="-3.187029"><ele>165</ele><time>2019-10-02T16:06:34Z</time><name>PT17853</name></trkpt>
<trkpt lat="54.596010" lon="-3.187038"><ele>165</ele><time>2019-10-02T16:06:36Z</time><name>PT17854</name></trkpt>
<trkpt lat="54.596022" lon="-3.187040"><ele>165</ele><time>2019-10-02T16:06:36Z</time><name>PT17855</name></trkpt>
<trkpt lat="54.596035" lon="-3.187048"><ele>164</ele><time>2019-10-02T16:06:38Z</time><name>PT17856</name></trkpt>
<trkpt lat="54.596046" lon="-3.187058"><ele>164</ele><time>2019-10-02T16:06:38Z</time><name>PT17857</name></trkpt>
<trkpt lat="54.596054" lon="-3.187061"><ele>164</ele><time>2019-10-02T16:06:40Z</time><name>PT17858</name></trkpt>
<trkpt lat="54.596061" lon="-3.187065"><ele>165</ele><time>2019-10-02T16:06:40Z</time><name>PT17859</name></trkpt>
<trkpt lat="54.596072" lon="-3.187073"><ele>164</ele><time>2019-10-02T16:06:42Z</time><name>PT17860</name></trkpt>
<trkpt lat="54.596080" lon="-3.187075"><ele>165</ele><time>2019-10-02T16:06:42Z</time><name>PT17861</name></trkpt>
<trkpt lat="54.596090" lon="-3.187081"><ele>165</ele><time>2019-10-02T16:06:44Z</time><name>PT17862</name></trkpt>
<trkpt lat="54.596104" lon="-3.187094"><ele>164</ele><time>2019-10-02T16:06:44Z</time><name>PT17863</name></trkpt>
<trkpt lat="54.596116" lon="-3.187103"><ele>164</ele><time>2019-10-02T16:06:46Z</time><name>PT17864</name></trkpt>
<trkpt lat="54.596125" lon="-3.187108"><ele>164</ele><time>2019-10-02T16:06:46Z</time><name>PT17865</name></trkpt>
<trkpt lat="54.596133" lon="-3.187117"><ele>164</ele><time>2019-10-02T16:06:48Z</time><name>PT17866</name></trkpt>
<trkpt lat="54.596145" lon="-3.187125"><ele>165</ele><time>2019-10-02T16:06:48Z</time><name>PT17867</name></trkpt>
<trkpt lat="54.596156" lon="-3.187129"><ele>164</ele><time>2019-10-02T16:06:50Z</time><name>PT17868</name></trkpt>
<trkpt lat="54.596167" lon="-3.187132"><ele>165</ele><time>2019-10-02T16:06:50Z</time><name>PT17869</name></trkpt>
<trkpt lat="54.596179" lon="-3.187139"><ele>164</ele><time>2019-10-02T16:06:52Z</time><name>PT17870</name></trkpt>
<trkpt lat="54.596188" lon="-3.187150"><ele>164</ele><time>2019-10-02T16:06:52Z</time><name>PT17871</name></trkpt>
<trkpt lat="54.596198" lon="-3.187161"><ele>164</ele><time>2019-10-02T16:06:54Z</time><name>PT17872</name></trkpt>
<trkpt lat="54.596211" lon="-3.187171"><ele>165</ele><time>2019-10-02T16:06:54Z</time><name>PT17873</name></trkpt>
<trkpt lat="54.596222" lon="-3.187178"><ele>164</ele><time>2019-10-02T16:06:56Z</time><name>PT17874</name></trkpt>
<trkpt lat="54.596234" lon="-3.187183"><ele>165</ele><time>2019-10-02T16:06:56Z</time><name>PT17875</name></trkpt>
<trkpt lat="54.596248" lon="-3.187188"><ele>164</ele><time>2019-10-02T16:06:58Z</time><name>PT17876</name></trkpt>
<trkpt lat="54.596260" lon="-3.187196"><ele>164</ele><time>2019-10-02T16:06:58Z</time><name>PT17877</name></trkpt>
<trkpt lat="54.596270" lon="-3.187205"><ele>164</ele><time>2019-10-02T16:07:00Z</time><name>PT17878</name></trkpt>
<trkpt lat="54.596280" lon="-3.187214"><ele>164</ele><time>2019-10-02T16:07:00Z</time><name>PT17879</name></trkpt>
<trkpt lat="54.596292" lon="-3.187221"><ele>165</ele><time>2019-10-02T16:07:02Z</time><name>PT17880</name></trkpt>
<trkpt lat="54.596304" lon="-3.187228"><ele>165</ele><time>2019-10-02T16:07:02Z</time><name>PT17881</name></trkpt>
<trkpt lat="54.596315" lon="-3.187231"><ele>166</ele><time>2019-10-02T16:07:04Z</time><name>PT17882</name></trkpt>
<trkpt lat="54.596327" lon="-3.187240"><ele>166</ele><time>2019-10-02T16:07:04Z</time><name>PT17883</name></trkpt>
<trkpt lat="54.596338" lon="-3.187251"><ele>166</ele><time>2019-10-02T16:07:06Z</time><name>PT17884</name></trkpt>
<trkpt lat="54.596348" lon="-3.187261"><ele>166</ele><time>2019-10-02T16:07:07Z</time><name>PT17885</name></trkpt>
<trkpt lat="54.596361" lon="-3.187268"><ele>166</ele><time>2019-10-02T16:07:08Z</time><name>PT17886</name></trkpt>
<trkpt lat="54.596372" lon="-3.187273"><ele>166</ele><time>2019-10-02T16:07:08Z</time><name>PT17887</name></trkpt>
<trkpt lat="54.596385" lon="-3.187279"><ele>165</ele><time>2019-10-02T16:07:10Z</time><name>PT17888</name></trkpt>
<trkpt lat="54.596398" lon="-3.187290"><ele>165</ele><time>2019-10-02T16:07:10Z</time><name>PT17889</name></trkpt>
<trkpt lat="54.596411" lon="-3.187301"><ele>165</ele><time>2019-10-02T16:07:12Z</time><name>PT17890</name></trkpt>
<trkpt lat="54.596420" lon="-3.187308"><ele>165</ele><time>2019-10-02T16:07:12Z</time><name>PT17891</name></trkpt>
<trkpt lat="54.596431" lon="-3.187320"><ele>165</ele><time>2019-10-02T16:07:14Z</time><name>PT17892</name></trkpt>
<trkpt lat="54.596443" lon="-3.187331"><ele>164</ele><time>2019-10-02T16:07:14Z</time><name>PT17893</name></trkpt>
<trkpt lat="54.596456" lon="-3.187339"><ele>164</ele><time>2019-10-02T16:07:16Z</time><name>PT17894</name></trkpt>
<trkpt lat="54.596468" lon="-3.187348"><ele>164</ele><time>2019-10-02T16:07:16Z</time><name>PT17895</name></trkpt>
<trkpt lat="54.596477" lon="-3.187359"><ele>164</ele><time>2019-10-02T16:07:18Z</time><name>PT17896</name></trkpt>
<trkpt lat="54.596486" lon="-3.187358"><ele>165</ele><time>2019-10-02T16:07:18Z</time><name>PT17897</name></trkpt>
<trkpt lat="54.596497" lon="-3.187363"><ele>165</ele><time>2019-10-02T16:07:20Z</time><name>PT17898</name></trkpt>
<trkpt lat="54.596508" lon="-3.187376"><ele>164</ele><time>2019-10-02T16:07:20Z</time><name>PT17899</name></trkpt>
<trkpt lat="54.596518" lon="-3.187385"><ele>164</ele><time>2019-10-02T16:07:22Z</time><name>PT17900</name></trkpt>
<trkpt lat="54.596531" lon="-3.187400"><ele>164</ele><time>2019-10-02T16:07:22Z</time><name>PT17901</name></trkpt>
<trkpt lat="54.596544" lon="-3.187410"><ele>164</ele><time>2019-10-02T16:07:24Z</time><name>PT17902</name></trkpt>
<trkpt lat="54.596555" lon="-3.187421"><ele>163</ele><time>2019-10-02T16:07:24Z</time><name>PT17903</name></trkpt>
<trkpt lat="54.596563" lon="-3.187430"><ele>163</ele><time>2019-10-02T16:07:26Z</time><name>PT17904</name></trkpt>
<trkpt lat="54.596576" lon="-3.187445"><ele>164</ele><time>2019-10-02T16:07:26Z</time><name>PT17905</name></trkpt>
<trkpt lat="54.596585" lon="-3.187460"><ele>164</ele><time>2019-10-02T16:07:28Z</time><name>PT17906</name></trkpt>
<trkpt lat="54.596594" lon="-3.187478"><ele>163</ele><time>2019-10-02T16:07:28Z</time><name>PT17907</name></trkpt>
<trkpt lat="54.596606" lon="-3.187492"><ele>163</ele><time>2019-10-02T16:07:30Z</time><name>PT17908</name></trkpt>
<trkpt lat="54.596617" lon="-3.187502"><ele>163</ele><time>2019-10-02T16:07:30Z</time><name>PT17909</name></trkpt>
<trkpt lat="54.596626" lon="-3.187513"><ele>162</ele><time>2019-10-02T16:07:32Z</time><name>PT17910</name></trkpt>
<trkpt lat="54.596635" lon="-3.187529"><ele>162</ele><time>2019-10-02T16:07:32Z</time><name>PT17911</name></trkpt>
<trkpt lat="54.596646" lon="-3.187539"><ele>162</ele><time>2019-10-02T16:07:34Z</time><name>PT17912</name></trkpt>
<trkpt lat="54.596657" lon="-3.187552"><ele>162</ele><time>2019-10-02T16:07:34Z</time><name>PT17913</name></trkpt>
<trkpt lat="54.596669" lon="-3.187563"><ele>162</ele><time>2019-10-02T16:07:36Z</time><name>PT17914</name></trkpt>
<trkpt lat="54.596681" lon="-3.187575"><ele>161</ele><time>2019-10-02T16:07:36Z</time><name>PT17915</name></trkpt>
<trkpt lat="54.596693" lon="-3.187584"><ele>161</ele><time>2019-10-02T16:07:38Z</time><name>PT17916</name></trkpt>
<trkpt lat="54.596706" lon="-3.187595"><ele>160</ele><time>2019-10-02T16:07:38Z</time><name>PT17917</name></trkpt>
<trkpt lat="54.596720" lon="-3.187606"><ele>160</ele><time>2019-10-02T16:07:40Z</time><name>PT17918</name></trkpt>
<trkpt lat="54.596734" lon="-3.187614"><ele>160</ele><time>2019-10-02T16:07:40Z</time><name>PT17919</name></trkpt>
<trkpt lat="54.596747" lon="-3.187625"><ele>160</ele><time>2019-10-02T16:07:42Z</time><name>PT17920</name></trkpt>
<trkpt lat="54.596759" lon="-3.187634"><ele>160</ele><time>2019-10-02T16:07:42Z</time><name>PT17921</name></trkpt>
<trkpt lat="54.596772" lon="-3.187648"><ele>159</ele><time>2019-10-02T16:07:44Z</time><name>PT17922</name></trkpt>
<trkpt lat="54.596781" lon="-3.187658"><ele>159</ele><time>2019-10-02T16:07:44Z</time><name>PT17923</name></trkpt>
<trkpt lat="54.596793" lon="-3.187675"><ele>158</ele><time>2019-10-02T16:07:46Z</time><name>PT17924</name></trkpt>
<trkpt lat="54.596808" lon="-3.187691"><ele>157</ele><time>2019-10-02T16:07:46Z</time><name>PT17925</name></trkpt>
<trkpt lat="54.596819" lon="-3.187701"><ele>157</ele><time>2019-10-02T16:07:48Z</time><name>PT17926</name></trkpt>
<trkpt lat="54.596828" lon="-3.187715"><ele>156</ele><time>2019-10-02T16:07:48Z</time><name>PT17927</name></trkpt>
<trkpt lat="54.596838" lon="-3.187727"><ele>156</ele><time>2019-10-02T16:07:50Z</time><name>PT17928</name></trkpt>
<trkpt lat="54.596852" lon="-3.187741"><ele>155</ele><time>2019-10-02T16:07:50Z</time><name>PT17929</name></trkpt>
<trkpt lat="54.596865" lon="-3.187747"><ele>155</ele><time>2019-10-02T16:07:52Z</time><name>PT17930</name></trkpt>
<trkpt lat="54.596877" lon="-3.187754"><ele>155</ele><time>2019-10-02T16:07:52Z</time><name>PT17931</name></trkpt>
<trkpt lat="54.596890" lon="-3.187765"><ele>155</ele><time>2019-10-02T16:07:54Z</time><name>PT17932</name></trkpt>
<trkpt lat="54.596901" lon="-3.187778"><ele>155</ele><time>2019-10-02T16:07:54Z</time><name>PT17933</name></trkpt>
<trkpt lat="54.596912" lon="-3.187792"><ele>155</ele><time>2019-10-02T16:07:56Z</time><name>PT17934</name></trkpt>
<trkpt lat="54.596922" lon="-3.187813"><ele>154</ele><time>2019-10-02T16:07:56Z</time><name>PT17935</name></trkpt>
<trkpt lat="54.596933" lon="-3.187835"><ele>154</ele><time>2019-10-02T16:07:58Z</time><name>PT17936</name></trkpt>
<trkpt lat="54.596942" lon="-3.187852"><ele>154</ele><time>2019-10-02T16:07:58Z</time><name>PT17937</name></trkpt>
<trkpt lat="54.596953" lon="-3.187869"><ele>154</ele><time>2019-10-02T16:08:00Z</time><name>PT17938</name></trkpt>
<trkpt lat="54.596964" lon="-3.187890"><ele>154</ele><time>2019-10-02T16:08:00Z</time><name>PT17939</name></trkpt>
<trkpt lat="54.596974" lon="-3.187907"><ele>154</ele><time>2019-10-02T16:08:02Z</time><name>PT17940</name></trkpt>
<trkpt lat="54.596984" lon="-3.187921"><ele>154</ele><time>2019-10-02T16:08:02Z</time><name>PT17941</name></trkpt>
<trkpt lat="54.596993" lon="-3.187935"><ele>154</ele><time>2019-10-02T16:08:04Z</time><name>PT17942</name></trkpt>
<trkpt lat="54.597001" lon="-3.187953"><ele>153</ele><time>2019-10-02T16:08:04Z</time><name>PT17943</name></trkpt>
<trkpt lat="54.597008" lon="-3.187967"><ele>153</ele><time>2019-10-02T16:08:06Z</time><name>PT17944</name></trkpt>
<trkpt lat="54.597016" lon="-3.187974"><ele>153</ele><time>2019-10-02T16:08:06Z</time><name>PT17945</name></trkpt>
<trkpt lat="54.597024" lon="-3.187984"><ele>153</ele><time>2019-10-02T16:08:08Z</time><name>PT17946</name></trkpt>
<trkpt lat="54.597033" lon="-3.187996"><ele>152</ele><time>2019-10-02T16:08:08Z</time><name>PT17947</name></trkpt>
<trkpt lat="54.597043" lon="-3.188012"><ele>151</ele><time>2019-10-02T16:08:10Z</time><name>PT17948</name></trkpt>
<trkpt lat="54.597053" lon="-3.188022"><ele>151</ele><time>2019-10-02T16:08:10Z</time><name>PT17949</name></trkpt>
<trkpt lat="54.597063" lon="-3.188028"><ele>151</ele><time>2019-10-02T16:08:12Z</time><name>PT17950</name></trkpt>
<trkpt lat="54.597072" lon="-3.188039"><ele>151</ele><time>2019-10-02T16:08:12Z</time><name>PT17951</name></trkpt>
<trkpt lat="54.597081" lon="-3.188056"><ele>150</ele><time>2019-10-02T16:08:14Z</time><name>PT17952</name></trkpt>
<trkpt lat="54.597090" lon="-3.188070"><ele>150</ele><time>2019-10-02T16:08:14Z</time><name>PT17953</name></trkpt>
<trkpt lat="54.597100" lon="-3.188080"><ele>150</ele><time>2019-10-02T16:08:16Z</time><name>PT17954</name></trkpt>
<trkpt lat="54.597108" lon="-3.188084"><ele>150</ele><time>2019-10-02T16:08:16Z</time><name>PT17955</name></trkpt>
<trkpt lat="54.597117" lon="-3.188093"><ele>150</ele><time>2019-10-02T16:08:18Z</time><name>PT17956</name></trkpt>
<trkpt lat="54.597127" lon="-3.188100"><ele>150</ele><time>2019-10-02T16:08:18Z</time><name>PT17957</name></trkpt>
<trkpt lat="54.597137" lon="-3.188111"><ele>149</ele><time>2019-10-02T16:08:20Z</time><name>PT17958</name></trkpt>
<trkpt lat="54.597147" lon="-3.188124"><ele>149</ele><time>2019-10-02T16:08:20Z</time><name>PT17959</name></trkpt>
<trkpt lat="54.597151" lon="-3.188143"><ele>148</ele><time>2019-10-02T16:08:22Z</time><name>PT17960</name></trkpt>
<trkpt lat="54.597153" lon="-3.188152"><ele>148</ele><time>2019-10-02T16:08:22Z</time><name>PT17961</name></trkpt>
<trkpt lat="54.597153" lon="-3.188160"><ele>148</ele><time>2019-10-02T16:08:24Z</time><name>PT17962</name></trkpt>
<trkpt lat="54.597157" lon="-3.188170"><ele>148</ele><time>2019-10-02T16:08:24Z</time><name>PT17963</name></trkpt>
<trkpt lat="54.597164" lon="-3.188183"><ele>148</ele><time>2019-10-02T16:08:26Z</time><name>PT17964</name></trkpt>
<trkpt lat="54.597168" lon="-3.188197"><ele>148</ele><time>2019-10-02T16:08:26Z</time><name>PT17965</name></trkpt>
<trkpt lat="54.597171" lon="-3.188209"><ele>148</ele><time>2019-10-02T16:08:28Z</time><name>PT17966</name></trkpt>
<trkpt lat="54.597175" lon="-3.188224"><ele>148</ele><time>2019-10-02T16:08:28Z</time><name>PT17967</name></trkpt>
<trkpt lat="54.597178" lon="-3.188241"><ele>148</ele><time>2019-10-02T16:08:30Z</time><name>PT17968</name></trkpt>
<trkpt lat="54.597181" lon="-3.188257"><ele>148</ele><time>2019-10-02T16:08:30Z</time><name>PT17969</name></trkpt>
<trkpt lat="54.597185" lon="-3.188274"><ele>148</ele><time>2019-10-02T16:08:32Z</time><name>PT17970</name></trkpt>
<trkpt lat="54.597186" lon="-3.188289"><ele>148</ele><time>2019-10-02T16:08:32Z</time><name>PT17971</name></trkpt>
<trkpt lat="54.597184" lon="-3.188300"><ele>147</ele><time>2019-10-02T16:08:34Z</time><name>PT17972</name></trkpt>
<trkpt lat="54.597185" lon="-3.188313"><ele>147</ele><time>2019-10-02T16:08:34Z</time><name>PT17973</name></trkpt>
<trkpt lat="54.597185" lon="-3.188330"><ele>147</ele><time>2019-10-02T16:08:36Z</time><name>PT17974</name></trkpt>
<trkpt lat="54.597186" lon="-3.188345"><ele>147</ele><time>2019-10-02T16:08:36Z</time><name>PT17975</name></trkpt>
<trkpt lat="54.597188" lon="-3.188355"><ele>147</ele><time>2019-10-02T16:08:38Z</time><name>PT17976</name></trkpt>
<trkpt lat="54.597192" lon="-3.188364"><ele>147</ele><time>2019-10-02T16:08:38Z</time><name>PT17977</name></trkpt>
<trkpt lat="54.597197" lon="-3.188378"><ele>147</ele><time>2019-10-02T16:08:40Z</time><name>PT17978</name></trkpt>
<trkpt lat="54.597199" lon="-3.188395"><ele>147</ele><time>2019-10-02T16:08:40Z</time><name>PT17979</name></trkpt>
<trkpt lat="54.597200" lon="-3.188410"><ele>146</ele><time>2019-10-02T16:08:42Z</time><name>PT17980</name></trkpt>
<trkpt lat="54.597202" lon="-3.188424"><ele>146</ele><time>2019-10-02T16:08:42Z</time><name>PT17981</name></trkpt>
<trkpt lat="54.597206" lon="-3.188439"><ele>146</ele><time>2019-10-02T16:08:44Z</time><name>PT17982</name></trkpt>
<trkpt lat="54.597210" lon="-3.188449"><ele>146</ele><time>2019-10-02T16:08:44Z</time><name>PT17983</name></trkpt>
<trkpt lat="54.597217" lon="-3.188456"><ele>146</ele><time>2019-10-02T16:08:46Z</time><name>PT17984</name></trkpt>
<trkpt lat="54.597222" lon="-3.188466"><ele>145</ele><time>2019-10-02T16:08:46Z</time><name>PT17985</name></trkpt>
<trkpt lat="54.597227" lon="-3.188481"><ele>145</ele><time>2019-10-02T16:08:48Z</time><name>PT17986</name></trkpt>
<trkpt lat="54.597230" lon="-3.188496"><ele>145</ele><time>2019-10-02T16:08:48Z</time><name>PT17987</name></trkpt>
<trkpt lat="54.597231" lon="-3.188508"><ele>145</ele><time>2019-10-02T16:08:50Z</time><name>PT17988</name></trkpt>
<trkpt lat="54.597234" lon="-3.188517"><ele>145</ele><time>2019-10-02T16:08:50Z</time><name>PT17989</name></trkpt>
<trkpt lat="54.597240" lon="-3.188531"><ele>144</ele><time>2019-10-02T16:08:52Z</time><name>PT17990</name></trkpt>
<trkpt lat="54.597247" lon="-3.188543"><ele>144</ele><time>2019-10-02T16:08:52Z</time><name>PT17991</name></trkpt>
<trkpt lat="54.597252" lon="-3.188558"><ele>144</ele><time>2019-10-02T16:08:54Z</time><name>PT17992</name></trkpt>
<trkpt lat="54.597254" lon="-3.188571"><ele>144</ele><time>2019-10-02T16:08:54Z</time><name>PT17993</name></trkpt>
<trkpt lat="54.597257" lon="-3.188584"><ele>143</ele><time>2019-10-02T16:08:56Z</time><name>PT17994</name></trkpt>
<trkpt lat="54.597263" lon="-3.188601"><ele>143</ele><time>2019-10-02T16:08:56Z</time><name>PT17995</name></trkpt>
<trkpt lat="54.597269" lon="-3.188622"><ele>142</ele><time>2019-10-02T16:08:58Z</time><name>PT17996</name></trkpt>
<trkpt lat="54.597273" lon="-3.188641"><ele>142</ele><time>2019-10-02T16:08:58Z</time><name>PT17997</name></trkpt>
<trkpt lat="54.597273" lon="-3.188660"><ele>142</ele><time>2019-10-02T16:09:00Z</time><name>PT17998</name></trkpt>
<trkpt lat="54.597271" lon="-3.188678"><ele>142</ele><time>2019-10-02T16:09:00Z</time><name>PT17999</name></trkpt>
<trkpt lat="54.597272" lon="-3.188694"><ele>141</ele><time>2019-10-02T16:09:02Z</time><name>PT18000</name></trkpt>
<trkpt lat="54.597269" lon="-3.188711"><ele>141</ele><time>2019-10-02T16:09:02Z</time><name>PT18001</name></trkpt>
<trkpt lat="54.597266" lon="-3.188724"><ele>141</ele><time>2019-10-02T16:09:04Z</time><name>PT18002</name></trkpt>
<trkpt lat="54.597265" lon="-3.188739"><ele>141</ele><time>2019-10-02T16:09:04Z</time><name>PT18003</name></trkpt>
<trkpt lat="54.597265" lon="-3.188754"><ele>141</ele><time>2019-10-02T16:09:06Z</time><name>PT18004</name></trkpt>
<trkpt lat="54.597265" lon="-3.188762"><ele>141</ele><time>2019-10-02T16:09:06Z</time><name>PT18005</name></trkpt>
<trkpt lat="54.597262" lon="-3.188769"><ele>140</ele><time>2019-10-02T16:09:08Z</time><name>PT18006</name></trkpt>
<trkpt lat="54.597259" lon="-3.188769"><ele>140</ele><time>2019-10-02T16:09:08Z</time><name>PT18007</name></trkpt>
<trkpt lat="54.597258" lon="-3.188770"><ele>140</ele><time>2019-10-02T16:09:10Z</time><name>PT18008</name></trkpt>
<trkpt lat="54.597262" lon="-3.188773"><ele>140</ele><time>2019-10-02T16:09:10Z</time><name>PT18009</name></trkpt>
<trkpt lat="54.597264" lon="-3.188783"><ele>140</ele><time>2019-10-02T16:09:12Z</time><name>PT18010</name></trkpt>
<trkpt lat="54.597268" lon="-3.188786"><ele>140</ele><time>2019-10-02T16:09:12Z</time><name>PT18011</name></trkpt>
<trkpt lat="54.597270" lon="-3.188784"><ele>140</ele><time>2019-10-02T16:09:14Z</time><name>PT18012</name></trkpt>
<trkpt lat="54.597280" lon="-3.188785"><ele>140</ele><time>2019-10-02T16:09:14Z</time><name>PT18013</name></trkpt>
<trkpt lat="54.597290" lon="-3.188787"><ele>140</ele><time>2019-10-02T16:09:16Z</time><name>PT18014</name></trkpt>
<trkpt lat="54.597302" lon="-3.188789"><ele>140</ele><time>2019-10-02T16:09:16Z</time><name>PT18015</name></trkpt>
<trkpt lat="54.597312" lon="-3.188789"><ele>140</ele><time>2019-10-02T16:09:18Z</time><name>PT18016</name></trkpt>
<trkpt lat="54.597322" lon="-3.188792"><ele>140</ele><time>2019-10-02T16:09:18Z</time><name>PT18017</name></trkpt>
<trkpt lat="54.597333" lon="-3.188797"><ele>140</ele><time>2019-10-02T16:09:20Z</time><name>PT18018</name></trkpt>
<trkpt lat="54.597344" lon="-3.188793"><ele>140</ele><time>2019-10-02T16:09:20Z</time><name>PT18019</name></trkpt>
<trkpt lat="54.597356" lon="-3.188790"><ele>140</ele><time>2019-10-02T16:09:22Z</time><name>PT18020</name></trkpt>
<trkpt lat="54.597367" lon="-3.188786"><ele>139</ele><time>2019-10-02T16:09:22Z</time><name>PT18021</name></trkpt>
<trkpt lat="54.597376" lon="-3.188784"><ele>139</ele><time>2019-10-02T16:09:24Z</time><name>PT18022</name></trkpt>
<trkpt lat="54.597387" lon="-3.188786"><ele>138</ele><time>2019-10-02T16:09:24Z</time><name>PT18023</name></trkpt>
<trkpt lat="54.597397" lon="-3.188787"><ele>138</ele><time>2019-10-02T16:09:26Z</time><name>PT18024</name></trkpt>
<trkpt lat="54.597406" lon="-3.188786"><ele>138</ele><time>2019-10-02T16:09:26Z</time><name>PT18025</name></trkpt>
<trkpt lat="54.597417" lon="-3.188780"><ele>138</ele><time>2019-10-02T16:09:28Z</time><name>PT18026</name></trkpt>
<trkpt lat="54.597427" lon="-3.188777"><ele>138</ele><time>2019-10-02T16:09:28Z</time><name>PT18027</name></trkpt>
<trkpt lat="54.597438" lon="-3.188776"><ele>137</ele><time>2019-10-02T16:09:30Z</time><name>PT18028</name></trkpt>
<trkpt lat="54.597447" lon="-3.188783"><ele>137</ele><time>2019-10-02T16:09:30Z</time><name>PT18029</name></trkpt>
<trkpt lat="54.597458" lon="-3.188788"><ele>137</ele><time>2019-10-02T16:09:32Z</time><name>PT18030</name></trkpt>
<trkpt lat="54.597468" lon="-3.188793"><ele>137</ele><time>2019-10-02T16:09:32Z</time><name>PT18031</name></trkpt>
<trkpt lat="54.597483" lon="-3.188800"><ele>136</ele><time>2019-10-02T16:09:34Z</time><name>PT18032</name></trkpt>
<trkpt lat="54.597494" lon="-3.188800"><ele>136</ele><time>2019-10-02T16:09:34Z</time><name>PT18033</name></trkpt>
<trkpt lat="54.597505" lon="-3.188802"><ele>136</ele><time>2019-10-02T16:09:36Z</time><name>PT18034</name></trkpt>
<trkpt lat="54.597514" lon="-3.188805"><ele>135</ele><time>2019-10-02T16:09:36Z</time><name>PT18035</name></trkpt>
<trkpt lat="54.597526" lon="-3.188805"><ele>135</ele><time>2019-10-02T16:09:38Z</time><name>PT18036</name></trkpt>
<trkpt lat="54.597535" lon="-3.188805"><ele>135</ele><time>2019-10-02T16:09:38Z</time><name>PT18037</name></trkpt>
<trkpt lat="54.597543" lon="-3.188804"><ele>135</ele><time>2019-10-02T16:09:40Z</time><name>PT18038</name></trkpt>
<trkpt lat="54.597553" lon="-3.188808"><ele>135</ele><time>2019-10-02T16:09:40Z</time><name>PT18039</name></trkpt>
<trkpt lat="54.597564" lon="-3.188812"><ele>134</ele><time>2019-10-02T16:09:42Z</time><name>PT18040</name></trkpt>
<trkpt lat="54.597574" lon="-3.188816"><ele>134</ele><time>2019-10-02T16:09:43Z</time><name>PT18041</name></trkpt>
<trkpt lat="54.597586" lon="-3.188811"><ele>135</ele><time>2019-10-02T16:09:44Z</time><name>PT18042</name></trkpt>
<trkpt lat="54.597598" lon="-3.188812"><ele>134</ele><time>2019-10-02T16:09:44Z</time><name>PT18043</name></trkpt>
<trkpt lat="54.597612" lon="-3.188813"><ele>134</ele><time>2019-10-02T16:09:46Z</time><name>PT18044</name></trkpt>
<trkpt lat="54.597625" lon="-3.188815"><ele>134</ele><time>2019-10-02T16:09:46Z</time><name>PT18045</name></trkpt>
<trkpt lat="54.597637" lon="-3.188815"><ele>134</ele><time>2019-10-02T16:09:48Z</time><name>PT18046</name></trkpt>
<trkpt lat="54.597649" lon="-3.188822"><ele>134</ele><time>2019-10-02T16:09:49Z</time><name>PT18047</name></trkpt>
<trkpt lat="54.597661" lon="-3.188831"><ele>133</ele><time>2019-10-02T16:09:50Z</time><name>PT18048</name></trkpt>
<trkpt lat="54.597674" lon="-3.188841"><ele>133</ele><time>2019-10-02T16:09:50Z</time><name>PT18049</name></trkpt>
<trkpt lat="54.597686" lon="-3.188848"><ele>133</ele><time>2019-10-02T16:09:52Z</time><name>PT18050</name></trkpt>
<trkpt lat="54.597699" lon="-3.188852"><ele>132</ele><time>2019-10-02T16:09:52Z</time><name>PT18051</name></trkpt>
<trkpt lat="54.597715" lon="-3.188852"><ele>132</ele><time>2019-10-02T16:09:54Z</time><name>PT18052</name></trkpt>
<trkpt lat="54.597727" lon="-3.188853"><ele>131</ele><time>2019-10-02T16:09:54Z</time><name>PT18053</name></trkpt>
<trkpt lat="54.597739" lon="-3.188851"><ele>131</ele><time>2019-10-02T16:09:56Z</time><name>PT18054</name></trkpt>
<trkpt lat="54.597750" lon="-3.188855"><ele>131</ele><time>2019-10-02T16:09:56Z</time><name>PT18055</name></trkpt>
<trkpt lat="54.597762" lon="-3.188863"><ele>131</ele><time>2019-10-02T16:09:58Z</time><name>PT18056</name></trkpt>
<trkpt lat="54.597774" lon="-3.188873"><ele>131</ele><time>2019-10-02T16:09:58Z</time><name>PT18057</name></trkpt>
<trkpt lat="54.597786" lon="-3.188876"><ele>131</ele><time>2019-10-02T16:10:00Z</time><name>PT18058</name></trkpt>
<trkpt lat="54.597798" lon="-3.188874"><ele>131</ele><time>2019-10-02T16:10:00Z</time><name>PT18059</name></trkpt>
<trkpt lat="54.597810" lon="-3.188875"><ele>131</ele><time>2019-10-02T16:10:02Z</time><name>PT18060</name></trkpt>
<trkpt lat="54.597822" lon="-3.188878"><ele>131</ele><time>2019-10-02T16:10:02Z</time><name>PT18061</name></trkpt>
<trkpt lat="54.597831" lon="-3.188881"><ele>131</ele><time>2019-10-02T16:10:04Z</time><name>PT18062</name></trkpt>
<trkpt lat="54.597840" lon="-3.188888"><ele>131</ele><time>2019-10-02T16:10:04Z</time><name>PT18063</name></trkpt>
<trkpt lat="54.597849" lon="-3.188888"><ele>131</ele><time>2019-10-02T16:10:06Z</time><name>PT18064</name></trkpt>
<trkpt lat="54.597860" lon="-3.188883"><ele>130</ele><time>2019-10-02T16:10:06Z</time><name>PT18065</name></trkpt>
<trkpt lat="54.597867" lon="-3.188893"><ele>129</ele><time>2019-10-02T16:10:08Z</time><name>PT18066</name></trkpt>
<trkpt lat="54.597871" lon="-3.188905"><ele>129</ele><time>2019-10-02T16:10:08Z</time><name>PT18067</name></trkpt>
<trkpt lat="54.597867" lon="-3.188908"><ele>129</ele><time>2019-10-02T16:10:10Z</time><name>PT18068</name></trkpt>
<trkpt lat="54.597867" lon="-3.188914"><ele>129</ele><time>2019-10-02T16:10:10Z</time><name>PT18069</name></trkpt>
<trkpt lat="54.597875" lon="-3.188911"><ele>129</ele><time>2019-10-02T16:10:12Z</time><name>PT18070</name></trkpt>
<trkpt lat="54.597888" lon="-3.188908"><ele>129</ele><time>2019-10-02T16:10:12Z</time><name>PT18071</name></trkpt>
<trkpt lat="54.597900" lon="-3.188912"><ele>129</ele><time>2019-10-02T16:10:14Z</time><name>PT18072</name></trkpt>
<trkpt lat="54.597911" lon="-3.188915"><ele>129</ele><time>2019-10-02T16:10:14Z</time><name>PT18073</name></trkpt>
<trkpt lat="54.597923" lon="-3.188920"><ele>129</ele><time>2019-10-02T16:10:16Z</time><name>PT18074</name></trkpt>
<trkpt lat="54.597937" lon="-3.188924"><ele>129</ele><time>2019-10-02T16:10:16Z</time><name>PT18075</name></trkpt>
<trkpt lat="54.597952" lon="-3.188929"><ele>129</ele><time>2019-10-02T16:10:18Z</time><name>PT18076</name></trkpt>
<trkpt lat="54.597965" lon="-3.188937"><ele>129</ele><time>2019-10-02T16:10:18Z</time><name>PT18077</name></trkpt>
<trkpt lat="54.597978" lon="-3.188942"><ele>129</ele><time>2019-10-02T16:10:20Z</time><name>PT18078</name></trkpt>
<trkpt lat="54.597996" lon="-3.188949"><ele>129</ele><time>2019-10-02T16:10:20Z</time><name>PT18079</name></trkpt>
<trkpt lat="54.598012" lon="-3.188956"><ele>130</ele><time>2019-10-02T16:10:22Z</time><name>PT18080</name></trkpt>
<trkpt lat="54.598026" lon="-3.188963"><ele>129</ele><time>2019-10-02T16:10:22Z</time><name>PT18081</name></trkpt>
<trkpt lat="54.598037" lon="-3.188968"><ele>129</ele><time>2019-10-02T16:10:24Z</time><name>PT18082</name></trkpt>
<trkpt lat="54.598048" lon="-3.188971"><ele>130</ele><time>2019-10-02T16:10:24Z</time><name>PT18083</name></trkpt>
<trkpt lat="54.598060" lon="-3.188980"><ele>129</ele><time>2019-10-02T16:10:26Z</time><name>PT18084</name></trkpt>
<trkpt lat="54.598071" lon="-3.188989"><ele>130</ele><time>2019-10-02T16:10:26Z</time><name>PT18085</name></trkpt>
<trkpt lat="54.598082" lon="-3.188998"><ele>130</ele><time>2019-10-02T16:10:28Z</time><name>PT18086</name></trkpt>
<trkpt lat="54.598094" lon="-3.189002"><ele>130</ele><time>2019-10-02T16:10:28Z</time><name>PT18087</name></trkpt>
<trkpt lat="54.598105" lon="-3.189009"><ele>130</ele><time>2019-10-02T16:10:30Z</time><name>PT18088</name></trkpt>
<trkpt lat="54.598119" lon="-3.189013"><ele>129</ele><time>2019-10-02T16:10:30Z</time><name>PT18089</name></trkpt>
<trkpt lat="54.598131" lon="-3.189011"><ele>129</ele><time>2019-10-02T16:10:32Z</time><name>PT18090</name></trkpt>
<trkpt lat="54.598142" lon="-3.189014"><ele>129</ele><time>2019-10-02T16:10:32Z</time><name>PT18091</name></trkpt>
<trkpt lat="54.598153" lon="-3.189019"><ele>129</ele><time>2019-10-02T16:10:34Z</time><name>PT18092</name></trkpt>
<trkpt lat="54.598165" lon="-3.189022"><ele>129</ele><time>2019-10-02T16:10:34Z</time><name>PT18093</name></trkpt>
<trkpt lat="54.598175" lon="-3.189020"><ele>129</ele><time>2019-10-02T16:10:36Z</time><name>PT18094</name></trkpt>
<trkpt lat="54.598187" lon="-3.189014"><ele>129</ele><time>2019-10-02T16:10:36Z</time><name>PT18095</name></trkpt>
<trkpt lat="54.598199" lon="-3.189004"><ele>128</ele><time>2019-10-02T16:10:38Z</time><name>PT18096</name></trkpt>
<trkpt lat="54.598212" lon="-3.188992"><ele>128</ele><time>2019-10-02T16:10:38Z</time><name>PT18097</name></trkpt>
<trkpt lat="54.598223" lon="-3.188982"><ele>127</ele><time>2019-10-02T16:10:40Z</time><name>PT18098</name></trkpt>
<trkpt lat="54.598235" lon="-3.188969"><ele>127</ele><time>2019-10-02T16:10:40Z</time><name>PT18099</name></trkpt>
<trkpt lat="54.598248" lon="-3.188963"><ele>127</ele><time>2019-10-02T16:10:42Z</time><name>PT18100</name></trkpt>
<trkpt lat="54.598261" lon="-3.188959"><ele>126</ele><time>2019-10-02T16:10:42Z</time><name>PT18101</name></trkpt>
<trkpt lat="54.598271" lon="-3.188951"><ele>126</ele><time>2019-10-02T16:10:44Z</time><name>PT18102</name></trkpt>
<trkpt lat="54.598280" lon="-3.188937"><ele>126</ele><time>2019-10-02T16:10:44Z</time><name>PT18103</name></trkpt>
<trkpt lat="54.598289" lon="-3.188919"><ele>126</ele><time>2019-10-02T16:10:46Z</time><name>PT18104</name></trkpt>
<trkpt lat="54.598298" lon="-3.188903"><ele>126</ele><time>2019-10-02T16:10:46Z</time><name>PT18105</name></trkpt>
<trkpt lat="54.598308" lon="-3.188891"><ele>126</ele><time>2019-10-02T16:10:48Z</time><name>PT18106</name></trkpt>
<trkpt lat="54.598318" lon="-3.188885"><ele>126</ele><time>2019-10-02T16:10:48Z</time><name>PT18107</name></trkpt>
<trkpt lat="54.598330" lon="-3.188875"><ele>126</ele><time>2019-10-02T16:10:50Z</time><name>PT18108</name></trkpt>
<trkpt lat="54.598343" lon="-3.188865"><ele>126</ele><time>2019-10-02T16:10:50Z</time><name>PT18109</name></trkpt>
<trkpt lat="54.598352" lon="-3.188858"><ele>126</ele><time>2019-10-02T16:10:52Z</time><name>PT18110</name></trkpt>
<trkpt lat="54.598360" lon="-3.188854"><ele>126</ele><time>2019-10-02T16:10:52Z</time><name>PT18111</name></trkpt>
<trkpt lat="54.598370" lon="-3.188840"><ele>126</ele><time>2019-10-02T16:10:54Z</time><name>PT18112</name></trkpt>
<trkpt lat="54.598382" lon="-3.188836"><ele>126</ele><time>2019-10-02T16:10:54Z</time><name>PT18113</name></trkpt>
<trkpt lat="54.598395" lon="-3.188837"><ele>126</ele><time>2019-10-02T16:10:56Z</time><name>PT18114</name></trkpt>
<trkpt lat="54.598408" lon="-3.188836"><ele>125</ele><time>2019-10-02T16:10:56Z</time><name>PT18115</name></trkpt>
<trkpt lat="54.598420" lon="-3.188834"><ele>125</ele><time>2019-10-02T16:10:58Z</time><name>PT18116</name></trkpt>
<trkpt lat="54.598433" lon="-3.188827"><ele>125</ele><time>2019-10-02T16:10:58Z</time><name>PT18117</name></trkpt>
<trkpt lat="54.598446" lon="-3.188825"><ele>124</ele><time>2019-10-02T16:11:00Z</time><name>PT18118</name></trkpt>
<trkpt lat="54.598460" lon="-3.188824"><ele>124</ele><time>2019-10-02T16:11:00Z</time><name>PT18119</name></trkpt>
<trkpt lat="54.598472" lon="-3.188824"><ele>124</ele><time>2019-10-02T16:11:02Z</time><name>PT18120</name></trkpt>
<trkpt lat="54.598484" lon="-3.188823"><ele>124</ele><time>2019-10-02T16:11:02Z</time><name>PT18121</name></trkpt>
<trkpt lat="54.598497" lon="-3.188825"><ele>124</ele><time>2019-10-02T16:11:04Z</time><name>PT18122</name></trkpt>
<trkpt lat="54.598511" lon="-3.188830"><ele>124</ele><time>2019-10-02T16:11:04Z</time><name>PT18123</name></trkpt>
<trkpt lat="54.598524" lon="-3.188830"><ele>123</ele><time>2019-10-02T16:11:06Z</time><name>PT18124</name></trkpt>
<trkpt lat="54.598537" lon="-3.188828"><ele>124</ele><time>2019-10-02T16:11:06Z</time><name>PT18125</name></trkpt>
<trkpt lat="54.598551" lon="-3.188827"><ele>124</ele><time>2019-10-02T16:11:08Z</time><name>PT18126</name></trkpt>
<trkpt lat="54.598562" lon="-3.188831"><ele>124</ele><time>2019-10-02T16:11:08Z</time><name>PT18127</name></trkpt>
<trkpt lat="54.598573" lon="-3.188839"><ele>124</ele><time>2019-10-02T16:11:10Z</time><name>PT18128</name></trkpt>
<trkpt lat="54.598586" lon="-3.188846"><ele>124</ele><time>2019-10-02T16:11:10Z</time><name>PT18129</name></trkpt>
<trkpt lat="54.598599" lon="-3.188852"><ele>123</ele><time>2019-10-02T16:11:12Z</time><name>PT18130</name></trkpt>
<trkpt lat="54.598612" lon="-3.188858"><ele>123</ele><time>2019-10-02T16:11:12Z</time><name>PT18131</name></trkpt>
<trkpt lat="54.598624" lon="-3.188863"><ele>123</ele><time>2019-10-02T16:11:14Z</time><name>PT18132</name></trkpt>
<trkpt lat="54.598637" lon="-3.188867"><ele>123</ele><time>2019-10-02T16:11:14Z</time><name>PT18133</name></trkpt>
<trkpt lat="54.598651" lon="-3.188874"><ele>123</ele><time>2019-10-02T16:11:16Z</time><name>PT18134</name></trkpt>
<trkpt lat="54.598663" lon="-3.188881"><ele>122</ele><time>2019-10-02T16:11:16Z</time><name>PT18135</name></trkpt>
<trkpt lat="54.598674" lon="-3.188890"><ele>122</ele><time>2019-10-02T16:11:18Z</time><name>PT18136</name></trkpt>
<trkpt lat="54.598686" lon="-3.188898"><ele>122</ele><time>2019-10-02T16:11:18Z</time><name>PT18137</name></trkpt>
<trkpt lat="54.598697" lon="-3.188909"><ele>122</ele><time>2019-10-02T16:11:20Z</time><name>PT18138</name></trkpt>
<trkpt lat="54.598710" lon="-3.188913"><ele>122</ele><time>2019-10-02T16:11:20Z</time><name>PT18139</name></trkpt>
<trkpt lat="54.598725" lon="-3.188917"><ele>122</ele><time>2019-10-02T16:11:22Z</time><name>PT18140</name></trkpt>
<trkpt lat="54.598739" lon="-3.188923"><ele>122</ele><time>2019-10-02T16:11:22Z</time><name>PT18141</name></trkpt>
<trkpt lat="54.598752" lon="-3.188931"><ele>121</ele><time>2019-10-02T16:11:24Z</time><name>PT18142</name></trkpt>
<trkpt lat="54.598765" lon="-3.188936"><ele>121</ele><time>2019-10-02T16:11:24Z</time><name>PT18143</name></trkpt>
<trkpt lat="54.598777" lon="-3.188942"><ele>121</ele><time>2019-10-02T16:11:26Z</time><name>PT18144</name></trkpt>
<trkpt lat="54.598787" lon="-3.188955"><ele>121</ele><time>2019-10-02T16:11:26Z</time><name>PT18145</name></trkpt>
<trkpt lat="54.598797" lon="-3.188962"><ele>121</ele><time>2019-10-02T16:11:28Z</time><name>PT18146</name></trkpt>
<trkpt lat="54.598809" lon="-3.188967"><ele>121</ele><time>2019-10-02T16:11:28Z</time><name>PT18147</name></trkpt>
<trkpt lat="54.598821" lon="-3.188971"><ele>121</ele><time>2019-10-02T16:11:30Z</time><name>PT18148</name></trkpt>
<trkpt lat="54.598834" lon="-3.188975"><ele>121</ele><time>2019-10-02T16:11:30Z</time><name>PT18149</name></trkpt>
<trkpt lat="54.598848" lon="-3.188983"><ele>120</ele><time>2019-10-02T16:11:32Z</time><name>PT18150</name></trkpt>
<trkpt lat="54.598858" lon="-3.188994"><ele>120</ele><time>2019-10-02T16:11:32Z</time><name>PT18151</name></trkpt>
<trkpt lat="54.598868" lon="-3.189013"><ele>120</ele><time>2019-10-02T16:11:34Z</time><name>PT18152</name></trkpt>
<trkpt lat="54.598878" lon="-3.189023"><ele>119</ele><time>2019-10-02T16:11:34Z</time><name>PT18153</name></trkpt>
<trkpt lat="54.598889" lon="-3.189029"><ele>119</ele><time>2019-10-02T16:11:36Z</time><name>PT18154</name></trkpt>
<trkpt lat="54.598901" lon="-3.189036"><ele>119</ele><time>2019-10-02T16:11:37Z</time><name>PT18155</name></trkpt>
<trkpt lat="54.598913" lon="-3.189042"><ele>119</ele><time>2019-10-02T16:11:38Z</time><name>PT18156</name></trkpt>
<trkpt lat="54.598924" lon="-3.189048"><ele>119</ele><time>2019-10-02T16:11:39Z</time><name>PT18157</name></trkpt>
<trkpt lat="54.598934" lon="-3.189059"><ele>119</ele><time>2019-10-02T16:11:40Z</time><name>PT18158</name></trkpt>
<trkpt lat="54.598946" lon="-3.189071"><ele>119</ele><time>2019-10-02T16:11:40Z</time><name>PT18159</name></trkpt>
<trkpt lat="54.598949" lon="-3.189084"><ele>118</ele><time>2019-10-02T16:11:42Z</time><name>PT18160</name></trkpt>
<trkpt lat="54.598958" lon="-3.189090"><ele>118</ele><time>2019-10-02T16:11:42Z</time><name>PT18161</name></trkpt>
<trkpt lat="54.598971" lon="-3.189100"><ele>117</ele><time>2019-10-02T16:11:44Z</time><name>PT18162</name></trkpt>
<trkpt lat="54.598983" lon="-3.189106"><ele>117</ele><time>2019-10-02T16:11:44Z</time><name>PT18163</name></trkpt>
<trkpt lat="54.598994" lon="-3.189117"><ele>117</ele><time>2019-10-02T16:11:46Z</time><name>PT18164</name></trkpt>
<trkpt lat="54.599006" lon="-3.189132"><ele>117</ele><time>2019-10-02T16:11:46Z</time><name>PT18165</name></trkpt>
<trkpt lat="54.599018" lon="-3.189142"><ele>117</ele><time>2019-10-02T16:11:48Z</time><name>PT18166</name></trkpt>
<trkpt lat="54.599030" lon="-3.189147"><ele>117</ele><time>2019-10-02T16:11:48Z</time><name>PT18167</name></trkpt>
<trkpt lat="54.599043" lon="-3.189153"><ele>116</ele><time>2019-10-02T16:11:50Z</time><name>PT18168</name></trkpt>
<trkpt lat="54.599053" lon="-3.189161"><ele>116</ele><time>2019-10-02T16:11:50Z</time><name>PT18169</name></trkpt>
<trkpt lat="54.599064" lon="-3.189170"><ele>116</ele><time>2019-10-02T16:11:52Z</time><name>PT18170</name></trkpt>
<trkpt lat="54.599074" lon="-3.189183"><ele>116</ele><time>2019-10-02T16:11:52Z</time><name>PT18171</name></trkpt>
<trkpt lat="54.599084" lon="-3.189192"><ele>116</ele><time>2019-10-02T16:11:54Z</time><name>PT18172</name></trkpt>
<trkpt lat="54.599095" lon="-3.189197"><ele>116</ele><time>2019-10-02T16:11:54Z</time><name>PT18173</name></trkpt>
<trkpt lat="54.599107" lon="-3.189202"><ele>116</ele><time>2019-10-02T16:11:56Z</time><name>PT18174</name></trkpt>
<trkpt lat="54.599117" lon="-3.189211"><ele>116</ele><time>2019-10-02T16:11:56Z</time><name>PT18175</name></trkpt>
<trkpt lat="54.599127" lon="-3.189220"><ele>116</ele><time>2019-10-02T16:11:58Z</time><name>PT18176</name></trkpt>
<trkpt lat="54.599137" lon="-3.189232"><ele>116</ele><time>2019-10-02T16:11:58Z</time><name>PT18177</name></trkpt>
<trkpt lat="54.599148" lon="-3.189241"><ele>115</ele><time>2019-10-02T16:12:00Z</time><name>PT18178</name></trkpt>
<trkpt lat="54.599160" lon="-3.189248"><ele>115</ele><time>2019-10-02T16:12:00Z</time><name>PT18179</name></trkpt>
<trkpt lat="54.599172" lon="-3.189257"><ele>115</ele><time>2019-10-02T16:12:02Z</time><name>PT18180</name></trkpt>
<trkpt lat="54.599183" lon="-3.189265"><ele>115</ele><time>2019-10-02T16:12:02Z</time><name>PT18181</name></trkpt>
<trkpt lat="54.599193" lon="-3.189273"><ele>115</ele><time>2019-10-02T16:12:04Z</time><name>PT18182</name></trkpt>
<trkpt lat="54.599203" lon="-3.189283"><ele>115</ele><time>2019-10-02T16:12:04Z</time><name>PT18183</name></trkpt>
<trkpt lat="54.599215" lon="-3.189293"><ele>115</ele><time>2019-10-02T16:12:06Z</time><name>PT18184</name></trkpt>
<trkpt lat="54.599224" lon="-3.189300"><ele>115</ele><time>2019-10-02T16:12:06Z</time><name>PT18185</name></trkpt>
<trkpt lat="54.599237" lon="-3.189306"><ele>114</ele><time>2019-10-02T16:12:08Z</time><name>PT18186</name></trkpt>
<trkpt lat="54.599250" lon="-3.189314"><ele>114</ele><time>2019-10-02T16:12:08Z</time><name>PT18187</name></trkpt>
<trkpt lat="54.599261" lon="-3.189323"><ele>114</ele><time>2019-10-02T16:12:10Z</time><name>PT18188</name></trkpt>
<trkpt lat="54.599273" lon="-3.189331"><ele>114</ele><time>2019-10-02T16:12:10Z</time><name>PT18189</name></trkpt>
<trkpt lat="54.599284" lon="-3.189344"><ele>114</ele><time>2019-10-02T16:12:12Z</time><name>PT18190</name></trkpt>
<trkpt lat="54.599295" lon="-3.189351"><ele>114</ele><time>2019-10-02T16:12:12Z</time><name>PT18191</name></trkpt>
<trkpt lat="54.599308" lon="-3.189359"><ele>114</ele><time>2019-10-02T16:12:14Z</time><name>PT18192</name></trkpt>
<trkpt lat="54.599319" lon="-3.189365"><ele>113</ele><time>2019-10-02T16:12:14Z</time><name>PT18193</name></trkpt>
<trkpt lat="54.599329" lon="-3.189372"><ele>113</ele><time>2019-10-02T16:12:16Z</time><name>PT18194</name></trkpt>
<trkpt lat="54.599339" lon="-3.189381"><ele>113</ele><time>2019-10-02T16:12:16Z</time><name>PT18195</name></trkpt>
<trkpt lat="54.599349" lon="-3.189392"><ele>113</ele><time>2019-10-02T16:12:18Z</time><name>PT18196</name></trkpt>
<trkpt lat="54.599361" lon="-3.189403"><ele>113</ele><time>2019-10-02T16:12:18Z</time><name>PT18197</name></trkpt>
<trkpt lat="54.599372" lon="-3.189412"><ele>113</ele><time>2019-10-02T16:12:20Z</time><name>PT18198</name></trkpt>
<trkpt lat="54.599384" lon="-3.189417"><ele>113</ele><time>2019-10-02T16:12:20Z</time><name>PT18199</name></trkpt>
<trkpt lat="54.599395" lon="-3.189424"><ele>112</ele><time>2019-10-02T16:12:22Z</time><name>PT18200</name></trkpt>
<trkpt lat="54.599404" lon="-3.189430"><ele>112</ele><time>2019-10-02T16:12:22Z</time><name>PT18201</name></trkpt>
<trkpt lat="54.599414" lon="-3.189440"><ele>112</ele><time>2019-10-02T16:12:24Z</time><name>PT18202</name></trkpt>
<trkpt lat="54.599424" lon="-3.189451"><ele>112</ele><time>2019-10-02T16:12:24Z</time><name>PT18203</name></trkpt>
<trkpt lat="54.599437" lon="-3.189455"><ele>112</ele><time>2019-10-02T16:12:26Z</time><name>PT18204</name></trkpt>
<trkpt lat="54.599449" lon="-3.189458"><ele>112</ele><time>2019-10-02T16:12:26Z</time><name>PT18205</name></trkpt>
<trkpt lat="54.599461" lon="-3.189464"><ele>112</ele><time>2019-10-02T16:12:28Z</time><name>PT18206</name></trkpt>
<trkpt lat="54.599473" lon="-3.189475"><ele>112</ele><time>2019-10-02T16:12:28Z</time><name>PT18207</name></trkpt>
<trkpt lat="54.599483" lon="-3.189484"><ele>112</ele><time>2019-10-02T16:12:30Z</time><name>PT18208</name></trkpt>
<trkpt lat="54.599494" lon="-3.189498"><ele>111</ele><time>2019-10-02T16:12:30Z</time><name>PT18209</name></trkpt>
<trkpt lat="54.599505" lon="-3.189513"><ele>111</ele><time>2019-10-02T16:12:32Z</time><name>PT18210</name></trkpt>
<trkpt lat="54.599516" lon="-3.189521"><ele>111</ele><time>2019-10-02T16:12:32Z</time><name>PT18211</name></trkpt>
<trkpt lat="54.599529" lon="-3.189529"><ele>110</ele><time>2019-10-02T16:12:34Z</time><name>PT18212</name></trkpt>
<trkpt lat="54.599541" lon="-3.189535"><ele>110</ele><time>2019-10-02T16:12:34Z</time><name>PT18213</name></trkpt>
<trkpt lat="54.599553" lon="-3.189548"><ele>110</ele><time>2019-10-02T16:12:36Z</time><name>PT18214</name></trkpt>
<trkpt lat="54.599564" lon="-3.189561"><ele>110</ele><time>2019-10-02T16:12:36Z</time><name>PT18215</name></trkpt>
<trkpt lat="54.599575" lon="-3.189568"><ele>110</ele><time>2019-10-02T16:12:38Z</time><name>PT18216</name></trkpt>
<trkpt lat="54.599587" lon="-3.189578"><ele>109</ele><time>2019-10-02T16:12:38Z</time><name>PT18217</name></trkpt>
<trkpt lat="54.599598" lon="-3.189586"><ele>109</ele><time>2019-10-02T16:12:40Z</time><name>PT18218</name></trkpt>
<trkpt lat="54.599609" lon="-3.189596"><ele>109</ele><time>2019-10-02T16:12:40Z</time><name>PT18219</name></trkpt>
<trkpt lat="54.599620" lon="-3.189609"><ele>109</ele><time>2019-10-02T16:12:42Z</time><name>PT18220</name></trkpt>
<trkpt lat="54.599632" lon="-3.189616"><ele>109</ele><time>2019-10-02T16:12:42Z</time><name>PT18221</name></trkpt>
<trkpt lat="54.599645" lon="-3.189623"><ele>109</ele><time>2019-10-02T16:12:44Z</time><name>PT18222</name></trkpt>
<trkpt lat="54.599655" lon="-3.189632"><ele>108</ele><time>2019-10-02T16:12:44Z</time><name>PT18223</name></trkpt>
<trkpt lat="54.599667" lon="-3.189642"><ele>108</ele><time>2019-10-02T16:12:46Z</time><name>PT18224</name></trkpt>
<trkpt lat="54.599678" lon="-3.189649"><ele>108</ele><time>2019-10-02T16:12:46Z</time><name>PT18225</name></trkpt>
<trkpt lat="54.599690" lon="-3.189658"><ele>108</ele><time>2019-10-02T16:12:48Z</time><name>PT18226</name></trkpt>
<trkpt lat="54.599703" lon="-3.189665"><ele>108</ele><time>2019-10-02T16:12:48Z</time><name>PT18227</name></trkpt>
<trkpt lat="54.599713" lon="-3.189673"><ele>108</ele><time>2019-10-02T16:12:50Z</time><name>PT18228</name></trkpt>
<trkpt lat="54.599724" lon="-3.189681"><ele>108</ele><time>2019-10-02T16:12:50Z</time><name>PT18229</name></trkpt>
<trkpt lat="54.599734" lon="-3.189692"><ele>108</ele><time>2019-10-02T16:12:52Z</time><name>PT18230</name></trkpt>
<trkpt lat="54.599746" lon="-3.189702"><ele>108</ele><time>2019-10-02T16:12:52Z</time><name>PT18231</name></trkpt>
<trkpt lat="54.599755" lon="-3.189707"><ele>108</ele><time>2019-10-02T16:12:54Z</time><name>PT18232</name></trkpt>
<trkpt lat="54.599765" lon="-3.189716"><ele>108</ele><time>2019-10-02T16:12:54Z</time><name>PT18233</name></trkpt>
<trkpt lat="54.599776" lon="-3.189729"><ele>107</ele><time>2019-10-02T16:12:56Z</time><name>PT18234</name></trkpt>
<trkpt lat="54.599787" lon="-3.189736"><ele>107</ele><time>2019-10-02T16:12:56Z</time><name>PT18235</name></trkpt>
<trkpt lat="54.599797" lon="-3.189746"><ele>107</ele><time>2019-10-02T16:12:58Z</time><name>PT18236</name></trkpt>
<trkpt lat="54.599807" lon="-3.189758"><ele>107</ele><time>2019-10-02T16:12:58Z</time><name>PT18237</name></trkpt>
<trkpt lat="54.599818" lon="-3.189767"><ele>107</ele><time>2019-10-02T16:13:00Z</time><name>PT18238</name></trkpt>
<trkpt lat="54.599829" lon="-3.189773"><ele>107</ele><time>2019-10-02T16:13:00Z</time><name>PT18239</name></trkpt>
<trkpt lat="54.599842" lon="-3.189780"><ele>106</ele><time>2019-10-02T16:13:02Z</time><name>PT18240</name></trkpt>
<trkpt lat="54.599854" lon="-3.189788"><ele>107</ele><time>2019-10-02T16:13:02Z</time><name>PT18241</name></trkpt>
<trkpt lat="54.599865" lon="-3.189795"><ele>107</ele><time>2019-10-02T16:13:04Z</time><name>PT18242</name></trkpt>
<trkpt lat="54.599876" lon="-3.189805"><ele>106</ele><time>2019-10-02T16:13:04Z</time><name>PT18243</name></trkpt>
<trkpt lat="54.599888" lon="-3.189811"><ele>106</ele><time>2019-10-02T16:13:06Z</time><name>PT18244</name></trkpt>
<trkpt lat="54.599899" lon="-3.189817"><ele>106</ele><time>2019-10-02T16:13:06Z</time><name>PT18245</name></trkpt>
<trkpt lat="54.599911" lon="-3.189824"><ele>106</ele><time>2019-10-02T16:13:08Z</time><name>PT18246</name></trkpt>
<trkpt lat="54.599922" lon="-3.189830"><ele>106</ele><time>2019-10-02T16:13:08Z</time><name>PT18247</name></trkpt>
<trkpt lat="54.599932" lon="-3.189835"><ele>106</ele><time>2019-10-02T16:13:10Z</time><name>PT18248</name></trkpt>
<trkpt lat="54.599943" lon="-3.189844"><ele>105</ele><time>2019-10-02T16:13:10Z</time><name>PT18249</name></trkpt>
<trkpt lat="54.599954" lon="-3.189855"><ele>105</ele><time>2019-10-02T16:13:12Z</time><name>PT18250</name></trkpt>
<trkpt lat="54.599965" lon="-3.189864"><ele>105</ele><time>2019-10-02T16:13:12Z</time><name>PT18251</name></trkpt>
<trkpt lat="54.599977" lon="-3.189868"><ele>105</ele><time>2019-10-02T16:13:14Z</time><name>PT18252</name></trkpt>
<trkpt lat="54.599987" lon="-3.189875"><ele>105</ele><time>2019-10-02T16:13:14Z</time><name>PT18253</name></trkpt>
<trkpt lat="54.600000" lon="-3.189880"><ele>105</ele><time>2019-10-02T16:13:16Z</time><name>PT18254</name></trkpt>
<trkpt lat="54.600012" lon="-3.189886"><ele>105</ele><time>2019-10-02T16:13:16Z</time><name>PT18255</name></trkpt>
<trkpt lat="54.600022" lon="-3.189893"><ele>105</ele><time>2019-10-02T16:13:18Z</time><name>PT18256</name></trkpt>
<trkpt lat="54.600034" lon="-3.189901"><ele>104</ele><time>2019-10-02T16:13:18Z</time><name>PT18257</name></trkpt>
<trkpt lat="54.600045" lon="-3.189909"><ele>104</ele><time>2019-10-02T16:13:20Z</time><name>PT18258</name></trkpt>
<trkpt lat="54.600056" lon="-3.189911"><ele>104</ele><time>2019-10-02T16:13:20Z</time><name>PT18259</name></trkpt>
<trkpt lat="54.600067" lon="-3.189917"><ele>104</ele><time>2019-10-02T16:13:22Z</time><name>PT18260</name></trkpt>
<trkpt lat="54.600079" lon="-3.189923"><ele>104</ele><time>2019-10-02T16:13:22Z</time><name>PT18261</name></trkpt>
<trkpt lat="54.600091" lon="-3.189925"><ele>104</ele><time>2019-10-02T16:13:24Z</time><name>PT18262</name></trkpt>
<trkpt lat="54.600102" lon="-3.189931"><ele>104</ele><time>2019-10-02T16:13:24Z</time><name>PT18263</name></trkpt>
<trkpt lat="54.600114" lon="-3.189939"><ele>103</ele><time>2019-10-02T16:13:26Z</time><name>PT18264</name></trkpt>
<trkpt lat="54.600125" lon="-3.189950"><ele>103</ele><time>2019-10-02T16:13:26Z</time><name>PT18265</name></trkpt>
<trkpt lat="54.600135" lon="-3.189954"><ele>103</ele><time>2019-10-02T16:13:28Z</time><name>PT18266</name></trkpt>
<trkpt lat="54.600147" lon="-3.189958"><ele>103</ele><time>2019-10-02T16:13:28Z</time><name>PT18267</name></trkpt>
<trkpt lat="54.600159" lon="-3.189963"><ele>102</ele><time>2019-10-02T16:13:30Z</time><name>PT18268</name></trkpt>
<trkpt lat="54.600169" lon="-3.189966"><ele>102</ele><time>2019-10-02T16:13:30Z</time><name>PT18269</name></trkpt>
<trkpt lat="54.600180" lon="-3.189972"><ele>102</ele><time>2019-10-02T16:13:32Z</time><name>PT18270</name></trkpt>
<trkpt lat="54.600192" lon="-3.189978"><ele>102</ele><time>2019-10-02T16:13:32Z</time><name>PT18271</name></trkpt>
<trkpt lat="54.600203" lon="-3.189985"><ele>102</ele><time>2019-10-02T16:13:34Z</time><name>PT18272</name></trkpt>
<trkpt lat="54.600214" lon="-3.189994"><ele>102</ele><time>2019-10-02T16:13:34Z</time><name>PT18273</name></trkpt>
<trkpt lat="54.600226" lon="-3.189998"><ele>101</ele><time>2019-10-02T16:13:36Z</time><name>PT18274</name></trkpt>
<trkpt lat="54.600237" lon="-3.190001"><ele>102</ele><time>2019-10-02T16:13:36Z</time><name>PT18275</name></trkpt>
<trkpt lat="54.600246" lon="-3.190003"><ele>102</ele><time>2019-10-02T16:13:38Z</time><name>PT18276</name></trkpt>
<trkpt lat="54.600258" lon="-3.190007"><ele>102</ele><time>2019-10-02T16:13:38Z</time><name>PT18277</name></trkpt>
<trkpt lat="54.600269" lon="-3.190013"><ele>102</ele><time>2019-10-02T16:13:40Z</time><name>PT18278</name></trkpt>
<trkpt lat="54.600280" lon="-3.190016"><ele>102</ele><time>2019-10-02T16:13:40Z</time><name>PT18279</name></trkpt>
<trkpt lat="54.600291" lon="-3.190019"><ele>102</ele><time>2019-10-02T16:13:42Z</time><name>PT18280</name></trkpt>
<trkpt lat="54.600303" lon="-3.190021"><ele>102</ele><time>2019-10-02T16:13:42Z</time><name>PT18281</name></trkpt>
<trkpt lat="54.600314" lon="-3.190028"><ele>102</ele><time>2019-10-02T16:13:44Z</time><name>PT18282</name></trkpt>
<trkpt lat="54.600326" lon="-3.190025"><ele>102</ele><time>2019-10-02T16:13:44Z</time><name>PT18283</name></trkpt>
<trkpt lat="54.600338" lon="-3.190037"><ele>102</ele><time>2019-10-02T16:13:46Z</time><name>PT18284</name></trkpt>
<trkpt lat="54.600348" lon="-3.190044"><ele>102</ele><time>2019-10-02T16:13:46Z</time><name>PT18285</name></trkpt>
<trkpt lat="54.600360" lon="-3.190048"><ele>102</ele><time>2019-10-02T16:13:48Z</time><name>PT18286</name></trkpt>
<trkpt lat="54.600371" lon="-3.190052"><ele>101</ele><time>2019-10-02T16:13:48Z</time><name>PT18287</name></trkpt>
<trkpt lat="54.600381" lon="-3.190056"><ele>102</ele><time>2019-10-02T16:13:50Z</time><name>PT18288</name></trkpt>
<trkpt lat="54.600393" lon="-3.190061"><ele>102</ele><time>2019-10-02T16:13:50Z</time><name>PT18289</name></trkpt>
<trkpt lat="54.600403" lon="-3.190068"><ele>101</ele><time>2019-10-02T16:13:52Z</time><name>PT18290</name></trkpt>
<trkpt lat="54.600414" lon="-3.190074"><ele>102</ele><time>2019-10-02T16:13:52Z</time><name>PT18291</name></trkpt>
<trkpt lat="54.600424" lon="-3.190076"><ele>101</ele><time>2019-10-02T16:13:54Z</time><name>PT18292</name></trkpt>
<trkpt lat="54.600437" lon="-3.190078"><ele>101</ele><time>2019-10-02T16:13:54Z</time><name>PT18293</name></trkpt>
<trkpt lat="54.600446" lon="-3.190079"><ele>101</ele><time>2019-10-02T16:13:56Z</time><name>PT18294</name></trkpt>
<trkpt lat="54.600458" lon="-3.190081"><ele>102</ele><time>2019-10-02T16:13:56Z</time><name>PT18295</name></trkpt>
<trkpt lat="54.600469" lon="-3.190092"><ele>101</ele><time>2019-10-02T16:13:58Z</time><name>PT18296</name></trkpt>
<trkpt lat="54.600479" lon="-3.190099"><ele>101</ele><time>2019-10-02T16:13:58Z</time><name>PT18297</name></trkpt>
<trkpt lat="54.600489" lon="-3.190100"><ele>101</ele><time>2019-10-02T16:14:00Z</time><name>PT18298</name></trkpt>
<trkpt lat="54.600501" lon="-3.190104"><ele>101</ele><time>2019-10-02T16:14:00Z</time><name>PT18299</name></trkpt>
<trkpt lat="54.600510" lon="-3.190110"><ele>101</ele><time>2019-10-02T16:14:02Z</time><name>PT18300</name></trkpt>
<trkpt lat="54.600520" lon="-3.190120"><ele>101</ele><time>2019-10-02T16:14:02Z</time><name>PT18301</name></trkpt>
<trkpt lat="54.600533" lon="-3.190133"><ele>100</ele><time>2019-10-02T16:14:04Z</time><name>PT18302</name></trkpt>
<trkpt lat="54.600544" lon="-3.190143"><ele>100</ele><time>2019-10-02T16:14:04Z</time><name>PT18303</name></trkpt>
<trkpt lat="54.600553" lon="-3.190144"><ele>100</ele><time>2019-10-02T16:14:06Z</time><name>PT18304</name></trkpt>
<trkpt lat="54.600565" lon="-3.190150"><ele>99</ele><time>2019-10-02T16:14:06Z</time><name>PT18305</name></trkpt>
<trkpt lat="54.600576" lon="-3.190153"><ele>99</ele><time>2019-10-02T16:14:08Z</time><name>PT18306</name></trkpt>
<trkpt lat="54.600587" lon="-3.190163"><ele>98</ele><time>2019-10-02T16:14:08Z</time><name>PT18307</name></trkpt>
<trkpt lat="54.600597" lon="-3.190171"><ele>98</ele><time>2019-10-02T16:14:10Z</time><name>PT18308</name></trkpt>
<trkpt lat="54.600607" lon="-3.190178"><ele>98</ele><time>2019-10-02T16:14:10Z</time><name>PT18309</name></trkpt>
<trkpt lat="54.600617" lon="-3.190183"><ele>98</ele><time>2019-10-02T16:14:12Z</time><name>PT18310</name></trkpt>
<trkpt lat="54.600627" lon="-3.190181"><ele>98</ele><time>2019-10-02T16:14:12Z</time><name>PT18311</name></trkpt>
<trkpt lat="54.600640" lon="-3.190182"><ele>98</ele><time>2019-10-02T16:14:14Z</time><name>PT18312</name></trkpt>
<trkpt lat="54.600652" lon="-3.190186"><ele>98</ele><time>2019-10-02T16:14:14Z</time><name>PT18313</name></trkpt>
<trkpt lat="54.600662" lon="-3.190190"><ele>98</ele><time>2019-10-02T16:14:16Z</time><name>PT18314</name></trkpt>
<trkpt lat="54.600673" lon="-3.190200"><ele>98</ele><time>2019-10-02T16:14:16Z</time><name>PT18315</name></trkpt>
<trkpt lat="54.600682" lon="-3.190209"><ele>98</ele><time>2019-10-02T16:14:18Z</time><name>PT18316</name></trkpt>
<trkpt lat="54.600692" lon="-3.190212"><ele>98</ele><time>2019-10-02T16:14:18Z</time><name>PT18317</name></trkpt>
<trkpt lat="54.600705" lon="-3.190211"><ele>98</ele><time>2019-10-02T16:14:20Z</time><name>PT18318</name></trkpt>
<trkpt lat="54.600716" lon="-3.190214"><ele>97</ele><time>2019-10-02T16:14:20Z</time><name>PT18319</name></trkpt>
<trkpt lat="54.600727" lon="-3.190220"><ele>97</ele><time>2019-10-02T16:14:22Z</time><name>PT18320</name></trkpt>
<trkpt lat="54.600737" lon="-3.190230"><ele>96</ele><time>2019-10-02T16:14:22Z</time><name>PT18321</name></trkpt>
<trkpt lat="54.600748" lon="-3.190245"><ele>96</ele><time>2019-10-02T16:14:24Z</time><name>PT18322</name></trkpt>
<trkpt lat="54.600756" lon="-3.190260"><ele>95</ele><time>2019-10-02T16:14:24Z</time><name>PT18323</name></trkpt>
<trkpt lat="54.600764" lon="-3.190268"><ele>95</ele><time>2019-10-02T16:14:26Z</time><name>PT18324</name></trkpt>
<trkpt lat="54.600773" lon="-3.190278"><ele>94</ele><time>2019-10-02T16:14:26Z</time><name>PT18325</name></trkpt>
<trkpt lat="54.600785" lon="-3.190289"><ele>93</ele><time>2019-10-02T16:14:28Z</time><name>PT18326</name></trkpt>
<trkpt lat="54.600795" lon="-3.190303"><ele>94</ele><time>2019-10-02T16:14:28Z</time><name>PT18327</name></trkpt>
<trkpt lat="54.600807" lon="-3.190321"><ele>93</ele><time>2019-10-02T16:14:30Z</time><name>PT18328</name></trkpt>
<trkpt lat="54.600819" lon="-3.190340"><ele>93</ele><time>2019-10-02T16:14:30Z</time><name>PT18329</name></trkpt>
<trkpt lat="54.600829" lon="-3.190358"><ele>93</ele><time>2019-10-02T16:14:32Z</time><name>PT18330</name></trkpt>
<trkpt lat="54.600840" lon="-3.190376"><ele>94</ele><time>2019-10-02T16:14:32Z</time><name>PT18331</name></trkpt>
<trkpt lat="54.600852" lon="-3.190396"><ele>94</ele><time>2019-10-02T16:14:34Z</time><name>PT18332</name></trkpt>
<trkpt lat="54.600862" lon="-3.190418"><ele>94</ele><time>2019-10-02T16:14:34Z</time><name>PT18333</name></trkpt>
<trkpt lat="54.600868" lon="-3.190440"><ele>94</ele><time>2019-10-02T16:14:36Z</time><name>PT18334</name></trkpt>
<trkpt lat="54.600875" lon="-3.190462"><ele>94</ele><time>2019-10-02T16:14:36Z</time><name>PT18335</name></trkpt>
<trkpt lat="54.600880" lon="-3.190486"><ele>94</ele><time>2019-10-02T16:14:38Z</time><name>PT18336</name></trkpt>
<trkpt lat="54.600887" lon="-3.190502"><ele>94</ele><time>2019-10-02T16:14:38Z</time><name>PT18337</name></trkpt>
<trkpt lat="54.600898" lon="-3.190515"><ele>94</ele><time>2019-10-02T16:14:40Z</time><name>PT18338</name></trkpt>
<trkpt lat="54.600911" lon="-3.190531"><ele>94</ele><time>2019-10-02T16:14:40Z</time><name>PT18339</name></trkpt>
<trkpt lat="54.600921" lon="-3.190550"><ele>94</ele><time>2019-10-02T16:14:42Z</time><name>PT18340</name></trkpt>
<trkpt lat="54.600930" lon="-3.190567"><ele>93</ele><time>2019-10-02T16:14:42Z</time><name>PT18341</name></trkpt>
<trkpt lat="54.600940" lon="-3.190583"><ele>93</ele><time>2019-10-02T16:14:44Z</time><name>PT18342</name></trkpt>
<trkpt lat="54.600948" lon="-3.190603"><ele>93</ele><time>2019-10-02T16:14:44Z</time><name>PT18343</name></trkpt>
<trkpt lat="54.600957" lon="-3.190620"><ele>93</ele><time>2019-10-02T16:14:46Z</time><name>PT18344</name></trkpt>
<trkpt lat="54.600965" lon="-3.190638"><ele>93</ele><time>2019-10-02T16:14:46Z</time><name>PT18345</name></trkpt>
<trkpt lat="54.600976" lon="-3.190655"><ele>93</ele><time>2019-10-02T16:14:48Z</time><name>PT18346</name></trkpt>
<trkpt lat="54.600989" lon="-3.190674"><ele>92</ele><time>2019-10-02T16:14:48Z</time><name>PT18347</name></trkpt>
<trkpt lat="54.601003" lon="-3.190682"><ele>93</ele><time>2019-10-02T16:14:50Z</time><name>PT18348</name></trkpt>
<trkpt lat="54.601013" lon="-3.190698"><ele>93</ele><time>2019-10-02T16:14:50Z</time><name>PT18349</name></trkpt>
<trkpt lat="54.601023" lon="-3.190716"><ele>93</ele><time>2019-10-02T16:14:52Z</time><name>PT18350</name></trkpt>
<trkpt lat="54.601033" lon="-3.190731"><ele>93</ele><time>2019-10-02T16:14:52Z</time><name>PT18351</name></trkpt>
<trkpt lat="54.601043" lon="-3.190744"><ele>93</ele><time>2019-10-02T16:14:54Z</time><name>PT18352</name></trkpt>
<trkpt lat="54.601054" lon="-3.190759"><ele>93</ele><time>2019-10-02T16:14:54Z</time><name>PT18353</name></trkpt>
<trkpt lat="54.601063" lon="-3.190774"><ele>93</ele><time>2019-10-02T16:14:56Z</time><name>PT18354</name></trkpt>
<trkpt lat="54.601072" lon="-3.190791"><ele>93</ele><time>2019-10-02T16:14:56Z</time><name>PT18355</name></trkpt>
<trkpt lat="54.601084" lon="-3.190807"><ele>93</ele><time>2019-10-02T16:14:58Z</time><name>PT18356</name></trkpt>
<trkpt lat="54.601094" lon="-3.190821"><ele>93</ele><time>2019-10-02T16:14:58Z</time><name>PT18357</name></trkpt>
<trkpt lat="54.601105" lon="-3.190835"><ele>93</ele><time>2019-10-02T16:15:00Z</time><name>PT18358</name></trkpt>
<trkpt lat="54.601116" lon="-3.190845"><ele>93</ele><time>2019-10-02T16:15:00Z</time><name>PT18359</name></trkpt>
<trkpt lat="54.601123" lon="-3.190863"><ele>93</ele><time>2019-10-02T16:15:02Z</time><name>PT18360</name></trkpt>
<trkpt lat="54.601132" lon="-3.190878"><ele>93</ele><time>2019-10-02T16:15:02Z</time><name>PT18361</name></trkpt>
<trkpt lat="54.601141" lon="-3.190892"><ele>93</ele><time>2019-10-02T16:15:04Z</time><name>PT18362</name></trkpt>
<trkpt lat="54.601149" lon="-3.190907"><ele>92</ele><time>2019-10-02T16:15:04Z</time><name>PT18363</name></trkpt>
<trkpt lat="54.601157" lon="-3.190924"><ele>92</ele><time>2019-10-02T16:15:06Z</time><name>PT18364</name></trkpt>
<trkpt lat="54.601166" lon="-3.190941"><ele>92</ele><time>2019-10-02T16:15:06Z</time><name>PT18365</name></trkpt>
<trkpt lat="54.601173" lon="-3.190955"><ele>92</ele><time>2019-10-02T16:15:08Z</time><name>PT18366</name></trkpt>
<trkpt lat="54.601179" lon="-3.190972"><ele>92</ele><time>2019-10-02T16:15:08Z</time><name>PT18367</name></trkpt>
<trkpt lat="54.601187" lon="-3.190984"><ele>92</ele><time>2019-10-02T16:15:10Z</time><name>PT18368</name></trkpt>
<trkpt lat="54.601194" lon="-3.190995"><ele>92</ele><time>2019-10-02T16:15:10Z</time><name>PT18369</name></trkpt>
<trkpt lat="54.601199" lon="-3.191005"><ele>93</ele><time>2019-10-02T16:15:12Z</time><name>PT18370</name></trkpt>
<trkpt lat="54.601205" lon="-3.191015"><ele>93</ele><time>2019-10-02T16:15:12Z</time><name>PT18371</name></trkpt>
<trkpt lat="54.601209" lon="-3.191029"><ele>93</ele><time>2019-10-02T16:15:14Z</time><name>PT18372</name></trkpt>
<trkpt lat="54.601216" lon="-3.191041"><ele>93</ele><time>2019-10-02T16:15:14Z</time><name>PT18373</name></trkpt>
<trkpt lat="54.601225" lon="-3.191055"><ele>93</ele><time>2019-10-02T16:15:16Z</time><name>PT18374</name></trkpt>
<trkpt lat="54.601229" lon="-3.191070"><ele>93</ele><time>2019-10-02T16:15:16Z</time><name>PT18375</name></trkpt>
<trkpt lat="54.601230" lon="-3.191079"><ele>93</ele><time>2019-10-02T16:15:18Z</time><name>PT18376</name></trkpt>
<trkpt lat="54.601231" lon="-3.191079"><ele>93</ele><time>2019-10-02T16:15:18Z</time><name>PT18377</name></trkpt>
<trkpt lat="54.601231" lon="-3.191078"><ele>93</ele><time>2019-10-02T16:15:20Z</time><name>PT18378</name></trkpt>
<trkpt lat="54.601229" lon="-3.191081"><ele>93</ele><time>2019-10-02T16:15:20Z</time><name>PT18379</name></trkpt>
<trkpt lat="54.601227" lon="-3.191083"><ele>93</ele><time>2019-10-02T16:15:22Z</time><name>PT18380</name></trkpt>
<trkpt lat="54.601224" lon="-3.191076"><ele>94</ele><time>2019-10-02T16:15:28Z</time><name>PT18381</name></trkpt>
<trkpt lat="54.601233" lon="-3.191080"><ele>94</ele><time>2019-10-02T16:15:30Z</time><name>PT18382</name></trkpt>
<trkpt lat="54.601242" lon="-3.191088"><ele>93</ele><time>2019-10-02T16:15:30Z</time><name>PT18383</name></trkpt>
<trkpt lat="54.601252" lon="-3.191097"><ele>94</ele><time>2019-10-02T16:15:32Z</time><name>PT18384</name></trkpt>
<trkpt lat="54.601263" lon="-3.191101"><ele>94</ele><time>2019-10-02T16:15:32Z</time><name>PT18385</name></trkpt>
<trkpt lat="54.601275" lon="-3.191108"><ele>94</ele><time>2019-10-02T16:15:34Z</time><name>PT18386</name></trkpt>
<trkpt lat="54.601287" lon="-3.191117"><ele>94</ele><time>2019-10-02T16:15:34Z</time><name>PT18387</name></trkpt>
<trkpt lat="54.601299" lon="-3.191126"><ele>94</ele><time>2019-10-02T16:15:36Z</time><name>PT18388</name></trkpt>
<trkpt lat="54.601311" lon="-3.191138"><ele>94</ele><time>2019-10-02T16:15:36Z</time><name>PT18389</name></trkpt>
<trkpt lat="54.601322" lon="-3.191145"><ele>94</ele><time>2019-10-02T16:15:38Z</time><name>PT18390</name></trkpt>
<trkpt lat="54.601338" lon="-3.191153"><ele>94</ele><time>2019-10-02T16:15:38Z</time><name>PT18391</name></trkpt>
<trkpt lat="54.601351" lon="-3.191159"><ele>94</ele><time>2019-10-02T16:15:40Z</time><name>PT18392</name></trkpt>
<trkpt lat="54.601363" lon="-3.191165"><ele>94</ele><time>2019-10-02T16:15:40Z</time><name>PT18393</name></trkpt>
<trkpt lat="54.601380" lon="-3.191174"><ele>94</ele><time>2019-10-02T16:15:42Z</time><name>PT18394</name></trkpt>
<trkpt lat="54.601393" lon="-3.191184"><ele>93</ele><time>2019-10-02T16:15:42Z</time><name>PT18395</name></trkpt>
<trkpt lat="54.601407" lon="-3.191193"><ele>93</ele><time>2019-10-02T16:15:44Z</time><name>PT18396</name></trkpt>
<trkpt lat="54.601417" lon="-3.191199"><ele>93</ele><time>2019-10-02T16:15:44Z</time><name>PT18397</name></trkpt>
<trkpt lat="54.601430" lon="-3.191203"><ele>93</ele><time>2019-10-02T16:15:46Z</time><name>PT18398</name></trkpt>
<trkpt lat="54.601442" lon="-3.191205"><ele>93</ele><time>2019-10-02T16:15:46Z</time><name>PT18399</name></trkpt>
<trkpt lat="54.601456" lon="-3.191210"><ele>93</ele><time>2019-10-02T16:15:48Z</time><name>PT18400</name></trkpt>
<trkpt lat="54.601467" lon="-3.191215"><ele>93</ele><time>2019-10-02T16:15:48Z</time><name>PT18401</name></trkpt>
<trkpt lat="54.601480" lon="-3.191221"><ele>93</ele><time>2019-10-02T16:15:50Z</time><name>PT18402</name></trkpt>
<trkpt lat="54.601490" lon="-3.191224"><ele>93</ele><time>2019-10-02T16:15:50Z</time><name>PT18403</name></trkpt>
<trkpt lat="54.601501" lon="-3.191228"><ele>93</ele><time>2019-10-02T16:15:52Z</time><name>PT18404</name></trkpt>
<trkpt lat="54.601513" lon="-3.191231"><ele>93</ele><time>2019-10-02T16:15:52Z</time><name>PT18405</name></trkpt>
<trkpt lat="54.601525" lon="-3.191236"><ele>93</ele><time>2019-10-02T16:15:54Z</time><name>PT18406</name></trkpt>
<trkpt lat="54.601538" lon="-3.191244"><ele>93</ele><time>2019-10-02T16:15:54Z</time><name>PT18407</name></trkpt>
<trkpt lat="54.601551" lon="-3.191253"><ele>93</ele><time>2019-10-02T16:15:56Z</time><name>PT18408</name></trkpt>
<trkpt lat="54.601563" lon="-3.191258"><ele>93</ele><time>2019-10-02T16:15:56Z</time><name>PT18409</name></trkpt>
<trkpt lat="54.601574" lon="-3.191261"><ele>92</ele><time>2019-10-02T16:15:58Z</time><name>PT18410</name></trkpt>
<trkpt lat="54.601586" lon="-3.191266"><ele>93</ele><time>2019-10-02T16:15:58Z</time><name>PT18411</name></trkpt>
<trkpt lat="54.601599" lon="-3.191270"><ele>92</ele><time>2019-10-02T16:16:00Z</time><name>PT18412</name></trkpt>
<trkpt lat="54.601613" lon="-3.191277"><ele>92</ele><time>2019-10-02T16:16:00Z</time><name>PT18413</name></trkpt>
<trkpt lat="54.601624" lon="-3.191286"><ele>92</ele><time>2019-10-02T16:16:02Z</time><name>PT18414</name></trkpt>
<trkpt lat="54.601635" lon="-3.191296"><ele>92</ele><time>2019-10-02T16:16:02Z</time><name>PT18415</name></trkpt>
<trkpt lat="54.601647" lon="-3.191308"><ele>92</ele><time>2019-10-02T16:16:04Z</time><name>PT18416</name></trkpt>
<trkpt lat="54.601657" lon="-3.191317"><ele>92</ele><time>2019-10-02T16:16:04Z</time><name>PT18417</name></trkpt>
<trkpt lat="54.601669" lon="-3.191330"><ele>92</ele><time>2019-10-02T16:16:06Z</time><name>PT18418</name></trkpt>
<trkpt lat="54.601679" lon="-3.191339"><ele>92</ele><time>2019-10-02T16:16:06Z</time><name>PT18419</name></trkpt>
<trkpt lat="54.601691" lon="-3.191349"><ele>92</ele><time>2019-10-02T16:16:08Z</time><name>PT18420</name></trkpt>
<trkpt lat="54.601702" lon="-3.191358"><ele>92</ele><time>2019-10-02T16:16:08Z</time><name>PT18421</name></trkpt>
<trkpt lat="54.601712" lon="-3.191371"><ele>92</ele><time>2019-10-02T16:16:10Z</time><name>PT18422</name></trkpt>
<trkpt lat="54.601725" lon="-3.191381"><ele>92</ele><time>2019-10-02T16:16:10Z</time><name>PT18423</name></trkpt>
<trkpt lat="54.601737" lon="-3.191390"><ele>92</ele><time>2019-10-02T16:16:12Z</time><name>PT18424</name></trkpt>
<trkpt lat="54.601750" lon="-3.191402"><ele>92</ele><time>2019-10-02T16:16:12Z</time><name>PT18425</name></trkpt>
<trkpt lat="54.601763" lon="-3.191411"><ele>92</ele><time>2019-10-02T16:16:14Z</time><name>PT18426</name></trkpt>
<trkpt lat="54.601775" lon="-3.191418"><ele>92</ele><time>2019-10-02T16:16:14Z</time><name>PT18427</name></trkpt>
<trkpt lat="54.601786" lon="-3.191427"><ele>93</ele><time>2019-10-02T16:16:16Z</time><name>PT18428</name></trkpt>
<trkpt lat="54.601799" lon="-3.191438"><ele>92</ele><time>2019-10-02T16:16:16Z</time><name>PT18429</name></trkpt>
<trkpt lat="54.601811" lon="-3.191447"><ele>92</ele><time>2019-10-02T16:16:18Z</time><name>PT18430</name></trkpt>
<trkpt lat="54.601823" lon="-3.191457"><ele>93</ele><time>2019-10-02T16:16:18Z</time><name>PT18431</name></trkpt>
<trkpt lat="54.601835" lon="-3.191467"><ele>93</ele><time>2019-10-02T16:16:20Z</time><name>PT18432</name></trkpt>
<trkpt lat="54.601847" lon="-3.191476"><ele>93</ele><time>2019-10-02T16:16:20Z</time><name>PT18433</name></trkpt>
<trkpt lat="54.601857" lon="-3.191486"><ele>93</ele><time>2019-10-02T16:16:22Z</time><name>PT18434</name></trkpt>
<trkpt lat="54.601868" lon="-3.191496"><ele>93</ele><time>2019-10-02T16:16:22Z</time><name>PT18435</name></trkpt>
<trkpt lat="54.601877" lon="-3.191502"><ele>93</ele><time>2019-10-02T16:16:24Z</time><name>PT18436</name></trkpt>
<trkpt lat="54.601886" lon="-3.191507"><ele>94</ele><time>2019-10-02T16:16:24Z</time><name>PT18437</name></trkpt>
<trkpt lat="54.601891" lon="-3.191508"><ele>95</ele><time>2019-10-02T16:16:26Z</time><name>PT18438</name></trkpt>
<trkpt lat="54.601899" lon="-3.191515"><ele>95</ele><time>2019-10-02T16:16:26Z</time><name>PT18439</name></trkpt>
<trkpt lat="54.601910" lon="-3.191524"><ele>95</ele><time>2019-10-02T16:16:28Z</time><name>PT18440</name></trkpt>
<trkpt lat="54.601920" lon="-3.191532"><ele>96</ele><time>2019-10-02T16:16:28Z</time><name>PT18441</name></trkpt>
<trkpt lat="54.601933" lon="-3.191550"><ele>96</ele><time>2019-10-02T16:16:30Z</time><name>PT18442</name></trkpt>
<trkpt lat="54.601946" lon="-3.191561"><ele>96</ele><time>2019-10-02T16:16:30Z</time><name>PT18443</name></trkpt>
<trkpt lat="54.601958" lon="-3.191573"><ele>96</ele><time>2019-10-02T16:16:32Z</time><name>PT18444</name></trkpt>
<trkpt lat="54.601969" lon="-3.191585"><ele>96</ele><time>2019-10-02T16:16:32Z</time><name>PT18445</name></trkpt>
<trkpt lat="54.601977" lon="-3.191597"><ele>97</ele><time>2019-10-02T16:16:34Z</time><name>PT18446</name></trkpt>
<trkpt lat="54.601989" lon="-3.191608"><ele>97</ele><time>2019-10-02T16:16:34Z</time><name>PT18447</name></trkpt>
<trkpt lat="54.602001" lon="-3.191615"><ele>97</ele><time>2019-10-02T16:16:35Z</time><name>PT18448</name></trkpt>
<trkpt lat="54.602012" lon="-3.191620"><ele>96</ele><time>2019-10-02T16:16:37Z</time><name>PT18449</name></trkpt>
<trkpt lat="54.602021" lon="-3.191628"><ele>97</ele><time>2019-10-02T16:16:37Z</time><name>PT18450</name></trkpt>
<trkpt lat="54.602030" lon="-3.191635"><ele>97</ele><time>2019-10-02T16:16:38Z</time><name>PT18451</name></trkpt>
<trkpt lat="54.602037" lon="-3.191643"><ele>98</ele><time>2019-10-02T16:16:40Z</time><name>PT18452</name></trkpt>
<trkpt lat="54.602047" lon="-3.191651"><ele>98</ele><time>2019-10-02T16:16:40Z</time><name>PT18453</name></trkpt>
<trkpt lat="54.602058" lon="-3.191662"><ele>98</ele><time>2019-10-02T16:16:41Z</time><name>PT18454</name></trkpt>
<trkpt lat="54.602070" lon="-3.191669"><ele>98</ele><time>2019-10-02T16:16:43Z</time><name>PT18455</name></trkpt>
<trkpt lat="54.602080" lon="-3.191676"><ele>99</ele><time>2019-10-02T16:16:43Z</time><name>PT18456</name></trkpt>
<trkpt lat="54.602090" lon="-3.191682"><ele>100</ele><time>2019-10-02T16:16:45Z</time><name>PT18457</name></trkpt>
<trkpt lat="54.602101" lon="-3.191687"><ele>100</ele><time>2019-10-02T16:16:45Z</time><name>PT18458</name></trkpt>
<trkpt lat="54.602111" lon="-3.191690"><ele>101</ele><time>2019-10-02T16:16:47Z</time><name>PT18459</name></trkpt>
<trkpt lat="54.602122" lon="-3.191687"><ele>102</ele><time>2019-10-02T16:16:47Z</time><name>PT18460</name></trkpt>
<trkpt lat="54.602133" lon="-3.191691"><ele>101</ele><time>2019-10-02T16:16:49Z</time><name>PT18461</name></trkpt>
<trkpt lat="54.602145" lon="-3.191694"><ele>102</ele><time>2019-10-02T16:16:49Z</time><name>PT18462</name></trkpt>
<trkpt lat="54.602156" lon="-3.191696"><ele>102</ele><time>2019-10-02T16:16:50Z</time><name>PT18463</name></trkpt>
<trkpt lat="54.602166" lon="-3.191692"><ele>103</ele><time>2019-10-02T16:16:52Z</time><name>PT18464</name></trkpt>
<trkpt lat="54.602172" lon="-3.191689"><ele>104</ele><time>2019-10-02T16:16:52Z</time><name>PT18465</name></trkpt>
<trkpt lat="54.602180" lon="-3.191687"><ele>105</ele><time>2019-10-02T16:16:53Z</time><name>PT18466</name></trkpt>
<trkpt lat="54.602190" lon="-3.191684"><ele>105</ele><time>2019-10-02T16:16:55Z</time><name>PT18467</name></trkpt>
<trkpt lat="54.602196" lon="-3.191681"><ele>106</ele><time>2019-10-02T16:16:55Z</time><name>PT18468</name></trkpt>
<trkpt lat="54.602206" lon="-3.191676"><ele>106</ele><time>2019-10-02T16:16:57Z</time><name>PT18469</name></trkpt>
<trkpt lat="54.602210" lon="-3.191677"><ele>106</ele><time>2019-10-02T16:16:57Z</time><name>PT18470</name></trkpt>
<trkpt lat="54.602219" lon="-3.191678"><ele>106</ele><time>2019-10-02T16:16:59Z</time><name>PT18471</name></trkpt>
<trkpt lat="54.602242" lon="-3.191671"><ele>103</ele><time>2019-10-02T16:16:59Z</time><name>PT18472</name></trkpt>
<trkpt lat="54.602256" lon="-3.191670"><ele>102</ele><time>2019-10-02T16:17:01Z</time><name>PT18473</name></trkpt>
<trkpt lat="54.602270" lon="-3.191663"><ele>101</ele><time>2019-10-02T16:17:01Z</time><name>PT18474</name></trkpt>
<trkpt lat="54.602285" lon="-3.191662"><ele>100</ele><time>2019-10-02T16:17:03Z</time><name>PT18475</name></trkpt>
<trkpt lat="54.602300" lon="-3.191668"><ele>100</ele><time>2019-10-02T16:17:03Z</time><name>PT18476</name></trkpt>
<trkpt lat="54.602305" lon="-3.191657"><ele>101</ele><time>2019-10-02T16:17:05Z</time><name>PT18477</name></trkpt>
<trkpt lat="54.602306" lon="-3.191645"><ele>101</ele><time>2019-10-02T16:17:05Z</time><name>PT18478</name></trkpt>
<trkpt lat="54.602311" lon="-3.191629"><ele>101</ele><time>2019-10-02T16:17:07Z</time><name>PT18479</name></trkpt>
<trkpt lat="54.602319" lon="-3.191621"><ele>101</ele><time>2019-10-02T16:17:07Z</time><name>PT18480</name></trkpt>
<trkpt lat="54.602325" lon="-3.191610"><ele>100</ele><time>2019-10-02T16:17:09Z</time><name>PT18481</name></trkpt>
<trkpt lat="54.602325" lon="-3.191594"><ele>100</ele><time>2019-10-02T16:17:09Z</time><name>PT18482</name></trkpt>
<trkpt lat="54.602325" lon="-3.191574"><ele>100</ele><time>2019-10-02T16:17:11Z</time><name>PT18483</name></trkpt>
<trkpt lat="54.602328" lon="-3.191559"><ele>100</ele><time>2019-10-02T16:17:11Z</time><name>PT18484</name></trkpt>
<trkpt lat="54.602332" lon="-3.191544"><ele>100</ele><time>2019-10-02T16:17:13Z</time><name>PT18485</name></trkpt>
<trkpt lat="54.602334" lon="-3.191530"><ele>99</ele><time>2019-10-02T16:17:13Z</time><name>PT18486</name></trkpt>
<trkpt lat="54.602327" lon="-3.191512"><ele>99</ele><time>2019-10-02T16:17:15Z</time><name>PT18487</name></trkpt>
<trkpt lat="54.602320" lon="-3.191495"><ele>99</ele><time>2019-10-02T16:17:15Z</time><name>PT18488</name></trkpt>
<trkpt lat="54.602320" lon="-3.191481"><ele>99</ele><time>2019-10-02T16:17:17Z</time><name>PT18489</name></trkpt>
<trkpt lat="54.602324" lon="-3.191470"><ele>99</ele><time>2019-10-02T16:17:17Z</time><name>PT18490</name></trkpt>
<trkpt lat="54.602328" lon="-3.191462"><ele>100</ele><time>2019-10-02T16:17:19Z</time><name>PT18491</name></trkpt>
<trkpt lat="54.602321" lon="-3.191462"><ele>99</ele><time>2019-10-02T16:17:19Z</time><name>PT18492</name></trkpt>
<trkpt lat="54.602321" lon="-3.191461"><ele>99</ele><time>2019-10-02T16:17:21Z</time><name>PT18493</name></trkpt>
<trkpt lat="54.602320" lon="-3.191454"><ele>99</ele><time>2019-10-02T16:17:21Z</time><name>PT18494</name></trkpt>
<trkpt lat="54.602315" lon="-3.191454"><ele>99</ele><time>2019-10-02T16:17:23Z</time><name>PT18495</name></trkpt>
<trkpt lat="54.602317" lon="-3.191448"><ele>100</ele><time>2019-10-02T16:17:23Z</time><name>PT18496</name></trkpt>
<trkpt lat="54.602309" lon="-3.191443"><ele>100</ele><time>2019-10-02T16:17:25Z</time><name>PT18497</name></trkpt>
<trkpt lat="54.602301" lon="-3.191439"><ele>100</ele><time>2019-10-02T16:17:25Z</time><name>PT18498</name></trkpt>
<trkpt lat="54.602295" lon="-3.191441"><ele>100</ele><time>2019-10-02T16:17:27Z</time><name>PT18499</name></trkpt>
<trkpt lat="54.602293" lon="-3.191441"><ele>99</ele><time>2019-10-02T16:17:27Z</time><name>PT18500</name></trkpt>
<trkpt lat="54.602294" lon="-3.191436"><ele>99</ele><time>2019-10-02T16:17:28Z</time><name>PT18501</name></trkpt>
<trkpt lat="54.602295" lon="-3.191435"><ele>98</ele><time>2019-10-02T16:17:30Z</time><name>PT18502</name></trkpt>
<trkpt lat="54.602295" lon="-3.191440"><ele>98</ele><time>2019-10-02T16:17:30Z</time><name>PT18503</name></trkpt>
<trkpt lat="54.602290" lon="-3.191439"><ele>98</ele><time>2019-10-02T16:17:34Z</time><name>PT18504</name></trkpt>
<trkpt lat="54.602292" lon="-3.191441"><ele>98</ele><time>2019-10-02T16:17:36Z</time><name>PT18505</name></trkpt>
<trkpt lat="54.602298" lon="-3.191440"><ele>98</ele><time>2019-10-02T16:17:36Z</time><name>PT18506</name></trkpt>
<trkpt lat="54.602296" lon="-3.191433"><ele>99</ele><time>2019-10-02T16:17:38Z</time><name>PT18507</name></trkpt>
<trkpt lat="54.602288" lon="-3.191422"><ele>99</ele><time>2019-10-02T16:17:38Z</time><name>PT18508</name></trkpt>
<trkpt lat="54.602288" lon="-3.191416"><ele>99</ele><time>2019-10-02T16:17:40Z</time><name>PT18509</name></trkpt>
<trkpt lat="54.602287" lon="-3.191407"><ele>100</ele><time>2019-10-02T16:17:40Z</time><name>PT18510</name></trkpt>
<trkpt lat="54.602290" lon="-3.191406"><ele>100</ele><time>2019-10-02T16:17:42Z</time><name>PT18511</name></trkpt>
<trkpt lat="54.602291" lon="-3.191398"><ele>99</ele><time>2019-10-02T16:17:42Z</time><name>PT18512</name></trkpt>
<trkpt lat="54.602295" lon="-3.191413"><ele>98</ele><time>2019-10-02T16:17:44Z</time><name>PT18513</name></trkpt>
<trkpt lat="54.602300" lon="-3.191415"><ele>98</ele><time>2019-10-02T16:17:44Z</time><name>PT18514</name></trkpt>
<trkpt lat="54.602300" lon="-3.191411"><ele>98</ele><time>2019-10-02T16:17:46Z</time><name>PT18515</name></trkpt>
<trkpt lat="54.602297" lon="-3.191405"><ele>97</ele><time>2019-10-02T16:17:46Z</time><name>PT18516</name></trkpt>
<trkpt lat="54.602288" lon="-3.191396"><ele>97</ele><time>2019-10-02T16:17:48Z</time><name>PT18517</name></trkpt>
<trkpt lat="54.602279" lon="-3.191386"><ele>97</ele><time>2019-10-02T16:17:48Z</time><name>PT18518</name></trkpt>
<trkpt lat="54.602262" lon="-3.191381"><ele>98</ele><time>2019-10-02T16:17:50Z</time><name>PT18519</name></trkpt>
<trkpt lat="54.602251" lon="-3.191376"><ele>98</ele><time>2019-10-02T16:17:50Z</time><name>PT18520</name></trkpt>
<trkpt lat="54.602237" lon="-3.191362"><ele>99</ele><time>2019-10-02T16:17:52Z</time><name>PT18521</name></trkpt>
<trkpt lat="54.602236" lon="-3.191363"><ele>98</ele><time>2019-10-02T16:17:52Z</time><name>PT18522</name></trkpt>
<trkpt lat="54.602233" lon="-3.191367"><ele>98</ele><time>2019-10-02T16:17:54Z</time><name>PT18523</name></trkpt>
<trkpt lat="54.602233" lon="-3.191369"><ele>97</ele><time>2019-10-02T16:17:54Z</time><name>PT18524</name></trkpt>
<trkpt lat="54.602233" lon="-3.191362"><ele>96</ele><time>2019-10-02T16:17:56Z</time><name>PT18525</name></trkpt>
<trkpt lat="54.602220" lon="-3.191367"><ele>95</ele><time>2019-10-02T16:17:58Z</time><name>PT18526</name></trkpt>
<trkpt lat="54.602217" lon="-3.191375"><ele>94</ele><time>2019-10-02T16:17:58Z</time><name>PT18527</name></trkpt>
<trkpt lat="54.602227" lon="-3.191388"><ele>94</ele><time>2019-10-02T16:18:00Z</time><name>PT18528</name></trkpt>
<trkpt lat="54.602213" lon="-3.191364"><ele>94</ele><time>2019-10-02T16:18:00Z</time><name>PT18529</name></trkpt>
<trkpt lat="54.602212" lon="-3.191364"><ele>93</ele><time>2019-10-02T16:18:02Z</time><name>PT18530</name></trkpt>
<trkpt lat="54.602208" lon="-3.191359"><ele>92</ele><time>2019-10-02T16:18:02Z</time><name>PT18531</name></trkpt>
<trkpt lat="54.602197" lon="-3.191371"><ele>91</ele><time>2019-10-02T16:18:04Z</time><name>PT18532</name></trkpt>
<trkpt lat="54.602207" lon="-3.191393"><ele>91</ele><time>2019-10-02T16:18:04Z</time><name>PT18533</name></trkpt>
<trkpt lat="54.602218" lon="-3.191415"><ele>92</ele><time>2019-10-02T16:18:06Z</time><name>PT18534</name></trkpt>
<trkpt lat="54.602214" lon="-3.191436"><ele>92</ele><time>2019-10-02T16:18:06Z</time><name>PT18535</name></trkpt>
<trkpt lat="54.602208" lon="-3.191440"><ele>92</ele><time>2019-10-02T16:18:08Z</time><name>PT18536</name></trkpt>
<trkpt lat="54.602199" lon="-3.191431"><ele>92</ele><time>2019-10-02T16:18:08Z</time><name>PT18537</name></trkpt>
<trkpt lat="54.602198" lon="-3.191458"><ele>92</ele><time>2019-10-02T16:18:09Z</time><name>PT18538</name></trkpt>
<trkpt lat="54.602206" lon="-3.191456"><ele>92</ele><time>2019-10-02T16:18:11Z</time><name>PT18539</name></trkpt>
<trkpt lat="54.602215" lon="-3.191451"><ele>91</ele><time>2019-10-02T16:18:11Z</time><name>PT18540</name></trkpt>
<trkpt lat="54.602210" lon="-3.191448"><ele>92</ele><time>2019-10-02T16:18:13Z</time><name>PT18541</name></trkpt>
<trkpt lat="54.602201" lon="-3.191467"><ele>93</ele><time>2019-10-02T16:18:13Z</time><name>PT18542</name></trkpt>
<trkpt lat="54.602205" lon="-3.191481"><ele>94</ele><time>2019-10-02T16:18:15Z</time><name>PT18543</name></trkpt>
<trkpt lat="54.602221" lon="-3.191447"><ele>94</ele><time>2019-10-02T16:18:15Z</time><name>PT18544</name></trkpt>
<trkpt lat="54.602230" lon="-3.191450"><ele>95</ele><time>2019-10-02T16:18:17Z</time><name>PT18545</name></trkpt>
<trkpt lat="54.602202" lon="-3.191476"><ele>96</ele><time>2019-10-02T16:18:17Z</time><name>PT18546</name></trkpt>
<trkpt lat="54.602164" lon="-3.191474"><ele>97</ele><time>2019-10-02T16:18:19Z</time><name>PT18547</name></trkpt>
<trkpt lat="54.602150" lon="-3.191477"><ele>97</ele><time>2019-10-02T16:18:19Z</time><name>PT18548</name></trkpt>
<trkpt lat="54.602155" lon="-3.191472"><ele>97</ele><time>2019-10-02T16:18:21Z</time><name>PT18549</name></trkpt>
<trkpt lat="54.602144" lon="-3.191461"><ele>97</ele><time>2019-10-02T16:18:21Z</time><name>PT18550</name></trkpt>
<trkpt lat="54.602141" lon="-3.191453"><ele>96</ele><time>2019-10-02T16:18:23Z</time><name>PT18551</name></trkpt>
<trkpt lat="54.602140" lon="-3.191457"><ele>97</ele><time>2019-10-02T16:18:23Z</time><name>PT18552</name></trkpt>
<trkpt lat="54.602153" lon="-3.191451"><ele>96</ele><time>2019-10-02T16:18:25Z</time><name>PT18553</name></trkpt>
<trkpt lat="54.602152" lon="-3.191445"><ele>95</ele><time>2019-10-02T16:18:25Z</time><name>PT18554</name></trkpt>
<trkpt lat="54.602156" lon="-3.191436"><ele>95</ele><time>2019-10-02T16:18:27Z</time><name>PT18555</name></trkpt>
<trkpt lat="54.602177" lon="-3.191419"><ele>96</ele><time>2019-10-02T16:18:31Z</time><name>PT18556</name></trkpt>
<trkpt lat="54.602190" lon="-3.191409"><ele>95</ele><time>2019-10-02T16:18:31Z</time><name>PT18557</name></trkpt>
<trkpt lat="54.602200" lon="-3.191409"><ele>94</ele><time>2019-10-02T16:18:33Z</time><name>PT18558</name></trkpt></trkseg></trk></gpx>